<?xml version="1.0" encoding="UTF-8"?>
<gpx version="1.1" creator="https://www.youtrack.es" xsi:schemaLocation="http://www.topografix.com/GPX/1/1 http://www.topografix.com/GPX/1/1/gpx.xsd http://www.garmin.com/xmlschemas/GpxExtensions/v3 http://www.garmin.com/xmlschemas/GpxExtensionsv3.xsd http://www.garmin.com/xmlschemas/TrackPointExtension/v1 http://www.garmin.com/xmlschemas/TrackPointExtensionv1.xsd" xmlns:gpxtpx="http://www.garmin.com/xmlschemas/TrackPointExtension/v1" xmlns:gpxx="http://www.garmin.com/xmlschemas/GpxExtensions/v3" xmlns:xsi="http://www.w3.org/2001/XMLSchema-instance">
  <metadata>
    <author>
      <name>joaquin peri</name>
      <email id="peribanyez" domain="gmail.com"/>
    </author>
    <link href="https://www.youtrack.es">
      <text>YouTrack.es</text>
    </link>
    <time>2026-05-10T15:32:11Z</time>
  </metadata>
  <trk>
    <src>https://www.youtrack.es</src>
    <link href="https://www.youtrack.es/ruta/233-last-one-to-liega">
      <text>YouTrack.es</text>
    </link>
    <trkseg>
      <trkpt lat="41.4834860" lon="2.1514160">
        <ele>94.4</ele>
        <time>2018-04-10T06:13:50Z</time>
      </trkpt>
      <trkpt lat="41.4834740" lon="2.1514180">
        <ele>94.6</ele>
        <time>2018-04-10T06:13:51Z</time>
      </trkpt>
      <trkpt lat="41.4834400" lon="2.1514230">
        <ele>94.6</ele>
        <time>2018-04-10T06:13:53Z</time>
      </trkpt>
      <trkpt lat="41.4833990" lon="2.1514350">
        <ele>94.6</ele>
        <time>2018-04-10T06:13:55Z</time>
      </trkpt>
      <trkpt lat="41.4833540" lon="2.1514250">
        <ele>94.6</ele>
        <time>2018-04-10T06:13:57Z</time>
      </trkpt>
      <trkpt lat="41.4833460" lon="2.1513650">
        <ele>94.4</ele>
        <time>2018-04-10T06:13:59Z</time>
      </trkpt>
      <trkpt lat="41.4833780" lon="2.1512880">
        <ele>94.4</ele>
        <time>2018-04-10T06:14:01Z</time>
      </trkpt>
      <trkpt lat="41.4834090" lon="2.1512070">
        <ele>94.4</ele>
        <time>2018-04-10T06:14:03Z</time>
      </trkpt>
      <trkpt lat="41.4834390" lon="2.1511230">
        <ele>94.4</ele>
        <time>2018-04-10T06:14:05Z</time>
      </trkpt>
      <trkpt lat="41.4834680" lon="2.1510380">
        <ele>94.4</ele>
        <time>2018-04-10T06:14:07Z</time>
      </trkpt>
      <trkpt lat="41.4834850" lon="2.1509470">
        <ele>94.4</ele>
        <time>2018-04-10T06:14:09Z</time>
      </trkpt>
      <trkpt lat="41.4835010" lon="2.1508620">
        <ele>94.4</ele>
        <time>2018-04-10T06:14:11Z</time>
      </trkpt>
      <trkpt lat="41.4835090" lon="2.1507870">
        <ele>94.6</ele>
        <time>2018-04-10T06:14:13Z</time>
      </trkpt>
      <trkpt lat="41.4835270" lon="2.1507200">
        <ele>95.0</ele>
        <time>2018-04-10T06:14:15Z</time>
      </trkpt>
      <trkpt lat="41.4835450" lon="2.1506660">
        <ele>95.2</ele>
        <time>2018-04-10T06:14:17Z</time>
      </trkpt>
      <trkpt lat="41.4835630" lon="2.1506180">
        <ele>95.4</ele>
        <time>2018-04-10T06:14:19Z</time>
      </trkpt>
      <trkpt lat="41.4835760" lon="2.1505710">
        <ele>95.4</ele>
        <time>2018-04-10T06:14:21Z</time>
      </trkpt>
      <trkpt lat="41.4835930" lon="2.1505060">
        <ele>95.6</ele>
        <time>2018-04-10T06:14:23Z</time>
      </trkpt>
      <trkpt lat="41.4836070" lon="2.1504100">
        <ele>95.6</ele>
        <time>2018-04-10T06:14:25Z</time>
      </trkpt>
      <trkpt lat="41.4836120" lon="2.1502840">
        <ele>95.6</ele>
        <time>2018-04-10T06:14:27Z</time>
      </trkpt>
      <trkpt lat="41.4836140" lon="2.1501510">
        <ele>95.4</ele>
        <time>2018-04-10T06:14:29Z</time>
      </trkpt>
      <trkpt lat="41.4836160" lon="2.1500220">
        <ele>95.4</ele>
        <time>2018-04-10T06:14:31Z</time>
      </trkpt>
      <trkpt lat="41.4836210" lon="2.1498970">
        <ele>95.4</ele>
        <time>2018-04-10T06:14:33Z</time>
      </trkpt>
      <trkpt lat="41.4836320" lon="2.1497660">
        <ele>95.4</ele>
        <time>2018-04-10T06:14:35Z</time>
      </trkpt>
      <trkpt lat="41.4836400" lon="2.1496330">
        <ele>95.4</ele>
        <time>2018-04-10T06:14:37Z</time>
      </trkpt>
      <trkpt lat="41.4836530" lon="2.1494930">
        <ele>95.4</ele>
        <time>2018-04-10T06:14:39Z</time>
      </trkpt>
      <trkpt lat="41.4836670" lon="2.1493540">
        <ele>95.2</ele>
        <time>2018-04-10T06:14:41Z</time>
      </trkpt>
      <trkpt lat="41.4836760" lon="2.1492130">
        <ele>95.2</ele>
        <time>2018-04-10T06:14:43Z</time>
      </trkpt>
      <trkpt lat="41.4836710" lon="2.1490620">
        <ele>95.2</ele>
        <time>2018-04-10T06:14:45Z</time>
      </trkpt>
      <trkpt lat="41.4836610" lon="2.1489880">
        <ele>95.2</ele>
        <time>2018-04-10T06:14:46Z</time>
      </trkpt>
      <trkpt lat="41.4836440" lon="2.1489100">
        <ele>95.2</ele>
        <time>2018-04-10T06:14:47Z</time>
      </trkpt>
      <trkpt lat="41.4836010" lon="2.1487440">
        <ele>95.4</ele>
        <time>2018-04-10T06:14:49Z</time>
      </trkpt>
      <trkpt lat="41.4835470" lon="2.1485730">
        <ele>95.0</ele>
        <time>2018-04-10T06:14:51Z</time>
      </trkpt>
      <trkpt lat="41.4834880" lon="2.1483930">
        <ele>95.0</ele>
        <time>2018-04-10T06:14:53Z</time>
      </trkpt>
      <trkpt lat="41.4834260" lon="2.1482030">
        <ele>94.8</ele>
        <time>2018-04-10T06:14:55Z</time>
      </trkpt>
      <trkpt lat="41.4833630" lon="2.1480180">
        <ele>94.4</ele>
        <time>2018-04-10T06:14:57Z</time>
      </trkpt>
      <trkpt lat="41.4832950" lon="2.1478230">
        <ele>93.8</ele>
        <time>2018-04-10T06:14:59Z</time>
      </trkpt>
      <trkpt lat="41.4832250" lon="2.1476250">
        <ele>93.0</ele>
        <time>2018-04-10T06:15:01Z</time>
      </trkpt>
      <trkpt lat="41.4831550" lon="2.1474160">
        <ele>92.6</ele>
        <time>2018-04-10T06:15:03Z</time>
      </trkpt>
      <trkpt lat="41.4830780" lon="2.1471890">
        <ele>91.8</ele>
        <time>2018-04-10T06:15:05Z</time>
      </trkpt>
      <trkpt lat="41.4830400" lon="2.1470730">
        <ele>91.6</ele>
        <time>2018-04-10T06:15:06Z</time>
      </trkpt>
      <trkpt lat="41.4830010" lon="2.1469550">
        <ele>91.2</ele>
        <time>2018-04-10T06:15:07Z</time>
      </trkpt>
      <trkpt lat="41.4829280" lon="2.1467190">
        <ele>90.2</ele>
        <time>2018-04-10T06:15:09Z</time>
      </trkpt>
      <trkpt lat="41.4828880" lon="2.1466010">
        <ele>89.8</ele>
        <time>2018-04-10T06:15:10Z</time>
      </trkpt>
      <trkpt lat="41.4828490" lon="2.1464830">
        <ele>89.4</ele>
        <time>2018-04-10T06:15:11Z</time>
      </trkpt>
      <trkpt lat="41.4828110" lon="2.1463650">
        <ele>89.0</ele>
        <time>2018-04-10T06:15:12Z</time>
      </trkpt>
      <trkpt lat="41.4827750" lon="2.1462470">
        <ele>88.2</ele>
        <time>2018-04-10T06:15:13Z</time>
      </trkpt>
      <trkpt lat="41.4827430" lon="2.1461280">
        <ele>87.6</ele>
        <time>2018-04-10T06:15:14Z</time>
      </trkpt>
      <trkpt lat="41.4827200" lon="2.1460110">
        <ele>87.0</ele>
        <time>2018-04-10T06:15:15Z</time>
      </trkpt>
      <trkpt lat="41.4827070" lon="2.1458960">
        <ele>86.4</ele>
        <time>2018-04-10T06:15:16Z</time>
      </trkpt>
      <trkpt lat="41.4827050" lon="2.1457850">
        <ele>86.0</ele>
        <time>2018-04-10T06:15:17Z</time>
      </trkpt>
      <trkpt lat="41.4827110" lon="2.1456730">
        <ele>85.4</ele>
        <time>2018-04-10T06:15:18Z</time>
      </trkpt>
      <trkpt lat="41.4827230" lon="2.1455650">
        <ele>85.0</ele>
        <time>2018-04-10T06:15:19Z</time>
      </trkpt>
      <trkpt lat="41.4827520" lon="2.1453510">
        <ele>84.0</ele>
        <time>2018-04-10T06:15:21Z</time>
      </trkpt>
      <trkpt lat="41.4827830" lon="2.1451390">
        <ele>83.6</ele>
        <time>2018-04-10T06:15:23Z</time>
      </trkpt>
      <trkpt lat="41.4828120" lon="2.1449330">
        <ele>83.4</ele>
        <time>2018-04-10T06:15:25Z</time>
      </trkpt>
      <trkpt lat="41.4828440" lon="2.1447360">
        <ele>83.2</ele>
        <time>2018-04-10T06:15:27Z</time>
      </trkpt>
      <trkpt lat="41.4828670" lon="2.1445440">
        <ele>83.2</ele>
        <time>2018-04-10T06:15:29Z</time>
      </trkpt>
      <trkpt lat="41.4828920" lon="2.1443690">
        <ele>83.2</ele>
        <time>2018-04-10T06:15:31Z</time>
      </trkpt>
      <trkpt lat="41.4829110" lon="2.1442010">
        <ele>83.2</ele>
        <time>2018-04-10T06:15:33Z</time>
      </trkpt>
      <trkpt lat="41.4829300" lon="2.1440500">
        <ele>83.4</ele>
        <time>2018-04-10T06:15:35Z</time>
      </trkpt>
      <trkpt lat="41.4829480" lon="2.1439130">
        <ele>83.4</ele>
        <time>2018-04-10T06:15:37Z</time>
      </trkpt>
      <trkpt lat="41.4829650" lon="2.1437870">
        <ele>83.6</ele>
        <time>2018-04-10T06:15:39Z</time>
      </trkpt>
      <trkpt lat="41.4829780" lon="2.1437290">
        <ele>83.8</ele>
        <time>2018-04-10T06:15:40Z</time>
      </trkpt>
      <trkpt lat="41.4829940" lon="2.1436780">
        <ele>84.0</ele>
        <time>2018-04-10T06:15:41Z</time>
      </trkpt>
      <trkpt lat="41.4830350" lon="2.1435960">
        <ele>84.4</ele>
        <time>2018-04-10T06:15:43Z</time>
      </trkpt>
      <trkpt lat="41.4830890" lon="2.1435280">
        <ele>84.8</ele>
        <time>2018-04-10T06:15:45Z</time>
      </trkpt>
      <trkpt lat="41.4831440" lon="2.1434620">
        <ele>85.4</ele>
        <time>2018-04-10T06:15:47Z</time>
      </trkpt>
      <trkpt lat="41.4831890" lon="2.1433820">
        <ele>86.0</ele>
        <time>2018-04-10T06:15:49Z</time>
      </trkpt>
      <trkpt lat="41.4832060" lon="2.1432790">
        <ele>86.6</ele>
        <time>2018-04-10T06:15:51Z</time>
      </trkpt>
      <trkpt lat="41.4831850" lon="2.1431670">
        <ele>87.2</ele>
        <time>2018-04-10T06:15:53Z</time>
      </trkpt>
      <trkpt lat="41.4831380" lon="2.1430580">
        <ele>88.2</ele>
        <time>2018-04-10T06:15:55Z</time>
      </trkpt>
      <trkpt lat="41.4831130" lon="2.1429980">
        <ele>88.4</ele>
        <time>2018-04-10T06:15:56Z</time>
      </trkpt>
      <trkpt lat="41.4830940" lon="2.1429350">
        <ele>88.8</ele>
        <time>2018-04-10T06:15:57Z</time>
      </trkpt>
      <trkpt lat="41.4830750" lon="2.1427970">
        <ele>89.0</ele>
        <time>2018-04-10T06:15:59Z</time>
      </trkpt>
      <trkpt lat="41.4830870" lon="2.1426610">
        <ele>89.0</ele>
        <time>2018-04-10T06:16:01Z</time>
      </trkpt>
      <trkpt lat="41.4831050" lon="2.1425350">
        <ele>89.2</ele>
        <time>2018-04-10T06:16:03Z</time>
      </trkpt>
      <trkpt lat="41.4831260" lon="2.1424150">
        <ele>89.2</ele>
        <time>2018-04-10T06:16:05Z</time>
      </trkpt>
      <trkpt lat="41.4831390" lon="2.1423560">
        <ele>89.2</ele>
        <time>2018-04-10T06:16:06Z</time>
      </trkpt>
      <trkpt lat="41.4831580" lon="2.1423020">
        <ele>89.4</ele>
        <time>2018-04-10T06:16:07Z</time>
      </trkpt>
      <trkpt lat="41.4831890" lon="2.1421870">
        <ele>89.6</ele>
        <time>2018-04-10T06:16:09Z</time>
      </trkpt>
      <trkpt lat="41.4832160" lon="2.1420690">
        <ele>89.4</ele>
        <time>2018-04-10T06:16:11Z</time>
      </trkpt>
      <trkpt lat="41.4832360" lon="2.1419510">
        <ele>89.8</ele>
        <time>2018-04-10T06:16:13Z</time>
      </trkpt>
      <trkpt lat="41.4832490" lon="2.1418920">
        <ele>90.0</ele>
        <time>2018-04-10T06:16:14Z</time>
      </trkpt>
      <trkpt lat="41.4832610" lon="2.1418310">
        <ele>90.0</ele>
        <time>2018-04-10T06:16:15Z</time>
      </trkpt>
      <trkpt lat="41.4832880" lon="2.1417140">
        <ele>90.2</ele>
        <time>2018-04-10T06:16:17Z</time>
      </trkpt>
      <trkpt lat="41.4833050" lon="2.1416560">
        <ele>90.4</ele>
        <time>2018-04-10T06:16:18Z</time>
      </trkpt>
      <trkpt lat="41.4833240" lon="2.1415990">
        <ele>90.6</ele>
        <time>2018-04-10T06:16:19Z</time>
      </trkpt>
      <trkpt lat="41.4833530" lon="2.1414830">
        <ele>90.8</ele>
        <time>2018-04-10T06:16:21Z</time>
      </trkpt>
      <trkpt lat="41.4833790" lon="2.1413630">
        <ele>90.8</ele>
        <time>2018-04-10T06:16:23Z</time>
      </trkpt>
      <trkpt lat="41.4834080" lon="2.1412480">
        <ele>90.8</ele>
        <time>2018-04-10T06:16:25Z</time>
      </trkpt>
      <trkpt lat="41.4834290" lon="2.1411920">
        <ele>91.0</ele>
        <time>2018-04-10T06:16:26Z</time>
      </trkpt>
      <trkpt lat="41.4834500" lon="2.1411380">
        <ele>91.0</ele>
        <time>2018-04-10T06:16:27Z</time>
      </trkpt>
      <trkpt lat="41.4834870" lon="2.1410340">
        <ele>91.0</ele>
        <time>2018-04-10T06:16:29Z</time>
      </trkpt>
      <trkpt lat="41.4835280" lon="2.1409460">
        <ele>91.0</ele>
        <time>2018-04-10T06:16:31Z</time>
      </trkpt>
      <trkpt lat="41.4835660" lon="2.1408770">
        <ele>91.4</ele>
        <time>2018-04-10T06:16:33Z</time>
      </trkpt>
      <trkpt lat="41.4835970" lon="2.1407980">
        <ele>91.6</ele>
        <time>2018-04-10T06:16:35Z</time>
      </trkpt>
      <trkpt lat="41.4836040" lon="2.1407540">
        <ele>91.6</ele>
        <time>2018-04-10T06:16:36Z</time>
      </trkpt>
      <trkpt lat="41.4836130" lon="2.1407080">
        <ele>91.8</ele>
        <time>2018-04-10T06:16:37Z</time>
      </trkpt>
      <trkpt lat="41.4836460" lon="2.1406330">
        <ele>91.8</ele>
        <time>2018-04-10T06:16:39Z</time>
      </trkpt>
      <trkpt lat="41.4836900" lon="2.1405650">
        <ele>91.8</ele>
        <time>2018-04-10T06:16:41Z</time>
      </trkpt>
      <trkpt lat="41.4837310" lon="2.1404900">
        <ele>91.8</ele>
        <time>2018-04-10T06:16:43Z</time>
      </trkpt>
      <trkpt lat="41.4837660" lon="2.1404140">
        <ele>92.2</ele>
        <time>2018-04-10T06:16:45Z</time>
      </trkpt>
      <trkpt lat="41.4838040" lon="2.1403500">
        <ele>92.4</ele>
        <time>2018-04-10T06:16:47Z</time>
      </trkpt>
      <trkpt lat="41.4838410" lon="2.1402810">
        <ele>92.8</ele>
        <time>2018-04-10T06:16:49Z</time>
      </trkpt>
      <trkpt lat="41.4838770" lon="2.1402030">
        <ele>93.2</ele>
        <time>2018-04-10T06:16:51Z</time>
      </trkpt>
      <trkpt lat="41.4839110" lon="2.1401230">
        <ele>94.0</ele>
        <time>2018-04-10T06:16:53Z</time>
      </trkpt>
      <trkpt lat="41.4839480" lon="2.1400420">
        <ele>94.6</ele>
        <time>2018-04-10T06:16:55Z</time>
      </trkpt>
      <trkpt lat="41.4839880" lon="2.1399640">
        <ele>95.0</ele>
        <time>2018-04-10T06:16:57Z</time>
      </trkpt>
      <trkpt lat="41.4840080" lon="2.1399250">
        <ele>95.2</ele>
        <time>2018-04-10T06:16:58Z</time>
      </trkpt>
      <trkpt lat="41.4840280" lon="2.1398860">
        <ele>95.6</ele>
        <time>2018-04-10T06:16:59Z</time>
      </trkpt>
      <trkpt lat="41.4840690" lon="2.1398110">
        <ele>96.0</ele>
        <time>2018-04-10T06:17:01Z</time>
      </trkpt>
      <trkpt lat="41.4841080" lon="2.1397340">
        <ele>96.4</ele>
        <time>2018-04-10T06:17:03Z</time>
      </trkpt>
      <trkpt lat="41.4841500" lon="2.1396560">
        <ele>97.0</ele>
        <time>2018-04-10T06:17:05Z</time>
      </trkpt>
      <trkpt lat="41.4841910" lon="2.1395830">
        <ele>97.6</ele>
        <time>2018-04-10T06:17:07Z</time>
      </trkpt>
      <trkpt lat="41.4842330" lon="2.1395120">
        <ele>98.0</ele>
        <time>2018-04-10T06:17:09Z</time>
      </trkpt>
      <trkpt lat="41.4842750" lon="2.1394420">
        <ele>98.6</ele>
        <time>2018-04-10T06:17:11Z</time>
      </trkpt>
      <trkpt lat="41.4842970" lon="2.1394080">
        <ele>99.0</ele>
        <time>2018-04-10T06:17:12Z</time>
      </trkpt>
      <trkpt lat="41.4843200" lon="2.1393750">
        <ele>99.2</ele>
        <time>2018-04-10T06:17:13Z</time>
      </trkpt>
      <trkpt lat="41.4843630" lon="2.1393050">
        <ele>99.8</ele>
        <time>2018-04-10T06:17:15Z</time>
      </trkpt>
      <trkpt lat="41.4843840" lon="2.1392700">
        <ele>100.2</ele>
        <time>2018-04-10T06:17:16Z</time>
      </trkpt>
      <trkpt lat="41.4844060" lon="2.1392330">
        <ele>100.4</ele>
        <time>2018-04-10T06:17:17Z</time>
      </trkpt>
      <trkpt lat="41.4844480" lon="2.1391570">
        <ele>101.0</ele>
        <time>2018-04-10T06:17:19Z</time>
      </trkpt>
      <trkpt lat="41.4844700" lon="2.1391210">
        <ele>101.2</ele>
        <time>2018-04-10T06:17:20Z</time>
      </trkpt>
      <trkpt lat="41.4844910" lon="2.1390840">
        <ele>101.4</ele>
        <time>2018-04-10T06:17:21Z</time>
      </trkpt>
      <trkpt lat="41.4845330" lon="2.1390050">
        <ele>102.2</ele>
        <time>2018-04-10T06:17:23Z</time>
      </trkpt>
      <trkpt lat="41.4845530" lon="2.1389650">
        <ele>102.4</ele>
        <time>2018-04-10T06:17:24Z</time>
      </trkpt>
      <trkpt lat="41.4845740" lon="2.1389250">
        <ele>102.8</ele>
        <time>2018-04-10T06:17:25Z</time>
      </trkpt>
      <trkpt lat="41.4846160" lon="2.1388500">
        <ele>103.2</ele>
        <time>2018-04-10T06:17:27Z</time>
      </trkpt>
      <trkpt lat="41.4846400" lon="2.1388140">
        <ele>103.4</ele>
        <time>2018-04-10T06:17:28Z</time>
      </trkpt>
      <trkpt lat="41.4846610" lon="2.1387750">
        <ele>103.6</ele>
        <time>2018-04-10T06:17:29Z</time>
      </trkpt>
      <trkpt lat="41.4847060" lon="2.1386970">
        <ele>104.2</ele>
        <time>2018-04-10T06:17:31Z</time>
      </trkpt>
      <trkpt lat="41.4847520" lon="2.1386170">
        <ele>104.8</ele>
        <time>2018-04-10T06:17:33Z</time>
      </trkpt>
      <trkpt lat="41.4847990" lon="2.1385390">
        <ele>105.2</ele>
        <time>2018-04-10T06:17:35Z</time>
      </trkpt>
      <trkpt lat="41.4848510" lon="2.1384490">
        <ele>105.6</ele>
        <time>2018-04-10T06:17:37Z</time>
      </trkpt>
      <trkpt lat="41.4848780" lon="2.1384030">
        <ele>105.8</ele>
        <time>2018-04-10T06:17:38Z</time>
      </trkpt>
      <trkpt lat="41.4849060" lon="2.1383570">
        <ele>106.0</ele>
        <time>2018-04-10T06:17:39Z</time>
      </trkpt>
      <trkpt lat="41.4849620" lon="2.1382630">
        <ele>106.2</ele>
        <time>2018-04-10T06:17:41Z</time>
      </trkpt>
      <trkpt lat="41.4850210" lon="2.1381660">
        <ele>106.6</ele>
        <time>2018-04-10T06:17:43Z</time>
      </trkpt>
      <trkpt lat="41.4850780" lon="2.1380660">
        <ele>106.6</ele>
        <time>2018-04-10T06:17:45Z</time>
      </trkpt>
      <trkpt lat="41.4851350" lon="2.1379690">
        <ele>106.8</ele>
        <time>2018-04-10T06:17:47Z</time>
      </trkpt>
      <trkpt lat="41.4851920" lon="2.1378790">
        <ele>106.8</ele>
        <time>2018-04-10T06:17:49Z</time>
      </trkpt>
      <trkpt lat="41.4852210" lon="2.1378390">
        <ele>106.8</ele>
        <time>2018-04-10T06:17:50Z</time>
      </trkpt>
      <trkpt lat="41.4852530" lon="2.1378020">
        <ele>107.0</ele>
        <time>2018-04-10T06:17:51Z</time>
      </trkpt>
      <trkpt lat="41.4853060" lon="2.1377250">
        <ele>107.4</ele>
        <time>2018-04-10T06:17:53Z</time>
      </trkpt>
      <trkpt lat="41.4853520" lon="2.1376510">
        <ele>107.6</ele>
        <time>2018-04-10T06:17:55Z</time>
      </trkpt>
      <trkpt lat="41.4853950" lon="2.1375720">
        <ele>107.8</ele>
        <time>2018-04-10T06:17:57Z</time>
      </trkpt>
      <trkpt lat="41.4854410" lon="2.1374950">
        <ele>108.2</ele>
        <time>2018-04-10T06:17:59Z</time>
      </trkpt>
      <trkpt lat="41.4854850" lon="2.1374180">
        <ele>108.6</ele>
        <time>2018-04-10T06:18:01Z</time>
      </trkpt>
      <trkpt lat="41.4855280" lon="2.1373450">
        <ele>109.2</ele>
        <time>2018-04-10T06:18:03Z</time>
      </trkpt>
      <trkpt lat="41.4855510" lon="2.1373110">
        <ele>109.4</ele>
        <time>2018-04-10T06:18:04Z</time>
      </trkpt>
      <trkpt lat="41.4855730" lon="2.1372730">
        <ele>109.6</ele>
        <time>2018-04-10T06:18:05Z</time>
      </trkpt>
      <trkpt lat="41.4856180" lon="2.1371980">
        <ele>110.2</ele>
        <time>2018-04-10T06:18:07Z</time>
      </trkpt>
      <trkpt lat="41.4856410" lon="2.1371610">
        <ele>110.6</ele>
        <time>2018-04-10T06:18:08Z</time>
      </trkpt>
      <trkpt lat="41.4856630" lon="2.1371240">
        <ele>110.8</ele>
        <time>2018-04-10T06:18:09Z</time>
      </trkpt>
      <trkpt lat="41.4857020" lon="2.1370560">
        <ele>111.4</ele>
        <time>2018-04-10T06:18:11Z</time>
      </trkpt>
      <trkpt lat="41.4857200" lon="2.1370270">
        <ele>111.6</ele>
        <time>2018-04-10T06:18:12Z</time>
      </trkpt>
      <trkpt lat="41.4857410" lon="2.1370020">
        <ele>111.8</ele>
        <time>2018-04-10T06:18:13Z</time>
      </trkpt>
      <trkpt lat="41.4857810" lon="2.1369660">
        <ele>112.2</ele>
        <time>2018-04-10T06:18:15Z</time>
      </trkpt>
      <trkpt lat="41.4858070" lon="2.1369300">
        <ele>112.4</ele>
        <time>2018-04-10T06:18:17Z</time>
      </trkpt>
      <trkpt lat="41.4858150" lon="2.1369120">
        <ele>112.6</ele>
        <time>2018-04-10T06:18:18Z</time>
      </trkpt>
      <trkpt lat="41.4858290" lon="2.1369000">
        <ele>112.8</ele>
        <time>2018-04-10T06:18:19Z</time>
      </trkpt>
      <trkpt lat="41.4858600" lon="2.1368860">
        <ele>113.0</ele>
        <time>2018-04-10T06:18:21Z</time>
      </trkpt>
      <trkpt lat="41.4858830" lon="2.1368780">
        <ele>113.4</ele>
        <time>2018-04-10T06:18:22Z</time>
      </trkpt>
      <trkpt lat="41.4859140" lon="2.1368780">
        <ele>113.4</ele>
        <time>2018-04-10T06:18:23Z</time>
      </trkpt>
      <trkpt lat="41.4859940" lon="2.1368860">
        <ele>113.4</ele>
        <time>2018-04-10T06:18:25Z</time>
      </trkpt>
      <trkpt lat="41.4860840" lon="2.1368590">
        <ele>113.4</ele>
        <time>2018-04-10T06:18:27Z</time>
      </trkpt>
      <trkpt lat="41.4861540" lon="2.1367800">
        <ele>113.4</ele>
        <time>2018-04-10T06:18:29Z</time>
      </trkpt>
      <trkpt lat="41.4861730" lon="2.1366480">
        <ele>113.4</ele>
        <time>2018-04-10T06:18:31Z</time>
      </trkpt>
      <trkpt lat="41.4861480" lon="2.1365050">
        <ele>113.4</ele>
        <time>2018-04-10T06:18:33Z</time>
      </trkpt>
      <trkpt lat="41.4861290" lon="2.1364390">
        <ele>113.2</ele>
        <time>2018-04-10T06:18:34Z</time>
      </trkpt>
      <trkpt lat="41.4861120" lon="2.1363740">
        <ele>113.2</ele>
        <time>2018-04-10T06:18:35Z</time>
      </trkpt>
      <trkpt lat="41.4860990" lon="2.1363090">
        <ele>113.2</ele>
        <time>2018-04-10T06:18:36Z</time>
      </trkpt>
      <trkpt lat="41.4860910" lon="2.1362450">
        <ele>113.2</ele>
        <time>2018-04-10T06:18:37Z</time>
      </trkpt>
      <trkpt lat="41.4860910" lon="2.1361100">
        <ele>113.0</ele>
        <time>2018-04-10T06:18:39Z</time>
      </trkpt>
      <trkpt lat="41.4860940" lon="2.1360390">
        <ele>112.8</ele>
        <time>2018-04-10T06:18:40Z</time>
      </trkpt>
      <trkpt lat="41.4860940" lon="2.1359620">
        <ele>112.8</ele>
        <time>2018-04-10T06:18:41Z</time>
      </trkpt>
      <trkpt lat="41.4860880" lon="2.1357960">
        <ele>112.8</ele>
        <time>2018-04-10T06:18:43Z</time>
      </trkpt>
      <trkpt lat="41.4860760" lon="2.1356170">
        <ele>112.4</ele>
        <time>2018-04-10T06:18:45Z</time>
      </trkpt>
      <trkpt lat="41.4860670" lon="2.1354330">
        <ele>112.4</ele>
        <time>2018-04-10T06:18:47Z</time>
      </trkpt>
      <trkpt lat="41.4860630" lon="2.1353360">
        <ele>112.2</ele>
        <time>2018-04-10T06:18:48Z</time>
      </trkpt>
      <trkpt lat="41.4860580" lon="2.1352400">
        <ele>111.8</ele>
        <time>2018-04-10T06:18:49Z</time>
      </trkpt>
      <trkpt lat="41.4860530" lon="2.1351460">
        <ele>111.6</ele>
        <time>2018-04-10T06:18:50Z</time>
      </trkpt>
      <trkpt lat="41.4860470" lon="2.1350550">
        <ele>111.2</ele>
        <time>2018-04-10T06:18:51Z</time>
      </trkpt>
      <trkpt lat="41.4860280" lon="2.1348850">
        <ele>110.8</ele>
        <time>2018-04-10T06:18:53Z</time>
      </trkpt>
      <trkpt lat="41.4860080" lon="2.1347340">
        <ele>110.2</ele>
        <time>2018-04-10T06:18:55Z</time>
      </trkpt>
      <trkpt lat="41.4859890" lon="2.1346010">
        <ele>109.6</ele>
        <time>2018-04-10T06:18:57Z</time>
      </trkpt>
      <trkpt lat="41.4859640" lon="2.1344680">
        <ele>109.0</ele>
        <time>2018-04-10T06:18:59Z</time>
      </trkpt>
      <trkpt lat="41.4859410" lon="2.1343290">
        <ele>108.6</ele>
        <time>2018-04-10T06:19:01Z</time>
      </trkpt>
      <trkpt lat="41.4859310" lon="2.1342560">
        <ele>108.4</ele>
        <time>2018-04-10T06:19:02Z</time>
      </trkpt>
      <trkpt lat="41.4859180" lon="2.1341830">
        <ele>108.0</ele>
        <time>2018-04-10T06:19:03Z</time>
      </trkpt>
      <trkpt lat="41.4858910" lon="2.1340470">
        <ele>107.8</ele>
        <time>2018-04-10T06:19:05Z</time>
      </trkpt>
      <trkpt lat="41.4858620" lon="2.1339040">
        <ele>107.4</ele>
        <time>2018-04-10T06:19:07Z</time>
      </trkpt>
      <trkpt lat="41.4858460" lon="2.1338290">
        <ele>107.2</ele>
        <time>2018-04-10T06:19:08Z</time>
      </trkpt>
      <trkpt lat="41.4858330" lon="2.1337600">
        <ele>107.0</ele>
        <time>2018-04-10T06:19:09Z</time>
      </trkpt>
      <trkpt lat="41.4858070" lon="2.1336290">
        <ele>106.6</ele>
        <time>2018-04-10T06:19:11Z</time>
      </trkpt>
      <trkpt lat="41.4857970" lon="2.1335660">
        <ele>106.2</ele>
        <time>2018-04-10T06:19:12Z</time>
      </trkpt>
      <trkpt lat="41.4857880" lon="2.1335010">
        <ele>106.0</ele>
        <time>2018-04-10T06:19:13Z</time>
      </trkpt>
      <trkpt lat="41.4857770" lon="2.1333780">
        <ele>105.8</ele>
        <time>2018-04-10T06:19:15Z</time>
      </trkpt>
      <trkpt lat="41.4857610" lon="2.1332480">
        <ele>105.2</ele>
        <time>2018-04-10T06:19:17Z</time>
      </trkpt>
      <trkpt lat="41.4857550" lon="2.1331830">
        <ele>104.8</ele>
        <time>2018-04-10T06:19:18Z</time>
      </trkpt>
      <trkpt lat="41.4857500" lon="2.1331190">
        <ele>104.8</ele>
        <time>2018-04-10T06:19:19Z</time>
      </trkpt>
      <trkpt lat="41.4857450" lon="2.1329960">
        <ele>104.4</ele>
        <time>2018-04-10T06:19:21Z</time>
      </trkpt>
      <trkpt lat="41.4857370" lon="2.1328810">
        <ele>104.2</ele>
        <time>2018-04-10T06:19:23Z</time>
      </trkpt>
      <trkpt lat="41.4857340" lon="2.1328360">
        <ele>104.2</ele>
        <time>2018-04-10T06:19:24Z</time>
      </trkpt>
      <trkpt lat="41.4857360" lon="2.1328100">
        <ele>104.2</ele>
        <time>2018-04-10T06:19:25Z</time>
      </trkpt>
      <trkpt lat="41.4857400" lon="2.1327860">
        <ele>104.0</ele>
        <time>2018-04-10T06:19:26Z</time>
      </trkpt>
      <trkpt lat="41.4857420" lon="2.1327510">
        <ele>104.0</ele>
        <time>2018-04-10T06:19:27Z</time>
      </trkpt>
      <trkpt lat="41.4857480" lon="2.1326890">
        <ele>103.8</ele>
        <time>2018-04-10T06:19:29Z</time>
      </trkpt>
      <trkpt lat="41.4857590" lon="2.1326230">
        <ele>103.8</ele>
        <time>2018-04-10T06:19:31Z</time>
      </trkpt>
      <trkpt lat="41.4857620" lon="2.1325770">
        <ele>103.6</ele>
        <time>2018-04-10T06:19:32Z</time>
      </trkpt>
      <trkpt lat="41.4857640" lon="2.1325240">
        <ele>103.6</ele>
        <time>2018-04-10T06:19:33Z</time>
      </trkpt>
      <trkpt lat="41.4857440" lon="2.1323910">
        <ele>103.6</ele>
        <time>2018-04-10T06:19:35Z</time>
      </trkpt>
      <trkpt lat="41.4857090" lon="2.1322510">
        <ele>103.6</ele>
        <time>2018-04-10T06:19:37Z</time>
      </trkpt>
      <trkpt lat="41.4856840" lon="2.1320950">
        <ele>103.6</ele>
        <time>2018-04-10T06:19:39Z</time>
      </trkpt>
      <trkpt lat="41.4856620" lon="2.1319270">
        <ele>103.6</ele>
        <time>2018-04-10T06:19:41Z</time>
      </trkpt>
      <trkpt lat="41.4856510" lon="2.1317570">
        <ele>103.6</ele>
        <time>2018-04-10T06:19:43Z</time>
      </trkpt>
      <trkpt lat="41.4856370" lon="2.1315900">
        <ele>103.6</ele>
        <time>2018-04-10T06:19:45Z</time>
      </trkpt>
      <trkpt lat="41.4856240" lon="2.1314210">
        <ele>103.6</ele>
        <time>2018-04-10T06:19:47Z</time>
      </trkpt>
      <trkpt lat="41.4856130" lon="2.1312430">
        <ele>103.8</ele>
        <time>2018-04-10T06:19:49Z</time>
      </trkpt>
      <trkpt lat="41.4856010" lon="2.1310580">
        <ele>103.8</ele>
        <time>2018-04-10T06:19:51Z</time>
      </trkpt>
      <trkpt lat="41.4855880" lon="2.1308660">
        <ele>103.6</ele>
        <time>2018-04-10T06:19:53Z</time>
      </trkpt>
      <trkpt lat="41.4855790" lon="2.1306700">
        <ele>103.6</ele>
        <time>2018-04-10T06:19:55Z</time>
      </trkpt>
      <trkpt lat="41.4855780" lon="2.1304780">
        <ele>103.2</ele>
        <time>2018-04-10T06:19:57Z</time>
      </trkpt>
      <trkpt lat="41.4855800" lon="2.1303830">
        <ele>103.2</ele>
        <time>2018-04-10T06:19:58Z</time>
      </trkpt>
      <trkpt lat="41.4855810" lon="2.1302870">
        <ele>103.0</ele>
        <time>2018-04-10T06:19:59Z</time>
      </trkpt>
      <trkpt lat="41.4855870" lon="2.1300990">
        <ele>102.8</ele>
        <time>2018-04-10T06:20:01Z</time>
      </trkpt>
      <trkpt lat="41.4855860" lon="2.1299140">
        <ele>102.6</ele>
        <time>2018-04-10T06:20:03Z</time>
      </trkpt>
      <trkpt lat="41.4855780" lon="2.1297330">
        <ele>102.6</ele>
        <time>2018-04-10T06:20:05Z</time>
      </trkpt>
      <trkpt lat="41.4855680" lon="2.1295600">
        <ele>102.4</ele>
        <time>2018-04-10T06:20:07Z</time>
      </trkpt>
      <trkpt lat="41.4855560" lon="2.1293910">
        <ele>102.4</ele>
        <time>2018-04-10T06:20:09Z</time>
      </trkpt>
      <trkpt lat="41.4855450" lon="2.1292190">
        <ele>102.6</ele>
        <time>2018-04-10T06:20:11Z</time>
      </trkpt>
      <trkpt lat="41.4855330" lon="2.1290490">
        <ele>102.6</ele>
        <time>2018-04-10T06:20:13Z</time>
      </trkpt>
      <trkpt lat="41.4855190" lon="2.1288810">
        <ele>102.6</ele>
        <time>2018-04-10T06:20:15Z</time>
      </trkpt>
      <trkpt lat="41.4855040" lon="2.1287100">
        <ele>102.6</ele>
        <time>2018-04-10T06:20:17Z</time>
      </trkpt>
      <trkpt lat="41.4855040" lon="2.1286240">
        <ele>102.6</ele>
        <time>2018-04-10T06:20:18Z</time>
      </trkpt>
      <trkpt lat="41.4855150" lon="2.1285380">
        <ele>102.6</ele>
        <time>2018-04-10T06:20:19Z</time>
      </trkpt>
      <trkpt lat="41.4855730" lon="2.1283910">
        <ele>102.8</ele>
        <time>2018-04-10T06:20:21Z</time>
      </trkpt>
      <trkpt lat="41.4856080" lon="2.1283210">
        <ele>102.8</ele>
        <time>2018-04-10T06:20:22Z</time>
      </trkpt>
      <trkpt lat="41.4856390" lon="2.1282500">
        <ele>102.8</ele>
        <time>2018-04-10T06:20:23Z</time>
      </trkpt>
      <trkpt lat="41.4856670" lon="2.1280940">
        <ele>102.8</ele>
        <time>2018-04-10T06:20:25Z</time>
      </trkpt>
      <trkpt lat="41.4856570" lon="2.1279440">
        <ele>102.8</ele>
        <time>2018-04-10T06:20:27Z</time>
      </trkpt>
      <trkpt lat="41.4856100" lon="2.1278080">
        <ele>102.8</ele>
        <time>2018-04-10T06:20:29Z</time>
      </trkpt>
      <trkpt lat="41.4855330" lon="2.1277030">
        <ele>103.0</ele>
        <time>2018-04-10T06:20:31Z</time>
      </trkpt>
      <trkpt lat="41.4854410" lon="2.1276170">
        <ele>103.4</ele>
        <time>2018-04-10T06:20:33Z</time>
      </trkpt>
      <trkpt lat="41.4853760" lon="2.1275040">
        <ele>103.6</ele>
        <time>2018-04-10T06:20:35Z</time>
      </trkpt>
      <trkpt lat="41.4853470" lon="2.1273590">
        <ele>103.8</ele>
        <time>2018-04-10T06:20:37Z</time>
      </trkpt>
      <trkpt lat="41.4853270" lon="2.1272130">
        <ele>104.4</ele>
        <time>2018-04-10T06:20:39Z</time>
      </trkpt>
      <trkpt lat="41.4853160" lon="2.1271390">
        <ele>104.6</ele>
        <time>2018-04-10T06:20:40Z</time>
      </trkpt>
      <trkpt lat="41.4853060" lon="2.1270640">
        <ele>104.8</ele>
        <time>2018-04-10T06:20:41Z</time>
      </trkpt>
      <trkpt lat="41.4852880" lon="2.1269190">
        <ele>105.0</ele>
        <time>2018-04-10T06:20:43Z</time>
      </trkpt>
      <trkpt lat="41.4852800" lon="2.1267730">
        <ele>105.2</ele>
        <time>2018-04-10T06:20:45Z</time>
      </trkpt>
      <trkpt lat="41.4852730" lon="2.1266200">
        <ele>105.4</ele>
        <time>2018-04-10T06:20:47Z</time>
      </trkpt>
      <trkpt lat="41.4852660" lon="2.1264610">
        <ele>105.8</ele>
        <time>2018-04-10T06:20:49Z</time>
      </trkpt>
      <trkpt lat="41.4852600" lon="2.1263000">
        <ele>106.0</ele>
        <time>2018-04-10T06:20:51Z</time>
      </trkpt>
      <trkpt lat="41.4852550" lon="2.1261380">
        <ele>106.2</ele>
        <time>2018-04-10T06:20:53Z</time>
      </trkpt>
      <trkpt lat="41.4852550" lon="2.1259750">
        <ele>106.4</ele>
        <time>2018-04-10T06:20:55Z</time>
      </trkpt>
      <trkpt lat="41.4852570" lon="2.1258130">
        <ele>106.8</ele>
        <time>2018-04-10T06:20:57Z</time>
      </trkpt>
      <trkpt lat="41.4852600" lon="2.1257310">
        <ele>106.8</ele>
        <time>2018-04-10T06:20:58Z</time>
      </trkpt>
      <trkpt lat="41.4852650" lon="2.1256510">
        <ele>107.0</ele>
        <time>2018-04-10T06:20:59Z</time>
      </trkpt>
      <trkpt lat="41.4852780" lon="2.1254880">
        <ele>107.2</ele>
        <time>2018-04-10T06:21:01Z</time>
      </trkpt>
      <trkpt lat="41.4852930" lon="2.1253230">
        <ele>107.6</ele>
        <time>2018-04-10T06:21:03Z</time>
      </trkpt>
      <trkpt lat="41.4853080" lon="2.1251580">
        <ele>107.6</ele>
        <time>2018-04-10T06:21:05Z</time>
      </trkpt>
      <trkpt lat="41.4853260" lon="2.1249950">
        <ele>107.8</ele>
        <time>2018-04-10T06:21:07Z</time>
      </trkpt>
      <trkpt lat="41.4853490" lon="2.1248360">
        <ele>107.8</ele>
        <time>2018-04-10T06:21:09Z</time>
      </trkpt>
      <trkpt lat="41.4853780" lon="2.1246890">
        <ele>108.0</ele>
        <time>2018-04-10T06:21:11Z</time>
      </trkpt>
      <trkpt lat="41.4854040" lon="2.1245440">
        <ele>108.2</ele>
        <time>2018-04-10T06:21:13Z</time>
      </trkpt>
      <trkpt lat="41.4854370" lon="2.1243970">
        <ele>108.6</ele>
        <time>2018-04-10T06:21:15Z</time>
      </trkpt>
      <trkpt lat="41.4854730" lon="2.1242510">
        <ele>109.0</ele>
        <time>2018-04-10T06:21:17Z</time>
      </trkpt>
      <trkpt lat="41.4855200" lon="2.1241220">
        <ele>109.2</ele>
        <time>2018-04-10T06:21:19Z</time>
      </trkpt>
      <trkpt lat="41.4855600" lon="2.1239860">
        <ele>109.4</ele>
        <time>2018-04-10T06:21:21Z</time>
      </trkpt>
      <trkpt lat="41.4855970" lon="2.1238490">
        <ele>109.8</ele>
        <time>2018-04-10T06:21:23Z</time>
      </trkpt>
      <trkpt lat="41.4856350" lon="2.1237100">
        <ele>110.2</ele>
        <time>2018-04-10T06:21:25Z</time>
      </trkpt>
      <trkpt lat="41.4856530" lon="2.1236420">
        <ele>110.2</ele>
        <time>2018-04-10T06:21:26Z</time>
      </trkpt>
      <trkpt lat="41.4856710" lon="2.1235740">
        <ele>110.6</ele>
        <time>2018-04-10T06:21:27Z</time>
      </trkpt>
      <trkpt lat="41.4857060" lon="2.1234330">
        <ele>110.8</ele>
        <time>2018-04-10T06:21:29Z</time>
      </trkpt>
      <trkpt lat="41.4857440" lon="2.1232960">
        <ele>111.4</ele>
        <time>2018-04-10T06:21:31Z</time>
      </trkpt>
      <trkpt lat="41.4857830" lon="2.1231590">
        <ele>111.8</ele>
        <time>2018-04-10T06:21:33Z</time>
      </trkpt>
      <trkpt lat="41.4858210" lon="2.1230180">
        <ele>112.4</ele>
        <time>2018-04-10T06:21:35Z</time>
      </trkpt>
      <trkpt lat="41.4858590" lon="2.1228730">
        <ele>112.8</ele>
        <time>2018-04-10T06:21:37Z</time>
      </trkpt>
      <trkpt lat="41.4858980" lon="2.1227230">
        <ele>113.2</ele>
        <time>2018-04-10T06:21:39Z</time>
      </trkpt>
      <trkpt lat="41.4859400" lon="2.1225700">
        <ele>113.2</ele>
        <time>2018-04-10T06:21:41Z</time>
      </trkpt>
      <trkpt lat="41.4859690" lon="2.1224970">
        <ele>113.2</ele>
        <time>2018-04-10T06:21:42Z</time>
      </trkpt>
      <trkpt lat="41.4860070" lon="2.1224310">
        <ele>113.2</ele>
        <time>2018-04-10T06:21:43Z</time>
      </trkpt>
      <trkpt lat="41.4861070" lon="2.1223330">
        <ele>113.2</ele>
        <time>2018-04-10T06:21:45Z</time>
      </trkpt>
      <trkpt lat="41.4861630" lon="2.1222970">
        <ele>113.2</ele>
        <time>2018-04-10T06:21:46Z</time>
      </trkpt>
      <trkpt lat="41.4862180" lon="2.1222580">
        <ele>113.2</ele>
        <time>2018-04-10T06:21:47Z</time>
      </trkpt>
      <trkpt lat="41.4863120" lon="2.1221460">
        <ele>113.6</ele>
        <time>2018-04-10T06:21:49Z</time>
      </trkpt>
      <trkpt lat="41.4863650" lon="2.1219920">
        <ele>113.6</ele>
        <time>2018-04-10T06:21:51Z</time>
      </trkpt>
      <trkpt lat="41.4863680" lon="2.1218220">
        <ele>113.6</ele>
        <time>2018-04-10T06:21:53Z</time>
      </trkpt>
      <trkpt lat="41.4863280" lon="2.1216500">
        <ele>113.4</ele>
        <time>2018-04-10T06:21:55Z</time>
      </trkpt>
      <trkpt lat="41.4862940" lon="2.1214690">
        <ele>113.4</ele>
        <time>2018-04-10T06:21:57Z</time>
      </trkpt>
      <trkpt lat="41.4862920" lon="2.1213740">
        <ele>113.4</ele>
        <time>2018-04-10T06:21:58Z</time>
      </trkpt>
      <trkpt lat="41.4862990" lon="2.1212790">
        <ele>113.4</ele>
        <time>2018-04-10T06:21:59Z</time>
      </trkpt>
      <trkpt lat="41.4863270" lon="2.1210980">
        <ele>113.2</ele>
        <time>2018-04-10T06:22:01Z</time>
      </trkpt>
      <trkpt lat="41.4863510" lon="2.1209240">
        <ele>113.4</ele>
        <time>2018-04-10T06:22:03Z</time>
      </trkpt>
      <trkpt lat="41.4863660" lon="2.1207570">
        <ele>113.4</ele>
        <time>2018-04-10T06:22:05Z</time>
      </trkpt>
      <trkpt lat="41.4863770" lon="2.1205960">
        <ele>113.4</ele>
        <time>2018-04-10T06:22:07Z</time>
      </trkpt>
      <trkpt lat="41.4863830" lon="2.1204440">
        <ele>113.4</ele>
        <time>2018-04-10T06:22:09Z</time>
      </trkpt>
      <trkpt lat="41.4863860" lon="2.1202990">
        <ele>113.4</ele>
        <time>2018-04-10T06:22:11Z</time>
      </trkpt>
      <trkpt lat="41.4863870" lon="2.1201580">
        <ele>113.6</ele>
        <time>2018-04-10T06:22:13Z</time>
      </trkpt>
      <trkpt lat="41.4863870" lon="2.1200910">
        <ele>114.0</ele>
        <time>2018-04-10T06:22:14Z</time>
      </trkpt>
      <trkpt lat="41.4863860" lon="2.1200230">
        <ele>114.4</ele>
        <time>2018-04-10T06:22:15Z</time>
      </trkpt>
      <trkpt lat="41.4863760" lon="2.1198880">
        <ele>114.8</ele>
        <time>2018-04-10T06:22:17Z</time>
      </trkpt>
      <trkpt lat="41.4863710" lon="2.1198220">
        <ele>115.0</ele>
        <time>2018-04-10T06:22:18Z</time>
      </trkpt>
      <trkpt lat="41.4863650" lon="2.1197570">
        <ele>115.6</ele>
        <time>2018-04-10T06:22:19Z</time>
      </trkpt>
      <trkpt lat="41.4863530" lon="2.1196210">
        <ele>116.0</ele>
        <time>2018-04-10T06:22:21Z</time>
      </trkpt>
      <trkpt lat="41.4863470" lon="2.1195530">
        <ele>116.4</ele>
        <time>2018-04-10T06:22:22Z</time>
      </trkpt>
      <trkpt lat="41.4863390" lon="2.1194870">
        <ele>116.6</ele>
        <time>2018-04-10T06:22:23Z</time>
      </trkpt>
      <trkpt lat="41.4863210" lon="2.1193520">
        <ele>117.2</ele>
        <time>2018-04-10T06:22:25Z</time>
      </trkpt>
      <trkpt lat="41.4863110" lon="2.1192820">
        <ele>117.6</ele>
        <time>2018-04-10T06:22:26Z</time>
      </trkpt>
      <trkpt lat="41.4863000" lon="2.1192150">
        <ele>117.8</ele>
        <time>2018-04-10T06:22:27Z</time>
      </trkpt>
      <trkpt lat="41.4862770" lon="2.1190810">
        <ele>118.2</ele>
        <time>2018-04-10T06:22:29Z</time>
      </trkpt>
      <trkpt lat="41.4862540" lon="2.1189520">
        <ele>118.6</ele>
        <time>2018-04-10T06:22:31Z</time>
      </trkpt>
      <trkpt lat="41.4862280" lon="2.1188240">
        <ele>119.2</ele>
        <time>2018-04-10T06:22:33Z</time>
      </trkpt>
      <trkpt lat="41.4861970" lon="2.1186940">
        <ele>119.6</ele>
        <time>2018-04-10T06:22:35Z</time>
      </trkpt>
      <trkpt lat="41.4861640" lon="2.1185680">
        <ele>120.2</ele>
        <time>2018-04-10T06:22:37Z</time>
      </trkpt>
      <trkpt lat="41.4861340" lon="2.1184390">
        <ele>120.8</ele>
        <time>2018-04-10T06:22:39Z</time>
      </trkpt>
      <trkpt lat="41.4861030" lon="2.1183100">
        <ele>121.6</ele>
        <time>2018-04-10T06:22:41Z</time>
      </trkpt>
      <trkpt lat="41.4860700" lon="2.1181790">
        <ele>122.0</ele>
        <time>2018-04-10T06:22:43Z</time>
      </trkpt>
      <trkpt lat="41.4860380" lon="2.1180470">
        <ele>122.2</ele>
        <time>2018-04-10T06:22:45Z</time>
      </trkpt>
      <trkpt lat="41.4860070" lon="2.1179150">
        <ele>122.6</ele>
        <time>2018-04-10T06:22:47Z</time>
      </trkpt>
      <trkpt lat="41.4859760" lon="2.1177790">
        <ele>122.8</ele>
        <time>2018-04-10T06:22:49Z</time>
      </trkpt>
      <trkpt lat="41.4859400" lon="2.1176410">
        <ele>123.2</ele>
        <time>2018-04-10T06:22:51Z</time>
      </trkpt>
      <trkpt lat="41.4859220" lon="2.1175700">
        <ele>123.4</ele>
        <time>2018-04-10T06:22:52Z</time>
      </trkpt>
      <trkpt lat="41.4859040" lon="2.1174980">
        <ele>123.4</ele>
        <time>2018-04-10T06:22:53Z</time>
      </trkpt>
      <trkpt lat="41.4858700" lon="2.1173520">
        <ele>123.6</ele>
        <time>2018-04-10T06:22:55Z</time>
      </trkpt>
      <trkpt lat="41.4858330" lon="2.1172010">
        <ele>123.6</ele>
        <time>2018-04-10T06:22:57Z</time>
      </trkpt>
      <trkpt lat="41.4857910" lon="2.1170450">
        <ele>123.6</ele>
        <time>2018-04-10T06:22:59Z</time>
      </trkpt>
      <trkpt lat="41.4857500" lon="2.1168780">
        <ele>123.6</ele>
        <time>2018-04-10T06:23:01Z</time>
      </trkpt>
      <trkpt lat="41.4857070" lon="2.1167010">
        <ele>123.6</ele>
        <time>2018-04-10T06:23:03Z</time>
      </trkpt>
      <trkpt lat="41.4856610" lon="2.1165160">
        <ele>123.6</ele>
        <time>2018-04-10T06:23:05Z</time>
      </trkpt>
      <trkpt lat="41.4856050" lon="2.1163320">
        <ele>122.8</ele>
        <time>2018-04-10T06:23:07Z</time>
      </trkpt>
      <trkpt lat="41.4855390" lon="2.1161670">
        <ele>122.4</ele>
        <time>2018-04-10T06:23:09Z</time>
      </trkpt>
      <trkpt lat="41.4854790" lon="2.1160040">
        <ele>121.8</ele>
        <time>2018-04-10T06:23:11Z</time>
      </trkpt>
      <trkpt lat="41.4854410" lon="2.1158360">
        <ele>120.8</ele>
        <time>2018-04-10T06:23:13Z</time>
      </trkpt>
      <trkpt lat="41.4854160" lon="2.1156900">
        <ele>120.0</ele>
        <time>2018-04-10T06:23:15Z</time>
      </trkpt>
      <trkpt lat="41.4854090" lon="2.1156240">
        <ele>119.8</ele>
        <time>2018-04-10T06:23:16Z</time>
      </trkpt>
      <trkpt lat="41.4854040" lon="2.1155620">
        <ele>119.6</ele>
        <time>2018-04-10T06:23:17Z</time>
      </trkpt>
      <trkpt lat="41.4853960" lon="2.1154540">
        <ele>119.0</ele>
        <time>2018-04-10T06:23:19Z</time>
      </trkpt>
      <trkpt lat="41.4853930" lon="2.1154090">
        <ele>118.6</ele>
        <time>2018-04-10T06:23:20Z</time>
      </trkpt>
      <trkpt lat="41.4853910" lon="2.1153680">
        <ele>118.4</ele>
        <time>2018-04-10T06:23:21Z</time>
      </trkpt>
      <trkpt lat="41.4853910" lon="2.1152900">
        <ele>117.8</ele>
        <time>2018-04-10T06:23:23Z</time>
      </trkpt>
      <trkpt lat="41.4853910" lon="2.1152430">
        <ele>117.6</ele>
        <time>2018-04-10T06:23:24Z</time>
      </trkpt>
      <trkpt lat="41.4853940" lon="2.1151910">
        <ele>117.2</ele>
        <time>2018-04-10T06:23:25Z</time>
      </trkpt>
      <trkpt lat="41.4854290" lon="2.1150800">
        <ele>116.8</ele>
        <time>2018-04-10T06:23:27Z</time>
      </trkpt>
      <trkpt lat="41.4855130" lon="2.1149790">
        <ele>116.4</ele>
        <time>2018-04-10T06:23:29Z</time>
      </trkpt>
      <trkpt lat="41.4856040" lon="2.1148690">
        <ele>116.0</ele>
        <time>2018-04-10T06:23:31Z</time>
      </trkpt>
      <trkpt lat="41.4856560" lon="2.1147160">
        <ele>115.6</ele>
        <time>2018-04-10T06:23:33Z</time>
      </trkpt>
      <trkpt lat="41.4856580" lon="2.1145420">
        <ele>115.2</ele>
        <time>2018-04-10T06:23:35Z</time>
      </trkpt>
      <trkpt lat="41.4856090" lon="2.1143760">
        <ele>115.0</ele>
        <time>2018-04-10T06:23:37Z</time>
      </trkpt>
      <trkpt lat="41.4855150" lon="2.1142430">
        <ele>114.8</ele>
        <time>2018-04-10T06:23:39Z</time>
      </trkpt>
      <trkpt lat="41.4854330" lon="2.1140890">
        <ele>114.8</ele>
        <time>2018-04-10T06:23:41Z</time>
      </trkpt>
      <trkpt lat="41.4854030" lon="2.1138940">
        <ele>114.8</ele>
        <time>2018-04-10T06:23:43Z</time>
      </trkpt>
      <trkpt lat="41.4853680" lon="2.1136970">
        <ele>114.6</ele>
        <time>2018-04-10T06:23:45Z</time>
      </trkpt>
      <trkpt lat="41.4853460" lon="2.1136030">
        <ele>114.4</ele>
        <time>2018-04-10T06:23:46Z</time>
      </trkpt>
      <trkpt lat="41.4853220" lon="2.1135090">
        <ele>114.2</ele>
        <time>2018-04-10T06:23:47Z</time>
      </trkpt>
      <trkpt lat="41.4852660" lon="2.1133260">
        <ele>114.0</ele>
        <time>2018-04-10T06:23:49Z</time>
      </trkpt>
      <trkpt lat="41.4852030" lon="2.1131490">
        <ele>114.0</ele>
        <time>2018-04-10T06:23:51Z</time>
      </trkpt>
      <trkpt lat="41.4851350" lon="2.1129760">
        <ele>113.8</ele>
        <time>2018-04-10T06:23:53Z</time>
      </trkpt>
      <trkpt lat="41.4850670" lon="2.1128050">
        <ele>113.8</ele>
        <time>2018-04-10T06:23:55Z</time>
      </trkpt>
      <trkpt lat="41.4850020" lon="2.1126330">
        <ele>113.8</ele>
        <time>2018-04-10T06:23:57Z</time>
      </trkpt>
      <trkpt lat="41.4849360" lon="2.1124650">
        <ele>113.8</ele>
        <time>2018-04-10T06:23:59Z</time>
      </trkpt>
      <trkpt lat="41.4848700" lon="2.1122940">
        <ele>113.8</ele>
        <time>2018-04-10T06:24:01Z</time>
      </trkpt>
      <trkpt lat="41.4848060" lon="2.1121240">
        <ele>114.0</ele>
        <time>2018-04-10T06:24:03Z</time>
      </trkpt>
      <trkpt lat="41.4847420" lon="2.1119560">
        <ele>114.0</ele>
        <time>2018-04-10T06:24:05Z</time>
      </trkpt>
      <trkpt lat="41.4846790" lon="2.1117920">
        <ele>114.2</ele>
        <time>2018-04-10T06:24:07Z</time>
      </trkpt>
      <trkpt lat="41.4846130" lon="2.1116300">
        <ele>114.4</ele>
        <time>2018-04-10T06:24:09Z</time>
      </trkpt>
      <trkpt lat="41.4845500" lon="2.1114690">
        <ele>114.6</ele>
        <time>2018-04-10T06:24:11Z</time>
      </trkpt>
      <trkpt lat="41.4844910" lon="2.1113090">
        <ele>115.0</ele>
        <time>2018-04-10T06:24:13Z</time>
      </trkpt>
      <trkpt lat="41.4844320" lon="2.1111520">
        <ele>115.2</ele>
        <time>2018-04-10T06:24:15Z</time>
      </trkpt>
      <trkpt lat="41.4843700" lon="2.1109990">
        <ele>115.4</ele>
        <time>2018-04-10T06:24:17Z</time>
      </trkpt>
      <trkpt lat="41.4843100" lon="2.1108480">
        <ele>115.6</ele>
        <time>2018-04-10T06:24:19Z</time>
      </trkpt>
      <trkpt lat="41.4842510" lon="2.1106980">
        <ele>115.8</ele>
        <time>2018-04-10T06:24:21Z</time>
      </trkpt>
      <trkpt lat="41.4841920" lon="2.1105480">
        <ele>116.2</ele>
        <time>2018-04-10T06:24:23Z</time>
      </trkpt>
      <trkpt lat="41.4841340" lon="2.1103970">
        <ele>116.6</ele>
        <time>2018-04-10T06:24:25Z</time>
      </trkpt>
      <trkpt lat="41.4840760" lon="2.1102430">
        <ele>116.8</ele>
        <time>2018-04-10T06:24:27Z</time>
      </trkpt>
      <trkpt lat="41.4840180" lon="2.1100920">
        <ele>117.0</ele>
        <time>2018-04-10T06:24:29Z</time>
      </trkpt>
      <trkpt lat="41.4839610" lon="2.1099410">
        <ele>117.2</ele>
        <time>2018-04-10T06:24:31Z</time>
      </trkpt>
      <trkpt lat="41.4839050" lon="2.1097890">
        <ele>117.4</ele>
        <time>2018-04-10T06:24:33Z</time>
      </trkpt>
      <trkpt lat="41.4838510" lon="2.1096380">
        <ele>117.6</ele>
        <time>2018-04-10T06:24:35Z</time>
      </trkpt>
      <trkpt lat="41.4838260" lon="2.1095610">
        <ele>117.8</ele>
        <time>2018-04-10T06:24:36Z</time>
      </trkpt>
      <trkpt lat="41.4837980" lon="2.1094860">
        <ele>118.0</ele>
        <time>2018-04-10T06:24:37Z</time>
      </trkpt>
      <trkpt lat="41.4837350" lon="2.1093430">
        <ele>118.2</ele>
        <time>2018-04-10T06:24:39Z</time>
      </trkpt>
      <trkpt lat="41.4836730" lon="2.1091930">
        <ele>118.4</ele>
        <time>2018-04-10T06:24:41Z</time>
      </trkpt>
      <trkpt lat="41.4836140" lon="2.1090380">
        <ele>118.6</ele>
        <time>2018-04-10T06:24:43Z</time>
      </trkpt>
      <trkpt lat="41.4835570" lon="2.1088810">
        <ele>119.0</ele>
        <time>2018-04-10T06:24:45Z</time>
      </trkpt>
      <trkpt lat="41.4835060" lon="2.1087230">
        <ele>119.2</ele>
        <time>2018-04-10T06:24:47Z</time>
      </trkpt>
      <trkpt lat="41.4834560" lon="2.1085650">
        <ele>119.4</ele>
        <time>2018-04-10T06:24:49Z</time>
      </trkpt>
      <trkpt lat="41.4834040" lon="2.1084040">
        <ele>119.4</ele>
        <time>2018-04-10T06:24:51Z</time>
      </trkpt>
      <trkpt lat="41.4833500" lon="2.1082410">
        <ele>119.6</ele>
        <time>2018-04-10T06:24:53Z</time>
      </trkpt>
      <trkpt lat="41.4832980" lon="2.1080770">
        <ele>119.8</ele>
        <time>2018-04-10T06:24:55Z</time>
      </trkpt>
      <trkpt lat="41.4832460" lon="2.1079170">
        <ele>119.8</ele>
        <time>2018-04-10T06:24:57Z</time>
      </trkpt>
      <trkpt lat="41.4831930" lon="2.1077560">
        <ele>119.8</ele>
        <time>2018-04-10T06:24:59Z</time>
      </trkpt>
      <trkpt lat="41.4831500" lon="2.1075920">
        <ele>119.8</ele>
        <time>2018-04-10T06:25:01Z</time>
      </trkpt>
      <trkpt lat="41.4831060" lon="2.1074240">
        <ele>119.8</ele>
        <time>2018-04-10T06:25:03Z</time>
      </trkpt>
      <trkpt lat="41.4830610" lon="2.1072560">
        <ele>119.8</ele>
        <time>2018-04-10T06:25:05Z</time>
      </trkpt>
      <trkpt lat="41.4830170" lon="2.1070910">
        <ele>120.0</ele>
        <time>2018-04-10T06:25:07Z</time>
      </trkpt>
      <trkpt lat="41.4829730" lon="2.1069290">
        <ele>120.0</ele>
        <time>2018-04-10T06:25:09Z</time>
      </trkpt>
      <trkpt lat="41.4829260" lon="2.1067700">
        <ele>120.2</ele>
        <time>2018-04-10T06:25:11Z</time>
      </trkpt>
      <trkpt lat="41.4828800" lon="2.1066180">
        <ele>120.2</ele>
        <time>2018-04-10T06:25:13Z</time>
      </trkpt>
      <trkpt lat="41.4828380" lon="2.1064720">
        <ele>120.4</ele>
        <time>2018-04-10T06:25:15Z</time>
      </trkpt>
      <trkpt lat="41.4827990" lon="2.1063300">
        <ele>120.6</ele>
        <time>2018-04-10T06:25:17Z</time>
      </trkpt>
      <trkpt lat="41.4827600" lon="2.1061900">
        <ele>121.0</ele>
        <time>2018-04-10T06:25:19Z</time>
      </trkpt>
      <trkpt lat="41.4827210" lon="2.1060570">
        <ele>121.2</ele>
        <time>2018-04-10T06:25:21Z</time>
      </trkpt>
      <trkpt lat="41.4826770" lon="2.1059250">
        <ele>121.6</ele>
        <time>2018-04-10T06:25:23Z</time>
      </trkpt>
      <trkpt lat="41.4826460" lon="2.1057800">
        <ele>122.2</ele>
        <time>2018-04-10T06:25:25Z</time>
      </trkpt>
      <trkpt lat="41.4826330" lon="2.1057060">
        <ele>122.4</ele>
        <time>2018-04-10T06:25:26Z</time>
      </trkpt>
      <trkpt lat="41.4826190" lon="2.1056290">
        <ele>122.8</ele>
        <time>2018-04-10T06:25:27Z</time>
      </trkpt>
      <trkpt lat="41.4825870" lon="2.1054820">
        <ele>123.2</ele>
        <time>2018-04-10T06:25:29Z</time>
      </trkpt>
      <trkpt lat="41.4825570" lon="2.1053330">
        <ele>123.6</ele>
        <time>2018-04-10T06:25:31Z</time>
      </trkpt>
      <trkpt lat="41.4825270" lon="2.1051800">
        <ele>124.0</ele>
        <time>2018-04-10T06:25:33Z</time>
      </trkpt>
      <trkpt lat="41.4824950" lon="2.1050260">
        <ele>124.4</ele>
        <time>2018-04-10T06:25:35Z</time>
      </trkpt>
      <trkpt lat="41.4824800" lon="2.1049500">
        <ele>124.8</ele>
        <time>2018-04-10T06:25:36Z</time>
      </trkpt>
      <trkpt lat="41.4824640" lon="2.1048720">
        <ele>125.4</ele>
        <time>2018-04-10T06:25:37Z</time>
      </trkpt>
      <trkpt lat="41.4824320" lon="2.1047140">
        <ele>125.6</ele>
        <time>2018-04-10T06:25:39Z</time>
      </trkpt>
      <trkpt lat="41.4823950" lon="2.1045470">
        <ele>125.6</ele>
        <time>2018-04-10T06:25:41Z</time>
      </trkpt>
      <trkpt lat="41.4823540" lon="2.1043760">
        <ele>125.8</ele>
        <time>2018-04-10T06:25:43Z</time>
      </trkpt>
      <trkpt lat="41.4823030" lon="2.1041980">
        <ele>125.8</ele>
        <time>2018-04-10T06:25:45Z</time>
      </trkpt>
      <trkpt lat="41.4822400" lon="2.1040110">
        <ele>125.8</ele>
        <time>2018-04-10T06:25:47Z</time>
      </trkpt>
      <trkpt lat="41.4821630" lon="2.1038190">
        <ele>125.6</ele>
        <time>2018-04-10T06:25:49Z</time>
      </trkpt>
      <trkpt lat="41.4820720" lon="2.1036270">
        <ele>125.2</ele>
        <time>2018-04-10T06:25:51Z</time>
      </trkpt>
      <trkpt lat="41.4819690" lon="2.1034420">
        <ele>125.0</ele>
        <time>2018-04-10T06:25:53Z</time>
      </trkpt>
      <trkpt lat="41.4818580" lon="2.1032650">
        <ele>124.4</ele>
        <time>2018-04-10T06:25:55Z</time>
      </trkpt>
      <trkpt lat="41.4817980" lon="2.1031820">
        <ele>124.0</ele>
        <time>2018-04-10T06:25:56Z</time>
      </trkpt>
      <trkpt lat="41.4817360" lon="2.1031030">
        <ele>123.6</ele>
        <time>2018-04-10T06:25:57Z</time>
      </trkpt>
      <trkpt lat="41.4816060" lon="2.1029580">
        <ele>123.0</ele>
        <time>2018-04-10T06:25:59Z</time>
      </trkpt>
      <trkpt lat="41.4814780" lon="2.1028260">
        <ele>122.4</ele>
        <time>2018-04-10T06:26:01Z</time>
      </trkpt>
      <trkpt lat="41.4813530" lon="2.1027010">
        <ele>122.2</ele>
        <time>2018-04-10T06:26:03Z</time>
      </trkpt>
      <trkpt lat="41.4812350" lon="2.1025840">
        <ele>122.2</ele>
        <time>2018-04-10T06:26:05Z</time>
      </trkpt>
      <trkpt lat="41.4811840" lon="2.1025180">
        <ele>122.2</ele>
        <time>2018-04-10T06:26:06Z</time>
      </trkpt>
      <trkpt lat="41.4811460" lon="2.1024420">
        <ele>122.2</ele>
        <time>2018-04-10T06:26:07Z</time>
      </trkpt>
      <trkpt lat="41.4811200" lon="2.1022690">
        <ele>122.2</ele>
        <time>2018-04-10T06:26:09Z</time>
      </trkpt>
      <trkpt lat="41.4811040" lon="2.1020900">
        <ele>122.2</ele>
        <time>2018-04-10T06:26:11Z</time>
      </trkpt>
      <trkpt lat="41.4810450" lon="2.1019270">
        <ele>123.0</ele>
        <time>2018-04-10T06:26:13Z</time>
      </trkpt>
      <trkpt lat="41.4809360" lon="2.1018120">
        <ele>123.2</ele>
        <time>2018-04-10T06:26:15Z</time>
      </trkpt>
      <trkpt lat="41.4808020" lon="2.1017650">
        <ele>123.6</ele>
        <time>2018-04-10T06:26:17Z</time>
      </trkpt>
      <trkpt lat="41.4806570" lon="2.1017730">
        <ele>123.8</ele>
        <time>2018-04-10T06:26:19Z</time>
      </trkpt>
      <trkpt lat="41.4805830" lon="2.1017730">
        <ele>123.8</ele>
        <time>2018-04-10T06:26:20Z</time>
      </trkpt>
      <trkpt lat="41.4805100" lon="2.1017570">
        <ele>124.0</ele>
        <time>2018-04-10T06:26:21Z</time>
      </trkpt>
      <trkpt lat="41.4803820" lon="2.1016620">
        <ele>124.0</ele>
        <time>2018-04-10T06:26:23Z</time>
      </trkpt>
      <trkpt lat="41.4803250" lon="2.1016000">
        <ele>124.0</ele>
        <time>2018-04-10T06:26:24Z</time>
      </trkpt>
      <trkpt lat="41.4802680" lon="2.1015390">
        <ele>124.2</ele>
        <time>2018-04-10T06:26:25Z</time>
      </trkpt>
      <trkpt lat="41.4801550" lon="2.1014180">
        <ele>124.2</ele>
        <time>2018-04-10T06:26:27Z</time>
      </trkpt>
      <trkpt lat="41.4800450" lon="2.1012930">
        <ele>124.2</ele>
        <time>2018-04-10T06:26:29Z</time>
      </trkpt>
      <trkpt lat="41.4799390" lon="2.1011650">
        <ele>124.2</ele>
        <time>2018-04-10T06:26:31Z</time>
      </trkpt>
      <trkpt lat="41.4798370" lon="2.1010330">
        <ele>124.2</ele>
        <time>2018-04-10T06:26:33Z</time>
      </trkpt>
      <trkpt lat="41.4797380" lon="2.1008960">
        <ele>124.2</ele>
        <time>2018-04-10T06:26:35Z</time>
      </trkpt>
      <trkpt lat="41.4796400" lon="2.1007560">
        <ele>124.4</ele>
        <time>2018-04-10T06:26:37Z</time>
      </trkpt>
      <trkpt lat="41.4795920" lon="2.1006840">
        <ele>124.4</ele>
        <time>2018-04-10T06:26:38Z</time>
      </trkpt>
      <trkpt lat="41.4795450" lon="2.1006110">
        <ele>124.4</ele>
        <time>2018-04-10T06:26:39Z</time>
      </trkpt>
      <trkpt lat="41.4794560" lon="2.1004630">
        <ele>124.6</ele>
        <time>2018-04-10T06:26:41Z</time>
      </trkpt>
      <trkpt lat="41.4793680" lon="2.1003150">
        <ele>124.8</ele>
        <time>2018-04-10T06:26:43Z</time>
      </trkpt>
      <trkpt lat="41.4792840" lon="2.1001610">
        <ele>124.8</ele>
        <time>2018-04-10T06:26:45Z</time>
      </trkpt>
      <trkpt lat="41.4792030" lon="2.1000010">
        <ele>125.0</ele>
        <time>2018-04-10T06:26:47Z</time>
      </trkpt>
      <trkpt lat="41.4791260" lon="2.0998390">
        <ele>125.0</ele>
        <time>2018-04-10T06:26:49Z</time>
      </trkpt>
      <trkpt lat="41.4790490" lon="2.0996780">
        <ele>125.4</ele>
        <time>2018-04-10T06:26:51Z</time>
      </trkpt>
      <trkpt lat="41.4790120" lon="2.0995960">
        <ele>125.4</ele>
        <time>2018-04-10T06:26:52Z</time>
      </trkpt>
      <trkpt lat="41.4789750" lon="2.0995120">
        <ele>125.6</ele>
        <time>2018-04-10T06:26:53Z</time>
      </trkpt>
      <trkpt lat="41.4788990" lon="2.0993470">
        <ele>125.8</ele>
        <time>2018-04-10T06:26:55Z</time>
      </trkpt>
      <trkpt lat="41.4788240" lon="2.0991830">
        <ele>126.0</ele>
        <time>2018-04-10T06:26:57Z</time>
      </trkpt>
      <trkpt lat="41.4787520" lon="2.0990190">
        <ele>126.2</ele>
        <time>2018-04-10T06:26:59Z</time>
      </trkpt>
      <trkpt lat="41.4786820" lon="2.0988590">
        <ele>126.2</ele>
        <time>2018-04-10T06:27:01Z</time>
      </trkpt>
      <trkpt lat="41.4786140" lon="2.0986980">
        <ele>126.4</ele>
        <time>2018-04-10T06:27:03Z</time>
      </trkpt>
      <trkpt lat="41.4785480" lon="2.0985420">
        <ele>126.4</ele>
        <time>2018-04-10T06:27:05Z</time>
      </trkpt>
      <trkpt lat="41.4784820" lon="2.0983910">
        <ele>126.6</ele>
        <time>2018-04-10T06:27:07Z</time>
      </trkpt>
      <trkpt lat="41.4784480" lon="2.0983160">
        <ele>126.6</ele>
        <time>2018-04-10T06:27:08Z</time>
      </trkpt>
      <trkpt lat="41.4784140" lon="2.0982430">
        <ele>126.8</ele>
        <time>2018-04-10T06:27:09Z</time>
      </trkpt>
      <trkpt lat="41.4783480" lon="2.0980950">
        <ele>127.2</ele>
        <time>2018-04-10T06:27:11Z</time>
      </trkpt>
      <trkpt lat="41.4782800" lon="2.0979480">
        <ele>127.6</ele>
        <time>2018-04-10T06:27:13Z</time>
      </trkpt>
      <trkpt lat="41.4782480" lon="2.0978740">
        <ele>127.8</ele>
        <time>2018-04-10T06:27:14Z</time>
      </trkpt>
      <trkpt lat="41.4782140" lon="2.0978010">
        <ele>128.0</ele>
        <time>2018-04-10T06:27:15Z</time>
      </trkpt>
      <trkpt lat="41.4781470" lon="2.0976510">
        <ele>128.4</ele>
        <time>2018-04-10T06:27:17Z</time>
      </trkpt>
      <trkpt lat="41.4780800" lon="2.0975020">
        <ele>128.8</ele>
        <time>2018-04-10T06:27:19Z</time>
      </trkpt>
      <trkpt lat="41.4780460" lon="2.0974270">
        <ele>129.0</ele>
        <time>2018-04-10T06:27:20Z</time>
      </trkpt>
      <trkpt lat="41.4780100" lon="2.0973530">
        <ele>129.0</ele>
        <time>2018-04-10T06:27:21Z</time>
      </trkpt>
      <trkpt lat="41.4779310" lon="2.0972090">
        <ele>129.2</ele>
        <time>2018-04-10T06:27:23Z</time>
      </trkpt>
      <trkpt lat="41.4778480" lon="2.0970670">
        <ele>129.4</ele>
        <time>2018-04-10T06:27:25Z</time>
      </trkpt>
      <trkpt lat="41.4777630" lon="2.0969310">
        <ele>129.6</ele>
        <time>2018-04-10T06:27:27Z</time>
      </trkpt>
      <trkpt lat="41.4776730" lon="2.0968070">
        <ele>129.8</ele>
        <time>2018-04-10T06:27:29Z</time>
      </trkpt>
      <trkpt lat="41.4775810" lon="2.0966900">
        <ele>129.8</ele>
        <time>2018-04-10T06:27:31Z</time>
      </trkpt>
      <trkpt lat="41.4774970" lon="2.0965670">
        <ele>130.0</ele>
        <time>2018-04-10T06:27:33Z</time>
      </trkpt>
      <trkpt lat="41.4774700" lon="2.0964920">
        <ele>130.0</ele>
        <time>2018-04-10T06:27:34Z</time>
      </trkpt>
      <trkpt lat="41.4774570" lon="2.0964070">
        <ele>130.0</ele>
        <time>2018-04-10T06:27:35Z</time>
      </trkpt>
      <trkpt lat="41.4774640" lon="2.0962300">
        <ele>130.0</ele>
        <time>2018-04-10T06:27:37Z</time>
      </trkpt>
      <trkpt lat="41.4775160" lon="2.0960720">
        <ele>130.0</ele>
        <time>2018-04-10T06:27:39Z</time>
      </trkpt>
      <trkpt lat="41.4776080" lon="2.0959560">
        <ele>130.0</ele>
        <time>2018-04-10T06:27:41Z</time>
      </trkpt>
      <trkpt lat="41.4776570" lon="2.0959040">
        <ele>130.0</ele>
        <time>2018-04-10T06:27:42Z</time>
      </trkpt>
      <trkpt lat="41.4777050" lon="2.0958500">
        <ele>130.0</ele>
        <time>2018-04-10T06:27:43Z</time>
      </trkpt>
      <trkpt lat="41.4777970" lon="2.0957450">
        <ele>130.0</ele>
        <time>2018-04-10T06:27:45Z</time>
      </trkpt>
      <trkpt lat="41.4778890" lon="2.0956430">
        <ele>130.2</ele>
        <time>2018-04-10T06:27:47Z</time>
      </trkpt>
      <trkpt lat="41.4779780" lon="2.0955380">
        <ele>130.4</ele>
        <time>2018-04-10T06:27:49Z</time>
      </trkpt>
      <trkpt lat="41.4780680" lon="2.0954340">
        <ele>130.8</ele>
        <time>2018-04-10T06:27:51Z</time>
      </trkpt>
      <trkpt lat="41.4781580" lon="2.0953300">
        <ele>131.2</ele>
        <time>2018-04-10T06:27:53Z</time>
      </trkpt>
      <trkpt lat="41.4782480" lon="2.0952260">
        <ele>132.0</ele>
        <time>2018-04-10T06:27:55Z</time>
      </trkpt>
      <trkpt lat="41.4783380" lon="2.0951180">
        <ele>132.2</ele>
        <time>2018-04-10T06:27:57Z</time>
      </trkpt>
      <trkpt lat="41.4784250" lon="2.0950120">
        <ele>132.8</ele>
        <time>2018-04-10T06:27:59Z</time>
      </trkpt>
      <trkpt lat="41.4785130" lon="2.0949070">
        <ele>133.4</ele>
        <time>2018-04-10T06:28:01Z</time>
      </trkpt>
      <trkpt lat="41.4786000" lon="2.0948040">
        <ele>134.0</ele>
        <time>2018-04-10T06:28:03Z</time>
      </trkpt>
      <trkpt lat="41.4786880" lon="2.0947010">
        <ele>134.6</ele>
        <time>2018-04-10T06:28:05Z</time>
      </trkpt>
      <trkpt lat="41.4787760" lon="2.0945960">
        <ele>135.2</ele>
        <time>2018-04-10T06:28:07Z</time>
      </trkpt>
      <trkpt lat="41.4788640" lon="2.0944900">
        <ele>136.0</ele>
        <time>2018-04-10T06:28:09Z</time>
      </trkpt>
      <trkpt lat="41.4789520" lon="2.0943840">
        <ele>136.4</ele>
        <time>2018-04-10T06:28:11Z</time>
      </trkpt>
      <trkpt lat="41.4790390" lon="2.0942850">
        <ele>137.0</ele>
        <time>2018-04-10T06:28:13Z</time>
      </trkpt>
      <trkpt lat="41.4791240" lon="2.0941810">
        <ele>137.4</ele>
        <time>2018-04-10T06:28:15Z</time>
      </trkpt>
      <trkpt lat="41.4792080" lon="2.0940760">
        <ele>138.0</ele>
        <time>2018-04-10T06:28:17Z</time>
      </trkpt>
      <trkpt lat="41.4792920" lon="2.0939730">
        <ele>138.4</ele>
        <time>2018-04-10T06:28:19Z</time>
      </trkpt>
      <trkpt lat="41.4793770" lon="2.0938720">
        <ele>138.6</ele>
        <time>2018-04-10T06:28:21Z</time>
      </trkpt>
      <trkpt lat="41.4794620" lon="2.0937710">
        <ele>139.0</ele>
        <time>2018-04-10T06:28:23Z</time>
      </trkpt>
      <trkpt lat="41.4795050" lon="2.0937220">
        <ele>139.0</ele>
        <time>2018-04-10T06:28:24Z</time>
      </trkpt>
      <trkpt lat="41.4795480" lon="2.0936760">
        <ele>139.4</ele>
        <time>2018-04-10T06:28:25Z</time>
      </trkpt>
      <trkpt lat="41.4796350" lon="2.0935870">
        <ele>140.2</ele>
        <time>2018-04-10T06:28:27Z</time>
      </trkpt>
      <trkpt lat="41.4797190" lon="2.0935090">
        <ele>140.8</ele>
        <time>2018-04-10T06:28:29Z</time>
      </trkpt>
      <trkpt lat="41.4798100" lon="2.0934440">
        <ele>141.4</ele>
        <time>2018-04-10T06:28:31Z</time>
      </trkpt>
      <trkpt lat="41.4798580" lon="2.0934180">
        <ele>141.6</ele>
        <time>2018-04-10T06:28:32Z</time>
      </trkpt>
      <trkpt lat="41.4799080" lon="2.0933990">
        <ele>142.2</ele>
        <time>2018-04-10T06:28:33Z</time>
      </trkpt>
      <trkpt lat="41.4799580" lon="2.0933800">
        <ele>142.6</ele>
        <time>2018-04-10T06:28:34Z</time>
      </trkpt>
      <trkpt lat="41.4800090" lon="2.0933610">
        <ele>142.8</ele>
        <time>2018-04-10T06:28:35Z</time>
      </trkpt>
      <trkpt lat="41.4800590" lon="2.0933460">
        <ele>142.8</ele>
        <time>2018-04-10T06:28:36Z</time>
      </trkpt>
      <trkpt lat="41.4801100" lon="2.0933400">
        <ele>143.0</ele>
        <time>2018-04-10T06:28:37Z</time>
      </trkpt>
      <trkpt lat="41.4802150" lon="2.0933390">
        <ele>143.4</ele>
        <time>2018-04-10T06:28:39Z</time>
      </trkpt>
      <trkpt lat="41.4803210" lon="2.0933650">
        <ele>143.8</ele>
        <time>2018-04-10T06:28:41Z</time>
      </trkpt>
      <trkpt lat="41.4804230" lon="2.0934110">
        <ele>144.4</ele>
        <time>2018-04-10T06:28:43Z</time>
      </trkpt>
      <trkpt lat="41.4805280" lon="2.0934440">
        <ele>144.8</ele>
        <time>2018-04-10T06:28:45Z</time>
      </trkpt>
      <trkpt lat="41.4805850" lon="2.0934420">
        <ele>145.0</ele>
        <time>2018-04-10T06:28:46Z</time>
      </trkpt>
      <trkpt lat="41.4806430" lon="2.0934270">
        <ele>145.2</ele>
        <time>2018-04-10T06:28:47Z</time>
      </trkpt>
      <trkpt lat="41.4807470" lon="2.0933630">
        <ele>145.6</ele>
        <time>2018-04-10T06:28:49Z</time>
      </trkpt>
      <trkpt lat="41.4808340" lon="2.0932680">
        <ele>146.2</ele>
        <time>2018-04-10T06:28:51Z</time>
      </trkpt>
      <trkpt lat="41.4809190" lon="2.0931660">
        <ele>146.4</ele>
        <time>2018-04-10T06:28:53Z</time>
      </trkpt>
      <trkpt lat="41.4809990" lon="2.0930680">
        <ele>146.6</ele>
        <time>2018-04-10T06:28:55Z</time>
      </trkpt>
      <trkpt lat="41.4810770" lon="2.0929660">
        <ele>147.0</ele>
        <time>2018-04-10T06:28:57Z</time>
      </trkpt>
      <trkpt lat="41.4811550" lon="2.0928690">
        <ele>147.2</ele>
        <time>2018-04-10T06:28:59Z</time>
      </trkpt>
      <trkpt lat="41.4812340" lon="2.0927740">
        <ele>148.0</ele>
        <time>2018-04-10T06:29:01Z</time>
      </trkpt>
      <trkpt lat="41.4813130" lon="2.0926770">
        <ele>148.8</ele>
        <time>2018-04-10T06:29:03Z</time>
      </trkpt>
      <trkpt lat="41.4813930" lon="2.0925840">
        <ele>149.4</ele>
        <time>2018-04-10T06:29:05Z</time>
      </trkpt>
      <trkpt lat="41.4814750" lon="2.0924840">
        <ele>149.8</ele>
        <time>2018-04-10T06:29:07Z</time>
      </trkpt>
      <trkpt lat="41.4815160" lon="2.0924320">
        <ele>150.2</ele>
        <time>2018-04-10T06:29:08Z</time>
      </trkpt>
      <trkpt lat="41.4815590" lon="2.0923800">
        <ele>150.4</ele>
        <time>2018-04-10T06:29:09Z</time>
      </trkpt>
      <trkpt lat="41.4816450" lon="2.0922730">
        <ele>150.6</ele>
        <time>2018-04-10T06:29:11Z</time>
      </trkpt>
      <trkpt lat="41.4817260" lon="2.0921490">
        <ele>151.0</ele>
        <time>2018-04-10T06:29:13Z</time>
      </trkpt>
      <trkpt lat="41.4817570" lon="2.0920790">
        <ele>151.2</ele>
        <time>2018-04-10T06:29:14Z</time>
      </trkpt>
      <trkpt lat="41.4817820" lon="2.0920070">
        <ele>151.4</ele>
        <time>2018-04-10T06:29:15Z</time>
      </trkpt>
      <trkpt lat="41.4818380" lon="2.0918650">
        <ele>151.6</ele>
        <time>2018-04-10T06:29:17Z</time>
      </trkpt>
      <trkpt lat="41.4819170" lon="2.0917430">
        <ele>151.6</ele>
        <time>2018-04-10T06:29:19Z</time>
      </trkpt>
      <trkpt lat="41.4820160" lon="2.0916610">
        <ele>151.8</ele>
        <time>2018-04-10T06:29:21Z</time>
      </trkpt>
      <trkpt lat="41.4820700" lon="2.0916250">
        <ele>151.8</ele>
        <time>2018-04-10T06:29:22Z</time>
      </trkpt>
      <trkpt lat="41.4821240" lon="2.0915910">
        <ele>151.8</ele>
        <time>2018-04-10T06:29:23Z</time>
      </trkpt>
      <trkpt lat="41.4822330" lon="2.0915170">
        <ele>152.0</ele>
        <time>2018-04-10T06:29:25Z</time>
      </trkpt>
      <trkpt lat="41.4823440" lon="2.0914450">
        <ele>152.0</ele>
        <time>2018-04-10T06:29:27Z</time>
      </trkpt>
      <trkpt lat="41.4824540" lon="2.0913750">
        <ele>152.2</ele>
        <time>2018-04-10T06:29:29Z</time>
      </trkpt>
      <trkpt lat="41.4825630" lon="2.0912980">
        <ele>152.4</ele>
        <time>2018-04-10T06:29:31Z</time>
      </trkpt>
      <trkpt lat="41.4826670" lon="2.0912140">
        <ele>152.4</ele>
        <time>2018-04-10T06:29:33Z</time>
      </trkpt>
      <trkpt lat="41.4827740" lon="2.0911160">
        <ele>152.4</ele>
        <time>2018-04-10T06:29:35Z</time>
      </trkpt>
      <trkpt lat="41.4828790" lon="2.0910170">
        <ele>152.4</ele>
        <time>2018-04-10T06:29:37Z</time>
      </trkpt>
      <trkpt lat="41.4829820" lon="2.0909150">
        <ele>152.4</ele>
        <time>2018-04-10T06:29:39Z</time>
      </trkpt>
      <trkpt lat="41.4830810" lon="2.0908170">
        <ele>152.6</ele>
        <time>2018-04-10T06:29:41Z</time>
      </trkpt>
      <trkpt lat="41.4831790" lon="2.0907300">
        <ele>152.6</ele>
        <time>2018-04-10T06:29:43Z</time>
      </trkpt>
      <trkpt lat="41.4832780" lon="2.0906350">
        <ele>152.8</ele>
        <time>2018-04-10T06:29:45Z</time>
      </trkpt>
      <trkpt lat="41.4833720" lon="2.0905430">
        <ele>153.0</ele>
        <time>2018-04-10T06:29:47Z</time>
      </trkpt>
      <trkpt lat="41.4834650" lon="2.0904560">
        <ele>153.2</ele>
        <time>2018-04-10T06:29:49Z</time>
      </trkpt>
      <trkpt lat="41.4835550" lon="2.0903650">
        <ele>153.4</ele>
        <time>2018-04-10T06:29:51Z</time>
      </trkpt>
      <trkpt lat="41.4836480" lon="2.0902660">
        <ele>153.6</ele>
        <time>2018-04-10T06:29:53Z</time>
      </trkpt>
      <trkpt lat="41.4837520" lon="2.0901570">
        <ele>154.0</ele>
        <time>2018-04-10T06:29:55Z</time>
      </trkpt>
      <trkpt lat="41.4838360" lon="2.0900450">
        <ele>154.4</ele>
        <time>2018-04-10T06:29:57Z</time>
      </trkpt>
      <trkpt lat="41.4838760" lon="2.0899850">
        <ele>154.6</ele>
        <time>2018-04-10T06:29:58Z</time>
      </trkpt>
      <trkpt lat="41.4839160" lon="2.0899220">
        <ele>154.6</ele>
        <time>2018-04-10T06:29:59Z</time>
      </trkpt>
      <trkpt lat="41.4839930" lon="2.0897940">
        <ele>155.2</ele>
        <time>2018-04-10T06:30:01Z</time>
      </trkpt>
      <trkpt lat="41.4840680" lon="2.0896580">
        <ele>155.6</ele>
        <time>2018-04-10T06:30:03Z</time>
      </trkpt>
      <trkpt lat="41.4841020" lon="2.0895880">
        <ele>156.0</ele>
        <time>2018-04-10T06:30:04Z</time>
      </trkpt>
      <trkpt lat="41.4841370" lon="2.0895170">
        <ele>156.2</ele>
        <time>2018-04-10T06:30:05Z</time>
      </trkpt>
      <trkpt lat="41.4842040" lon="2.0893670">
        <ele>156.6</ele>
        <time>2018-04-10T06:30:07Z</time>
      </trkpt>
      <trkpt lat="41.4842750" lon="2.0892170">
        <ele>156.8</ele>
        <time>2018-04-10T06:30:09Z</time>
      </trkpt>
      <trkpt lat="41.4843380" lon="2.0890670">
        <ele>156.8</ele>
        <time>2018-04-10T06:30:11Z</time>
      </trkpt>
      <trkpt lat="41.4844000" lon="2.0889160">
        <ele>157.0</ele>
        <time>2018-04-10T06:30:13Z</time>
      </trkpt>
      <trkpt lat="41.4844640" lon="2.0887670">
        <ele>157.0</ele>
        <time>2018-04-10T06:30:15Z</time>
      </trkpt>
      <trkpt lat="41.4845310" lon="2.0886150">
        <ele>157.2</ele>
        <time>2018-04-10T06:30:17Z</time>
      </trkpt>
      <trkpt lat="41.4846010" lon="2.0884660">
        <ele>157.4</ele>
        <time>2018-04-10T06:30:19Z</time>
      </trkpt>
      <trkpt lat="41.4846750" lon="2.0883140">
        <ele>157.8</ele>
        <time>2018-04-10T06:30:21Z</time>
      </trkpt>
      <trkpt lat="41.4847470" lon="2.0881540">
        <ele>158.2</ele>
        <time>2018-04-10T06:30:23Z</time>
      </trkpt>
      <trkpt lat="41.4848240" lon="2.0879880">
        <ele>158.8</ele>
        <time>2018-04-10T06:30:25Z</time>
      </trkpt>
      <trkpt lat="41.4849030" lon="2.0878100">
        <ele>158.8</ele>
        <time>2018-04-10T06:30:27Z</time>
      </trkpt>
      <trkpt lat="41.4849890" lon="2.0876230">
        <ele>159.0</ele>
        <time>2018-04-10T06:30:29Z</time>
      </trkpt>
      <trkpt lat="41.4850680" lon="2.0874530">
        <ele>159.0</ele>
        <time>2018-04-10T06:30:31Z</time>
      </trkpt>
      <trkpt lat="41.4851500" lon="2.0872820">
        <ele>159.0</ele>
        <time>2018-04-10T06:30:33Z</time>
      </trkpt>
      <trkpt lat="41.4852300" lon="2.0871000">
        <ele>158.8</ele>
        <time>2018-04-10T06:30:35Z</time>
      </trkpt>
      <trkpt lat="41.4853170" lon="2.0869080">
        <ele>158.4</ele>
        <time>2018-04-10T06:30:37Z</time>
      </trkpt>
      <trkpt lat="41.4854070" lon="2.0867160">
        <ele>158.0</ele>
        <time>2018-04-10T06:30:39Z</time>
      </trkpt>
      <trkpt lat="41.4854930" lon="2.0865270">
        <ele>157.6</ele>
        <time>2018-04-10T06:30:41Z</time>
      </trkpt>
      <trkpt lat="41.4855340" lon="2.0864340">
        <ele>157.4</ele>
        <time>2018-04-10T06:30:42Z</time>
      </trkpt>
      <trkpt lat="41.4855740" lon="2.0863470">
        <ele>157.4</ele>
        <time>2018-04-10T06:30:43Z</time>
      </trkpt>
      <trkpt lat="41.4856530" lon="2.0861770">
        <ele>157.4</ele>
        <time>2018-04-10T06:30:45Z</time>
      </trkpt>
      <trkpt lat="41.4857300" lon="2.0860050">
        <ele>157.4</ele>
        <time>2018-04-10T06:30:47Z</time>
      </trkpt>
      <trkpt lat="41.4857980" lon="2.0858370">
        <ele>157.4</ele>
        <time>2018-04-10T06:30:49Z</time>
      </trkpt>
      <trkpt lat="41.4858680" lon="2.0856750">
        <ele>157.4</ele>
        <time>2018-04-10T06:30:51Z</time>
      </trkpt>
      <trkpt lat="41.4859360" lon="2.0855250">
        <ele>157.6</ele>
        <time>2018-04-10T06:30:53Z</time>
      </trkpt>
      <trkpt lat="41.4860100" lon="2.0853740">
        <ele>158.0</ele>
        <time>2018-04-10T06:30:55Z</time>
      </trkpt>
      <trkpt lat="41.4860860" lon="2.0852230">
        <ele>158.4</ele>
        <time>2018-04-10T06:30:57Z</time>
      </trkpt>
      <trkpt lat="41.4861280" lon="2.0851490">
        <ele>158.6</ele>
        <time>2018-04-10T06:30:58Z</time>
      </trkpt>
      <trkpt lat="41.4861720" lon="2.0850760">
        <ele>159.2</ele>
        <time>2018-04-10T06:30:59Z</time>
      </trkpt>
      <trkpt lat="41.4862190" lon="2.0850100">
        <ele>159.4</ele>
        <time>2018-04-10T06:31:00Z</time>
      </trkpt>
      <trkpt lat="41.4862660" lon="2.0849470">
        <ele>159.6</ele>
        <time>2018-04-10T06:31:01Z</time>
      </trkpt>
      <trkpt lat="41.4863140" lon="2.0848870">
        <ele>159.8</ele>
        <time>2018-04-10T06:31:02Z</time>
      </trkpt>
      <trkpt lat="41.4863610" lon="2.0848290">
        <ele>160.0</ele>
        <time>2018-04-10T06:31:03Z</time>
      </trkpt>
      <trkpt lat="41.4864540" lon="2.0847140">
        <ele>160.6</ele>
        <time>2018-04-10T06:31:05Z</time>
      </trkpt>
      <trkpt lat="41.4865010" lon="2.0846570">
        <ele>160.8</ele>
        <time>2018-04-10T06:31:06Z</time>
      </trkpt>
      <trkpt lat="41.4865470" lon="2.0846010">
        <ele>161.0</ele>
        <time>2018-04-10T06:31:07Z</time>
      </trkpt>
      <trkpt lat="41.4866370" lon="2.0844890">
        <ele>161.4</ele>
        <time>2018-04-10T06:31:09Z</time>
      </trkpt>
      <trkpt lat="41.4867230" lon="2.0843810">
        <ele>161.8</ele>
        <time>2018-04-10T06:31:11Z</time>
      </trkpt>
      <trkpt lat="41.4868100" lon="2.0842810">
        <ele>162.4</ele>
        <time>2018-04-10T06:31:13Z</time>
      </trkpt>
      <trkpt lat="41.4868970" lon="2.0841830">
        <ele>163.0</ele>
        <time>2018-04-10T06:31:15Z</time>
      </trkpt>
      <trkpt lat="41.4869400" lon="2.0841350">
        <ele>163.2</ele>
        <time>2018-04-10T06:31:16Z</time>
      </trkpt>
      <trkpt lat="41.4869810" lon="2.0840870">
        <ele>163.6</ele>
        <time>2018-04-10T06:31:17Z</time>
      </trkpt>
      <trkpt lat="41.4870500" lon="2.0839990">
        <ele>164.0</ele>
        <time>2018-04-10T06:31:19Z</time>
      </trkpt>
      <trkpt lat="41.4870810" lon="2.0839640">
        <ele>164.2</ele>
        <time>2018-04-10T06:31:20Z</time>
      </trkpt>
      <trkpt lat="41.4871090" lon="2.0839310">
        <ele>164.6</ele>
        <time>2018-04-10T06:31:21Z</time>
      </trkpt>
      <trkpt lat="41.4871540" lon="2.0838710">
        <ele>165.0</ele>
        <time>2018-04-10T06:31:23Z</time>
      </trkpt>
      <trkpt lat="41.4871930" lon="2.0838200">
        <ele>165.2</ele>
        <time>2018-04-10T06:31:25Z</time>
      </trkpt>
      <trkpt lat="41.4872110" lon="2.0838020">
        <ele>165.4</ele>
        <time>2018-04-10T06:31:26Z</time>
      </trkpt>
      <trkpt lat="41.4872250" lon="2.0837870">
        <ele>165.8</ele>
        <time>2018-04-10T06:31:27Z</time>
      </trkpt>
      <trkpt lat="41.4872370" lon="2.0837750">
        <ele>166.6</ele>
        <time>2018-04-10T06:31:28Z</time>
      </trkpt>
      <trkpt lat="41.4872510" lon="2.0837620">
        <ele>166.8</ele>
        <time>2018-04-10T06:31:29Z</time>
      </trkpt>
      <trkpt lat="41.4872920" lon="2.0837250">
        <ele>167.4</ele>
        <time>2018-04-10T06:31:31Z</time>
      </trkpt>
      <trkpt lat="41.4873460" lon="2.0836930">
        <ele>167.6</ele>
        <time>2018-04-10T06:31:33Z</time>
      </trkpt>
      <trkpt lat="41.4874120" lon="2.0836770">
        <ele>168.0</ele>
        <time>2018-04-10T06:31:35Z</time>
      </trkpt>
      <trkpt lat="41.4875090" lon="2.0836640">
        <ele>168.2</ele>
        <time>2018-04-10T06:31:37Z</time>
      </trkpt>
      <trkpt lat="41.4875600" lon="2.0836490">
        <ele>168.4</ele>
        <time>2018-04-10T06:31:38Z</time>
      </trkpt>
      <trkpt lat="41.4876060" lon="2.0836240">
        <ele>168.4</ele>
        <time>2018-04-10T06:31:39Z</time>
      </trkpt>
      <trkpt lat="41.4876890" lon="2.0835450">
        <ele>168.8</ele>
        <time>2018-04-10T06:31:41Z</time>
      </trkpt>
      <trkpt lat="41.4877410" lon="2.0834330">
        <ele>169.2</ele>
        <time>2018-04-10T06:31:43Z</time>
      </trkpt>
      <trkpt lat="41.4877540" lon="2.0833010">
        <ele>169.2</ele>
        <time>2018-04-10T06:31:45Z</time>
      </trkpt>
      <trkpt lat="41.4877280" lon="2.0831700">
        <ele>169.4</ele>
        <time>2018-04-10T06:31:47Z</time>
      </trkpt>
      <trkpt lat="41.4876670" lon="2.0830580">
        <ele>169.8</ele>
        <time>2018-04-10T06:31:49Z</time>
      </trkpt>
      <trkpt lat="41.4876240" lon="2.0830160">
        <ele>170.0</ele>
        <time>2018-04-10T06:31:50Z</time>
      </trkpt>
      <trkpt lat="41.4875710" lon="2.0829890">
        <ele>170.2</ele>
        <time>2018-04-10T06:31:51Z</time>
      </trkpt>
      <trkpt lat="41.4874510" lon="2.0829670">
        <ele>170.6</ele>
        <time>2018-04-10T06:31:53Z</time>
      </trkpt>
      <trkpt lat="41.4873890" lon="2.0829510">
        <ele>170.8</ele>
        <time>2018-04-10T06:31:54Z</time>
      </trkpt>
      <trkpt lat="41.4873310" lon="2.0829170">
        <ele>171.0</ele>
        <time>2018-04-10T06:31:55Z</time>
      </trkpt>
      <trkpt lat="41.4872850" lon="2.0828570">
        <ele>171.0</ele>
        <time>2018-04-10T06:31:56Z</time>
      </trkpt>
      <trkpt lat="41.4872590" lon="2.0827750">
        <ele>171.0</ele>
        <time>2018-04-10T06:31:57Z</time>
      </trkpt>
      <trkpt lat="41.4872810" lon="2.0825990">
        <ele>171.0</ele>
        <time>2018-04-10T06:31:59Z</time>
      </trkpt>
      <trkpt lat="41.4873070" lon="2.0825130">
        <ele>171.0</ele>
        <time>2018-04-10T06:32:00Z</time>
      </trkpt>
      <trkpt lat="41.4873330" lon="2.0824270">
        <ele>171.0</ele>
        <time>2018-04-10T06:32:01Z</time>
      </trkpt>
      <trkpt lat="41.4873550" lon="2.0823390">
        <ele>171.0</ele>
        <time>2018-04-10T06:32:02Z</time>
      </trkpt>
      <trkpt lat="41.4873730" lon="2.0822520">
        <ele>171.0</ele>
        <time>2018-04-10T06:32:03Z</time>
      </trkpt>
      <trkpt lat="41.4873860" lon="2.0820700">
        <ele>170.6</ele>
        <time>2018-04-10T06:32:05Z</time>
      </trkpt>
      <trkpt lat="41.4873730" lon="2.0818730">
        <ele>170.6</ele>
        <time>2018-04-10T06:32:07Z</time>
      </trkpt>
      <trkpt lat="41.4873540" lon="2.0816720">
        <ele>170.4</ele>
        <time>2018-04-10T06:32:09Z</time>
      </trkpt>
      <trkpt lat="41.4873330" lon="2.0814670">
        <ele>170.4</ele>
        <time>2018-04-10T06:32:11Z</time>
      </trkpt>
      <trkpt lat="41.4873140" lon="2.0812610">
        <ele>170.2</ele>
        <time>2018-04-10T06:32:13Z</time>
      </trkpt>
      <trkpt lat="41.4872970" lon="2.0810540">
        <ele>170.2</ele>
        <time>2018-04-10T06:32:15Z</time>
      </trkpt>
      <trkpt lat="41.4872780" lon="2.0808450">
        <ele>170.0</ele>
        <time>2018-04-10T06:32:17Z</time>
      </trkpt>
      <trkpt lat="41.4872610" lon="2.0806330">
        <ele>170.2</ele>
        <time>2018-04-10T06:32:19Z</time>
      </trkpt>
      <trkpt lat="41.4872470" lon="2.0804160">
        <ele>169.8</ele>
        <time>2018-04-10T06:32:21Z</time>
      </trkpt>
      <trkpt lat="41.4872380" lon="2.0801980">
        <ele>169.6</ele>
        <time>2018-04-10T06:32:23Z</time>
      </trkpt>
      <trkpt lat="41.4872310" lon="2.0799830">
        <ele>169.4</ele>
        <time>2018-04-10T06:32:25Z</time>
      </trkpt>
      <trkpt lat="41.4872340" lon="2.0797790">
        <ele>169.2</ele>
        <time>2018-04-10T06:32:27Z</time>
      </trkpt>
      <trkpt lat="41.4872540" lon="2.0795950">
        <ele>169.2</ele>
        <time>2018-04-10T06:32:29Z</time>
      </trkpt>
      <trkpt lat="41.4872810" lon="2.0794330">
        <ele>169.2</ele>
        <time>2018-04-10T06:32:31Z</time>
      </trkpt>
      <trkpt lat="41.4872970" lon="2.0792790">
        <ele>169.2</ele>
        <time>2018-04-10T06:32:33Z</time>
      </trkpt>
      <trkpt lat="41.4872990" lon="2.0791310">
        <ele>169.6</ele>
        <time>2018-04-10T06:32:35Z</time>
      </trkpt>
      <trkpt lat="41.4872940" lon="2.0789870">
        <ele>170.2</ele>
        <time>2018-04-10T06:32:37Z</time>
      </trkpt>
      <trkpt lat="41.4872660" lon="2.0788510">
        <ele>171.0</ele>
        <time>2018-04-10T06:32:39Z</time>
      </trkpt>
      <trkpt lat="41.4872460" lon="2.0787890">
        <ele>171.4</ele>
        <time>2018-04-10T06:32:40Z</time>
      </trkpt>
      <trkpt lat="41.4872220" lon="2.0787290">
        <ele>171.8</ele>
        <time>2018-04-10T06:32:41Z</time>
      </trkpt>
      <trkpt lat="41.4871960" lon="2.0786700">
        <ele>172.0</ele>
        <time>2018-04-10T06:32:42Z</time>
      </trkpt>
      <trkpt lat="41.4871660" lon="2.0786110">
        <ele>172.2</ele>
        <time>2018-04-10T06:32:43Z</time>
      </trkpt>
      <trkpt lat="41.4871350" lon="2.0785510">
        <ele>172.6</ele>
        <time>2018-04-10T06:32:44Z</time>
      </trkpt>
      <trkpt lat="41.4871020" lon="2.0784890">
        <ele>173.0</ele>
        <time>2018-04-10T06:32:45Z</time>
      </trkpt>
      <trkpt lat="41.4870360" lon="2.0783660">
        <ele>173.8</ele>
        <time>2018-04-10T06:32:47Z</time>
      </trkpt>
      <trkpt lat="41.4870100" lon="2.0783010">
        <ele>174.2</ele>
        <time>2018-04-10T06:32:48Z</time>
      </trkpt>
      <trkpt lat="41.4869890" lon="2.0782320">
        <ele>174.6</ele>
        <time>2018-04-10T06:32:49Z</time>
      </trkpt>
      <trkpt lat="41.4869550" lon="2.0780820">
        <ele>175.0</ele>
        <time>2018-04-10T06:32:51Z</time>
      </trkpt>
      <trkpt lat="41.4869390" lon="2.0780030">
        <ele>175.4</ele>
        <time>2018-04-10T06:32:52Z</time>
      </trkpt>
      <trkpt lat="41.4869220" lon="2.0779230">
        <ele>175.4</ele>
        <time>2018-04-10T06:32:53Z</time>
      </trkpt>
      <trkpt lat="41.4868830" lon="2.0777710">
        <ele>175.6</ele>
        <time>2018-04-10T06:32:55Z</time>
      </trkpt>
      <trkpt lat="41.4868490" lon="2.0776510">
        <ele>175.6</ele>
        <time>2018-04-10T06:32:57Z</time>
      </trkpt>
      <trkpt lat="41.4868230" lon="2.0775500">
        <ele>175.6</ele>
        <time>2018-04-10T06:32:59Z</time>
      </trkpt>
      <trkpt lat="41.4868150" lon="2.0774950">
        <ele>175.6</ele>
        <time>2018-04-10T06:33:00Z</time>
      </trkpt>
      <trkpt lat="41.4868140" lon="2.0774390">
        <ele>175.6</ele>
        <time>2018-04-10T06:33:01Z</time>
      </trkpt>
      <trkpt lat="41.4868270" lon="2.0773320">
        <ele>175.4</ele>
        <time>2018-04-10T06:33:03Z</time>
      </trkpt>
      <trkpt lat="41.4868420" lon="2.0772790">
        <ele>175.4</ele>
        <time>2018-04-10T06:33:04Z</time>
      </trkpt>
      <trkpt lat="41.4868530" lon="2.0772210">
        <ele>175.2</ele>
        <time>2018-04-10T06:33:05Z</time>
      </trkpt>
      <trkpt lat="41.4868360" lon="2.0771000">
        <ele>175.0</ele>
        <time>2018-04-10T06:33:07Z</time>
      </trkpt>
      <trkpt lat="41.4867630" lon="2.0769860">
        <ele>174.8</ele>
        <time>2018-04-10T06:33:09Z</time>
      </trkpt>
      <trkpt lat="41.4866520" lon="2.0768820">
        <ele>174.6</ele>
        <time>2018-04-10T06:33:11Z</time>
      </trkpt>
      <trkpt lat="41.4866000" lon="2.0767000">
        <ele>174.6</ele>
        <time>2018-04-10T06:33:13Z</time>
      </trkpt>
      <trkpt lat="41.4866420" lon="2.0764870">
        <ele>174.4</ele>
        <time>2018-04-10T06:33:15Z</time>
      </trkpt>
      <trkpt lat="41.4867190" lon="2.0762990">
        <ele>174.2</ele>
        <time>2018-04-10T06:33:17Z</time>
      </trkpt>
      <trkpt lat="41.4868040" lon="2.0761290">
        <ele>173.4</ele>
        <time>2018-04-10T06:33:19Z</time>
      </trkpt>
      <trkpt lat="41.4868430" lon="2.0760510">
        <ele>173.2</ele>
        <time>2018-04-10T06:33:20Z</time>
      </trkpt>
      <trkpt lat="41.4868790" lon="2.0759760">
        <ele>172.6</ele>
        <time>2018-04-10T06:33:21Z</time>
      </trkpt>
      <trkpt lat="41.4869140" lon="2.0759010">
        <ele>172.0</ele>
        <time>2018-04-10T06:33:22Z</time>
      </trkpt>
      <trkpt lat="41.4869480" lon="2.0758240">
        <ele>171.6</ele>
        <time>2018-04-10T06:33:23Z</time>
      </trkpt>
      <trkpt lat="41.4870140" lon="2.0756720">
        <ele>171.4</ele>
        <time>2018-04-10T06:33:25Z</time>
      </trkpt>
      <trkpt lat="41.4870780" lon="2.0755210">
        <ele>171.2</ele>
        <time>2018-04-10T06:33:27Z</time>
      </trkpt>
      <trkpt lat="41.4871320" lon="2.0753660">
        <ele>171.2</ele>
        <time>2018-04-10T06:33:29Z</time>
      </trkpt>
      <trkpt lat="41.4871700" lon="2.0752000">
        <ele>171.2</ele>
        <time>2018-04-10T06:33:31Z</time>
      </trkpt>
      <trkpt lat="41.4871900" lon="2.0750260">
        <ele>171.4</ele>
        <time>2018-04-10T06:33:33Z</time>
      </trkpt>
      <trkpt lat="41.4871920" lon="2.0749370">
        <ele>171.4</ele>
        <time>2018-04-10T06:33:34Z</time>
      </trkpt>
      <trkpt lat="41.4871900" lon="2.0748500">
        <ele>171.4</ele>
        <time>2018-04-10T06:33:35Z</time>
      </trkpt>
      <trkpt lat="41.4871730" lon="2.0746810">
        <ele>171.6</ele>
        <time>2018-04-10T06:33:37Z</time>
      </trkpt>
      <trkpt lat="41.4871370" lon="2.0745280">
        <ele>171.8</ele>
        <time>2018-04-10T06:33:39Z</time>
      </trkpt>
      <trkpt lat="41.4870920" lon="2.0743910">
        <ele>172.0</ele>
        <time>2018-04-10T06:33:41Z</time>
      </trkpt>
      <trkpt lat="41.4870380" lon="2.0742700">
        <ele>172.0</ele>
        <time>2018-04-10T06:33:43Z</time>
      </trkpt>
      <trkpt lat="41.4869770" lon="2.0741610">
        <ele>172.2</ele>
        <time>2018-04-10T06:33:45Z</time>
      </trkpt>
      <trkpt lat="41.4869070" lon="2.0740640">
        <ele>172.6</ele>
        <time>2018-04-10T06:33:47Z</time>
      </trkpt>
      <trkpt lat="41.4868360" lon="2.0739690">
        <ele>173.0</ele>
        <time>2018-04-10T06:33:49Z</time>
      </trkpt>
      <trkpt lat="41.4868060" lon="2.0739250">
        <ele>173.2</ele>
        <time>2018-04-10T06:33:50Z</time>
      </trkpt>
      <trkpt lat="41.4867780" lon="2.0738830">
        <ele>173.4</ele>
        <time>2018-04-10T06:33:51Z</time>
      </trkpt>
      <trkpt lat="41.4867190" lon="2.0738000">
        <ele>174.4</ele>
        <time>2018-04-10T06:33:53Z</time>
      </trkpt>
      <trkpt lat="41.4866680" lon="2.0737160">
        <ele>175.0</ele>
        <time>2018-04-10T06:33:55Z</time>
      </trkpt>
      <trkpt lat="41.4866450" lon="2.0736750">
        <ele>175.4</ele>
        <time>2018-04-10T06:33:56Z</time>
      </trkpt>
      <trkpt lat="41.4866230" lon="2.0736320">
        <ele>175.8</ele>
        <time>2018-04-10T06:33:57Z</time>
      </trkpt>
      <trkpt lat="41.4865820" lon="2.0735450">
        <ele>176.6</ele>
        <time>2018-04-10T06:33:59Z</time>
      </trkpt>
      <trkpt lat="41.4865480" lon="2.0734550">
        <ele>177.2</ele>
        <time>2018-04-10T06:34:01Z</time>
      </trkpt>
      <trkpt lat="41.4865320" lon="2.0734100">
        <ele>177.6</ele>
        <time>2018-04-10T06:34:02Z</time>
      </trkpt>
      <trkpt lat="41.4865180" lon="2.0733650">
        <ele>178.0</ele>
        <time>2018-04-10T06:34:03Z</time>
      </trkpt>
      <trkpt lat="41.4864930" lon="2.0732740">
        <ele>178.8</ele>
        <time>2018-04-10T06:34:05Z</time>
      </trkpt>
      <trkpt lat="41.4864720" lon="2.0731820">
        <ele>179.6</ele>
        <time>2018-04-10T06:34:07Z</time>
      </trkpt>
      <trkpt lat="41.4864630" lon="2.0731350">
        <ele>180.0</ele>
        <time>2018-04-10T06:34:08Z</time>
      </trkpt>
      <trkpt lat="41.4864550" lon="2.0730880">
        <ele>180.4</ele>
        <time>2018-04-10T06:34:09Z</time>
      </trkpt>
      <trkpt lat="41.4864440" lon="2.0729930">
        <ele>181.4</ele>
        <time>2018-04-10T06:34:11Z</time>
      </trkpt>
      <trkpt lat="41.4864350" lon="2.0728970">
        <ele>182.0</ele>
        <time>2018-04-10T06:34:13Z</time>
      </trkpt>
      <trkpt lat="41.4864330" lon="2.0727950">
        <ele>182.6</ele>
        <time>2018-04-10T06:34:15Z</time>
      </trkpt>
      <trkpt lat="41.4864360" lon="2.0726900">
        <ele>183.2</ele>
        <time>2018-04-10T06:34:17Z</time>
      </trkpt>
      <trkpt lat="41.4864410" lon="2.0725780">
        <ele>183.8</ele>
        <time>2018-04-10T06:34:19Z</time>
      </trkpt>
      <trkpt lat="41.4864440" lon="2.0724660">
        <ele>184.4</ele>
        <time>2018-04-10T06:34:21Z</time>
      </trkpt>
      <trkpt lat="41.4864470" lon="2.0724090">
        <ele>184.8</ele>
        <time>2018-04-10T06:34:22Z</time>
      </trkpt>
      <trkpt lat="41.4864510" lon="2.0723520">
        <ele>185.0</ele>
        <time>2018-04-10T06:34:23Z</time>
      </trkpt>
      <trkpt lat="41.4864550" lon="2.0722320">
        <ele>185.4</ele>
        <time>2018-04-10T06:34:25Z</time>
      </trkpt>
      <trkpt lat="41.4864630" lon="2.0721110">
        <ele>185.8</ele>
        <time>2018-04-10T06:34:27Z</time>
      </trkpt>
      <trkpt lat="41.4864660" lon="2.0720490">
        <ele>186.0</ele>
        <time>2018-04-10T06:34:28Z</time>
      </trkpt>
      <trkpt lat="41.4864690" lon="2.0719860">
        <ele>186.2</ele>
        <time>2018-04-10T06:34:29Z</time>
      </trkpt>
      <trkpt lat="41.4864740" lon="2.0718600">
        <ele>186.6</ele>
        <time>2018-04-10T06:34:31Z</time>
      </trkpt>
      <trkpt lat="41.4864800" lon="2.0717340">
        <ele>186.8</ele>
        <time>2018-04-10T06:34:33Z</time>
      </trkpt>
      <trkpt lat="41.4864850" lon="2.0716050">
        <ele>187.2</ele>
        <time>2018-04-10T06:34:35Z</time>
      </trkpt>
      <trkpt lat="41.4864890" lon="2.0715390">
        <ele>187.4</ele>
        <time>2018-04-10T06:34:36Z</time>
      </trkpt>
      <trkpt lat="41.4864920" lon="2.0714730">
        <ele>187.4</ele>
        <time>2018-04-10T06:34:37Z</time>
      </trkpt>
      <trkpt lat="41.4864980" lon="2.0713410">
        <ele>187.8</ele>
        <time>2018-04-10T06:34:39Z</time>
      </trkpt>
      <trkpt lat="41.4865040" lon="2.0712060">
        <ele>188.0</ele>
        <time>2018-04-10T06:34:41Z</time>
      </trkpt>
      <trkpt lat="41.4865150" lon="2.0710700">
        <ele>188.4</ele>
        <time>2018-04-10T06:34:43Z</time>
      </trkpt>
      <trkpt lat="41.4865250" lon="2.0709340">
        <ele>188.6</ele>
        <time>2018-04-10T06:34:45Z</time>
      </trkpt>
      <trkpt lat="41.4865350" lon="2.0707960">
        <ele>188.8</ele>
        <time>2018-04-10T06:34:47Z</time>
      </trkpt>
      <trkpt lat="41.4865430" lon="2.0706560">
        <ele>189.0</ele>
        <time>2018-04-10T06:34:49Z</time>
      </trkpt>
      <trkpt lat="41.4865510" lon="2.0705150">
        <ele>189.2</ele>
        <time>2018-04-10T06:34:51Z</time>
      </trkpt>
      <trkpt lat="41.4865540" lon="2.0704430">
        <ele>189.4</ele>
        <time>2018-04-10T06:34:52Z</time>
      </trkpt>
      <trkpt lat="41.4865570" lon="2.0703700">
        <ele>189.4</ele>
        <time>2018-04-10T06:34:53Z</time>
      </trkpt>
      <trkpt lat="41.4865630" lon="2.0702210">
        <ele>189.6</ele>
        <time>2018-04-10T06:34:55Z</time>
      </trkpt>
      <trkpt lat="41.4865770" lon="2.0700710">
        <ele>189.8</ele>
        <time>2018-04-10T06:34:57Z</time>
      </trkpt>
      <trkpt lat="41.4865940" lon="2.0699200">
        <ele>189.8</ele>
        <time>2018-04-10T06:34:59Z</time>
      </trkpt>
      <trkpt lat="41.4866050" lon="2.0697620">
        <ele>189.8</ele>
        <time>2018-04-10T06:35:01Z</time>
      </trkpt>
      <trkpt lat="41.4866190" lon="2.0696020">
        <ele>189.8</ele>
        <time>2018-04-10T06:35:03Z</time>
      </trkpt>
      <trkpt lat="41.4866350" lon="2.0694360">
        <ele>189.8</ele>
        <time>2018-04-10T06:35:05Z</time>
      </trkpt>
      <trkpt lat="41.4866490" lon="2.0692630">
        <ele>189.6</ele>
        <time>2018-04-10T06:35:07Z</time>
      </trkpt>
      <trkpt lat="41.4866650" lon="2.0690840">
        <ele>189.6</ele>
        <time>2018-04-10T06:35:09Z</time>
      </trkpt>
      <trkpt lat="41.4866890" lon="2.0688980">
        <ele>189.4</ele>
        <time>2018-04-10T06:35:11Z</time>
      </trkpt>
      <trkpt lat="41.4867210" lon="2.0687080">
        <ele>189.0</ele>
        <time>2018-04-10T06:35:13Z</time>
      </trkpt>
      <trkpt lat="41.4867640" lon="2.0685210">
        <ele>188.6</ele>
        <time>2018-04-10T06:35:15Z</time>
      </trkpt>
      <trkpt lat="41.4868010" lon="2.0684390">
        <ele>188.2</ele>
        <time>2018-04-10T06:35:16Z</time>
      </trkpt>
      <trkpt lat="41.4868510" lon="2.0683720">
        <ele>187.8</ele>
        <time>2018-04-10T06:35:17Z</time>
      </trkpt>
      <trkpt lat="41.4869390" lon="2.0682410">
        <ele>187.4</ele>
        <time>2018-04-10T06:35:19Z</time>
      </trkpt>
      <trkpt lat="41.4869600" lon="2.0681620">
        <ele>187.2</ele>
        <time>2018-04-10T06:35:20Z</time>
      </trkpt>
      <trkpt lat="41.4869620" lon="2.0680770">
        <ele>187.0</ele>
        <time>2018-04-10T06:35:21Z</time>
      </trkpt>
      <trkpt lat="41.4869130" lon="2.0679290">
        <ele>187.0</ele>
        <time>2018-04-10T06:35:23Z</time>
      </trkpt>
      <trkpt lat="41.4868100" lon="2.0678520">
        <ele>187.0</ele>
        <time>2018-04-10T06:35:25Z</time>
      </trkpt>
      <trkpt lat="41.4867040" lon="2.0678580">
        <ele>187.0</ele>
        <time>2018-04-10T06:35:27Z</time>
      </trkpt>
      <trkpt lat="41.4866230" lon="2.0679470">
        <ele>187.0</ele>
        <time>2018-04-10T06:35:29Z</time>
      </trkpt>
      <trkpt lat="41.4865340" lon="2.0680590">
        <ele>187.0</ele>
        <time>2018-04-10T06:35:31Z</time>
      </trkpt>
      <trkpt lat="41.4864040" lon="2.0681190">
        <ele>187.0</ele>
        <time>2018-04-10T06:35:33Z</time>
      </trkpt>
      <trkpt lat="41.4863360" lon="2.0681360">
        <ele>187.0</ele>
        <time>2018-04-10T06:35:34Z</time>
      </trkpt>
      <trkpt lat="41.4862670" lon="2.0681510">
        <ele>187.0</ele>
        <time>2018-04-10T06:35:35Z</time>
      </trkpt>
      <trkpt lat="41.4861270" lon="2.0681720">
        <ele>187.0</ele>
        <time>2018-04-10T06:35:37Z</time>
      </trkpt>
      <trkpt lat="41.4859880" lon="2.0682000">
        <ele>186.8</ele>
        <time>2018-04-10T06:35:39Z</time>
      </trkpt>
      <trkpt lat="41.4858500" lon="2.0682370">
        <ele>186.4</ele>
        <time>2018-04-10T06:35:41Z</time>
      </trkpt>
      <trkpt lat="41.4857760" lon="2.0682540">
        <ele>186.2</ele>
        <time>2018-04-10T06:35:42Z</time>
      </trkpt>
      <trkpt lat="41.4857040" lon="2.0682620">
        <ele>186.0</ele>
        <time>2018-04-10T06:35:43Z</time>
      </trkpt>
      <trkpt lat="41.4855600" lon="2.0682790">
        <ele>185.8</ele>
        <time>2018-04-10T06:35:45Z</time>
      </trkpt>
      <trkpt lat="41.4854190" lon="2.0683130">
        <ele>185.8</ele>
        <time>2018-04-10T06:35:47Z</time>
      </trkpt>
      <trkpt lat="41.4852780" lon="2.0683530">
        <ele>185.6</ele>
        <time>2018-04-10T06:35:49Z</time>
      </trkpt>
      <trkpt lat="41.4851310" lon="2.0683940">
        <ele>185.6</ele>
        <time>2018-04-10T06:35:51Z</time>
      </trkpt>
      <trkpt lat="41.4850550" lon="2.0684100">
        <ele>185.4</ele>
        <time>2018-04-10T06:35:52Z</time>
      </trkpt>
      <trkpt lat="41.4849800" lon="2.0684180">
        <ele>185.4</ele>
        <time>2018-04-10T06:35:53Z</time>
      </trkpt>
      <trkpt lat="41.4848270" lon="2.0684370">
        <ele>185.6</ele>
        <time>2018-04-10T06:35:55Z</time>
      </trkpt>
      <trkpt lat="41.4846750" lon="2.0684660">
        <ele>185.4</ele>
        <time>2018-04-10T06:35:57Z</time>
      </trkpt>
      <trkpt lat="41.4845250" lon="2.0684970">
        <ele>185.4</ele>
        <time>2018-04-10T06:35:59Z</time>
      </trkpt>
      <trkpt lat="41.4843750" lon="2.0685270">
        <ele>185.2</ele>
        <time>2018-04-10T06:36:01Z</time>
      </trkpt>
      <trkpt lat="41.4842990" lon="2.0685280">
        <ele>185.2</ele>
        <time>2018-04-10T06:36:02Z</time>
      </trkpt>
      <trkpt lat="41.4842280" lon="2.0685120">
        <ele>185.0</ele>
        <time>2018-04-10T06:36:03Z</time>
      </trkpt>
      <trkpt lat="41.4841090" lon="2.0684320">
        <ele>185.0</ele>
        <time>2018-04-10T06:36:05Z</time>
      </trkpt>
      <trkpt lat="41.4839990" lon="2.0684010">
        <ele>185.0</ele>
        <time>2018-04-10T06:36:07Z</time>
      </trkpt>
      <trkpt lat="41.4838860" lon="2.0684710">
        <ele>185.0</ele>
        <time>2018-04-10T06:36:09Z</time>
      </trkpt>
      <trkpt lat="41.4837980" lon="2.0686210">
        <ele>185.0</ele>
        <time>2018-04-10T06:36:11Z</time>
      </trkpt>
      <trkpt lat="41.4837510" lon="2.0687010">
        <ele>185.0</ele>
        <time>2018-04-10T06:36:12Z</time>
      </trkpt>
      <trkpt lat="41.4836970" lon="2.0687760">
        <ele>185.0</ele>
        <time>2018-04-10T06:36:13Z</time>
      </trkpt>
      <trkpt lat="41.4835790" lon="2.0689060">
        <ele>184.8</ele>
        <time>2018-04-10T06:36:15Z</time>
      </trkpt>
      <trkpt lat="41.4834590" lon="2.0690380">
        <ele>184.8</ele>
        <time>2018-04-10T06:36:17Z</time>
      </trkpt>
      <trkpt lat="41.4833400" lon="2.0691880">
        <ele>184.8</ele>
        <time>2018-04-10T06:36:19Z</time>
      </trkpt>
      <trkpt lat="41.4832220" lon="2.0693260">
        <ele>184.8</ele>
        <time>2018-04-10T06:36:21Z</time>
      </trkpt>
      <trkpt lat="41.4831050" lon="2.0694660">
        <ele>184.6</ele>
        <time>2018-04-10T06:36:23Z</time>
      </trkpt>
      <trkpt lat="41.4829920" lon="2.0695980">
        <ele>184.6</ele>
        <time>2018-04-10T06:36:25Z</time>
      </trkpt>
      <trkpt lat="41.4828830" lon="2.0697280">
        <ele>184.6</ele>
        <time>2018-04-10T06:36:27Z</time>
      </trkpt>
      <trkpt lat="41.4828230" lon="2.0697920">
        <ele>184.6</ele>
        <time>2018-04-10T06:36:28Z</time>
      </trkpt>
      <trkpt lat="41.4827620" lon="2.0698460">
        <ele>184.6</ele>
        <time>2018-04-10T06:36:29Z</time>
      </trkpt>
      <trkpt lat="41.4826380" lon="2.0699330">
        <ele>184.8</ele>
        <time>2018-04-10T06:36:31Z</time>
      </trkpt>
      <trkpt lat="41.4825120" lon="2.0699920">
        <ele>185.0</ele>
        <time>2018-04-10T06:36:33Z</time>
      </trkpt>
      <trkpt lat="41.4823910" lon="2.0700180">
        <ele>185.4</ele>
        <time>2018-04-10T06:36:35Z</time>
      </trkpt>
      <trkpt lat="41.4822600" lon="2.0700160">
        <ele>185.6</ele>
        <time>2018-04-10T06:36:37Z</time>
      </trkpt>
      <trkpt lat="41.4821300" lon="2.0699850">
        <ele>185.8</ele>
        <time>2018-04-10T06:36:39Z</time>
      </trkpt>
      <trkpt lat="41.4820000" lon="2.0699340">
        <ele>186.2</ele>
        <time>2018-04-10T06:36:41Z</time>
      </trkpt>
      <trkpt lat="41.4818670" lon="2.0698810">
        <ele>186.4</ele>
        <time>2018-04-10T06:36:43Z</time>
      </trkpt>
      <trkpt lat="41.4817330" lon="2.0698240">
        <ele>186.4</ele>
        <time>2018-04-10T06:36:45Z</time>
      </trkpt>
      <trkpt lat="41.4816140" lon="2.0697700">
        <ele>186.4</ele>
        <time>2018-04-10T06:36:47Z</time>
      </trkpt>
      <trkpt lat="41.4815180" lon="2.0697290">
        <ele>186.4</ele>
        <time>2018-04-10T06:36:49Z</time>
      </trkpt>
      <trkpt lat="41.4814820" lon="2.0697090">
        <ele>186.4</ele>
        <time>2018-04-10T06:36:50Z</time>
      </trkpt>
      <trkpt lat="41.4814490" lon="2.0696920">
        <ele>186.2</ele>
        <time>2018-04-10T06:36:51Z</time>
      </trkpt>
      <trkpt lat="41.4813830" lon="2.0696540">
        <ele>186.0</ele>
        <time>2018-04-10T06:36:53Z</time>
      </trkpt>
      <trkpt lat="41.4813210" lon="2.0695840">
        <ele>185.8</ele>
        <time>2018-04-10T06:36:55Z</time>
      </trkpt>
      <trkpt lat="41.4812870" lon="2.0695470">
        <ele>185.6</ele>
        <time>2018-04-10T06:36:56Z</time>
      </trkpt>
      <trkpt lat="41.4812460" lon="2.0695270">
        <ele>185.4</ele>
        <time>2018-04-10T06:36:57Z</time>
      </trkpt>
      <trkpt lat="41.4812010" lon="2.0695250">
        <ele>185.4</ele>
        <time>2018-04-10T06:36:58Z</time>
      </trkpt>
      <trkpt lat="41.4811530" lon="2.0695340">
        <ele>185.2</ele>
        <time>2018-04-10T06:36:59Z</time>
      </trkpt>
      <trkpt lat="41.4810560" lon="2.0695350">
        <ele>185.0</ele>
        <time>2018-04-10T06:37:01Z</time>
      </trkpt>
      <trkpt lat="41.4809620" lon="2.0694910">
        <ele>184.4</ele>
        <time>2018-04-10T06:37:03Z</time>
      </trkpt>
      <trkpt lat="41.4809180" lon="2.0694660">
        <ele>184.2</ele>
        <time>2018-04-10T06:37:04Z</time>
      </trkpt>
      <trkpt lat="41.4808760" lon="2.0694430">
        <ele>184.0</ele>
        <time>2018-04-10T06:37:05Z</time>
      </trkpt>
      <trkpt lat="41.4808030" lon="2.0694100">
        <ele>183.4</ele>
        <time>2018-04-10T06:37:07Z</time>
      </trkpt>
      <trkpt lat="41.4807780" lon="2.0693960">
        <ele>183.0</ele>
        <time>2018-04-10T06:37:08Z</time>
      </trkpt>
      <trkpt lat="41.4807580" lon="2.0693840">
        <ele>182.6</ele>
        <time>2018-04-10T06:37:09Z</time>
      </trkpt>
      <trkpt lat="41.4807090" lon="2.0693620">
        <ele>182.2</ele>
        <time>2018-04-10T06:37:11Z</time>
      </trkpt>
      <trkpt lat="41.4806410" lon="2.0693400">
        <ele>181.4</ele>
        <time>2018-04-10T06:37:13Z</time>
      </trkpt>
      <trkpt lat="41.4806130" lon="2.0693330">
        <ele>181.0</ele>
        <time>2018-04-10T06:37:14Z</time>
      </trkpt>
      <trkpt lat="41.4805960" lon="2.0693280">
        <ele>180.6</ele>
        <time>2018-04-10T06:37:15Z</time>
      </trkpt>
      <trkpt lat="41.4805820" lon="2.0693230">
        <ele>179.8</ele>
        <time>2018-04-10T06:37:17Z</time>
      </trkpt>
      <trkpt lat="41.4805700" lon="2.0693140">
        <ele>179.2</ele>
        <time>2018-04-10T06:37:19Z</time>
      </trkpt>
      <trkpt lat="41.4805610" lon="2.0693090">
        <ele>179.0</ele>
        <time>2018-04-10T06:37:20Z</time>
      </trkpt>
      <trkpt lat="41.4805540" lon="2.0693020">
        <ele>178.8</ele>
        <time>2018-04-10T06:37:21Z</time>
      </trkpt>
      <trkpt lat="41.4805500" lon="2.0692980">
        <ele>178.8</ele>
        <time>2018-04-10T06:37:22Z</time>
      </trkpt>
      <trkpt lat="41.4805460" lon="2.0692950">
        <ele>178.6</ele>
        <time>2018-04-10T06:37:23Z</time>
      </trkpt>
      <trkpt lat="41.4805420" lon="2.0692900">
        <ele>178.6</ele>
        <time>2018-04-10T06:37:25Z</time>
      </trkpt>
      <trkpt lat="41.4805330" lon="2.0692760">
        <ele>178.4</ele>
        <time>2018-04-10T06:37:27Z</time>
      </trkpt>
      <trkpt lat="41.4805160" lon="2.0692370">
        <ele>178.4</ele>
        <time>2018-04-10T06:37:29Z</time>
      </trkpt>
      <trkpt lat="41.4805070" lon="2.0692050">
        <ele>178.4</ele>
        <time>2018-04-10T06:37:31Z</time>
      </trkpt>
      <trkpt lat="41.4805030" lon="2.0691680">
        <ele>178.4</ele>
        <time>2018-04-10T06:37:33Z</time>
      </trkpt>
      <trkpt lat="41.4804950" lon="2.0691180">
        <ele>178.2</ele>
        <time>2018-04-10T06:37:35Z</time>
      </trkpt>
      <trkpt lat="41.4804870" lon="2.0690760">
        <ele>178.2</ele>
        <time>2018-04-10T06:37:37Z</time>
      </trkpt>
      <trkpt lat="41.4804700" lon="2.0690260">
        <ele>178.2</ele>
        <time>2018-04-10T06:37:39Z</time>
      </trkpt>
      <trkpt lat="41.4804220" lon="2.0689350">
        <ele>178.0</ele>
        <time>2018-04-10T06:37:41Z</time>
      </trkpt>
      <trkpt lat="41.4803870" lon="2.0688840">
        <ele>178.0</ele>
        <time>2018-04-10T06:37:42Z</time>
      </trkpt>
      <trkpt lat="41.4803430" lon="2.0688400">
        <ele>178.0</ele>
        <time>2018-04-10T06:37:43Z</time>
      </trkpt>
      <trkpt lat="41.4802410" lon="2.0687780">
        <ele>177.8</ele>
        <time>2018-04-10T06:37:45Z</time>
      </trkpt>
      <trkpt lat="41.4801230" lon="2.0687510">
        <ele>177.4</ele>
        <time>2018-04-10T06:37:47Z</time>
      </trkpt>
      <trkpt lat="41.4799930" lon="2.0687920">
        <ele>176.8</ele>
        <time>2018-04-10T06:37:49Z</time>
      </trkpt>
      <trkpt lat="41.4799370" lon="2.0688430">
        <ele>176.4</ele>
        <time>2018-04-10T06:37:50Z</time>
      </trkpt>
      <trkpt lat="41.4798860" lon="2.0689050">
        <ele>176.4</ele>
        <time>2018-04-10T06:37:51Z</time>
      </trkpt>
      <trkpt lat="41.4798390" lon="2.0689690">
        <ele>176.2</ele>
        <time>2018-04-10T06:37:52Z</time>
      </trkpt>
      <trkpt lat="41.4797880" lon="2.0690290">
        <ele>175.8</ele>
        <time>2018-04-10T06:37:53Z</time>
      </trkpt>
      <trkpt lat="41.4797320" lon="2.0690740">
        <ele>175.6</ele>
        <time>2018-04-10T06:37:54Z</time>
      </trkpt>
      <trkpt lat="41.4796710" lon="2.0691010">
        <ele>175.2</ele>
        <time>2018-04-10T06:37:55Z</time>
      </trkpt>
      <trkpt lat="41.4795450" lon="2.0691170">
        <ele>174.6</ele>
        <time>2018-04-10T06:37:57Z</time>
      </trkpt>
      <trkpt lat="41.4794810" lon="2.0691140">
        <ele>174.4</ele>
        <time>2018-04-10T06:37:58Z</time>
      </trkpt>
      <trkpt lat="41.4794140" lon="2.0691080">
        <ele>174.4</ele>
        <time>2018-04-10T06:37:59Z</time>
      </trkpt>
      <trkpt lat="41.4792740" lon="2.0690980">
        <ele>174.2</ele>
        <time>2018-04-10T06:38:01Z</time>
      </trkpt>
      <trkpt lat="41.4791300" lon="2.0690880">
        <ele>174.2</ele>
        <time>2018-04-10T06:38:03Z</time>
      </trkpt>
      <trkpt lat="41.4789860" lon="2.0690800">
        <ele>174.0</ele>
        <time>2018-04-10T06:38:05Z</time>
      </trkpt>
      <trkpt lat="41.4788460" lon="2.0690650">
        <ele>174.0</ele>
        <time>2018-04-10T06:38:07Z</time>
      </trkpt>
      <trkpt lat="41.4787230" lon="2.0690540">
        <ele>173.8</ele>
        <time>2018-04-10T06:38:09Z</time>
      </trkpt>
      <trkpt lat="41.4786150" lon="2.0690320">
        <ele>173.8</ele>
        <time>2018-04-10T06:38:11Z</time>
      </trkpt>
      <trkpt lat="41.4785290" lon="2.0689830">
        <ele>173.6</ele>
        <time>2018-04-10T06:38:13Z</time>
      </trkpt>
      <trkpt lat="41.4784940" lon="2.0689380">
        <ele>173.4</ele>
        <time>2018-04-10T06:38:14Z</time>
      </trkpt>
      <trkpt lat="41.4784600" lon="2.0688730">
        <ele>173.4</ele>
        <time>2018-04-10T06:38:15Z</time>
      </trkpt>
      <trkpt lat="41.4783660" lon="2.0687230">
        <ele>173.2</ele>
        <time>2018-04-10T06:38:17Z</time>
      </trkpt>
      <trkpt lat="41.4782370" lon="2.0686280">
        <ele>173.0</ele>
        <time>2018-04-10T06:38:19Z</time>
      </trkpt>
      <trkpt lat="41.4780890" lon="2.0686440">
        <ele>172.8</ele>
        <time>2018-04-10T06:38:21Z</time>
      </trkpt>
      <trkpt lat="41.4779790" lon="2.0687520">
        <ele>172.8</ele>
        <time>2018-04-10T06:38:23Z</time>
      </trkpt>
      <trkpt lat="41.4779090" lon="2.0688980">
        <ele>172.8</ele>
        <time>2018-04-10T06:38:25Z</time>
      </trkpt>
      <trkpt lat="41.4778710" lon="2.0689640">
        <ele>172.8</ele>
        <time>2018-04-10T06:38:26Z</time>
      </trkpt>
      <trkpt lat="41.4778220" lon="2.0690130">
        <ele>172.8</ele>
        <time>2018-04-10T06:38:27Z</time>
      </trkpt>
      <trkpt lat="41.4777090" lon="2.0690700">
        <ele>172.8</ele>
        <time>2018-04-10T06:38:29Z</time>
      </trkpt>
      <trkpt lat="41.4775960" lon="2.0690860">
        <ele>172.8</ele>
        <time>2018-04-10T06:38:31Z</time>
      </trkpt>
      <trkpt lat="41.4774870" lon="2.0690950">
        <ele>173.2</ele>
        <time>2018-04-10T06:38:33Z</time>
      </trkpt>
      <trkpt lat="41.4773810" lon="2.0690960">
        <ele>173.8</ele>
        <time>2018-04-10T06:38:35Z</time>
      </trkpt>
      <trkpt lat="41.4772790" lon="2.0691040">
        <ele>174.2</ele>
        <time>2018-04-10T06:38:37Z</time>
      </trkpt>
      <trkpt lat="41.4772290" lon="2.0691080">
        <ele>174.6</ele>
        <time>2018-04-10T06:38:38Z</time>
      </trkpt>
      <trkpt lat="41.4771810" lon="2.0691110">
        <ele>175.0</ele>
        <time>2018-04-10T06:38:39Z</time>
      </trkpt>
      <trkpt lat="41.4770950" lon="2.0691250">
        <ele>175.4</ele>
        <time>2018-04-10T06:38:41Z</time>
      </trkpt>
      <trkpt lat="41.4770550" lon="2.0691370">
        <ele>175.8</ele>
        <time>2018-04-10T06:38:42Z</time>
      </trkpt>
      <trkpt lat="41.4770130" lon="2.0691450">
        <ele>176.4</ele>
        <time>2018-04-10T06:38:43Z</time>
      </trkpt>
      <trkpt lat="41.4769190" lon="2.0691510">
        <ele>177.0</ele>
        <time>2018-04-10T06:38:45Z</time>
      </trkpt>
      <trkpt lat="41.4768180" lon="2.0691550">
        <ele>177.4</ele>
        <time>2018-04-10T06:38:47Z</time>
      </trkpt>
      <trkpt lat="41.4767190" lon="2.0691510">
        <ele>177.8</ele>
        <time>2018-04-10T06:38:49Z</time>
      </trkpt>
      <trkpt lat="41.4766700" lon="2.0691480">
        <ele>178.0</ele>
        <time>2018-04-10T06:38:50Z</time>
      </trkpt>
      <trkpt lat="41.4766220" lon="2.0691430">
        <ele>178.2</ele>
        <time>2018-04-10T06:38:51Z</time>
      </trkpt>
      <trkpt lat="41.4765450" lon="2.0691310">
        <ele>178.6</ele>
        <time>2018-04-10T06:38:53Z</time>
      </trkpt>
      <trkpt lat="41.4764650" lon="2.0691140">
        <ele>178.8</ele>
        <time>2018-04-10T06:38:55Z</time>
      </trkpt>
      <trkpt lat="41.4763680" lon="2.0690820">
        <ele>178.8</ele>
        <time>2018-04-10T06:38:57Z</time>
      </trkpt>
      <trkpt lat="41.4762530" lon="2.0690410">
        <ele>179.0</ele>
        <time>2018-04-10T06:38:59Z</time>
      </trkpt>
      <trkpt lat="41.4761200" lon="2.0689880">
        <ele>179.0</ele>
        <time>2018-04-10T06:39:01Z</time>
      </trkpt>
      <trkpt lat="41.4759850" lon="2.0689140">
        <ele>179.0</ele>
        <time>2018-04-10T06:39:03Z</time>
      </trkpt>
      <trkpt lat="41.4758520" lon="2.0688310">
        <ele>178.8</ele>
        <time>2018-04-10T06:39:05Z</time>
      </trkpt>
      <trkpt lat="41.4757200" lon="2.0687430">
        <ele>178.4</ele>
        <time>2018-04-10T06:39:07Z</time>
      </trkpt>
      <trkpt lat="41.4755870" lon="2.0686700">
        <ele>178.0</ele>
        <time>2018-04-10T06:39:09Z</time>
      </trkpt>
      <trkpt lat="41.4754580" lon="2.0685990">
        <ele>177.4</ele>
        <time>2018-04-10T06:39:11Z</time>
      </trkpt>
      <trkpt lat="41.4753970" lon="2.0685620">
        <ele>176.8</ele>
        <time>2018-04-10T06:39:12Z</time>
      </trkpt>
      <trkpt lat="41.4753350" lon="2.0685260">
        <ele>176.4</ele>
        <time>2018-04-10T06:39:13Z</time>
      </trkpt>
      <trkpt lat="41.4752060" lon="2.0684590">
        <ele>175.6</ele>
        <time>2018-04-10T06:39:15Z</time>
      </trkpt>
      <trkpt lat="41.4750750" lon="2.0683900">
        <ele>175.0</ele>
        <time>2018-04-10T06:39:17Z</time>
      </trkpt>
      <trkpt lat="41.4749440" lon="2.0683170">
        <ele>174.6</ele>
        <time>2018-04-10T06:39:19Z</time>
      </trkpt>
      <trkpt lat="41.4748760" lon="2.0682790">
        <ele>174.4</ele>
        <time>2018-04-10T06:39:20Z</time>
      </trkpt>
      <trkpt lat="41.4748080" lon="2.0682430">
        <ele>174.4</ele>
        <time>2018-04-10T06:39:21Z</time>
      </trkpt>
      <trkpt lat="41.4746790" lon="2.0681750">
        <ele>174.2</ele>
        <time>2018-04-10T06:39:23Z</time>
      </trkpt>
      <trkpt lat="41.4745690" lon="2.0680560">
        <ele>174.2</ele>
        <time>2018-04-10T06:39:25Z</time>
      </trkpt>
      <trkpt lat="41.4744890" lon="2.0678930">
        <ele>174.0</ele>
        <time>2018-04-10T06:39:27Z</time>
      </trkpt>
      <trkpt lat="41.4744450" lon="2.0678150">
        <ele>173.8</ele>
        <time>2018-04-10T06:39:28Z</time>
      </trkpt>
      <trkpt lat="41.4743840" lon="2.0677570">
        <ele>174.0</ele>
        <time>2018-04-10T06:39:29Z</time>
      </trkpt>
      <trkpt lat="41.4742320" lon="2.0677270">
        <ele>173.8</ele>
        <time>2018-04-10T06:39:31Z</time>
      </trkpt>
      <trkpt lat="41.4740820" lon="2.0677710">
        <ele>173.6</ele>
        <time>2018-04-10T06:39:33Z</time>
      </trkpt>
      <trkpt lat="41.4740130" lon="2.0677850">
        <ele>173.6</ele>
        <time>2018-04-10T06:39:34Z</time>
      </trkpt>
      <trkpt lat="41.4739450" lon="2.0677880">
        <ele>173.6</ele>
        <time>2018-04-10T06:39:35Z</time>
      </trkpt>
      <trkpt lat="41.4738100" lon="2.0677730">
        <ele>173.6</ele>
        <time>2018-04-10T06:39:37Z</time>
      </trkpt>
      <trkpt lat="41.4737410" lon="2.0677700">
        <ele>173.4</ele>
        <time>2018-04-10T06:39:38Z</time>
      </trkpt>
      <trkpt lat="41.4736730" lon="2.0677710">
        <ele>173.4</ele>
        <time>2018-04-10T06:39:39Z</time>
      </trkpt>
      <trkpt lat="41.4736020" lon="2.0677800">
        <ele>173.4</ele>
        <time>2018-04-10T06:39:40Z</time>
      </trkpt>
      <trkpt lat="41.4735280" lon="2.0677970">
        <ele>173.6</ele>
        <time>2018-04-10T06:39:41Z</time>
      </trkpt>
      <trkpt lat="41.4733810" lon="2.0678500">
        <ele>173.6</ele>
        <time>2018-04-10T06:39:43Z</time>
      </trkpt>
      <trkpt lat="41.4733070" lon="2.0678850">
        <ele>173.6</ele>
        <time>2018-04-10T06:39:44Z</time>
      </trkpt>
      <trkpt lat="41.4732340" lon="2.0679220">
        <ele>173.8</ele>
        <time>2018-04-10T06:39:45Z</time>
      </trkpt>
      <trkpt lat="41.4731600" lon="2.0679590">
        <ele>173.8</ele>
        <time>2018-04-10T06:39:46Z</time>
      </trkpt>
      <trkpt lat="41.4730860" lon="2.0679960">
        <ele>174.2</ele>
        <time>2018-04-10T06:39:47Z</time>
      </trkpt>
      <trkpt lat="41.4729400" lon="2.0680790">
        <ele>174.6</ele>
        <time>2018-04-10T06:39:49Z</time>
      </trkpt>
      <trkpt lat="41.4728670" lon="2.0681240">
        <ele>174.8</ele>
        <time>2018-04-10T06:39:50Z</time>
      </trkpt>
      <trkpt lat="41.4727910" lon="2.0681670">
        <ele>175.2</ele>
        <time>2018-04-10T06:39:51Z</time>
      </trkpt>
      <trkpt lat="41.4726360" lon="2.0682580">
        <ele>175.2</ele>
        <time>2018-04-10T06:39:53Z</time>
      </trkpt>
      <trkpt lat="41.4724720" lon="2.0683510">
        <ele>175.2</ele>
        <time>2018-04-10T06:39:55Z</time>
      </trkpt>
      <trkpt lat="41.4723040" lon="2.0684490">
        <ele>175.2</ele>
        <time>2018-04-10T06:39:57Z</time>
      </trkpt>
      <trkpt lat="41.4721310" lon="2.0685490">
        <ele>175.2</ele>
        <time>2018-04-10T06:39:59Z</time>
      </trkpt>
      <trkpt lat="41.4719510" lon="2.0686510">
        <ele>175.2</ele>
        <time>2018-04-10T06:40:01Z</time>
      </trkpt>
      <trkpt lat="41.4717720" lon="2.0687560">
        <ele>174.6</ele>
        <time>2018-04-10T06:40:03Z</time>
      </trkpt>
      <trkpt lat="41.4716090" lon="2.0688450">
        <ele>174.2</ele>
        <time>2018-04-10T06:40:05Z</time>
      </trkpt>
      <trkpt lat="41.4715350" lon="2.0688860">
        <ele>173.8</ele>
        <time>2018-04-10T06:40:06Z</time>
      </trkpt>
      <trkpt lat="41.4714670" lon="2.0689250">
        <ele>173.4</ele>
        <time>2018-04-10T06:40:07Z</time>
      </trkpt>
      <trkpt lat="41.4713490" lon="2.0689930">
        <ele>172.6</ele>
        <time>2018-04-10T06:40:09Z</time>
      </trkpt>
      <trkpt lat="41.4712590" lon="2.0690460">
        <ele>171.2</ele>
        <time>2018-04-10T06:40:11Z</time>
      </trkpt>
      <trkpt lat="41.4712040" lon="2.0690760">
        <ele>170.2</ele>
        <time>2018-04-10T06:40:13Z</time>
      </trkpt>
      <trkpt lat="41.4711820" lon="2.0690830">
        <ele>169.8</ele>
        <time>2018-04-10T06:40:14Z</time>
      </trkpt>
      <trkpt lat="41.4711600" lon="2.0690910">
        <ele>169.6</ele>
        <time>2018-04-10T06:40:15Z</time>
      </trkpt>
      <trkpt lat="41.4711320" lon="2.0691110">
        <ele>169.0</ele>
        <time>2018-04-10T06:40:17Z</time>
      </trkpt>
      <trkpt lat="41.4711280" lon="2.0691240">
        <ele>168.6</ele>
        <time>2018-04-10T06:40:18Z</time>
      </trkpt>
      <trkpt lat="41.4711230" lon="2.0691370">
        <ele>168.4</ele>
        <time>2018-04-10T06:40:19Z</time>
      </trkpt>
      <trkpt lat="41.4711050" lon="2.0691520">
        <ele>167.8</ele>
        <time>2018-04-10T06:40:21Z</time>
      </trkpt>
      <trkpt lat="41.4710970" lon="2.0691560">
        <ele>167.6</ele>
        <time>2018-04-10T06:40:22Z</time>
      </trkpt>
      <trkpt lat="41.4710910" lon="2.0691590">
        <ele>167.4</ele>
        <time>2018-04-10T06:40:23Z</time>
      </trkpt>
      <trkpt lat="41.4710790" lon="2.0691570">
        <ele>167.2</ele>
        <time>2018-04-10T06:40:25Z</time>
      </trkpt>
      <trkpt lat="41.4710720" lon="2.0691560">
        <ele>167.0</ele>
        <time>2018-04-10T06:40:26Z</time>
      </trkpt>
      <trkpt lat="41.4710640" lon="2.0691550">
        <ele>167.0</ele>
        <time>2018-04-10T06:40:27Z</time>
      </trkpt>
      <trkpt lat="41.4710520" lon="2.0691590">
        <ele>166.8</ele>
        <time>2018-04-10T06:40:29Z</time>
      </trkpt>
      <trkpt lat="41.4710420" lon="2.0691660">
        <ele>166.8</ele>
        <time>2018-04-10T06:40:30Z</time>
      </trkpt>
      <trkpt lat="41.4710270" lon="2.0691800">
        <ele>166.8</ele>
        <time>2018-04-10T06:40:31Z</time>
      </trkpt>
      <trkpt lat="41.4709860" lon="2.0692090">
        <ele>166.6</ele>
        <time>2018-04-10T06:40:33Z</time>
      </trkpt>
      <trkpt lat="41.4709180" lon="2.0692280">
        <ele>166.6</ele>
        <time>2018-04-10T06:40:35Z</time>
      </trkpt>
      <trkpt lat="41.4708760" lon="2.0692240">
        <ele>166.6</ele>
        <time>2018-04-10T06:40:36Z</time>
      </trkpt>
      <trkpt lat="41.4708280" lon="2.0692100">
        <ele>166.6</ele>
        <time>2018-04-10T06:40:37Z</time>
      </trkpt>
      <trkpt lat="41.4707260" lon="2.0691680">
        <ele>166.2</ele>
        <time>2018-04-10T06:40:39Z</time>
      </trkpt>
      <trkpt lat="41.4706170" lon="2.0692000">
        <ele>166.0</ele>
        <time>2018-04-10T06:40:41Z</time>
      </trkpt>
      <trkpt lat="41.4705260" lon="2.0693210">
        <ele>165.8</ele>
        <time>2018-04-10T06:40:43Z</time>
      </trkpt>
      <trkpt lat="41.4704430" lon="2.0694810">
        <ele>165.8</ele>
        <time>2018-04-10T06:40:45Z</time>
      </trkpt>
      <trkpt lat="41.4703810" lon="2.0695380">
        <ele>165.8</ele>
        <time>2018-04-10T06:40:46Z</time>
      </trkpt>
      <trkpt lat="41.4703110" lon="2.0695840">
        <ele>165.6</ele>
        <time>2018-04-10T06:40:47Z</time>
      </trkpt>
      <trkpt lat="41.4702360" lon="2.0696250">
        <ele>165.6</ele>
        <time>2018-04-10T06:40:48Z</time>
      </trkpt>
      <trkpt lat="41.4701600" lon="2.0696640">
        <ele>165.4</ele>
        <time>2018-04-10T06:40:49Z</time>
      </trkpt>
      <trkpt lat="41.4699970" lon="2.0697360">
        <ele>165.2</ele>
        <time>2018-04-10T06:40:51Z</time>
      </trkpt>
      <trkpt lat="41.4699130" lon="2.0697730">
        <ele>164.8</ele>
        <time>2018-04-10T06:40:52Z</time>
      </trkpt>
      <trkpt lat="41.4698260" lon="2.0698070">
        <ele>164.2</ele>
        <time>2018-04-10T06:40:53Z</time>
      </trkpt>
      <trkpt lat="41.4697380" lon="2.0698380">
        <ele>163.8</ele>
        <time>2018-04-10T06:40:54Z</time>
      </trkpt>
      <trkpt lat="41.4696480" lon="2.0698650">
        <ele>163.2</ele>
        <time>2018-04-10T06:40:55Z</time>
      </trkpt>
      <trkpt lat="41.4695550" lon="2.0698890">
        <ele>162.6</ele>
        <time>2018-04-10T06:40:56Z</time>
      </trkpt>
      <trkpt lat="41.4694620" lon="2.0699090">
        <ele>162.4</ele>
        <time>2018-04-10T06:40:57Z</time>
      </trkpt>
      <trkpt lat="41.4692730" lon="2.0699360">
        <ele>161.6</ele>
        <time>2018-04-10T06:40:59Z</time>
      </trkpt>
      <trkpt lat="41.4690850" lon="2.0699540">
        <ele>161.0</ele>
        <time>2018-04-10T06:41:01Z</time>
      </trkpt>
      <trkpt lat="41.4688960" lon="2.0699700">
        <ele>160.4</ele>
        <time>2018-04-10T06:41:03Z</time>
      </trkpt>
      <trkpt lat="41.4687080" lon="2.0699830">
        <ele>159.8</ele>
        <time>2018-04-10T06:41:05Z</time>
      </trkpt>
      <trkpt lat="41.4685220" lon="2.0699990">
        <ele>159.4</ele>
        <time>2018-04-10T06:41:07Z</time>
      </trkpt>
      <trkpt lat="41.4684300" lon="2.0700100">
        <ele>158.8</ele>
        <time>2018-04-10T06:41:08Z</time>
      </trkpt>
      <trkpt lat="41.4683400" lon="2.0700190">
        <ele>158.6</ele>
        <time>2018-04-10T06:41:09Z</time>
      </trkpt>
      <trkpt lat="41.4681690" lon="2.0700310">
        <ele>158.2</ele>
        <time>2018-04-10T06:41:11Z</time>
      </trkpt>
      <trkpt lat="41.4679980" lon="2.0700420">
        <ele>157.8</ele>
        <time>2018-04-10T06:41:13Z</time>
      </trkpt>
      <trkpt lat="41.4678280" lon="2.0700540">
        <ele>157.4</ele>
        <time>2018-04-10T06:41:15Z</time>
      </trkpt>
      <trkpt lat="41.4676600" lon="2.0700660">
        <ele>157.2</ele>
        <time>2018-04-10T06:41:17Z</time>
      </trkpt>
      <trkpt lat="41.4674960" lon="2.0700770">
        <ele>157.2</ele>
        <time>2018-04-10T06:41:19Z</time>
      </trkpt>
      <trkpt lat="41.4673340" lon="2.0700850">
        <ele>157.2</ele>
        <time>2018-04-10T06:41:21Z</time>
      </trkpt>
      <trkpt lat="41.4671750" lon="2.0700970">
        <ele>157.2</ele>
        <time>2018-04-10T06:41:23Z</time>
      </trkpt>
      <trkpt lat="41.4670230" lon="2.0701070">
        <ele>157.2</ele>
        <time>2018-04-10T06:41:25Z</time>
      </trkpt>
      <trkpt lat="41.4668800" lon="2.0701050">
        <ele>157.2</ele>
        <time>2018-04-10T06:41:27Z</time>
      </trkpt>
      <trkpt lat="41.4667610" lon="2.0700260">
        <ele>157.2</ele>
        <time>2018-04-10T06:41:29Z</time>
      </trkpt>
      <trkpt lat="41.4666730" lon="2.0698930">
        <ele>157.2</ele>
        <time>2018-04-10T06:41:31Z</time>
      </trkpt>
      <trkpt lat="41.4665850" lon="2.0697690">
        <ele>157.4</ele>
        <time>2018-04-10T06:41:33Z</time>
      </trkpt>
      <trkpt lat="41.4664810" lon="2.0696940">
        <ele>157.8</ele>
        <time>2018-04-10T06:41:35Z</time>
      </trkpt>
      <trkpt lat="41.4663730" lon="2.0696820">
        <ele>158.6</ele>
        <time>2018-04-10T06:41:37Z</time>
      </trkpt>
      <trkpt lat="41.4662730" lon="2.0697230">
        <ele>158.8</ele>
        <time>2018-04-10T06:41:39Z</time>
      </trkpt>
      <trkpt lat="41.4662240" lon="2.0697630">
        <ele>159.0</ele>
        <time>2018-04-10T06:41:40Z</time>
      </trkpt>
      <trkpt lat="41.4661830" lon="2.0698080">
        <ele>159.2</ele>
        <time>2018-04-10T06:41:41Z</time>
      </trkpt>
      <trkpt lat="41.4661200" lon="2.0699200">
        <ele>159.8</ele>
        <time>2018-04-10T06:41:43Z</time>
      </trkpt>
      <trkpt lat="41.4660920" lon="2.0699760">
        <ele>160.2</ele>
        <time>2018-04-10T06:41:44Z</time>
      </trkpt>
      <trkpt lat="41.4660580" lon="2.0700280">
        <ele>160.6</ele>
        <time>2018-04-10T06:41:45Z</time>
      </trkpt>
      <trkpt lat="41.4659720" lon="2.0701040">
        <ele>161.2</ele>
        <time>2018-04-10T06:41:47Z</time>
      </trkpt>
      <trkpt lat="41.4659230" lon="2.0701280">
        <ele>161.6</ele>
        <time>2018-04-10T06:41:48Z</time>
      </trkpt>
      <trkpt lat="41.4658730" lon="2.0701440">
        <ele>161.8</ele>
        <time>2018-04-10T06:41:49Z</time>
      </trkpt>
      <trkpt lat="41.4657710" lon="2.0701610">
        <ele>162.0</ele>
        <time>2018-04-10T06:41:51Z</time>
      </trkpt>
      <trkpt lat="41.4657200" lon="2.0701630">
        <ele>162.2</ele>
        <time>2018-04-10T06:41:52Z</time>
      </trkpt>
      <trkpt lat="41.4656710" lon="2.0701610">
        <ele>162.4</ele>
        <time>2018-04-10T06:41:53Z</time>
      </trkpt>
      <trkpt lat="41.4656220" lon="2.0701600">
        <ele>162.6</ele>
        <time>2018-04-10T06:41:54Z</time>
      </trkpt>
      <trkpt lat="41.4655740" lon="2.0701610">
        <ele>163.0</ele>
        <time>2018-04-10T06:41:55Z</time>
      </trkpt>
      <trkpt lat="41.4654800" lon="2.0701680">
        <ele>163.6</ele>
        <time>2018-04-10T06:41:57Z</time>
      </trkpt>
      <trkpt lat="41.4654290" lon="2.0701730">
        <ele>163.8</ele>
        <time>2018-04-10T06:41:58Z</time>
      </trkpt>
      <trkpt lat="41.4653810" lon="2.0701750">
        <ele>164.2</ele>
        <time>2018-04-10T06:41:59Z</time>
      </trkpt>
      <trkpt lat="41.4652840" lon="2.0701840">
        <ele>164.6</ele>
        <time>2018-04-10T06:42:01Z</time>
      </trkpt>
      <trkpt lat="41.4652370" lon="2.0701890">
        <ele>165.0</ele>
        <time>2018-04-10T06:42:02Z</time>
      </trkpt>
      <trkpt lat="41.4651890" lon="2.0701940">
        <ele>165.2</ele>
        <time>2018-04-10T06:42:03Z</time>
      </trkpt>
      <trkpt lat="41.4650950" lon="2.0702020">
        <ele>166.2</ele>
        <time>2018-04-10T06:42:05Z</time>
      </trkpt>
      <trkpt lat="41.4650040" lon="2.0702090">
        <ele>166.8</ele>
        <time>2018-04-10T06:42:07Z</time>
      </trkpt>
      <trkpt lat="41.4649140" lon="2.0702050">
        <ele>167.4</ele>
        <time>2018-04-10T06:42:09Z</time>
      </trkpt>
      <trkpt lat="41.4648320" lon="2.0701690">
        <ele>168.0</ele>
        <time>2018-04-10T06:42:11Z</time>
      </trkpt>
      <trkpt lat="41.4647480" lon="2.0701380">
        <ele>168.6</ele>
        <time>2018-04-10T06:42:13Z</time>
      </trkpt>
      <trkpt lat="41.4646650" lon="2.0701250">
        <ele>169.2</ele>
        <time>2018-04-10T06:42:15Z</time>
      </trkpt>
      <trkpt lat="41.4645880" lon="2.0701290">
        <ele>169.6</ele>
        <time>2018-04-10T06:42:17Z</time>
      </trkpt>
      <trkpt lat="41.4645130" lon="2.0701300">
        <ele>170.2</ele>
        <time>2018-04-10T06:42:19Z</time>
      </trkpt>
      <trkpt lat="41.4644390" lon="2.0701250">
        <ele>170.8</ele>
        <time>2018-04-10T06:42:21Z</time>
      </trkpt>
      <trkpt lat="41.4643680" lon="2.0701170">
        <ele>171.6</ele>
        <time>2018-04-10T06:42:23Z</time>
      </trkpt>
      <trkpt lat="41.4643340" lon="2.0701090">
        <ele>171.8</ele>
        <time>2018-04-10T06:42:24Z</time>
      </trkpt>
      <trkpt lat="41.4642970" lon="2.0700970">
        <ele>172.0</ele>
        <time>2018-04-10T06:42:25Z</time>
      </trkpt>
      <trkpt lat="41.4642260" lon="2.0700740">
        <ele>172.4</ele>
        <time>2018-04-10T06:42:27Z</time>
      </trkpt>
      <trkpt lat="41.4641570" lon="2.0700440">
        <ele>172.8</ele>
        <time>2018-04-10T06:42:29Z</time>
      </trkpt>
      <trkpt lat="41.4640880" lon="2.0699990">
        <ele>173.2</ele>
        <time>2018-04-10T06:42:31Z</time>
      </trkpt>
      <trkpt lat="41.4640200" lon="2.0699520">
        <ele>173.8</ele>
        <time>2018-04-10T06:42:33Z</time>
      </trkpt>
      <trkpt lat="41.4639870" lon="2.0699250">
        <ele>174.4</ele>
        <time>2018-04-10T06:42:34Z</time>
      </trkpt>
      <trkpt lat="41.4639540" lon="2.0698980">
        <ele>174.8</ele>
        <time>2018-04-10T06:42:35Z</time>
      </trkpt>
      <trkpt lat="41.4638930" lon="2.0698420">
        <ele>175.2</ele>
        <time>2018-04-10T06:42:37Z</time>
      </trkpt>
      <trkpt lat="41.4638320" lon="2.0697720">
        <ele>175.6</ele>
        <time>2018-04-10T06:42:39Z</time>
      </trkpt>
      <trkpt lat="41.4637730" lon="2.0696950">
        <ele>176.0</ele>
        <time>2018-04-10T06:42:41Z</time>
      </trkpt>
      <trkpt lat="41.4637170" lon="2.0696120">
        <ele>176.6</ele>
        <time>2018-04-10T06:42:43Z</time>
      </trkpt>
      <trkpt lat="41.4636900" lon="2.0695680">
        <ele>177.0</ele>
        <time>2018-04-10T06:42:44Z</time>
      </trkpt>
      <trkpt lat="41.4636620" lon="2.0695220">
        <ele>177.2</ele>
        <time>2018-04-10T06:42:45Z</time>
      </trkpt>
      <trkpt lat="41.4636080" lon="2.0694340">
        <ele>177.8</ele>
        <time>2018-04-10T06:42:47Z</time>
      </trkpt>
      <trkpt lat="41.4635820" lon="2.0693860">
        <ele>178.2</ele>
        <time>2018-04-10T06:42:48Z</time>
      </trkpt>
      <trkpt lat="41.4635620" lon="2.0693350">
        <ele>178.4</ele>
        <time>2018-04-10T06:42:49Z</time>
      </trkpt>
      <trkpt lat="41.4635240" lon="2.0692300">
        <ele>179.0</ele>
        <time>2018-04-10T06:42:51Z</time>
      </trkpt>
      <trkpt lat="41.4635070" lon="2.0691760">
        <ele>179.2</ele>
        <time>2018-04-10T06:42:52Z</time>
      </trkpt>
      <trkpt lat="41.4634890" lon="2.0691210">
        <ele>179.4</ele>
        <time>2018-04-10T06:42:53Z</time>
      </trkpt>
      <trkpt lat="41.4634530" lon="2.0690120">
        <ele>179.8</ele>
        <time>2018-04-10T06:42:55Z</time>
      </trkpt>
      <trkpt lat="41.4634180" lon="2.0689010">
        <ele>180.2</ele>
        <time>2018-04-10T06:42:57Z</time>
      </trkpt>
      <trkpt lat="41.4634000" lon="2.0688440">
        <ele>180.4</ele>
        <time>2018-04-10T06:42:58Z</time>
      </trkpt>
      <trkpt lat="41.4633850" lon="2.0687840">
        <ele>180.6</ele>
        <time>2018-04-10T06:42:59Z</time>
      </trkpt>
      <trkpt lat="41.4633560" lon="2.0686650">
        <ele>181.0</ele>
        <time>2018-04-10T06:43:01Z</time>
      </trkpt>
      <trkpt lat="41.4633260" lon="2.0685440">
        <ele>181.2</ele>
        <time>2018-04-10T06:43:03Z</time>
      </trkpt>
      <trkpt lat="41.4633130" lon="2.0684830">
        <ele>181.6</ele>
        <time>2018-04-10T06:43:04Z</time>
      </trkpt>
      <trkpt lat="41.4633010" lon="2.0684210">
        <ele>181.8</ele>
        <time>2018-04-10T06:43:05Z</time>
      </trkpt>
      <trkpt lat="41.4632770" lon="2.0682920">
        <ele>182.0</ele>
        <time>2018-04-10T06:43:07Z</time>
      </trkpt>
      <trkpt lat="41.4632550" lon="2.0681630">
        <ele>182.4</ele>
        <time>2018-04-10T06:43:09Z</time>
      </trkpt>
      <trkpt lat="41.4632320" lon="2.0680330">
        <ele>182.6</ele>
        <time>2018-04-10T06:43:11Z</time>
      </trkpt>
      <trkpt lat="41.4632030" lon="2.0679030">
        <ele>183.2</ele>
        <time>2018-04-10T06:43:13Z</time>
      </trkpt>
      <trkpt lat="41.4631650" lon="2.0677780">
        <ele>183.6</ele>
        <time>2018-04-10T06:43:15Z</time>
      </trkpt>
      <trkpt lat="41.4631230" lon="2.0676530">
        <ele>184.0</ele>
        <time>2018-04-10T06:43:17Z</time>
      </trkpt>
      <trkpt lat="41.4630710" lon="2.0675300">
        <ele>184.0</ele>
        <time>2018-04-10T06:43:19Z</time>
      </trkpt>
      <trkpt lat="41.4630130" lon="2.0674100">
        <ele>184.2</ele>
        <time>2018-04-10T06:43:21Z</time>
      </trkpt>
      <trkpt lat="41.4629520" lon="2.0672960">
        <ele>184.6</ele>
        <time>2018-04-10T06:43:23Z</time>
      </trkpt>
      <trkpt lat="41.4628880" lon="2.0671790">
        <ele>185.0</ele>
        <time>2018-04-10T06:43:25Z</time>
      </trkpt>
      <trkpt lat="41.4628550" lon="2.0671210">
        <ele>185.2</ele>
        <time>2018-04-10T06:43:26Z</time>
      </trkpt>
      <trkpt lat="41.4628210" lon="2.0670630">
        <ele>185.2</ele>
        <time>2018-04-10T06:43:27Z</time>
      </trkpt>
      <trkpt lat="41.4627510" lon="2.0669500">
        <ele>185.4</ele>
        <time>2018-04-10T06:43:29Z</time>
      </trkpt>
      <trkpt lat="41.4626760" lon="2.0668440">
        <ele>185.6</ele>
        <time>2018-04-10T06:43:31Z</time>
      </trkpt>
      <trkpt lat="41.4625880" lon="2.0667500">
        <ele>186.0</ele>
        <time>2018-04-10T06:43:33Z</time>
      </trkpt>
      <trkpt lat="41.4625420" lon="2.0667080">
        <ele>186.2</ele>
        <time>2018-04-10T06:43:34Z</time>
      </trkpt>
      <trkpt lat="41.4624950" lon="2.0666700">
        <ele>186.4</ele>
        <time>2018-04-10T06:43:35Z</time>
      </trkpt>
      <trkpt lat="41.4623940" lon="2.0666030">
        <ele>186.6</ele>
        <time>2018-04-10T06:43:37Z</time>
      </trkpt>
      <trkpt lat="41.4622860" lon="2.0665400">
        <ele>187.0</ele>
        <time>2018-04-10T06:43:39Z</time>
      </trkpt>
      <trkpt lat="41.4621760" lon="2.0664800">
        <ele>187.2</ele>
        <time>2018-04-10T06:43:41Z</time>
      </trkpt>
      <trkpt lat="41.4621200" lon="2.0664530">
        <ele>187.4</ele>
        <time>2018-04-10T06:43:42Z</time>
      </trkpt>
      <trkpt lat="41.4620630" lon="2.0664290">
        <ele>187.6</ele>
        <time>2018-04-10T06:43:43Z</time>
      </trkpt>
      <trkpt lat="41.4619460" lon="2.0663880">
        <ele>187.6</ele>
        <time>2018-04-10T06:43:45Z</time>
      </trkpt>
      <trkpt lat="41.4618290" lon="2.0663610">
        <ele>187.6</ele>
        <time>2018-04-10T06:43:47Z</time>
      </trkpt>
      <trkpt lat="41.4617070" lon="2.0663400">
        <ele>187.6</ele>
        <time>2018-04-10T06:43:49Z</time>
      </trkpt>
      <trkpt lat="41.4615830" lon="2.0663160">
        <ele>187.8</ele>
        <time>2018-04-10T06:43:51Z</time>
      </trkpt>
      <trkpt lat="41.4614600" lon="2.0662940">
        <ele>187.8</ele>
        <time>2018-04-10T06:43:53Z</time>
      </trkpt>
      <trkpt lat="41.4613340" lon="2.0662670">
        <ele>187.8</ele>
        <time>2018-04-10T06:43:55Z</time>
      </trkpt>
      <trkpt lat="41.4612080" lon="2.0662430">
        <ele>188.0</ele>
        <time>2018-04-10T06:43:57Z</time>
      </trkpt>
      <trkpt lat="41.4610820" lon="2.0662170">
        <ele>188.0</ele>
        <time>2018-04-10T06:43:59Z</time>
      </trkpt>
      <trkpt lat="41.4609560" lon="2.0661920">
        <ele>188.2</ele>
        <time>2018-04-10T06:44:01Z</time>
      </trkpt>
      <trkpt lat="41.4608910" lon="2.0661810">
        <ele>188.4</ele>
        <time>2018-04-10T06:44:02Z</time>
      </trkpt>
      <trkpt lat="41.4608270" lon="2.0661690">
        <ele>188.6</ele>
        <time>2018-04-10T06:44:03Z</time>
      </trkpt>
      <trkpt lat="41.4606990" lon="2.0661440">
        <ele>188.6</ele>
        <time>2018-04-10T06:44:05Z</time>
      </trkpt>
      <trkpt lat="41.4605710" lon="2.0661220">
        <ele>188.8</ele>
        <time>2018-04-10T06:44:07Z</time>
      </trkpt>
      <trkpt lat="41.4604450" lon="2.0661060">
        <ele>189.0</ele>
        <time>2018-04-10T06:44:09Z</time>
      </trkpt>
      <trkpt lat="41.4603250" lon="2.0660810">
        <ele>189.4</ele>
        <time>2018-04-10T06:44:11Z</time>
      </trkpt>
      <trkpt lat="41.4602690" lon="2.0660700">
        <ele>189.4</ele>
        <time>2018-04-10T06:44:12Z</time>
      </trkpt>
      <trkpt lat="41.4602120" lon="2.0660600">
        <ele>189.6</ele>
        <time>2018-04-10T06:44:13Z</time>
      </trkpt>
      <trkpt lat="41.4601070" lon="2.0660370">
        <ele>190.0</ele>
        <time>2018-04-10T06:44:15Z</time>
      </trkpt>
      <trkpt lat="41.4600080" lon="2.0660210">
        <ele>190.4</ele>
        <time>2018-04-10T06:44:17Z</time>
      </trkpt>
      <trkpt lat="41.4599600" lon="2.0660130">
        <ele>190.8</ele>
        <time>2018-04-10T06:44:18Z</time>
      </trkpt>
      <trkpt lat="41.4599140" lon="2.0660030">
        <ele>191.0</ele>
        <time>2018-04-10T06:44:19Z</time>
      </trkpt>
      <trkpt lat="41.4598230" lon="2.0659850">
        <ele>191.4</ele>
        <time>2018-04-10T06:44:21Z</time>
      </trkpt>
      <trkpt lat="41.4597380" lon="2.0659690">
        <ele>191.8</ele>
        <time>2018-04-10T06:44:23Z</time>
      </trkpt>
      <trkpt lat="41.4596610" lon="2.0659560">
        <ele>192.4</ele>
        <time>2018-04-10T06:44:25Z</time>
      </trkpt>
      <trkpt lat="41.4595680" lon="2.0659380">
        <ele>193.0</ele>
        <time>2018-04-10T06:44:27Z</time>
      </trkpt>
      <trkpt lat="41.4594680" lon="2.0659180">
        <ele>193.8</ele>
        <time>2018-04-10T06:44:29Z</time>
      </trkpt>
      <trkpt lat="41.4594180" lon="2.0659080">
        <ele>194.2</ele>
        <time>2018-04-10T06:44:30Z</time>
      </trkpt>
      <trkpt lat="41.4593660" lon="2.0658970">
        <ele>195.0</ele>
        <time>2018-04-10T06:44:31Z</time>
      </trkpt>
      <trkpt lat="41.4593130" lon="2.0658840">
        <ele>195.2</ele>
        <time>2018-04-10T06:44:32Z</time>
      </trkpt>
      <trkpt lat="41.4592590" lon="2.0658730">
        <ele>195.6</ele>
        <time>2018-04-10T06:44:33Z</time>
      </trkpt>
      <trkpt lat="41.4591480" lon="2.0658470">
        <ele>195.8</ele>
        <time>2018-04-10T06:44:35Z</time>
      </trkpt>
      <trkpt lat="41.4590350" lon="2.0658240">
        <ele>196.0</ele>
        <time>2018-04-10T06:44:37Z</time>
      </trkpt>
      <trkpt lat="41.4589200" lon="2.0657980">
        <ele>196.2</ele>
        <time>2018-04-10T06:44:39Z</time>
      </trkpt>
      <trkpt lat="41.4588620" lon="2.0657840">
        <ele>196.4</ele>
        <time>2018-04-10T06:44:40Z</time>
      </trkpt>
      <trkpt lat="41.4588040" lon="2.0657720">
        <ele>196.6</ele>
        <time>2018-04-10T06:44:41Z</time>
      </trkpt>
      <trkpt lat="41.4586840" lon="2.0657460">
        <ele>196.6</ele>
        <time>2018-04-10T06:44:43Z</time>
      </trkpt>
      <trkpt lat="41.4585610" lon="2.0657180">
        <ele>196.6</ele>
        <time>2018-04-10T06:44:45Z</time>
      </trkpt>
      <trkpt lat="41.4584350" lon="2.0656950">
        <ele>196.6</ele>
        <time>2018-04-10T06:44:47Z</time>
      </trkpt>
      <trkpt lat="41.4583090" lon="2.0656720">
        <ele>196.6</ele>
        <time>2018-04-10T06:44:49Z</time>
      </trkpt>
      <trkpt lat="41.4581870" lon="2.0656340">
        <ele>196.4</ele>
        <time>2018-04-10T06:44:51Z</time>
      </trkpt>
      <trkpt lat="41.4580880" lon="2.0655440">
        <ele>196.2</ele>
        <time>2018-04-10T06:44:53Z</time>
      </trkpt>
      <trkpt lat="41.4580320" lon="2.0654960">
        <ele>196.2</ele>
        <time>2018-04-10T06:44:54Z</time>
      </trkpt>
      <trkpt lat="41.4579730" lon="2.0654680">
        <ele>196.0</ele>
        <time>2018-04-10T06:44:55Z</time>
      </trkpt>
      <trkpt lat="41.4578480" lon="2.0654510">
        <ele>195.8</ele>
        <time>2018-04-10T06:44:57Z</time>
      </trkpt>
      <trkpt lat="41.4577910" lon="2.0654370">
        <ele>195.6</ele>
        <time>2018-04-10T06:44:58Z</time>
      </trkpt>
      <trkpt lat="41.4577410" lon="2.0654090">
        <ele>195.4</ele>
        <time>2018-04-10T06:44:59Z</time>
      </trkpt>
      <trkpt lat="41.4576580" lon="2.0653430">
        <ele>195.2</ele>
        <time>2018-04-10T06:45:01Z</time>
      </trkpt>
      <trkpt lat="41.4575760" lon="2.0652790">
        <ele>195.2</ele>
        <time>2018-04-10T06:45:03Z</time>
      </trkpt>
      <trkpt lat="41.4575020" lon="2.0652220">
        <ele>195.2</ele>
        <time>2018-04-10T06:45:05Z</time>
      </trkpt>
      <trkpt lat="41.4574290" lon="2.0651770">
        <ele>195.2</ele>
        <time>2018-04-10T06:45:07Z</time>
      </trkpt>
      <trkpt lat="41.4573590" lon="2.0651270">
        <ele>195.6</ele>
        <time>2018-04-10T06:45:09Z</time>
      </trkpt>
      <trkpt lat="41.4572920" lon="2.0650710">
        <ele>196.4</ele>
        <time>2018-04-10T06:45:11Z</time>
      </trkpt>
      <trkpt lat="41.4572230" lon="2.0650170">
        <ele>197.0</ele>
        <time>2018-04-10T06:45:13Z</time>
      </trkpt>
      <trkpt lat="41.4571860" lon="2.0649870">
        <ele>197.6</ele>
        <time>2018-04-10T06:45:14Z</time>
      </trkpt>
      <trkpt lat="41.4571500" lon="2.0649570">
        <ele>198.0</ele>
        <time>2018-04-10T06:45:15Z</time>
      </trkpt>
      <trkpt lat="41.4570780" lon="2.0648970">
        <ele>199.0</ele>
        <time>2018-04-10T06:45:17Z</time>
      </trkpt>
      <trkpt lat="41.4570050" lon="2.0648360">
        <ele>199.8</ele>
        <time>2018-04-10T06:45:19Z</time>
      </trkpt>
      <trkpt lat="41.4569660" lon="2.0648040">
        <ele>200.0</ele>
        <time>2018-04-10T06:45:20Z</time>
      </trkpt>
      <trkpt lat="41.4569290" lon="2.0647740">
        <ele>200.4</ele>
        <time>2018-04-10T06:45:21Z</time>
      </trkpt>
      <trkpt lat="41.4568560" lon="2.0647110">
        <ele>201.4</ele>
        <time>2018-04-10T06:45:23Z</time>
      </trkpt>
      <trkpt lat="41.4567850" lon="2.0646470">
        <ele>202.0</ele>
        <time>2018-04-10T06:45:25Z</time>
      </trkpt>
      <trkpt lat="41.4567520" lon="2.0646100">
        <ele>202.2</ele>
        <time>2018-04-10T06:45:26Z</time>
      </trkpt>
      <trkpt lat="41.4567190" lon="2.0645750">
        <ele>202.6</ele>
        <time>2018-04-10T06:45:27Z</time>
      </trkpt>
      <trkpt lat="41.4566440" lon="2.0645080">
        <ele>203.4</ele>
        <time>2018-04-10T06:45:29Z</time>
      </trkpt>
      <trkpt lat="41.4566050" lon="2.0644780">
        <ele>203.8</ele>
        <time>2018-04-10T06:45:30Z</time>
      </trkpt>
      <trkpt lat="41.4565670" lon="2.0644470">
        <ele>204.0</ele>
        <time>2018-04-10T06:45:31Z</time>
      </trkpt>
      <trkpt lat="41.4564900" lon="2.0643900">
        <ele>204.6</ele>
        <time>2018-04-10T06:45:33Z</time>
      </trkpt>
      <trkpt lat="41.4564500" lon="2.0643630">
        <ele>204.8</ele>
        <time>2018-04-10T06:45:34Z</time>
      </trkpt>
      <trkpt lat="41.4564110" lon="2.0643400">
        <ele>205.0</ele>
        <time>2018-04-10T06:45:35Z</time>
      </trkpt>
      <trkpt lat="41.4563280" lon="2.0642940">
        <ele>205.6</ele>
        <time>2018-04-10T06:45:37Z</time>
      </trkpt>
      <trkpt lat="41.4562860" lon="2.0642720">
        <ele>205.8</ele>
        <time>2018-04-10T06:45:38Z</time>
      </trkpt>
      <trkpt lat="41.4562440" lon="2.0642520">
        <ele>206.0</ele>
        <time>2018-04-10T06:45:39Z</time>
      </trkpt>
      <trkpt lat="41.4561590" lon="2.0642190">
        <ele>206.8</ele>
        <time>2018-04-10T06:45:41Z</time>
      </trkpt>
      <trkpt lat="41.4561140" lon="2.0642010">
        <ele>207.0</ele>
        <time>2018-04-10T06:45:42Z</time>
      </trkpt>
      <trkpt lat="41.4560680" lon="2.0641880">
        <ele>207.2</ele>
        <time>2018-04-10T06:45:43Z</time>
      </trkpt>
      <trkpt lat="41.4559750" lon="2.0641660">
        <ele>207.8</ele>
        <time>2018-04-10T06:45:45Z</time>
      </trkpt>
      <trkpt lat="41.4559290" lon="2.0641540">
        <ele>208.0</ele>
        <time>2018-04-10T06:45:46Z</time>
      </trkpt>
      <trkpt lat="41.4558810" lon="2.0641440">
        <ele>208.2</ele>
        <time>2018-04-10T06:45:47Z</time>
      </trkpt>
      <trkpt lat="41.4558310" lon="2.0641350">
        <ele>208.4</ele>
        <time>2018-04-10T06:45:48Z</time>
      </trkpt>
      <trkpt lat="41.4557800" lon="2.0641300">
        <ele>208.6</ele>
        <time>2018-04-10T06:45:49Z</time>
      </trkpt>
      <trkpt lat="41.4556830" lon="2.0641290">
        <ele>209.2</ele>
        <time>2018-04-10T06:45:51Z</time>
      </trkpt>
      <trkpt lat="41.4555860" lon="2.0641390">
        <ele>209.8</ele>
        <time>2018-04-10T06:45:53Z</time>
      </trkpt>
      <trkpt lat="41.4554890" lon="2.0641660">
        <ele>210.4</ele>
        <time>2018-04-10T06:45:55Z</time>
      </trkpt>
      <trkpt lat="41.4553990" lon="2.0642100">
        <ele>210.8</ele>
        <time>2018-04-10T06:45:57Z</time>
      </trkpt>
      <trkpt lat="41.4553560" lon="2.0642350">
        <ele>211.4</ele>
        <time>2018-04-10T06:45:58Z</time>
      </trkpt>
      <trkpt lat="41.4553130" lon="2.0642600">
        <ele>211.6</ele>
        <time>2018-04-10T06:45:59Z</time>
      </trkpt>
      <trkpt lat="41.4552260" lon="2.0643160">
        <ele>212.2</ele>
        <time>2018-04-10T06:46:01Z</time>
      </trkpt>
      <trkpt lat="41.4551830" lon="2.0643430">
        <ele>212.6</ele>
        <time>2018-04-10T06:46:02Z</time>
      </trkpt>
      <trkpt lat="41.4551400" lon="2.0643720">
        <ele>213.0</ele>
        <time>2018-04-10T06:46:03Z</time>
      </trkpt>
      <trkpt lat="41.4550560" lon="2.0644370">
        <ele>213.6</ele>
        <time>2018-04-10T06:46:05Z</time>
      </trkpt>
      <trkpt lat="41.4549720" lon="2.0644980">
        <ele>214.2</ele>
        <time>2018-04-10T06:46:07Z</time>
      </trkpt>
      <trkpt lat="41.4548940" lon="2.0645570">
        <ele>214.8</ele>
        <time>2018-04-10T06:46:09Z</time>
      </trkpt>
      <trkpt lat="41.4548210" lon="2.0646150">
        <ele>215.2</ele>
        <time>2018-04-10T06:46:11Z</time>
      </trkpt>
      <trkpt lat="41.4547510" lon="2.0646710">
        <ele>215.8</ele>
        <time>2018-04-10T06:46:13Z</time>
      </trkpt>
      <trkpt lat="41.4546830" lon="2.0647300">
        <ele>216.4</ele>
        <time>2018-04-10T06:46:15Z</time>
      </trkpt>
      <trkpt lat="41.4546180" lon="2.0647770">
        <ele>217.0</ele>
        <time>2018-04-10T06:46:17Z</time>
      </trkpt>
      <trkpt lat="41.4545530" lon="2.0648350">
        <ele>217.8</ele>
        <time>2018-04-10T06:46:19Z</time>
      </trkpt>
      <trkpt lat="41.4545190" lon="2.0648610">
        <ele>218.0</ele>
        <time>2018-04-10T06:46:20Z</time>
      </trkpt>
      <trkpt lat="41.4544860" lon="2.0648890">
        <ele>218.4</ele>
        <time>2018-04-10T06:46:21Z</time>
      </trkpt>
      <trkpt lat="41.4544190" lon="2.0649440">
        <ele>219.0</ele>
        <time>2018-04-10T06:46:23Z</time>
      </trkpt>
      <trkpt lat="41.4543860" lon="2.0649690">
        <ele>219.2</ele>
        <time>2018-04-10T06:46:24Z</time>
      </trkpt>
      <trkpt lat="41.4543540" lon="2.0650000">
        <ele>219.6</ele>
        <time>2018-04-10T06:46:25Z</time>
      </trkpt>
      <trkpt lat="41.4542920" lon="2.0650600">
        <ele>220.6</ele>
        <time>2018-04-10T06:46:27Z</time>
      </trkpt>
      <trkpt lat="41.4542280" lon="2.0651140">
        <ele>221.2</ele>
        <time>2018-04-10T06:46:29Z</time>
      </trkpt>
      <trkpt lat="41.4541690" lon="2.0651830">
        <ele>221.8</ele>
        <time>2018-04-10T06:46:31Z</time>
      </trkpt>
      <trkpt lat="41.4541070" lon="2.0652490">
        <ele>222.4</ele>
        <time>2018-04-10T06:46:33Z</time>
      </trkpt>
      <trkpt lat="41.4540760" lon="2.0652890">
        <ele>222.8</ele>
        <time>2018-04-10T06:46:34Z</time>
      </trkpt>
      <trkpt lat="41.4540420" lon="2.0653270">
        <ele>223.0</ele>
        <time>2018-04-10T06:46:35Z</time>
      </trkpt>
      <trkpt lat="41.4539810" lon="2.0653980">
        <ele>223.8</ele>
        <time>2018-04-10T06:46:37Z</time>
      </trkpt>
      <trkpt lat="41.4539520" lon="2.0654400">
        <ele>224.2</ele>
        <time>2018-04-10T06:46:38Z</time>
      </trkpt>
      <trkpt lat="41.4539230" lon="2.0654870">
        <ele>224.6</ele>
        <time>2018-04-10T06:46:39Z</time>
      </trkpt>
      <trkpt lat="41.4538660" lon="2.0655920">
        <ele>225.4</ele>
        <time>2018-04-10T06:46:41Z</time>
      </trkpt>
      <trkpt lat="41.4538120" lon="2.0657060">
        <ele>225.8</ele>
        <time>2018-04-10T06:46:43Z</time>
      </trkpt>
      <trkpt lat="41.4537640" lon="2.0658260">
        <ele>226.2</ele>
        <time>2018-04-10T06:46:45Z</time>
      </trkpt>
      <trkpt lat="41.4537220" lon="2.0659580">
        <ele>226.4</ele>
        <time>2018-04-10T06:46:47Z</time>
      </trkpt>
      <trkpt lat="41.4536850" lon="2.0661080">
        <ele>226.4</ele>
        <time>2018-04-10T06:46:49Z</time>
      </trkpt>
      <trkpt lat="41.4536510" lon="2.0662680">
        <ele>226.4</ele>
        <time>2018-04-10T06:46:51Z</time>
      </trkpt>
      <trkpt lat="41.4536230" lon="2.0664360">
        <ele>226.4</ele>
        <time>2018-04-10T06:46:53Z</time>
      </trkpt>
      <trkpt lat="41.4535960" lon="2.0666100">
        <ele>226.4</ele>
        <time>2018-04-10T06:46:55Z</time>
      </trkpt>
      <trkpt lat="41.4535620" lon="2.0667860">
        <ele>226.2</ele>
        <time>2018-04-10T06:46:57Z</time>
      </trkpt>
      <trkpt lat="41.4535240" lon="2.0669690">
        <ele>226.0</ele>
        <time>2018-04-10T06:46:59Z</time>
      </trkpt>
      <trkpt lat="41.4534880" lon="2.0671460">
        <ele>225.8</ele>
        <time>2018-04-10T06:47:01Z</time>
      </trkpt>
      <trkpt lat="41.4534550" lon="2.0673240">
        <ele>225.6</ele>
        <time>2018-04-10T06:47:03Z</time>
      </trkpt>
      <trkpt lat="41.4534190" lon="2.0675010">
        <ele>225.4</ele>
        <time>2018-04-10T06:47:05Z</time>
      </trkpt>
      <trkpt lat="41.4533990" lon="2.0675900">
        <ele>225.4</ele>
        <time>2018-04-10T06:47:06Z</time>
      </trkpt>
      <trkpt lat="41.4533780" lon="2.0676800">
        <ele>225.2</ele>
        <time>2018-04-10T06:47:07Z</time>
      </trkpt>
      <trkpt lat="41.4533500" lon="2.0677690">
        <ele>225.2</ele>
        <time>2018-04-10T06:47:08Z</time>
      </trkpt>
      <trkpt lat="41.4533160" lon="2.0678520">
        <ele>225.2</ele>
        <time>2018-04-10T06:47:09Z</time>
      </trkpt>
      <trkpt lat="41.4532440" lon="2.0680190">
        <ele>224.6</ele>
        <time>2018-04-10T06:47:11Z</time>
      </trkpt>
      <trkpt lat="41.4532070" lon="2.0681010">
        <ele>224.6</ele>
        <time>2018-04-10T06:47:12Z</time>
      </trkpt>
      <trkpt lat="41.4531710" lon="2.0681840">
        <ele>224.4</ele>
        <time>2018-04-10T06:47:13Z</time>
      </trkpt>
      <trkpt lat="41.4531010" lon="2.0683510">
        <ele>224.4</ele>
        <time>2018-04-10T06:47:15Z</time>
      </trkpt>
      <trkpt lat="41.4530310" lon="2.0685160">
        <ele>224.4</ele>
        <time>2018-04-10T06:47:17Z</time>
      </trkpt>
      <trkpt lat="41.4529580" lon="2.0686780">
        <ele>224.4</ele>
        <time>2018-04-10T06:47:19Z</time>
      </trkpt>
      <trkpt lat="41.4528860" lon="2.0688430">
        <ele>224.4</ele>
        <time>2018-04-10T06:47:21Z</time>
      </trkpt>
      <trkpt lat="41.4528150" lon="2.0690110">
        <ele>224.4</ele>
        <time>2018-04-10T06:47:23Z</time>
      </trkpt>
      <trkpt lat="41.4527430" lon="2.0691790">
        <ele>224.6</ele>
        <time>2018-04-10T06:47:25Z</time>
      </trkpt>
      <trkpt lat="41.4526700" lon="2.0693440">
        <ele>224.8</ele>
        <time>2018-04-10T06:47:27Z</time>
      </trkpt>
      <trkpt lat="41.4525980" lon="2.0695070">
        <ele>224.8</ele>
        <time>2018-04-10T06:47:29Z</time>
      </trkpt>
      <trkpt lat="41.4525230" lon="2.0696710">
        <ele>225.0</ele>
        <time>2018-04-10T06:47:31Z</time>
      </trkpt>
      <trkpt lat="41.4524490" lon="2.0698330">
        <ele>225.2</ele>
        <time>2018-04-10T06:47:33Z</time>
      </trkpt>
      <trkpt lat="41.4523720" lon="2.0699920">
        <ele>225.4</ele>
        <time>2018-04-10T06:47:35Z</time>
      </trkpt>
      <trkpt lat="41.4522930" lon="2.0701460">
        <ele>225.4</ele>
        <time>2018-04-10T06:47:37Z</time>
      </trkpt>
      <trkpt lat="41.4522140" lon="2.0703030">
        <ele>225.4</ele>
        <time>2018-04-10T06:47:39Z</time>
      </trkpt>
      <trkpt lat="41.4521300" lon="2.0704640">
        <ele>225.4</ele>
        <time>2018-04-10T06:47:41Z</time>
      </trkpt>
      <trkpt lat="41.4520470" lon="2.0706240">
        <ele>225.4</ele>
        <time>2018-04-10T06:47:43Z</time>
      </trkpt>
      <trkpt lat="41.4519620" lon="2.0707860">
        <ele>225.4</ele>
        <time>2018-04-10T06:47:45Z</time>
      </trkpt>
      <trkpt lat="41.4518710" lon="2.0709440">
        <ele>225.4</ele>
        <time>2018-04-10T06:47:47Z</time>
      </trkpt>
      <trkpt lat="41.4517750" lon="2.0710960">
        <ele>225.4</ele>
        <time>2018-04-10T06:47:49Z</time>
      </trkpt>
      <trkpt lat="41.4516760" lon="2.0712530">
        <ele>225.4</ele>
        <time>2018-04-10T06:47:51Z</time>
      </trkpt>
      <trkpt lat="41.4515660" lon="2.0713980">
        <ele>225.2</ele>
        <time>2018-04-10T06:47:53Z</time>
      </trkpt>
      <trkpt lat="41.4514400" lon="2.0715190">
        <ele>224.8</ele>
        <time>2018-04-10T06:47:55Z</time>
      </trkpt>
      <trkpt lat="41.4512950" lon="2.0716350">
        <ele>224.4</ele>
        <time>2018-04-10T06:47:57Z</time>
      </trkpt>
      <trkpt lat="41.4511320" lon="2.0717410">
        <ele>224.0</ele>
        <time>2018-04-10T06:47:59Z</time>
      </trkpt>
      <trkpt lat="41.4509540" lon="2.0718540">
        <ele>223.6</ele>
        <time>2018-04-10T06:48:01Z</time>
      </trkpt>
      <trkpt lat="41.4507560" lon="2.0719400">
        <ele>223.4</ele>
        <time>2018-04-10T06:48:03Z</time>
      </trkpt>
      <trkpt lat="41.4505420" lon="2.0719750">
        <ele>223.2</ele>
        <time>2018-04-10T06:48:05Z</time>
      </trkpt>
      <trkpt lat="41.4503200" lon="2.0719300">
        <ele>222.2</ele>
        <time>2018-04-10T06:48:07Z</time>
      </trkpt>
      <trkpt lat="41.4501230" lon="2.0717850">
        <ele>221.0</ele>
        <time>2018-04-10T06:48:09Z</time>
      </trkpt>
      <trkpt lat="41.4499420" lon="2.0716030">
        <ele>219.4</ele>
        <time>2018-04-10T06:48:11Z</time>
      </trkpt>
      <trkpt lat="41.4497550" lon="2.0714180">
        <ele>217.6</ele>
        <time>2018-04-10T06:48:13Z</time>
      </trkpt>
      <trkpt lat="41.4495670" lon="2.0712310">
        <ele>216.2</ele>
        <time>2018-04-10T06:48:15Z</time>
      </trkpt>
      <trkpt lat="41.4494180" lon="2.0709920">
        <ele>214.6</ele>
        <time>2018-04-10T06:48:17Z</time>
      </trkpt>
      <trkpt lat="41.4493130" lon="2.0707040">
        <ele>213.4</ele>
        <time>2018-04-10T06:48:19Z</time>
      </trkpt>
      <trkpt lat="41.4492420" lon="2.0703940">
        <ele>212.0</ele>
        <time>2018-04-10T06:48:21Z</time>
      </trkpt>
      <trkpt lat="41.4491590" lon="2.0700860">
        <ele>209.8</ele>
        <time>2018-04-10T06:48:23Z</time>
      </trkpt>
      <trkpt lat="41.4490350" lon="2.0697940">
        <ele>208.2</ele>
        <time>2018-04-10T06:48:25Z</time>
      </trkpt>
      <trkpt lat="41.4488640" lon="2.0695440">
        <ele>206.4</ele>
        <time>2018-04-10T06:48:27Z</time>
      </trkpt>
      <trkpt lat="41.4486610" lon="2.0693420">
        <ele>204.4</ele>
        <time>2018-04-10T06:48:29Z</time>
      </trkpt>
      <trkpt lat="41.4484380" lon="2.0691650">
        <ele>202.8</ele>
        <time>2018-04-10T06:48:31Z</time>
      </trkpt>
      <trkpt lat="41.4482320" lon="2.0690330">
        <ele>201.2</ele>
        <time>2018-04-10T06:48:33Z</time>
      </trkpt>
      <trkpt lat="41.4480350" lon="2.0688990">
        <ele>199.4</ele>
        <time>2018-04-10T06:48:35Z</time>
      </trkpt>
      <trkpt lat="41.4478610" lon="2.0687640">
        <ele>197.6</ele>
        <time>2018-04-10T06:48:37Z</time>
      </trkpt>
      <trkpt lat="41.4477120" lon="2.0686450">
        <ele>196.0</ele>
        <time>2018-04-10T06:48:39Z</time>
      </trkpt>
      <trkpt lat="41.4475820" lon="2.0685320">
        <ele>195.0</ele>
        <time>2018-04-10T06:48:41Z</time>
      </trkpt>
      <trkpt lat="41.4474690" lon="2.0684300">
        <ele>194.6</ele>
        <time>2018-04-10T06:48:43Z</time>
      </trkpt>
      <trkpt lat="41.4473630" lon="2.0683390">
        <ele>194.6</ele>
        <time>2018-04-10T06:48:45Z</time>
      </trkpt>
      <trkpt lat="41.4472730" lon="2.0682600">
        <ele>194.6</ele>
        <time>2018-04-10T06:48:47Z</time>
      </trkpt>
      <trkpt lat="41.4472310" lon="2.0682250">
        <ele>194.6</ele>
        <time>2018-04-10T06:48:48Z</time>
      </trkpt>
      <trkpt lat="41.4471900" lon="2.0681900">
        <ele>194.6</ele>
        <time>2018-04-10T06:48:49Z</time>
      </trkpt>
      <trkpt lat="41.4471170" lon="2.0681200">
        <ele>195.2</ele>
        <time>2018-04-10T06:48:51Z</time>
      </trkpt>
      <trkpt lat="41.4470800" lon="2.0680910">
        <ele>196.2</ele>
        <time>2018-04-10T06:48:52Z</time>
      </trkpt>
      <trkpt lat="41.4470460" lon="2.0680610">
        <ele>196.6</ele>
        <time>2018-04-10T06:48:53Z</time>
      </trkpt>
      <trkpt lat="41.4470150" lon="2.0680320">
        <ele>197.0</ele>
        <time>2018-04-10T06:48:54Z</time>
      </trkpt>
      <trkpt lat="41.4469820" lon="2.0679970">
        <ele>197.4</ele>
        <time>2018-04-10T06:48:55Z</time>
      </trkpt>
      <trkpt lat="41.4469230" lon="2.0679290">
        <ele>198.2</ele>
        <time>2018-04-10T06:48:57Z</time>
      </trkpt>
      <trkpt lat="41.4468910" lon="2.0679050">
        <ele>198.6</ele>
        <time>2018-04-10T06:48:58Z</time>
      </trkpt>
      <trkpt lat="41.4468620" lon="2.0678800">
        <ele>199.0</ele>
        <time>2018-04-10T06:48:59Z</time>
      </trkpt>
      <trkpt lat="41.4468110" lon="2.0678240">
        <ele>199.6</ele>
        <time>2018-04-10T06:49:01Z</time>
      </trkpt>
      <trkpt lat="41.4467890" lon="2.0677940">
        <ele>199.8</ele>
        <time>2018-04-10T06:49:02Z</time>
      </trkpt>
      <trkpt lat="41.4467630" lon="2.0677680">
        <ele>200.2</ele>
        <time>2018-04-10T06:49:03Z</time>
      </trkpt>
      <trkpt lat="41.4467040" lon="2.0677160">
        <ele>201.0</ele>
        <time>2018-04-10T06:49:05Z</time>
      </trkpt>
      <trkpt lat="41.4466420" lon="2.0676680">
        <ele>201.6</ele>
        <time>2018-04-10T06:49:07Z</time>
      </trkpt>
      <trkpt lat="41.4465790" lon="2.0676320">
        <ele>202.2</ele>
        <time>2018-04-10T06:49:09Z</time>
      </trkpt>
      <trkpt lat="41.4465170" lon="2.0675910">
        <ele>202.8</ele>
        <time>2018-04-10T06:49:11Z</time>
      </trkpt>
      <trkpt lat="41.4464590" lon="2.0675470">
        <ele>203.2</ele>
        <time>2018-04-10T06:49:13Z</time>
      </trkpt>
      <trkpt lat="41.4464320" lon="2.0675280">
        <ele>203.6</ele>
        <time>2018-04-10T06:49:14Z</time>
      </trkpt>
      <trkpt lat="41.4464050" lon="2.0675130">
        <ele>203.8</ele>
        <time>2018-04-10T06:49:15Z</time>
      </trkpt>
      <trkpt lat="41.4463480" lon="2.0674790">
        <ele>204.4</ele>
        <time>2018-04-10T06:49:17Z</time>
      </trkpt>
      <trkpt lat="41.4463120" lon="2.0674650">
        <ele>204.6</ele>
        <time>2018-04-10T06:49:18Z</time>
      </trkpt>
      <trkpt lat="41.4462760" lon="2.0674430">
        <ele>205.0</ele>
        <time>2018-04-10T06:49:19Z</time>
      </trkpt>
      <trkpt lat="41.4462010" lon="2.0674040">
        <ele>205.6</ele>
        <time>2018-04-10T06:49:21Z</time>
      </trkpt>
      <trkpt lat="41.4461310" lon="2.0673610">
        <ele>206.2</ele>
        <time>2018-04-10T06:49:23Z</time>
      </trkpt>
      <trkpt lat="41.4460660" lon="2.0673050">
        <ele>206.6</ele>
        <time>2018-04-10T06:49:25Z</time>
      </trkpt>
      <trkpt lat="41.4460270" lon="2.0672750">
        <ele>207.0</ele>
        <time>2018-04-10T06:49:26Z</time>
      </trkpt>
      <trkpt lat="41.4459890" lon="2.0672430">
        <ele>207.2</ele>
        <time>2018-04-10T06:49:27Z</time>
      </trkpt>
      <trkpt lat="41.4459080" lon="2.0671850">
        <ele>207.6</ele>
        <time>2018-04-10T06:49:29Z</time>
      </trkpt>
      <trkpt lat="41.4458380" lon="2.0671380">
        <ele>208.0</ele>
        <time>2018-04-10T06:49:31Z</time>
      </trkpt>
      <trkpt lat="41.4457660" lon="2.0670970">
        <ele>208.4</ele>
        <time>2018-04-10T06:49:33Z</time>
      </trkpt>
      <trkpt lat="41.4456940" lon="2.0670490">
        <ele>209.0</ele>
        <time>2018-04-10T06:49:35Z</time>
      </trkpt>
      <trkpt lat="41.4456170" lon="2.0669960">
        <ele>209.6</ele>
        <time>2018-04-10T06:49:37Z</time>
      </trkpt>
      <trkpt lat="41.4455360" lon="2.0669370">
        <ele>210.0</ele>
        <time>2018-04-10T06:49:39Z</time>
      </trkpt>
      <trkpt lat="41.4454540" lon="2.0668750">
        <ele>210.6</ele>
        <time>2018-04-10T06:49:41Z</time>
      </trkpt>
      <trkpt lat="41.4453760" lon="2.0668230">
        <ele>211.2</ele>
        <time>2018-04-10T06:49:43Z</time>
      </trkpt>
      <trkpt lat="41.4453030" lon="2.0667760">
        <ele>211.8</ele>
        <time>2018-04-10T06:49:45Z</time>
      </trkpt>
      <trkpt lat="41.4452650" lon="2.0667540">
        <ele>212.2</ele>
        <time>2018-04-10T06:49:46Z</time>
      </trkpt>
      <trkpt lat="41.4452250" lon="2.0667330">
        <ele>212.4</ele>
        <time>2018-04-10T06:49:47Z</time>
      </trkpt>
      <trkpt lat="41.4451540" lon="2.0666910">
        <ele>213.0</ele>
        <time>2018-04-10T06:49:49Z</time>
      </trkpt>
      <trkpt lat="41.4451260" lon="2.0666770">
        <ele>213.6</ele>
        <time>2018-04-10T06:49:50Z</time>
      </trkpt>
      <trkpt lat="41.4450920" lon="2.0666630">
        <ele>214.0</ele>
        <time>2018-04-10T06:49:51Z</time>
      </trkpt>
      <trkpt lat="41.4450160" lon="2.0666220">
        <ele>214.4</ele>
        <time>2018-04-10T06:49:53Z</time>
      </trkpt>
      <trkpt lat="41.4449360" lon="2.0665760">
        <ele>214.8</ele>
        <time>2018-04-10T06:49:55Z</time>
      </trkpt>
      <trkpt lat="41.4448610" lon="2.0665440">
        <ele>215.4</ele>
        <time>2018-04-10T06:49:57Z</time>
      </trkpt>
      <trkpt lat="41.4447910" lon="2.0665130">
        <ele>216.0</ele>
        <time>2018-04-10T06:49:59Z</time>
      </trkpt>
      <trkpt lat="41.4447180" lon="2.0664800">
        <ele>216.6</ele>
        <time>2018-04-10T06:50:01Z</time>
      </trkpt>
      <trkpt lat="41.4446520" lon="2.0664440">
        <ele>217.2</ele>
        <time>2018-04-10T06:50:03Z</time>
      </trkpt>
      <trkpt lat="41.4446160" lon="2.0663840">
        <ele>217.8</ele>
        <time>2018-04-10T06:50:05Z</time>
      </trkpt>
      <trkpt lat="41.4446410" lon="2.0663170">
        <ele>218.6</ele>
        <time>2018-04-10T06:50:07Z</time>
      </trkpt>
      <trkpt lat="41.4446710" lon="2.0662270">
        <ele>219.2</ele>
        <time>2018-04-10T06:50:09Z</time>
      </trkpt>
      <trkpt lat="41.4446900" lon="2.0661780">
        <ele>219.6</ele>
        <time>2018-04-10T06:50:10Z</time>
      </trkpt>
      <trkpt lat="41.4447140" lon="2.0661310">
        <ele>219.8</ele>
        <time>2018-04-10T06:50:11Z</time>
      </trkpt>
      <trkpt lat="41.4447600" lon="2.0660310">
        <ele>220.4</ele>
        <time>2018-04-10T06:50:13Z</time>
      </trkpt>
      <trkpt lat="41.4447800" lon="2.0659800">
        <ele>220.6</ele>
        <time>2018-04-10T06:50:14Z</time>
      </trkpt>
      <trkpt lat="41.4447990" lon="2.0659260">
        <ele>220.6</ele>
        <time>2018-04-10T06:50:15Z</time>
      </trkpt>
      <trkpt lat="41.4448190" lon="2.0658740">
        <ele>220.6</ele>
        <time>2018-04-10T06:50:16Z</time>
      </trkpt>
      <trkpt lat="41.4448440" lon="2.0658240">
        <ele>220.6</ele>
        <time>2018-04-10T06:50:17Z</time>
      </trkpt>
      <trkpt lat="41.4448910" lon="2.0657350">
        <ele>220.8</ele>
        <time>2018-04-10T06:50:19Z</time>
      </trkpt>
      <trkpt lat="41.4449310" lon="2.0656520">
        <ele>220.8</ele>
        <time>2018-04-10T06:50:21Z</time>
      </trkpt>
      <trkpt lat="41.4449650" lon="2.0655660">
        <ele>221.0</ele>
        <time>2018-04-10T06:50:23Z</time>
      </trkpt>
      <trkpt lat="41.4449970" lon="2.0654890">
        <ele>221.0</ele>
        <time>2018-04-10T06:50:25Z</time>
      </trkpt>
      <trkpt lat="41.4450320" lon="2.0654110">
        <ele>221.6</ele>
        <time>2018-04-10T06:50:27Z</time>
      </trkpt>
      <trkpt lat="41.4450460" lon="2.0653720">
        <ele>221.8</ele>
        <time>2018-04-10T06:50:28Z</time>
      </trkpt>
      <trkpt lat="41.4450610" lon="2.0653330">
        <ele>222.2</ele>
        <time>2018-04-10T06:50:29Z</time>
      </trkpt>
      <trkpt lat="41.4450920" lon="2.0652610">
        <ele>222.6</ele>
        <time>2018-04-10T06:50:31Z</time>
      </trkpt>
      <trkpt lat="41.4451230" lon="2.0651850">
        <ele>223.0</ele>
        <time>2018-04-10T06:50:33Z</time>
      </trkpt>
      <trkpt lat="41.4451570" lon="2.0651120">
        <ele>223.6</ele>
        <time>2018-04-10T06:50:35Z</time>
      </trkpt>
      <trkpt lat="41.4451950" lon="2.0650370">
        <ele>224.0</ele>
        <time>2018-04-10T06:50:37Z</time>
      </trkpt>
      <trkpt lat="41.4452340" lon="2.0649600">
        <ele>224.6</ele>
        <time>2018-04-10T06:50:39Z</time>
      </trkpt>
      <trkpt lat="41.4452680" lon="2.0648780">
        <ele>225.0</ele>
        <time>2018-04-10T06:50:41Z</time>
      </trkpt>
      <trkpt lat="41.4452800" lon="2.0648370">
        <ele>225.4</ele>
        <time>2018-04-10T06:50:42Z</time>
      </trkpt>
      <trkpt lat="41.4452920" lon="2.0647970">
        <ele>225.6</ele>
        <time>2018-04-10T06:50:43Z</time>
      </trkpt>
      <trkpt lat="41.4453200" lon="2.0647180">
        <ele>226.2</ele>
        <time>2018-04-10T06:50:45Z</time>
      </trkpt>
      <trkpt lat="41.4453360" lon="2.0646810">
        <ele>226.4</ele>
        <time>2018-04-10T06:50:46Z</time>
      </trkpt>
      <trkpt lat="41.4453550" lon="2.0646430">
        <ele>226.8</ele>
        <time>2018-04-10T06:50:47Z</time>
      </trkpt>
      <trkpt lat="41.4453920" lon="2.0645650">
        <ele>227.6</ele>
        <time>2018-04-10T06:50:49Z</time>
      </trkpt>
      <trkpt lat="41.4454210" lon="2.0644770">
        <ele>228.4</ele>
        <time>2018-04-10T06:50:51Z</time>
      </trkpt>
      <trkpt lat="41.4454470" lon="2.0643930">
        <ele>229.0</ele>
        <time>2018-04-10T06:50:53Z</time>
      </trkpt>
      <trkpt lat="41.4454740" lon="2.0643160">
        <ele>229.8</ele>
        <time>2018-04-10T06:50:55Z</time>
      </trkpt>
      <trkpt lat="41.4454870" lon="2.0642780">
        <ele>230.2</ele>
        <time>2018-04-10T06:50:56Z</time>
      </trkpt>
      <trkpt lat="41.4455040" lon="2.0642360">
        <ele>230.4</ele>
        <time>2018-04-10T06:50:57Z</time>
      </trkpt>
      <trkpt lat="41.4455390" lon="2.0641600">
        <ele>231.2</ele>
        <time>2018-04-10T06:50:59Z</time>
      </trkpt>
      <trkpt lat="41.4455800" lon="2.0640830">
        <ele>232.0</ele>
        <time>2018-04-10T06:51:01Z</time>
      </trkpt>
      <trkpt lat="41.4455980" lon="2.0640460">
        <ele>232.4</ele>
        <time>2018-04-10T06:51:02Z</time>
      </trkpt>
      <trkpt lat="41.4456160" lon="2.0640080">
        <ele>232.8</ele>
        <time>2018-04-10T06:51:03Z</time>
      </trkpt>
      <trkpt lat="41.4456540" lon="2.0639310">
        <ele>233.2</ele>
        <time>2018-04-10T06:51:05Z</time>
      </trkpt>
      <trkpt lat="41.4456720" lon="2.0638930">
        <ele>233.6</ele>
        <time>2018-04-10T06:51:06Z</time>
      </trkpt>
      <trkpt lat="41.4456910" lon="2.0638540">
        <ele>233.8</ele>
        <time>2018-04-10T06:51:07Z</time>
      </trkpt>
      <trkpt lat="41.4457310" lon="2.0637690">
        <ele>234.4</ele>
        <time>2018-04-10T06:51:09Z</time>
      </trkpt>
      <trkpt lat="41.4457520" lon="2.0637210">
        <ele>234.8</ele>
        <time>2018-04-10T06:51:10Z</time>
      </trkpt>
      <trkpt lat="41.4457710" lon="2.0636690">
        <ele>235.2</ele>
        <time>2018-04-10T06:51:11Z</time>
      </trkpt>
      <trkpt lat="41.4458090" lon="2.0635550">
        <ele>235.8</ele>
        <time>2018-04-10T06:51:13Z</time>
      </trkpt>
      <trkpt lat="41.4458260" lon="2.0634940">
        <ele>236.0</ele>
        <time>2018-04-10T06:51:14Z</time>
      </trkpt>
      <trkpt lat="41.4458420" lon="2.0634300">
        <ele>236.2</ele>
        <time>2018-04-10T06:51:15Z</time>
      </trkpt>
      <trkpt lat="41.4458530" lon="2.0633640">
        <ele>236.4</ele>
        <time>2018-04-10T06:51:16Z</time>
      </trkpt>
      <trkpt lat="41.4458590" lon="2.0632950">
        <ele>236.6</ele>
        <time>2018-04-10T06:51:17Z</time>
      </trkpt>
      <trkpt lat="41.4458460" lon="2.0631520">
        <ele>236.8</ele>
        <time>2018-04-10T06:51:19Z</time>
      </trkpt>
      <trkpt lat="41.4458090" lon="2.0630140">
        <ele>236.8</ele>
        <time>2018-04-10T06:51:21Z</time>
      </trkpt>
      <trkpt lat="41.4457880" lon="2.0629470">
        <ele>236.8</ele>
        <time>2018-04-10T06:51:22Z</time>
      </trkpt>
      <trkpt lat="41.4457660" lon="2.0628800">
        <ele>237.0</ele>
        <time>2018-04-10T06:51:23Z</time>
      </trkpt>
      <trkpt lat="41.4457150" lon="2.0627510">
        <ele>237.0</ele>
        <time>2018-04-10T06:51:25Z</time>
      </trkpt>
      <trkpt lat="41.4456880" lon="2.0626920">
        <ele>237.0</ele>
        <time>2018-04-10T06:51:26Z</time>
      </trkpt>
      <trkpt lat="41.4456610" lon="2.0626350">
        <ele>237.0</ele>
        <time>2018-04-10T06:51:27Z</time>
      </trkpt>
      <trkpt lat="41.4456010" lon="2.0625270">
        <ele>237.0</ele>
        <time>2018-04-10T06:51:29Z</time>
      </trkpt>
      <trkpt lat="41.4455660" lon="2.0624760">
        <ele>237.2</ele>
        <time>2018-04-10T06:51:30Z</time>
      </trkpt>
      <trkpt lat="41.4455300" lon="2.0624360">
        <ele>237.2</ele>
        <time>2018-04-10T06:51:31Z</time>
      </trkpt>
      <trkpt lat="41.4454500" lon="2.0623840">
        <ele>237.6</ele>
        <time>2018-04-10T06:51:33Z</time>
      </trkpt>
      <trkpt lat="41.4454070" lon="2.0623650">
        <ele>237.8</ele>
        <time>2018-04-10T06:51:34Z</time>
      </trkpt>
      <trkpt lat="41.4453640" lon="2.0623500">
        <ele>237.8</ele>
        <time>2018-04-10T06:51:35Z</time>
      </trkpt>
      <trkpt lat="41.4453210" lon="2.0623380">
        <ele>238.0</ele>
        <time>2018-04-10T06:51:36Z</time>
      </trkpt>
      <trkpt lat="41.4452800" lon="2.0623260">
        <ele>238.4</ele>
        <time>2018-04-10T06:51:37Z</time>
      </trkpt>
      <trkpt lat="41.4451990" lon="2.0623010">
        <ele>238.8</ele>
        <time>2018-04-10T06:51:39Z</time>
      </trkpt>
      <trkpt lat="41.4451390" lon="2.0622260">
        <ele>239.2</ele>
        <time>2018-04-10T06:51:41Z</time>
      </trkpt>
      <trkpt lat="41.4450960" lon="2.0621240">
        <ele>239.6</ele>
        <time>2018-04-10T06:51:43Z</time>
      </trkpt>
      <trkpt lat="41.4450600" lon="2.0620150">
        <ele>240.0</ele>
        <time>2018-04-10T06:51:45Z</time>
      </trkpt>
      <trkpt lat="41.4450440" lon="2.0619640">
        <ele>240.2</ele>
        <time>2018-04-10T06:51:46Z</time>
      </trkpt>
      <trkpt lat="41.4450270" lon="2.0619120">
        <ele>241.0</ele>
        <time>2018-04-10T06:51:47Z</time>
      </trkpt>
      <trkpt lat="41.4450120" lon="2.0618580">
        <ele>241.2</ele>
        <time>2018-04-10T06:51:48Z</time>
      </trkpt>
      <trkpt lat="41.4450030" lon="2.0618000">
        <ele>241.6</ele>
        <time>2018-04-10T06:51:49Z</time>
      </trkpt>
      <trkpt lat="41.4449940" lon="2.0616720">
        <ele>242.0</ele>
        <time>2018-04-10T06:51:51Z</time>
      </trkpt>
      <trkpt lat="41.4450080" lon="2.0615310">
        <ele>242.6</ele>
        <time>2018-04-10T06:51:53Z</time>
      </trkpt>
      <trkpt lat="41.4450220" lon="2.0614550">
        <ele>242.6</ele>
        <time>2018-04-10T06:51:54Z</time>
      </trkpt>
      <trkpt lat="41.4450350" lon="2.0613770">
        <ele>242.8</ele>
        <time>2018-04-10T06:51:55Z</time>
      </trkpt>
      <trkpt lat="41.4450530" lon="2.0612080">
        <ele>242.8</ele>
        <time>2018-04-10T06:51:57Z</time>
      </trkpt>
      <trkpt lat="41.4450580" lon="2.0610330">
        <ele>242.8</ele>
        <time>2018-04-10T06:51:59Z</time>
      </trkpt>
      <trkpt lat="41.4450560" lon="2.0609480">
        <ele>242.8</ele>
        <time>2018-04-10T06:52:00Z</time>
      </trkpt>
      <trkpt lat="41.4450460" lon="2.0608640">
        <ele>242.8</ele>
        <time>2018-04-10T06:52:01Z</time>
      </trkpt>
      <trkpt lat="41.4450060" lon="2.0607040">
        <ele>243.0</ele>
        <time>2018-04-10T06:52:03Z</time>
      </trkpt>
      <trkpt lat="41.4449620" lon="2.0605580">
        <ele>242.6</ele>
        <time>2018-04-10T06:52:05Z</time>
      </trkpt>
      <trkpt lat="41.4449300" lon="2.0604250">
        <ele>242.6</ele>
        <time>2018-04-10T06:52:07Z</time>
      </trkpt>
      <trkpt lat="41.4449070" lon="2.0603010">
        <ele>242.4</ele>
        <time>2018-04-10T06:52:09Z</time>
      </trkpt>
      <trkpt lat="41.4448900" lon="2.0601890">
        <ele>242.4</ele>
        <time>2018-04-10T06:52:11Z</time>
      </trkpt>
      <trkpt lat="41.4448680" lon="2.0600860">
        <ele>242.4</ele>
        <time>2018-04-10T06:52:13Z</time>
      </trkpt>
      <trkpt lat="41.4448570" lon="2.0599900">
        <ele>243.0</ele>
        <time>2018-04-10T06:52:15Z</time>
      </trkpt>
      <trkpt lat="41.4448410" lon="2.0598980">
        <ele>243.6</ele>
        <time>2018-04-10T06:52:17Z</time>
      </trkpt>
      <trkpt lat="41.4448310" lon="2.0598500">
        <ele>243.8</ele>
        <time>2018-04-10T06:52:18Z</time>
      </trkpt>
      <trkpt lat="41.4448180" lon="2.0598050">
        <ele>244.0</ele>
        <time>2018-04-10T06:52:19Z</time>
      </trkpt>
      <trkpt lat="41.4447940" lon="2.0597120">
        <ele>244.6</ele>
        <time>2018-04-10T06:52:21Z</time>
      </trkpt>
      <trkpt lat="41.4447800" lon="2.0596670">
        <ele>244.8</ele>
        <time>2018-04-10T06:52:22Z</time>
      </trkpt>
      <trkpt lat="41.4447630" lon="2.0596200">
        <ele>245.0</ele>
        <time>2018-04-10T06:52:23Z</time>
      </trkpt>
      <trkpt lat="41.4447260" lon="2.0595270">
        <ele>245.6</ele>
        <time>2018-04-10T06:52:25Z</time>
      </trkpt>
      <trkpt lat="41.4446880" lon="2.0594310">
        <ele>246.0</ele>
        <time>2018-04-10T06:52:27Z</time>
      </trkpt>
      <trkpt lat="41.4446420" lon="2.0593330">
        <ele>246.6</ele>
        <time>2018-04-10T06:52:29Z</time>
      </trkpt>
      <trkpt lat="41.4446210" lon="2.0592870">
        <ele>247.0</ele>
        <time>2018-04-10T06:52:30Z</time>
      </trkpt>
      <trkpt lat="41.4445980" lon="2.0592430">
        <ele>247.4</ele>
        <time>2018-04-10T06:52:31Z</time>
      </trkpt>
      <trkpt lat="41.4445560" lon="2.0591630">
        <ele>247.8</ele>
        <time>2018-04-10T06:52:33Z</time>
      </trkpt>
      <trkpt lat="41.4445330" lon="2.0591230">
        <ele>248.2</ele>
        <time>2018-04-10T06:52:34Z</time>
      </trkpt>
      <trkpt lat="41.4445110" lon="2.0590840">
        <ele>248.6</ele>
        <time>2018-04-10T06:52:35Z</time>
      </trkpt>
      <trkpt lat="41.4444980" lon="2.0590430">
        <ele>249.0</ele>
        <time>2018-04-10T06:52:36Z</time>
      </trkpt>
      <trkpt lat="41.4444910" lon="2.0590020">
        <ele>249.4</ele>
        <time>2018-04-10T06:52:37Z</time>
      </trkpt>
      <trkpt lat="41.4445130" lon="2.0589470">
        <ele>249.8</ele>
        <time>2018-04-10T06:52:39Z</time>
      </trkpt>
      <trkpt lat="41.4445620" lon="2.0589150">
        <ele>250.6</ele>
        <time>2018-04-10T06:52:41Z</time>
      </trkpt>
      <trkpt lat="41.4445870" lon="2.0589020">
        <ele>251.0</ele>
        <time>2018-04-10T06:52:42Z</time>
      </trkpt>
      <trkpt lat="41.4446110" lon="2.0588860">
        <ele>251.2</ele>
        <time>2018-04-10T06:52:43Z</time>
      </trkpt>
      <trkpt lat="41.4446390" lon="2.0588690">
        <ele>251.6</ele>
        <time>2018-04-10T06:52:44Z</time>
      </trkpt>
      <trkpt lat="41.4446650" lon="2.0588440">
        <ele>252.6</ele>
        <time>2018-04-10T06:52:45Z</time>
      </trkpt>
      <trkpt lat="41.4446910" lon="2.0588140">
        <ele>253.0</ele>
        <time>2018-04-10T06:52:46Z</time>
      </trkpt>
      <trkpt lat="41.4447180" lon="2.0587750">
        <ele>253.4</ele>
        <time>2018-04-10T06:52:47Z</time>
      </trkpt>
      <trkpt lat="41.4447680" lon="2.0586770">
        <ele>253.8</ele>
        <time>2018-04-10T06:52:49Z</time>
      </trkpt>
      <trkpt lat="41.4448190" lon="2.0585660">
        <ele>254.0</ele>
        <time>2018-04-10T06:52:51Z</time>
      </trkpt>
      <trkpt lat="41.4448460" lon="2.0585070">
        <ele>254.0</ele>
        <time>2018-04-10T06:52:52Z</time>
      </trkpt>
      <trkpt lat="41.4448710" lon="2.0584420">
        <ele>254.0</ele>
        <time>2018-04-10T06:52:53Z</time>
      </trkpt>
      <trkpt lat="41.4449190" lon="2.0583010">
        <ele>254.0</ele>
        <time>2018-04-10T06:52:55Z</time>
      </trkpt>
      <trkpt lat="41.4449600" lon="2.0581380">
        <ele>254.0</ele>
        <time>2018-04-10T06:52:57Z</time>
      </trkpt>
      <trkpt lat="41.4449710" lon="2.0580460">
        <ele>254.0</ele>
        <time>2018-04-10T06:52:58Z</time>
      </trkpt>
      <trkpt lat="41.4449740" lon="2.0579470">
        <ele>254.0</ele>
        <time>2018-04-10T06:52:59Z</time>
      </trkpt>
      <trkpt lat="41.4449660" lon="2.0577510">
        <ele>253.8</ele>
        <time>2018-04-10T06:53:01Z</time>
      </trkpt>
      <trkpt lat="41.4449510" lon="2.0576550">
        <ele>253.8</ele>
        <time>2018-04-10T06:53:02Z</time>
      </trkpt>
      <trkpt lat="41.4449360" lon="2.0575550">
        <ele>253.8</ele>
        <time>2018-04-10T06:53:03Z</time>
      </trkpt>
      <trkpt lat="41.4448950" lon="2.0573700">
        <ele>253.4</ele>
        <time>2018-04-10T06:53:05Z</time>
      </trkpt>
      <trkpt lat="41.4448420" lon="2.0571920">
        <ele>253.0</ele>
        <time>2018-04-10T06:53:07Z</time>
      </trkpt>
      <trkpt lat="41.4447870" lon="2.0570390">
        <ele>252.2</ele>
        <time>2018-04-10T06:53:09Z</time>
      </trkpt>
      <trkpt lat="41.4447360" lon="2.0568880">
        <ele>252.0</ele>
        <time>2018-04-10T06:53:11Z</time>
      </trkpt>
      <trkpt lat="41.4446890" lon="2.0567340">
        <ele>252.0</ele>
        <time>2018-04-10T06:53:13Z</time>
      </trkpt>
      <trkpt lat="41.4446710" lon="2.0566500">
        <ele>252.0</ele>
        <time>2018-04-10T06:53:14Z</time>
      </trkpt>
      <trkpt lat="41.4446610" lon="2.0565670">
        <ele>252.0</ele>
        <time>2018-04-10T06:53:15Z</time>
      </trkpt>
      <trkpt lat="41.4446550" lon="2.0564790">
        <ele>252.0</ele>
        <time>2018-04-10T06:53:16Z</time>
      </trkpt>
      <trkpt lat="41.4446500" lon="2.0563890">
        <ele>251.8</ele>
        <time>2018-04-10T06:53:17Z</time>
      </trkpt>
      <trkpt lat="41.4446550" lon="2.0562040">
        <ele>251.8</ele>
        <time>2018-04-10T06:53:19Z</time>
      </trkpt>
      <trkpt lat="41.4446570" lon="2.0561070">
        <ele>251.8</ele>
        <time>2018-04-10T06:53:20Z</time>
      </trkpt>
      <trkpt lat="41.4446520" lon="2.0560100">
        <ele>251.8</ele>
        <time>2018-04-10T06:53:21Z</time>
      </trkpt>
      <trkpt lat="41.4446140" lon="2.0558150">
        <ele>251.8</ele>
        <time>2018-04-10T06:53:23Z</time>
      </trkpt>
      <trkpt lat="41.4445220" lon="2.0556460">
        <ele>251.8</ele>
        <time>2018-04-10T06:53:25Z</time>
      </trkpt>
      <trkpt lat="41.4443890" lon="2.0555350">
        <ele>251.8</ele>
        <time>2018-04-10T06:53:27Z</time>
      </trkpt>
      <trkpt lat="41.4443140" lon="2.0554940">
        <ele>251.4</ele>
        <time>2018-04-10T06:53:28Z</time>
      </trkpt>
      <trkpt lat="41.4442480" lon="2.0554440">
        <ele>251.2</ele>
        <time>2018-04-10T06:53:29Z</time>
      </trkpt>
      <trkpt lat="41.4441930" lon="2.0553820">
        <ele>251.0</ele>
        <time>2018-04-10T06:53:30Z</time>
      </trkpt>
      <trkpt lat="41.4441450" lon="2.0553070">
        <ele>250.6</ele>
        <time>2018-04-10T06:53:31Z</time>
      </trkpt>
      <trkpt lat="41.4440630" lon="2.0551220">
        <ele>249.0</ele>
        <time>2018-04-10T06:53:33Z</time>
      </trkpt>
      <trkpt lat="41.4439700" lon="2.0549170">
        <ele>247.0</ele>
        <time>2018-04-10T06:53:35Z</time>
      </trkpt>
      <trkpt lat="41.4438710" lon="2.0547490">
        <ele>245.0</ele>
        <time>2018-04-10T06:53:37Z</time>
      </trkpt>
      <trkpt lat="41.4437670" lon="2.0546060">
        <ele>243.4</ele>
        <time>2018-04-10T06:53:39Z</time>
      </trkpt>
      <trkpt lat="41.4436630" lon="2.0544680">
        <ele>241.8</ele>
        <time>2018-04-10T06:53:41Z</time>
      </trkpt>
      <trkpt lat="41.4435540" lon="2.0543270">
        <ele>240.4</ele>
        <time>2018-04-10T06:53:43Z</time>
      </trkpt>
      <trkpt lat="41.4434220" lon="2.0542060">
        <ele>240.2</ele>
        <time>2018-04-10T06:53:45Z</time>
      </trkpt>
      <trkpt lat="41.4432700" lon="2.0540860">
        <ele>240.0</ele>
        <time>2018-04-10T06:53:47Z</time>
      </trkpt>
      <trkpt lat="41.4431050" lon="2.0539750">
        <ele>240.0</ele>
        <time>2018-04-10T06:53:49Z</time>
      </trkpt>
      <trkpt lat="41.4430260" lon="2.0539300">
        <ele>239.8</ele>
        <time>2018-04-10T06:53:50Z</time>
      </trkpt>
      <trkpt lat="41.4429480" lon="2.0538890">
        <ele>239.8</ele>
        <time>2018-04-10T06:53:51Z</time>
      </trkpt>
      <trkpt lat="41.4428740" lon="2.0538430">
        <ele>239.4</ele>
        <time>2018-04-10T06:53:52Z</time>
      </trkpt>
      <trkpt lat="41.4428090" lon="2.0537900">
        <ele>238.8</ele>
        <time>2018-04-10T06:53:53Z</time>
      </trkpt>
      <trkpt lat="41.4427520" lon="2.0537280">
        <ele>238.2</ele>
        <time>2018-04-10T06:53:54Z</time>
      </trkpt>
      <trkpt lat="41.4426950" lon="2.0536590">
        <ele>237.8</ele>
        <time>2018-04-10T06:53:55Z</time>
      </trkpt>
      <trkpt lat="41.4426360" lon="2.0535910">
        <ele>236.8</ele>
        <time>2018-04-10T06:53:56Z</time>
      </trkpt>
      <trkpt lat="41.4425760" lon="2.0535250">
        <ele>235.6</ele>
        <time>2018-04-10T06:53:57Z</time>
      </trkpt>
      <trkpt lat="41.4425150" lon="2.0534620">
        <ele>234.6</ele>
        <time>2018-04-10T06:53:58Z</time>
      </trkpt>
      <trkpt lat="41.4424510" lon="2.0533960">
        <ele>233.4</ele>
        <time>2018-04-10T06:53:59Z</time>
      </trkpt>
      <trkpt lat="41.4423230" lon="2.0532500">
        <ele>232.0</ele>
        <time>2018-04-10T06:54:01Z</time>
      </trkpt>
      <trkpt lat="41.4421970" lon="2.0530950">
        <ele>231.4</ele>
        <time>2018-04-10T06:54:03Z</time>
      </trkpt>
      <trkpt lat="41.4420610" lon="2.0529120">
        <ele>231.2</ele>
        <time>2018-04-10T06:54:05Z</time>
      </trkpt>
      <trkpt lat="41.4419140" lon="2.0527020">
        <ele>231.2</ele>
        <time>2018-04-10T06:54:07Z</time>
      </trkpt>
      <trkpt lat="41.4418360" lon="2.0525940">
        <ele>230.8</ele>
        <time>2018-04-10T06:54:08Z</time>
      </trkpt>
      <trkpt lat="41.4417540" lon="2.0524880">
        <ele>230.4</ele>
        <time>2018-04-10T06:54:09Z</time>
      </trkpt>
      <trkpt lat="41.4416670" lon="2.0523840">
        <ele>229.6</ele>
        <time>2018-04-10T06:54:10Z</time>
      </trkpt>
      <trkpt lat="41.4415780" lon="2.0522830">
        <ele>228.8</ele>
        <time>2018-04-10T06:54:11Z</time>
      </trkpt>
      <trkpt lat="41.4414850" lon="2.0521810">
        <ele>227.8</ele>
        <time>2018-04-10T06:54:12Z</time>
      </trkpt>
      <trkpt lat="41.4413960" lon="2.0520840">
        <ele>224.8</ele>
        <time>2018-04-10T06:54:13Z</time>
      </trkpt>
      <trkpt lat="41.4413090" lon="2.0519860">
        <ele>222.8</ele>
        <time>2018-04-10T06:54:14Z</time>
      </trkpt>
      <trkpt lat="41.4412180" lon="2.0518930">
        <ele>220.6</ele>
        <time>2018-04-10T06:54:15Z</time>
      </trkpt>
      <trkpt lat="41.4411230" lon="2.0518130">
        <ele>218.2</ele>
        <time>2018-04-10T06:54:16Z</time>
      </trkpt>
      <trkpt lat="41.4410270" lon="2.0517450">
        <ele>216.2</ele>
        <time>2018-04-10T06:54:17Z</time>
      </trkpt>
      <trkpt lat="41.4409310" lon="2.0516840">
        <ele>214.4</ele>
        <time>2018-04-10T06:54:18Z</time>
      </trkpt>
      <trkpt lat="41.4408440" lon="2.0516220">
        <ele>212.8</ele>
        <time>2018-04-10T06:54:19Z</time>
      </trkpt>
      <trkpt lat="41.4407550" lon="2.0515550">
        <ele>211.6</ele>
        <time>2018-04-10T06:54:20Z</time>
      </trkpt>
      <trkpt lat="41.4406630" lon="2.0514780">
        <ele>210.6</ele>
        <time>2018-04-10T06:54:21Z</time>
      </trkpt>
      <trkpt lat="41.4405720" lon="2.0513990">
        <ele>210.0</ele>
        <time>2018-04-10T06:54:22Z</time>
      </trkpt>
      <trkpt lat="41.4404820" lon="2.0513190">
        <ele>209.2</ele>
        <time>2018-04-10T06:54:23Z</time>
      </trkpt>
      <trkpt lat="41.4403920" lon="2.0512390">
        <ele>208.8</ele>
        <time>2018-04-10T06:54:24Z</time>
      </trkpt>
      <trkpt lat="41.4403040" lon="2.0511610">
        <ele>208.2</ele>
        <time>2018-04-10T06:54:25Z</time>
      </trkpt>
      <trkpt lat="41.4402190" lon="2.0510840">
        <ele>207.6</ele>
        <time>2018-04-10T06:54:26Z</time>
      </trkpt>
      <trkpt lat="41.4401370" lon="2.0510120">
        <ele>206.8</ele>
        <time>2018-04-10T06:54:27Z</time>
      </trkpt>
      <trkpt lat="41.4400570" lon="2.0509440">
        <ele>206.0</ele>
        <time>2018-04-10T06:54:28Z</time>
      </trkpt>
      <trkpt lat="41.4399830" lon="2.0508770">
        <ele>204.8</ele>
        <time>2018-04-10T06:54:29Z</time>
      </trkpt>
      <trkpt lat="41.4399160" lon="2.0508010">
        <ele>203.0</ele>
        <time>2018-04-10T06:54:30Z</time>
      </trkpt>
      <trkpt lat="41.4398560" lon="2.0507090">
        <ele>201.2</ele>
        <time>2018-04-10T06:54:31Z</time>
      </trkpt>
      <trkpt lat="41.4398010" lon="2.0506070">
        <ele>199.4</ele>
        <time>2018-04-10T06:54:32Z</time>
      </trkpt>
      <trkpt lat="41.4397460" lon="2.0505010">
        <ele>197.8</ele>
        <time>2018-04-10T06:54:33Z</time>
      </trkpt>
      <trkpt lat="41.4396890" lon="2.0503950">
        <ele>196.2</ele>
        <time>2018-04-10T06:54:34Z</time>
      </trkpt>
      <trkpt lat="41.4396110" lon="2.0502960">
        <ele>194.8</ele>
        <time>2018-04-10T06:54:35Z</time>
      </trkpt>
      <trkpt lat="41.4395180" lon="2.0502090">
        <ele>193.4</ele>
        <time>2018-04-10T06:54:36Z</time>
      </trkpt>
      <trkpt lat="41.4394190" lon="2.0501280">
        <ele>192.2</ele>
        <time>2018-04-10T06:54:37Z</time>
      </trkpt>
      <trkpt lat="41.4393240" lon="2.0500440">
        <ele>190.8</ele>
        <time>2018-04-10T06:54:38Z</time>
      </trkpt>
      <trkpt lat="41.4392300" lon="2.0499560">
        <ele>189.6</ele>
        <time>2018-04-10T06:54:39Z</time>
      </trkpt>
      <trkpt lat="41.4391300" lon="2.0498710">
        <ele>188.0</ele>
        <time>2018-04-10T06:54:40Z</time>
      </trkpt>
      <trkpt lat="41.4390350" lon="2.0497840">
        <ele>186.2</ele>
        <time>2018-04-10T06:54:41Z</time>
      </trkpt>
      <trkpt lat="41.4389370" lon="2.0496910">
        <ele>182.2</ele>
        <time>2018-04-10T06:54:42Z</time>
      </trkpt>
      <trkpt lat="41.4388340" lon="2.0495940">
        <ele>180.4</ele>
        <time>2018-04-10T06:54:43Z</time>
      </trkpt>
      <trkpt lat="41.4387280" lon="2.0494920">
        <ele>179.0</ele>
        <time>2018-04-10T06:54:44Z</time>
      </trkpt>
      <trkpt lat="41.4386260" lon="2.0493820">
        <ele>177.8</ele>
        <time>2018-04-10T06:54:45Z</time>
      </trkpt>
      <trkpt lat="41.4384390" lon="2.0491330">
        <ele>176.2</ele>
        <time>2018-04-10T06:54:47Z</time>
      </trkpt>
      <trkpt lat="41.4382760" lon="2.0488930">
        <ele>174.4</ele>
        <time>2018-04-10T06:54:49Z</time>
      </trkpt>
      <trkpt lat="41.4381900" lon="2.0487910">
        <ele>173.2</ele>
        <time>2018-04-10T06:54:50Z</time>
      </trkpt>
      <trkpt lat="41.4381090" lon="2.0487010">
        <ele>171.6</ele>
        <time>2018-04-10T06:54:51Z</time>
      </trkpt>
      <trkpt lat="41.4380360" lon="2.0486130">
        <ele>170.0</ele>
        <time>2018-04-10T06:54:52Z</time>
      </trkpt>
      <trkpt lat="41.4379640" lon="2.0485240">
        <ele>168.6</ele>
        <time>2018-04-10T06:54:53Z</time>
      </trkpt>
      <trkpt lat="41.4378920" lon="2.0484350">
        <ele>167.4</ele>
        <time>2018-04-10T06:54:54Z</time>
      </trkpt>
      <trkpt lat="41.4378180" lon="2.0483470">
        <ele>166.6</ele>
        <time>2018-04-10T06:54:55Z</time>
      </trkpt>
      <trkpt lat="41.4377370" lon="2.0482590">
        <ele>166.0</ele>
        <time>2018-04-10T06:54:56Z</time>
      </trkpt>
      <trkpt lat="41.4376490" lon="2.0481750">
        <ele>165.4</ele>
        <time>2018-04-10T06:54:57Z</time>
      </trkpt>
      <trkpt lat="41.4374520" lon="2.0480310">
        <ele>165.0</ele>
        <time>2018-04-10T06:54:59Z</time>
      </trkpt>
      <trkpt lat="41.4372310" lon="2.0479180">
        <ele>164.6</ele>
        <time>2018-04-10T06:55:01Z</time>
      </trkpt>
      <trkpt lat="41.4369970" lon="2.0477890">
        <ele>163.2</ele>
        <time>2018-04-10T06:55:03Z</time>
      </trkpt>
      <trkpt lat="41.4368880" lon="2.0477180">
        <ele>162.0</ele>
        <time>2018-04-10T06:55:04Z</time>
      </trkpt>
      <trkpt lat="41.4367920" lon="2.0476490">
        <ele>160.6</ele>
        <time>2018-04-10T06:55:05Z</time>
      </trkpt>
      <trkpt lat="41.4367010" lon="2.0475940">
        <ele>159.2</ele>
        <time>2018-04-10T06:55:06Z</time>
      </trkpt>
      <trkpt lat="41.4366140" lon="2.0475550">
        <ele>158.2</ele>
        <time>2018-04-10T06:55:07Z</time>
      </trkpt>
      <trkpt lat="41.4364430" lon="2.0475610">
        <ele>156.0</ele>
        <time>2018-04-10T06:55:09Z</time>
      </trkpt>
      <trkpt lat="41.4363610" lon="2.0476110">
        <ele>154.6</ele>
        <time>2018-04-10T06:55:10Z</time>
      </trkpt>
      <trkpt lat="41.4362800" lon="2.0476690">
        <ele>153.0</ele>
        <time>2018-04-10T06:55:11Z</time>
      </trkpt>
      <trkpt lat="41.4361900" lon="2.0477230">
        <ele>150.4</ele>
        <time>2018-04-10T06:55:12Z</time>
      </trkpt>
      <trkpt lat="41.4360960" lon="2.0477560">
        <ele>149.4</ele>
        <time>2018-04-10T06:55:13Z</time>
      </trkpt>
      <trkpt lat="41.4359990" lon="2.0477700">
        <ele>148.8</ele>
        <time>2018-04-10T06:55:14Z</time>
      </trkpt>
      <trkpt lat="41.4359030" lon="2.0477680">
        <ele>148.2</ele>
        <time>2018-04-10T06:55:15Z</time>
      </trkpt>
      <trkpt lat="41.4358090" lon="2.0477570">
        <ele>147.6</ele>
        <time>2018-04-10T06:55:16Z</time>
      </trkpt>
      <trkpt lat="41.4357240" lon="2.0477340">
        <ele>147.2</ele>
        <time>2018-04-10T06:55:17Z</time>
      </trkpt>
      <trkpt lat="41.4355780" lon="2.0476640">
        <ele>146.0</ele>
        <time>2018-04-10T06:55:19Z</time>
      </trkpt>
      <trkpt lat="41.4354640" lon="2.0475690">
        <ele>144.2</ele>
        <time>2018-04-10T06:55:21Z</time>
      </trkpt>
      <trkpt lat="41.4354080" lon="2.0474270">
        <ele>142.8</ele>
        <time>2018-04-10T06:55:23Z</time>
      </trkpt>
      <trkpt lat="41.4354520" lon="2.0472480">
        <ele>141.8</ele>
        <time>2018-04-10T06:55:25Z</time>
      </trkpt>
      <trkpt lat="41.4355740" lon="2.0470840">
        <ele>141.0</ele>
        <time>2018-04-10T06:55:27Z</time>
      </trkpt>
      <trkpt lat="41.4356440" lon="2.0470000">
        <ele>140.6</ele>
        <time>2018-04-10T06:55:28Z</time>
      </trkpt>
      <trkpt lat="41.4357140" lon="2.0469150">
        <ele>139.8</ele>
        <time>2018-04-10T06:55:29Z</time>
      </trkpt>
      <trkpt lat="41.4357830" lon="2.0468310">
        <ele>139.0</ele>
        <time>2018-04-10T06:55:30Z</time>
      </trkpt>
      <trkpt lat="41.4358440" lon="2.0467450">
        <ele>138.2</ele>
        <time>2018-04-10T06:55:31Z</time>
      </trkpt>
      <trkpt lat="41.4358990" lon="2.0466630">
        <ele>137.2</ele>
        <time>2018-04-10T06:55:32Z</time>
      </trkpt>
      <trkpt lat="41.4359500" lon="2.0465830">
        <ele>135.8</ele>
        <time>2018-04-10T06:55:33Z</time>
      </trkpt>
      <trkpt lat="41.4359930" lon="2.0465000">
        <ele>134.6</ele>
        <time>2018-04-10T06:55:34Z</time>
      </trkpt>
      <trkpt lat="41.4360260" lon="2.0464110">
        <ele>133.4</ele>
        <time>2018-04-10T06:55:35Z</time>
      </trkpt>
      <trkpt lat="41.4360500" lon="2.0463200">
        <ele>132.0</ele>
        <time>2018-04-10T06:55:36Z</time>
      </trkpt>
      <trkpt lat="41.4360520" lon="2.0462310">
        <ele>130.6</ele>
        <time>2018-04-10T06:55:37Z</time>
      </trkpt>
      <trkpt lat="41.4360500" lon="2.0461380">
        <ele>129.2</ele>
        <time>2018-04-10T06:55:38Z</time>
      </trkpt>
      <trkpt lat="41.4360470" lon="2.0460430">
        <ele>127.8</ele>
        <time>2018-04-10T06:55:39Z</time>
      </trkpt>
      <trkpt lat="41.4360340" lon="2.0459410">
        <ele>125.4</ele>
        <time>2018-04-10T06:55:40Z</time>
      </trkpt>
      <trkpt lat="41.4360080" lon="2.0458400">
        <ele>124.4</ele>
        <time>2018-04-10T06:55:41Z</time>
      </trkpt>
      <trkpt lat="41.4359790" lon="2.0457300">
        <ele>123.6</ele>
        <time>2018-04-10T06:55:42Z</time>
      </trkpt>
      <trkpt lat="41.4359570" lon="2.0456150">
        <ele>122.8</ele>
        <time>2018-04-10T06:55:43Z</time>
      </trkpt>
      <trkpt lat="41.4359430" lon="2.0454920">
        <ele>122.0</ele>
        <time>2018-04-10T06:55:44Z</time>
      </trkpt>
      <trkpt lat="41.4359320" lon="2.0453570">
        <ele>121.0</ele>
        <time>2018-04-10T06:55:45Z</time>
      </trkpt>
      <trkpt lat="41.4359170" lon="2.0452120">
        <ele>120.2</ele>
        <time>2018-04-10T06:55:46Z</time>
      </trkpt>
      <trkpt lat="41.4358980" lon="2.0450640">
        <ele>119.0</ele>
        <time>2018-04-10T06:55:47Z</time>
      </trkpt>
      <trkpt lat="41.4358760" lon="2.0449190">
        <ele>117.8</ele>
        <time>2018-04-10T06:55:48Z</time>
      </trkpt>
      <trkpt lat="41.4358540" lon="2.0447800">
        <ele>116.6</ele>
        <time>2018-04-10T06:55:49Z</time>
      </trkpt>
      <trkpt lat="41.4358330" lon="2.0446440">
        <ele>115.2</ele>
        <time>2018-04-10T06:55:50Z</time>
      </trkpt>
      <trkpt lat="41.4358110" lon="2.0445210">
        <ele>113.8</ele>
        <time>2018-04-10T06:55:51Z</time>
      </trkpt>
      <trkpt lat="41.4357830" lon="2.0444100">
        <ele>112.4</ele>
        <time>2018-04-10T06:55:52Z</time>
      </trkpt>
      <trkpt lat="41.4357530" lon="2.0443110">
        <ele>110.8</ele>
        <time>2018-04-10T06:55:53Z</time>
      </trkpt>
      <trkpt lat="41.4356930" lon="2.0441370">
        <ele>109.6</ele>
        <time>2018-04-10T06:55:55Z</time>
      </trkpt>
      <trkpt lat="41.4356390" lon="2.0439910">
        <ele>109.4</ele>
        <time>2018-04-10T06:55:57Z</time>
      </trkpt>
      <trkpt lat="41.4355960" lon="2.0438770">
        <ele>109.2</ele>
        <time>2018-04-10T06:55:59Z</time>
      </trkpt>
      <trkpt lat="41.4355570" lon="2.0437820">
        <ele>109.2</ele>
        <time>2018-04-10T06:56:01Z</time>
      </trkpt>
      <trkpt lat="41.4355200" lon="2.0436990">
        <ele>109.4</ele>
        <time>2018-04-10T06:56:03Z</time>
      </trkpt>
      <trkpt lat="41.4354800" lon="2.0436290">
        <ele>110.2</ele>
        <time>2018-04-10T06:56:05Z</time>
      </trkpt>
      <trkpt lat="41.4354250" lon="2.0435690">
        <ele>111.0</ele>
        <time>2018-04-10T06:56:07Z</time>
      </trkpt>
      <trkpt lat="41.4353720" lon="2.0435100">
        <ele>112.4</ele>
        <time>2018-04-10T06:56:09Z</time>
      </trkpt>
      <trkpt lat="41.4353170" lon="2.0434590">
        <ele>113.0</ele>
        <time>2018-04-10T06:56:11Z</time>
      </trkpt>
      <trkpt lat="41.4352600" lon="2.0434130">
        <ele>113.6</ele>
        <time>2018-04-10T06:56:13Z</time>
      </trkpt>
      <trkpt lat="41.4351990" lon="2.0433670">
        <ele>114.2</ele>
        <time>2018-04-10T06:56:15Z</time>
      </trkpt>
      <trkpt lat="41.4351350" lon="2.0433250">
        <ele>114.8</ele>
        <time>2018-04-10T06:56:17Z</time>
      </trkpt>
      <trkpt lat="41.4350770" lon="2.0432990">
        <ele>115.4</ele>
        <time>2018-04-10T06:56:19Z</time>
      </trkpt>
      <trkpt lat="41.4350150" lon="2.0432720">
        <ele>116.0</ele>
        <time>2018-04-10T06:56:21Z</time>
      </trkpt>
      <trkpt lat="41.4349560" lon="2.0432380">
        <ele>116.8</ele>
        <time>2018-04-10T06:56:23Z</time>
      </trkpt>
      <trkpt lat="41.4349260" lon="2.0432250">
        <ele>117.0</ele>
        <time>2018-04-10T06:56:24Z</time>
      </trkpt>
      <trkpt lat="41.4348950" lon="2.0432170">
        <ele>117.4</ele>
        <time>2018-04-10T06:56:25Z</time>
      </trkpt>
      <trkpt lat="41.4348360" lon="2.0431970">
        <ele>118.0</ele>
        <time>2018-04-10T06:56:27Z</time>
      </trkpt>
      <trkpt lat="41.4348100" lon="2.0431880">
        <ele>118.4</ele>
        <time>2018-04-10T06:56:28Z</time>
      </trkpt>
      <trkpt lat="41.4347840" lon="2.0431760">
        <ele>118.6</ele>
        <time>2018-04-10T06:56:29Z</time>
      </trkpt>
      <trkpt lat="41.4347270" lon="2.0431620">
        <ele>119.2</ele>
        <time>2018-04-10T06:56:31Z</time>
      </trkpt>
      <trkpt lat="41.4346940" lon="2.0431530">
        <ele>119.4</ele>
        <time>2018-04-10T06:56:32Z</time>
      </trkpt>
      <trkpt lat="41.4346630" lon="2.0431380">
        <ele>119.8</ele>
        <time>2018-04-10T06:56:33Z</time>
      </trkpt>
      <trkpt lat="41.4346040" lon="2.0431040">
        <ele>120.4</ele>
        <time>2018-04-10T06:56:35Z</time>
      </trkpt>
      <trkpt lat="41.4345410" lon="2.0430730">
        <ele>121.0</ele>
        <time>2018-04-10T06:56:37Z</time>
      </trkpt>
      <trkpt lat="41.4344790" lon="2.0430440">
        <ele>121.8</ele>
        <time>2018-04-10T06:56:39Z</time>
      </trkpt>
      <trkpt lat="41.4344160" lon="2.0430240">
        <ele>122.4</ele>
        <time>2018-04-10T06:56:41Z</time>
      </trkpt>
      <trkpt lat="41.4343510" lon="2.0430110">
        <ele>123.0</ele>
        <time>2018-04-10T06:56:43Z</time>
      </trkpt>
      <trkpt lat="41.4342850" lon="2.0430020">
        <ele>123.6</ele>
        <time>2018-04-10T06:56:45Z</time>
      </trkpt>
      <trkpt lat="41.4342170" lon="2.0430000">
        <ele>124.0</ele>
        <time>2018-04-10T06:56:47Z</time>
      </trkpt>
      <trkpt lat="41.4341530" lon="2.0430000">
        <ele>124.6</ele>
        <time>2018-04-10T06:56:49Z</time>
      </trkpt>
      <trkpt lat="41.4340850" lon="2.0429990">
        <ele>125.2</ele>
        <time>2018-04-10T06:56:51Z</time>
      </trkpt>
      <trkpt lat="41.4340110" lon="2.0429970">
        <ele>125.8</ele>
        <time>2018-04-10T06:56:53Z</time>
      </trkpt>
      <trkpt lat="41.4339380" lon="2.0429680">
        <ele>126.2</ele>
        <time>2018-04-10T06:56:55Z</time>
      </trkpt>
      <trkpt lat="41.4339090" lon="2.0429420">
        <ele>126.4</ele>
        <time>2018-04-10T06:56:56Z</time>
      </trkpt>
      <trkpt lat="41.4338820" lon="2.0429140">
        <ele>126.6</ele>
        <time>2018-04-10T06:56:57Z</time>
      </trkpt>
      <trkpt lat="41.4338430" lon="2.0428460">
        <ele>127.2</ele>
        <time>2018-04-10T06:56:59Z</time>
      </trkpt>
      <trkpt lat="41.4338300" lon="2.0428070">
        <ele>127.6</ele>
        <time>2018-04-10T06:57:00Z</time>
      </trkpt>
      <trkpt lat="41.4338180" lon="2.0427710">
        <ele>127.8</ele>
        <time>2018-04-10T06:57:01Z</time>
      </trkpt>
      <trkpt lat="41.4337860" lon="2.0426960">
        <ele>128.4</ele>
        <time>2018-04-10T06:57:03Z</time>
      </trkpt>
      <trkpt lat="41.4337670" lon="2.0426590">
        <ele>128.6</ele>
        <time>2018-04-10T06:57:04Z</time>
      </trkpt>
      <trkpt lat="41.4337450" lon="2.0426210">
        <ele>129.0</ele>
        <time>2018-04-10T06:57:05Z</time>
      </trkpt>
      <trkpt lat="41.4336980" lon="2.0425560">
        <ele>129.6</ele>
        <time>2018-04-10T06:57:07Z</time>
      </trkpt>
      <trkpt lat="41.4336730" lon="2.0425290">
        <ele>130.4</ele>
        <time>2018-04-10T06:57:08Z</time>
      </trkpt>
      <trkpt lat="41.4336470" lon="2.0425010">
        <ele>130.6</ele>
        <time>2018-04-10T06:57:09Z</time>
      </trkpt>
      <trkpt lat="41.4335860" lon="2.0424560">
        <ele>131.4</ele>
        <time>2018-04-10T06:57:11Z</time>
      </trkpt>
      <trkpt lat="41.4335550" lon="2.0424400">
        <ele>131.6</ele>
        <time>2018-04-10T06:57:12Z</time>
      </trkpt>
      <trkpt lat="41.4335240" lon="2.0424230">
        <ele>132.0</ele>
        <time>2018-04-10T06:57:13Z</time>
      </trkpt>
      <trkpt lat="41.4334670" lon="2.0423740">
        <ele>132.4</ele>
        <time>2018-04-10T06:57:15Z</time>
      </trkpt>
      <trkpt lat="41.4334440" lon="2.0423410">
        <ele>132.8</ele>
        <time>2018-04-10T06:57:16Z</time>
      </trkpt>
      <trkpt lat="41.4334280" lon="2.0423040">
        <ele>133.2</ele>
        <time>2018-04-10T06:57:17Z</time>
      </trkpt>
      <trkpt lat="41.4334090" lon="2.0422220">
        <ele>133.6</ele>
        <time>2018-04-10T06:57:19Z</time>
      </trkpt>
      <trkpt lat="41.4334010" lon="2.0421810">
        <ele>133.8</ele>
        <time>2018-04-10T06:57:20Z</time>
      </trkpt>
      <trkpt lat="41.4333930" lon="2.0421390">
        <ele>134.2</ele>
        <time>2018-04-10T06:57:21Z</time>
      </trkpt>
      <trkpt lat="41.4333710" lon="2.0420520">
        <ele>134.8</ele>
        <time>2018-04-10T06:57:23Z</time>
      </trkpt>
      <trkpt lat="41.4333450" lon="2.0419740">
        <ele>135.4</ele>
        <time>2018-04-10T06:57:25Z</time>
      </trkpt>
      <trkpt lat="41.4333050" lon="2.0419070">
        <ele>136.0</ele>
        <time>2018-04-10T06:57:27Z</time>
      </trkpt>
      <trkpt lat="41.4332550" lon="2.0418630">
        <ele>136.8</ele>
        <time>2018-04-10T06:57:29Z</time>
      </trkpt>
      <trkpt lat="41.4332270" lon="2.0418500">
        <ele>137.0</ele>
        <time>2018-04-10T06:57:30Z</time>
      </trkpt>
      <trkpt lat="41.4331990" lon="2.0418390">
        <ele>137.4</ele>
        <time>2018-04-10T06:57:31Z</time>
      </trkpt>
      <trkpt lat="41.4331460" lon="2.0418180">
        <ele>137.8</ele>
        <time>2018-04-10T06:57:33Z</time>
      </trkpt>
      <trkpt lat="41.4331170" lon="2.0418030">
        <ele>138.2</ele>
        <time>2018-04-10T06:57:34Z</time>
      </trkpt>
      <trkpt lat="41.4330890" lon="2.0417840">
        <ele>138.4</ele>
        <time>2018-04-10T06:57:35Z</time>
      </trkpt>
      <trkpt lat="41.4330340" lon="2.0417460">
        <ele>139.4</ele>
        <time>2018-04-10T06:57:37Z</time>
      </trkpt>
      <trkpt lat="41.4329940" lon="2.0416970">
        <ele>140.0</ele>
        <time>2018-04-10T06:57:39Z</time>
      </trkpt>
      <trkpt lat="41.4329800" lon="2.0416380">
        <ele>140.4</ele>
        <time>2018-04-10T06:57:41Z</time>
      </trkpt>
      <trkpt lat="41.4329740" lon="2.0415860">
        <ele>141.0</ele>
        <time>2018-04-10T06:57:43Z</time>
      </trkpt>
      <trkpt lat="41.4329610" lon="2.0415310">
        <ele>141.8</ele>
        <time>2018-04-10T06:57:45Z</time>
      </trkpt>
      <trkpt lat="41.4329250" lon="2.0414630">
        <ele>142.6</ele>
        <time>2018-04-10T06:57:47Z</time>
      </trkpt>
      <trkpt lat="41.4329080" lon="2.0414310">
        <ele>143.0</ele>
        <time>2018-04-10T06:57:48Z</time>
      </trkpt>
      <trkpt lat="41.4328920" lon="2.0413950">
        <ele>143.2</ele>
        <time>2018-04-10T06:57:49Z</time>
      </trkpt>
      <trkpt lat="41.4328690" lon="2.0413220">
        <ele>144.0</ele>
        <time>2018-04-10T06:57:51Z</time>
      </trkpt>
      <trkpt lat="41.4328500" lon="2.0412440">
        <ele>144.6</ele>
        <time>2018-04-10T06:57:53Z</time>
      </trkpt>
      <trkpt lat="41.4328300" lon="2.0411730">
        <ele>145.2</ele>
        <time>2018-04-10T06:57:55Z</time>
      </trkpt>
      <trkpt lat="41.4328110" lon="2.0411030">
        <ele>145.8</ele>
        <time>2018-04-10T06:57:57Z</time>
      </trkpt>
      <trkpt lat="41.4327830" lon="2.0410250">
        <ele>146.4</ele>
        <time>2018-04-10T06:57:59Z</time>
      </trkpt>
      <trkpt lat="41.4327540" lon="2.0409420">
        <ele>147.0</ele>
        <time>2018-04-10T06:58:01Z</time>
      </trkpt>
      <trkpt lat="41.4327240" lon="2.0408530">
        <ele>147.6</ele>
        <time>2018-04-10T06:58:03Z</time>
      </trkpt>
      <trkpt lat="41.4327030" lon="2.0407630">
        <ele>148.2</ele>
        <time>2018-04-10T06:58:05Z</time>
      </trkpt>
      <trkpt lat="41.4326930" lon="2.0407200">
        <ele>148.8</ele>
        <time>2018-04-10T06:58:06Z</time>
      </trkpt>
      <trkpt lat="41.4326830" lon="2.0406760">
        <ele>149.0</ele>
        <time>2018-04-10T06:58:07Z</time>
      </trkpt>
      <trkpt lat="41.4326700" lon="2.0405870">
        <ele>149.4</ele>
        <time>2018-04-10T06:58:09Z</time>
      </trkpt>
      <trkpt lat="41.4326490" lon="2.0404900">
        <ele>150.0</ele>
        <time>2018-04-10T06:58:11Z</time>
      </trkpt>
      <trkpt lat="41.4326200" lon="2.0403930">
        <ele>150.4</ele>
        <time>2018-04-10T06:58:13Z</time>
      </trkpt>
      <trkpt lat="41.4325930" lon="2.0403020">
        <ele>150.8</ele>
        <time>2018-04-10T06:58:15Z</time>
      </trkpt>
      <trkpt lat="41.4325830" lon="2.0402580">
        <ele>151.0</ele>
        <time>2018-04-10T06:58:16Z</time>
      </trkpt>
      <trkpt lat="41.4325730" lon="2.0402130">
        <ele>151.4</ele>
        <time>2018-04-10T06:58:17Z</time>
      </trkpt>
      <trkpt lat="41.4325580" lon="2.0401210">
        <ele>151.8</ele>
        <time>2018-04-10T06:58:19Z</time>
      </trkpt>
      <trkpt lat="41.4325460" lon="2.0400270">
        <ele>152.2</ele>
        <time>2018-04-10T06:58:21Z</time>
      </trkpt>
      <trkpt lat="41.4325440" lon="2.0399400">
        <ele>152.6</ele>
        <time>2018-04-10T06:58:23Z</time>
      </trkpt>
      <trkpt lat="41.4325440" lon="2.0398520">
        <ele>153.0</ele>
        <time>2018-04-10T06:58:25Z</time>
      </trkpt>
      <trkpt lat="41.4325440" lon="2.0398090">
        <ele>153.4</ele>
        <time>2018-04-10T06:58:26Z</time>
      </trkpt>
      <trkpt lat="41.4325450" lon="2.0397670">
        <ele>153.6</ele>
        <time>2018-04-10T06:58:27Z</time>
      </trkpt>
      <trkpt lat="41.4325440" lon="2.0396810">
        <ele>154.2</ele>
        <time>2018-04-10T06:58:29Z</time>
      </trkpt>
      <trkpt lat="41.4325380" lon="2.0396350">
        <ele>154.4</ele>
        <time>2018-04-10T06:58:30Z</time>
      </trkpt>
      <trkpt lat="41.4325320" lon="2.0395910">
        <ele>154.6</ele>
        <time>2018-04-10T06:58:31Z</time>
      </trkpt>
      <trkpt lat="41.4325070" lon="2.0395100">
        <ele>155.2</ele>
        <time>2018-04-10T06:58:33Z</time>
      </trkpt>
      <trkpt lat="41.4324890" lon="2.0394710">
        <ele>155.4</ele>
        <time>2018-04-10T06:58:34Z</time>
      </trkpt>
      <trkpt lat="41.4324670" lon="2.0394310">
        <ele>155.6</ele>
        <time>2018-04-10T06:58:35Z</time>
      </trkpt>
      <trkpt lat="41.4324140" lon="2.0393560">
        <ele>156.2</ele>
        <time>2018-04-10T06:58:37Z</time>
      </trkpt>
      <trkpt lat="41.4323530" lon="2.0392900">
        <ele>156.6</ele>
        <time>2018-04-10T06:58:39Z</time>
      </trkpt>
      <trkpt lat="41.4322890" lon="2.0392110">
        <ele>156.8</ele>
        <time>2018-04-10T06:58:41Z</time>
      </trkpt>
      <trkpt lat="41.4322430" lon="2.0391250">
        <ele>157.4</ele>
        <time>2018-04-10T06:58:43Z</time>
      </trkpt>
      <trkpt lat="41.4322290" lon="2.0390780">
        <ele>157.6</ele>
        <time>2018-04-10T06:58:44Z</time>
      </trkpt>
      <trkpt lat="41.4322200" lon="2.0390300">
        <ele>157.8</ele>
        <time>2018-04-10T06:58:45Z</time>
      </trkpt>
      <trkpt lat="41.4322310" lon="2.0389360">
        <ele>158.4</ele>
        <time>2018-04-10T06:58:47Z</time>
      </trkpt>
      <trkpt lat="41.4322510" lon="2.0388520">
        <ele>158.6</ele>
        <time>2018-04-10T06:58:49Z</time>
      </trkpt>
      <trkpt lat="41.4322800" lon="2.0387750">
        <ele>159.2</ele>
        <time>2018-04-10T06:58:51Z</time>
      </trkpt>
      <trkpt lat="41.4323010" lon="2.0386910">
        <ele>159.8</ele>
        <time>2018-04-10T06:58:53Z</time>
      </trkpt>
      <trkpt lat="41.4323010" lon="2.0386100">
        <ele>160.4</ele>
        <time>2018-04-10T06:58:55Z</time>
      </trkpt>
      <trkpt lat="41.4322900" lon="2.0385740">
        <ele>160.8</ele>
        <time>2018-04-10T06:58:56Z</time>
      </trkpt>
      <trkpt lat="41.4322690" lon="2.0385410">
        <ele>161.0</ele>
        <time>2018-04-10T06:58:57Z</time>
      </trkpt>
      <trkpt lat="41.4322220" lon="2.0385100">
        <ele>161.6</ele>
        <time>2018-04-10T06:58:59Z</time>
      </trkpt>
      <trkpt lat="41.4321730" lon="2.0385230">
        <ele>162.2</ele>
        <time>2018-04-10T06:59:01Z</time>
      </trkpt>
      <trkpt lat="41.4321360" lon="2.0385600">
        <ele>162.6</ele>
        <time>2018-04-10T06:59:03Z</time>
      </trkpt>
      <trkpt lat="41.4321050" lon="2.0386110">
        <ele>163.6</ele>
        <time>2018-04-10T06:59:05Z</time>
      </trkpt>
      <trkpt lat="41.4320800" lon="2.0386790">
        <ele>164.4</ele>
        <time>2018-04-10T06:59:07Z</time>
      </trkpt>
      <trkpt lat="41.4320690" lon="2.0387120">
        <ele>164.6</ele>
        <time>2018-04-10T06:59:08Z</time>
      </trkpt>
      <trkpt lat="41.4320550" lon="2.0387450">
        <ele>165.0</ele>
        <time>2018-04-10T06:59:09Z</time>
      </trkpt>
      <trkpt lat="41.4320220" lon="2.0388100">
        <ele>165.6</ele>
        <time>2018-04-10T06:59:11Z</time>
      </trkpt>
      <trkpt lat="41.4320060" lon="2.0388430">
        <ele>165.8</ele>
        <time>2018-04-10T06:59:12Z</time>
      </trkpt>
      <trkpt lat="41.4319930" lon="2.0388780">
        <ele>166.0</ele>
        <time>2018-04-10T06:59:13Z</time>
      </trkpt>
      <trkpt lat="41.4319780" lon="2.0389450">
        <ele>166.8</ele>
        <time>2018-04-10T06:59:15Z</time>
      </trkpt>
      <trkpt lat="41.4319770" lon="2.0390320">
        <ele>167.6</ele>
        <time>2018-04-10T06:59:17Z</time>
      </trkpt>
      <trkpt lat="41.4319810" lon="2.0390750">
        <ele>168.0</ele>
        <time>2018-04-10T06:59:18Z</time>
      </trkpt>
      <trkpt lat="41.4319850" lon="2.0391190">
        <ele>168.4</ele>
        <time>2018-04-10T06:59:19Z</time>
      </trkpt>
      <trkpt lat="41.4319980" lon="2.0392060">
        <ele>169.0</ele>
        <time>2018-04-10T06:59:21Z</time>
      </trkpt>
      <trkpt lat="41.4320060" lon="2.0392500">
        <ele>169.2</ele>
        <time>2018-04-10T06:59:22Z</time>
      </trkpt>
      <trkpt lat="41.4320170" lon="2.0392930">
        <ele>169.6</ele>
        <time>2018-04-10T06:59:23Z</time>
      </trkpt>
      <trkpt lat="41.4320440" lon="2.0393710">
        <ele>170.2</ele>
        <time>2018-04-10T06:59:25Z</time>
      </trkpt>
      <trkpt lat="41.4320600" lon="2.0394070">
        <ele>170.4</ele>
        <time>2018-04-10T06:59:26Z</time>
      </trkpt>
      <trkpt lat="41.4320760" lon="2.0394440">
        <ele>170.6</ele>
        <time>2018-04-10T06:59:27Z</time>
      </trkpt>
      <trkpt lat="41.4320910" lon="2.0395230">
        <ele>171.2</ele>
        <time>2018-04-10T06:59:29Z</time>
      </trkpt>
      <trkpt lat="41.4320770" lon="2.0395570">
        <ele>171.6</ele>
        <time>2018-04-10T06:59:30Z</time>
      </trkpt>
      <trkpt lat="41.4320550" lon="2.0395770">
        <ele>171.8</ele>
        <time>2018-04-10T06:59:31Z</time>
      </trkpt>
      <trkpt lat="41.4320030" lon="2.0395850">
        <ele>172.4</ele>
        <time>2018-04-10T06:59:33Z</time>
      </trkpt>
      <trkpt lat="41.4319820" lon="2.0395760">
        <ele>172.8</ele>
        <time>2018-04-10T06:59:34Z</time>
      </trkpt>
      <trkpt lat="41.4319650" lon="2.0395620">
        <ele>173.4</ele>
        <time>2018-04-10T06:59:35Z</time>
      </trkpt>
      <trkpt lat="41.4319350" lon="2.0395170">
        <ele>173.8</ele>
        <time>2018-04-10T06:59:37Z</time>
      </trkpt>
      <trkpt lat="41.4319100" lon="2.0394690">
        <ele>174.4</ele>
        <time>2018-04-10T06:59:39Z</time>
      </trkpt>
      <trkpt lat="41.4318970" lon="2.0394470">
        <ele>174.8</ele>
        <time>2018-04-10T06:59:40Z</time>
      </trkpt>
      <trkpt lat="41.4318820" lon="2.0394210">
        <ele>175.2</ele>
        <time>2018-04-10T06:59:41Z</time>
      </trkpt>
      <trkpt lat="41.4318550" lon="2.0393700">
        <ele>176.0</ele>
        <time>2018-04-10T06:59:43Z</time>
      </trkpt>
      <trkpt lat="41.4318290" lon="2.0393150">
        <ele>176.8</ele>
        <time>2018-04-10T06:59:45Z</time>
      </trkpt>
      <trkpt lat="41.4318150" lon="2.0392860">
        <ele>177.2</ele>
        <time>2018-04-10T06:59:46Z</time>
      </trkpt>
      <trkpt lat="41.4318010" lon="2.0392580">
        <ele>177.8</ele>
        <time>2018-04-10T06:59:47Z</time>
      </trkpt>
      <trkpt lat="41.4317750" lon="2.0392010">
        <ele>178.6</ele>
        <time>2018-04-10T06:59:49Z</time>
      </trkpt>
      <trkpt lat="41.4317450" lon="2.0391400">
        <ele>179.4</ele>
        <time>2018-04-10T06:59:51Z</time>
      </trkpt>
      <trkpt lat="41.4317320" lon="2.0391150">
        <ele>179.6</ele>
        <time>2018-04-10T06:59:52Z</time>
      </trkpt>
      <trkpt lat="41.4317190" lon="2.0390920">
        <ele>180.0</ele>
        <time>2018-04-10T06:59:53Z</time>
      </trkpt>
      <trkpt lat="41.4316850" lon="2.0390400">
        <ele>180.6</ele>
        <time>2018-04-10T06:59:55Z</time>
      </trkpt>
      <trkpt lat="41.4316690" lon="2.0390140">
        <ele>181.0</ele>
        <time>2018-04-10T06:59:56Z</time>
      </trkpt>
      <trkpt lat="41.4316520" lon="2.0389870">
        <ele>181.2</ele>
        <time>2018-04-10T06:59:57Z</time>
      </trkpt>
      <trkpt lat="41.4316100" lon="2.0389370">
        <ele>181.8</ele>
        <time>2018-04-10T06:59:59Z</time>
      </trkpt>
      <trkpt lat="41.4315860" lon="2.0389160">
        <ele>182.0</ele>
        <time>2018-04-10T07:00:00Z</time>
      </trkpt>
      <trkpt lat="41.4315620" lon="2.0388970">
        <ele>182.2</ele>
        <time>2018-04-10T07:00:01Z</time>
      </trkpt>
      <trkpt lat="41.4315120" lon="2.0388580">
        <ele>183.0</ele>
        <time>2018-04-10T07:00:03Z</time>
      </trkpt>
      <trkpt lat="41.4314880" lon="2.0388380">
        <ele>183.6</ele>
        <time>2018-04-10T07:00:04Z</time>
      </trkpt>
      <trkpt lat="41.4314630" lon="2.0388170">
        <ele>184.0</ele>
        <time>2018-04-10T07:00:05Z</time>
      </trkpt>
      <trkpt lat="41.4314140" lon="2.0387750">
        <ele>184.6</ele>
        <time>2018-04-10T07:00:07Z</time>
      </trkpt>
      <trkpt lat="41.4313890" lon="2.0387560">
        <ele>184.8</ele>
        <time>2018-04-10T07:00:08Z</time>
      </trkpt>
      <trkpt lat="41.4313610" lon="2.0387380">
        <ele>185.0</ele>
        <time>2018-04-10T07:00:09Z</time>
      </trkpt>
      <trkpt lat="41.4313040" lon="2.0387120">
        <ele>185.6</ele>
        <time>2018-04-10T07:00:11Z</time>
      </trkpt>
      <trkpt lat="41.4312740" lon="2.0387010">
        <ele>185.8</ele>
        <time>2018-04-10T07:00:12Z</time>
      </trkpt>
      <trkpt lat="41.4312430" lon="2.0386920">
        <ele>186.2</ele>
        <time>2018-04-10T07:00:13Z</time>
      </trkpt>
      <trkpt lat="41.4311800" lon="2.0386880">
        <ele>187.0</ele>
        <time>2018-04-10T07:00:15Z</time>
      </trkpt>
      <trkpt lat="41.4311160" lon="2.0386870">
        <ele>187.8</ele>
        <time>2018-04-10T07:00:17Z</time>
      </trkpt>
      <trkpt lat="41.4310860" lon="2.0386820">
        <ele>188.2</ele>
        <time>2018-04-10T07:00:18Z</time>
      </trkpt>
      <trkpt lat="41.4310570" lon="2.0386730">
        <ele>188.4</ele>
        <time>2018-04-10T07:00:19Z</time>
      </trkpt>
      <trkpt lat="41.4310000" lon="2.0386510">
        <ele>189.0</ele>
        <time>2018-04-10T07:00:21Z</time>
      </trkpt>
      <trkpt lat="41.4309720" lon="2.0386370">
        <ele>189.4</ele>
        <time>2018-04-10T07:00:22Z</time>
      </trkpt>
      <trkpt lat="41.4309440" lon="2.0386220">
        <ele>189.6</ele>
        <time>2018-04-10T07:00:23Z</time>
      </trkpt>
      <trkpt lat="41.4308890" lon="2.0385970">
        <ele>190.0</ele>
        <time>2018-04-10T07:00:25Z</time>
      </trkpt>
      <trkpt lat="41.4308360" lon="2.0385660">
        <ele>190.4</ele>
        <time>2018-04-10T07:00:27Z</time>
      </trkpt>
      <trkpt lat="41.4307850" lon="2.0385280">
        <ele>190.8</ele>
        <time>2018-04-10T07:00:29Z</time>
      </trkpt>
      <trkpt lat="41.4307300" lon="2.0384900">
        <ele>191.2</ele>
        <time>2018-04-10T07:00:31Z</time>
      </trkpt>
      <trkpt lat="41.4307030" lon="2.0384710">
        <ele>191.6</ele>
        <time>2018-04-10T07:00:32Z</time>
      </trkpt>
      <trkpt lat="41.4306770" lon="2.0384510">
        <ele>191.8</ele>
        <time>2018-04-10T07:00:33Z</time>
      </trkpt>
      <trkpt lat="41.4306260" lon="2.0384080">
        <ele>192.6</ele>
        <time>2018-04-10T07:00:35Z</time>
      </trkpt>
      <trkpt lat="41.4305740" lon="2.0383670">
        <ele>193.2</ele>
        <time>2018-04-10T07:00:37Z</time>
      </trkpt>
      <trkpt lat="41.4305230" lon="2.0383280">
        <ele>193.8</ele>
        <time>2018-04-10T07:00:39Z</time>
      </trkpt>
      <trkpt lat="41.4304780" lon="2.0382970">
        <ele>194.4</ele>
        <time>2018-04-10T07:00:41Z</time>
      </trkpt>
      <trkpt lat="41.4304310" lon="2.0382470">
        <ele>195.0</ele>
        <time>2018-04-10T07:00:43Z</time>
      </trkpt>
      <trkpt lat="41.4303890" lon="2.0381940">
        <ele>195.6</ele>
        <time>2018-04-10T07:00:45Z</time>
      </trkpt>
      <trkpt lat="41.4303510" lon="2.0381470">
        <ele>196.2</ele>
        <time>2018-04-10T07:00:47Z</time>
      </trkpt>
      <trkpt lat="41.4303070" lon="2.0380970">
        <ele>196.6</ele>
        <time>2018-04-10T07:00:49Z</time>
      </trkpt>
      <trkpt lat="41.4302540" lon="2.0380470">
        <ele>197.2</ele>
        <time>2018-04-10T07:00:51Z</time>
      </trkpt>
      <trkpt lat="41.4301980" lon="2.0380200">
        <ele>197.8</ele>
        <time>2018-04-10T07:00:53Z</time>
      </trkpt>
      <trkpt lat="41.4301460" lon="2.0380060">
        <ele>198.4</ele>
        <time>2018-04-10T07:00:55Z</time>
      </trkpt>
      <trkpt lat="41.4300910" lon="2.0380160">
        <ele>199.2</ele>
        <time>2018-04-10T07:00:57Z</time>
      </trkpt>
      <trkpt lat="41.4300640" lon="2.0380300">
        <ele>199.6</ele>
        <time>2018-04-10T07:00:58Z</time>
      </trkpt>
      <trkpt lat="41.4300340" lon="2.0380480">
        <ele>199.8</ele>
        <time>2018-04-10T07:00:59Z</time>
      </trkpt>
      <trkpt lat="41.4299720" lon="2.0380970">
        <ele>200.4</ele>
        <time>2018-04-10T07:01:01Z</time>
      </trkpt>
      <trkpt lat="41.4299400" lon="2.0381290">
        <ele>200.8</ele>
        <time>2018-04-10T07:01:02Z</time>
      </trkpt>
      <trkpt lat="41.4299080" lon="2.0381690">
        <ele>201.2</ele>
        <time>2018-04-10T07:01:03Z</time>
      </trkpt>
      <trkpt lat="41.4298700" lon="2.0382050">
        <ele>201.4</ele>
        <time>2018-04-10T07:01:04Z</time>
      </trkpt>
      <trkpt lat="41.4298260" lon="2.0382310">
        <ele>201.4</ele>
        <time>2018-04-10T07:01:05Z</time>
      </trkpt>
      <trkpt lat="41.4297250" lon="2.0382690">
        <ele>201.4</ele>
        <time>2018-04-10T07:01:07Z</time>
      </trkpt>
      <trkpt lat="41.4296780" lon="2.0382730">
        <ele>201.4</ele>
        <time>2018-04-10T07:01:08Z</time>
      </trkpt>
      <trkpt lat="41.4296310" lon="2.0382820">
        <ele>201.4</ele>
        <time>2018-04-10T07:01:09Z</time>
      </trkpt>
      <trkpt lat="41.4295840" lon="2.0382970">
        <ele>201.4</ele>
        <time>2018-04-10T07:01:10Z</time>
      </trkpt>
      <trkpt lat="41.4295390" lon="2.0383150">
        <ele>201.4</ele>
        <time>2018-04-10T07:01:11Z</time>
      </trkpt>
      <trkpt lat="41.4294970" lon="2.0383420">
        <ele>201.4</ele>
        <time>2018-04-10T07:01:12Z</time>
      </trkpt>
      <trkpt lat="41.4294590" lon="2.0383690">
        <ele>201.6</ele>
        <time>2018-04-10T07:01:13Z</time>
      </trkpt>
      <trkpt lat="41.4293850" lon="2.0384130">
        <ele>201.6</ele>
        <time>2018-04-10T07:01:15Z</time>
      </trkpt>
      <trkpt lat="41.4293000" lon="2.0384320">
        <ele>201.6</ele>
        <time>2018-04-10T07:01:17Z</time>
      </trkpt>
      <trkpt lat="41.4291940" lon="2.0384260">
        <ele>201.6</ele>
        <time>2018-04-10T07:01:19Z</time>
      </trkpt>
      <trkpt lat="41.4290850" lon="2.0384130">
        <ele>201.6</ele>
        <time>2018-04-10T07:01:21Z</time>
      </trkpt>
      <trkpt lat="41.4290320" lon="2.0384070">
        <ele>201.8</ele>
        <time>2018-04-10T07:01:22Z</time>
      </trkpt>
      <trkpt lat="41.4289840" lon="2.0383970">
        <ele>202.0</ele>
        <time>2018-04-10T07:01:23Z</time>
      </trkpt>
      <trkpt lat="41.4288860" lon="2.0383800">
        <ele>202.2</ele>
        <time>2018-04-10T07:01:25Z</time>
      </trkpt>
      <trkpt lat="41.4287850" lon="2.0383940">
        <ele>202.4</ele>
        <time>2018-04-10T07:01:27Z</time>
      </trkpt>
      <trkpt lat="41.4287040" lon="2.0384650">
        <ele>202.8</ele>
        <time>2018-04-10T07:01:29Z</time>
      </trkpt>
      <trkpt lat="41.4286730" lon="2.0385180">
        <ele>203.0</ele>
        <time>2018-04-10T07:01:30Z</time>
      </trkpt>
      <trkpt lat="41.4286500" lon="2.0385730">
        <ele>203.2</ele>
        <time>2018-04-10T07:01:31Z</time>
      </trkpt>
      <trkpt lat="41.4286250" lon="2.0387030">
        <ele>204.0</ele>
        <time>2018-04-10T07:01:33Z</time>
      </trkpt>
      <trkpt lat="41.4286200" lon="2.0387760">
        <ele>204.0</ele>
        <time>2018-04-10T07:01:34Z</time>
      </trkpt>
      <trkpt lat="41.4286170" lon="2.0388510">
        <ele>204.0</ele>
        <time>2018-04-10T07:01:35Z</time>
      </trkpt>
      <trkpt lat="41.4286080" lon="2.0390070">
        <ele>204.2</ele>
        <time>2018-04-10T07:01:37Z</time>
      </trkpt>
      <trkpt lat="41.4285940" lon="2.0391700">
        <ele>204.2</ele>
        <time>2018-04-10T07:01:39Z</time>
      </trkpt>
      <trkpt lat="41.4285840" lon="2.0393370">
        <ele>204.2</ele>
        <time>2018-04-10T07:01:41Z</time>
      </trkpt>
      <trkpt lat="41.4285860" lon="2.0394220">
        <ele>204.2</ele>
        <time>2018-04-10T07:01:42Z</time>
      </trkpt>
      <trkpt lat="41.4285950" lon="2.0395080">
        <ele>204.0</ele>
        <time>2018-04-10T07:01:43Z</time>
      </trkpt>
      <trkpt lat="41.4286200" lon="2.0396800">
        <ele>203.8</ele>
        <time>2018-04-10T07:01:45Z</time>
      </trkpt>
      <trkpt lat="41.4286410" lon="2.0398490">
        <ele>203.4</ele>
        <time>2018-04-10T07:01:47Z</time>
      </trkpt>
      <trkpt lat="41.4286860" lon="2.0400060">
        <ele>203.0</ele>
        <time>2018-04-10T07:01:49Z</time>
      </trkpt>
      <trkpt lat="41.4287330" lon="2.0401580">
        <ele>202.6</ele>
        <time>2018-04-10T07:01:51Z</time>
      </trkpt>
      <trkpt lat="41.4287640" lon="2.0403110">
        <ele>202.4</ele>
        <time>2018-04-10T07:01:53Z</time>
      </trkpt>
      <trkpt lat="41.4287330" lon="2.0404530">
        <ele>202.2</ele>
        <time>2018-04-10T07:01:55Z</time>
      </trkpt>
      <trkpt lat="41.4286370" lon="2.0405390">
        <ele>202.2</ele>
        <time>2018-04-10T07:01:57Z</time>
      </trkpt>
      <trkpt lat="41.4285040" lon="2.0405510">
        <ele>202.0</ele>
        <time>2018-04-10T07:01:59Z</time>
      </trkpt>
      <trkpt lat="41.4284280" lon="2.0405450">
        <ele>202.0</ele>
        <time>2018-04-10T07:02:00Z</time>
      </trkpt>
      <trkpt lat="41.4283460" lon="2.0405390">
        <ele>201.6</ele>
        <time>2018-04-10T07:02:01Z</time>
      </trkpt>
      <trkpt lat="41.4281750" lon="2.0405190">
        <ele>201.2</ele>
        <time>2018-04-10T07:02:03Z</time>
      </trkpt>
      <trkpt lat="41.4280080" lon="2.0404740">
        <ele>200.6</ele>
        <time>2018-04-10T07:02:05Z</time>
      </trkpt>
      <trkpt lat="41.4278640" lon="2.0403730">
        <ele>199.6</ele>
        <time>2018-04-10T07:02:07Z</time>
      </trkpt>
      <trkpt lat="41.4278050" lon="2.0403150">
        <ele>199.0</ele>
        <time>2018-04-10T07:02:08Z</time>
      </trkpt>
      <trkpt lat="41.4277530" lon="2.0402590">
        <ele>198.2</ele>
        <time>2018-04-10T07:02:09Z</time>
      </trkpt>
      <trkpt lat="41.4277070" lon="2.0402060">
        <ele>197.6</ele>
        <time>2018-04-10T07:02:10Z</time>
      </trkpt>
      <trkpt lat="41.4276630" lon="2.0401550">
        <ele>196.8</ele>
        <time>2018-04-10T07:02:11Z</time>
      </trkpt>
      <trkpt lat="41.4276210" lon="2.0401010">
        <ele>196.0</ele>
        <time>2018-04-10T07:02:12Z</time>
      </trkpt>
      <trkpt lat="41.4275880" lon="2.0400370">
        <ele>195.2</ele>
        <time>2018-04-10T07:02:13Z</time>
      </trkpt>
      <trkpt lat="41.4275580" lon="2.0399660">
        <ele>194.2</ele>
        <time>2018-04-10T07:02:14Z</time>
      </trkpt>
      <trkpt lat="41.4275350" lon="2.0399050">
        <ele>193.4</ele>
        <time>2018-04-10T07:02:15Z</time>
      </trkpt>
      <trkpt lat="41.4275150" lon="2.0398630">
        <ele>192.6</ele>
        <time>2018-04-10T07:02:16Z</time>
      </trkpt>
      <trkpt lat="41.4275000" lon="2.0398380">
        <ele>191.8</ele>
        <time>2018-04-10T07:02:17Z</time>
      </trkpt>
      <trkpt lat="41.4274930" lon="2.0398250">
        <ele>191.0</ele>
        <time>2018-04-10T07:02:18Z</time>
      </trkpt>
      <trkpt lat="41.4274920" lon="2.0398220">
        <ele>190.4</ele>
        <time>2018-04-10T07:02:19Z</time>
      </trkpt>
      <trkpt lat="41.4274910" lon="2.0398210">
        <ele>189.8</ele>
        <time>2018-04-10T07:02:20Z</time>
      </trkpt>
      <trkpt lat="41.4274930" lon="2.0398220">
        <ele>189.2</ele>
        <time>2018-04-10T07:02:21Z</time>
      </trkpt>
      <trkpt lat="41.4274930" lon="2.0398220">
        <ele>188.6</ele>
        <time>2018-04-10T07:02:22Z</time>
      </trkpt>
      <trkpt lat="41.4274910" lon="2.0398220">
        <ele>188.0</ele>
        <time>2018-04-10T07:02:23Z</time>
      </trkpt>
      <trkpt lat="41.4274890" lon="2.0398230">
        <ele>187.6</ele>
        <time>2018-04-10T07:02:24Z</time>
      </trkpt>
      <trkpt lat="41.4274910" lon="2.0398340">
        <ele>185.4</ele>
        <time>2018-04-10T07:04:14Z</time>
      </trkpt>
      <trkpt lat="41.4274910" lon="2.0398340">
        <ele>185.4</ele>
        <time>2018-04-10T07:04:15Z</time>
      </trkpt>
      <trkpt lat="41.4274900" lon="2.0398340">
        <ele>185.4</ele>
        <time>2018-04-10T07:04:16Z</time>
      </trkpt>
      <trkpt lat="41.4274750" lon="2.0398280">
        <ele>185.4</ele>
        <time>2018-04-10T07:04:17Z</time>
      </trkpt>
      <trkpt lat="41.4274290" lon="2.0397910">
        <ele>185.4</ele>
        <time>2018-04-10T07:04:19Z</time>
      </trkpt>
      <trkpt lat="41.4273990" lon="2.0397590">
        <ele>185.4</ele>
        <time>2018-04-10T07:04:20Z</time>
      </trkpt>
      <trkpt lat="41.4273630" lon="2.0397180">
        <ele>185.4</ele>
        <time>2018-04-10T07:04:21Z</time>
      </trkpt>
      <trkpt lat="41.4272840" lon="2.0396090">
        <ele>185.2</ele>
        <time>2018-04-10T07:04:23Z</time>
      </trkpt>
      <trkpt lat="41.4271920" lon="2.0394840">
        <ele>185.2</ele>
        <time>2018-04-10T07:04:25Z</time>
      </trkpt>
      <trkpt lat="41.4270920" lon="2.0393400">
        <ele>184.8</ele>
        <time>2018-04-10T07:04:27Z</time>
      </trkpt>
      <trkpt lat="41.4269840" lon="2.0391760">
        <ele>184.2</ele>
        <time>2018-04-10T07:04:29Z</time>
      </trkpt>
      <trkpt lat="41.4269300" lon="2.0390890">
        <ele>183.8</ele>
        <time>2018-04-10T07:04:30Z</time>
      </trkpt>
      <trkpt lat="41.4268780" lon="2.0389950">
        <ele>183.2</ele>
        <time>2018-04-10T07:04:31Z</time>
      </trkpt>
      <trkpt lat="41.4267700" lon="2.0387930">
        <ele>182.4</ele>
        <time>2018-04-10T07:04:33Z</time>
      </trkpt>
      <trkpt lat="41.4266570" lon="2.0385830">
        <ele>181.4</ele>
        <time>2018-04-10T07:04:35Z</time>
      </trkpt>
      <trkpt lat="41.4265970" lon="2.0384750">
        <ele>181.0</ele>
        <time>2018-04-10T07:04:36Z</time>
      </trkpt>
      <trkpt lat="41.4265370" lon="2.0383670">
        <ele>180.6</ele>
        <time>2018-04-10T07:04:37Z</time>
      </trkpt>
      <trkpt lat="41.4264820" lon="2.0382550">
        <ele>180.0</ele>
        <time>2018-04-10T07:04:38Z</time>
      </trkpt>
      <trkpt lat="41.4264320" lon="2.0381400">
        <ele>179.4</ele>
        <time>2018-04-10T07:04:39Z</time>
      </trkpt>
      <trkpt lat="41.4263860" lon="2.0380190">
        <ele>178.8</ele>
        <time>2018-04-10T07:04:40Z</time>
      </trkpt>
      <trkpt lat="41.4263430" lon="2.0378910">
        <ele>178.2</ele>
        <time>2018-04-10T07:04:41Z</time>
      </trkpt>
      <trkpt lat="41.4263060" lon="2.0377620">
        <ele>177.6</ele>
        <time>2018-04-10T07:04:42Z</time>
      </trkpt>
      <trkpt lat="41.4262710" lon="2.0376250">
        <ele>177.0</ele>
        <time>2018-04-10T07:04:43Z</time>
      </trkpt>
      <trkpt lat="41.4262410" lon="2.0374830">
        <ele>176.4</ele>
        <time>2018-04-10T07:04:44Z</time>
      </trkpt>
      <trkpt lat="41.4262170" lon="2.0373360">
        <ele>176.0</ele>
        <time>2018-04-10T07:04:45Z</time>
      </trkpt>
      <trkpt lat="41.4261990" lon="2.0371830">
        <ele>175.4</ele>
        <time>2018-04-10T07:04:46Z</time>
      </trkpt>
      <trkpt lat="41.4261880" lon="2.0370270">
        <ele>174.8</ele>
        <time>2018-04-10T07:04:47Z</time>
      </trkpt>
      <trkpt lat="41.4261820" lon="2.0368650">
        <ele>174.2</ele>
        <time>2018-04-10T07:04:48Z</time>
      </trkpt>
      <trkpt lat="41.4261840" lon="2.0367010">
        <ele>173.8</ele>
        <time>2018-04-10T07:04:49Z</time>
      </trkpt>
      <trkpt lat="41.4261890" lon="2.0365330">
        <ele>173.2</ele>
        <time>2018-04-10T07:04:50Z</time>
      </trkpt>
      <trkpt lat="41.4261910" lon="2.0363620">
        <ele>172.4</ele>
        <time>2018-04-10T07:04:51Z</time>
      </trkpt>
      <trkpt lat="41.4261850" lon="2.0361910">
        <ele>171.6</ele>
        <time>2018-04-10T07:04:52Z</time>
      </trkpt>
      <trkpt lat="41.4261680" lon="2.0360220">
        <ele>170.8</ele>
        <time>2018-04-10T07:04:53Z</time>
      </trkpt>
      <trkpt lat="41.4261350" lon="2.0358590">
        <ele>169.0</ele>
        <time>2018-04-10T07:04:54Z</time>
      </trkpt>
      <trkpt lat="41.4260810" lon="2.0357060">
        <ele>168.2</ele>
        <time>2018-04-10T07:04:55Z</time>
      </trkpt>
      <trkpt lat="41.4260090" lon="2.0355680">
        <ele>167.0</ele>
        <time>2018-04-10T07:04:56Z</time>
      </trkpt>
      <trkpt lat="41.4259220" lon="2.0354420">
        <ele>165.8</ele>
        <time>2018-04-10T07:04:57Z</time>
      </trkpt>
      <trkpt lat="41.4258250" lon="2.0353320">
        <ele>164.6</ele>
        <time>2018-04-10T07:04:58Z</time>
      </trkpt>
      <trkpt lat="41.4257260" lon="2.0352310">
        <ele>163.4</ele>
        <time>2018-04-10T07:04:59Z</time>
      </trkpt>
      <trkpt lat="41.4256350" lon="2.0351180">
        <ele>162.4</ele>
        <time>2018-04-10T07:05:00Z</time>
      </trkpt>
      <trkpt lat="41.4255580" lon="2.0349900">
        <ele>161.4</ele>
        <time>2018-04-10T07:05:01Z</time>
      </trkpt>
      <trkpt lat="41.4254870" lon="2.0348560">
        <ele>160.6</ele>
        <time>2018-04-10T07:05:02Z</time>
      </trkpt>
      <trkpt lat="41.4254220" lon="2.0347150">
        <ele>159.6</ele>
        <time>2018-04-10T07:05:03Z</time>
      </trkpt>
      <trkpt lat="41.4253590" lon="2.0345720">
        <ele>159.0</ele>
        <time>2018-04-10T07:05:04Z</time>
      </trkpt>
      <trkpt lat="41.4253000" lon="2.0344270">
        <ele>158.2</ele>
        <time>2018-04-10T07:05:05Z</time>
      </trkpt>
      <trkpt lat="41.4252380" lon="2.0342810">
        <ele>157.4</ele>
        <time>2018-04-10T07:05:06Z</time>
      </trkpt>
      <trkpt lat="41.4251760" lon="2.0341330">
        <ele>156.8</ele>
        <time>2018-04-10T07:05:07Z</time>
      </trkpt>
      <trkpt lat="41.4251130" lon="2.0339840">
        <ele>156.0</ele>
        <time>2018-04-10T07:05:08Z</time>
      </trkpt>
      <trkpt lat="41.4250520" lon="2.0338360">
        <ele>155.2</ele>
        <time>2018-04-10T07:05:09Z</time>
      </trkpt>
      <trkpt lat="41.4249920" lon="2.0336880">
        <ele>154.4</ele>
        <time>2018-04-10T07:05:10Z</time>
      </trkpt>
      <trkpt lat="41.4249300" lon="2.0335410">
        <ele>153.6</ele>
        <time>2018-04-10T07:05:11Z</time>
      </trkpt>
      <trkpt lat="41.4248650" lon="2.0333940">
        <ele>152.6</ele>
        <time>2018-04-10T07:05:12Z</time>
      </trkpt>
      <trkpt lat="41.4247960" lon="2.0332490">
        <ele>151.8</ele>
        <time>2018-04-10T07:05:13Z</time>
      </trkpt>
      <trkpt lat="41.4247250" lon="2.0331070">
        <ele>150.8</ele>
        <time>2018-04-10T07:05:14Z</time>
      </trkpt>
      <trkpt lat="41.4246490" lon="2.0329720">
        <ele>150.0</ele>
        <time>2018-04-10T07:05:15Z</time>
      </trkpt>
      <trkpt lat="41.4245660" lon="2.0328430">
        <ele>149.2</ele>
        <time>2018-04-10T07:05:16Z</time>
      </trkpt>
      <trkpt lat="41.4244770" lon="2.0327190">
        <ele>148.2</ele>
        <time>2018-04-10T07:05:17Z</time>
      </trkpt>
      <trkpt lat="41.4243890" lon="2.0325970">
        <ele>147.4</ele>
        <time>2018-04-10T07:05:18Z</time>
      </trkpt>
      <trkpt lat="41.4243020" lon="2.0324710">
        <ele>146.6</ele>
        <time>2018-04-10T07:05:19Z</time>
      </trkpt>
      <trkpt lat="41.4242120" lon="2.0323490">
        <ele>145.6</ele>
        <time>2018-04-10T07:05:20Z</time>
      </trkpt>
      <trkpt lat="41.4241150" lon="2.0322400">
        <ele>144.8</ele>
        <time>2018-04-10T07:05:21Z</time>
      </trkpt>
      <trkpt lat="41.4240060" lon="2.0321530">
        <ele>143.8</ele>
        <time>2018-04-10T07:05:22Z</time>
      </trkpt>
      <trkpt lat="41.4238880" lon="2.0320920">
        <ele>142.2</ele>
        <time>2018-04-10T07:05:23Z</time>
      </trkpt>
      <trkpt lat="41.4236420" lon="2.0320040">
        <ele>140.4</ele>
        <time>2018-04-10T07:05:25Z</time>
      </trkpt>
      <trkpt lat="41.4234110" lon="2.0318590">
        <ele>138.6</ele>
        <time>2018-04-10T07:05:27Z</time>
      </trkpt>
      <trkpt lat="41.4231770" lon="2.0317120">
        <ele>136.6</ele>
        <time>2018-04-10T07:05:29Z</time>
      </trkpt>
      <trkpt lat="41.4230540" lon="2.0316590">
        <ele>135.8</ele>
        <time>2018-04-10T07:05:30Z</time>
      </trkpt>
      <trkpt lat="41.4229310" lon="2.0316020">
        <ele>135.0</ele>
        <time>2018-04-10T07:05:31Z</time>
      </trkpt>
      <trkpt lat="41.4227020" lon="2.0314460">
        <ele>133.4</ele>
        <time>2018-04-10T07:05:33Z</time>
      </trkpt>
      <trkpt lat="41.4225040" lon="2.0312360">
        <ele>131.6</ele>
        <time>2018-04-10T07:05:35Z</time>
      </trkpt>
      <trkpt lat="41.4223200" lon="2.0309950">
        <ele>130.0</ele>
        <time>2018-04-10T07:05:37Z</time>
      </trkpt>
      <trkpt lat="41.4221250" lon="2.0307630">
        <ele>128.2</ele>
        <time>2018-04-10T07:05:39Z</time>
      </trkpt>
      <trkpt lat="41.4219420" lon="2.0305170">
        <ele>126.2</ele>
        <time>2018-04-10T07:05:41Z</time>
      </trkpt>
      <trkpt lat="41.4217790" lon="2.0302440">
        <ele>124.2</ele>
        <time>2018-04-10T07:05:43Z</time>
      </trkpt>
      <trkpt lat="41.4216490" lon="2.0299450">
        <ele>122.4</ele>
        <time>2018-04-10T07:05:45Z</time>
      </trkpt>
      <trkpt lat="41.4215850" lon="2.0296140">
        <ele>120.8</ele>
        <time>2018-04-10T07:05:47Z</time>
      </trkpt>
      <trkpt lat="41.4216020" lon="2.0292930">
        <ele>119.2</ele>
        <time>2018-04-10T07:05:49Z</time>
      </trkpt>
      <trkpt lat="41.4217130" lon="2.0290130">
        <ele>117.6</ele>
        <time>2018-04-10T07:05:51Z</time>
      </trkpt>
      <trkpt lat="41.4218740" lon="2.0287820">
        <ele>115.2</ele>
        <time>2018-04-10T07:05:53Z</time>
      </trkpt>
      <trkpt lat="41.4219760" lon="2.0285240">
        <ele>113.6</ele>
        <time>2018-04-10T07:05:55Z</time>
      </trkpt>
      <trkpt lat="41.4219610" lon="2.0282350">
        <ele>112.0</ele>
        <time>2018-04-10T07:05:57Z</time>
      </trkpt>
      <trkpt lat="41.4218410" lon="2.0279820">
        <ele>110.6</ele>
        <time>2018-04-10T07:05:59Z</time>
      </trkpt>
      <trkpt lat="41.4217860" lon="2.0278520">
        <ele>110.0</ele>
        <time>2018-04-10T07:06:00Z</time>
      </trkpt>
      <trkpt lat="41.4217490" lon="2.0277110">
        <ele>109.6</ele>
        <time>2018-04-10T07:06:01Z</time>
      </trkpt>
      <trkpt lat="41.4216810" lon="2.0274160">
        <ele>108.4</ele>
        <time>2018-04-10T07:06:03Z</time>
      </trkpt>
      <trkpt lat="41.4215620" lon="2.0271510">
        <ele>107.2</ele>
        <time>2018-04-10T07:06:05Z</time>
      </trkpt>
      <trkpt lat="41.4214060" lon="2.0269200">
        <ele>106.0</ele>
        <time>2018-04-10T07:06:07Z</time>
      </trkpt>
      <trkpt lat="41.4212440" lon="2.0266980">
        <ele>104.6</ele>
        <time>2018-04-10T07:06:09Z</time>
      </trkpt>
      <trkpt lat="41.4210860" lon="2.0264660">
        <ele>103.2</ele>
        <time>2018-04-10T07:06:11Z</time>
      </trkpt>
      <trkpt lat="41.4209230" lon="2.0262330">
        <ele>102.0</ele>
        <time>2018-04-10T07:06:13Z</time>
      </trkpt>
      <trkpt lat="41.4207560" lon="2.0260000">
        <ele>100.8</ele>
        <time>2018-04-10T07:06:15Z</time>
      </trkpt>
      <trkpt lat="41.4205760" lon="2.0257820">
        <ele>99.4</ele>
        <time>2018-04-10T07:06:17Z</time>
      </trkpt>
      <trkpt lat="41.4203800" lon="2.0255890">
        <ele>98.0</ele>
        <time>2018-04-10T07:06:19Z</time>
      </trkpt>
      <trkpt lat="41.4201800" lon="2.0254110">
        <ele>96.8</ele>
        <time>2018-04-10T07:06:21Z</time>
      </trkpt>
      <trkpt lat="41.4200790" lon="2.0253270">
        <ele>95.4</ele>
        <time>2018-04-10T07:06:22Z</time>
      </trkpt>
      <trkpt lat="41.4199800" lon="2.0252430">
        <ele>94.8</ele>
        <time>2018-04-10T07:06:23Z</time>
      </trkpt>
      <trkpt lat="41.4198820" lon="2.0251550">
        <ele>94.0</ele>
        <time>2018-04-10T07:06:24Z</time>
      </trkpt>
      <trkpt lat="41.4197860" lon="2.0250650">
        <ele>93.4</ele>
        <time>2018-04-10T07:06:25Z</time>
      </trkpt>
      <trkpt lat="41.4196920" lon="2.0249720">
        <ele>92.8</ele>
        <time>2018-04-10T07:06:26Z</time>
      </trkpt>
      <trkpt lat="41.4196000" lon="2.0248780">
        <ele>92.2</ele>
        <time>2018-04-10T07:06:27Z</time>
      </trkpt>
      <trkpt lat="41.4195080" lon="2.0247830">
        <ele>91.4</ele>
        <time>2018-04-10T07:06:28Z</time>
      </trkpt>
      <trkpt lat="41.4194150" lon="2.0246890">
        <ele>90.8</ele>
        <time>2018-04-10T07:06:29Z</time>
      </trkpt>
      <trkpt lat="41.4193300" lon="2.0245870">
        <ele>90.4</ele>
        <time>2018-04-10T07:06:30Z</time>
      </trkpt>
      <trkpt lat="41.4192520" lon="2.0244740">
        <ele>89.8</ele>
        <time>2018-04-10T07:06:31Z</time>
      </trkpt>
      <trkpt lat="41.4191830" lon="2.0243500">
        <ele>89.2</ele>
        <time>2018-04-10T07:06:32Z</time>
      </trkpt>
      <trkpt lat="41.4191200" lon="2.0242200">
        <ele>88.8</ele>
        <time>2018-04-10T07:06:33Z</time>
      </trkpt>
      <trkpt lat="41.4190500" lon="2.0240940">
        <ele>88.2</ele>
        <time>2018-04-10T07:06:34Z</time>
      </trkpt>
      <trkpt lat="41.4189640" lon="2.0239870">
        <ele>87.6</ele>
        <time>2018-04-10T07:06:35Z</time>
      </trkpt>
      <trkpt lat="41.4188620" lon="2.0239110">
        <ele>87.0</ele>
        <time>2018-04-10T07:06:36Z</time>
      </trkpt>
      <trkpt lat="41.4187540" lon="2.0238850">
        <ele>86.2</ele>
        <time>2018-04-10T07:06:37Z</time>
      </trkpt>
      <trkpt lat="41.4186400" lon="2.0238970">
        <ele>85.6</ele>
        <time>2018-04-10T07:06:38Z</time>
      </trkpt>
      <trkpt lat="41.4185310" lon="2.0239270">
        <ele>85.0</ele>
        <time>2018-04-10T07:06:39Z</time>
      </trkpt>
      <trkpt lat="41.4184200" lon="2.0239550">
        <ele>84.2</ele>
        <time>2018-04-10T07:06:40Z</time>
      </trkpt>
      <trkpt lat="41.4183130" lon="2.0239710">
        <ele>83.4</ele>
        <time>2018-04-10T07:06:41Z</time>
      </trkpt>
      <trkpt lat="41.4182080" lon="2.0239680">
        <ele>82.8</ele>
        <time>2018-04-10T07:06:42Z</time>
      </trkpt>
      <trkpt lat="41.4181060" lon="2.0239450">
        <ele>82.0</ele>
        <time>2018-04-10T07:06:43Z</time>
      </trkpt>
      <trkpt lat="41.4180090" lon="2.0239050">
        <ele>81.2</ele>
        <time>2018-04-10T07:06:44Z</time>
      </trkpt>
      <trkpt lat="41.4179140" lon="2.0238530">
        <ele>80.6</ele>
        <time>2018-04-10T07:06:45Z</time>
      </trkpt>
      <trkpt lat="41.4178200" lon="2.0237970">
        <ele>79.8</ele>
        <time>2018-04-10T07:06:46Z</time>
      </trkpt>
      <trkpt lat="41.4177260" lon="2.0237410">
        <ele>79.2</ele>
        <time>2018-04-10T07:06:47Z</time>
      </trkpt>
      <trkpt lat="41.4176330" lon="2.0236860">
        <ele>78.6</ele>
        <time>2018-04-10T07:06:48Z</time>
      </trkpt>
      <trkpt lat="41.4175410" lon="2.0236300">
        <ele>78.4</ele>
        <time>2018-04-10T07:06:49Z</time>
      </trkpt>
      <trkpt lat="41.4173590" lon="2.0235030">
        <ele>78.2</ele>
        <time>2018-04-10T07:06:51Z</time>
      </trkpt>
      <trkpt lat="41.4171830" lon="2.0233850">
        <ele>77.6</ele>
        <time>2018-04-10T07:06:53Z</time>
      </trkpt>
      <trkpt lat="41.4170100" lon="2.0232820">
        <ele>76.8</ele>
        <time>2018-04-10T07:06:55Z</time>
      </trkpt>
      <trkpt lat="41.4169480" lon="2.0232240">
        <ele>76.4</ele>
        <time>2018-04-10T07:06:56Z</time>
      </trkpt>
      <trkpt lat="41.4169050" lon="2.0231550">
        <ele>76.0</ele>
        <time>2018-04-10T07:06:57Z</time>
      </trkpt>
      <trkpt lat="41.4168670" lon="2.0229910">
        <ele>75.6</ele>
        <time>2018-04-10T07:06:59Z</time>
      </trkpt>
      <trkpt lat="41.4168530" lon="2.0229170">
        <ele>75.0</ele>
        <time>2018-04-10T07:07:00Z</time>
      </trkpt>
      <trkpt lat="41.4168310" lon="2.0228660">
        <ele>74.6</ele>
        <time>2018-04-10T07:07:01Z</time>
      </trkpt>
      <trkpt lat="41.4167920" lon="2.0228400">
        <ele>73.8</ele>
        <time>2018-04-10T07:07:03Z</time>
      </trkpt>
      <trkpt lat="41.4167820" lon="2.0228340">
        <ele>73.4</ele>
        <time>2018-04-10T07:07:04Z</time>
      </trkpt>
      <trkpt lat="41.4167840" lon="2.0228570">
        <ele>73.0</ele>
        <time>2018-04-10T07:07:05Z</time>
      </trkpt>
      <trkpt lat="41.4167960" lon="2.0228940">
        <ele>72.6</ele>
        <time>2018-04-10T07:07:06Z</time>
      </trkpt>
      <trkpt lat="41.4168130" lon="2.0229300">
        <ele>72.2</ele>
        <time>2018-04-10T07:07:07Z</time>
      </trkpt>
      <trkpt lat="41.4168450" lon="2.0230190">
        <ele>72.0</ele>
        <time>2018-04-10T07:07:09Z</time>
      </trkpt>
      <trkpt lat="41.4168810" lon="2.0231130">
        <ele>71.8</ele>
        <time>2018-04-10T07:07:11Z</time>
      </trkpt>
      <trkpt lat="41.4169600" lon="2.0232100">
        <ele>71.8</ele>
        <time>2018-04-10T07:07:13Z</time>
      </trkpt>
      <trkpt lat="41.4170020" lon="2.0232480">
        <ele>71.6</ele>
        <time>2018-04-10T07:07:14Z</time>
      </trkpt>
      <trkpt lat="41.4170390" lon="2.0232820">
        <ele>71.6</ele>
        <time>2018-04-10T07:07:15Z</time>
      </trkpt>
      <trkpt lat="41.4171070" lon="2.0233480">
        <ele>72.0</ele>
        <time>2018-04-10T07:07:17Z</time>
      </trkpt>
      <trkpt lat="41.4171730" lon="2.0234120">
        <ele>72.2</ele>
        <time>2018-04-10T07:07:19Z</time>
      </trkpt>
      <trkpt lat="41.4172370" lon="2.0234670">
        <ele>72.6</ele>
        <time>2018-04-10T07:07:21Z</time>
      </trkpt>
      <trkpt lat="41.4172990" lon="2.0235330">
        <ele>73.2</ele>
        <time>2018-04-10T07:07:23Z</time>
      </trkpt>
      <trkpt lat="41.4173670" lon="2.0235880">
        <ele>73.4</ele>
        <time>2018-04-10T07:07:25Z</time>
      </trkpt>
      <trkpt lat="41.4174080" lon="2.0236100">
        <ele>73.4</ele>
        <time>2018-04-10T07:07:26Z</time>
      </trkpt>
      <trkpt lat="41.4174480" lon="2.0236330">
        <ele>73.6</ele>
        <time>2018-04-10T07:07:27Z</time>
      </trkpt>
      <trkpt lat="41.4174860" lon="2.0236590">
        <ele>73.8</ele>
        <time>2018-04-10T07:07:28Z</time>
      </trkpt>
      <trkpt lat="41.4175260" lon="2.0236860">
        <ele>74.0</ele>
        <time>2018-04-10T07:07:29Z</time>
      </trkpt>
      <trkpt lat="41.4176040" lon="2.0237350">
        <ele>74.4</ele>
        <time>2018-04-10T07:07:31Z</time>
      </trkpt>
      <trkpt lat="41.4176410" lon="2.0237620">
        <ele>74.6</ele>
        <time>2018-04-10T07:07:32Z</time>
      </trkpt>
      <trkpt lat="41.4176800" lon="2.0237860">
        <ele>74.8</ele>
        <time>2018-04-10T07:07:33Z</time>
      </trkpt>
      <trkpt lat="41.4177570" lon="2.0238370">
        <ele>75.2</ele>
        <time>2018-04-10T07:07:35Z</time>
      </trkpt>
      <trkpt lat="41.4178340" lon="2.0238850">
        <ele>75.6</ele>
        <time>2018-04-10T07:07:37Z</time>
      </trkpt>
      <trkpt lat="41.4178730" lon="2.0239090">
        <ele>75.8</ele>
        <time>2018-04-10T07:07:38Z</time>
      </trkpt>
      <trkpt lat="41.4179100" lon="2.0239370">
        <ele>75.8</ele>
        <time>2018-04-10T07:07:39Z</time>
      </trkpt>
      <trkpt lat="41.4179800" lon="2.0239860">
        <ele>76.2</ele>
        <time>2018-04-10T07:07:41Z</time>
      </trkpt>
      <trkpt lat="41.4180550" lon="2.0240260">
        <ele>76.6</ele>
        <time>2018-04-10T07:07:43Z</time>
      </trkpt>
      <trkpt lat="41.4180960" lon="2.0240410">
        <ele>76.6</ele>
        <time>2018-04-10T07:07:44Z</time>
      </trkpt>
      <trkpt lat="41.4181360" lon="2.0240530">
        <ele>76.8</ele>
        <time>2018-04-10T07:07:45Z</time>
      </trkpt>
      <trkpt lat="41.4182260" lon="2.0240660">
        <ele>77.2</ele>
        <time>2018-04-10T07:07:47Z</time>
      </trkpt>
      <trkpt lat="41.4183190" lon="2.0240590">
        <ele>77.6</ele>
        <time>2018-04-10T07:07:49Z</time>
      </trkpt>
      <trkpt lat="41.4183690" lon="2.0240510">
        <ele>78.0</ele>
        <time>2018-04-10T07:07:50Z</time>
      </trkpt>
      <trkpt lat="41.4184250" lon="2.0240360">
        <ele>78.2</ele>
        <time>2018-04-10T07:07:51Z</time>
      </trkpt>
      <trkpt lat="41.4185370" lon="2.0240050">
        <ele>78.4</ele>
        <time>2018-04-10T07:07:53Z</time>
      </trkpt>
      <trkpt lat="41.4186500" lon="2.0239740">
        <ele>78.6</ele>
        <time>2018-04-10T07:07:55Z</time>
      </trkpt>
      <trkpt lat="41.4187580" lon="2.0239580">
        <ele>78.8</ele>
        <time>2018-04-10T07:07:57Z</time>
      </trkpt>
      <trkpt lat="41.4188540" lon="2.0239740">
        <ele>78.8</ele>
        <time>2018-04-10T07:07:59Z</time>
      </trkpt>
      <trkpt lat="41.4189360" lon="2.0240220">
        <ele>79.0</ele>
        <time>2018-04-10T07:08:01Z</time>
      </trkpt>
      <trkpt lat="41.4190040" lon="2.0240850">
        <ele>79.0</ele>
        <time>2018-04-10T07:08:03Z</time>
      </trkpt>
      <trkpt lat="41.4190580" lon="2.0241580">
        <ele>79.2</ele>
        <time>2018-04-10T07:08:05Z</time>
      </trkpt>
      <trkpt lat="41.4190810" lon="2.0241990">
        <ele>79.2</ele>
        <time>2018-04-10T07:08:06Z</time>
      </trkpt>
      <trkpt lat="41.4191010" lon="2.0242400">
        <ele>79.4</ele>
        <time>2018-04-10T07:08:07Z</time>
      </trkpt>
      <trkpt lat="41.4191380" lon="2.0243200">
        <ele>79.8</ele>
        <time>2018-04-10T07:08:09Z</time>
      </trkpt>
      <trkpt lat="41.4191560" lon="2.0243590">
        <ele>80.0</ele>
        <time>2018-04-10T07:08:10Z</time>
      </trkpt>
      <trkpt lat="41.4191760" lon="2.0243960">
        <ele>80.4</ele>
        <time>2018-04-10T07:08:11Z</time>
      </trkpt>
      <trkpt lat="41.4192150" lon="2.0244700">
        <ele>81.0</ele>
        <time>2018-04-10T07:08:13Z</time>
      </trkpt>
      <trkpt lat="41.4192630" lon="2.0245400">
        <ele>81.6</ele>
        <time>2018-04-10T07:08:15Z</time>
      </trkpt>
      <trkpt lat="41.4193170" lon="2.0246040">
        <ele>82.2</ele>
        <time>2018-04-10T07:08:17Z</time>
      </trkpt>
      <trkpt lat="41.4193700" lon="2.0246710">
        <ele>82.8</ele>
        <time>2018-04-10T07:08:19Z</time>
      </trkpt>
      <trkpt lat="41.4194280" lon="2.0247380">
        <ele>83.4</ele>
        <time>2018-04-10T07:08:21Z</time>
      </trkpt>
      <trkpt lat="41.4194870" lon="2.0247990">
        <ele>84.0</ele>
        <time>2018-04-10T07:08:23Z</time>
      </trkpt>
      <trkpt lat="41.4195520" lon="2.0248610">
        <ele>84.2</ele>
        <time>2018-04-10T07:08:25Z</time>
      </trkpt>
      <trkpt lat="41.4195830" lon="2.0248920">
        <ele>84.6</ele>
        <time>2018-04-10T07:08:26Z</time>
      </trkpt>
      <trkpt lat="41.4196140" lon="2.0249250">
        <ele>84.8</ele>
        <time>2018-04-10T07:08:27Z</time>
      </trkpt>
      <trkpt lat="41.4196770" lon="2.0249900">
        <ele>85.2</ele>
        <time>2018-04-10T07:08:29Z</time>
      </trkpt>
      <trkpt lat="41.4197400" lon="2.0250540">
        <ele>85.6</ele>
        <time>2018-04-10T07:08:31Z</time>
      </trkpt>
      <trkpt lat="41.4198040" lon="2.0251160">
        <ele>86.0</ele>
        <time>2018-04-10T07:08:33Z</time>
      </trkpt>
      <trkpt lat="41.4198660" lon="2.0251790">
        <ele>86.4</ele>
        <time>2018-04-10T07:08:35Z</time>
      </trkpt>
      <trkpt lat="41.4198980" lon="2.0252070">
        <ele>86.8</ele>
        <time>2018-04-10T07:08:36Z</time>
      </trkpt>
      <trkpt lat="41.4199290" lon="2.0252370">
        <ele>86.8</ele>
        <time>2018-04-10T07:08:37Z</time>
      </trkpt>
      <trkpt lat="41.4199940" lon="2.0252930">
        <ele>87.2</ele>
        <time>2018-04-10T07:08:39Z</time>
      </trkpt>
      <trkpt lat="41.4200600" lon="2.0253490">
        <ele>87.6</ele>
        <time>2018-04-10T07:08:41Z</time>
      </trkpt>
      <trkpt lat="41.4200930" lon="2.0253790">
        <ele>88.0</ele>
        <time>2018-04-10T07:08:42Z</time>
      </trkpt>
      <trkpt lat="41.4201280" lon="2.0254090">
        <ele>88.2</ele>
        <time>2018-04-10T07:08:43Z</time>
      </trkpt>
      <trkpt lat="41.4201980" lon="2.0254700">
        <ele>88.8</ele>
        <time>2018-04-10T07:08:45Z</time>
      </trkpt>
      <trkpt lat="41.4202690" lon="2.0255320">
        <ele>89.2</ele>
        <time>2018-04-10T07:08:47Z</time>
      </trkpt>
      <trkpt lat="41.4203360" lon="2.0255920">
        <ele>89.4</ele>
        <time>2018-04-10T07:08:49Z</time>
      </trkpt>
      <trkpt lat="41.4204010" lon="2.0256360">
        <ele>89.8</ele>
        <time>2018-04-10T07:08:51Z</time>
      </trkpt>
      <trkpt lat="41.4204550" lon="2.0256390">
        <ele>90.0</ele>
        <time>2018-04-10T07:08:53Z</time>
      </trkpt>
      <trkpt lat="41.4204730" lon="2.0256290">
        <ele>90.2</ele>
        <time>2018-04-10T07:08:54Z</time>
      </trkpt>
      <trkpt lat="41.4204810" lon="2.0256120">
        <ele>90.2</ele>
        <time>2018-04-10T07:08:55Z</time>
      </trkpt>
      <trkpt lat="41.4204750" lon="2.0255710">
        <ele>90.4</ele>
        <time>2018-04-10T07:08:57Z</time>
      </trkpt>
      <trkpt lat="41.4204440" lon="2.0255390">
        <ele>90.8</ele>
        <time>2018-04-10T07:08:59Z</time>
      </trkpt>
      <trkpt lat="41.4204130" lon="2.0255000">
        <ele>91.2</ele>
        <time>2018-04-10T07:09:01Z</time>
      </trkpt>
      <trkpt lat="41.4203990" lon="2.0254730">
        <ele>91.4</ele>
        <time>2018-04-10T07:09:03Z</time>
      </trkpt>
      <trkpt lat="41.4203940" lon="2.0254720">
        <ele>91.4</ele>
        <time>2018-04-10T07:09:05Z</time>
      </trkpt>
      <trkpt lat="41.4203890" lon="2.0254680">
        <ele>91.6</ele>
        <time>2018-04-10T07:09:07Z</time>
      </trkpt>
      <trkpt lat="41.4203890" lon="2.0254680">
        <ele>91.6</ele>
        <time>2018-04-10T07:09:09Z</time>
      </trkpt>
      <trkpt lat="41.4203890" lon="2.0254670">
        <ele>91.6</ele>
        <time>2018-04-10T07:09:11Z</time>
      </trkpt>
      <trkpt lat="41.4203890" lon="2.0254670">
        <ele>91.6</ele>
        <time>2018-04-10T07:09:13Z</time>
      </trkpt>
      <trkpt lat="41.4203890" lon="2.0254670">
        <ele>91.6</ele>
        <time>2018-04-10T07:09:15Z</time>
      </trkpt>
      <trkpt lat="41.4203890" lon="2.0254670">
        <ele>91.4</ele>
        <time>2018-04-10T07:09:17Z</time>
      </trkpt>
      <trkpt lat="41.4203890" lon="2.0254670">
        <ele>91.4</ele>
        <time>2018-04-10T07:09:19Z</time>
      </trkpt>
      <trkpt lat="41.4203880" lon="2.0254670">
        <ele>91.4</ele>
        <time>2018-04-10T07:09:21Z</time>
      </trkpt>
      <trkpt lat="41.4203880" lon="2.0254660">
        <ele>91.2</ele>
        <time>2018-04-10T07:09:23Z</time>
      </trkpt>
      <trkpt lat="41.4203880" lon="2.0254660">
        <ele>91.2</ele>
        <time>2018-04-10T07:09:25Z</time>
      </trkpt>
      <trkpt lat="41.4203890" lon="2.0254660">
        <ele>91.2</ele>
        <time>2018-04-10T07:09:27Z</time>
      </trkpt>
      <trkpt lat="41.4203890" lon="2.0254660">
        <ele>91.2</ele>
        <time>2018-04-10T07:09:29Z</time>
      </trkpt>
      <trkpt lat="41.4203890" lon="2.0254660">
        <ele>91.2</ele>
        <time>2018-04-10T07:09:31Z</time>
      </trkpt>
      <trkpt lat="41.4203890" lon="2.0254660">
        <ele>91.2</ele>
        <time>2018-04-10T07:09:33Z</time>
      </trkpt>
      <trkpt lat="41.4203890" lon="2.0254660">
        <ele>91.4</ele>
        <time>2018-04-10T07:09:35Z</time>
      </trkpt>
      <trkpt lat="41.4203890" lon="2.0254670">
        <ele>91.4</ele>
        <time>2018-04-10T07:09:37Z</time>
      </trkpt>
      <trkpt lat="41.4203890" lon="2.0254670">
        <ele>91.6</ele>
        <time>2018-04-10T07:09:39Z</time>
      </trkpt>
      <trkpt lat="41.4203890" lon="2.0254670">
        <ele>91.4</ele>
        <time>2018-04-10T07:09:41Z</time>
      </trkpt>
      <trkpt lat="41.4203890" lon="2.0254680">
        <ele>91.6</ele>
        <time>2018-04-10T07:09:43Z</time>
      </trkpt>
      <trkpt lat="41.4203890" lon="2.0254680">
        <ele>91.6</ele>
        <time>2018-04-10T07:09:44Z</time>
      </trkpt>
      <trkpt lat="41.4205850" lon="2.0258140">
        <ele>79.0</ele>
        <time>2018-04-10T07:11:09Z</time>
      </trkpt>
      <trkpt lat="41.4205860" lon="2.0258140">
        <ele>79.0</ele>
        <time>2018-04-10T07:11:11Z</time>
      </trkpt>
      <trkpt lat="41.4206020" lon="2.0258260">
        <ele>79.0</ele>
        <time>2018-04-10T07:11:13Z</time>
      </trkpt>
      <trkpt lat="41.4206300" lon="2.0258540">
        <ele>79.0</ele>
        <time>2018-04-10T07:11:15Z</time>
      </trkpt>
      <trkpt lat="41.4206720" lon="2.0259010">
        <ele>79.0</ele>
        <time>2018-04-10T07:11:17Z</time>
      </trkpt>
      <trkpt lat="41.4207220" lon="2.0259690">
        <ele>79.2</ele>
        <time>2018-04-10T07:11:19Z</time>
      </trkpt>
      <trkpt lat="41.4207470" lon="2.0260020">
        <ele>79.2</ele>
        <time>2018-04-10T07:11:20Z</time>
      </trkpt>
      <trkpt lat="41.4207720" lon="2.0260370">
        <ele>79.2</ele>
        <time>2018-04-10T07:11:21Z</time>
      </trkpt>
      <trkpt lat="41.4208200" lon="2.0261080">
        <ele>79.2</ele>
        <time>2018-04-10T07:11:23Z</time>
      </trkpt>
      <trkpt lat="41.4208660" lon="2.0261750">
        <ele>79.2</ele>
        <time>2018-04-10T07:11:25Z</time>
      </trkpt>
      <trkpt lat="41.4209150" lon="2.0262470">
        <ele>79.4</ele>
        <time>2018-04-10T07:11:27Z</time>
      </trkpt>
      <trkpt lat="41.4209630" lon="2.0263210">
        <ele>79.8</ele>
        <time>2018-04-10T07:11:29Z</time>
      </trkpt>
      <trkpt lat="41.4209890" lon="2.0263580">
        <ele>80.0</ele>
        <time>2018-04-10T07:11:30Z</time>
      </trkpt>
      <trkpt lat="41.4210140" lon="2.0263960">
        <ele>80.2</ele>
        <time>2018-04-10T07:11:31Z</time>
      </trkpt>
      <trkpt lat="41.4210630" lon="2.0264720">
        <ele>80.8</ele>
        <time>2018-04-10T07:11:33Z</time>
      </trkpt>
      <trkpt lat="41.4210880" lon="2.0265090">
        <ele>81.2</ele>
        <time>2018-04-10T07:11:34Z</time>
      </trkpt>
      <trkpt lat="41.4211140" lon="2.0265460">
        <ele>81.4</ele>
        <time>2018-04-10T07:11:35Z</time>
      </trkpt>
      <trkpt lat="41.4211650" lon="2.0266210">
        <ele>81.6</ele>
        <time>2018-04-10T07:11:37Z</time>
      </trkpt>
      <trkpt lat="41.4212160" lon="2.0266990">
        <ele>82.4</ele>
        <time>2018-04-10T07:11:39Z</time>
      </trkpt>
      <trkpt lat="41.4212690" lon="2.0267760">
        <ele>82.6</ele>
        <time>2018-04-10T07:11:41Z</time>
      </trkpt>
      <trkpt lat="41.4213230" lon="2.0268520">
        <ele>83.2</ele>
        <time>2018-04-10T07:11:43Z</time>
      </trkpt>
      <trkpt lat="41.4213480" lon="2.0268910">
        <ele>83.4</ele>
        <time>2018-04-10T07:11:44Z</time>
      </trkpt>
      <trkpt lat="41.4213730" lon="2.0269300">
        <ele>83.8</ele>
        <time>2018-04-10T07:11:45Z</time>
      </trkpt>
      <trkpt lat="41.4214270" lon="2.0270050">
        <ele>84.2</ele>
        <time>2018-04-10T07:11:47Z</time>
      </trkpt>
      <trkpt lat="41.4214780" lon="2.0270830">
        <ele>84.6</ele>
        <time>2018-04-10T07:11:49Z</time>
      </trkpt>
      <trkpt lat="41.4215340" lon="2.0271600">
        <ele>85.0</ele>
        <time>2018-04-10T07:11:51Z</time>
      </trkpt>
      <trkpt lat="41.4215850" lon="2.0272420">
        <ele>85.4</ele>
        <time>2018-04-10T07:11:53Z</time>
      </trkpt>
      <trkpt lat="41.4216090" lon="2.0272840">
        <ele>85.6</ele>
        <time>2018-04-10T07:11:54Z</time>
      </trkpt>
      <trkpt lat="41.4216330" lon="2.0273260">
        <ele>85.8</ele>
        <time>2018-04-10T07:11:55Z</time>
      </trkpt>
      <trkpt lat="41.4216710" lon="2.0274190">
        <ele>86.4</ele>
        <time>2018-04-10T07:11:57Z</time>
      </trkpt>
      <trkpt lat="41.4217000" lon="2.0275180">
        <ele>86.6</ele>
        <time>2018-04-10T07:11:59Z</time>
      </trkpt>
      <trkpt lat="41.4217200" lon="2.0276180">
        <ele>87.0</ele>
        <time>2018-04-10T07:12:01Z</time>
      </trkpt>
      <trkpt lat="41.4217340" lon="2.0277170">
        <ele>87.6</ele>
        <time>2018-04-10T07:12:03Z</time>
      </trkpt>
      <trkpt lat="41.4217400" lon="2.0277650">
        <ele>87.8</ele>
        <time>2018-04-10T07:12:04Z</time>
      </trkpt>
      <trkpt lat="41.4217490" lon="2.0278130">
        <ele>87.8</ele>
        <time>2018-04-10T07:12:05Z</time>
      </trkpt>
      <trkpt lat="41.4217740" lon="2.0279080">
        <ele>88.2</ele>
        <time>2018-04-10T07:12:07Z</time>
      </trkpt>
      <trkpt lat="41.4218080" lon="2.0279970">
        <ele>88.8</ele>
        <time>2018-04-10T07:12:09Z</time>
      </trkpt>
      <trkpt lat="41.4218510" lon="2.0280840">
        <ele>89.4</ele>
        <time>2018-04-10T07:12:11Z</time>
      </trkpt>
      <trkpt lat="41.4218990" lon="2.0281660">
        <ele>90.0</ele>
        <time>2018-04-10T07:12:13Z</time>
      </trkpt>
      <trkpt lat="41.4219480" lon="2.0282520">
        <ele>90.8</ele>
        <time>2018-04-10T07:12:15Z</time>
      </trkpt>
      <trkpt lat="41.4219670" lon="2.0283000">
        <ele>91.0</ele>
        <time>2018-04-10T07:12:16Z</time>
      </trkpt>
      <trkpt lat="41.4219820" lon="2.0283510">
        <ele>91.2</ele>
        <time>2018-04-10T07:12:17Z</time>
      </trkpt>
      <trkpt lat="41.4219960" lon="2.0284580">
        <ele>91.4</ele>
        <time>2018-04-10T07:12:19Z</time>
      </trkpt>
      <trkpt lat="41.4219860" lon="2.0285660">
        <ele>91.8</ele>
        <time>2018-04-10T07:12:21Z</time>
      </trkpt>
      <trkpt lat="41.4219530" lon="2.0286590">
        <ele>92.2</ele>
        <time>2018-04-10T07:12:23Z</time>
      </trkpt>
      <trkpt lat="41.4219300" lon="2.0287010">
        <ele>92.4</ele>
        <time>2018-04-10T07:12:24Z</time>
      </trkpt>
      <trkpt lat="41.4219040" lon="2.0287400">
        <ele>92.6</ele>
        <time>2018-04-10T07:12:25Z</time>
      </trkpt>
      <trkpt lat="41.4218510" lon="2.0288180">
        <ele>93.2</ele>
        <time>2018-04-10T07:12:27Z</time>
      </trkpt>
      <trkpt lat="41.4217950" lon="2.0288940">
        <ele>93.6</ele>
        <time>2018-04-10T07:12:29Z</time>
      </trkpt>
      <trkpt lat="41.4217430" lon="2.0289760">
        <ele>94.0</ele>
        <time>2018-04-10T07:12:31Z</time>
      </trkpt>
      <trkpt lat="41.4216910" lon="2.0290610">
        <ele>94.6</ele>
        <time>2018-04-10T07:12:33Z</time>
      </trkpt>
      <trkpt lat="41.4216440" lon="2.0291500">
        <ele>95.2</ele>
        <time>2018-04-10T07:12:35Z</time>
      </trkpt>
      <trkpt lat="41.4216090" lon="2.0292440">
        <ele>95.4</ele>
        <time>2018-04-10T07:12:37Z</time>
      </trkpt>
      <trkpt lat="41.4215970" lon="2.0292950">
        <ele>95.8</ele>
        <time>2018-04-10T07:12:38Z</time>
      </trkpt>
      <trkpt lat="41.4215870" lon="2.0293470">
        <ele>96.0</ele>
        <time>2018-04-10T07:12:39Z</time>
      </trkpt>
      <trkpt lat="41.4215790" lon="2.0294540">
        <ele>96.4</ele>
        <time>2018-04-10T07:12:41Z</time>
      </trkpt>
      <trkpt lat="41.4215790" lon="2.0295640">
        <ele>96.8</ele>
        <time>2018-04-10T07:12:43Z</time>
      </trkpt>
      <trkpt lat="41.4215810" lon="2.0296190">
        <ele>97.0</ele>
        <time>2018-04-10T07:12:44Z</time>
      </trkpt>
      <trkpt lat="41.4215860" lon="2.0296750">
        <ele>97.2</ele>
        <time>2018-04-10T07:12:45Z</time>
      </trkpt>
      <trkpt lat="41.4216010" lon="2.0297820">
        <ele>97.4</ele>
        <time>2018-04-10T07:12:47Z</time>
      </trkpt>
      <trkpt lat="41.4216230" lon="2.0298860">
        <ele>98.0</ele>
        <time>2018-04-10T07:12:49Z</time>
      </trkpt>
      <trkpt lat="41.4216370" lon="2.0299370">
        <ele>98.2</ele>
        <time>2018-04-10T07:12:50Z</time>
      </trkpt>
      <trkpt lat="41.4216540" lon="2.0299860">
        <ele>98.4</ele>
        <time>2018-04-10T07:12:51Z</time>
      </trkpt>
      <trkpt lat="41.4216930" lon="2.0300840">
        <ele>98.8</ele>
        <time>2018-04-10T07:12:53Z</time>
      </trkpt>
      <trkpt lat="41.4217350" lon="2.0301800">
        <ele>99.2</ele>
        <time>2018-04-10T07:12:55Z</time>
      </trkpt>
      <trkpt lat="41.4217800" lon="2.0302710">
        <ele>99.8</ele>
        <time>2018-04-10T07:12:57Z</time>
      </trkpt>
      <trkpt lat="41.4218270" lon="2.0303580">
        <ele>100.4</ele>
        <time>2018-04-10T07:12:59Z</time>
      </trkpt>
      <trkpt lat="41.4218520" lon="2.0304010">
        <ele>100.6</ele>
        <time>2018-04-10T07:13:00Z</time>
      </trkpt>
      <trkpt lat="41.4218780" lon="2.0304440">
        <ele>100.8</ele>
        <time>2018-04-10T07:13:01Z</time>
      </trkpt>
      <trkpt lat="41.4219300" lon="2.0305240">
        <ele>101.4</ele>
        <time>2018-04-10T07:13:03Z</time>
      </trkpt>
      <trkpt lat="41.4219850" lon="2.0306010">
        <ele>101.8</ele>
        <time>2018-04-10T07:13:05Z</time>
      </trkpt>
      <trkpt lat="41.4220400" lon="2.0306760">
        <ele>102.6</ele>
        <time>2018-04-10T07:13:07Z</time>
      </trkpt>
      <trkpt lat="41.4220690" lon="2.0307120">
        <ele>103.0</ele>
        <time>2018-04-10T07:13:08Z</time>
      </trkpt>
      <trkpt lat="41.4220990" lon="2.0307490">
        <ele>103.2</ele>
        <time>2018-04-10T07:13:09Z</time>
      </trkpt>
      <trkpt lat="41.4221590" lon="2.0308200">
        <ele>103.8</ele>
        <time>2018-04-10T07:13:11Z</time>
      </trkpt>
      <trkpt lat="41.4221880" lon="2.0308560">
        <ele>104.0</ele>
        <time>2018-04-10T07:13:12Z</time>
      </trkpt>
      <trkpt lat="41.4222180" lon="2.0308920">
        <ele>104.4</ele>
        <time>2018-04-10T07:13:13Z</time>
      </trkpt>
      <trkpt lat="41.4222780" lon="2.0309640">
        <ele>104.8</ele>
        <time>2018-04-10T07:13:15Z</time>
      </trkpt>
      <trkpt lat="41.4223080" lon="2.0310000">
        <ele>105.2</ele>
        <time>2018-04-10T07:13:16Z</time>
      </trkpt>
      <trkpt lat="41.4223380" lon="2.0310350">
        <ele>105.4</ele>
        <time>2018-04-10T07:13:17Z</time>
      </trkpt>
      <trkpt lat="41.4223970" lon="2.0311100">
        <ele>105.8</ele>
        <time>2018-04-10T07:13:19Z</time>
      </trkpt>
      <trkpt lat="41.4224550" lon="2.0311840">
        <ele>106.4</ele>
        <time>2018-04-10T07:13:21Z</time>
      </trkpt>
      <trkpt lat="41.4225110" lon="2.0312590">
        <ele>107.0</ele>
        <time>2018-04-10T07:13:23Z</time>
      </trkpt>
      <trkpt lat="41.4225640" lon="2.0313300">
        <ele>107.4</ele>
        <time>2018-04-10T07:13:25Z</time>
      </trkpt>
      <trkpt lat="41.4225900" lon="2.0313620">
        <ele>107.6</ele>
        <time>2018-04-10T07:13:26Z</time>
      </trkpt>
      <trkpt lat="41.4226180" lon="2.0313930">
        <ele>108.0</ele>
        <time>2018-04-10T07:13:27Z</time>
      </trkpt>
      <trkpt lat="41.4226760" lon="2.0314550">
        <ele>108.4</ele>
        <time>2018-04-10T07:13:29Z</time>
      </trkpt>
      <trkpt lat="41.4227360" lon="2.0315120">
        <ele>109.0</ele>
        <time>2018-04-10T07:13:31Z</time>
      </trkpt>
      <trkpt lat="41.4227960" lon="2.0315710">
        <ele>109.6</ele>
        <time>2018-04-10T07:13:33Z</time>
      </trkpt>
      <trkpt lat="41.4228270" lon="2.0315970">
        <ele>110.0</ele>
        <time>2018-04-10T07:13:34Z</time>
      </trkpt>
      <trkpt lat="41.4228590" lon="2.0316200">
        <ele>110.2</ele>
        <time>2018-04-10T07:13:35Z</time>
      </trkpt>
      <trkpt lat="41.4229210" lon="2.0316650">
        <ele>111.0</ele>
        <time>2018-04-10T07:13:37Z</time>
      </trkpt>
      <trkpt lat="41.4229860" lon="2.0317040">
        <ele>111.4</ele>
        <time>2018-04-10T07:13:39Z</time>
      </trkpt>
      <trkpt lat="41.4230570" lon="2.0317280">
        <ele>112.0</ele>
        <time>2018-04-10T07:13:41Z</time>
      </trkpt>
      <trkpt lat="41.4231320" lon="2.0317440">
        <ele>112.6</ele>
        <time>2018-04-10T07:13:43Z</time>
      </trkpt>
      <trkpt lat="41.4232100" lon="2.0317670">
        <ele>113.0</ele>
        <time>2018-04-10T07:13:45Z</time>
      </trkpt>
      <trkpt lat="41.4232480" lon="2.0317820">
        <ele>113.4</ele>
        <time>2018-04-10T07:13:46Z</time>
      </trkpt>
      <trkpt lat="41.4232850" lon="2.0318020">
        <ele>113.6</ele>
        <time>2018-04-10T07:13:47Z</time>
      </trkpt>
      <trkpt lat="41.4233540" lon="2.0318460">
        <ele>114.2</ele>
        <time>2018-04-10T07:13:49Z</time>
      </trkpt>
      <trkpt lat="41.4233870" lon="2.0318750">
        <ele>114.4</ele>
        <time>2018-04-10T07:13:50Z</time>
      </trkpt>
      <trkpt lat="41.4234170" lon="2.0319060">
        <ele>114.6</ele>
        <time>2018-04-10T07:13:51Z</time>
      </trkpt>
      <trkpt lat="41.4234740" lon="2.0319660">
        <ele>115.0</ele>
        <time>2018-04-10T07:13:53Z</time>
      </trkpt>
      <trkpt lat="41.4235330" lon="2.0320240">
        <ele>115.6</ele>
        <time>2018-04-10T07:13:55Z</time>
      </trkpt>
      <trkpt lat="41.4235980" lon="2.0320690">
        <ele>116.2</ele>
        <time>2018-04-10T07:13:57Z</time>
      </trkpt>
      <trkpt lat="41.4236710" lon="2.0321000">
        <ele>116.8</ele>
        <time>2018-04-10T07:13:59Z</time>
      </trkpt>
      <trkpt lat="41.4237520" lon="2.0321170">
        <ele>117.4</ele>
        <time>2018-04-10T07:14:01Z</time>
      </trkpt>
      <trkpt lat="41.4238320" lon="2.0321310">
        <ele>118.0</ele>
        <time>2018-04-10T07:14:03Z</time>
      </trkpt>
      <trkpt lat="41.4239090" lon="2.0321510">
        <ele>118.6</ele>
        <time>2018-04-10T07:14:05Z</time>
      </trkpt>
      <trkpt lat="41.4239460" lon="2.0321620">
        <ele>119.2</ele>
        <time>2018-04-10T07:14:06Z</time>
      </trkpt>
      <trkpt lat="41.4239820" lon="2.0321770">
        <ele>119.4</ele>
        <time>2018-04-10T07:14:07Z</time>
      </trkpt>
      <trkpt lat="41.4240500" lon="2.0322250">
        <ele>119.8</ele>
        <time>2018-04-10T07:14:09Z</time>
      </trkpt>
      <trkpt lat="41.4241110" lon="2.0322850">
        <ele>120.2</ele>
        <time>2018-04-10T07:14:11Z</time>
      </trkpt>
      <trkpt lat="41.4241650" lon="2.0323550">
        <ele>120.6</ele>
        <time>2018-04-10T07:14:13Z</time>
      </trkpt>
      <trkpt lat="41.4242120" lon="2.0324310">
        <ele>121.2</ele>
        <time>2018-04-10T07:14:15Z</time>
      </trkpt>
      <trkpt lat="41.4242350" lon="2.0324690">
        <ele>121.4</ele>
        <time>2018-04-10T07:14:16Z</time>
      </trkpt>
      <trkpt lat="41.4242610" lon="2.0325040">
        <ele>121.6</ele>
        <time>2018-04-10T07:14:17Z</time>
      </trkpt>
      <trkpt lat="41.4243150" lon="2.0325740">
        <ele>122.0</ele>
        <time>2018-04-10T07:14:19Z</time>
      </trkpt>
      <trkpt lat="41.4243690" lon="2.0326450">
        <ele>122.6</ele>
        <time>2018-04-10T07:14:21Z</time>
      </trkpt>
      <trkpt lat="41.4244220" lon="2.0327150">
        <ele>123.0</ele>
        <time>2018-04-10T07:14:23Z</time>
      </trkpt>
      <trkpt lat="41.4244750" lon="2.0327870">
        <ele>123.6</ele>
        <time>2018-04-10T07:14:25Z</time>
      </trkpt>
      <trkpt lat="41.4245250" lon="2.0328610">
        <ele>124.2</ele>
        <time>2018-04-10T07:14:27Z</time>
      </trkpt>
      <trkpt lat="41.4245750" lon="2.0329340">
        <ele>124.6</ele>
        <time>2018-04-10T07:14:29Z</time>
      </trkpt>
      <trkpt lat="41.4246260" lon="2.0330080">
        <ele>125.2</ele>
        <time>2018-04-10T07:14:31Z</time>
      </trkpt>
      <trkpt lat="41.4246740" lon="2.0330860">
        <ele>125.6</ele>
        <time>2018-04-10T07:14:33Z</time>
      </trkpt>
      <trkpt lat="41.4246970" lon="2.0331240">
        <ele>125.8</ele>
        <time>2018-04-10T07:14:34Z</time>
      </trkpt>
      <trkpt lat="41.4247210" lon="2.0331630">
        <ele>126.0</ele>
        <time>2018-04-10T07:14:35Z</time>
      </trkpt>
      <trkpt lat="41.4247570" lon="2.0332470">
        <ele>127.0</ele>
        <time>2018-04-10T07:14:37Z</time>
      </trkpt>
      <trkpt lat="41.4247910" lon="2.0333330">
        <ele>127.4</ele>
        <time>2018-04-10T07:14:39Z</time>
      </trkpt>
      <trkpt lat="41.4248260" lon="2.0334190">
        <ele>127.8</ele>
        <time>2018-04-10T07:14:41Z</time>
      </trkpt>
      <trkpt lat="41.4248440" lon="2.0334620">
        <ele>128.0</ele>
        <time>2018-04-10T07:14:42Z</time>
      </trkpt>
      <trkpt lat="41.4248620" lon="2.0335040">
        <ele>128.2</ele>
        <time>2018-04-10T07:14:43Z</time>
      </trkpt>
      <trkpt lat="41.4248980" lon="2.0335880">
        <ele>128.8</ele>
        <time>2018-04-10T07:14:45Z</time>
      </trkpt>
      <trkpt lat="41.4249150" lon="2.0336300">
        <ele>129.2</ele>
        <time>2018-04-10T07:14:46Z</time>
      </trkpt>
      <trkpt lat="41.4249320" lon="2.0336710">
        <ele>129.4</ele>
        <time>2018-04-10T07:14:47Z</time>
      </trkpt>
      <trkpt lat="41.4249670" lon="2.0337500">
        <ele>130.0</ele>
        <time>2018-04-10T07:14:49Z</time>
      </trkpt>
      <trkpt lat="41.4249830" lon="2.0337890">
        <ele>130.2</ele>
        <time>2018-04-10T07:14:50Z</time>
      </trkpt>
      <trkpt lat="41.4250010" lon="2.0338260">
        <ele>130.6</ele>
        <time>2018-04-10T07:14:51Z</time>
      </trkpt>
      <trkpt lat="41.4250390" lon="2.0339080">
        <ele>131.2</ele>
        <time>2018-04-10T07:14:53Z</time>
      </trkpt>
      <trkpt lat="41.4250560" lon="2.0339510">
        <ele>131.4</ele>
        <time>2018-04-10T07:14:54Z</time>
      </trkpt>
      <trkpt lat="41.4250750" lon="2.0339930">
        <ele>131.6</ele>
        <time>2018-04-10T07:14:55Z</time>
      </trkpt>
      <trkpt lat="41.4251100" lon="2.0340790">
        <ele>132.2</ele>
        <time>2018-04-10T07:14:57Z</time>
      </trkpt>
      <trkpt lat="41.4251450" lon="2.0341670">
        <ele>132.6</ele>
        <time>2018-04-10T07:14:59Z</time>
      </trkpt>
      <trkpt lat="41.4251810" lon="2.0342540">
        <ele>133.0</ele>
        <time>2018-04-10T07:15:01Z</time>
      </trkpt>
      <trkpt lat="41.4252180" lon="2.0343440">
        <ele>133.6</ele>
        <time>2018-04-10T07:15:03Z</time>
      </trkpt>
      <trkpt lat="41.4252560" lon="2.0344320">
        <ele>134.4</ele>
        <time>2018-04-10T07:15:05Z</time>
      </trkpt>
      <trkpt lat="41.4252710" lon="2.0344770">
        <ele>134.6</ele>
        <time>2018-04-10T07:15:06Z</time>
      </trkpt>
      <trkpt lat="41.4252880" lon="2.0345230">
        <ele>135.0</ele>
        <time>2018-04-10T07:15:07Z</time>
      </trkpt>
      <trkpt lat="41.4253230" lon="2.0346120">
        <ele>135.4</ele>
        <time>2018-04-10T07:15:09Z</time>
      </trkpt>
      <trkpt lat="41.4253590" lon="2.0346990">
        <ele>136.0</ele>
        <time>2018-04-10T07:15:11Z</time>
      </trkpt>
      <trkpt lat="41.4253960" lon="2.0347840">
        <ele>136.6</ele>
        <time>2018-04-10T07:15:13Z</time>
      </trkpt>
      <trkpt lat="41.4254300" lon="2.0348710">
        <ele>137.0</ele>
        <time>2018-04-10T07:15:15Z</time>
      </trkpt>
      <trkpt lat="41.4254690" lon="2.0349540">
        <ele>137.8</ele>
        <time>2018-04-10T07:15:17Z</time>
      </trkpt>
      <trkpt lat="41.4255060" lon="2.0350350">
        <ele>138.0</ele>
        <time>2018-04-10T07:15:19Z</time>
      </trkpt>
      <trkpt lat="41.4255290" lon="2.0350730">
        <ele>138.2</ele>
        <time>2018-04-10T07:15:20Z</time>
      </trkpt>
      <trkpt lat="41.4255560" lon="2.0351080">
        <ele>138.6</ele>
        <time>2018-04-10T07:15:21Z</time>
      </trkpt>
      <trkpt lat="41.4256120" lon="2.0351790">
        <ele>139.4</ele>
        <time>2018-04-10T07:15:23Z</time>
      </trkpt>
      <trkpt lat="41.4256720" lon="2.0352470">
        <ele>140.2</ele>
        <time>2018-04-10T07:15:25Z</time>
      </trkpt>
      <trkpt lat="41.4257330" lon="2.0353150">
        <ele>140.8</ele>
        <time>2018-04-10T07:15:27Z</time>
      </trkpt>
      <trkpt lat="41.4257960" lon="2.0353830">
        <ele>141.2</ele>
        <time>2018-04-10T07:15:29Z</time>
      </trkpt>
      <trkpt lat="41.4258570" lon="2.0354520">
        <ele>141.6</ele>
        <time>2018-04-10T07:15:31Z</time>
      </trkpt>
      <trkpt lat="41.4258870" lon="2.0354870">
        <ele>141.8</ele>
        <time>2018-04-10T07:15:32Z</time>
      </trkpt>
      <trkpt lat="41.4259170" lon="2.0355210">
        <ele>142.0</ele>
        <time>2018-04-10T07:15:33Z</time>
      </trkpt>
      <trkpt lat="41.4259680" lon="2.0355990">
        <ele>142.6</ele>
        <time>2018-04-10T07:15:35Z</time>
      </trkpt>
      <trkpt lat="41.4260120" lon="2.0356870">
        <ele>143.0</ele>
        <time>2018-04-10T07:15:37Z</time>
      </trkpt>
      <trkpt lat="41.4260460" lon="2.0357820">
        <ele>143.6</ele>
        <time>2018-04-10T07:15:39Z</time>
      </trkpt>
      <trkpt lat="41.4260730" lon="2.0358750">
        <ele>144.0</ele>
        <time>2018-04-10T07:15:41Z</time>
      </trkpt>
      <trkpt lat="41.4260850" lon="2.0359220">
        <ele>144.2</ele>
        <time>2018-04-10T07:15:42Z</time>
      </trkpt>
      <trkpt lat="41.4260930" lon="2.0359720">
        <ele>144.4</ele>
        <time>2018-04-10T07:15:43Z</time>
      </trkpt>
      <trkpt lat="41.4261130" lon="2.0360660">
        <ele>144.8</ele>
        <time>2018-04-10T07:15:45Z</time>
      </trkpt>
      <trkpt lat="41.4261230" lon="2.0361650">
        <ele>145.2</ele>
        <time>2018-04-10T07:15:47Z</time>
      </trkpt>
      <trkpt lat="41.4261310" lon="2.0362660">
        <ele>145.6</ele>
        <time>2018-04-10T07:15:49Z</time>
      </trkpt>
      <trkpt lat="41.4261320" lon="2.0363660">
        <ele>146.2</ele>
        <time>2018-04-10T07:15:51Z</time>
      </trkpt>
      <trkpt lat="41.4261310" lon="2.0364180">
        <ele>146.4</ele>
        <time>2018-04-10T07:15:52Z</time>
      </trkpt>
      <trkpt lat="41.4261290" lon="2.0364660">
        <ele>146.8</ele>
        <time>2018-04-10T07:15:53Z</time>
      </trkpt>
      <trkpt lat="41.4261280" lon="2.0365640">
        <ele>147.2</ele>
        <time>2018-04-10T07:15:55Z</time>
      </trkpt>
      <trkpt lat="41.4261270" lon="2.0366110">
        <ele>147.6</ele>
        <time>2018-04-10T07:15:56Z</time>
      </trkpt>
      <trkpt lat="41.4261260" lon="2.0366600">
        <ele>147.8</ele>
        <time>2018-04-10T07:15:57Z</time>
      </trkpt>
      <trkpt lat="41.4261250" lon="2.0367560">
        <ele>148.4</ele>
        <time>2018-04-10T07:15:59Z</time>
      </trkpt>
      <trkpt lat="41.4261260" lon="2.0368040">
        <ele>148.8</ele>
        <time>2018-04-10T07:16:00Z</time>
      </trkpt>
      <trkpt lat="41.4261270" lon="2.0368510">
        <ele>149.0</ele>
        <time>2018-04-10T07:16:01Z</time>
      </trkpt>
      <trkpt lat="41.4261270" lon="2.0369450">
        <ele>149.8</ele>
        <time>2018-04-10T07:16:03Z</time>
      </trkpt>
      <trkpt lat="41.4261330" lon="2.0370390">
        <ele>150.4</ele>
        <time>2018-04-10T07:16:05Z</time>
      </trkpt>
      <trkpt lat="41.4261410" lon="2.0371290">
        <ele>150.8</ele>
        <time>2018-04-10T07:16:07Z</time>
      </trkpt>
      <trkpt lat="41.4261450" lon="2.0371740">
        <ele>151.2</ele>
        <time>2018-04-10T07:16:08Z</time>
      </trkpt>
      <trkpt lat="41.4261490" lon="2.0372200">
        <ele>151.4</ele>
        <time>2018-04-10T07:16:09Z</time>
      </trkpt>
      <trkpt lat="41.4261590" lon="2.0373140">
        <ele>152.0</ele>
        <time>2018-04-10T07:16:11Z</time>
      </trkpt>
      <trkpt lat="41.4261670" lon="2.0373600">
        <ele>152.4</ele>
        <time>2018-04-10T07:16:12Z</time>
      </trkpt>
      <trkpt lat="41.4261750" lon="2.0374070">
        <ele>152.8</ele>
        <time>2018-04-10T07:16:13Z</time>
      </trkpt>
      <trkpt lat="41.4261930" lon="2.0374980">
        <ele>153.6</ele>
        <time>2018-04-10T07:16:15Z</time>
      </trkpt>
      <trkpt lat="41.4262040" lon="2.0375430">
        <ele>153.8</ele>
        <time>2018-04-10T07:16:16Z</time>
      </trkpt>
      <trkpt lat="41.4262120" lon="2.0375890">
        <ele>154.2</ele>
        <time>2018-04-10T07:16:17Z</time>
      </trkpt>
      <trkpt lat="41.4262320" lon="2.0376790">
        <ele>154.8</ele>
        <time>2018-04-10T07:16:19Z</time>
      </trkpt>
      <trkpt lat="41.4262440" lon="2.0377220">
        <ele>155.0</ele>
        <time>2018-04-10T07:16:20Z</time>
      </trkpt>
      <trkpt lat="41.4262560" lon="2.0377650">
        <ele>155.4</ele>
        <time>2018-04-10T07:16:21Z</time>
      </trkpt>
      <trkpt lat="41.4262830" lon="2.0378530">
        <ele>156.0</ele>
        <time>2018-04-10T07:16:23Z</time>
      </trkpt>
      <trkpt lat="41.4262960" lon="2.0378980">
        <ele>156.2</ele>
        <time>2018-04-10T07:16:24Z</time>
      </trkpt>
      <trkpt lat="41.4263100" lon="2.0379420">
        <ele>156.6</ele>
        <time>2018-04-10T07:16:25Z</time>
      </trkpt>
      <trkpt lat="41.4263430" lon="2.0380290">
        <ele>157.2</ele>
        <time>2018-04-10T07:16:27Z</time>
      </trkpt>
      <trkpt lat="41.4263610" lon="2.0380710">
        <ele>157.4</ele>
        <time>2018-04-10T07:16:28Z</time>
      </trkpt>
      <trkpt lat="41.4263790" lon="2.0381160">
        <ele>157.8</ele>
        <time>2018-04-10T07:16:29Z</time>
      </trkpt>
      <trkpt lat="41.4264130" lon="2.0382060">
        <ele>158.4</ele>
        <time>2018-04-10T07:16:31Z</time>
      </trkpt>
      <trkpt lat="41.4264320" lon="2.0382490">
        <ele>159.0</ele>
        <time>2018-04-10T07:16:32Z</time>
      </trkpt>
      <trkpt lat="41.4264540" lon="2.0382900">
        <ele>159.2</ele>
        <time>2018-04-10T07:16:33Z</time>
      </trkpt>
      <trkpt lat="41.4264970" lon="2.0383770">
        <ele>159.6</ele>
        <time>2018-04-10T07:16:35Z</time>
      </trkpt>
      <trkpt lat="41.4265440" lon="2.0384620">
        <ele>160.0</ele>
        <time>2018-04-10T07:16:37Z</time>
      </trkpt>
      <trkpt lat="41.4265910" lon="2.0385460">
        <ele>160.6</ele>
        <time>2018-04-10T07:16:39Z</time>
      </trkpt>
      <trkpt lat="41.4266350" lon="2.0386290">
        <ele>160.8</ele>
        <time>2018-04-10T07:16:41Z</time>
      </trkpt>
      <trkpt lat="41.4266820" lon="2.0387130">
        <ele>161.2</ele>
        <time>2018-04-10T07:16:43Z</time>
      </trkpt>
      <trkpt lat="41.4267300" lon="2.0387920">
        <ele>161.6</ele>
        <time>2018-04-10T07:16:45Z</time>
      </trkpt>
      <trkpt lat="41.4267770" lon="2.0388730">
        <ele>161.8</ele>
        <time>2018-04-10T07:16:47Z</time>
      </trkpt>
      <trkpt lat="41.4268210" lon="2.0389560">
        <ele>162.2</ele>
        <time>2018-04-10T07:16:49Z</time>
      </trkpt>
      <trkpt lat="41.4268660" lon="2.0390370">
        <ele>162.8</ele>
        <time>2018-04-10T07:16:51Z</time>
      </trkpt>
      <trkpt lat="41.4269120" lon="2.0391150">
        <ele>163.2</ele>
        <time>2018-04-10T07:16:53Z</time>
      </trkpt>
      <trkpt lat="41.4269350" lon="2.0391530">
        <ele>163.4</ele>
        <time>2018-04-10T07:16:54Z</time>
      </trkpt>
      <trkpt lat="41.4269580" lon="2.0391870">
        <ele>163.6</ele>
        <time>2018-04-10T07:16:55Z</time>
      </trkpt>
      <trkpt lat="41.4270100" lon="2.0392540">
        <ele>164.2</ele>
        <time>2018-04-10T07:16:57Z</time>
      </trkpt>
      <trkpt lat="41.4270350" lon="2.0392930">
        <ele>164.4</ele>
        <time>2018-04-10T07:16:58Z</time>
      </trkpt>
      <trkpt lat="41.4270570" lon="2.0393310">
        <ele>164.8</ele>
        <time>2018-04-10T07:16:59Z</time>
      </trkpt>
      <trkpt lat="41.4271040" lon="2.0394060">
        <ele>165.2</ele>
        <time>2018-04-10T07:17:01Z</time>
      </trkpt>
      <trkpt lat="41.4271270" lon="2.0394450">
        <ele>165.8</ele>
        <time>2018-04-10T07:17:02Z</time>
      </trkpt>
      <trkpt lat="41.4271490" lon="2.0394850">
        <ele>166.2</ele>
        <time>2018-04-10T07:17:03Z</time>
      </trkpt>
      <trkpt lat="41.4271960" lon="2.0395590">
        <ele>166.8</ele>
        <time>2018-04-10T07:17:05Z</time>
      </trkpt>
      <trkpt lat="41.4272220" lon="2.0395960">
        <ele>167.0</ele>
        <time>2018-04-10T07:17:06Z</time>
      </trkpt>
      <trkpt lat="41.4272440" lon="2.0396340">
        <ele>167.2</ele>
        <time>2018-04-10T07:17:07Z</time>
      </trkpt>
      <trkpt lat="41.4272910" lon="2.0397070">
        <ele>167.8</ele>
        <time>2018-04-10T07:17:09Z</time>
      </trkpt>
      <trkpt lat="41.4273390" lon="2.0397790">
        <ele>168.2</ele>
        <time>2018-04-10T07:17:11Z</time>
      </trkpt>
      <trkpt lat="41.4273880" lon="2.0398500">
        <ele>168.8</ele>
        <time>2018-04-10T07:17:13Z</time>
      </trkpt>
      <trkpt lat="41.4274280" lon="2.0399260">
        <ele>169.4</ele>
        <time>2018-04-10T07:17:15Z</time>
      </trkpt>
      <trkpt lat="41.4274550" lon="2.0400070">
        <ele>170.0</ele>
        <time>2018-04-10T07:17:17Z</time>
      </trkpt>
      <trkpt lat="41.4274700" lon="2.0400870">
        <ele>170.4</ele>
        <time>2018-04-10T07:17:19Z</time>
      </trkpt>
      <trkpt lat="41.4274640" lon="2.0401760">
        <ele>171.0</ele>
        <time>2018-04-10T07:17:21Z</time>
      </trkpt>
      <trkpt lat="41.4274410" lon="2.0402630">
        <ele>171.4</ele>
        <time>2018-04-10T07:17:23Z</time>
      </trkpt>
      <trkpt lat="41.4274270" lon="2.0403030">
        <ele>171.6</ele>
        <time>2018-04-10T07:17:24Z</time>
      </trkpt>
      <trkpt lat="41.4274140" lon="2.0403440">
        <ele>171.8</ele>
        <time>2018-04-10T07:17:25Z</time>
      </trkpt>
      <trkpt lat="41.4273900" lon="2.0404230">
        <ele>172.4</ele>
        <time>2018-04-10T07:17:27Z</time>
      </trkpt>
      <trkpt lat="41.4273670" lon="2.0405100">
        <ele>173.0</ele>
        <time>2018-04-10T07:17:29Z</time>
      </trkpt>
      <trkpt lat="41.4273500" lon="2.0406050">
        <ele>174.0</ele>
        <time>2018-04-10T07:17:31Z</time>
      </trkpt>
      <trkpt lat="41.4273380" lon="2.0407050">
        <ele>174.6</ele>
        <time>2018-04-10T07:17:33Z</time>
      </trkpt>
      <trkpt lat="41.4273360" lon="2.0408090">
        <ele>175.0</ele>
        <time>2018-04-10T07:17:35Z</time>
      </trkpt>
      <trkpt lat="41.4273360" lon="2.0409090">
        <ele>175.6</ele>
        <time>2018-04-10T07:17:37Z</time>
      </trkpt>
      <trkpt lat="41.4273400" lon="2.0410100">
        <ele>176.0</ele>
        <time>2018-04-10T07:17:39Z</time>
      </trkpt>
      <trkpt lat="41.4273410" lon="2.0410580">
        <ele>176.2</ele>
        <time>2018-04-10T07:17:40Z</time>
      </trkpt>
      <trkpt lat="41.4273420" lon="2.0411060">
        <ele>176.6</ele>
        <time>2018-04-10T07:17:41Z</time>
      </trkpt>
      <trkpt lat="41.4273450" lon="2.0412010">
        <ele>177.2</ele>
        <time>2018-04-10T07:17:43Z</time>
      </trkpt>
      <trkpt lat="41.4273560" lon="2.0412940">
        <ele>177.4</ele>
        <time>2018-04-10T07:17:45Z</time>
      </trkpt>
      <trkpt lat="41.4273800" lon="2.0413860">
        <ele>178.0</ele>
        <time>2018-04-10T07:17:47Z</time>
      </trkpt>
      <trkpt lat="41.4274220" lon="2.0414670">
        <ele>178.6</ele>
        <time>2018-04-10T07:17:49Z</time>
      </trkpt>
      <trkpt lat="41.4274740" lon="2.0415410">
        <ele>179.2</ele>
        <time>2018-04-10T07:17:51Z</time>
      </trkpt>
      <trkpt lat="41.4275310" lon="2.0416070">
        <ele>179.6</ele>
        <time>2018-04-10T07:17:53Z</time>
      </trkpt>
      <trkpt lat="41.4275910" lon="2.0416680">
        <ele>180.2</ele>
        <time>2018-04-10T07:17:55Z</time>
      </trkpt>
      <trkpt lat="41.4276540" lon="2.0417220">
        <ele>180.8</ele>
        <time>2018-04-10T07:17:57Z</time>
      </trkpt>
      <trkpt lat="41.4277200" lon="2.0417740">
        <ele>181.4</ele>
        <time>2018-04-10T07:17:59Z</time>
      </trkpt>
      <trkpt lat="41.4277860" lon="2.0418240">
        <ele>182.4</ele>
        <time>2018-04-10T07:18:01Z</time>
      </trkpt>
      <trkpt lat="41.4278510" lon="2.0418810">
        <ele>183.0</ele>
        <time>2018-04-10T07:18:03Z</time>
      </trkpt>
      <trkpt lat="41.4279160" lon="2.0419370">
        <ele>183.6</ele>
        <time>2018-04-10T07:18:05Z</time>
      </trkpt>
      <trkpt lat="41.4279750" lon="2.0419960">
        <ele>184.0</ele>
        <time>2018-04-10T07:18:07Z</time>
      </trkpt>
      <trkpt lat="41.4280270" lon="2.0420670">
        <ele>184.6</ele>
        <time>2018-04-10T07:18:09Z</time>
      </trkpt>
      <trkpt lat="41.4280660" lon="2.0421470">
        <ele>185.4</ele>
        <time>2018-04-10T07:18:11Z</time>
      </trkpt>
      <trkpt lat="41.4281030" lon="2.0422310">
        <ele>185.8</ele>
        <time>2018-04-10T07:18:13Z</time>
      </trkpt>
      <trkpt lat="41.4281420" lon="2.0423170">
        <ele>186.2</ele>
        <time>2018-04-10T07:18:15Z</time>
      </trkpt>
      <trkpt lat="41.4281880" lon="2.0423930">
        <ele>186.8</ele>
        <time>2018-04-10T07:18:17Z</time>
      </trkpt>
      <trkpt lat="41.4282130" lon="2.0424260">
        <ele>187.0</ele>
        <time>2018-04-10T07:18:18Z</time>
      </trkpt>
      <trkpt lat="41.4282430" lon="2.0424590">
        <ele>187.2</ele>
        <time>2018-04-10T07:18:19Z</time>
      </trkpt>
      <trkpt lat="41.4283030" lon="2.0425200">
        <ele>187.8</ele>
        <time>2018-04-10T07:18:21Z</time>
      </trkpt>
      <trkpt lat="41.4283330" lon="2.0425500">
        <ele>188.2</ele>
        <time>2018-04-10T07:18:22Z</time>
      </trkpt>
      <trkpt lat="41.4283650" lon="2.0425770">
        <ele>188.4</ele>
        <time>2018-04-10T07:18:23Z</time>
      </trkpt>
      <trkpt lat="41.4284310" lon="2.0426290">
        <ele>189.0</ele>
        <time>2018-04-10T07:18:25Z</time>
      </trkpt>
      <trkpt lat="41.4284930" lon="2.0426810">
        <ele>189.4</ele>
        <time>2018-04-10T07:18:27Z</time>
      </trkpt>
      <trkpt lat="41.4285530" lon="2.0427320">
        <ele>189.8</ele>
        <time>2018-04-10T07:18:29Z</time>
      </trkpt>
      <trkpt lat="41.4286110" lon="2.0427850">
        <ele>190.6</ele>
        <time>2018-04-10T07:18:31Z</time>
      </trkpt>
      <trkpt lat="41.4286610" lon="2.0428500">
        <ele>191.2</ele>
        <time>2018-04-10T07:18:33Z</time>
      </trkpt>
      <trkpt lat="41.4286890" lon="2.0429390">
        <ele>191.8</ele>
        <time>2018-04-10T07:18:35Z</time>
      </trkpt>
      <trkpt lat="41.4286700" lon="2.0430260">
        <ele>192.4</ele>
        <time>2018-04-10T07:18:37Z</time>
      </trkpt>
      <trkpt lat="41.4286110" lon="2.0430790">
        <ele>193.0</ele>
        <time>2018-04-10T07:18:39Z</time>
      </trkpt>
      <trkpt lat="41.4285440" lon="2.0431200">
        <ele>193.4</ele>
        <time>2018-04-10T07:18:41Z</time>
      </trkpt>
      <trkpt lat="41.4284800" lon="2.0431450">
        <ele>193.8</ele>
        <time>2018-04-10T07:18:43Z</time>
      </trkpt>
      <trkpt lat="41.4284490" lon="2.0431520">
        <ele>194.2</ele>
        <time>2018-04-10T07:18:44Z</time>
      </trkpt>
      <trkpt lat="41.4284190" lon="2.0431590">
        <ele>194.2</ele>
        <time>2018-04-10T07:18:45Z</time>
      </trkpt>
      <trkpt lat="41.4283550" lon="2.0431840">
        <ele>194.8</ele>
        <time>2018-04-10T07:18:47Z</time>
      </trkpt>
      <trkpt lat="41.4283230" lon="2.0431980">
        <ele>195.2</ele>
        <time>2018-04-10T07:18:48Z</time>
      </trkpt>
      <trkpt lat="41.4282900" lon="2.0432160">
        <ele>195.4</ele>
        <time>2018-04-10T07:18:49Z</time>
      </trkpt>
      <trkpt lat="41.4282280" lon="2.0432570">
        <ele>196.2</ele>
        <time>2018-04-10T07:18:51Z</time>
      </trkpt>
      <trkpt lat="41.4281960" lon="2.0432760">
        <ele>196.4</ele>
        <time>2018-04-10T07:18:52Z</time>
      </trkpt>
      <trkpt lat="41.4281620" lon="2.0432980">
        <ele>196.6</ele>
        <time>2018-04-10T07:18:53Z</time>
      </trkpt>
      <trkpt lat="41.4280990" lon="2.0433670">
        <ele>197.0</ele>
        <time>2018-04-10T07:18:55Z</time>
      </trkpt>
      <trkpt lat="41.4280630" lon="2.0434500">
        <ele>197.6</ele>
        <time>2018-04-10T07:18:57Z</time>
      </trkpt>
      <trkpt lat="41.4280610" lon="2.0435450">
        <ele>198.6</ele>
        <time>2018-04-10T07:18:59Z</time>
      </trkpt>
      <trkpt lat="41.4280700" lon="2.0435890">
        <ele>198.8</ele>
        <time>2018-04-10T07:19:00Z</time>
      </trkpt>
      <trkpt lat="41.4280870" lon="2.0436300">
        <ele>199.0</ele>
        <time>2018-04-10T07:19:01Z</time>
      </trkpt>
      <trkpt lat="41.4281240" lon="2.0437180">
        <ele>199.4</ele>
        <time>2018-04-10T07:19:03Z</time>
      </trkpt>
      <trkpt lat="41.4281620" lon="2.0438050">
        <ele>200.0</ele>
        <time>2018-04-10T07:19:05Z</time>
      </trkpt>
      <trkpt lat="41.4282050" lon="2.0438850">
        <ele>200.6</ele>
        <time>2018-04-10T07:19:07Z</time>
      </trkpt>
      <trkpt lat="41.4282510" lon="2.0439620">
        <ele>201.0</ele>
        <time>2018-04-10T07:19:09Z</time>
      </trkpt>
      <trkpt lat="41.4282940" lon="2.0440400">
        <ele>201.6</ele>
        <time>2018-04-10T07:19:11Z</time>
      </trkpt>
      <trkpt lat="41.4283420" lon="2.0441150">
        <ele>202.2</ele>
        <time>2018-04-10T07:19:13Z</time>
      </trkpt>
      <trkpt lat="41.4283920" lon="2.0441860">
        <ele>202.8</ele>
        <time>2018-04-10T07:19:15Z</time>
      </trkpt>
      <trkpt lat="41.4284410" lon="2.0442600">
        <ele>203.4</ele>
        <time>2018-04-10T07:19:17Z</time>
      </trkpt>
      <trkpt lat="41.4284890" lon="2.0443360">
        <ele>203.8</ele>
        <time>2018-04-10T07:19:19Z</time>
      </trkpt>
      <trkpt lat="41.4285390" lon="2.0444110">
        <ele>204.4</ele>
        <time>2018-04-10T07:19:21Z</time>
      </trkpt>
      <trkpt lat="41.4285640" lon="2.0444480">
        <ele>204.6</ele>
        <time>2018-04-10T07:19:22Z</time>
      </trkpt>
      <trkpt lat="41.4285870" lon="2.0444840">
        <ele>204.8</ele>
        <time>2018-04-10T07:19:23Z</time>
      </trkpt>
      <trkpt lat="41.4286260" lon="2.0445680">
        <ele>205.4</ele>
        <time>2018-04-10T07:19:25Z</time>
      </trkpt>
      <trkpt lat="41.4286380" lon="2.0446140">
        <ele>205.6</ele>
        <time>2018-04-10T07:19:26Z</time>
      </trkpt>
      <trkpt lat="41.4286410" lon="2.0446610">
        <ele>206.0</ele>
        <time>2018-04-10T07:19:27Z</time>
      </trkpt>
      <trkpt lat="41.4286180" lon="2.0447530">
        <ele>206.6</ele>
        <time>2018-04-10T07:19:29Z</time>
      </trkpt>
      <trkpt lat="41.4285710" lon="2.0448130">
        <ele>207.0</ele>
        <time>2018-04-10T07:19:31Z</time>
      </trkpt>
      <trkpt lat="41.4285180" lon="2.0448590">
        <ele>207.6</ele>
        <time>2018-04-10T07:19:33Z</time>
      </trkpt>
      <trkpt lat="41.4284740" lon="2.0449200">
        <ele>207.8</ele>
        <time>2018-04-10T07:19:35Z</time>
      </trkpt>
      <trkpt lat="41.4284310" lon="2.0449950">
        <ele>208.2</ele>
        <time>2018-04-10T07:19:37Z</time>
      </trkpt>
      <trkpt lat="41.4283980" lon="2.0450710">
        <ele>208.8</ele>
        <time>2018-04-10T07:19:39Z</time>
      </trkpt>
      <trkpt lat="41.4283690" lon="2.0451580">
        <ele>209.4</ele>
        <time>2018-04-10T07:19:41Z</time>
      </trkpt>
      <trkpt lat="41.4283560" lon="2.0452020">
        <ele>209.8</ele>
        <time>2018-04-10T07:19:42Z</time>
      </trkpt>
      <trkpt lat="41.4283410" lon="2.0452510">
        <ele>210.2</ele>
        <time>2018-04-10T07:19:43Z</time>
      </trkpt>
      <trkpt lat="41.4282970" lon="2.0453270">
        <ele>211.0</ele>
        <time>2018-04-10T07:19:45Z</time>
      </trkpt>
      <trkpt lat="41.4282460" lon="2.0453760">
        <ele>211.6</ele>
        <time>2018-04-10T07:19:47Z</time>
      </trkpt>
      <trkpt lat="41.4281950" lon="2.0453990">
        <ele>212.0</ele>
        <time>2018-04-10T07:19:49Z</time>
      </trkpt>
      <trkpt lat="41.4281260" lon="2.0454200">
        <ele>212.4</ele>
        <time>2018-04-10T07:19:51Z</time>
      </trkpt>
      <trkpt lat="41.4280610" lon="2.0454300">
        <ele>212.8</ele>
        <time>2018-04-10T07:19:53Z</time>
      </trkpt>
      <trkpt lat="41.4280290" lon="2.0454400">
        <ele>213.0</ele>
        <time>2018-04-10T07:19:54Z</time>
      </trkpt>
      <trkpt lat="41.4280010" lon="2.0454600">
        <ele>213.4</ele>
        <time>2018-04-10T07:19:55Z</time>
      </trkpt>
      <trkpt lat="41.4279520" lon="2.0455190">
        <ele>214.0</ele>
        <time>2018-04-10T07:19:57Z</time>
      </trkpt>
      <trkpt lat="41.4279320" lon="2.0455550">
        <ele>214.4</ele>
        <time>2018-04-10T07:19:58Z</time>
      </trkpt>
      <trkpt lat="41.4279160" lon="2.0455920">
        <ele>214.8</ele>
        <time>2018-04-10T07:19:59Z</time>
      </trkpt>
      <trkpt lat="41.4278990" lon="2.0456700">
        <ele>215.2</ele>
        <time>2018-04-10T07:20:01Z</time>
      </trkpt>
      <trkpt lat="41.4278880" lon="2.0457740">
        <ele>215.6</ele>
        <time>2018-04-10T07:20:03Z</time>
      </trkpt>
      <trkpt lat="41.4278920" lon="2.0458700">
        <ele>216.2</ele>
        <time>2018-04-10T07:20:05Z</time>
      </trkpt>
      <trkpt lat="41.4279030" lon="2.0459620">
        <ele>216.6</ele>
        <time>2018-04-10T07:20:07Z</time>
      </trkpt>
      <trkpt lat="41.4279080" lon="2.0460110">
        <ele>216.8</ele>
        <time>2018-04-10T07:20:08Z</time>
      </trkpt>
      <trkpt lat="41.4279080" lon="2.0460610">
        <ele>217.0</ele>
        <time>2018-04-10T07:20:09Z</time>
      </trkpt>
      <trkpt lat="41.4279040" lon="2.0461150">
        <ele>217.2</ele>
        <time>2018-04-10T07:20:10Z</time>
      </trkpt>
      <trkpt lat="41.4278910" lon="2.0461630">
        <ele>217.4</ele>
        <time>2018-04-10T07:20:11Z</time>
      </trkpt>
      <trkpt lat="41.4278460" lon="2.0462380">
        <ele>218.0</ele>
        <time>2018-04-10T07:20:13Z</time>
      </trkpt>
      <trkpt lat="41.4277920" lon="2.0462810">
        <ele>218.4</ele>
        <time>2018-04-10T07:20:15Z</time>
      </trkpt>
      <trkpt lat="41.4277300" lon="2.0462980">
        <ele>219.0</ele>
        <time>2018-04-10T07:20:17Z</time>
      </trkpt>
      <trkpt lat="41.4277010" lon="2.0462930">
        <ele>219.2</ele>
        <time>2018-04-10T07:20:18Z</time>
      </trkpt>
      <trkpt lat="41.4276660" lon="2.0462890">
        <ele>219.4</ele>
        <time>2018-04-10T07:20:19Z</time>
      </trkpt>
      <trkpt lat="41.4276000" lon="2.0462750">
        <ele>219.8</ele>
        <time>2018-04-10T07:20:21Z</time>
      </trkpt>
      <trkpt lat="41.4275300" lon="2.0462610">
        <ele>220.2</ele>
        <time>2018-04-10T07:20:23Z</time>
      </trkpt>
      <trkpt lat="41.4274620" lon="2.0462430">
        <ele>220.8</ele>
        <time>2018-04-10T07:20:25Z</time>
      </trkpt>
      <trkpt lat="41.4274000" lon="2.0462380">
        <ele>221.8</ele>
        <time>2018-04-10T07:20:27Z</time>
      </trkpt>
      <trkpt lat="41.4273280" lon="2.0462260">
        <ele>222.4</ele>
        <time>2018-04-10T07:20:29Z</time>
      </trkpt>
      <trkpt lat="41.4272620" lon="2.0462060">
        <ele>222.8</ele>
        <time>2018-04-10T07:20:31Z</time>
      </trkpt>
      <trkpt lat="41.4271930" lon="2.0461870">
        <ele>223.4</ele>
        <time>2018-04-10T07:20:33Z</time>
      </trkpt>
      <trkpt lat="41.4271190" lon="2.0461670">
        <ele>224.0</ele>
        <time>2018-04-10T07:20:35Z</time>
      </trkpt>
      <trkpt lat="41.4270470" lon="2.0461580">
        <ele>224.4</ele>
        <time>2018-04-10T07:20:37Z</time>
      </trkpt>
      <trkpt lat="41.4269780" lon="2.0461530">
        <ele>224.8</ele>
        <time>2018-04-10T07:20:39Z</time>
      </trkpt>
      <trkpt lat="41.4269440" lon="2.0461620">
        <ele>225.0</ele>
        <time>2018-04-10T07:20:40Z</time>
      </trkpt>
      <trkpt lat="41.4269150" lon="2.0461770">
        <ele>225.4</ele>
        <time>2018-04-10T07:20:41Z</time>
      </trkpt>
      <trkpt lat="41.4268600" lon="2.0462200">
        <ele>225.8</ele>
        <time>2018-04-10T07:20:43Z</time>
      </trkpt>
      <trkpt lat="41.4268170" lon="2.0462900">
        <ele>226.2</ele>
        <time>2018-04-10T07:20:45Z</time>
      </trkpt>
      <trkpt lat="41.4267880" lon="2.0463750">
        <ele>226.6</ele>
        <time>2018-04-10T07:20:47Z</time>
      </trkpt>
      <trkpt lat="41.4267870" lon="2.0464710">
        <ele>227.0</ele>
        <time>2018-04-10T07:20:49Z</time>
      </trkpt>
      <trkpt lat="41.4267980" lon="2.0465190">
        <ele>227.2</ele>
        <time>2018-04-10T07:20:50Z</time>
      </trkpt>
      <trkpt lat="41.4268130" lon="2.0465620">
        <ele>227.6</ele>
        <time>2018-04-10T07:20:51Z</time>
      </trkpt>
      <trkpt lat="41.4268540" lon="2.0466430">
        <ele>228.4</ele>
        <time>2018-04-10T07:20:53Z</time>
      </trkpt>
      <trkpt lat="41.4269010" lon="2.0467180">
        <ele>229.0</ele>
        <time>2018-04-10T07:20:55Z</time>
      </trkpt>
      <trkpt lat="41.4269260" lon="2.0467530">
        <ele>229.6</ele>
        <time>2018-04-10T07:20:56Z</time>
      </trkpt>
      <trkpt lat="41.4269520" lon="2.0467850">
        <ele>230.0</ele>
        <time>2018-04-10T07:20:57Z</time>
      </trkpt>
      <trkpt lat="41.4270080" lon="2.0468420">
        <ele>230.4</ele>
        <time>2018-04-10T07:20:59Z</time>
      </trkpt>
      <trkpt lat="41.4270380" lon="2.0468660">
        <ele>230.8</ele>
        <time>2018-04-10T07:21:00Z</time>
      </trkpt>
      <trkpt lat="41.4270700" lon="2.0468850">
        <ele>231.2</ele>
        <time>2018-04-10T07:21:01Z</time>
      </trkpt>
      <trkpt lat="41.4271360" lon="2.0469190">
        <ele>231.6</ele>
        <time>2018-04-10T07:21:03Z</time>
      </trkpt>
      <trkpt lat="41.4272070" lon="2.0469390">
        <ele>232.0</ele>
        <time>2018-04-10T07:21:05Z</time>
      </trkpt>
      <trkpt lat="41.4272800" lon="2.0469580">
        <ele>232.6</ele>
        <time>2018-04-10T07:21:07Z</time>
      </trkpt>
      <trkpt lat="41.4273510" lon="2.0469800">
        <ele>233.2</ele>
        <time>2018-04-10T07:21:09Z</time>
      </trkpt>
      <trkpt lat="41.4274250" lon="2.0470070">
        <ele>233.6</ele>
        <time>2018-04-10T07:21:11Z</time>
      </trkpt>
      <trkpt lat="41.4274870" lon="2.0470530">
        <ele>234.0</ele>
        <time>2018-04-10T07:21:13Z</time>
      </trkpt>
      <trkpt lat="41.4275180" lon="2.0470800">
        <ele>234.2</ele>
        <time>2018-04-10T07:21:14Z</time>
      </trkpt>
      <trkpt lat="41.4275470" lon="2.0471100">
        <ele>234.6</ele>
        <time>2018-04-10T07:21:15Z</time>
      </trkpt>
      <trkpt lat="41.4276010" lon="2.0471740">
        <ele>234.8</ele>
        <time>2018-04-10T07:21:17Z</time>
      </trkpt>
      <trkpt lat="41.4276530" lon="2.0472390">
        <ele>235.2</ele>
        <time>2018-04-10T07:21:19Z</time>
      </trkpt>
      <trkpt lat="41.4276790" lon="2.0472730">
        <ele>235.4</ele>
        <time>2018-04-10T07:21:20Z</time>
      </trkpt>
      <trkpt lat="41.4277060" lon="2.0473050">
        <ele>235.6</ele>
        <time>2018-04-10T07:21:21Z</time>
      </trkpt>
      <trkpt lat="41.4277670" lon="2.0473590">
        <ele>236.0</ele>
        <time>2018-04-10T07:21:23Z</time>
      </trkpt>
      <trkpt lat="41.4278380" lon="2.0473940">
        <ele>236.6</ele>
        <time>2018-04-10T07:21:25Z</time>
      </trkpt>
      <trkpt lat="41.4279110" lon="2.0474220">
        <ele>237.8</ele>
        <time>2018-04-10T07:21:27Z</time>
      </trkpt>
      <trkpt lat="41.4279860" lon="2.0474480">
        <ele>238.4</ele>
        <time>2018-04-10T07:21:29Z</time>
      </trkpt>
      <trkpt lat="41.4280210" lon="2.0474650">
        <ele>238.8</ele>
        <time>2018-04-10T07:21:30Z</time>
      </trkpt>
      <trkpt lat="41.4280560" lon="2.0474850">
        <ele>239.0</ele>
        <time>2018-04-10T07:21:31Z</time>
      </trkpt>
      <trkpt lat="41.4281210" lon="2.0475300">
        <ele>239.4</ele>
        <time>2018-04-10T07:21:33Z</time>
      </trkpt>
      <trkpt lat="41.4281840" lon="2.0475800">
        <ele>240.0</ele>
        <time>2018-04-10T07:21:35Z</time>
      </trkpt>
      <trkpt lat="41.4282530" lon="2.0476290">
        <ele>240.4</ele>
        <time>2018-04-10T07:21:37Z</time>
      </trkpt>
      <trkpt lat="41.4283140" lon="2.0476830">
        <ele>241.0</ele>
        <time>2018-04-10T07:21:39Z</time>
      </trkpt>
      <trkpt lat="41.4283460" lon="2.0477090">
        <ele>241.2</ele>
        <time>2018-04-10T07:21:40Z</time>
      </trkpt>
      <trkpt lat="41.4283780" lon="2.0477360">
        <ele>241.4</ele>
        <time>2018-04-10T07:21:41Z</time>
      </trkpt>
      <trkpt lat="41.4284380" lon="2.0477910">
        <ele>242.0</ele>
        <time>2018-04-10T07:21:43Z</time>
      </trkpt>
      <trkpt lat="41.4284670" lon="2.0478190">
        <ele>242.4</ele>
        <time>2018-04-10T07:21:44Z</time>
      </trkpt>
      <trkpt lat="41.4284970" lon="2.0478470">
        <ele>242.8</ele>
        <time>2018-04-10T07:21:45Z</time>
      </trkpt>
      <trkpt lat="41.4285550" lon="2.0479050">
        <ele>243.4</ele>
        <time>2018-04-10T07:21:47Z</time>
      </trkpt>
      <trkpt lat="41.4285840" lon="2.0479340">
        <ele>243.6</ele>
        <time>2018-04-10T07:21:48Z</time>
      </trkpt>
      <trkpt lat="41.4286130" lon="2.0479650">
        <ele>243.8</ele>
        <time>2018-04-10T07:21:49Z</time>
      </trkpt>
      <trkpt lat="41.4286600" lon="2.0480400">
        <ele>244.4</ele>
        <time>2018-04-10T07:21:51Z</time>
      </trkpt>
      <trkpt lat="41.4286830" lon="2.0480780">
        <ele>244.8</ele>
        <time>2018-04-10T07:21:52Z</time>
      </trkpt>
      <trkpt lat="41.4287060" lon="2.0481160">
        <ele>245.0</ele>
        <time>2018-04-10T07:21:53Z</time>
      </trkpt>
      <trkpt lat="41.4287500" lon="2.0481950">
        <ele>245.8</ele>
        <time>2018-04-10T07:21:55Z</time>
      </trkpt>
      <trkpt lat="41.4287880" lon="2.0482780">
        <ele>246.4</ele>
        <time>2018-04-10T07:21:57Z</time>
      </trkpt>
      <trkpt lat="41.4288240" lon="2.0483620">
        <ele>247.0</ele>
        <time>2018-04-10T07:21:59Z</time>
      </trkpt>
      <trkpt lat="41.4288590" lon="2.0484460">
        <ele>247.4</ele>
        <time>2018-04-10T07:22:01Z</time>
      </trkpt>
      <trkpt lat="41.4288970" lon="2.0485310">
        <ele>248.0</ele>
        <time>2018-04-10T07:22:03Z</time>
      </trkpt>
      <trkpt lat="41.4289180" lon="2.0485720">
        <ele>248.2</ele>
        <time>2018-04-10T07:22:04Z</time>
      </trkpt>
      <trkpt lat="41.4289400" lon="2.0486110">
        <ele>248.6</ele>
        <time>2018-04-10T07:22:05Z</time>
      </trkpt>
      <trkpt lat="41.4289820" lon="2.0486910">
        <ele>249.0</ele>
        <time>2018-04-10T07:22:07Z</time>
      </trkpt>
      <trkpt lat="41.4290030" lon="2.0487310">
        <ele>249.4</ele>
        <time>2018-04-10T07:22:08Z</time>
      </trkpt>
      <trkpt lat="41.4290240" lon="2.0487720">
        <ele>249.6</ele>
        <time>2018-04-10T07:22:09Z</time>
      </trkpt>
      <trkpt lat="41.4290620" lon="2.0488520">
        <ele>250.2</ele>
        <time>2018-04-10T07:22:11Z</time>
      </trkpt>
      <trkpt lat="41.4291020" lon="2.0489350">
        <ele>250.6</ele>
        <time>2018-04-10T07:22:13Z</time>
      </trkpt>
      <trkpt lat="41.4291390" lon="2.0490210">
        <ele>251.2</ele>
        <time>2018-04-10T07:22:15Z</time>
      </trkpt>
      <trkpt lat="41.4291830" lon="2.0491020">
        <ele>251.8</ele>
        <time>2018-04-10T07:22:17Z</time>
      </trkpt>
      <trkpt lat="41.4292060" lon="2.0491420">
        <ele>252.0</ele>
        <time>2018-04-10T07:22:18Z</time>
      </trkpt>
      <trkpt lat="41.4292290" lon="2.0491800">
        <ele>252.2</ele>
        <time>2018-04-10T07:22:19Z</time>
      </trkpt>
      <trkpt lat="41.4292750" lon="2.0492580">
        <ele>252.8</ele>
        <time>2018-04-10T07:22:21Z</time>
      </trkpt>
      <trkpt lat="41.4293210" lon="2.0493390">
        <ele>253.2</ele>
        <time>2018-04-10T07:22:23Z</time>
      </trkpt>
      <trkpt lat="41.4293640" lon="2.0494190">
        <ele>254.0</ele>
        <time>2018-04-10T07:22:25Z</time>
      </trkpt>
      <trkpt lat="41.4293850" lon="2.0494570">
        <ele>254.4</ele>
        <time>2018-04-10T07:22:26Z</time>
      </trkpt>
      <trkpt lat="41.4294100" lon="2.0494960">
        <ele>254.6</ele>
        <time>2018-04-10T07:22:27Z</time>
      </trkpt>
      <trkpt lat="41.4294440" lon="2.0495790">
        <ele>255.0</ele>
        <time>2018-04-10T07:22:29Z</time>
      </trkpt>
      <trkpt lat="41.4294550" lon="2.0496220">
        <ele>255.4</ele>
        <time>2018-04-10T07:22:30Z</time>
      </trkpt>
      <trkpt lat="41.4294610" lon="2.0496670">
        <ele>255.6</ele>
        <time>2018-04-10T07:22:31Z</time>
      </trkpt>
      <trkpt lat="41.4294540" lon="2.0497590">
        <ele>256.2</ele>
        <time>2018-04-10T07:22:33Z</time>
      </trkpt>
      <trkpt lat="41.4294440" lon="2.0498030">
        <ele>256.4</ele>
        <time>2018-04-10T07:22:34Z</time>
      </trkpt>
      <trkpt lat="41.4294310" lon="2.0498450">
        <ele>256.8</ele>
        <time>2018-04-10T07:22:35Z</time>
      </trkpt>
      <trkpt lat="41.4294020" lon="2.0499250">
        <ele>257.4</ele>
        <time>2018-04-10T07:22:37Z</time>
      </trkpt>
      <trkpt lat="41.4293870" lon="2.0499670">
        <ele>257.6</ele>
        <time>2018-04-10T07:22:38Z</time>
      </trkpt>
      <trkpt lat="41.4293720" lon="2.0500120">
        <ele>257.8</ele>
        <time>2018-04-10T07:22:39Z</time>
      </trkpt>
      <trkpt lat="41.4293420" lon="2.0501040">
        <ele>258.2</ele>
        <time>2018-04-10T07:22:41Z</time>
      </trkpt>
      <trkpt lat="41.4293170" lon="2.0501980">
        <ele>258.8</ele>
        <time>2018-04-10T07:22:43Z</time>
      </trkpt>
      <trkpt lat="41.4292910" lon="2.0502930">
        <ele>259.2</ele>
        <time>2018-04-10T07:22:45Z</time>
      </trkpt>
      <trkpt lat="41.4292770" lon="2.0503900">
        <ele>260.0</ele>
        <time>2018-04-10T07:22:47Z</time>
      </trkpt>
      <trkpt lat="41.4292900" lon="2.0504810">
        <ele>260.6</ele>
        <time>2018-04-10T07:22:49Z</time>
      </trkpt>
      <trkpt lat="41.4293320" lon="2.0505590">
        <ele>261.2</ele>
        <time>2018-04-10T07:22:51Z</time>
      </trkpt>
      <trkpt lat="41.4293890" lon="2.0506170">
        <ele>261.8</ele>
        <time>2018-04-10T07:22:53Z</time>
      </trkpt>
      <trkpt lat="41.4294150" lon="2.0506470">
        <ele>262.4</ele>
        <time>2018-04-10T07:22:54Z</time>
      </trkpt>
      <trkpt lat="41.4294410" lon="2.0506790">
        <ele>262.8</ele>
        <time>2018-04-10T07:22:55Z</time>
      </trkpt>
      <trkpt lat="41.4295020" lon="2.0507480">
        <ele>263.2</ele>
        <time>2018-04-10T07:22:57Z</time>
      </trkpt>
      <trkpt lat="41.4295310" lon="2.0507860">
        <ele>263.4</ele>
        <time>2018-04-10T07:22:58Z</time>
      </trkpt>
      <trkpt lat="41.4295670" lon="2.0508240">
        <ele>263.8</ele>
        <time>2018-04-10T07:22:59Z</time>
      </trkpt>
      <trkpt lat="41.4296210" lon="2.0509040">
        <ele>264.4</ele>
        <time>2018-04-10T07:23:01Z</time>
      </trkpt>
      <trkpt lat="41.4296470" lon="2.0509400">
        <ele>264.6</ele>
        <time>2018-04-10T07:23:02Z</time>
      </trkpt>
      <trkpt lat="41.4296730" lon="2.0509740">
        <ele>264.8</ele>
        <time>2018-04-10T07:23:03Z</time>
      </trkpt>
      <trkpt lat="41.4297240" lon="2.0510490">
        <ele>265.4</ele>
        <time>2018-04-10T07:23:05Z</time>
      </trkpt>
      <trkpt lat="41.4297760" lon="2.0511190">
        <ele>265.8</ele>
        <time>2018-04-10T07:23:07Z</time>
      </trkpt>
      <trkpt lat="41.4298320" lon="2.0511840">
        <ele>266.4</ele>
        <time>2018-04-10T07:23:09Z</time>
      </trkpt>
      <trkpt lat="41.4298900" lon="2.0512510">
        <ele>267.0</ele>
        <time>2018-04-10T07:23:11Z</time>
      </trkpt>
      <trkpt lat="41.4299500" lon="2.0513140">
        <ele>267.6</ele>
        <time>2018-04-10T07:23:13Z</time>
      </trkpt>
      <trkpt lat="41.4300130" lon="2.0513800">
        <ele>268.0</ele>
        <time>2018-04-10T07:23:15Z</time>
      </trkpt>
      <trkpt lat="41.4300720" lon="2.0514630">
        <ele>268.6</ele>
        <time>2018-04-10T07:23:17Z</time>
      </trkpt>
      <trkpt lat="41.4301110" lon="2.0515570">
        <ele>269.2</ele>
        <time>2018-04-10T07:23:19Z</time>
      </trkpt>
      <trkpt lat="41.4301410" lon="2.0516540">
        <ele>269.6</ele>
        <time>2018-04-10T07:23:21Z</time>
      </trkpt>
      <trkpt lat="41.4301700" lon="2.0517490">
        <ele>270.2</ele>
        <time>2018-04-10T07:23:23Z</time>
      </trkpt>
      <trkpt lat="41.4302000" lon="2.0518440">
        <ele>270.8</ele>
        <time>2018-04-10T07:23:25Z</time>
      </trkpt>
      <trkpt lat="41.4302260" lon="2.0519400">
        <ele>271.4</ele>
        <time>2018-04-10T07:23:27Z</time>
      </trkpt>
      <trkpt lat="41.4302520" lon="2.0520330">
        <ele>271.8</ele>
        <time>2018-04-10T07:23:29Z</time>
      </trkpt>
      <trkpt lat="41.4302790" lon="2.0521210">
        <ele>272.4</ele>
        <time>2018-04-10T07:23:31Z</time>
      </trkpt>
      <trkpt lat="41.4303060" lon="2.0522190">
        <ele>273.0</ele>
        <time>2018-04-10T07:23:33Z</time>
      </trkpt>
      <trkpt lat="41.4303320" lon="2.0523160">
        <ele>273.8</ele>
        <time>2018-04-10T07:23:35Z</time>
      </trkpt>
      <trkpt lat="41.4303590" lon="2.0524150">
        <ele>274.2</ele>
        <time>2018-04-10T07:23:37Z</time>
      </trkpt>
      <trkpt lat="41.4303830" lon="2.0525180">
        <ele>274.8</ele>
        <time>2018-04-10T07:23:39Z</time>
      </trkpt>
      <trkpt lat="41.4304040" lon="2.0526190">
        <ele>275.4</ele>
        <time>2018-04-10T07:23:41Z</time>
      </trkpt>
      <trkpt lat="41.4304240" lon="2.0527200">
        <ele>276.0</ele>
        <time>2018-04-10T07:23:43Z</time>
      </trkpt>
      <trkpt lat="41.4304360" lon="2.0528230">
        <ele>276.4</ele>
        <time>2018-04-10T07:23:45Z</time>
      </trkpt>
      <trkpt lat="41.4304420" lon="2.0529240">
        <ele>276.8</ele>
        <time>2018-04-10T07:23:47Z</time>
      </trkpt>
      <trkpt lat="41.4304470" lon="2.0529760">
        <ele>277.2</ele>
        <time>2018-04-10T07:23:48Z</time>
      </trkpt>
      <trkpt lat="41.4304520" lon="2.0530290">
        <ele>277.4</ele>
        <time>2018-04-10T07:23:49Z</time>
      </trkpt>
      <trkpt lat="41.4304630" lon="2.0531340">
        <ele>278.0</ele>
        <time>2018-04-10T07:23:51Z</time>
      </trkpt>
      <trkpt lat="41.4304720" lon="2.0531830">
        <ele>278.4</ele>
        <time>2018-04-10T07:23:52Z</time>
      </trkpt>
      <trkpt lat="41.4304840" lon="2.0532320">
        <ele>278.8</ele>
        <time>2018-04-10T07:23:53Z</time>
      </trkpt>
      <trkpt lat="41.4305210" lon="2.0533250">
        <ele>279.4</ele>
        <time>2018-04-10T07:23:55Z</time>
      </trkpt>
      <trkpt lat="41.4305440" lon="2.0533670">
        <ele>279.8</ele>
        <time>2018-04-10T07:23:56Z</time>
      </trkpt>
      <trkpt lat="41.4305720" lon="2.0534070">
        <ele>280.2</ele>
        <time>2018-04-10T07:23:57Z</time>
      </trkpt>
      <trkpt lat="41.4306380" lon="2.0534830">
        <ele>280.6</ele>
        <time>2018-04-10T07:23:59Z</time>
      </trkpt>
      <trkpt lat="41.4306720" lon="2.0535160">
        <ele>280.8</ele>
        <time>2018-04-10T07:24:00Z</time>
      </trkpt>
      <trkpt lat="41.4307080" lon="2.0535480">
        <ele>281.0</ele>
        <time>2018-04-10T07:24:01Z</time>
      </trkpt>
      <trkpt lat="41.4307850" lon="2.0536080">
        <ele>281.6</ele>
        <time>2018-04-10T07:24:03Z</time>
      </trkpt>
      <trkpt lat="41.4308260" lon="2.0536350">
        <ele>282.0</ele>
        <time>2018-04-10T07:24:04Z</time>
      </trkpt>
      <trkpt lat="41.4308670" lon="2.0536610">
        <ele>282.2</ele>
        <time>2018-04-10T07:24:05Z</time>
      </trkpt>
      <trkpt lat="41.4309060" lon="2.0536890">
        <ele>282.4</ele>
        <time>2018-04-10T07:24:06Z</time>
      </trkpt>
      <trkpt lat="41.4309430" lon="2.0537210">
        <ele>282.8</ele>
        <time>2018-04-10T07:24:07Z</time>
      </trkpt>
      <trkpt lat="41.4309790" lon="2.0537570">
        <ele>283.0</ele>
        <time>2018-04-10T07:24:08Z</time>
      </trkpt>
      <trkpt lat="41.4310120" lon="2.0537980">
        <ele>283.2</ele>
        <time>2018-04-10T07:24:09Z</time>
      </trkpt>
      <trkpt lat="41.4310610" lon="2.0538950">
        <ele>283.4</ele>
        <time>2018-04-10T07:24:11Z</time>
      </trkpt>
      <trkpt lat="41.4310750" lon="2.0540100">
        <ele>283.8</ele>
        <time>2018-04-10T07:24:13Z</time>
      </trkpt>
      <trkpt lat="41.4310560" lon="2.0541190">
        <ele>284.0</ele>
        <time>2018-04-10T07:24:15Z</time>
      </trkpt>
      <trkpt lat="41.4310140" lon="2.0542200">
        <ele>284.4</ele>
        <time>2018-04-10T07:24:17Z</time>
      </trkpt>
      <trkpt lat="41.4309560" lon="2.0543050">
        <ele>284.8</ele>
        <time>2018-04-10T07:24:19Z</time>
      </trkpt>
      <trkpt lat="41.4309310" lon="2.0543460">
        <ele>285.0</ele>
        <time>2018-04-10T07:24:20Z</time>
      </trkpt>
      <trkpt lat="41.4309010" lon="2.0543850">
        <ele>285.6</ele>
        <time>2018-04-10T07:24:21Z</time>
      </trkpt>
      <trkpt lat="41.4308410" lon="2.0544630">
        <ele>286.4</ele>
        <time>2018-04-10T07:24:23Z</time>
      </trkpt>
      <trkpt lat="41.4307810" lon="2.0545420">
        <ele>286.8</ele>
        <time>2018-04-10T07:24:25Z</time>
      </trkpt>
      <trkpt lat="41.4307290" lon="2.0546260">
        <ele>287.6</ele>
        <time>2018-04-10T07:24:27Z</time>
      </trkpt>
      <trkpt lat="41.4306820" lon="2.0547180">
        <ele>288.2</ele>
        <time>2018-04-10T07:24:29Z</time>
      </trkpt>
      <trkpt lat="41.4306470" lon="2.0548160">
        <ele>288.8</ele>
        <time>2018-04-10T07:24:31Z</time>
      </trkpt>
      <trkpt lat="41.4306170" lon="2.0549180">
        <ele>289.4</ele>
        <time>2018-04-10T07:24:33Z</time>
      </trkpt>
      <trkpt lat="41.4305880" lon="2.0550320">
        <ele>289.8</ele>
        <time>2018-04-10T07:24:35Z</time>
      </trkpt>
      <trkpt lat="41.4305590" lon="2.0551470">
        <ele>290.4</ele>
        <time>2018-04-10T07:24:37Z</time>
      </trkpt>
      <trkpt lat="41.4305280" lon="2.0552600">
        <ele>290.8</ele>
        <time>2018-04-10T07:24:39Z</time>
      </trkpt>
      <trkpt lat="41.4305120" lon="2.0553160">
        <ele>291.0</ele>
        <time>2018-04-10T07:24:40Z</time>
      </trkpt>
      <trkpt lat="41.4304910" lon="2.0553690">
        <ele>291.4</ele>
        <time>2018-04-10T07:24:41Z</time>
      </trkpt>
      <trkpt lat="41.4304440" lon="2.0554670">
        <ele>291.6</ele>
        <time>2018-04-10T07:24:43Z</time>
      </trkpt>
      <trkpt lat="41.4303830" lon="2.0555480">
        <ele>292.0</ele>
        <time>2018-04-10T07:24:45Z</time>
      </trkpt>
      <trkpt lat="41.4303140" lon="2.0555900">
        <ele>292.4</ele>
        <time>2018-04-10T07:24:47Z</time>
      </trkpt>
      <trkpt lat="41.4302410" lon="2.0556130">
        <ele>293.0</ele>
        <time>2018-04-10T07:24:49Z</time>
      </trkpt>
      <trkpt lat="41.4302030" lon="2.0556170">
        <ele>293.2</ele>
        <time>2018-04-10T07:24:50Z</time>
      </trkpt>
      <trkpt lat="41.4301640" lon="2.0556170">
        <ele>293.8</ele>
        <time>2018-04-10T07:24:51Z</time>
      </trkpt>
      <trkpt lat="41.4300920" lon="2.0556340">
        <ele>294.4</ele>
        <time>2018-04-10T07:24:53Z</time>
      </trkpt>
      <trkpt lat="41.4300270" lon="2.0556640">
        <ele>295.0</ele>
        <time>2018-04-10T07:24:55Z</time>
      </trkpt>
      <trkpt lat="41.4299940" lon="2.0556900">
        <ele>295.4</ele>
        <time>2018-04-10T07:24:56Z</time>
      </trkpt>
      <trkpt lat="41.4299640" lon="2.0557170">
        <ele>295.6</ele>
        <time>2018-04-10T07:24:57Z</time>
      </trkpt>
      <trkpt lat="41.4299040" lon="2.0557810">
        <ele>296.4</ele>
        <time>2018-04-10T07:24:59Z</time>
      </trkpt>
      <trkpt lat="41.4298480" lon="2.0558530">
        <ele>297.0</ele>
        <time>2018-04-10T07:25:01Z</time>
      </trkpt>
      <trkpt lat="41.4297900" lon="2.0559250">
        <ele>297.6</ele>
        <time>2018-04-10T07:25:03Z</time>
      </trkpt>
      <trkpt lat="41.4297350" lon="2.0559970">
        <ele>298.2</ele>
        <time>2018-04-10T07:25:05Z</time>
      </trkpt>
      <trkpt lat="41.4296850" lon="2.0560830">
        <ele>298.8</ele>
        <time>2018-04-10T07:25:07Z</time>
      </trkpt>
      <trkpt lat="41.4296350" lon="2.0561660">
        <ele>299.2</ele>
        <time>2018-04-10T07:25:09Z</time>
      </trkpt>
      <trkpt lat="41.4295800" lon="2.0562460">
        <ele>299.8</ele>
        <time>2018-04-10T07:25:11Z</time>
      </trkpt>
      <trkpt lat="41.4295280" lon="2.0563390">
        <ele>300.4</ele>
        <time>2018-04-10T07:25:13Z</time>
      </trkpt>
      <trkpt lat="41.4294750" lon="2.0564240">
        <ele>301.0</ele>
        <time>2018-04-10T07:25:15Z</time>
      </trkpt>
      <trkpt lat="41.4294190" lon="2.0565020">
        <ele>301.6</ele>
        <time>2018-04-10T07:25:17Z</time>
      </trkpt>
      <trkpt lat="41.4293610" lon="2.0565720">
        <ele>302.2</ele>
        <time>2018-04-10T07:25:19Z</time>
      </trkpt>
      <trkpt lat="41.4293020" lon="2.0566370">
        <ele>303.4</ele>
        <time>2018-04-10T07:25:21Z</time>
      </trkpt>
      <trkpt lat="41.4292450" lon="2.0567070">
        <ele>303.8</ele>
        <time>2018-04-10T07:25:23Z</time>
      </trkpt>
      <trkpt lat="41.4291930" lon="2.0567800">
        <ele>304.4</ele>
        <time>2018-04-10T07:25:25Z</time>
      </trkpt>
      <trkpt lat="41.4291460" lon="2.0568620">
        <ele>305.0</ele>
        <time>2018-04-10T07:25:27Z</time>
      </trkpt>
      <trkpt lat="41.4291230" lon="2.0569060">
        <ele>305.2</ele>
        <time>2018-04-10T07:25:28Z</time>
      </trkpt>
      <trkpt lat="41.4291010" lon="2.0569470">
        <ele>305.6</ele>
        <time>2018-04-10T07:25:29Z</time>
      </trkpt>
      <trkpt lat="41.4290610" lon="2.0570270">
        <ele>306.2</ele>
        <time>2018-04-10T07:25:31Z</time>
      </trkpt>
      <trkpt lat="41.4290420" lon="2.0570740">
        <ele>306.6</ele>
        <time>2018-04-10T07:25:32Z</time>
      </trkpt>
      <trkpt lat="41.4290230" lon="2.0571210">
        <ele>306.8</ele>
        <time>2018-04-10T07:25:33Z</time>
      </trkpt>
      <trkpt lat="41.4289830" lon="2.0572090">
        <ele>307.4</ele>
        <time>2018-04-10T07:25:35Z</time>
      </trkpt>
      <trkpt lat="41.4289650" lon="2.0572570">
        <ele>307.6</ele>
        <time>2018-04-10T07:25:36Z</time>
      </trkpt>
      <trkpt lat="41.4289480" lon="2.0573050">
        <ele>307.8</ele>
        <time>2018-04-10T07:25:37Z</time>
      </trkpt>
      <trkpt lat="41.4289100" lon="2.0574030">
        <ele>308.4</ele>
        <time>2018-04-10T07:25:39Z</time>
      </trkpt>
      <trkpt lat="41.4288930" lon="2.0574560">
        <ele>308.6</ele>
        <time>2018-04-10T07:25:40Z</time>
      </trkpt>
      <trkpt lat="41.4288750" lon="2.0575080">
        <ele>308.8</ele>
        <time>2018-04-10T07:25:41Z</time>
      </trkpt>
      <trkpt lat="41.4288370" lon="2.0576120">
        <ele>309.4</ele>
        <time>2018-04-10T07:25:43Z</time>
      </trkpt>
      <trkpt lat="41.4288170" lon="2.0576640">
        <ele>309.8</ele>
        <time>2018-04-10T07:25:44Z</time>
      </trkpt>
      <trkpt lat="41.4287950" lon="2.0577160">
        <ele>310.0</ele>
        <time>2018-04-10T07:25:45Z</time>
      </trkpt>
      <trkpt lat="41.4287440" lon="2.0578150">
        <ele>310.4</ele>
        <time>2018-04-10T07:25:47Z</time>
      </trkpt>
      <trkpt lat="41.4286880" lon="2.0579070">
        <ele>310.6</ele>
        <time>2018-04-10T07:25:49Z</time>
      </trkpt>
      <trkpt lat="41.4286570" lon="2.0579480">
        <ele>311.2</ele>
        <time>2018-04-10T07:25:50Z</time>
      </trkpt>
      <trkpt lat="41.4286220" lon="2.0579860">
        <ele>311.4</ele>
        <time>2018-04-10T07:25:51Z</time>
      </trkpt>
      <trkpt lat="41.4285550" lon="2.0580720">
        <ele>311.8</ele>
        <time>2018-04-10T07:25:53Z</time>
      </trkpt>
      <trkpt lat="41.4285240" lon="2.0581240">
        <ele>312.0</ele>
        <time>2018-04-10T07:25:54Z</time>
      </trkpt>
      <trkpt lat="41.4284920" lon="2.0581730">
        <ele>312.0</ele>
        <time>2018-04-10T07:25:55Z</time>
      </trkpt>
      <trkpt lat="41.4284610" lon="2.0582260">
        <ele>312.2</ele>
        <time>2018-04-10T07:25:56Z</time>
      </trkpt>
      <trkpt lat="41.4284310" lon="2.0582820">
        <ele>312.4</ele>
        <time>2018-04-10T07:25:57Z</time>
      </trkpt>
      <trkpt lat="41.4283740" lon="2.0583940">
        <ele>312.6</ele>
        <time>2018-04-10T07:25:59Z</time>
      </trkpt>
      <trkpt lat="41.4283240" lon="2.0585210">
        <ele>312.8</ele>
        <time>2018-04-10T07:26:01Z</time>
      </trkpt>
      <trkpt lat="41.4283010" lon="2.0585920">
        <ele>312.8</ele>
        <time>2018-04-10T07:26:02Z</time>
      </trkpt>
      <trkpt lat="41.4282830" lon="2.0586690">
        <ele>313.0</ele>
        <time>2018-04-10T07:26:03Z</time>
      </trkpt>
      <trkpt lat="41.4282400" lon="2.0588150">
        <ele>313.0</ele>
        <time>2018-04-10T07:26:05Z</time>
      </trkpt>
      <trkpt lat="41.4281940" lon="2.0589620">
        <ele>313.2</ele>
        <time>2018-04-10T07:26:07Z</time>
      </trkpt>
      <trkpt lat="41.4281610" lon="2.0591240">
        <ele>313.2</ele>
        <time>2018-04-10T07:26:09Z</time>
      </trkpt>
      <trkpt lat="41.4281510" lon="2.0592920">
        <ele>313.2</ele>
        <time>2018-04-10T07:26:11Z</time>
      </trkpt>
      <trkpt lat="41.4281790" lon="2.0594500">
        <ele>313.2</ele>
        <time>2018-04-10T07:26:13Z</time>
      </trkpt>
      <trkpt lat="41.4282440" lon="2.0596030">
        <ele>313.2</ele>
        <time>2018-04-10T07:26:15Z</time>
      </trkpt>
      <trkpt lat="41.4282800" lon="2.0596770">
        <ele>313.2</ele>
        <time>2018-04-10T07:26:16Z</time>
      </trkpt>
      <trkpt lat="41.4283220" lon="2.0597580">
        <ele>313.2</ele>
        <time>2018-04-10T07:26:17Z</time>
      </trkpt>
      <trkpt lat="41.4283960" lon="2.0599160">
        <ele>313.2</ele>
        <time>2018-04-10T07:26:19Z</time>
      </trkpt>
      <trkpt lat="41.4284630" lon="2.0600780">
        <ele>313.2</ele>
        <time>2018-04-10T07:26:21Z</time>
      </trkpt>
      <trkpt lat="41.4284900" lon="2.0601620">
        <ele>313.2</ele>
        <time>2018-04-10T07:26:22Z</time>
      </trkpt>
      <trkpt lat="41.4285100" lon="2.0602510">
        <ele>313.2</ele>
        <time>2018-04-10T07:26:23Z</time>
      </trkpt>
      <trkpt lat="41.4285450" lon="2.0604280">
        <ele>313.4</ele>
        <time>2018-04-10T07:26:25Z</time>
      </trkpt>
      <trkpt lat="41.4285770" lon="2.0605990">
        <ele>313.2</ele>
        <time>2018-04-10T07:26:27Z</time>
      </trkpt>
      <trkpt lat="41.4286250" lon="2.0607650">
        <ele>313.4</ele>
        <time>2018-04-10T07:26:29Z</time>
      </trkpt>
      <trkpt lat="41.4286810" lon="2.0609290">
        <ele>313.2</ele>
        <time>2018-04-10T07:26:31Z</time>
      </trkpt>
      <trkpt lat="41.4287000" lon="2.0610150">
        <ele>313.2</ele>
        <time>2018-04-10T07:26:32Z</time>
      </trkpt>
      <trkpt lat="41.4287040" lon="2.0611030">
        <ele>313.4</ele>
        <time>2018-04-10T07:26:33Z</time>
      </trkpt>
      <trkpt lat="41.4286500" lon="2.0612590">
        <ele>313.4</ele>
        <time>2018-04-10T07:26:35Z</time>
      </trkpt>
      <trkpt lat="41.4285390" lon="2.0613380">
        <ele>313.4</ele>
        <time>2018-04-10T07:26:37Z</time>
      </trkpt>
      <trkpt lat="41.4284090" lon="2.0613520">
        <ele>313.6</ele>
        <time>2018-04-10T07:26:39Z</time>
      </trkpt>
      <trkpt lat="41.4282770" lon="2.0613550">
        <ele>313.6</ele>
        <time>2018-04-10T07:26:41Z</time>
      </trkpt>
      <trkpt lat="41.4281450" lon="2.0613630">
        <ele>313.8</ele>
        <time>2018-04-10T07:26:43Z</time>
      </trkpt>
      <trkpt lat="41.4280120" lon="2.0613660">
        <ele>313.8</ele>
        <time>2018-04-10T07:26:45Z</time>
      </trkpt>
      <trkpt lat="41.4278790" lon="2.0613670">
        <ele>314.0</ele>
        <time>2018-04-10T07:26:47Z</time>
      </trkpt>
      <trkpt lat="41.4277510" lon="2.0613710">
        <ele>314.0</ele>
        <time>2018-04-10T07:26:49Z</time>
      </trkpt>
      <trkpt lat="41.4276860" lon="2.0613710">
        <ele>314.0</ele>
        <time>2018-04-10T07:26:50Z</time>
      </trkpt>
      <trkpt lat="41.4276220" lon="2.0613770">
        <ele>314.2</ele>
        <time>2018-04-10T07:26:51Z</time>
      </trkpt>
      <trkpt lat="41.4275620" lon="2.0613880">
        <ele>314.2</ele>
        <time>2018-04-10T07:26:52Z</time>
      </trkpt>
      <trkpt lat="41.4275070" lon="2.0613960">
        <ele>314.2</ele>
        <time>2018-04-10T07:26:53Z</time>
      </trkpt>
      <trkpt lat="41.4274010" lon="2.0614040">
        <ele>314.4</ele>
        <time>2018-04-10T07:26:55Z</time>
      </trkpt>
      <trkpt lat="41.4273110" lon="2.0614090">
        <ele>314.6</ele>
        <time>2018-04-10T07:26:57Z</time>
      </trkpt>
      <trkpt lat="41.4272270" lon="2.0614130">
        <ele>315.0</ele>
        <time>2018-04-10T07:26:59Z</time>
      </trkpt>
      <trkpt lat="41.4271860" lon="2.0614180">
        <ele>315.2</ele>
        <time>2018-04-10T07:27:00Z</time>
      </trkpt>
      <trkpt lat="41.4271470" lon="2.0614230">
        <ele>315.4</ele>
        <time>2018-04-10T07:27:01Z</time>
      </trkpt>
      <trkpt lat="41.4270640" lon="2.0614300">
        <ele>316.0</ele>
        <time>2018-04-10T07:27:03Z</time>
      </trkpt>
      <trkpt lat="41.4270260" lon="2.0614310">
        <ele>316.4</ele>
        <time>2018-04-10T07:27:04Z</time>
      </trkpt>
      <trkpt lat="41.4269890" lon="2.0614340">
        <ele>316.8</ele>
        <time>2018-04-10T07:27:05Z</time>
      </trkpt>
      <trkpt lat="41.4269080" lon="2.0614570">
        <ele>317.2</ele>
        <time>2018-04-10T07:27:07Z</time>
      </trkpt>
      <trkpt lat="41.4268670" lon="2.0614800">
        <ele>317.6</ele>
        <time>2018-04-10T07:27:08Z</time>
      </trkpt>
      <trkpt lat="41.4268280" lon="2.0615010">
        <ele>317.8</ele>
        <time>2018-04-10T07:27:09Z</time>
      </trkpt>
      <trkpt lat="41.4267460" lon="2.0615360">
        <ele>318.4</ele>
        <time>2018-04-10T07:27:11Z</time>
      </trkpt>
      <trkpt lat="41.4267030" lon="2.0615540">
        <ele>318.8</ele>
        <time>2018-04-10T07:27:12Z</time>
      </trkpt>
      <trkpt lat="41.4266600" lon="2.0615740">
        <ele>319.2</ele>
        <time>2018-04-10T07:27:13Z</time>
      </trkpt>
      <trkpt lat="41.4266200" lon="2.0615960">
        <ele>319.6</ele>
        <time>2018-04-10T07:27:14Z</time>
      </trkpt>
      <trkpt lat="41.4265820" lon="2.0616250">
        <ele>319.8</ele>
        <time>2018-04-10T07:27:15Z</time>
      </trkpt>
      <trkpt lat="41.4265060" lon="2.0616660">
        <ele>320.4</ele>
        <time>2018-04-10T07:27:17Z</time>
      </trkpt>
      <trkpt lat="41.4264680" lon="2.0616910">
        <ele>321.0</ele>
        <time>2018-04-10T07:27:18Z</time>
      </trkpt>
      <trkpt lat="41.4264290" lon="2.0617110">
        <ele>321.2</ele>
        <time>2018-04-10T07:27:19Z</time>
      </trkpt>
      <trkpt lat="41.4263500" lon="2.0617600">
        <ele>321.6</ele>
        <time>2018-04-10T07:27:21Z</time>
      </trkpt>
      <trkpt lat="41.4263100" lon="2.0617870">
        <ele>322.0</ele>
        <time>2018-04-10T07:27:22Z</time>
      </trkpt>
      <trkpt lat="41.4262670" lon="2.0618110">
        <ele>322.2</ele>
        <time>2018-04-10T07:27:23Z</time>
      </trkpt>
      <trkpt lat="41.4261840" lon="2.0618610">
        <ele>322.8</ele>
        <time>2018-04-10T07:27:25Z</time>
      </trkpt>
      <trkpt lat="41.4261430" lon="2.0618840">
        <ele>323.0</ele>
        <time>2018-04-10T07:27:26Z</time>
      </trkpt>
      <trkpt lat="41.4261030" lon="2.0619090">
        <ele>323.2</ele>
        <time>2018-04-10T07:27:27Z</time>
      </trkpt>
      <trkpt lat="41.4260630" lon="2.0619220">
        <ele>323.4</ele>
        <time>2018-04-10T07:27:28Z</time>
      </trkpt>
      <trkpt lat="41.4260240" lon="2.0619380">
        <ele>323.8</ele>
        <time>2018-04-10T07:27:29Z</time>
      </trkpt>
      <trkpt lat="41.4259840" lon="2.0619530">
        <ele>324.0</ele>
        <time>2018-04-10T07:27:30Z</time>
      </trkpt>
      <trkpt lat="41.4259450" lon="2.0619650">
        <ele>324.2</ele>
        <time>2018-04-10T07:27:31Z</time>
      </trkpt>
      <trkpt lat="41.4258730" lon="2.0619900">
        <ele>325.0</ele>
        <time>2018-04-10T07:27:33Z</time>
      </trkpt>
      <trkpt lat="41.4258370" lon="2.0620020">
        <ele>325.2</ele>
        <time>2018-04-10T07:27:34Z</time>
      </trkpt>
      <trkpt lat="41.4258010" lon="2.0620090">
        <ele>325.4</ele>
        <time>2018-04-10T07:27:35Z</time>
      </trkpt>
      <trkpt lat="41.4257280" lon="2.0620190">
        <ele>326.0</ele>
        <time>2018-04-10T07:27:37Z</time>
      </trkpt>
      <trkpt lat="41.4256910" lon="2.0620220">
        <ele>326.2</ele>
        <time>2018-04-10T07:27:38Z</time>
      </trkpt>
      <trkpt lat="41.4256540" lon="2.0620240">
        <ele>326.4</ele>
        <time>2018-04-10T07:27:39Z</time>
      </trkpt>
      <trkpt lat="41.4255790" lon="2.0620300">
        <ele>327.0</ele>
        <time>2018-04-10T07:27:41Z</time>
      </trkpt>
      <trkpt lat="41.4255430" lon="2.0620290">
        <ele>327.4</ele>
        <time>2018-04-10T07:27:42Z</time>
      </trkpt>
      <trkpt lat="41.4255080" lon="2.0620240">
        <ele>327.6</ele>
        <time>2018-04-10T07:27:43Z</time>
      </trkpt>
      <trkpt lat="41.4254370" lon="2.0620150">
        <ele>328.0</ele>
        <time>2018-04-10T07:27:45Z</time>
      </trkpt>
      <trkpt lat="41.4253620" lon="2.0620020">
        <ele>328.8</ele>
        <time>2018-04-10T07:27:47Z</time>
      </trkpt>
      <trkpt lat="41.4252900" lon="2.0619740">
        <ele>329.0</ele>
        <time>2018-04-10T07:27:49Z</time>
      </trkpt>
      <trkpt lat="41.4252240" lon="2.0619400">
        <ele>329.6</ele>
        <time>2018-04-10T07:27:51Z</time>
      </trkpt>
      <trkpt lat="41.4251850" lon="2.0619260">
        <ele>330.0</ele>
        <time>2018-04-10T07:27:52Z</time>
      </trkpt>
      <trkpt lat="41.4251450" lon="2.0619140">
        <ele>330.2</ele>
        <time>2018-04-10T07:27:53Z</time>
      </trkpt>
      <trkpt lat="41.4250680" lon="2.0618840">
        <ele>330.6</ele>
        <time>2018-04-10T07:27:55Z</time>
      </trkpt>
      <trkpt lat="41.4249900" lon="2.0618470">
        <ele>331.2</ele>
        <time>2018-04-10T07:27:57Z</time>
      </trkpt>
      <trkpt lat="41.4249120" lon="2.0618110">
        <ele>331.8</ele>
        <time>2018-04-10T07:27:59Z</time>
      </trkpt>
      <trkpt lat="41.4248730" lon="2.0617960">
        <ele>332.2</ele>
        <time>2018-04-10T07:28:00Z</time>
      </trkpt>
      <trkpt lat="41.4248330" lon="2.0617840">
        <ele>332.6</ele>
        <time>2018-04-10T07:28:01Z</time>
      </trkpt>
      <trkpt lat="41.4247590" lon="2.0617570">
        <ele>333.0</ele>
        <time>2018-04-10T07:28:03Z</time>
      </trkpt>
      <trkpt lat="41.4247250" lon="2.0617400">
        <ele>333.4</ele>
        <time>2018-04-10T07:28:04Z</time>
      </trkpt>
      <trkpt lat="41.4246890" lon="2.0617230">
        <ele>333.8</ele>
        <time>2018-04-10T07:28:05Z</time>
      </trkpt>
      <trkpt lat="41.4246170" lon="2.0616890">
        <ele>334.2</ele>
        <time>2018-04-10T07:28:07Z</time>
      </trkpt>
      <trkpt lat="41.4245800" lon="2.0616810">
        <ele>334.6</ele>
        <time>2018-04-10T07:28:08Z</time>
      </trkpt>
      <trkpt lat="41.4245450" lon="2.0616730">
        <ele>334.8</ele>
        <time>2018-04-10T07:28:09Z</time>
      </trkpt>
      <trkpt lat="41.4244740" lon="2.0616560">
        <ele>335.4</ele>
        <time>2018-04-10T07:28:11Z</time>
      </trkpt>
      <trkpt lat="41.4244400" lon="2.0616410">
        <ele>335.6</ele>
        <time>2018-04-10T07:28:12Z</time>
      </trkpt>
      <trkpt lat="41.4244050" lon="2.0616220">
        <ele>335.8</ele>
        <time>2018-04-10T07:28:13Z</time>
      </trkpt>
      <trkpt lat="41.4243330" lon="2.0615930">
        <ele>336.4</ele>
        <time>2018-04-10T07:28:15Z</time>
      </trkpt>
      <trkpt lat="41.4242990" lon="2.0615800">
        <ele>336.6</ele>
        <time>2018-04-10T07:28:16Z</time>
      </trkpt>
      <trkpt lat="41.4242640" lon="2.0615670">
        <ele>337.2</ele>
        <time>2018-04-10T07:28:17Z</time>
      </trkpt>
      <trkpt lat="41.4241920" lon="2.0615430">
        <ele>337.8</ele>
        <time>2018-04-10T07:28:19Z</time>
      </trkpt>
      <trkpt lat="41.4241180" lon="2.0615230">
        <ele>338.4</ele>
        <time>2018-04-10T07:28:21Z</time>
      </trkpt>
      <trkpt lat="41.4240420" lon="2.0615100">
        <ele>338.8</ele>
        <time>2018-04-10T07:28:23Z</time>
      </trkpt>
      <trkpt lat="41.4239660" lon="2.0614920">
        <ele>339.2</ele>
        <time>2018-04-10T07:28:25Z</time>
      </trkpt>
      <trkpt lat="41.4238900" lon="2.0614790">
        <ele>339.8</ele>
        <time>2018-04-10T07:28:27Z</time>
      </trkpt>
      <trkpt lat="41.4238130" lon="2.0614700">
        <ele>340.4</ele>
        <time>2018-04-10T07:28:29Z</time>
      </trkpt>
      <trkpt lat="41.4237330" lon="2.0614600">
        <ele>341.0</ele>
        <time>2018-04-10T07:28:31Z</time>
      </trkpt>
      <trkpt lat="41.4236520" lon="2.0614460">
        <ele>341.4</ele>
        <time>2018-04-10T07:28:33Z</time>
      </trkpt>
      <trkpt lat="41.4235750" lon="2.0614240">
        <ele>341.6</ele>
        <time>2018-04-10T07:28:35Z</time>
      </trkpt>
      <trkpt lat="41.4235360" lon="2.0614100">
        <ele>342.0</ele>
        <time>2018-04-10T07:28:36Z</time>
      </trkpt>
      <trkpt lat="41.4234960" lon="2.0613970">
        <ele>342.2</ele>
        <time>2018-04-10T07:28:37Z</time>
      </trkpt>
      <trkpt lat="41.4234180" lon="2.0613670">
        <ele>342.8</ele>
        <time>2018-04-10T07:28:39Z</time>
      </trkpt>
      <trkpt lat="41.4233770" lon="2.0613520">
        <ele>342.8</ele>
        <time>2018-04-10T07:28:40Z</time>
      </trkpt>
      <trkpt lat="41.4233350" lon="2.0613390">
        <ele>343.4</ele>
        <time>2018-04-10T07:28:41Z</time>
      </trkpt>
      <trkpt lat="41.4232540" lon="2.0613100">
        <ele>343.6</ele>
        <time>2018-04-10T07:28:43Z</time>
      </trkpt>
      <trkpt lat="41.4232110" lon="2.0613000">
        <ele>344.0</ele>
        <time>2018-04-10T07:28:44Z</time>
      </trkpt>
      <trkpt lat="41.4231690" lon="2.0612890">
        <ele>344.2</ele>
        <time>2018-04-10T07:28:45Z</time>
      </trkpt>
      <trkpt lat="41.4230840" lon="2.0612630">
        <ele>344.8</ele>
        <time>2018-04-10T07:28:47Z</time>
      </trkpt>
      <trkpt lat="41.4229960" lon="2.0612360">
        <ele>344.8</ele>
        <time>2018-04-10T07:28:49Z</time>
      </trkpt>
      <trkpt lat="41.4229120" lon="2.0612130">
        <ele>345.0</ele>
        <time>2018-04-10T07:28:51Z</time>
      </trkpt>
      <trkpt lat="41.4228250" lon="2.0611980">
        <ele>345.4</ele>
        <time>2018-04-10T07:28:53Z</time>
      </trkpt>
      <trkpt lat="41.4227340" lon="2.0611910">
        <ele>346.0</ele>
        <time>2018-04-10T07:28:55Z</time>
      </trkpt>
      <trkpt lat="41.4226430" lon="2.0611880">
        <ele>346.0</ele>
        <time>2018-04-10T07:28:57Z</time>
      </trkpt>
      <trkpt lat="41.4225510" lon="2.0611810">
        <ele>346.2</ele>
        <time>2018-04-10T07:28:59Z</time>
      </trkpt>
      <trkpt lat="41.4224650" lon="2.0611810">
        <ele>346.6</ele>
        <time>2018-04-10T07:29:01Z</time>
      </trkpt>
      <trkpt lat="41.4223760" lon="2.0611860">
        <ele>346.8</ele>
        <time>2018-04-10T07:29:03Z</time>
      </trkpt>
      <trkpt lat="41.4222920" lon="2.0611890">
        <ele>347.2</ele>
        <time>2018-04-10T07:29:05Z</time>
      </trkpt>
      <trkpt lat="41.4222500" lon="2.0611970">
        <ele>347.2</ele>
        <time>2018-04-10T07:29:06Z</time>
      </trkpt>
      <trkpt lat="41.4222070" lon="2.0612090">
        <ele>347.4</ele>
        <time>2018-04-10T07:29:07Z</time>
      </trkpt>
      <trkpt lat="41.4221150" lon="2.0612390">
        <ele>347.6</ele>
        <time>2018-04-10T07:29:09Z</time>
      </trkpt>
      <trkpt lat="41.4220230" lon="2.0612660">
        <ele>348.0</ele>
        <time>2018-04-10T07:29:11Z</time>
      </trkpt>
      <trkpt lat="41.4219300" lon="2.0612780">
        <ele>348.4</ele>
        <time>2018-04-10T07:29:13Z</time>
      </trkpt>
      <trkpt lat="41.4218360" lon="2.0612670">
        <ele>348.8</ele>
        <time>2018-04-10T07:29:15Z</time>
      </trkpt>
      <trkpt lat="41.4217500" lon="2.0612250">
        <ele>349.0</ele>
        <time>2018-04-10T07:29:17Z</time>
      </trkpt>
      <trkpt lat="41.4217100" lon="2.0611960">
        <ele>349.0</ele>
        <time>2018-04-10T07:29:18Z</time>
      </trkpt>
      <trkpt lat="41.4216710" lon="2.0611680">
        <ele>349.2</ele>
        <time>2018-04-10T07:29:19Z</time>
      </trkpt>
      <trkpt lat="41.4216320" lon="2.0611370">
        <ele>349.4</ele>
        <time>2018-04-10T07:29:20Z</time>
      </trkpt>
      <trkpt lat="41.4215930" lon="2.0611080">
        <ele>349.4</ele>
        <time>2018-04-10T07:29:21Z</time>
      </trkpt>
      <trkpt lat="41.4215110" lon="2.0610580">
        <ele>349.8</ele>
        <time>2018-04-10T07:29:23Z</time>
      </trkpt>
      <trkpt lat="41.4214680" lon="2.0610380">
        <ele>350.0</ele>
        <time>2018-04-10T07:29:24Z</time>
      </trkpt>
      <trkpt lat="41.4214240" lon="2.0610240">
        <ele>350.2</ele>
        <time>2018-04-10T07:29:25Z</time>
      </trkpt>
      <trkpt lat="41.4213350" lon="2.0610100">
        <ele>350.4</ele>
        <time>2018-04-10T07:29:27Z</time>
      </trkpt>
      <trkpt lat="41.4212910" lon="2.0610060">
        <ele>350.6</ele>
        <time>2018-04-10T07:29:28Z</time>
      </trkpt>
      <trkpt lat="41.4212450" lon="2.0610040">
        <ele>350.8</ele>
        <time>2018-04-10T07:29:29Z</time>
      </trkpt>
      <trkpt lat="41.4211570" lon="2.0610100">
        <ele>351.2</ele>
        <time>2018-04-10T07:29:31Z</time>
      </trkpt>
      <trkpt lat="41.4210740" lon="2.0610230">
        <ele>351.4</ele>
        <time>2018-04-10T07:29:33Z</time>
      </trkpt>
      <trkpt lat="41.4209860" lon="2.0610430">
        <ele>351.8</ele>
        <time>2018-04-10T07:29:35Z</time>
      </trkpt>
      <trkpt lat="41.4209000" lon="2.0610680">
        <ele>352.0</ele>
        <time>2018-04-10T07:29:37Z</time>
      </trkpt>
      <trkpt lat="41.4208110" lon="2.0610940">
        <ele>352.2</ele>
        <time>2018-04-10T07:29:39Z</time>
      </trkpt>
      <trkpt lat="41.4207160" lon="2.0611180">
        <ele>352.4</ele>
        <time>2018-04-10T07:29:41Z</time>
      </trkpt>
      <trkpt lat="41.4206250" lon="2.0611370">
        <ele>352.8</ele>
        <time>2018-04-10T07:29:43Z</time>
      </trkpt>
      <trkpt lat="41.4205290" lon="2.0611690">
        <ele>353.0</ele>
        <time>2018-04-10T07:29:45Z</time>
      </trkpt>
      <trkpt lat="41.4204300" lon="2.0612050">
        <ele>353.2</ele>
        <time>2018-04-10T07:29:47Z</time>
      </trkpt>
      <trkpt lat="41.4203450" lon="2.0612340">
        <ele>353.4</ele>
        <time>2018-04-10T07:29:49Z</time>
      </trkpt>
      <trkpt lat="41.4202630" lon="2.0612690">
        <ele>353.6</ele>
        <time>2018-04-10T07:29:51Z</time>
      </trkpt>
      <trkpt lat="41.4201710" lon="2.0613190">
        <ele>353.6</ele>
        <time>2018-04-10T07:29:53Z</time>
      </trkpt>
      <trkpt lat="41.4200740" lon="2.0613790">
        <ele>353.8</ele>
        <time>2018-04-10T07:29:55Z</time>
      </trkpt>
      <trkpt lat="41.4199760" lon="2.0614290">
        <ele>353.8</ele>
        <time>2018-04-10T07:29:57Z</time>
      </trkpt>
      <trkpt lat="41.4198710" lon="2.0614510">
        <ele>353.8</ele>
        <time>2018-04-10T07:29:59Z</time>
      </trkpt>
      <trkpt lat="41.4197650" lon="2.0614520">
        <ele>353.8</ele>
        <time>2018-04-10T07:30:01Z</time>
      </trkpt>
      <trkpt lat="41.4197110" lon="2.0614480">
        <ele>353.8</ele>
        <time>2018-04-10T07:30:02Z</time>
      </trkpt>
      <trkpt lat="41.4196590" lon="2.0614340">
        <ele>353.8</ele>
        <time>2018-04-10T07:30:03Z</time>
      </trkpt>
      <trkpt lat="41.4195570" lon="2.0613960">
        <ele>354.0</ele>
        <time>2018-04-10T07:30:05Z</time>
      </trkpt>
      <trkpt lat="41.4194460" lon="2.0613550">
        <ele>354.0</ele>
        <time>2018-04-10T07:30:07Z</time>
      </trkpt>
      <trkpt lat="41.4193320" lon="2.0613100">
        <ele>354.0</ele>
        <time>2018-04-10T07:30:09Z</time>
      </trkpt>
      <trkpt lat="41.4192220" lon="2.0612440">
        <ele>354.2</ele>
        <time>2018-04-10T07:30:11Z</time>
      </trkpt>
      <trkpt lat="41.4191120" lon="2.0611640">
        <ele>354.4</ele>
        <time>2018-04-10T07:30:13Z</time>
      </trkpt>
      <trkpt lat="41.4190590" lon="2.0611200">
        <ele>354.6</ele>
        <time>2018-04-10T07:30:14Z</time>
      </trkpt>
      <trkpt lat="41.4190060" lon="2.0610750">
        <ele>354.6</ele>
        <time>2018-04-10T07:30:15Z</time>
      </trkpt>
      <trkpt lat="41.4189030" lon="2.0609810">
        <ele>354.6</ele>
        <time>2018-04-10T07:30:17Z</time>
      </trkpt>
      <trkpt lat="41.4187980" lon="2.0608870">
        <ele>354.8</ele>
        <time>2018-04-10T07:30:19Z</time>
      </trkpt>
      <trkpt lat="41.4186870" lon="2.0608080">
        <ele>355.0</ele>
        <time>2018-04-10T07:30:21Z</time>
      </trkpt>
      <trkpt lat="41.4186290" lon="2.0607700">
        <ele>355.0</ele>
        <time>2018-04-10T07:30:22Z</time>
      </trkpt>
      <trkpt lat="41.4185670" lon="2.0607390">
        <ele>355.0</ele>
        <time>2018-04-10T07:30:23Z</time>
      </trkpt>
      <trkpt lat="41.4184380" lon="2.0606980">
        <ele>355.0</ele>
        <time>2018-04-10T07:30:25Z</time>
      </trkpt>
      <trkpt lat="41.4183010" lon="2.0607000">
        <ele>355.0</ele>
        <time>2018-04-10T07:30:27Z</time>
      </trkpt>
      <trkpt lat="41.4182260" lon="2.0607010">
        <ele>355.0</ele>
        <time>2018-04-10T07:30:28Z</time>
      </trkpt>
      <trkpt lat="41.4181460" lon="2.0606830">
        <ele>355.0</ele>
        <time>2018-04-10T07:30:29Z</time>
      </trkpt>
      <trkpt lat="41.4180190" lon="2.0605660">
        <ele>355.0</ele>
        <time>2018-04-10T07:30:31Z</time>
      </trkpt>
      <trkpt lat="41.4179330" lon="2.0603800">
        <ele>354.8</ele>
        <time>2018-04-10T07:30:33Z</time>
      </trkpt>
      <trkpt lat="41.4178490" lon="2.0601810">
        <ele>354.4</ele>
        <time>2018-04-10T07:30:35Z</time>
      </trkpt>
      <trkpt lat="41.4177950" lon="2.0600850">
        <ele>354.0</ele>
        <time>2018-04-10T07:30:36Z</time>
      </trkpt>
      <trkpt lat="41.4177300" lon="2.0599970">
        <ele>353.6</ele>
        <time>2018-04-10T07:30:37Z</time>
      </trkpt>
      <trkpt lat="41.4176530" lon="2.0599230">
        <ele>353.2</ele>
        <time>2018-04-10T07:30:38Z</time>
      </trkpt>
      <trkpt lat="41.4175700" lon="2.0598610">
        <ele>353.0</ele>
        <time>2018-04-10T07:30:39Z</time>
      </trkpt>
      <trkpt lat="41.4174810" lon="2.0598030">
        <ele>352.8</ele>
        <time>2018-04-10T07:30:40Z</time>
      </trkpt>
      <trkpt lat="41.4173940" lon="2.0597640">
        <ele>352.0</ele>
        <time>2018-04-10T07:30:41Z</time>
      </trkpt>
      <trkpt lat="41.4172090" lon="2.0596800">
        <ele>351.0</ele>
        <time>2018-04-10T07:30:43Z</time>
      </trkpt>
      <trkpt lat="41.4171230" lon="2.0596080">
        <ele>350.6</ele>
        <time>2018-04-10T07:30:44Z</time>
      </trkpt>
      <trkpt lat="41.4170470" lon="2.0595120">
        <ele>350.0</ele>
        <time>2018-04-10T07:30:45Z</time>
      </trkpt>
      <trkpt lat="41.4169670" lon="2.0594210">
        <ele>349.4</ele>
        <time>2018-04-10T07:30:46Z</time>
      </trkpt>
      <trkpt lat="41.4168770" lon="2.0593620">
        <ele>348.8</ele>
        <time>2018-04-10T07:30:47Z</time>
      </trkpt>
      <trkpt lat="41.4167850" lon="2.0593350">
        <ele>348.2</ele>
        <time>2018-04-10T07:30:48Z</time>
      </trkpt>
      <trkpt lat="41.4166840" lon="2.0593270">
        <ele>347.6</ele>
        <time>2018-04-10T07:30:49Z</time>
      </trkpt>
      <trkpt lat="41.4165770" lon="2.0593100">
        <ele>347.2</ele>
        <time>2018-04-10T07:30:50Z</time>
      </trkpt>
      <trkpt lat="41.4164730" lon="2.0592720">
        <ele>346.4</ele>
        <time>2018-04-10T07:30:51Z</time>
      </trkpt>
      <trkpt lat="41.4163800" lon="2.0592130">
        <ele>345.6</ele>
        <time>2018-04-10T07:30:52Z</time>
      </trkpt>
      <trkpt lat="41.4163030" lon="2.0591390">
        <ele>345.0</ele>
        <time>2018-04-10T07:30:53Z</time>
      </trkpt>
      <trkpt lat="41.4162240" lon="2.0590870">
        <ele>344.2</ele>
        <time>2018-04-10T07:30:54Z</time>
      </trkpt>
      <trkpt lat="41.4161370" lon="2.0590660">
        <ele>343.6</ele>
        <time>2018-04-10T07:30:55Z</time>
      </trkpt>
      <trkpt lat="41.4160510" lon="2.0590890">
        <ele>343.0</ele>
        <time>2018-04-10T07:30:56Z</time>
      </trkpt>
      <trkpt lat="41.4159720" lon="2.0591450">
        <ele>342.6</ele>
        <time>2018-04-10T07:30:57Z</time>
      </trkpt>
      <trkpt lat="41.4158990" lon="2.0592240">
        <ele>341.8</ele>
        <time>2018-04-10T07:30:58Z</time>
      </trkpt>
      <trkpt lat="41.4158370" lon="2.0593170">
        <ele>341.2</ele>
        <time>2018-04-10T07:30:59Z</time>
      </trkpt>
      <trkpt lat="41.4157920" lon="2.0594240">
        <ele>340.6</ele>
        <time>2018-04-10T07:31:00Z</time>
      </trkpt>
      <trkpt lat="41.4157710" lon="2.0595460">
        <ele>340.2</ele>
        <time>2018-04-10T07:31:01Z</time>
      </trkpt>
      <trkpt lat="41.4158070" lon="2.0597880">
        <ele>339.4</ele>
        <time>2018-04-10T07:31:03Z</time>
      </trkpt>
      <trkpt lat="41.4159170" lon="2.0599970">
        <ele>339.0</ele>
        <time>2018-04-10T07:31:05Z</time>
      </trkpt>
      <trkpt lat="41.4160620" lon="2.0601590">
        <ele>338.6</ele>
        <time>2018-04-10T07:31:07Z</time>
      </trkpt>
      <trkpt lat="41.4161390" lon="2.0602270">
        <ele>338.4</ele>
        <time>2018-04-10T07:31:08Z</time>
      </trkpt>
      <trkpt lat="41.4162170" lon="2.0602870">
        <ele>338.0</ele>
        <time>2018-04-10T07:31:09Z</time>
      </trkpt>
      <trkpt lat="41.4163750" lon="2.0603830">
        <ele>337.6</ele>
        <time>2018-04-10T07:31:11Z</time>
      </trkpt>
      <trkpt lat="41.4164500" lon="2.0604270">
        <ele>337.2</ele>
        <time>2018-04-10T07:31:12Z</time>
      </trkpt>
      <trkpt lat="41.4165190" lon="2.0604720">
        <ele>337.2</ele>
        <time>2018-04-10T07:31:13Z</time>
      </trkpt>
      <trkpt lat="41.4166350" lon="2.0605760">
        <ele>337.2</ele>
        <time>2018-04-10T07:31:15Z</time>
      </trkpt>
      <trkpt lat="41.4167120" lon="2.0607060">
        <ele>337.2</ele>
        <time>2018-04-10T07:31:17Z</time>
      </trkpt>
      <trkpt lat="41.4167460" lon="2.0608460">
        <ele>337.2</ele>
        <time>2018-04-10T07:31:19Z</time>
      </trkpt>
      <trkpt lat="41.4167600" lon="2.0609770">
        <ele>337.4</ele>
        <time>2018-04-10T07:31:21Z</time>
      </trkpt>
      <trkpt lat="41.4167580" lon="2.0611010">
        <ele>338.0</ele>
        <time>2018-04-10T07:31:23Z</time>
      </trkpt>
      <trkpt lat="41.4167550" lon="2.0611580">
        <ele>338.4</ele>
        <time>2018-04-10T07:31:24Z</time>
      </trkpt>
      <trkpt lat="41.4167510" lon="2.0612110">
        <ele>338.8</ele>
        <time>2018-04-10T07:31:25Z</time>
      </trkpt>
      <trkpt lat="41.4167410" lon="2.0613200">
        <ele>339.6</ele>
        <time>2018-04-10T07:31:27Z</time>
      </trkpt>
      <trkpt lat="41.4167320" lon="2.0614330">
        <ele>340.4</ele>
        <time>2018-04-10T07:31:29Z</time>
      </trkpt>
      <trkpt lat="41.4167280" lon="2.0614910">
        <ele>340.6</ele>
        <time>2018-04-10T07:31:30Z</time>
      </trkpt>
      <trkpt lat="41.4167300" lon="2.0615440">
        <ele>340.8</ele>
        <time>2018-04-10T07:31:31Z</time>
      </trkpt>
      <trkpt lat="41.4167310" lon="2.0616520">
        <ele>341.2</ele>
        <time>2018-04-10T07:31:33Z</time>
      </trkpt>
      <trkpt lat="41.4167290" lon="2.0617520">
        <ele>341.6</ele>
        <time>2018-04-10T07:31:35Z</time>
      </trkpt>
      <trkpt lat="41.4167330" lon="2.0618060">
        <ele>341.8</ele>
        <time>2018-04-10T07:31:36Z</time>
      </trkpt>
      <trkpt lat="41.4167400" lon="2.0618570">
        <ele>342.2</ele>
        <time>2018-04-10T07:31:37Z</time>
      </trkpt>
      <trkpt lat="41.4167680" lon="2.0619550">
        <ele>342.8</ele>
        <time>2018-04-10T07:31:39Z</time>
      </trkpt>
      <trkpt lat="41.4167890" lon="2.0620020">
        <ele>343.0</ele>
        <time>2018-04-10T07:31:40Z</time>
      </trkpt>
      <trkpt lat="41.4168120" lon="2.0620460">
        <ele>343.6</ele>
        <time>2018-04-10T07:31:41Z</time>
      </trkpt>
      <trkpt lat="41.4168610" lon="2.0621300">
        <ele>344.4</ele>
        <time>2018-04-10T07:31:43Z</time>
      </trkpt>
      <trkpt lat="41.4169160" lon="2.0622250">
        <ele>345.0</ele>
        <time>2018-04-10T07:31:45Z</time>
      </trkpt>
      <trkpt lat="41.4169470" lon="2.0622690">
        <ele>345.2</ele>
        <time>2018-04-10T07:31:46Z</time>
      </trkpt>
      <trkpt lat="41.4169790" lon="2.0623140">
        <ele>345.6</ele>
        <time>2018-04-10T07:31:47Z</time>
      </trkpt>
      <trkpt lat="41.4170400" lon="2.0624030">
        <ele>346.0</ele>
        <time>2018-04-10T07:31:49Z</time>
      </trkpt>
      <trkpt lat="41.4170980" lon="2.0624880">
        <ele>346.6</ele>
        <time>2018-04-10T07:31:51Z</time>
      </trkpt>
      <trkpt lat="41.4171260" lon="2.0625270">
        <ele>347.0</ele>
        <time>2018-04-10T07:31:52Z</time>
      </trkpt>
      <trkpt lat="41.4171530" lon="2.0625650">
        <ele>347.2</ele>
        <time>2018-04-10T07:31:53Z</time>
      </trkpt>
      <trkpt lat="41.4171990" lon="2.0626460">
        <ele>347.4</ele>
        <time>2018-04-10T07:31:55Z</time>
      </trkpt>
      <trkpt lat="41.4172380" lon="2.0627340">
        <ele>348.2</ele>
        <time>2018-04-10T07:31:57Z</time>
      </trkpt>
      <trkpt lat="41.4172610" lon="2.0628260">
        <ele>348.8</ele>
        <time>2018-04-10T07:31:59Z</time>
      </trkpt>
      <trkpt lat="41.4172700" lon="2.0629230">
        <ele>349.2</ele>
        <time>2018-04-10T07:32:01Z</time>
      </trkpt>
      <trkpt lat="41.4172720" lon="2.0630180">
        <ele>349.6</ele>
        <time>2018-04-10T07:32:03Z</time>
      </trkpt>
      <trkpt lat="41.4172690" lon="2.0631170">
        <ele>350.2</ele>
        <time>2018-04-10T07:32:05Z</time>
      </trkpt>
      <trkpt lat="41.4172650" lon="2.0631650">
        <ele>350.4</ele>
        <time>2018-04-10T07:32:06Z</time>
      </trkpt>
      <trkpt lat="41.4172570" lon="2.0632130">
        <ele>350.8</ele>
        <time>2018-04-10T07:32:07Z</time>
      </trkpt>
      <trkpt lat="41.4172410" lon="2.0633120">
        <ele>351.4</ele>
        <time>2018-04-10T07:32:09Z</time>
      </trkpt>
      <trkpt lat="41.4172280" lon="2.0633580">
        <ele>351.6</ele>
        <time>2018-04-10T07:32:10Z</time>
      </trkpt>
      <trkpt lat="41.4172120" lon="2.0634010">
        <ele>352.0</ele>
        <time>2018-04-10T07:32:11Z</time>
      </trkpt>
      <trkpt lat="41.4171730" lon="2.0634810">
        <ele>352.6</ele>
        <time>2018-04-10T07:32:13Z</time>
      </trkpt>
      <trkpt lat="41.4171530" lon="2.0635180">
        <ele>352.8</ele>
        <time>2018-04-10T07:32:14Z</time>
      </trkpt>
      <trkpt lat="41.4171320" lon="2.0635540">
        <ele>353.2</ele>
        <time>2018-04-10T07:32:15Z</time>
      </trkpt>
      <trkpt lat="41.4170920" lon="2.0636280">
        <ele>353.6</ele>
        <time>2018-04-10T07:32:17Z</time>
      </trkpt>
      <trkpt lat="41.4170610" lon="2.0637120">
        <ele>354.2</ele>
        <time>2018-04-10T07:32:19Z</time>
      </trkpt>
      <trkpt lat="41.4170310" lon="2.0638030">
        <ele>354.6</ele>
        <time>2018-04-10T07:32:21Z</time>
      </trkpt>
      <trkpt lat="41.4170110" lon="2.0638940">
        <ele>355.2</ele>
        <time>2018-04-10T07:32:23Z</time>
      </trkpt>
      <trkpt lat="41.4170010" lon="2.0639900">
        <ele>355.8</ele>
        <time>2018-04-10T07:32:25Z</time>
      </trkpt>
      <trkpt lat="41.4169820" lon="2.0640810">
        <ele>356.2</ele>
        <time>2018-04-10T07:32:27Z</time>
      </trkpt>
      <trkpt lat="41.4169670" lon="2.0641690">
        <ele>356.8</ele>
        <time>2018-04-10T07:32:29Z</time>
      </trkpt>
      <trkpt lat="41.4169560" lon="2.0642610">
        <ele>357.2</ele>
        <time>2018-04-10T07:32:31Z</time>
      </trkpt>
      <trkpt lat="41.4169530" lon="2.0643080">
        <ele>357.4</ele>
        <time>2018-04-10T07:32:32Z</time>
      </trkpt>
      <trkpt lat="41.4169530" lon="2.0643550">
        <ele>357.8</ele>
        <time>2018-04-10T07:32:33Z</time>
      </trkpt>
      <trkpt lat="41.4169560" lon="2.0644510">
        <ele>358.2</ele>
        <time>2018-04-10T07:32:35Z</time>
      </trkpt>
      <trkpt lat="41.4169620" lon="2.0645450">
        <ele>358.8</ele>
        <time>2018-04-10T07:32:37Z</time>
      </trkpt>
      <trkpt lat="41.4169800" lon="2.0646380">
        <ele>359.4</ele>
        <time>2018-04-10T07:32:39Z</time>
      </trkpt>
      <trkpt lat="41.4169940" lon="2.0646810">
        <ele>359.8</ele>
        <time>2018-04-10T07:32:40Z</time>
      </trkpt>
      <trkpt lat="41.4170120" lon="2.0647260">
        <ele>360.0</ele>
        <time>2018-04-10T07:32:41Z</time>
      </trkpt>
      <trkpt lat="41.4170610" lon="2.0648000">
        <ele>360.6</ele>
        <time>2018-04-10T07:32:43Z</time>
      </trkpt>
      <trkpt lat="41.4170880" lon="2.0648330">
        <ele>360.8</ele>
        <time>2018-04-10T07:32:44Z</time>
      </trkpt>
      <trkpt lat="41.4171180" lon="2.0648650">
        <ele>361.0</ele>
        <time>2018-04-10T07:32:45Z</time>
      </trkpt>
      <trkpt lat="41.4171870" lon="2.0649190">
        <ele>361.6</ele>
        <time>2018-04-10T07:32:47Z</time>
      </trkpt>
      <trkpt lat="41.4172220" lon="2.0649430">
        <ele>362.0</ele>
        <time>2018-04-10T07:32:48Z</time>
      </trkpt>
      <trkpt lat="41.4172570" lon="2.0649680">
        <ele>362.2</ele>
        <time>2018-04-10T07:32:49Z</time>
      </trkpt>
      <trkpt lat="41.4173270" lon="2.0650130">
        <ele>362.8</ele>
        <time>2018-04-10T07:32:51Z</time>
      </trkpt>
      <trkpt lat="41.4173630" lon="2.0650320">
        <ele>363.0</ele>
        <time>2018-04-10T07:32:52Z</time>
      </trkpt>
      <trkpt lat="41.4173990" lon="2.0650520">
        <ele>363.2</ele>
        <time>2018-04-10T07:32:53Z</time>
      </trkpt>
      <trkpt lat="41.4174680" lon="2.0650990">
        <ele>363.6</ele>
        <time>2018-04-10T07:32:55Z</time>
      </trkpt>
      <trkpt lat="41.4175350" lon="2.0651470">
        <ele>364.0</ele>
        <time>2018-04-10T07:32:57Z</time>
      </trkpt>
      <trkpt lat="41.4175690" lon="2.0651700">
        <ele>364.2</ele>
        <time>2018-04-10T07:32:58Z</time>
      </trkpt>
      <trkpt lat="41.4176030" lon="2.0651920">
        <ele>364.4</ele>
        <time>2018-04-10T07:32:59Z</time>
      </trkpt>
      <trkpt lat="41.4176610" lon="2.0652470">
        <ele>364.8</ele>
        <time>2018-04-10T07:33:01Z</time>
      </trkpt>
      <trkpt lat="41.4177010" lon="2.0653160">
        <ele>365.2</ele>
        <time>2018-04-10T07:33:03Z</time>
      </trkpt>
      <trkpt lat="41.4177290" lon="2.0653880">
        <ele>365.6</ele>
        <time>2018-04-10T07:33:05Z</time>
      </trkpt>
      <trkpt lat="41.4177480" lon="2.0654500">
        <ele>366.2</ele>
        <time>2018-04-10T07:33:07Z</time>
      </trkpt>
      <trkpt lat="41.4177560" lon="2.0654840">
        <ele>366.4</ele>
        <time>2018-04-10T07:33:08Z</time>
      </trkpt>
      <trkpt lat="41.4177600" lon="2.0655160">
        <ele>367.0</ele>
        <time>2018-04-10T07:33:09Z</time>
      </trkpt>
      <trkpt lat="41.4177660" lon="2.0655860">
        <ele>367.6</ele>
        <time>2018-04-10T07:33:11Z</time>
      </trkpt>
      <trkpt lat="41.4177690" lon="2.0656680">
        <ele>368.2</ele>
        <time>2018-04-10T07:33:13Z</time>
      </trkpt>
      <trkpt lat="41.4177740" lon="2.0657410">
        <ele>368.6</ele>
        <time>2018-04-10T07:33:15Z</time>
      </trkpt>
      <trkpt lat="41.4177800" lon="2.0658180">
        <ele>369.2</ele>
        <time>2018-04-10T07:33:17Z</time>
      </trkpt>
      <trkpt lat="41.4177860" lon="2.0658920">
        <ele>369.6</ele>
        <time>2018-04-10T07:33:19Z</time>
      </trkpt>
      <trkpt lat="41.4177880" lon="2.0659290">
        <ele>369.8</ele>
        <time>2018-04-10T07:33:20Z</time>
      </trkpt>
      <trkpt lat="41.4177910" lon="2.0659700">
        <ele>370.0</ele>
        <time>2018-04-10T07:33:21Z</time>
      </trkpt>
      <trkpt lat="41.4178040" lon="2.0660490">
        <ele>370.4</ele>
        <time>2018-04-10T07:33:23Z</time>
      </trkpt>
      <trkpt lat="41.4178160" lon="2.0661400">
        <ele>371.0</ele>
        <time>2018-04-10T07:33:25Z</time>
      </trkpt>
      <trkpt lat="41.4178260" lon="2.0662360">
        <ele>371.4</ele>
        <time>2018-04-10T07:33:27Z</time>
      </trkpt>
      <trkpt lat="41.4178370" lon="2.0663240">
        <ele>372.0</ele>
        <time>2018-04-10T07:33:29Z</time>
      </trkpt>
      <trkpt lat="41.4178360" lon="2.0664030">
        <ele>372.4</ele>
        <time>2018-04-10T07:33:31Z</time>
      </trkpt>
      <trkpt lat="41.4178290" lon="2.0664910">
        <ele>372.8</ele>
        <time>2018-04-10T07:33:33Z</time>
      </trkpt>
      <trkpt lat="41.4178220" lon="2.0665300">
        <ele>373.0</ele>
        <time>2018-04-10T07:33:34Z</time>
      </trkpt>
      <trkpt lat="41.4178140" lon="2.0665710">
        <ele>373.2</ele>
        <time>2018-04-10T07:33:35Z</time>
      </trkpt>
      <trkpt lat="41.4177920" lon="2.0666530">
        <ele>373.8</ele>
        <time>2018-04-10T07:33:37Z</time>
      </trkpt>
      <trkpt lat="41.4177780" lon="2.0666920">
        <ele>374.4</ele>
        <time>2018-04-10T07:33:38Z</time>
      </trkpt>
      <trkpt lat="41.4177630" lon="2.0667290">
        <ele>374.6</ele>
        <time>2018-04-10T07:33:39Z</time>
      </trkpt>
      <trkpt lat="41.4177390" lon="2.0668170">
        <ele>375.2</ele>
        <time>2018-04-10T07:33:41Z</time>
      </trkpt>
      <trkpt lat="41.4177250" lon="2.0668610">
        <ele>375.4</ele>
        <time>2018-04-10T07:33:42Z</time>
      </trkpt>
      <trkpt lat="41.4177110" lon="2.0669110">
        <ele>375.6</ele>
        <time>2018-04-10T07:33:43Z</time>
      </trkpt>
      <trkpt lat="41.4176880" lon="2.0670090">
        <ele>376.0</ele>
        <time>2018-04-10T07:33:45Z</time>
      </trkpt>
      <trkpt lat="41.4176910" lon="2.0671240">
        <ele>376.6</ele>
        <time>2018-04-10T07:33:47Z</time>
      </trkpt>
      <trkpt lat="41.4177210" lon="2.0672330">
        <ele>377.2</ele>
        <time>2018-04-10T07:33:49Z</time>
      </trkpt>
      <trkpt lat="41.4177440" lon="2.0672850">
        <ele>377.6</ele>
        <time>2018-04-10T07:33:50Z</time>
      </trkpt>
      <trkpt lat="41.4177730" lon="2.0673320">
        <ele>377.8</ele>
        <time>2018-04-10T07:33:51Z</time>
      </trkpt>
      <trkpt lat="41.4178030" lon="2.0673740">
        <ele>378.0</ele>
        <time>2018-04-10T07:33:52Z</time>
      </trkpt>
      <trkpt lat="41.4178340" lon="2.0674130">
        <ele>378.4</ele>
        <time>2018-04-10T07:33:53Z</time>
      </trkpt>
      <trkpt lat="41.4179010" lon="2.0674830">
        <ele>379.0</ele>
        <time>2018-04-10T07:33:55Z</time>
      </trkpt>
      <trkpt lat="41.4179380" lon="2.0675140">
        <ele>379.2</ele>
        <time>2018-04-10T07:33:56Z</time>
      </trkpt>
      <trkpt lat="41.4179730" lon="2.0675460">
        <ele>379.4</ele>
        <time>2018-04-10T07:33:57Z</time>
      </trkpt>
      <trkpt lat="41.4180430" lon="2.0676150">
        <ele>379.6</ele>
        <time>2018-04-10T07:33:59Z</time>
      </trkpt>
      <trkpt lat="41.4181130" lon="2.0676770">
        <ele>380.0</ele>
        <time>2018-04-10T07:34:01Z</time>
      </trkpt>
      <trkpt lat="41.4181460" lon="2.0677070">
        <ele>380.2</ele>
        <time>2018-04-10T07:34:02Z</time>
      </trkpt>
      <trkpt lat="41.4181860" lon="2.0677370">
        <ele>380.4</ele>
        <time>2018-04-10T07:34:03Z</time>
      </trkpt>
      <trkpt lat="41.4182590" lon="2.0677990">
        <ele>380.8</ele>
        <time>2018-04-10T07:34:05Z</time>
      </trkpt>
      <trkpt lat="41.4183290" lon="2.0678660">
        <ele>381.4</ele>
        <time>2018-04-10T07:34:07Z</time>
      </trkpt>
      <trkpt lat="41.4183650" lon="2.0679040">
        <ele>381.8</ele>
        <time>2018-04-10T07:34:08Z</time>
      </trkpt>
      <trkpt lat="41.4183980" lon="2.0679450">
        <ele>382.0</ele>
        <time>2018-04-10T07:34:09Z</time>
      </trkpt>
      <trkpt lat="41.4184570" lon="2.0680380">
        <ele>382.4</ele>
        <time>2018-04-10T07:34:11Z</time>
      </trkpt>
      <trkpt lat="41.4185120" lon="2.0681360">
        <ele>383.0</ele>
        <time>2018-04-10T07:34:13Z</time>
      </trkpt>
      <trkpt lat="41.4185680" lon="2.0682390">
        <ele>383.4</ele>
        <time>2018-04-10T07:34:15Z</time>
      </trkpt>
      <trkpt lat="41.4186230" lon="2.0683430">
        <ele>383.6</ele>
        <time>2018-04-10T07:34:17Z</time>
      </trkpt>
      <trkpt lat="41.4186760" lon="2.0684460">
        <ele>384.0</ele>
        <time>2018-04-10T07:34:19Z</time>
      </trkpt>
      <trkpt lat="41.4187020" lon="2.0684950">
        <ele>384.0</ele>
        <time>2018-04-10T07:34:20Z</time>
      </trkpt>
      <trkpt lat="41.4187290" lon="2.0685440">
        <ele>384.2</ele>
        <time>2018-04-10T07:34:21Z</time>
      </trkpt>
      <trkpt lat="41.4187810" lon="2.0686440">
        <ele>384.2</ele>
        <time>2018-04-10T07:34:23Z</time>
      </trkpt>
      <trkpt lat="41.4188330" lon="2.0687400">
        <ele>384.4</ele>
        <time>2018-04-10T07:34:25Z</time>
      </trkpt>
      <trkpt lat="41.4188810" lon="2.0688370">
        <ele>384.4</ele>
        <time>2018-04-10T07:34:27Z</time>
      </trkpt>
      <trkpt lat="41.4189310" lon="2.0689310">
        <ele>384.8</ele>
        <time>2018-04-10T07:34:29Z</time>
      </trkpt>
      <trkpt lat="41.4189800" lon="2.0690240">
        <ele>385.0</ele>
        <time>2018-04-10T07:34:31Z</time>
      </trkpt>
      <trkpt lat="41.4190040" lon="2.0690710">
        <ele>385.2</ele>
        <time>2018-04-10T07:34:32Z</time>
      </trkpt>
      <trkpt lat="41.4190260" lon="2.0691180">
        <ele>385.6</ele>
        <time>2018-04-10T07:34:33Z</time>
      </trkpt>
      <trkpt lat="41.4190760" lon="2.0692110">
        <ele>385.8</ele>
        <time>2018-04-10T07:34:35Z</time>
      </trkpt>
      <trkpt lat="41.4191250" lon="2.0692990">
        <ele>386.4</ele>
        <time>2018-04-10T07:34:37Z</time>
      </trkpt>
      <trkpt lat="41.4191700" lon="2.0693900">
        <ele>387.0</ele>
        <time>2018-04-10T07:34:39Z</time>
      </trkpt>
      <trkpt lat="41.4192130" lon="2.0694800">
        <ele>387.4</ele>
        <time>2018-04-10T07:34:41Z</time>
      </trkpt>
      <trkpt lat="41.4192580" lon="2.0695680">
        <ele>388.0</ele>
        <time>2018-04-10T07:34:43Z</time>
      </trkpt>
      <trkpt lat="41.4193030" lon="2.0696510">
        <ele>388.6</ele>
        <time>2018-04-10T07:34:45Z</time>
      </trkpt>
      <trkpt lat="41.4193520" lon="2.0697440">
        <ele>389.2</ele>
        <time>2018-04-10T07:34:47Z</time>
      </trkpt>
      <trkpt lat="41.4193960" lon="2.0698350">
        <ele>389.8</ele>
        <time>2018-04-10T07:34:49Z</time>
      </trkpt>
      <trkpt lat="41.4194440" lon="2.0699240">
        <ele>390.4</ele>
        <time>2018-04-10T07:34:51Z</time>
      </trkpt>
      <trkpt lat="41.4194890" lon="2.0700140">
        <ele>391.0</ele>
        <time>2018-04-10T07:34:53Z</time>
      </trkpt>
      <trkpt lat="41.4195340" lon="2.0701090">
        <ele>391.4</ele>
        <time>2018-04-10T07:34:55Z</time>
      </trkpt>
      <trkpt lat="41.4195770" lon="2.0702060">
        <ele>392.0</ele>
        <time>2018-04-10T07:34:57Z</time>
      </trkpt>
      <trkpt lat="41.4195940" lon="2.0702550">
        <ele>392.2</ele>
        <time>2018-04-10T07:34:58Z</time>
      </trkpt>
      <trkpt lat="41.4196080" lon="2.0703060">
        <ele>392.4</ele>
        <time>2018-04-10T07:34:59Z</time>
      </trkpt>
      <trkpt lat="41.4196170" lon="2.0703600">
        <ele>392.8</ele>
        <time>2018-04-10T07:35:00Z</time>
      </trkpt>
      <trkpt lat="41.4196220" lon="2.0704150">
        <ele>392.8</ele>
        <time>2018-04-10T07:35:01Z</time>
      </trkpt>
      <trkpt lat="41.4196140" lon="2.0705180">
        <ele>393.4</ele>
        <time>2018-04-10T07:35:03Z</time>
      </trkpt>
      <trkpt lat="41.4196020" lon="2.0705680">
        <ele>393.6</ele>
        <time>2018-04-10T07:35:04Z</time>
      </trkpt>
      <trkpt lat="41.4195870" lon="2.0706150">
        <ele>393.8</ele>
        <time>2018-04-10T07:35:05Z</time>
      </trkpt>
      <trkpt lat="41.4195700" lon="2.0706630">
        <ele>394.4</ele>
        <time>2018-04-10T07:35:06Z</time>
      </trkpt>
      <trkpt lat="41.4195550" lon="2.0707100">
        <ele>394.6</ele>
        <time>2018-04-10T07:35:07Z</time>
      </trkpt>
      <trkpt lat="41.4195230" lon="2.0708000">
        <ele>395.0</ele>
        <time>2018-04-10T07:35:09Z</time>
      </trkpt>
      <trkpt lat="41.4194940" lon="2.0708970">
        <ele>395.6</ele>
        <time>2018-04-10T07:35:11Z</time>
      </trkpt>
      <trkpt lat="41.4194600" lon="2.0709940">
        <ele>396.2</ele>
        <time>2018-04-10T07:35:13Z</time>
      </trkpt>
      <trkpt lat="41.4194310" lon="2.0710910">
        <ele>396.6</ele>
        <time>2018-04-10T07:35:15Z</time>
      </trkpt>
      <trkpt lat="41.4194000" lon="2.0711950">
        <ele>397.2</ele>
        <time>2018-04-10T07:35:17Z</time>
      </trkpt>
      <trkpt lat="41.4193670" lon="2.0712990">
        <ele>397.6</ele>
        <time>2018-04-10T07:35:19Z</time>
      </trkpt>
      <trkpt lat="41.4193470" lon="2.0713490">
        <ele>397.8</ele>
        <time>2018-04-10T07:35:20Z</time>
      </trkpt>
      <trkpt lat="41.4193260" lon="2.0713930">
        <ele>398.0</ele>
        <time>2018-04-10T07:35:21Z</time>
      </trkpt>
      <trkpt lat="41.4192800" lon="2.0714760">
        <ele>398.8</ele>
        <time>2018-04-10T07:35:23Z</time>
      </trkpt>
      <trkpt lat="41.4192250" lon="2.0715570">
        <ele>399.2</ele>
        <time>2018-04-10T07:35:25Z</time>
      </trkpt>
      <trkpt lat="41.4191630" lon="2.0716260">
        <ele>399.8</ele>
        <time>2018-04-10T07:35:27Z</time>
      </trkpt>
      <trkpt lat="41.4191310" lon="2.0716610">
        <ele>400.4</ele>
        <time>2018-04-10T07:35:28Z</time>
      </trkpt>
      <trkpt lat="41.4190960" lon="2.0716910">
        <ele>400.6</ele>
        <time>2018-04-10T07:35:29Z</time>
      </trkpt>
      <trkpt lat="41.4190220" lon="2.0717410">
        <ele>401.0</ele>
        <time>2018-04-10T07:35:31Z</time>
      </trkpt>
      <trkpt lat="41.4189410" lon="2.0717700">
        <ele>401.4</ele>
        <time>2018-04-10T07:35:33Z</time>
      </trkpt>
      <trkpt lat="41.4188990" lon="2.0717770">
        <ele>401.6</ele>
        <time>2018-04-10T07:35:34Z</time>
      </trkpt>
      <trkpt lat="41.4188570" lon="2.0717820">
        <ele>401.8</ele>
        <time>2018-04-10T07:35:35Z</time>
      </trkpt>
      <trkpt lat="41.4187690" lon="2.0717970">
        <ele>402.6</ele>
        <time>2018-04-10T07:35:37Z</time>
      </trkpt>
      <trkpt lat="41.4187250" lon="2.0718120">
        <ele>402.8</ele>
        <time>2018-04-10T07:35:38Z</time>
      </trkpt>
      <trkpt lat="41.4186810" lon="2.0718300">
        <ele>403.0</ele>
        <time>2018-04-10T07:35:39Z</time>
      </trkpt>
      <trkpt lat="41.4186040" lon="2.0718940">
        <ele>403.4</ele>
        <time>2018-04-10T07:35:41Z</time>
      </trkpt>
      <trkpt lat="41.4185700" lon="2.0719300">
        <ele>403.6</ele>
        <time>2018-04-10T07:35:42Z</time>
      </trkpt>
      <trkpt lat="41.4185380" lon="2.0719670">
        <ele>403.8</ele>
        <time>2018-04-10T07:35:43Z</time>
      </trkpt>
      <trkpt lat="41.4184760" lon="2.0720500">
        <ele>404.2</ele>
        <time>2018-04-10T07:35:45Z</time>
      </trkpt>
      <trkpt lat="41.4184210" lon="2.0721410">
        <ele>404.4</ele>
        <time>2018-04-10T07:35:47Z</time>
      </trkpt>
      <trkpt lat="41.4183600" lon="2.0722270">
        <ele>404.8</ele>
        <time>2018-04-10T07:35:49Z</time>
      </trkpt>
      <trkpt lat="41.4183000" lon="2.0723170">
        <ele>405.0</ele>
        <time>2018-04-10T07:35:51Z</time>
      </trkpt>
      <trkpt lat="41.4182690" lon="2.0723590">
        <ele>405.2</ele>
        <time>2018-04-10T07:35:52Z</time>
      </trkpt>
      <trkpt lat="41.4182350" lon="2.0723950">
        <ele>405.2</ele>
        <time>2018-04-10T07:35:53Z</time>
      </trkpt>
      <trkpt lat="41.4181640" lon="2.0724670">
        <ele>405.2</ele>
        <time>2018-04-10T07:35:55Z</time>
      </trkpt>
      <trkpt lat="41.4181290" lon="2.0724980">
        <ele>405.4</ele>
        <time>2018-04-10T07:35:56Z</time>
      </trkpt>
      <trkpt lat="41.4180910" lon="2.0725330">
        <ele>405.4</ele>
        <time>2018-04-10T07:35:57Z</time>
      </trkpt>
      <trkpt lat="41.4180180" lon="2.0725950">
        <ele>405.8</ele>
        <time>2018-04-10T07:35:59Z</time>
      </trkpt>
      <trkpt lat="41.4179530" lon="2.0726590">
        <ele>406.2</ele>
        <time>2018-04-10T07:36:01Z</time>
      </trkpt>
      <trkpt lat="41.4178950" lon="2.0727240">
        <ele>406.4</ele>
        <time>2018-04-10T07:36:03Z</time>
      </trkpt>
      <trkpt lat="41.4178450" lon="2.0728040">
        <ele>407.0</ele>
        <time>2018-04-10T07:36:05Z</time>
      </trkpt>
      <trkpt lat="41.4177950" lon="2.0729030">
        <ele>407.4</ele>
        <time>2018-04-10T07:36:07Z</time>
      </trkpt>
      <trkpt lat="41.4177570" lon="2.0730040">
        <ele>408.0</ele>
        <time>2018-04-10T07:36:09Z</time>
      </trkpt>
      <trkpt lat="41.4177300" lon="2.0731100">
        <ele>408.6</ele>
        <time>2018-04-10T07:36:11Z</time>
      </trkpt>
      <trkpt lat="41.4177230" lon="2.0732220">
        <ele>409.2</ele>
        <time>2018-04-10T07:36:13Z</time>
      </trkpt>
      <trkpt lat="41.4177210" lon="2.0733260">
        <ele>409.6</ele>
        <time>2018-04-10T07:36:15Z</time>
      </trkpt>
      <trkpt lat="41.4177060" lon="2.0734230">
        <ele>410.2</ele>
        <time>2018-04-10T07:36:17Z</time>
      </trkpt>
      <trkpt lat="41.4176940" lon="2.0735190">
        <ele>411.0</ele>
        <time>2018-04-10T07:36:19Z</time>
      </trkpt>
      <trkpt lat="41.4176700" lon="2.0736080">
        <ele>411.6</ele>
        <time>2018-04-10T07:36:21Z</time>
      </trkpt>
      <trkpt lat="41.4176520" lon="2.0737030">
        <ele>412.2</ele>
        <time>2018-04-10T07:36:23Z</time>
      </trkpt>
      <trkpt lat="41.4176270" lon="2.0737980">
        <ele>412.6</ele>
        <time>2018-04-10T07:36:25Z</time>
      </trkpt>
      <trkpt lat="41.4175990" lon="2.0739000">
        <ele>413.2</ele>
        <time>2018-04-10T07:36:27Z</time>
      </trkpt>
      <trkpt lat="41.4175720" lon="2.0740040">
        <ele>413.8</ele>
        <time>2018-04-10T07:36:29Z</time>
      </trkpt>
      <trkpt lat="41.4175410" lon="2.0741060">
        <ele>414.2</ele>
        <time>2018-04-10T07:36:31Z</time>
      </trkpt>
      <trkpt lat="41.4175050" lon="2.0742060">
        <ele>414.8</ele>
        <time>2018-04-10T07:36:33Z</time>
      </trkpt>
      <trkpt lat="41.4174620" lon="2.0743010">
        <ele>415.6</ele>
        <time>2018-04-10T07:36:35Z</time>
      </trkpt>
      <trkpt lat="41.4174130" lon="2.0743930">
        <ele>416.0</ele>
        <time>2018-04-10T07:36:37Z</time>
      </trkpt>
      <trkpt lat="41.4173640" lon="2.0744780">
        <ele>416.6</ele>
        <time>2018-04-10T07:36:39Z</time>
      </trkpt>
      <trkpt lat="41.4173140" lon="2.0745570">
        <ele>417.2</ele>
        <time>2018-04-10T07:36:41Z</time>
      </trkpt>
      <trkpt lat="41.4172700" lon="2.0746450">
        <ele>417.6</ele>
        <time>2018-04-10T07:36:43Z</time>
      </trkpt>
      <trkpt lat="41.4172230" lon="2.0747270">
        <ele>418.0</ele>
        <time>2018-04-10T07:36:45Z</time>
      </trkpt>
      <trkpt lat="41.4172020" lon="2.0747630">
        <ele>418.2</ele>
        <time>2018-04-10T07:36:46Z</time>
      </trkpt>
      <trkpt lat="41.4171810" lon="2.0748020">
        <ele>418.6</ele>
        <time>2018-04-10T07:36:47Z</time>
      </trkpt>
      <trkpt lat="41.4171380" lon="2.0748830">
        <ele>419.2</ele>
        <time>2018-04-10T07:36:49Z</time>
      </trkpt>
      <trkpt lat="41.4171130" lon="2.0749210">
        <ele>419.4</ele>
        <time>2018-04-10T07:36:50Z</time>
      </trkpt>
      <trkpt lat="41.4170880" lon="2.0749610">
        <ele>419.6</ele>
        <time>2018-04-10T07:36:51Z</time>
      </trkpt>
      <trkpt lat="41.4170380" lon="2.0750370">
        <ele>420.2</ele>
        <time>2018-04-10T07:36:53Z</time>
      </trkpt>
      <trkpt lat="41.4170160" lon="2.0750770">
        <ele>420.6</ele>
        <time>2018-04-10T07:36:54Z</time>
      </trkpt>
      <trkpt lat="41.4169930" lon="2.0751130">
        <ele>420.8</ele>
        <time>2018-04-10T07:36:55Z</time>
      </trkpt>
      <trkpt lat="41.4169440" lon="2.0751910">
        <ele>421.2</ele>
        <time>2018-04-10T07:36:57Z</time>
      </trkpt>
      <trkpt lat="41.4169200" lon="2.0752290">
        <ele>421.6</ele>
        <time>2018-04-10T07:36:58Z</time>
      </trkpt>
      <trkpt lat="41.4168940" lon="2.0752610">
        <ele>421.8</ele>
        <time>2018-04-10T07:36:59Z</time>
      </trkpt>
      <trkpt lat="41.4168420" lon="2.0753320">
        <ele>422.2</ele>
        <time>2018-04-10T07:37:01Z</time>
      </trkpt>
      <trkpt lat="41.4167900" lon="2.0754080">
        <ele>422.8</ele>
        <time>2018-04-10T07:37:03Z</time>
      </trkpt>
      <trkpt lat="41.4167350" lon="2.0754750">
        <ele>423.6</ele>
        <time>2018-04-10T07:37:05Z</time>
      </trkpt>
      <trkpt lat="41.4167060" lon="2.0755130">
        <ele>424.0</ele>
        <time>2018-04-10T07:37:06Z</time>
      </trkpt>
      <trkpt lat="41.4166770" lon="2.0755480">
        <ele>424.2</ele>
        <time>2018-04-10T07:37:07Z</time>
      </trkpt>
      <trkpt lat="41.4166220" lon="2.0756280">
        <ele>425.0</ele>
        <time>2018-04-10T07:37:09Z</time>
      </trkpt>
      <trkpt lat="41.4165790" lon="2.0757020">
        <ele>425.6</ele>
        <time>2018-04-10T07:37:11Z</time>
      </trkpt>
      <trkpt lat="41.4165340" lon="2.0757680">
        <ele>425.8</ele>
        <time>2018-04-10T07:37:13Z</time>
      </trkpt>
      <trkpt lat="41.4165120" lon="2.0758040">
        <ele>426.0</ele>
        <time>2018-04-10T07:37:14Z</time>
      </trkpt>
      <trkpt lat="41.4164870" lon="2.0758410">
        <ele>426.2</ele>
        <time>2018-04-10T07:37:15Z</time>
      </trkpt>
      <trkpt lat="41.4164390" lon="2.0759120">
        <ele>426.6</ele>
        <time>2018-04-10T07:37:17Z</time>
      </trkpt>
      <trkpt lat="41.4163860" lon="2.0759770">
        <ele>427.2</ele>
        <time>2018-04-10T07:37:19Z</time>
      </trkpt>
      <trkpt lat="41.4163280" lon="2.0760370">
        <ele>427.6</ele>
        <time>2018-04-10T07:37:21Z</time>
      </trkpt>
      <trkpt lat="41.4162570" lon="2.0760860">
        <ele>428.2</ele>
        <time>2018-04-10T07:37:23Z</time>
      </trkpt>
      <trkpt lat="41.4161840" lon="2.0761060">
        <ele>428.8</ele>
        <time>2018-04-10T07:37:25Z</time>
      </trkpt>
      <trkpt lat="41.4160990" lon="2.0761290">
        <ele>429.4</ele>
        <time>2018-04-10T07:37:27Z</time>
      </trkpt>
      <trkpt lat="41.4160170" lon="2.0761430">
        <ele>430.0</ele>
        <time>2018-04-10T07:37:29Z</time>
      </trkpt>
      <trkpt lat="41.4159280" lon="2.0761600">
        <ele>430.4</ele>
        <time>2018-04-10T07:37:31Z</time>
      </trkpt>
      <trkpt lat="41.4158340" lon="2.0761830">
        <ele>431.0</ele>
        <time>2018-04-10T07:37:33Z</time>
      </trkpt>
      <trkpt lat="41.4157420" lon="2.0762170">
        <ele>431.0</ele>
        <time>2018-04-10T07:37:35Z</time>
      </trkpt>
      <trkpt lat="41.4156370" lon="2.0762620">
        <ele>431.0</ele>
        <time>2018-04-10T07:37:37Z</time>
      </trkpt>
      <trkpt lat="41.4155190" lon="2.0763010">
        <ele>431.0</ele>
        <time>2018-04-10T07:37:39Z</time>
      </trkpt>
      <trkpt lat="41.4153940" lon="2.0763430">
        <ele>431.0</ele>
        <time>2018-04-10T07:37:41Z</time>
      </trkpt>
      <trkpt lat="41.4153300" lon="2.0763750">
        <ele>431.0</ele>
        <time>2018-04-10T07:37:42Z</time>
      </trkpt>
      <trkpt lat="41.4152650" lon="2.0764160">
        <ele>431.0</ele>
        <time>2018-04-10T07:37:43Z</time>
      </trkpt>
      <trkpt lat="41.4151390" lon="2.0765290">
        <ele>430.6</ele>
        <time>2018-04-10T07:37:45Z</time>
      </trkpt>
      <trkpt lat="41.4150350" lon="2.0766950">
        <ele>430.0</ele>
        <time>2018-04-10T07:37:47Z</time>
      </trkpt>
      <trkpt lat="41.4149690" lon="2.0769070">
        <ele>429.4</ele>
        <time>2018-04-10T07:37:49Z</time>
      </trkpt>
      <trkpt lat="41.4149440" lon="2.0771430">
        <ele>428.8</ele>
        <time>2018-04-10T07:37:51Z</time>
      </trkpt>
      <trkpt lat="41.4149400" lon="2.0772650">
        <ele>428.4</ele>
        <time>2018-04-10T07:37:52Z</time>
      </trkpt>
      <trkpt lat="41.4149260" lon="2.0773860">
        <ele>428.0</ele>
        <time>2018-04-10T07:37:53Z</time>
      </trkpt>
      <trkpt lat="41.4148450" lon="2.0776070">
        <ele>427.2</ele>
        <time>2018-04-10T07:37:55Z</time>
      </trkpt>
      <trkpt lat="41.4147850" lon="2.0776980">
        <ele>426.8</ele>
        <time>2018-04-10T07:37:56Z</time>
      </trkpt>
      <trkpt lat="41.4147120" lon="2.0777660">
        <ele>426.2</ele>
        <time>2018-04-10T07:37:57Z</time>
      </trkpt>
      <trkpt lat="41.4146310" lon="2.0778140">
        <ele>425.6</ele>
        <time>2018-04-10T07:37:58Z</time>
      </trkpt>
      <trkpt lat="41.4145460" lon="2.0778510">
        <ele>425.2</ele>
        <time>2018-04-10T07:37:59Z</time>
      </trkpt>
      <trkpt lat="41.4144620" lon="2.0778870">
        <ele>424.6</ele>
        <time>2018-04-10T07:38:00Z</time>
      </trkpt>
      <trkpt lat="41.4143830" lon="2.0779370">
        <ele>424.0</ele>
        <time>2018-04-10T07:38:01Z</time>
      </trkpt>
      <trkpt lat="41.4143160" lon="2.0780130">
        <ele>423.0</ele>
        <time>2018-04-10T07:38:02Z</time>
      </trkpt>
      <trkpt lat="41.4142630" lon="2.0781030">
        <ele>422.4</ele>
        <time>2018-04-10T07:38:03Z</time>
      </trkpt>
      <trkpt lat="41.4141990" lon="2.0783120">
        <ele>421.8</ele>
        <time>2018-04-10T07:38:05Z</time>
      </trkpt>
      <trkpt lat="41.4141760" lon="2.0785480">
        <ele>421.2</ele>
        <time>2018-04-10T07:38:07Z</time>
      </trkpt>
      <trkpt lat="41.4141870" lon="2.0787960">
        <ele>420.8</ele>
        <time>2018-04-10T07:38:09Z</time>
      </trkpt>
      <trkpt lat="41.4141880" lon="2.0790510">
        <ele>420.2</ele>
        <time>2018-04-10T07:38:11Z</time>
      </trkpt>
      <trkpt lat="41.4141400" lon="2.0793000">
        <ele>419.6</ele>
        <time>2018-04-10T07:38:13Z</time>
      </trkpt>
      <trkpt lat="41.4141010" lon="2.0795590">
        <ele>418.8</ele>
        <time>2018-04-10T07:38:15Z</time>
      </trkpt>
      <trkpt lat="41.4140670" lon="2.0796830">
        <ele>418.4</ele>
        <time>2018-04-10T07:38:16Z</time>
      </trkpt>
      <trkpt lat="41.4140130" lon="2.0797950">
        <ele>418.2</ele>
        <time>2018-04-10T07:38:17Z</time>
      </trkpt>
      <trkpt lat="41.4138500" lon="2.0799420">
        <ele>417.6</ele>
        <time>2018-04-10T07:38:19Z</time>
      </trkpt>
      <trkpt lat="41.4137550" lon="2.0799980">
        <ele>417.2</ele>
        <time>2018-04-10T07:38:20Z</time>
      </trkpt>
      <trkpt lat="41.4136640" lon="2.0800640">
        <ele>416.8</ele>
        <time>2018-04-10T07:38:21Z</time>
      </trkpt>
      <trkpt lat="41.4134920" lon="2.0802300">
        <ele>415.8</ele>
        <time>2018-04-10T07:38:23Z</time>
      </trkpt>
      <trkpt lat="41.4133300" lon="2.0804190">
        <ele>414.6</ele>
        <time>2018-04-10T07:38:25Z</time>
      </trkpt>
      <trkpt lat="41.4132560" lon="2.0805210">
        <ele>414.2</ele>
        <time>2018-04-10T07:38:26Z</time>
      </trkpt>
      <trkpt lat="41.4131960" lon="2.0806340">
        <ele>413.6</ele>
        <time>2018-04-10T07:38:27Z</time>
      </trkpt>
      <trkpt lat="41.4131200" lon="2.0808770">
        <ele>412.6</ele>
        <time>2018-04-10T07:38:29Z</time>
      </trkpt>
      <trkpt lat="41.4130750" lon="2.0809870">
        <ele>412.2</ele>
        <time>2018-04-10T07:38:30Z</time>
      </trkpt>
      <trkpt lat="41.4130170" lon="2.0810770">
        <ele>411.2</ele>
        <time>2018-04-10T07:38:31Z</time>
      </trkpt>
      <trkpt lat="41.4129410" lon="2.0811270">
        <ele>410.8</ele>
        <time>2018-04-10T07:38:32Z</time>
      </trkpt>
      <trkpt lat="41.4128500" lon="2.0811140">
        <ele>410.2</ele>
        <time>2018-04-10T07:38:33Z</time>
      </trkpt>
      <trkpt lat="41.4126830" lon="2.0809830">
        <ele>409.2</ele>
        <time>2018-04-10T07:38:35Z</time>
      </trkpt>
      <trkpt lat="41.4126030" lon="2.0809080">
        <ele>408.8</ele>
        <time>2018-04-10T07:38:36Z</time>
      </trkpt>
      <trkpt lat="41.4125220" lon="2.0808340">
        <ele>408.0</ele>
        <time>2018-04-10T07:38:37Z</time>
      </trkpt>
      <trkpt lat="41.4124360" lon="2.0807660">
        <ele>407.4</ele>
        <time>2018-04-10T07:38:38Z</time>
      </trkpt>
      <trkpt lat="41.4123440" lon="2.0807110">
        <ele>406.6</ele>
        <time>2018-04-10T07:38:39Z</time>
      </trkpt>
      <trkpt lat="41.4121440" lon="2.0806370">
        <ele>405.4</ele>
        <time>2018-04-10T07:38:41Z</time>
      </trkpt>
      <trkpt lat="41.4119370" lon="2.0806440">
        <ele>404.2</ele>
        <time>2018-04-10T07:38:43Z</time>
      </trkpt>
      <trkpt lat="41.4117330" lon="2.0807350">
        <ele>402.8</ele>
        <time>2018-04-10T07:38:45Z</time>
      </trkpt>
      <trkpt lat="41.4115150" lon="2.0807360">
        <ele>401.4</ele>
        <time>2018-04-10T07:38:47Z</time>
      </trkpt>
      <trkpt lat="41.4113030" lon="2.0806720">
        <ele>400.0</ele>
        <time>2018-04-10T07:38:49Z</time>
      </trkpt>
      <trkpt lat="41.4111040" lon="2.0806140">
        <ele>398.6</ele>
        <time>2018-04-10T07:38:51Z</time>
      </trkpt>
      <trkpt lat="41.4110150" lon="2.0806060">
        <ele>397.8</ele>
        <time>2018-04-10T07:38:52Z</time>
      </trkpt>
      <trkpt lat="41.4109410" lon="2.0806260">
        <ele>397.0</ele>
        <time>2018-04-10T07:38:53Z</time>
      </trkpt>
      <trkpt lat="41.4108510" lon="2.0807590">
        <ele>395.6</ele>
        <time>2018-04-10T07:38:55Z</time>
      </trkpt>
      <trkpt lat="41.4108720" lon="2.0809490">
        <ele>394.4</ele>
        <time>2018-04-10T07:38:57Z</time>
      </trkpt>
      <trkpt lat="41.4109160" lon="2.0811510">
        <ele>393.4</ele>
        <time>2018-04-10T07:38:59Z</time>
      </trkpt>
      <trkpt lat="41.4109190" lon="2.0812630">
        <ele>392.4</ele>
        <time>2018-04-10T07:39:00Z</time>
      </trkpt>
      <trkpt lat="41.4109090" lon="2.0813780">
        <ele>392.0</ele>
        <time>2018-04-10T07:39:01Z</time>
      </trkpt>
      <trkpt lat="41.4108390" lon="2.0815980">
        <ele>391.6</ele>
        <time>2018-04-10T07:39:03Z</time>
      </trkpt>
      <trkpt lat="41.4107760" lon="2.0816900">
        <ele>391.2</ele>
        <time>2018-04-10T07:39:04Z</time>
      </trkpt>
      <trkpt lat="41.4107060" lon="2.0817730">
        <ele>391.2</ele>
        <time>2018-04-10T07:39:05Z</time>
      </trkpt>
      <trkpt lat="41.4106310" lon="2.0818510">
        <ele>391.0</ele>
        <time>2018-04-10T07:39:06Z</time>
      </trkpt>
      <trkpt lat="41.4105540" lon="2.0819310">
        <ele>390.6</ele>
        <time>2018-04-10T07:39:07Z</time>
      </trkpt>
      <trkpt lat="41.4104740" lon="2.0820140">
        <ele>390.4</ele>
        <time>2018-04-10T07:39:08Z</time>
      </trkpt>
      <trkpt lat="41.4103920" lon="2.0821030">
        <ele>390.2</ele>
        <time>2018-04-10T07:39:09Z</time>
      </trkpt>
      <trkpt lat="41.4102270" lon="2.0822670">
        <ele>389.4</ele>
        <time>2018-04-10T07:39:11Z</time>
      </trkpt>
      <trkpt lat="41.4101280" lon="2.0823250">
        <ele>389.0</ele>
        <time>2018-04-10T07:39:12Z</time>
      </trkpt>
      <trkpt lat="41.4100270" lon="2.0823320">
        <ele>388.6</ele>
        <time>2018-04-10T07:39:13Z</time>
      </trkpt>
      <trkpt lat="41.4098680" lon="2.0822050">
        <ele>387.4</ele>
        <time>2018-04-10T07:39:15Z</time>
      </trkpt>
      <trkpt lat="41.4098010" lon="2.0821090">
        <ele>386.8</ele>
        <time>2018-04-10T07:39:16Z</time>
      </trkpt>
      <trkpt lat="41.4097270" lon="2.0820150">
        <ele>386.2</ele>
        <time>2018-04-10T07:39:17Z</time>
      </trkpt>
      <trkpt lat="41.4095560" lon="2.0819180">
        <ele>384.8</ele>
        <time>2018-04-10T07:39:19Z</time>
      </trkpt>
      <trkpt lat="41.4093560" lon="2.0820240">
        <ele>383.2</ele>
        <time>2018-04-10T07:39:21Z</time>
      </trkpt>
      <trkpt lat="41.4092620" lon="2.0820970">
        <ele>382.4</ele>
        <time>2018-04-10T07:39:22Z</time>
      </trkpt>
      <trkpt lat="41.4091690" lon="2.0821760">
        <ele>381.6</ele>
        <time>2018-04-10T07:39:23Z</time>
      </trkpt>
      <trkpt lat="41.4090810" lon="2.0822650">
        <ele>380.8</ele>
        <time>2018-04-10T07:39:24Z</time>
      </trkpt>
      <trkpt lat="41.4090060" lon="2.0823660">
        <ele>380.2</ele>
        <time>2018-04-10T07:39:25Z</time>
      </trkpt>
      <trkpt lat="41.4088880" lon="2.0826010">
        <ele>378.6</ele>
        <time>2018-04-10T07:39:27Z</time>
      </trkpt>
      <trkpt lat="41.4088410" lon="2.0827320">
        <ele>377.8</ele>
        <time>2018-04-10T07:39:28Z</time>
      </trkpt>
      <trkpt lat="41.4088010" lon="2.0828660">
        <ele>377.2</ele>
        <time>2018-04-10T07:39:29Z</time>
      </trkpt>
      <trkpt lat="41.4087570" lon="2.0829930">
        <ele>375.6</ele>
        <time>2018-04-10T07:39:30Z</time>
      </trkpt>
      <trkpt lat="41.4086880" lon="2.0830830">
        <ele>374.8</ele>
        <time>2018-04-10T07:39:31Z</time>
      </trkpt>
      <trkpt lat="41.4085910" lon="2.0831180">
        <ele>374.2</ele>
        <time>2018-04-10T07:39:32Z</time>
      </trkpt>
      <trkpt lat="41.4084900" lon="2.0831140">
        <ele>373.8</ele>
        <time>2018-04-10T07:39:33Z</time>
      </trkpt>
      <trkpt lat="41.4082970" lon="2.0830060">
        <ele>372.8</ele>
        <time>2018-04-10T07:39:35Z</time>
      </trkpt>
      <trkpt lat="41.4082130" lon="2.0829120">
        <ele>372.2</ele>
        <time>2018-04-10T07:39:36Z</time>
      </trkpt>
      <trkpt lat="41.4081360" lon="2.0828020">
        <ele>371.8</ele>
        <time>2018-04-10T07:39:37Z</time>
      </trkpt>
      <trkpt lat="41.4080010" lon="2.0825590">
        <ele>370.2</ele>
        <time>2018-04-10T07:39:39Z</time>
      </trkpt>
      <trkpt lat="41.4078740" lon="2.0823490">
        <ele>369.0</ele>
        <time>2018-04-10T07:39:41Z</time>
      </trkpt>
      <trkpt lat="41.4077090" lon="2.0822470">
        <ele>367.6</ele>
        <time>2018-04-10T07:39:43Z</time>
      </trkpt>
      <trkpt lat="41.4075090" lon="2.0822860">
        <ele>366.0</ele>
        <time>2018-04-10T07:39:45Z</time>
      </trkpt>
      <trkpt lat="41.4074060" lon="2.0823300">
        <ele>365.0</ele>
        <time>2018-04-10T07:39:46Z</time>
      </trkpt>
      <trkpt lat="41.4073120" lon="2.0823790">
        <ele>364.0</ele>
        <time>2018-04-10T07:39:47Z</time>
      </trkpt>
      <trkpt lat="41.4071960" lon="2.0825570">
        <ele>362.2</ele>
        <time>2018-04-10T07:39:49Z</time>
      </trkpt>
      <trkpt lat="41.4071980" lon="2.0828100">
        <ele>360.6</ele>
        <time>2018-04-10T07:39:51Z</time>
      </trkpt>
      <trkpt lat="41.4072630" lon="2.0830620">
        <ele>359.0</ele>
        <time>2018-04-10T07:39:53Z</time>
      </trkpt>
      <trkpt lat="41.4073060" lon="2.0831830">
        <ele>358.2</ele>
        <time>2018-04-10T07:39:54Z</time>
      </trkpt>
      <trkpt lat="41.4073540" lon="2.0833070">
        <ele>357.4</ele>
        <time>2018-04-10T07:39:55Z</time>
      </trkpt>
      <trkpt lat="41.4074620" lon="2.0835510">
        <ele>356.0</ele>
        <time>2018-04-10T07:39:57Z</time>
      </trkpt>
      <trkpt lat="41.4075960" lon="2.0837870">
        <ele>354.2</ele>
        <time>2018-04-10T07:39:59Z</time>
      </trkpt>
      <trkpt lat="41.4077280" lon="2.0840310">
        <ele>353.4</ele>
        <time>2018-04-10T07:40:01Z</time>
      </trkpt>
      <trkpt lat="41.4077670" lon="2.0841780">
        <ele>353.0</ele>
        <time>2018-04-10T07:40:02Z</time>
      </trkpt>
      <trkpt lat="41.4077750" lon="2.0843330">
        <ele>352.6</ele>
        <time>2018-04-10T07:40:03Z</time>
      </trkpt>
      <trkpt lat="41.4077230" lon="2.0846380">
        <ele>351.6</ele>
        <time>2018-04-10T07:40:05Z</time>
      </trkpt>
      <trkpt lat="41.4076590" lon="2.0849380">
        <ele>350.6</ele>
        <time>2018-04-10T07:40:07Z</time>
      </trkpt>
      <trkpt lat="41.4076160" lon="2.0852390">
        <ele>349.2</ele>
        <time>2018-04-10T07:40:09Z</time>
      </trkpt>
      <trkpt lat="41.4076540" lon="2.0855400">
        <ele>347.6</ele>
        <time>2018-04-10T07:40:11Z</time>
      </trkpt>
      <trkpt lat="41.4077910" lon="2.0857860">
        <ele>346.4</ele>
        <time>2018-04-10T07:40:13Z</time>
      </trkpt>
      <trkpt lat="41.4079920" lon="2.0859440">
        <ele>345.2</ele>
        <time>2018-04-10T07:40:15Z</time>
      </trkpt>
      <trkpt lat="41.4082110" lon="2.0860460">
        <ele>344.2</ele>
        <time>2018-04-10T07:40:17Z</time>
      </trkpt>
      <trkpt lat="41.4084360" lon="2.0860940">
        <ele>343.0</ele>
        <time>2018-04-10T07:40:19Z</time>
      </trkpt>
      <trkpt lat="41.4086370" lon="2.0861560">
        <ele>341.8</ele>
        <time>2018-04-10T07:40:21Z</time>
      </trkpt>
      <trkpt lat="41.4087600" lon="2.0863380">
        <ele>341.0</ele>
        <time>2018-04-10T07:40:23Z</time>
      </trkpt>
      <trkpt lat="41.4087720" lon="2.0864660">
        <ele>340.4</ele>
        <time>2018-04-10T07:40:24Z</time>
      </trkpt>
      <trkpt lat="41.4087570" lon="2.0865870">
        <ele>340.0</ele>
        <time>2018-04-10T07:40:25Z</time>
      </trkpt>
      <trkpt lat="41.4086820" lon="2.0868070">
        <ele>338.8</ele>
        <time>2018-04-10T07:40:27Z</time>
      </trkpt>
      <trkpt lat="41.4086370" lon="2.0869170">
        <ele>337.4</ele>
        <time>2018-04-10T07:40:28Z</time>
      </trkpt>
      <trkpt lat="41.4085850" lon="2.0870310">
        <ele>336.8</ele>
        <time>2018-04-10T07:40:29Z</time>
      </trkpt>
      <trkpt lat="41.4085330" lon="2.0871420">
        <ele>336.0</ele>
        <time>2018-04-10T07:40:30Z</time>
      </trkpt>
      <trkpt lat="41.4084790" lon="2.0872510">
        <ele>335.4</ele>
        <time>2018-04-10T07:40:31Z</time>
      </trkpt>
      <trkpt lat="41.4084220" lon="2.0873580">
        <ele>334.8</ele>
        <time>2018-04-10T07:40:32Z</time>
      </trkpt>
      <trkpt lat="41.4083690" lon="2.0874690">
        <ele>334.4</ele>
        <time>2018-04-10T07:40:33Z</time>
      </trkpt>
      <trkpt lat="41.4083240" lon="2.0875870">
        <ele>334.2</ele>
        <time>2018-04-10T07:40:34Z</time>
      </trkpt>
      <trkpt lat="41.4082870" lon="2.0877110">
        <ele>333.6</ele>
        <time>2018-04-10T07:40:35Z</time>
      </trkpt>
      <trkpt lat="41.4082460" lon="2.0879760">
        <ele>333.2</ele>
        <time>2018-04-10T07:40:37Z</time>
      </trkpt>
      <trkpt lat="41.4082350" lon="2.0881140">
        <ele>332.8</ele>
        <time>2018-04-10T07:40:38Z</time>
      </trkpt>
      <trkpt lat="41.4082200" lon="2.0882460">
        <ele>332.4</ele>
        <time>2018-04-10T07:40:39Z</time>
      </trkpt>
      <trkpt lat="41.4082040" lon="2.0884890">
        <ele>331.4</ele>
        <time>2018-04-10T07:40:41Z</time>
      </trkpt>
      <trkpt lat="41.4082000" lon="2.0885950">
        <ele>331.0</ele>
        <time>2018-04-10T07:40:42Z</time>
      </trkpt>
      <trkpt lat="41.4081980" lon="2.0886900">
        <ele>330.6</ele>
        <time>2018-04-10T07:40:43Z</time>
      </trkpt>
      <trkpt lat="41.4081950" lon="2.0887640">
        <ele>330.2</ele>
        <time>2018-04-10T07:40:44Z</time>
      </trkpt>
      <trkpt lat="41.4081830" lon="2.0888040">
        <ele>329.6</ele>
        <time>2018-04-10T07:40:45Z</time>
      </trkpt>
      <trkpt lat="41.4081450" lon="2.0887540">
        <ele>328.6</ele>
        <time>2018-04-10T07:40:47Z</time>
      </trkpt>
      <trkpt lat="41.4081450" lon="2.0886100">
        <ele>327.4</ele>
        <time>2018-04-10T07:40:49Z</time>
      </trkpt>
      <trkpt lat="41.4081460" lon="2.0884140">
        <ele>326.4</ele>
        <time>2018-04-10T07:40:51Z</time>
      </trkpt>
      <trkpt lat="41.4081400" lon="2.0883030">
        <ele>326.0</ele>
        <time>2018-04-10T07:40:52Z</time>
      </trkpt>
      <trkpt lat="41.4081240" lon="2.0881860">
        <ele>325.8</ele>
        <time>2018-04-10T07:40:53Z</time>
      </trkpt>
      <trkpt lat="41.4080550" lon="2.0879540">
        <ele>325.2</ele>
        <time>2018-04-10T07:40:55Z</time>
      </trkpt>
      <trkpt lat="41.4080040" lon="2.0878480">
        <ele>324.2</ele>
        <time>2018-04-10T07:40:56Z</time>
      </trkpt>
      <trkpt lat="41.4079600" lon="2.0877380">
        <ele>323.6</ele>
        <time>2018-04-10T07:40:57Z</time>
      </trkpt>
      <trkpt lat="41.4079310" lon="2.0876310">
        <ele>322.6</ele>
        <time>2018-04-10T07:40:58Z</time>
      </trkpt>
      <trkpt lat="41.4079270" lon="2.0875300">
        <ele>321.8</ele>
        <time>2018-04-10T07:40:59Z</time>
      </trkpt>
      <trkpt lat="41.4079500" lon="2.0874340">
        <ele>320.8</ele>
        <time>2018-04-10T07:41:00Z</time>
      </trkpt>
      <trkpt lat="41.4079950" lon="2.0873450">
        <ele>320.0</ele>
        <time>2018-04-10T07:41:01Z</time>
      </trkpt>
      <trkpt lat="41.4080530" lon="2.0872620">
        <ele>319.0</ele>
        <time>2018-04-10T07:41:02Z</time>
      </trkpt>
      <trkpt lat="41.4081070" lon="2.0871670">
        <ele>318.0</ele>
        <time>2018-04-10T07:41:03Z</time>
      </trkpt>
      <trkpt lat="41.4081580" lon="2.0870740">
        <ele>317.0</ele>
        <time>2018-04-10T07:41:04Z</time>
      </trkpt>
      <trkpt lat="41.4082060" lon="2.0869850">
        <ele>316.2</ele>
        <time>2018-04-10T07:41:05Z</time>
      </trkpt>
      <trkpt lat="41.4082360" lon="2.0868820">
        <ele>315.2</ele>
        <time>2018-04-10T07:41:06Z</time>
      </trkpt>
      <trkpt lat="41.4082430" lon="2.0867770">
        <ele>314.4</ele>
        <time>2018-04-10T07:41:07Z</time>
      </trkpt>
      <trkpt lat="41.4082190" lon="2.0866680">
        <ele>313.2</ele>
        <time>2018-04-10T07:41:08Z</time>
      </trkpt>
      <trkpt lat="41.4081800" lon="2.0866170">
        <ele>312.2</ele>
        <time>2018-04-10T07:41:09Z</time>
      </trkpt>
      <trkpt lat="41.4080450" lon="2.0865900">
        <ele>310.8</ele>
        <time>2018-04-10T07:41:11Z</time>
      </trkpt>
      <trkpt lat="41.4079610" lon="2.0865810">
        <ele>310.0</ele>
        <time>2018-04-10T07:41:12Z</time>
      </trkpt>
      <trkpt lat="41.4078670" lon="2.0865740">
        <ele>309.4</ele>
        <time>2018-04-10T07:41:13Z</time>
      </trkpt>
      <trkpt lat="41.4076520" lon="2.0865400">
        <ele>308.8</ele>
        <time>2018-04-10T07:41:15Z</time>
      </trkpt>
      <trkpt lat="41.4075370" lon="2.0865210">
        <ele>308.4</ele>
        <time>2018-04-10T07:41:16Z</time>
      </trkpt>
      <trkpt lat="41.4074250" lon="2.0864930">
        <ele>307.8</ele>
        <time>2018-04-10T07:41:17Z</time>
      </trkpt>
      <trkpt lat="41.4073160" lon="2.0864650">
        <ele>307.4</ele>
        <time>2018-04-10T07:41:18Z</time>
      </trkpt>
      <trkpt lat="41.4072050" lon="2.0864530">
        <ele>306.8</ele>
        <time>2018-04-10T07:41:19Z</time>
      </trkpt>
      <trkpt lat="41.4070870" lon="2.0864580">
        <ele>306.2</ele>
        <time>2018-04-10T07:41:20Z</time>
      </trkpt>
      <trkpt lat="41.4069610" lon="2.0864670">
        <ele>305.2</ele>
        <time>2018-04-10T07:41:21Z</time>
      </trkpt>
      <trkpt lat="41.4068370" lon="2.0864760">
        <ele>304.4</ele>
        <time>2018-04-10T07:41:22Z</time>
      </trkpt>
      <trkpt lat="41.4067200" lon="2.0864890">
        <ele>303.4</ele>
        <time>2018-04-10T07:41:23Z</time>
      </trkpt>
      <trkpt lat="41.4066100" lon="2.0864990">
        <ele>302.2</ele>
        <time>2018-04-10T07:41:24Z</time>
      </trkpt>
      <trkpt lat="41.4065040" lon="2.0865150">
        <ele>300.8</ele>
        <time>2018-04-10T07:41:25Z</time>
      </trkpt>
      <trkpt lat="41.4064030" lon="2.0865180">
        <ele>298.2</ele>
        <time>2018-04-10T07:41:26Z</time>
      </trkpt>
      <trkpt lat="41.4063100" lon="2.0865020">
        <ele>297.0</ele>
        <time>2018-04-10T07:41:27Z</time>
      </trkpt>
      <trkpt lat="41.4062180" lon="2.0864670">
        <ele>295.8</ele>
        <time>2018-04-10T07:41:28Z</time>
      </trkpt>
      <trkpt lat="41.4061310" lon="2.0864140">
        <ele>294.4</ele>
        <time>2018-04-10T07:41:29Z</time>
      </trkpt>
      <trkpt lat="41.4060510" lon="2.0863490">
        <ele>292.8</ele>
        <time>2018-04-10T07:41:30Z</time>
      </trkpt>
      <trkpt lat="41.4059860" lon="2.0862780">
        <ele>291.4</ele>
        <time>2018-04-10T07:41:31Z</time>
      </trkpt>
      <trkpt lat="41.4059370" lon="2.0861930">
        <ele>290.2</ele>
        <time>2018-04-10T07:41:32Z</time>
      </trkpt>
      <trkpt lat="41.4059010" lon="2.0860950">
        <ele>289.0</ele>
        <time>2018-04-10T07:41:33Z</time>
      </trkpt>
      <trkpt lat="41.4059010" lon="2.0858780">
        <ele>287.2</ele>
        <time>2018-04-10T07:41:35Z</time>
      </trkpt>
      <trkpt lat="41.4059660" lon="2.0857070">
        <ele>285.6</ele>
        <time>2018-04-10T07:41:37Z</time>
      </trkpt>
      <trkpt lat="41.4060020" lon="2.0855850">
        <ele>283.8</ele>
        <time>2018-04-10T07:41:39Z</time>
      </trkpt>
      <trkpt lat="41.4059230" lon="2.0855160">
        <ele>281.8</ele>
        <time>2018-04-10T07:41:41Z</time>
      </trkpt>
      <trkpt lat="41.4058640" lon="2.0855180">
        <ele>280.8</ele>
        <time>2018-04-10T07:41:42Z</time>
      </trkpt>
      <trkpt lat="41.4057920" lon="2.0855700">
        <ele>279.8</ele>
        <time>2018-04-10T07:41:43Z</time>
      </trkpt>
      <trkpt lat="41.4057050" lon="2.0856400">
        <ele>278.6</ele>
        <time>2018-04-10T07:41:44Z</time>
      </trkpt>
      <trkpt lat="41.4056120" lon="2.0857120">
        <ele>277.4</ele>
        <time>2018-04-10T07:41:45Z</time>
      </trkpt>
      <trkpt lat="41.4055220" lon="2.0857900">
        <ele>276.4</ele>
        <time>2018-04-10T07:41:46Z</time>
      </trkpt>
      <trkpt lat="41.4054410" lon="2.0858800">
        <ele>275.4</ele>
        <time>2018-04-10T07:41:47Z</time>
      </trkpt>
      <trkpt lat="41.4053690" lon="2.0859820">
        <ele>274.6</ele>
        <time>2018-04-10T07:41:48Z</time>
      </trkpt>
      <trkpt lat="41.4053130" lon="2.0861050">
        <ele>273.4</ele>
        <time>2018-04-10T07:41:49Z</time>
      </trkpt>
      <trkpt lat="41.4052790" lon="2.0862340">
        <ele>272.4</ele>
        <time>2018-04-10T07:41:50Z</time>
      </trkpt>
      <trkpt lat="41.4052760" lon="2.0863670">
        <ele>271.2</ele>
        <time>2018-04-10T07:41:51Z</time>
      </trkpt>
      <trkpt lat="41.4052870" lon="2.0865000">
        <ele>269.6</ele>
        <time>2018-04-10T07:41:52Z</time>
      </trkpt>
      <trkpt lat="41.4053110" lon="2.0866510">
        <ele>268.0</ele>
        <time>2018-04-10T07:41:53Z</time>
      </trkpt>
      <trkpt lat="41.4053300" lon="2.0868060">
        <ele>266.4</ele>
        <time>2018-04-10T07:41:54Z</time>
      </trkpt>
      <trkpt lat="41.4053390" lon="2.0869600">
        <ele>263.4</ele>
        <time>2018-04-10T07:41:55Z</time>
      </trkpt>
      <trkpt lat="41.4053510" lon="2.0871070">
        <ele>262.2</ele>
        <time>2018-04-10T07:41:56Z</time>
      </trkpt>
      <trkpt lat="41.4053640" lon="2.0872360">
        <ele>261.0</ele>
        <time>2018-04-10T07:41:57Z</time>
      </trkpt>
      <trkpt lat="41.4053850" lon="2.0873470">
        <ele>260.0</ele>
        <time>2018-04-10T07:41:58Z</time>
      </trkpt>
      <trkpt lat="41.4054200" lon="2.0874420">
        <ele>258.8</ele>
        <time>2018-04-10T07:41:59Z</time>
      </trkpt>
      <trkpt lat="41.4055380" lon="2.0875490">
        <ele>257.4</ele>
        <time>2018-04-10T07:42:01Z</time>
      </trkpt>
      <trkpt lat="41.4056870" lon="2.0875560">
        <ele>255.6</ele>
        <time>2018-04-10T07:42:03Z</time>
      </trkpt>
      <trkpt lat="41.4057630" lon="2.0875370">
        <ele>254.6</ele>
        <time>2018-04-10T07:42:04Z</time>
      </trkpt>
      <trkpt lat="41.4058330" lon="2.0875150">
        <ele>253.6</ele>
        <time>2018-04-10T07:42:05Z</time>
      </trkpt>
      <trkpt lat="41.4058950" lon="2.0875010">
        <ele>252.6</ele>
        <time>2018-04-10T07:42:06Z</time>
      </trkpt>
      <trkpt lat="41.4059420" lon="2.0875050">
        <ele>252.0</ele>
        <time>2018-04-10T07:42:07Z</time>
      </trkpt>
      <trkpt lat="41.4059600" lon="2.0875350">
        <ele>251.4</ele>
        <time>2018-04-10T07:42:08Z</time>
      </trkpt>
      <trkpt lat="41.4059560" lon="2.0875880">
        <ele>250.8</ele>
        <time>2018-04-10T07:42:09Z</time>
      </trkpt>
      <trkpt lat="41.4059260" lon="2.0876410">
        <ele>250.4</ele>
        <time>2018-04-10T07:42:10Z</time>
      </trkpt>
      <trkpt lat="41.4058780" lon="2.0876730">
        <ele>250.0</ele>
        <time>2018-04-10T07:42:11Z</time>
      </trkpt>
      <trkpt lat="41.4057420" lon="2.0876980">
        <ele>249.2</ele>
        <time>2018-04-10T07:42:13Z</time>
      </trkpt>
      <trkpt lat="41.4055730" lon="2.0877380">
        <ele>248.4</ele>
        <time>2018-04-10T07:42:15Z</time>
      </trkpt>
      <trkpt lat="41.4054840" lon="2.0877480">
        <ele>248.0</ele>
        <time>2018-04-10T07:42:16Z</time>
      </trkpt>
      <trkpt lat="41.4053900" lon="2.0877400">
        <ele>247.4</ele>
        <time>2018-04-10T07:42:17Z</time>
      </trkpt>
      <trkpt lat="41.4052970" lon="2.0877100">
        <ele>246.8</ele>
        <time>2018-04-10T07:42:18Z</time>
      </trkpt>
      <trkpt lat="41.4052060" lon="2.0876580">
        <ele>246.2</ele>
        <time>2018-04-10T07:42:19Z</time>
      </trkpt>
      <trkpt lat="41.4051210" lon="2.0875930">
        <ele>245.4</ele>
        <time>2018-04-10T07:42:20Z</time>
      </trkpt>
      <trkpt lat="41.4050490" lon="2.0875110">
        <ele>244.6</ele>
        <time>2018-04-10T07:42:21Z</time>
      </trkpt>
      <trkpt lat="41.4049860" lon="2.0874070">
        <ele>243.6</ele>
        <time>2018-04-10T07:42:22Z</time>
      </trkpt>
      <trkpt lat="41.4049250" lon="2.0872960">
        <ele>242.8</ele>
        <time>2018-04-10T07:42:23Z</time>
      </trkpt>
      <trkpt lat="41.4048570" lon="2.0871880">
        <ele>240.8</ele>
        <time>2018-04-10T07:42:24Z</time>
      </trkpt>
      <trkpt lat="41.4047790" lon="2.0870870">
        <ele>239.8</ele>
        <time>2018-04-10T07:42:25Z</time>
      </trkpt>
      <trkpt lat="41.4046990" lon="2.0869990">
        <ele>238.8</ele>
        <time>2018-04-10T07:42:26Z</time>
      </trkpt>
      <trkpt lat="41.4046190" lon="2.0869260">
        <ele>237.4</ele>
        <time>2018-04-10T07:42:27Z</time>
      </trkpt>
      <trkpt lat="41.4045390" lon="2.0868650">
        <ele>236.4</ele>
        <time>2018-04-10T07:42:28Z</time>
      </trkpt>
      <trkpt lat="41.4044610" lon="2.0867980">
        <ele>235.2</ele>
        <time>2018-04-10T07:42:29Z</time>
      </trkpt>
      <trkpt lat="41.4043810" lon="2.0867230">
        <ele>234.2</ele>
        <time>2018-04-10T07:42:30Z</time>
      </trkpt>
      <trkpt lat="41.4043010" lon="2.0866490">
        <ele>233.2</ele>
        <time>2018-04-10T07:42:31Z</time>
      </trkpt>
      <trkpt lat="41.4042260" lon="2.0865790">
        <ele>232.0</ele>
        <time>2018-04-10T07:42:32Z</time>
      </trkpt>
      <trkpt lat="41.4041630" lon="2.0865170">
        <ele>231.0</ele>
        <time>2018-04-10T07:42:33Z</time>
      </trkpt>
      <trkpt lat="41.4041070" lon="2.0864740">
        <ele>230.0</ele>
        <time>2018-04-10T07:42:34Z</time>
      </trkpt>
      <trkpt lat="41.4040500" lon="2.0864660">
        <ele>228.8</ele>
        <time>2018-04-10T07:42:35Z</time>
      </trkpt>
      <trkpt lat="41.4040030" lon="2.0864920">
        <ele>227.8</ele>
        <time>2018-04-10T07:42:36Z</time>
      </trkpt>
      <trkpt lat="41.4039710" lon="2.0865410">
        <ele>226.8</ele>
        <time>2018-04-10T07:42:37Z</time>
      </trkpt>
      <trkpt lat="41.4039650" lon="2.0866050">
        <ele>225.6</ele>
        <time>2018-04-10T07:42:38Z</time>
      </trkpt>
      <trkpt lat="41.4039930" lon="2.0866730">
        <ele>224.4</ele>
        <time>2018-04-10T07:42:39Z</time>
      </trkpt>
      <trkpt lat="41.4040390" lon="2.0867420">
        <ele>223.4</ele>
        <time>2018-04-10T07:42:40Z</time>
      </trkpt>
      <trkpt lat="41.4040940" lon="2.0868120">
        <ele>222.6</ele>
        <time>2018-04-10T07:42:41Z</time>
      </trkpt>
      <trkpt lat="41.4041520" lon="2.0868860">
        <ele>221.8</ele>
        <time>2018-04-10T07:42:42Z</time>
      </trkpt>
      <trkpt lat="41.4042100" lon="2.0869670">
        <ele>221.0</ele>
        <time>2018-04-10T07:42:43Z</time>
      </trkpt>
      <trkpt lat="41.4042630" lon="2.0870530">
        <ele>220.4</ele>
        <time>2018-04-10T07:42:44Z</time>
      </trkpt>
      <trkpt lat="41.4043020" lon="2.0871360">
        <ele>219.6</ele>
        <time>2018-04-10T07:42:45Z</time>
      </trkpt>
      <trkpt lat="41.4043220" lon="2.0872130">
        <ele>219.0</ele>
        <time>2018-04-10T07:42:46Z</time>
      </trkpt>
      <trkpt lat="41.4043250" lon="2.0872840">
        <ele>218.2</ele>
        <time>2018-04-10T07:42:47Z</time>
      </trkpt>
      <trkpt lat="41.4043220" lon="2.0873510">
        <ele>217.6</ele>
        <time>2018-04-10T07:42:48Z</time>
      </trkpt>
      <trkpt lat="41.4043090" lon="2.0874120">
        <ele>216.8</ele>
        <time>2018-04-10T07:42:49Z</time>
      </trkpt>
      <trkpt lat="41.4042820" lon="2.0874670">
        <ele>216.2</ele>
        <time>2018-04-10T07:42:50Z</time>
      </trkpt>
      <trkpt lat="41.4042480" lon="2.0875130">
        <ele>215.6</ele>
        <time>2018-04-10T07:42:51Z</time>
      </trkpt>
      <trkpt lat="41.4042080" lon="2.0875600">
        <ele>214.2</ele>
        <time>2018-04-10T07:42:52Z</time>
      </trkpt>
      <trkpt lat="41.4041700" lon="2.0875990">
        <ele>213.6</ele>
        <time>2018-04-10T07:42:53Z</time>
      </trkpt>
      <trkpt lat="41.4041380" lon="2.0876310">
        <ele>213.0</ele>
        <time>2018-04-10T07:42:54Z</time>
      </trkpt>
      <trkpt lat="41.4041100" lon="2.0876590">
        <ele>212.4</ele>
        <time>2018-04-10T07:42:55Z</time>
      </trkpt>
      <trkpt lat="41.4040780" lon="2.0876730">
        <ele>211.8</ele>
        <time>2018-04-10T07:42:56Z</time>
      </trkpt>
      <trkpt lat="41.4040380" lon="2.0876740">
        <ele>211.4</ele>
        <time>2018-04-10T07:42:57Z</time>
      </trkpt>
      <trkpt lat="41.4039870" lon="2.0876550">
        <ele>210.8</ele>
        <time>2018-04-10T07:42:58Z</time>
      </trkpt>
      <trkpt lat="41.4039300" lon="2.0876130">
        <ele>210.2</ele>
        <time>2018-04-10T07:42:59Z</time>
      </trkpt>
      <trkpt lat="41.4038710" lon="2.0875510">
        <ele>209.4</ele>
        <time>2018-04-10T07:43:00Z</time>
      </trkpt>
      <trkpt lat="41.4038110" lon="2.0874780">
        <ele>208.6</ele>
        <time>2018-04-10T07:43:01Z</time>
      </trkpt>
      <trkpt lat="41.4037460" lon="2.0874030">
        <ele>207.8</ele>
        <time>2018-04-10T07:43:02Z</time>
      </trkpt>
      <trkpt lat="41.4036740" lon="2.0873350">
        <ele>207.2</ele>
        <time>2018-04-10T07:43:03Z</time>
      </trkpt>
      <trkpt lat="41.4035940" lon="2.0872760">
        <ele>206.6</ele>
        <time>2018-04-10T07:43:04Z</time>
      </trkpt>
      <trkpt lat="41.4035080" lon="2.0872300">
        <ele>206.2</ele>
        <time>2018-04-10T07:43:05Z</time>
      </trkpt>
      <trkpt lat="41.4034210" lon="2.0871910">
        <ele>205.6</ele>
        <time>2018-04-10T07:43:06Z</time>
      </trkpt>
      <trkpt lat="41.4033340" lon="2.0871580">
        <ele>204.8</ele>
        <time>2018-04-10T07:43:07Z</time>
      </trkpt>
      <trkpt lat="41.4032470" lon="2.0871360">
        <ele>204.2</ele>
        <time>2018-04-10T07:43:08Z</time>
      </trkpt>
      <trkpt lat="41.4031580" lon="2.0871360">
        <ele>203.4</ele>
        <time>2018-04-10T07:43:09Z</time>
      </trkpt>
      <trkpt lat="41.4030680" lon="2.0871590">
        <ele>202.4</ele>
        <time>2018-04-10T07:43:10Z</time>
      </trkpt>
      <trkpt lat="41.4029810" lon="2.0872070">
        <ele>201.4</ele>
        <time>2018-04-10T07:43:11Z</time>
      </trkpt>
      <trkpt lat="41.4028110" lon="2.0873480">
        <ele>199.4</ele>
        <time>2018-04-10T07:43:13Z</time>
      </trkpt>
      <trkpt lat="41.4027240" lon="2.0874250">
        <ele>198.4</ele>
        <time>2018-04-10T07:43:14Z</time>
      </trkpt>
      <trkpt lat="41.4026340" lon="2.0875020">
        <ele>197.6</ele>
        <time>2018-04-10T07:43:15Z</time>
      </trkpt>
      <trkpt lat="41.4025440" lon="2.0875690">
        <ele>196.8</ele>
        <time>2018-04-10T07:43:16Z</time>
      </trkpt>
      <trkpt lat="41.4024570" lon="2.0876280">
        <ele>195.8</ele>
        <time>2018-04-10T07:43:17Z</time>
      </trkpt>
      <trkpt lat="41.4023800" lon="2.0876750">
        <ele>195.0</ele>
        <time>2018-04-10T07:43:18Z</time>
      </trkpt>
      <trkpt lat="41.4023180" lon="2.0877030">
        <ele>194.0</ele>
        <time>2018-04-10T07:43:19Z</time>
      </trkpt>
      <trkpt lat="41.4022640" lon="2.0877190">
        <ele>193.0</ele>
        <time>2018-04-10T07:43:20Z</time>
      </trkpt>
      <trkpt lat="41.4022100" lon="2.0877300">
        <ele>190.8</ele>
        <time>2018-04-10T07:43:21Z</time>
      </trkpt>
      <trkpt lat="41.4021020" lon="2.0877520">
        <ele>188.6</ele>
        <time>2018-04-10T07:43:23Z</time>
      </trkpt>
      <trkpt lat="41.4020520" lon="2.0877630">
        <ele>187.6</ele>
        <time>2018-04-10T07:43:24Z</time>
      </trkpt>
      <trkpt lat="41.4019930" lon="2.0877790">
        <ele>186.6</ele>
        <time>2018-04-10T07:43:25Z</time>
      </trkpt>
      <trkpt lat="41.4019220" lon="2.0877930">
        <ele>185.8</ele>
        <time>2018-04-10T07:43:26Z</time>
      </trkpt>
      <trkpt lat="41.4018450" lon="2.0878010">
        <ele>185.2</ele>
        <time>2018-04-10T07:43:27Z</time>
      </trkpt>
      <trkpt lat="41.4016670" lon="2.0878010">
        <ele>184.6</ele>
        <time>2018-04-10T07:43:29Z</time>
      </trkpt>
      <trkpt lat="41.4015770" lon="2.0877820">
        <ele>184.4</ele>
        <time>2018-04-10T07:43:30Z</time>
      </trkpt>
      <trkpt lat="41.4014970" lon="2.0877460">
        <ele>184.2</ele>
        <time>2018-04-10T07:43:31Z</time>
      </trkpt>
      <trkpt lat="41.4013440" lon="2.0876730">
        <ele>183.8</ele>
        <time>2018-04-10T07:43:33Z</time>
      </trkpt>
      <trkpt lat="41.4012710" lon="2.0876500">
        <ele>183.4</ele>
        <time>2018-04-10T07:43:34Z</time>
      </trkpt>
      <trkpt lat="41.4011980" lon="2.0876440">
        <ele>182.8</ele>
        <time>2018-04-10T07:43:35Z</time>
      </trkpt>
      <trkpt lat="41.4011240" lon="2.0876520">
        <ele>182.2</ele>
        <time>2018-04-10T07:43:36Z</time>
      </trkpt>
      <trkpt lat="41.4010420" lon="2.0876750">
        <ele>181.6</ele>
        <time>2018-04-10T07:43:37Z</time>
      </trkpt>
      <trkpt lat="41.4009640" lon="2.0876940">
        <ele>181.0</ele>
        <time>2018-04-10T07:43:38Z</time>
      </trkpt>
      <trkpt lat="41.4008970" lon="2.0877000">
        <ele>180.6</ele>
        <time>2018-04-10T07:43:39Z</time>
      </trkpt>
      <trkpt lat="41.4007990" lon="2.0876560">
        <ele>179.4</ele>
        <time>2018-04-10T07:43:41Z</time>
      </trkpt>
      <trkpt lat="41.4007640" lon="2.0876220">
        <ele>178.8</ele>
        <time>2018-04-10T07:43:42Z</time>
      </trkpt>
      <trkpt lat="41.4007360" lon="2.0875870">
        <ele>178.2</ele>
        <time>2018-04-10T07:43:43Z</time>
      </trkpt>
      <trkpt lat="41.4007230" lon="2.0875520">
        <ele>177.6</ele>
        <time>2018-04-10T07:43:44Z</time>
      </trkpt>
      <trkpt lat="41.4007190" lon="2.0875180">
        <ele>177.0</ele>
        <time>2018-04-10T07:43:45Z</time>
      </trkpt>
      <trkpt lat="41.4007390" lon="2.0874590">
        <ele>176.0</ele>
        <time>2018-04-10T07:43:47Z</time>
      </trkpt>
      <trkpt lat="41.4007270" lon="2.0874270">
        <ele>175.4</ele>
        <time>2018-04-10T07:43:49Z</time>
      </trkpt>
      <trkpt lat="41.4007030" lon="2.0874790">
        <ele>175.2</ele>
        <time>2018-04-10T07:43:51Z</time>
      </trkpt>
      <trkpt lat="41.4007150" lon="2.0875580">
        <ele>175.0</ele>
        <time>2018-04-10T07:43:53Z</time>
      </trkpt>
      <trkpt lat="41.4007570" lon="2.0876360">
        <ele>175.0</ele>
        <time>2018-04-10T07:43:55Z</time>
      </trkpt>
      <trkpt lat="41.4008240" lon="2.0876990">
        <ele>175.0</ele>
        <time>2018-04-10T07:43:57Z</time>
      </trkpt>
      <trkpt lat="41.4009030" lon="2.0877270">
        <ele>175.0</ele>
        <time>2018-04-10T07:43:59Z</time>
      </trkpt>
      <trkpt lat="41.4009910" lon="2.0877180">
        <ele>175.0</ele>
        <time>2018-04-10T07:44:01Z</time>
      </trkpt>
      <trkpt lat="41.4010840" lon="2.0877040">
        <ele>175.2</ele>
        <time>2018-04-10T07:44:03Z</time>
      </trkpt>
      <trkpt lat="41.4011710" lon="2.0876890">
        <ele>175.2</ele>
        <time>2018-04-10T07:44:05Z</time>
      </trkpt>
      <trkpt lat="41.4012480" lon="2.0876890">
        <ele>175.4</ele>
        <time>2018-04-10T07:44:07Z</time>
      </trkpt>
      <trkpt lat="41.4013200" lon="2.0877040">
        <ele>175.4</ele>
        <time>2018-04-10T07:44:09Z</time>
      </trkpt>
      <trkpt lat="41.4013900" lon="2.0877220">
        <ele>175.8</ele>
        <time>2018-04-10T07:44:11Z</time>
      </trkpt>
      <trkpt lat="41.4014550" lon="2.0877520">
        <ele>176.2</ele>
        <time>2018-04-10T07:44:13Z</time>
      </trkpt>
      <trkpt lat="41.4015190" lon="2.0877870">
        <ele>176.8</ele>
        <time>2018-04-10T07:44:15Z</time>
      </trkpt>
      <trkpt lat="41.4015860" lon="2.0878180">
        <ele>177.4</ele>
        <time>2018-04-10T07:44:17Z</time>
      </trkpt>
      <trkpt lat="41.4016570" lon="2.0878430">
        <ele>178.0</ele>
        <time>2018-04-10T07:44:19Z</time>
      </trkpt>
      <trkpt lat="41.4017260" lon="2.0878520">
        <ele>178.8</ele>
        <time>2018-04-10T07:44:21Z</time>
      </trkpt>
      <trkpt lat="41.4017920" lon="2.0878520">
        <ele>179.0</ele>
        <time>2018-04-10T07:44:23Z</time>
      </trkpt>
      <trkpt lat="41.4018590" lon="2.0878460">
        <ele>179.4</ele>
        <time>2018-04-10T07:44:25Z</time>
      </trkpt>
      <trkpt lat="41.4019180" lon="2.0878440">
        <ele>179.8</ele>
        <time>2018-04-10T07:44:27Z</time>
      </trkpt>
      <trkpt lat="41.4019740" lon="2.0878410">
        <ele>180.2</ele>
        <time>2018-04-10T07:44:29Z</time>
      </trkpt>
      <trkpt lat="41.4020310" lon="2.0878270">
        <ele>180.8</ele>
        <time>2018-04-10T07:44:31Z</time>
      </trkpt>
      <trkpt lat="41.4020990" lon="2.0878130">
        <ele>181.4</ele>
        <time>2018-04-10T07:44:33Z</time>
      </trkpt>
      <trkpt lat="41.4021720" lon="2.0877940">
        <ele>182.0</ele>
        <time>2018-04-10T07:44:35Z</time>
      </trkpt>
      <trkpt lat="41.4022420" lon="2.0877820">
        <ele>182.6</ele>
        <time>2018-04-10T07:44:37Z</time>
      </trkpt>
      <trkpt lat="41.4023170" lon="2.0877590">
        <ele>183.4</ele>
        <time>2018-04-10T07:44:39Z</time>
      </trkpt>
      <trkpt lat="41.4023520" lon="2.0877430">
        <ele>183.6</ele>
        <time>2018-04-10T07:44:40Z</time>
      </trkpt>
      <trkpt lat="41.4023910" lon="2.0877220">
        <ele>183.6</ele>
        <time>2018-04-10T07:44:41Z</time>
      </trkpt>
      <trkpt lat="41.4024670" lon="2.0876760">
        <ele>184.0</ele>
        <time>2018-04-10T07:44:43Z</time>
      </trkpt>
      <trkpt lat="41.4025420" lon="2.0876360">
        <ele>184.2</ele>
        <time>2018-04-10T07:44:45Z</time>
      </trkpt>
      <trkpt lat="41.4026040" lon="2.0875950">
        <ele>184.4</ele>
        <time>2018-04-10T07:44:47Z</time>
      </trkpt>
      <trkpt lat="41.4026330" lon="2.0875740">
        <ele>184.4</ele>
        <time>2018-04-10T07:44:48Z</time>
      </trkpt>
      <trkpt lat="41.4026610" lon="2.0875550">
        <ele>184.6</ele>
        <time>2018-04-10T07:44:49Z</time>
      </trkpt>
      <trkpt lat="41.4027110" lon="2.0875080">
        <ele>185.0</ele>
        <time>2018-04-10T07:44:51Z</time>
      </trkpt>
      <trkpt lat="41.4027580" lon="2.0874690">
        <ele>185.4</ele>
        <time>2018-04-10T07:44:53Z</time>
      </trkpt>
      <trkpt lat="41.4027800" lon="2.0874510">
        <ele>185.6</ele>
        <time>2018-04-10T07:44:54Z</time>
      </trkpt>
      <trkpt lat="41.4027990" lon="2.0874290">
        <ele>185.8</ele>
        <time>2018-04-10T07:44:55Z</time>
      </trkpt>
      <trkpt lat="41.4028370" lon="2.0873880">
        <ele>186.2</ele>
        <time>2018-04-10T07:44:57Z</time>
      </trkpt>
      <trkpt lat="41.4028770" lon="2.0873500">
        <ele>186.8</ele>
        <time>2018-04-10T07:44:59Z</time>
      </trkpt>
      <trkpt lat="41.4029210" lon="2.0873190">
        <ele>187.6</ele>
        <time>2018-04-10T07:45:01Z</time>
      </trkpt>
      <trkpt lat="41.4029440" lon="2.0873040">
        <ele>188.0</ele>
        <time>2018-04-10T07:45:02Z</time>
      </trkpt>
      <trkpt lat="41.4029670" lon="2.0872890">
        <ele>188.2</ele>
        <time>2018-04-10T07:45:03Z</time>
      </trkpt>
      <trkpt lat="41.4030090" lon="2.0872570">
        <ele>188.8</ele>
        <time>2018-04-10T07:45:05Z</time>
      </trkpt>
      <trkpt lat="41.4030300" lon="2.0872430">
        <ele>189.2</ele>
        <time>2018-04-10T07:45:06Z</time>
      </trkpt>
      <trkpt lat="41.4030530" lon="2.0872290">
        <ele>189.6</ele>
        <time>2018-04-10T07:45:07Z</time>
      </trkpt>
      <trkpt lat="41.4030990" lon="2.0872070">
        <ele>190.2</ele>
        <time>2018-04-10T07:45:09Z</time>
      </trkpt>
      <trkpt lat="41.4031470" lon="2.0872020">
        <ele>190.8</ele>
        <time>2018-04-10T07:45:11Z</time>
      </trkpt>
      <trkpt lat="41.4031850" lon="2.0872080">
        <ele>191.2</ele>
        <time>2018-04-10T07:45:13Z</time>
      </trkpt>
      <trkpt lat="41.4032290" lon="2.0872170">
        <ele>191.8</ele>
        <time>2018-04-10T07:45:15Z</time>
      </trkpt>
      <trkpt lat="41.4032820" lon="2.0872330">
        <ele>192.2</ele>
        <time>2018-04-10T07:45:17Z</time>
      </trkpt>
      <trkpt lat="41.4033330" lon="2.0872500">
        <ele>193.2</ele>
        <time>2018-04-10T07:45:19Z</time>
      </trkpt>
      <trkpt lat="41.4033600" lon="2.0872600">
        <ele>193.4</ele>
        <time>2018-04-10T07:45:20Z</time>
      </trkpt>
      <trkpt lat="41.4033880" lon="2.0872680">
        <ele>193.6</ele>
        <time>2018-04-10T07:45:21Z</time>
      </trkpt>
      <trkpt lat="41.4034430" lon="2.0872820">
        <ele>194.2</ele>
        <time>2018-04-10T07:45:23Z</time>
      </trkpt>
      <trkpt lat="41.4034710" lon="2.0872950">
        <ele>194.6</ele>
        <time>2018-04-10T07:45:24Z</time>
      </trkpt>
      <trkpt lat="41.4034970" lon="2.0873080">
        <ele>194.8</ele>
        <time>2018-04-10T07:45:25Z</time>
      </trkpt>
      <trkpt lat="41.4035500" lon="2.0873370">
        <ele>195.4</ele>
        <time>2018-04-10T07:45:27Z</time>
      </trkpt>
      <trkpt lat="41.4035750" lon="2.0873520">
        <ele>195.8</ele>
        <time>2018-04-10T07:45:28Z</time>
      </trkpt>
      <trkpt lat="41.4036000" lon="2.0873700">
        <ele>196.0</ele>
        <time>2018-04-10T07:45:29Z</time>
      </trkpt>
      <trkpt lat="41.4036460" lon="2.0874150">
        <ele>196.4</ele>
        <time>2018-04-10T07:45:31Z</time>
      </trkpt>
      <trkpt lat="41.4036940" lon="2.0874600">
        <ele>197.0</ele>
        <time>2018-04-10T07:45:33Z</time>
      </trkpt>
      <trkpt lat="41.4037390" lon="2.0875110">
        <ele>197.4</ele>
        <time>2018-04-10T07:45:35Z</time>
      </trkpt>
      <trkpt lat="41.4037820" lon="2.0875620">
        <ele>197.8</ele>
        <time>2018-04-10T07:45:37Z</time>
      </trkpt>
      <trkpt lat="41.4038210" lon="2.0876070">
        <ele>198.4</ele>
        <time>2018-04-10T07:45:39Z</time>
      </trkpt>
      <trkpt lat="41.4038570" lon="2.0876550">
        <ele>199.0</ele>
        <time>2018-04-10T07:45:41Z</time>
      </trkpt>
      <trkpt lat="41.4038940" lon="2.0876990">
        <ele>199.6</ele>
        <time>2018-04-10T07:45:43Z</time>
      </trkpt>
      <trkpt lat="41.4039360" lon="2.0877390">
        <ele>200.2</ele>
        <time>2018-04-10T07:45:45Z</time>
      </trkpt>
      <trkpt lat="41.4039800" lon="2.0877590">
        <ele>200.8</ele>
        <time>2018-04-10T07:45:47Z</time>
      </trkpt>
      <trkpt lat="41.4040010" lon="2.0877630">
        <ele>201.4</ele>
        <time>2018-04-10T07:45:48Z</time>
      </trkpt>
      <trkpt lat="41.4040240" lon="2.0877630">
        <ele>201.6</ele>
        <time>2018-04-10T07:45:49Z</time>
      </trkpt>
      <trkpt lat="41.4040710" lon="2.0877460">
        <ele>202.2</ele>
        <time>2018-04-10T07:45:51Z</time>
      </trkpt>
      <trkpt lat="41.4040950" lon="2.0877350">
        <ele>202.4</ele>
        <time>2018-04-10T07:45:52Z</time>
      </trkpt>
      <trkpt lat="41.4041210" lon="2.0877220">
        <ele>202.8</ele>
        <time>2018-04-10T07:45:53Z</time>
      </trkpt>
      <trkpt lat="41.4041700" lon="2.0876920">
        <ele>203.6</ele>
        <time>2018-04-10T07:45:55Z</time>
      </trkpt>
      <trkpt lat="41.4042100" lon="2.0876480">
        <ele>204.4</ele>
        <time>2018-04-10T07:45:57Z</time>
      </trkpt>
      <trkpt lat="41.4042290" lon="2.0876250">
        <ele>204.8</ele>
        <time>2018-04-10T07:45:58Z</time>
      </trkpt>
      <trkpt lat="41.4042480" lon="2.0876020">
        <ele>205.2</ele>
        <time>2018-04-10T07:45:59Z</time>
      </trkpt>
      <trkpt lat="41.4042810" lon="2.0875530">
        <ele>206.0</ele>
        <time>2018-04-10T07:46:01Z</time>
      </trkpt>
      <trkpt lat="41.4043100" lon="2.0875070">
        <ele>206.4</ele>
        <time>2018-04-10T07:46:03Z</time>
      </trkpt>
      <trkpt lat="41.4043190" lon="2.0874840">
        <ele>206.8</ele>
        <time>2018-04-10T07:46:04Z</time>
      </trkpt>
      <trkpt lat="41.4043220" lon="2.0874590">
        <ele>207.2</ele>
        <time>2018-04-10T07:46:05Z</time>
      </trkpt>
      <trkpt lat="41.4043210" lon="2.0874040">
        <ele>207.8</ele>
        <time>2018-04-10T07:46:07Z</time>
      </trkpt>
      <trkpt lat="41.4043190" lon="2.0873730">
        <ele>208.2</ele>
        <time>2018-04-10T07:46:08Z</time>
      </trkpt>
      <trkpt lat="41.4043140" lon="2.0873390">
        <ele>208.6</ele>
        <time>2018-04-10T07:46:09Z</time>
      </trkpt>
      <trkpt lat="41.4042880" lon="2.0872720">
        <ele>209.2</ele>
        <time>2018-04-10T07:46:11Z</time>
      </trkpt>
      <trkpt lat="41.4042730" lon="2.0872390">
        <ele>209.6</ele>
        <time>2018-04-10T07:46:12Z</time>
      </trkpt>
      <trkpt lat="41.4042580" lon="2.0872050">
        <ele>209.8</ele>
        <time>2018-04-10T07:46:13Z</time>
      </trkpt>
      <trkpt lat="41.4042300" lon="2.0871390">
        <ele>210.6</ele>
        <time>2018-04-10T07:46:15Z</time>
      </trkpt>
      <trkpt lat="41.4041980" lon="2.0870770">
        <ele>211.2</ele>
        <time>2018-04-10T07:46:17Z</time>
      </trkpt>
      <trkpt lat="41.4041850" lon="2.0870450">
        <ele>211.8</ele>
        <time>2018-04-10T07:46:18Z</time>
      </trkpt>
      <trkpt lat="41.4041690" lon="2.0870170">
        <ele>212.0</ele>
        <time>2018-04-10T07:46:19Z</time>
      </trkpt>
      <trkpt lat="41.4041310" lon="2.0869660">
        <ele>212.4</ele>
        <time>2018-04-10T07:46:21Z</time>
      </trkpt>
      <trkpt lat="41.4041080" lon="2.0869380">
        <ele>212.6</ele>
        <time>2018-04-10T07:46:22Z</time>
      </trkpt>
      <trkpt lat="41.4040840" lon="2.0869130">
        <ele>213.0</ele>
        <time>2018-04-10T07:46:23Z</time>
      </trkpt>
      <trkpt lat="41.4040420" lon="2.0868590">
        <ele>213.2</ele>
        <time>2018-04-10T07:46:25Z</time>
      </trkpt>
      <trkpt lat="41.4039950" lon="2.0868000">
        <ele>213.8</ele>
        <time>2018-04-10T07:46:27Z</time>
      </trkpt>
      <trkpt lat="41.4039610" lon="2.0867390">
        <ele>214.4</ele>
        <time>2018-04-10T07:46:29Z</time>
      </trkpt>
      <trkpt lat="41.4039570" lon="2.0867070">
        <ele>214.6</ele>
        <time>2018-04-10T07:46:30Z</time>
      </trkpt>
      <trkpt lat="41.4039620" lon="2.0866740">
        <ele>214.8</ele>
        <time>2018-04-10T07:46:31Z</time>
      </trkpt>
      <trkpt lat="41.4039930" lon="2.0866220">
        <ele>215.4</ele>
        <time>2018-04-10T07:46:33Z</time>
      </trkpt>
      <trkpt lat="41.4040280" lon="2.0866120">
        <ele>216.0</ele>
        <time>2018-04-10T07:46:35Z</time>
      </trkpt>
      <trkpt lat="41.4040610" lon="2.0866330">
        <ele>216.6</ele>
        <time>2018-04-10T07:46:37Z</time>
      </trkpt>
      <trkpt lat="41.4041010" lon="2.0866630">
        <ele>217.0</ele>
        <time>2018-04-10T07:46:39Z</time>
      </trkpt>
      <trkpt lat="41.4041410" lon="2.0867000">
        <ele>217.8</ele>
        <time>2018-04-10T07:46:41Z</time>
      </trkpt>
      <trkpt lat="41.4041630" lon="2.0867160">
        <ele>218.0</ele>
        <time>2018-04-10T07:46:42Z</time>
      </trkpt>
      <trkpt lat="41.4041850" lon="2.0867310">
        <ele>218.4</ele>
        <time>2018-04-10T07:46:43Z</time>
      </trkpt>
      <trkpt lat="41.4042270" lon="2.0867610">
        <ele>219.2</ele>
        <time>2018-04-10T07:46:45Z</time>
      </trkpt>
      <trkpt lat="41.4042710" lon="2.0867880">
        <ele>220.2</ele>
        <time>2018-04-10T07:46:47Z</time>
      </trkpt>
      <trkpt lat="41.4042990" lon="2.0868060">
        <ele>220.4</ele>
        <time>2018-04-10T07:46:48Z</time>
      </trkpt>
      <trkpt lat="41.4043230" lon="2.0868230">
        <ele>220.8</ele>
        <time>2018-04-10T07:46:49Z</time>
      </trkpt>
      <trkpt lat="41.4043740" lon="2.0868610">
        <ele>221.4</ele>
        <time>2018-04-10T07:46:51Z</time>
      </trkpt>
      <trkpt lat="41.4043990" lon="2.0868780">
        <ele>221.6</ele>
        <time>2018-04-10T07:46:52Z</time>
      </trkpt>
      <trkpt lat="41.4044240" lon="2.0868980">
        <ele>221.8</ele>
        <time>2018-04-10T07:46:53Z</time>
      </trkpt>
      <trkpt lat="41.4044750" lon="2.0869470">
        <ele>222.2</ele>
        <time>2018-04-10T07:46:55Z</time>
      </trkpt>
      <trkpt lat="41.4045270" lon="2.0869950">
        <ele>222.6</ele>
        <time>2018-04-10T07:46:57Z</time>
      </trkpt>
      <trkpt lat="41.4045780" lon="2.0870420">
        <ele>223.2</ele>
        <time>2018-04-10T07:46:59Z</time>
      </trkpt>
      <trkpt lat="41.4046230" lon="2.0870920">
        <ele>224.0</ele>
        <time>2018-04-10T07:47:01Z</time>
      </trkpt>
      <trkpt lat="41.4046450" lon="2.0871170">
        <ele>224.2</ele>
        <time>2018-04-10T07:47:02Z</time>
      </trkpt>
      <trkpt lat="41.4046670" lon="2.0871410">
        <ele>224.4</ele>
        <time>2018-04-10T07:47:03Z</time>
      </trkpt>
      <trkpt lat="41.4046880" lon="2.0871650">
        <ele>224.8</ele>
        <time>2018-04-10T07:47:04Z</time>
      </trkpt>
      <trkpt lat="41.4047090" lon="2.0871880">
        <ele>225.2</ele>
        <time>2018-04-10T07:47:05Z</time>
      </trkpt>
      <trkpt lat="41.4047500" lon="2.0872400">
        <ele>225.6</ele>
        <time>2018-04-10T07:47:07Z</time>
      </trkpt>
      <trkpt lat="41.4047710" lon="2.0872640">
        <ele>225.8</ele>
        <time>2018-04-10T07:47:08Z</time>
      </trkpt>
      <trkpt lat="41.4047900" lon="2.0872900">
        <ele>226.2</ele>
        <time>2018-04-10T07:47:09Z</time>
      </trkpt>
      <trkpt lat="41.4048250" lon="2.0873440">
        <ele>226.8</ele>
        <time>2018-04-10T07:47:11Z</time>
      </trkpt>
      <trkpt lat="41.4048410" lon="2.0873720">
        <ele>227.0</ele>
        <time>2018-04-10T07:47:12Z</time>
      </trkpt>
      <trkpt lat="41.4048570" lon="2.0874010">
        <ele>227.4</ele>
        <time>2018-04-10T07:47:13Z</time>
      </trkpt>
      <trkpt lat="41.4048890" lon="2.0874620">
        <ele>228.0</ele>
        <time>2018-04-10T07:47:15Z</time>
      </trkpt>
      <trkpt lat="41.4049070" lon="2.0874900">
        <ele>228.6</ele>
        <time>2018-04-10T07:47:16Z</time>
      </trkpt>
      <trkpt lat="41.4049250" lon="2.0875160">
        <ele>229.0</ele>
        <time>2018-04-10T07:47:17Z</time>
      </trkpt>
      <trkpt lat="41.4049620" lon="2.0875670">
        <ele>229.6</ele>
        <time>2018-04-10T07:47:19Z</time>
      </trkpt>
      <trkpt lat="41.4049810" lon="2.0875930">
        <ele>230.0</ele>
        <time>2018-04-10T07:47:20Z</time>
      </trkpt>
      <trkpt lat="41.4050000" lon="2.0876220">
        <ele>230.2</ele>
        <time>2018-04-10T07:47:21Z</time>
      </trkpt>
      <trkpt lat="41.4050410" lon="2.0876770">
        <ele>230.6</ele>
        <time>2018-04-10T07:47:23Z</time>
      </trkpt>
      <trkpt lat="41.4050650" lon="2.0876980">
        <ele>231.0</ele>
        <time>2018-04-10T07:47:24Z</time>
      </trkpt>
      <trkpt lat="41.4050910" lon="2.0877130">
        <ele>231.4</ele>
        <time>2018-04-10T07:47:25Z</time>
      </trkpt>
      <trkpt lat="41.4051420" lon="2.0877380">
        <ele>232.0</ele>
        <time>2018-04-10T07:47:27Z</time>
      </trkpt>
      <trkpt lat="41.4051680" lon="2.0877480">
        <ele>232.4</ele>
        <time>2018-04-10T07:47:28Z</time>
      </trkpt>
      <trkpt lat="41.4051960" lon="2.0877600">
        <ele>232.6</ele>
        <time>2018-04-10T07:47:29Z</time>
      </trkpt>
      <trkpt lat="41.4052530" lon="2.0877900">
        <ele>233.0</ele>
        <time>2018-04-10T07:47:31Z</time>
      </trkpt>
      <trkpt lat="41.4053130" lon="2.0878100">
        <ele>233.6</ele>
        <time>2018-04-10T07:47:33Z</time>
      </trkpt>
      <trkpt lat="41.4053720" lon="2.0878190">
        <ele>234.2</ele>
        <time>2018-04-10T07:47:35Z</time>
      </trkpt>
      <trkpt lat="41.4054310" lon="2.0878110">
        <ele>234.8</ele>
        <time>2018-04-10T07:47:37Z</time>
      </trkpt>
      <trkpt lat="41.4054930" lon="2.0877970">
        <ele>235.2</ele>
        <time>2018-04-10T07:47:39Z</time>
      </trkpt>
      <trkpt lat="41.4055500" lon="2.0877640">
        <ele>236.0</ele>
        <time>2018-04-10T07:47:41Z</time>
      </trkpt>
      <trkpt lat="41.4056030" lon="2.0877380">
        <ele>236.8</ele>
        <time>2018-04-10T07:47:43Z</time>
      </trkpt>
      <trkpt lat="41.4056260" lon="2.0877330">
        <ele>237.0</ele>
        <time>2018-04-10T07:47:44Z</time>
      </trkpt>
      <trkpt lat="41.4056500" lon="2.0877320">
        <ele>237.8</ele>
        <time>2018-04-10T07:47:45Z</time>
      </trkpt>
      <trkpt lat="41.4056730" lon="2.0877320">
        <ele>238.2</ele>
        <time>2018-04-10T07:47:46Z</time>
      </trkpt>
      <trkpt lat="41.4056920" lon="2.0877280">
        <ele>238.4</ele>
        <time>2018-04-10T07:47:47Z</time>
      </trkpt>
      <trkpt lat="41.4057310" lon="2.0877180">
        <ele>239.0</ele>
        <time>2018-04-10T07:47:49Z</time>
      </trkpt>
      <trkpt lat="41.4057510" lon="2.0877100">
        <ele>239.4</ele>
        <time>2018-04-10T07:47:50Z</time>
      </trkpt>
      <trkpt lat="41.4057710" lon="2.0877030">
        <ele>239.6</ele>
        <time>2018-04-10T07:47:51Z</time>
      </trkpt>
      <trkpt lat="41.4058040" lon="2.0876900">
        <ele>240.2</ele>
        <time>2018-04-10T07:47:53Z</time>
      </trkpt>
      <trkpt lat="41.4058250" lon="2.0876800">
        <ele>240.6</ele>
        <time>2018-04-10T07:47:54Z</time>
      </trkpt>
      <trkpt lat="41.4058470" lon="2.0876690">
        <ele>240.8</ele>
        <time>2018-04-10T07:47:55Z</time>
      </trkpt>
      <trkpt lat="41.4058620" lon="2.0876510">
        <ele>241.2</ele>
        <time>2018-04-10T07:47:56Z</time>
      </trkpt>
      <trkpt lat="41.4058740" lon="2.0876250">
        <ele>241.6</ele>
        <time>2018-04-10T07:47:57Z</time>
      </trkpt>
      <trkpt lat="41.4058840" lon="2.0875920">
        <ele>241.8</ele>
        <time>2018-04-10T07:47:58Z</time>
      </trkpt>
      <trkpt lat="41.4058890" lon="2.0875650">
        <ele>242.2</ele>
        <time>2018-04-10T07:47:59Z</time>
      </trkpt>
      <trkpt lat="41.4058790" lon="2.0875220">
        <ele>242.8</ele>
        <time>2018-04-10T07:48:01Z</time>
      </trkpt>
      <trkpt lat="41.4058630" lon="2.0875040">
        <ele>243.2</ele>
        <time>2018-04-10T07:48:02Z</time>
      </trkpt>
      <trkpt lat="41.4058460" lon="2.0874890">
        <ele>243.6</ele>
        <time>2018-04-10T07:48:03Z</time>
      </trkpt>
      <trkpt lat="41.4057940" lon="2.0874890">
        <ele>244.4</ele>
        <time>2018-04-10T07:48:05Z</time>
      </trkpt>
      <trkpt lat="41.4057660" lon="2.0874970">
        <ele>244.8</ele>
        <time>2018-04-10T07:48:06Z</time>
      </trkpt>
      <trkpt lat="41.4057320" lon="2.0875020">
        <ele>245.2</ele>
        <time>2018-04-10T07:48:07Z</time>
      </trkpt>
      <trkpt lat="41.4057000" lon="2.0875020">
        <ele>245.6</ele>
        <time>2018-04-10T07:48:08Z</time>
      </trkpt>
      <trkpt lat="41.4056680" lon="2.0874980">
        <ele>245.8</ele>
        <time>2018-04-10T07:48:09Z</time>
      </trkpt>
      <trkpt lat="41.4056060" lon="2.0874940">
        <ele>246.4</ele>
        <time>2018-04-10T07:48:11Z</time>
      </trkpt>
      <trkpt lat="41.4055740" lon="2.0874920">
        <ele>246.6</ele>
        <time>2018-04-10T07:48:12Z</time>
      </trkpt>
      <trkpt lat="41.4055400" lon="2.0874850">
        <ele>247.0</ele>
        <time>2018-04-10T07:48:13Z</time>
      </trkpt>
      <trkpt lat="41.4054820" lon="2.0874550">
        <ele>247.8</ele>
        <time>2018-04-10T07:48:15Z</time>
      </trkpt>
      <trkpt lat="41.4054340" lon="2.0874030">
        <ele>248.0</ele>
        <time>2018-04-10T07:48:17Z</time>
      </trkpt>
      <trkpt lat="41.4054030" lon="2.0873270">
        <ele>248.4</ele>
        <time>2018-04-10T07:48:19Z</time>
      </trkpt>
      <trkpt lat="41.4053860" lon="2.0872450">
        <ele>248.6</ele>
        <time>2018-04-10T07:48:21Z</time>
      </trkpt>
      <trkpt lat="41.4053830" lon="2.0872080">
        <ele>248.8</ele>
        <time>2018-04-10T07:48:22Z</time>
      </trkpt>
      <trkpt lat="41.4053780" lon="2.0871710">
        <ele>249.0</ele>
        <time>2018-04-10T07:48:23Z</time>
      </trkpt>
      <trkpt lat="41.4053700" lon="2.0870920">
        <ele>249.4</ele>
        <time>2018-04-10T07:48:25Z</time>
      </trkpt>
      <trkpt lat="41.4053670" lon="2.0870110">
        <ele>249.8</ele>
        <time>2018-04-10T07:48:27Z</time>
      </trkpt>
      <trkpt lat="41.4053620" lon="2.0869360">
        <ele>250.2</ele>
        <time>2018-04-10T07:48:29Z</time>
      </trkpt>
      <trkpt lat="41.4053550" lon="2.0868530">
        <ele>250.6</ele>
        <time>2018-04-10T07:48:31Z</time>
      </trkpt>
      <trkpt lat="41.4053480" lon="2.0868120">
        <ele>251.0</ele>
        <time>2018-04-10T07:48:32Z</time>
      </trkpt>
      <trkpt lat="41.4053390" lon="2.0867710">
        <ele>251.4</ele>
        <time>2018-04-10T07:48:33Z</time>
      </trkpt>
      <trkpt lat="41.4053190" lon="2.0866960">
        <ele>252.0</ele>
        <time>2018-04-10T07:48:35Z</time>
      </trkpt>
      <trkpt lat="41.4053090" lon="2.0866580">
        <ele>252.4</ele>
        <time>2018-04-10T07:48:36Z</time>
      </trkpt>
      <trkpt lat="41.4053010" lon="2.0866190">
        <ele>252.6</ele>
        <time>2018-04-10T07:48:37Z</time>
      </trkpt>
      <trkpt lat="41.4052900" lon="2.0865390">
        <ele>253.2</ele>
        <time>2018-04-10T07:48:39Z</time>
      </trkpt>
      <trkpt lat="41.4052850" lon="2.0864970">
        <ele>253.6</ele>
        <time>2018-04-10T07:48:40Z</time>
      </trkpt>
      <trkpt lat="41.4052810" lon="2.0864580">
        <ele>254.0</ele>
        <time>2018-04-10T07:48:41Z</time>
      </trkpt>
      <trkpt lat="41.4052800" lon="2.0863830">
        <ele>254.6</ele>
        <time>2018-04-10T07:48:43Z</time>
      </trkpt>
      <trkpt lat="41.4052790" lon="2.0863430">
        <ele>255.4</ele>
        <time>2018-04-10T07:48:44Z</time>
      </trkpt>
      <trkpt lat="41.4052840" lon="2.0863070">
        <ele>255.6</ele>
        <time>2018-04-10T07:48:45Z</time>
      </trkpt>
      <trkpt lat="41.4053010" lon="2.0862350">
        <ele>256.0</ele>
        <time>2018-04-10T07:48:47Z</time>
      </trkpt>
      <trkpt lat="41.4053260" lon="2.0861650">
        <ele>256.6</ele>
        <time>2018-04-10T07:48:49Z</time>
      </trkpt>
      <trkpt lat="41.4053590" lon="2.0860930">
        <ele>257.2</ele>
        <time>2018-04-10T07:48:51Z</time>
      </trkpt>
      <trkpt lat="41.4053860" lon="2.0860230">
        <ele>257.6</ele>
        <time>2018-04-10T07:48:53Z</time>
      </trkpt>
      <trkpt lat="41.4053990" lon="2.0859950">
        <ele>258.0</ele>
        <time>2018-04-10T07:48:54Z</time>
      </trkpt>
      <trkpt lat="41.4054130" lon="2.0859700">
        <ele>258.2</ele>
        <time>2018-04-10T07:48:55Z</time>
      </trkpt>
      <trkpt lat="41.4054520" lon="2.0859270">
        <ele>258.8</ele>
        <time>2018-04-10T07:48:57Z</time>
      </trkpt>
      <trkpt lat="41.4054700" lon="2.0858990">
        <ele>259.0</ele>
        <time>2018-04-10T07:48:58Z</time>
      </trkpt>
      <trkpt lat="41.4054890" lon="2.0858760">
        <ele>259.4</ele>
        <time>2018-04-10T07:48:59Z</time>
      </trkpt>
      <trkpt lat="41.4055280" lon="2.0858320">
        <ele>260.0</ele>
        <time>2018-04-10T07:49:01Z</time>
      </trkpt>
      <trkpt lat="41.4055500" lon="2.0858140">
        <ele>260.4</ele>
        <time>2018-04-10T07:49:02Z</time>
      </trkpt>
      <trkpt lat="41.4055740" lon="2.0858000">
        <ele>260.6</ele>
        <time>2018-04-10T07:49:03Z</time>
      </trkpt>
      <trkpt lat="41.4056190" lon="2.0857680">
        <ele>261.0</ele>
        <time>2018-04-10T07:49:05Z</time>
      </trkpt>
      <trkpt lat="41.4056420" lon="2.0857530">
        <ele>261.4</ele>
        <time>2018-04-10T07:49:06Z</time>
      </trkpt>
      <trkpt lat="41.4056600" lon="2.0857400">
        <ele>261.8</ele>
        <time>2018-04-10T07:49:07Z</time>
      </trkpt>
      <trkpt lat="41.4056990" lon="2.0857140">
        <ele>262.4</ele>
        <time>2018-04-10T07:49:09Z</time>
      </trkpt>
      <trkpt lat="41.4057200" lon="2.0857070">
        <ele>262.8</ele>
        <time>2018-04-10T07:49:10Z</time>
      </trkpt>
      <trkpt lat="41.4057410" lon="2.0857020">
        <ele>263.2</ele>
        <time>2018-04-10T07:49:11Z</time>
      </trkpt>
      <trkpt lat="41.4057800" lon="2.0856690">
        <ele>264.0</ele>
        <time>2018-04-10T07:49:13Z</time>
      </trkpt>
      <trkpt lat="41.4058210" lon="2.0856340">
        <ele>264.8</ele>
        <time>2018-04-10T07:49:15Z</time>
      </trkpt>
      <trkpt lat="41.4058410" lon="2.0856150">
        <ele>265.2</ele>
        <time>2018-04-10T07:49:16Z</time>
      </trkpt>
      <trkpt lat="41.4058600" lon="2.0855980">
        <ele>265.4</ele>
        <time>2018-04-10T07:49:17Z</time>
      </trkpt>
      <trkpt lat="41.4059070" lon="2.0855750">
        <ele>266.2</ele>
        <time>2018-04-10T07:49:19Z</time>
      </trkpt>
      <trkpt lat="41.4059450" lon="2.0855790">
        <ele>267.0</ele>
        <time>2018-04-10T07:49:21Z</time>
      </trkpt>
      <trkpt lat="41.4059570" lon="2.0855940">
        <ele>267.2</ele>
        <time>2018-04-10T07:49:22Z</time>
      </trkpt>
      <trkpt lat="41.4059610" lon="2.0856120">
        <ele>267.6</ele>
        <time>2018-04-10T07:49:23Z</time>
      </trkpt>
      <trkpt lat="41.4059470" lon="2.0856620">
        <ele>268.6</ele>
        <time>2018-04-10T07:49:25Z</time>
      </trkpt>
      <trkpt lat="41.4059210" lon="2.0857090">
        <ele>269.4</ele>
        <time>2018-04-10T07:49:27Z</time>
      </trkpt>
      <trkpt lat="41.4059090" lon="2.0857300">
        <ele>270.0</ele>
        <time>2018-04-10T07:49:28Z</time>
      </trkpt>
      <trkpt lat="41.4058970" lon="2.0857510">
        <ele>270.4</ele>
        <time>2018-04-10T07:49:29Z</time>
      </trkpt>
      <trkpt lat="41.4058780" lon="2.0857980">
        <ele>271.4</ele>
        <time>2018-04-10T07:49:31Z</time>
      </trkpt>
      <trkpt lat="41.4058620" lon="2.0858390">
        <ele>272.4</ele>
        <time>2018-04-10T07:49:33Z</time>
      </trkpt>
      <trkpt lat="41.4058450" lon="2.0858900">
        <ele>273.4</ele>
        <time>2018-04-10T07:49:35Z</time>
      </trkpt>
      <trkpt lat="41.4058380" lon="2.0859190">
        <ele>273.8</ele>
        <time>2018-04-10T07:49:36Z</time>
      </trkpt>
      <trkpt lat="41.4058310" lon="2.0859480">
        <ele>274.0</ele>
        <time>2018-04-10T07:49:37Z</time>
      </trkpt>
      <trkpt lat="41.4058180" lon="2.0860040">
        <ele>274.8</ele>
        <time>2018-04-10T07:49:39Z</time>
      </trkpt>
      <trkpt lat="41.4058220" lon="2.0860660">
        <ele>275.4</ele>
        <time>2018-04-10T07:49:41Z</time>
      </trkpt>
      <trkpt lat="41.4058270" lon="2.0860980">
        <ele>275.8</ele>
        <time>2018-04-10T07:49:42Z</time>
      </trkpt>
      <trkpt lat="41.4058320" lon="2.0861310">
        <ele>276.4</ele>
        <time>2018-04-10T07:49:43Z</time>
      </trkpt>
      <trkpt lat="41.4058550" lon="2.0862000">
        <ele>277.0</ele>
        <time>2018-04-10T07:49:45Z</time>
      </trkpt>
      <trkpt lat="41.4058870" lon="2.0862660">
        <ele>277.6</ele>
        <time>2018-04-10T07:49:47Z</time>
      </trkpt>
      <trkpt lat="41.4059250" lon="2.0863170">
        <ele>278.4</ele>
        <time>2018-04-10T07:49:49Z</time>
      </trkpt>
      <trkpt lat="41.4059600" lon="2.0863670">
        <ele>279.0</ele>
        <time>2018-04-10T07:49:51Z</time>
      </trkpt>
      <trkpt lat="41.4059980" lon="2.0864100">
        <ele>279.6</ele>
        <time>2018-04-10T07:49:53Z</time>
      </trkpt>
      <trkpt lat="41.4060480" lon="2.0864450">
        <ele>280.2</ele>
        <time>2018-04-10T07:49:55Z</time>
      </trkpt>
      <trkpt lat="41.4060980" lon="2.0864790">
        <ele>281.0</ele>
        <time>2018-04-10T07:49:57Z</time>
      </trkpt>
      <trkpt lat="41.4061500" lon="2.0865070">
        <ele>281.6</ele>
        <time>2018-04-10T07:49:59Z</time>
      </trkpt>
      <trkpt lat="41.4062060" lon="2.0865320">
        <ele>282.2</ele>
        <time>2018-04-10T07:50:01Z</time>
      </trkpt>
      <trkpt lat="41.4062620" lon="2.0865560">
        <ele>282.8</ele>
        <time>2018-04-10T07:50:03Z</time>
      </trkpt>
      <trkpt lat="41.4063210" lon="2.0865780">
        <ele>283.4</ele>
        <time>2018-04-10T07:50:05Z</time>
      </trkpt>
      <trkpt lat="41.4063850" lon="2.0865840">
        <ele>283.8</ele>
        <time>2018-04-10T07:50:07Z</time>
      </trkpt>
      <trkpt lat="41.4064490" lon="2.0865790">
        <ele>284.6</ele>
        <time>2018-04-10T07:50:09Z</time>
      </trkpt>
      <trkpt lat="41.4065110" lon="2.0865750">
        <ele>285.0</ele>
        <time>2018-04-10T07:50:11Z</time>
      </trkpt>
      <trkpt lat="41.4065600" lon="2.0865690">
        <ele>285.6</ele>
        <time>2018-04-10T07:50:13Z</time>
      </trkpt>
      <trkpt lat="41.4066100" lon="2.0865620">
        <ele>286.0</ele>
        <time>2018-04-10T07:50:15Z</time>
      </trkpt>
      <trkpt lat="41.4066520" lon="2.0865580">
        <ele>286.6</ele>
        <time>2018-04-10T07:50:17Z</time>
      </trkpt>
      <trkpt lat="41.4066710" lon="2.0865550">
        <ele>286.8</ele>
        <time>2018-04-10T07:50:18Z</time>
      </trkpt>
      <trkpt lat="41.4066860" lon="2.0865540">
        <ele>287.0</ele>
        <time>2018-04-10T07:50:19Z</time>
      </trkpt>
      <trkpt lat="41.4067240" lon="2.0865500">
        <ele>287.2</ele>
        <time>2018-04-10T07:50:21Z</time>
      </trkpt>
      <trkpt lat="41.4067620" lon="2.0865450">
        <ele>287.8</ele>
        <time>2018-04-10T07:50:23Z</time>
      </trkpt>
      <trkpt lat="41.4067930" lon="2.0865340">
        <ele>288.4</ele>
        <time>2018-04-10T07:50:25Z</time>
      </trkpt>
      <trkpt lat="41.4068260" lon="2.0865240">
        <ele>289.0</ele>
        <time>2018-04-10T07:50:27Z</time>
      </trkpt>
      <trkpt lat="41.4068690" lon="2.0865240">
        <ele>289.4</ele>
        <time>2018-04-10T07:50:29Z</time>
      </trkpt>
      <trkpt lat="41.4069100" lon="2.0865230">
        <ele>290.2</ele>
        <time>2018-04-10T07:50:31Z</time>
      </trkpt>
      <trkpt lat="41.4069660" lon="2.0865200">
        <ele>291.0</ele>
        <time>2018-04-10T07:50:33Z</time>
      </trkpt>
      <trkpt lat="41.4070210" lon="2.0865100">
        <ele>291.4</ele>
        <time>2018-04-10T07:50:35Z</time>
      </trkpt>
      <trkpt lat="41.4070650" lon="2.0865060">
        <ele>292.0</ele>
        <time>2018-04-10T07:50:37Z</time>
      </trkpt>
      <trkpt lat="41.4071170" lon="2.0865050">
        <ele>292.6</ele>
        <time>2018-04-10T07:50:39Z</time>
      </trkpt>
      <trkpt lat="41.4071730" lon="2.0865110">
        <ele>293.6</ele>
        <time>2018-04-10T07:50:41Z</time>
      </trkpt>
      <trkpt lat="41.4071970" lon="2.0865100">
        <ele>293.8</ele>
        <time>2018-04-10T07:50:42Z</time>
      </trkpt>
      <trkpt lat="41.4072220" lon="2.0865090">
        <ele>294.0</ele>
        <time>2018-04-10T07:50:43Z</time>
      </trkpt>
      <trkpt lat="41.4072720" lon="2.0865080">
        <ele>294.6</ele>
        <time>2018-04-10T07:50:45Z</time>
      </trkpt>
      <trkpt lat="41.4072940" lon="2.0865090">
        <ele>295.0</ele>
        <time>2018-04-10T07:50:46Z</time>
      </trkpt>
      <trkpt lat="41.4073190" lon="2.0865110">
        <ele>295.2</ele>
        <time>2018-04-10T07:50:47Z</time>
      </trkpt>
      <trkpt lat="41.4073700" lon="2.0865230">
        <ele>295.8</ele>
        <time>2018-04-10T07:50:49Z</time>
      </trkpt>
      <trkpt lat="41.4073890" lon="2.0865300">
        <ele>295.8</ele>
        <time>2018-04-10T07:50:50Z</time>
      </trkpt>
      <trkpt lat="41.4074150" lon="2.0865390">
        <ele>296.2</ele>
        <time>2018-04-10T07:50:51Z</time>
      </trkpt>
      <trkpt lat="41.4074670" lon="2.0865540">
        <ele>296.6</ele>
        <time>2018-04-10T07:50:53Z</time>
      </trkpt>
      <trkpt lat="41.4074910" lon="2.0865600">
        <ele>297.0</ele>
        <time>2018-04-10T07:50:54Z</time>
      </trkpt>
      <trkpt lat="41.4075160" lon="2.0865640">
        <ele>297.6</ele>
        <time>2018-04-10T07:50:55Z</time>
      </trkpt>
      <trkpt lat="41.4075710" lon="2.0865750">
        <ele>298.0</ele>
        <time>2018-04-10T07:50:57Z</time>
      </trkpt>
      <trkpt lat="41.4076280" lon="2.0865880">
        <ele>298.8</ele>
        <time>2018-04-10T07:50:59Z</time>
      </trkpt>
      <trkpt lat="41.4076510" lon="2.0865930">
        <ele>299.2</ele>
        <time>2018-04-10T07:51:00Z</time>
      </trkpt>
      <trkpt lat="41.4076790" lon="2.0865920">
        <ele>299.6</ele>
        <time>2018-04-10T07:51:01Z</time>
      </trkpt>
      <trkpt lat="41.4077490" lon="2.0865820">
        <ele>300.2</ele>
        <time>2018-04-10T07:51:03Z</time>
      </trkpt>
      <trkpt lat="41.4077830" lon="2.0865810">
        <ele>300.6</ele>
        <time>2018-04-10T07:51:04Z</time>
      </trkpt>
      <trkpt lat="41.4078170" lon="2.0865830">
        <ele>301.0</ele>
        <time>2018-04-10T07:51:05Z</time>
      </trkpt>
      <trkpt lat="41.4078820" lon="2.0865920">
        <ele>301.6</ele>
        <time>2018-04-10T07:51:07Z</time>
      </trkpt>
      <trkpt lat="41.4079100" lon="2.0865940">
        <ele>301.8</ele>
        <time>2018-04-10T07:51:08Z</time>
      </trkpt>
      <trkpt lat="41.4079370" lon="2.0865960">
        <ele>302.2</ele>
        <time>2018-04-10T07:51:09Z</time>
      </trkpt>
      <trkpt lat="41.4079930" lon="2.0866030">
        <ele>303.0</ele>
        <time>2018-04-10T07:51:11Z</time>
      </trkpt>
      <trkpt lat="41.4080580" lon="2.0866200">
        <ele>303.6</ele>
        <time>2018-04-10T07:51:13Z</time>
      </trkpt>
      <trkpt lat="41.4081180" lon="2.0866610">
        <ele>304.0</ele>
        <time>2018-04-10T07:51:15Z</time>
      </trkpt>
      <trkpt lat="41.4081370" lon="2.0866890">
        <ele>304.4</ele>
        <time>2018-04-10T07:51:16Z</time>
      </trkpt>
      <trkpt lat="41.4081450" lon="2.0867230">
        <ele>304.8</ele>
        <time>2018-04-10T07:51:17Z</time>
      </trkpt>
      <trkpt lat="41.4081390" lon="2.0868020">
        <ele>305.4</ele>
        <time>2018-04-10T07:51:19Z</time>
      </trkpt>
      <trkpt lat="41.4081190" lon="2.0868840">
        <ele>306.0</ele>
        <time>2018-04-10T07:51:21Z</time>
      </trkpt>
      <trkpt lat="41.4080890" lon="2.0869650">
        <ele>306.6</ele>
        <time>2018-04-10T07:51:23Z</time>
      </trkpt>
      <trkpt lat="41.4080530" lon="2.0870470">
        <ele>307.2</ele>
        <time>2018-04-10T07:51:25Z</time>
      </trkpt>
      <trkpt lat="41.4080160" lon="2.0871240">
        <ele>307.8</ele>
        <time>2018-04-10T07:51:27Z</time>
      </trkpt>
      <trkpt lat="41.4079800" lon="2.0871960">
        <ele>308.4</ele>
        <time>2018-04-10T07:51:29Z</time>
      </trkpt>
      <trkpt lat="41.4079400" lon="2.0872630">
        <ele>309.0</ele>
        <time>2018-04-10T07:51:31Z</time>
      </trkpt>
      <trkpt lat="41.4079030" lon="2.0873300">
        <ele>308.8</ele>
        <time>2018-04-10T07:51:33Z</time>
      </trkpt>
      <trkpt lat="41.4078660" lon="2.0873980">
        <ele>309.2</ele>
        <time>2018-04-10T07:51:35Z</time>
      </trkpt>
      <trkpt lat="41.4078370" lon="2.0874650">
        <ele>309.6</ele>
        <time>2018-04-10T07:51:37Z</time>
      </trkpt>
      <trkpt lat="41.4078240" lon="2.0874980">
        <ele>309.8</ele>
        <time>2018-04-10T07:51:38Z</time>
      </trkpt>
      <trkpt lat="41.4078150" lon="2.0875320">
        <ele>310.0</ele>
        <time>2018-04-10T07:51:39Z</time>
      </trkpt>
      <trkpt lat="41.4078200" lon="2.0876070">
        <ele>310.4</ele>
        <time>2018-04-10T07:51:41Z</time>
      </trkpt>
      <trkpt lat="41.4078460" lon="2.0876770">
        <ele>310.8</ele>
        <time>2018-04-10T07:51:43Z</time>
      </trkpt>
      <trkpt lat="41.4078780" lon="2.0877410">
        <ele>311.4</ele>
        <time>2018-04-10T07:51:45Z</time>
      </trkpt>
      <trkpt lat="41.4079140" lon="2.0877970">
        <ele>311.8</ele>
        <time>2018-04-10T07:51:47Z</time>
      </trkpt>
      <trkpt lat="41.4079330" lon="2.0878260">
        <ele>312.2</ele>
        <time>2018-04-10T07:51:48Z</time>
      </trkpt>
      <trkpt lat="41.4079500" lon="2.0878540">
        <ele>312.4</ele>
        <time>2018-04-10T07:51:49Z</time>
      </trkpt>
      <trkpt lat="41.4079820" lon="2.0879150">
        <ele>313.2</ele>
        <time>2018-04-10T07:51:51Z</time>
      </trkpt>
      <trkpt lat="41.4079960" lon="2.0879470">
        <ele>313.6</ele>
        <time>2018-04-10T07:51:52Z</time>
      </trkpt>
      <trkpt lat="41.4080090" lon="2.0879780">
        <ele>314.0</ele>
        <time>2018-04-10T07:51:53Z</time>
      </trkpt>
      <trkpt lat="41.4080290" lon="2.0880320">
        <ele>314.8</ele>
        <time>2018-04-10T07:51:55Z</time>
      </trkpt>
      <trkpt lat="41.4080450" lon="2.0880940">
        <ele>315.4</ele>
        <time>2018-04-10T07:51:57Z</time>
      </trkpt>
      <trkpt lat="41.4080550" lon="2.0881570">
        <ele>316.0</ele>
        <time>2018-04-10T07:51:59Z</time>
      </trkpt>
      <trkpt lat="41.4080550" lon="2.0882180">
        <ele>316.4</ele>
        <time>2018-04-10T07:52:01Z</time>
      </trkpt>
      <trkpt lat="41.4080550" lon="2.0882830">
        <ele>317.0</ele>
        <time>2018-04-10T07:52:03Z</time>
      </trkpt>
      <trkpt lat="41.4080610" lon="2.0883510">
        <ele>317.6</ele>
        <time>2018-04-10T07:52:05Z</time>
      </trkpt>
      <trkpt lat="41.4080750" lon="2.0884230">
        <ele>318.2</ele>
        <time>2018-04-10T07:52:07Z</time>
      </trkpt>
      <trkpt lat="41.4080850" lon="2.0884950">
        <ele>318.8</ele>
        <time>2018-04-10T07:52:09Z</time>
      </trkpt>
      <trkpt lat="41.4080900" lon="2.0885700">
        <ele>319.4</ele>
        <time>2018-04-10T07:52:11Z</time>
      </trkpt>
      <trkpt lat="41.4080960" lon="2.0886510">
        <ele>319.8</ele>
        <time>2018-04-10T07:52:13Z</time>
      </trkpt>
      <trkpt lat="41.4081140" lon="2.0887300">
        <ele>320.6</ele>
        <time>2018-04-10T07:52:15Z</time>
      </trkpt>
      <trkpt lat="41.4081370" lon="2.0888060">
        <ele>321.4</ele>
        <time>2018-04-10T07:52:17Z</time>
      </trkpt>
      <trkpt lat="41.4081430" lon="2.0888470">
        <ele>321.8</ele>
        <time>2018-04-10T07:52:18Z</time>
      </trkpt>
      <trkpt lat="41.4081420" lon="2.0888920">
        <ele>322.2</ele>
        <time>2018-04-10T07:52:19Z</time>
      </trkpt>
      <trkpt lat="41.4081260" lon="2.0890060">
        <ele>323.2</ele>
        <time>2018-04-10T07:52:21Z</time>
      </trkpt>
      <trkpt lat="41.4081020" lon="2.0891250">
        <ele>324.0</ele>
        <time>2018-04-10T07:52:23Z</time>
      </trkpt>
      <trkpt lat="41.4080880" lon="2.0891900">
        <ele>324.2</ele>
        <time>2018-04-10T07:52:24Z</time>
      </trkpt>
      <trkpt lat="41.4080760" lon="2.0892590">
        <ele>324.4</ele>
        <time>2018-04-10T07:52:25Z</time>
      </trkpt>
      <trkpt lat="41.4080500" lon="2.0894130">
        <ele>324.4</ele>
        <time>2018-04-10T07:52:27Z</time>
      </trkpt>
      <trkpt lat="41.4080150" lon="2.0895800">
        <ele>324.4</ele>
        <time>2018-04-10T07:52:29Z</time>
      </trkpt>
      <trkpt lat="41.4079900" lon="2.0897610">
        <ele>324.4</ele>
        <time>2018-04-10T07:52:31Z</time>
      </trkpt>
      <trkpt lat="41.4079980" lon="2.0899510">
        <ele>324.4</ele>
        <time>2018-04-10T07:52:33Z</time>
      </trkpt>
      <trkpt lat="41.4080480" lon="2.0901370">
        <ele>324.2</ele>
        <time>2018-04-10T07:52:35Z</time>
      </trkpt>
      <trkpt lat="41.4080810" lon="2.0902270">
        <ele>324.0</ele>
        <time>2018-04-10T07:52:36Z</time>
      </trkpt>
      <trkpt lat="41.4081150" lon="2.0903180">
        <ele>323.8</ele>
        <time>2018-04-10T07:52:37Z</time>
      </trkpt>
      <trkpt lat="41.4081860" lon="2.0905030">
        <ele>323.4</ele>
        <time>2018-04-10T07:52:39Z</time>
      </trkpt>
      <trkpt lat="41.4082490" lon="2.0906900">
        <ele>323.2</ele>
        <time>2018-04-10T07:52:41Z</time>
      </trkpt>
      <trkpt lat="41.4082740" lon="2.0908930">
        <ele>323.0</ele>
        <time>2018-04-10T07:52:43Z</time>
      </trkpt>
      <trkpt lat="41.4082440" lon="2.0910970">
        <ele>322.6</ele>
        <time>2018-04-10T07:52:45Z</time>
      </trkpt>
      <trkpt lat="41.4081820" lon="2.0912760">
        <ele>322.4</ele>
        <time>2018-04-10T07:52:47Z</time>
      </trkpt>
      <trkpt lat="41.4081200" lon="2.0914410">
        <ele>322.4</ele>
        <time>2018-04-10T07:52:49Z</time>
      </trkpt>
      <trkpt lat="41.4080710" lon="2.0915950">
        <ele>322.4</ele>
        <time>2018-04-10T07:52:51Z</time>
      </trkpt>
      <trkpt lat="41.4080480" lon="2.0917520">
        <ele>322.2</ele>
        <time>2018-04-10T07:52:53Z</time>
      </trkpt>
      <trkpt lat="41.4080520" lon="2.0919060">
        <ele>322.2</ele>
        <time>2018-04-10T07:52:55Z</time>
      </trkpt>
      <trkpt lat="41.4080520" lon="2.0920560">
        <ele>322.2</ele>
        <time>2018-04-10T07:52:57Z</time>
      </trkpt>
      <trkpt lat="41.4080560" lon="2.0922110">
        <ele>322.6</ele>
        <time>2018-04-10T07:52:59Z</time>
      </trkpt>
      <trkpt lat="41.4080640" lon="2.0923670">
        <ele>323.4</ele>
        <time>2018-04-10T07:53:01Z</time>
      </trkpt>
      <trkpt lat="41.4080640" lon="2.0924450">
        <ele>323.8</ele>
        <time>2018-04-10T07:53:02Z</time>
      </trkpt>
      <trkpt lat="41.4080570" lon="2.0925220">
        <ele>324.0</ele>
        <time>2018-04-10T07:53:03Z</time>
      </trkpt>
      <trkpt lat="41.4080230" lon="2.0926700">
        <ele>324.2</ele>
        <time>2018-04-10T07:53:05Z</time>
      </trkpt>
      <trkpt lat="41.4079660" lon="2.0928030">
        <ele>324.4</ele>
        <time>2018-04-10T07:53:07Z</time>
      </trkpt>
      <trkpt lat="41.4079330" lon="2.0928660">
        <ele>324.4</ele>
        <time>2018-04-10T07:53:08Z</time>
      </trkpt>
      <trkpt lat="41.4078970" lon="2.0929280">
        <ele>324.4</ele>
        <time>2018-04-10T07:53:09Z</time>
      </trkpt>
      <trkpt lat="41.4078210" lon="2.0930490">
        <ele>324.6</ele>
        <time>2018-04-10T07:53:11Z</time>
      </trkpt>
      <trkpt lat="41.4077830" lon="2.0931110">
        <ele>324.6</ele>
        <time>2018-04-10T07:53:12Z</time>
      </trkpt>
      <trkpt lat="41.4077390" lon="2.0931670">
        <ele>324.6</ele>
        <time>2018-04-10T07:53:13Z</time>
      </trkpt>
      <trkpt lat="41.4076370" lon="2.0932600">
        <ele>324.8</ele>
        <time>2018-04-10T07:53:15Z</time>
      </trkpt>
      <trkpt lat="41.4075160" lon="2.0933100">
        <ele>324.8</ele>
        <time>2018-04-10T07:53:17Z</time>
      </trkpt>
      <trkpt lat="41.4073940" lon="2.0932890">
        <ele>325.0</ele>
        <time>2018-04-10T07:53:19Z</time>
      </trkpt>
      <trkpt lat="41.4073370" lon="2.0932630">
        <ele>325.2</ele>
        <time>2018-04-10T07:53:20Z</time>
      </trkpt>
      <trkpt lat="41.4072820" lon="2.0932310">
        <ele>325.2</ele>
        <time>2018-04-10T07:53:21Z</time>
      </trkpt>
      <trkpt lat="41.4071800" lon="2.0931510">
        <ele>325.2</ele>
        <time>2018-04-10T07:53:23Z</time>
      </trkpt>
      <trkpt lat="41.4070870" lon="2.0930600">
        <ele>325.2</ele>
        <time>2018-04-10T07:53:25Z</time>
      </trkpt>
      <trkpt lat="41.4069910" lon="2.0929850">
        <ele>325.4</ele>
        <time>2018-04-10T07:53:27Z</time>
      </trkpt>
      <trkpt lat="41.4068960" lon="2.0929520">
        <ele>325.4</ele>
        <time>2018-04-10T07:53:29Z</time>
      </trkpt>
      <trkpt lat="41.4068070" lon="2.0929640">
        <ele>325.6</ele>
        <time>2018-04-10T07:53:31Z</time>
      </trkpt>
      <trkpt lat="41.4067330" lon="2.0930240">
        <ele>325.8</ele>
        <time>2018-04-10T07:53:33Z</time>
      </trkpt>
      <trkpt lat="41.4067030" lon="2.0931330">
        <ele>326.0</ele>
        <time>2018-04-10T07:53:35Z</time>
      </trkpt>
      <trkpt lat="41.4067020" lon="2.0932640">
        <ele>326.4</ele>
        <time>2018-04-10T07:53:37Z</time>
      </trkpt>
      <trkpt lat="41.4067440" lon="2.0933810">
        <ele>326.6</ele>
        <time>2018-04-10T07:53:39Z</time>
      </trkpt>
      <trkpt lat="41.4067770" lon="2.0934280">
        <ele>326.8</ele>
        <time>2018-04-10T07:53:40Z</time>
      </trkpt>
      <trkpt lat="41.4068110" lon="2.0934750">
        <ele>327.0</ele>
        <time>2018-04-10T07:53:41Z</time>
      </trkpt>
      <trkpt lat="41.4068850" lon="2.0935600">
        <ele>327.6</ele>
        <time>2018-04-10T07:53:43Z</time>
      </trkpt>
      <trkpt lat="41.4069220" lon="2.0935950">
        <ele>327.8</ele>
        <time>2018-04-10T07:53:44Z</time>
      </trkpt>
      <trkpt lat="41.4069580" lon="2.0936280">
        <ele>328.2</ele>
        <time>2018-04-10T07:53:45Z</time>
      </trkpt>
      <trkpt lat="41.4070380" lon="2.0936940">
        <ele>328.8</ele>
        <time>2018-04-10T07:53:47Z</time>
      </trkpt>
      <trkpt lat="41.4070720" lon="2.0937240">
        <ele>329.0</ele>
        <time>2018-04-10T07:53:48Z</time>
      </trkpt>
      <trkpt lat="41.4071070" lon="2.0937570">
        <ele>329.2</ele>
        <time>2018-04-10T07:53:49Z</time>
      </trkpt>
      <trkpt lat="41.4071780" lon="2.0938300">
        <ele>329.8</ele>
        <time>2018-04-10T07:53:51Z</time>
      </trkpt>
      <trkpt lat="41.4072100" lon="2.0938710">
        <ele>330.0</ele>
        <time>2018-04-10T07:53:52Z</time>
      </trkpt>
      <trkpt lat="41.4072390" lon="2.0939110">
        <ele>330.2</ele>
        <time>2018-04-10T07:53:53Z</time>
      </trkpt>
      <trkpt lat="41.4072660" lon="2.0939540">
        <ele>330.6</ele>
        <time>2018-04-10T07:53:54Z</time>
      </trkpt>
      <trkpt lat="41.4072910" lon="2.0940050">
        <ele>331.0</ele>
        <time>2018-04-10T07:53:55Z</time>
      </trkpt>
      <trkpt lat="41.4073370" lon="2.0941070">
        <ele>331.8</ele>
        <time>2018-04-10T07:53:57Z</time>
      </trkpt>
      <trkpt lat="41.4073750" lon="2.0942140">
        <ele>332.6</ele>
        <time>2018-04-10T07:53:59Z</time>
      </trkpt>
      <trkpt lat="41.4074130" lon="2.0943290">
        <ele>333.0</ele>
        <time>2018-04-10T07:54:01Z</time>
      </trkpt>
      <trkpt lat="41.4074500" lon="2.0944380">
        <ele>333.6</ele>
        <time>2018-04-10T07:54:03Z</time>
      </trkpt>
      <trkpt lat="41.4074760" lon="2.0945490">
        <ele>334.4</ele>
        <time>2018-04-10T07:54:05Z</time>
      </trkpt>
      <trkpt lat="41.4074900" lon="2.0946060">
        <ele>335.0</ele>
        <time>2018-04-10T07:54:06Z</time>
      </trkpt>
      <trkpt lat="41.4075050" lon="2.0946620">
        <ele>335.2</ele>
        <time>2018-04-10T07:54:07Z</time>
      </trkpt>
      <trkpt lat="41.4075230" lon="2.0947780">
        <ele>335.6</ele>
        <time>2018-04-10T07:54:09Z</time>
      </trkpt>
      <trkpt lat="41.4075310" lon="2.0948840">
        <ele>336.2</ele>
        <time>2018-04-10T07:54:11Z</time>
      </trkpt>
      <trkpt lat="41.4075270" lon="2.0949850">
        <ele>336.6</ele>
        <time>2018-04-10T07:54:13Z</time>
      </trkpt>
      <trkpt lat="41.4075210" lon="2.0950890">
        <ele>337.0</ele>
        <time>2018-04-10T07:54:15Z</time>
      </trkpt>
      <trkpt lat="41.4075190" lon="2.0951400">
        <ele>337.2</ele>
        <time>2018-04-10T07:54:16Z</time>
      </trkpt>
      <trkpt lat="41.4075180" lon="2.0951920">
        <ele>337.6</ele>
        <time>2018-04-10T07:54:17Z</time>
      </trkpt>
      <trkpt lat="41.4075190" lon="2.0952990">
        <ele>338.0</ele>
        <time>2018-04-10T07:54:19Z</time>
      </trkpt>
      <trkpt lat="41.4075240" lon="2.0954050">
        <ele>338.4</ele>
        <time>2018-04-10T07:54:21Z</time>
      </trkpt>
      <trkpt lat="41.4075400" lon="2.0955130">
        <ele>339.0</ele>
        <time>2018-04-10T07:54:23Z</time>
      </trkpt>
      <trkpt lat="41.4075600" lon="2.0956170">
        <ele>339.4</ele>
        <time>2018-04-10T07:54:25Z</time>
      </trkpt>
      <trkpt lat="41.4075730" lon="2.0957210">
        <ele>340.0</ele>
        <time>2018-04-10T07:54:27Z</time>
      </trkpt>
      <trkpt lat="41.4075760" lon="2.0958250">
        <ele>340.4</ele>
        <time>2018-04-10T07:54:29Z</time>
      </trkpt>
      <trkpt lat="41.4075740" lon="2.0958780">
        <ele>340.6</ele>
        <time>2018-04-10T07:54:30Z</time>
      </trkpt>
      <trkpt lat="41.4075720" lon="2.0959300">
        <ele>340.8</ele>
        <time>2018-04-10T07:54:31Z</time>
      </trkpt>
      <trkpt lat="41.4075610" lon="2.0960320">
        <ele>341.2</ele>
        <time>2018-04-10T07:54:33Z</time>
      </trkpt>
      <trkpt lat="41.4075350" lon="2.0961300">
        <ele>342.0</ele>
        <time>2018-04-10T07:54:35Z</time>
      </trkpt>
      <trkpt lat="41.4075080" lon="2.0962290">
        <ele>342.4</ele>
        <time>2018-04-10T07:54:37Z</time>
      </trkpt>
      <trkpt lat="41.4074940" lon="2.0963330">
        <ele>342.8</ele>
        <time>2018-04-10T07:54:39Z</time>
      </trkpt>
      <trkpt lat="41.4075070" lon="2.0964370">
        <ele>343.0</ele>
        <time>2018-04-10T07:54:41Z</time>
      </trkpt>
      <trkpt lat="41.4075420" lon="2.0965310">
        <ele>343.4</ele>
        <time>2018-04-10T07:54:43Z</time>
      </trkpt>
      <trkpt lat="41.4075970" lon="2.0966110">
        <ele>343.8</ele>
        <time>2018-04-10T07:54:45Z</time>
      </trkpt>
      <trkpt lat="41.4076650" lon="2.0966730">
        <ele>344.2</ele>
        <time>2018-04-10T07:54:47Z</time>
      </trkpt>
      <trkpt lat="41.4077410" lon="2.0967170">
        <ele>344.6</ele>
        <time>2018-04-10T07:54:49Z</time>
      </trkpt>
      <trkpt lat="41.4078190" lon="2.0967550">
        <ele>344.8</ele>
        <time>2018-04-10T07:54:51Z</time>
      </trkpt>
      <trkpt lat="41.4078940" lon="2.0967910">
        <ele>345.4</ele>
        <time>2018-04-10T07:54:53Z</time>
      </trkpt>
      <trkpt lat="41.4079320" lon="2.0968090">
        <ele>345.4</ele>
        <time>2018-04-10T07:54:54Z</time>
      </trkpt>
      <trkpt lat="41.4079680" lon="2.0968280">
        <ele>345.6</ele>
        <time>2018-04-10T07:54:55Z</time>
      </trkpt>
      <trkpt lat="41.4080310" lon="2.0968690">
        <ele>346.0</ele>
        <time>2018-04-10T07:54:57Z</time>
      </trkpt>
      <trkpt lat="41.4080930" lon="2.0969130">
        <ele>346.4</ele>
        <time>2018-04-10T07:54:59Z</time>
      </trkpt>
      <trkpt lat="41.4081550" lon="2.0969640">
        <ele>346.8</ele>
        <time>2018-04-10T07:55:01Z</time>
      </trkpt>
      <trkpt lat="41.4082170" lon="2.0970270">
        <ele>347.2</ele>
        <time>2018-04-10T07:55:03Z</time>
      </trkpt>
      <trkpt lat="41.4082770" lon="2.0970970">
        <ele>347.8</ele>
        <time>2018-04-10T07:55:05Z</time>
      </trkpt>
      <trkpt lat="41.4083320" lon="2.0971730">
        <ele>348.6</ele>
        <time>2018-04-10T07:55:07Z</time>
      </trkpt>
      <trkpt lat="41.4083820" lon="2.0972530">
        <ele>349.2</ele>
        <time>2018-04-10T07:55:09Z</time>
      </trkpt>
      <trkpt lat="41.4084270" lon="2.0973360">
        <ele>349.6</ele>
        <time>2018-04-10T07:55:11Z</time>
      </trkpt>
      <trkpt lat="41.4084630" lon="2.0974230">
        <ele>350.2</ele>
        <time>2018-04-10T07:55:13Z</time>
      </trkpt>
      <trkpt lat="41.4084910" lon="2.0975160">
        <ele>350.6</ele>
        <time>2018-04-10T07:55:15Z</time>
      </trkpt>
      <trkpt lat="41.4085100" lon="2.0976150">
        <ele>351.2</ele>
        <time>2018-04-10T07:55:17Z</time>
      </trkpt>
      <trkpt lat="41.4085130" lon="2.0976650">
        <ele>351.4</ele>
        <time>2018-04-10T07:55:18Z</time>
      </trkpt>
      <trkpt lat="41.4085160" lon="2.0977170">
        <ele>351.6</ele>
        <time>2018-04-10T07:55:19Z</time>
      </trkpt>
      <trkpt lat="41.4085110" lon="2.0978200">
        <ele>352.0</ele>
        <time>2018-04-10T07:55:21Z</time>
      </trkpt>
      <trkpt lat="41.4084990" lon="2.0979200">
        <ele>352.6</ele>
        <time>2018-04-10T07:55:23Z</time>
      </trkpt>
      <trkpt lat="41.4084900" lon="2.0980230">
        <ele>353.2</ele>
        <time>2018-04-10T07:55:25Z</time>
      </trkpt>
      <trkpt lat="41.4084710" lon="2.0981240">
        <ele>353.4</ele>
        <time>2018-04-10T07:55:27Z</time>
      </trkpt>
      <trkpt lat="41.4084610" lon="2.0981750">
        <ele>353.6</ele>
        <time>2018-04-10T07:55:28Z</time>
      </trkpt>
      <trkpt lat="41.4084510" lon="2.0982290">
        <ele>353.8</ele>
        <time>2018-04-10T07:55:29Z</time>
      </trkpt>
      <trkpt lat="41.4084250" lon="2.0983300">
        <ele>354.4</ele>
        <time>2018-04-10T07:55:31Z</time>
      </trkpt>
      <trkpt lat="41.4083900" lon="2.0984270">
        <ele>355.0</ele>
        <time>2018-04-10T07:55:33Z</time>
      </trkpt>
      <trkpt lat="41.4083440" lon="2.0985150">
        <ele>355.2</ele>
        <time>2018-04-10T07:55:35Z</time>
      </trkpt>
      <trkpt lat="41.4082930" lon="2.0985910">
        <ele>355.4</ele>
        <time>2018-04-10T07:55:37Z</time>
      </trkpt>
      <trkpt lat="41.4082410" lon="2.0986570">
        <ele>355.8</ele>
        <time>2018-04-10T07:55:39Z</time>
      </trkpt>
      <trkpt lat="41.4082160" lon="2.0986890">
        <ele>356.2</ele>
        <time>2018-04-10T07:55:40Z</time>
      </trkpt>
      <trkpt lat="41.4081930" lon="2.0987200">
        <ele>356.4</ele>
        <time>2018-04-10T07:55:41Z</time>
      </trkpt>
      <trkpt lat="41.4081500" lon="2.0987930">
        <ele>357.0</ele>
        <time>2018-04-10T07:55:43Z</time>
      </trkpt>
      <trkpt lat="41.4081340" lon="2.0988370">
        <ele>357.2</ele>
        <time>2018-04-10T07:55:44Z</time>
      </trkpt>
      <trkpt lat="41.4081210" lon="2.0988860">
        <ele>357.4</ele>
        <time>2018-04-10T07:55:45Z</time>
      </trkpt>
      <trkpt lat="41.4080990" lon="2.0989860">
        <ele>358.0</ele>
        <time>2018-04-10T07:55:47Z</time>
      </trkpt>
      <trkpt lat="41.4080900" lon="2.0990400">
        <ele>358.2</ele>
        <time>2018-04-10T07:55:48Z</time>
      </trkpt>
      <trkpt lat="41.4080840" lon="2.0990960">
        <ele>358.6</ele>
        <time>2018-04-10T07:55:49Z</time>
      </trkpt>
      <trkpt lat="41.4080750" lon="2.0991540">
        <ele>358.8</ele>
        <time>2018-04-10T07:55:50Z</time>
      </trkpt>
      <trkpt lat="41.4080660" lon="2.0992130">
        <ele>359.0</ele>
        <time>2018-04-10T07:55:51Z</time>
      </trkpt>
      <trkpt lat="41.4080390" lon="2.0993330">
        <ele>359.4</ele>
        <time>2018-04-10T07:55:53Z</time>
      </trkpt>
      <trkpt lat="41.4080030" lon="2.0994580">
        <ele>359.6</ele>
        <time>2018-04-10T07:55:55Z</time>
      </trkpt>
      <trkpt lat="41.4079650" lon="2.0995850">
        <ele>360.0</ele>
        <time>2018-04-10T07:55:57Z</time>
      </trkpt>
      <trkpt lat="41.4079300" lon="2.0997130">
        <ele>360.0</ele>
        <time>2018-04-10T07:55:59Z</time>
      </trkpt>
      <trkpt lat="41.4078940" lon="2.0998390">
        <ele>360.0</ele>
        <time>2018-04-10T07:56:01Z</time>
      </trkpt>
      <trkpt lat="41.4078540" lon="2.0999670">
        <ele>360.2</ele>
        <time>2018-04-10T07:56:03Z</time>
      </trkpt>
      <trkpt lat="41.4078310" lon="2.1000300">
        <ele>360.2</ele>
        <time>2018-04-10T07:56:04Z</time>
      </trkpt>
      <trkpt lat="41.4078030" lon="2.1000920">
        <ele>360.2</ele>
        <time>2018-04-10T07:56:05Z</time>
      </trkpt>
      <trkpt lat="41.4077340" lon="2.1002080">
        <ele>360.2</ele>
        <time>2018-04-10T07:56:07Z</time>
      </trkpt>
      <trkpt lat="41.4076970" lon="2.1002630">
        <ele>360.0</ele>
        <time>2018-04-10T07:56:08Z</time>
      </trkpt>
      <trkpt lat="41.4076560" lon="2.1003110">
        <ele>360.0</ele>
        <time>2018-04-10T07:56:09Z</time>
      </trkpt>
      <trkpt lat="41.4075660" lon="2.1003950">
        <ele>360.0</ele>
        <time>2018-04-10T07:56:11Z</time>
      </trkpt>
      <trkpt lat="41.4075210" lon="2.1004400">
        <ele>360.0</ele>
        <time>2018-04-10T07:56:12Z</time>
      </trkpt>
      <trkpt lat="41.4074800" lon="2.1004900">
        <ele>360.0</ele>
        <time>2018-04-10T07:56:13Z</time>
      </trkpt>
      <trkpt lat="41.4074050" lon="2.1006040">
        <ele>360.0</ele>
        <time>2018-04-10T07:56:15Z</time>
      </trkpt>
      <trkpt lat="41.4073520" lon="2.1007390">
        <ele>360.2</ele>
        <time>2018-04-10T07:56:17Z</time>
      </trkpt>
      <trkpt lat="41.4073070" lon="2.1008850">
        <ele>360.2</ele>
        <time>2018-04-10T07:56:19Z</time>
      </trkpt>
      <trkpt lat="41.4072560" lon="2.1010250">
        <ele>360.2</ele>
        <time>2018-04-10T07:56:21Z</time>
      </trkpt>
      <trkpt lat="41.4072330" lon="2.1010970">
        <ele>360.2</ele>
        <time>2018-04-10T07:56:22Z</time>
      </trkpt>
      <trkpt lat="41.4072190" lon="2.1011720">
        <ele>360.2</ele>
        <time>2018-04-10T07:56:23Z</time>
      </trkpt>
      <trkpt lat="41.4072240" lon="2.1013200">
        <ele>360.4</ele>
        <time>2018-04-10T07:56:25Z</time>
      </trkpt>
      <trkpt lat="41.4072750" lon="2.1014680">
        <ele>360.6</ele>
        <time>2018-04-10T07:56:27Z</time>
      </trkpt>
      <trkpt lat="41.4073810" lon="2.1015920">
        <ele>360.6</ele>
        <time>2018-04-10T07:56:29Z</time>
      </trkpt>
      <trkpt lat="41.4075220" lon="2.1016690">
        <ele>360.8</ele>
        <time>2018-04-10T07:56:31Z</time>
      </trkpt>
      <trkpt lat="41.4076820" lon="2.1017040">
        <ele>360.8</ele>
        <time>2018-04-10T07:56:33Z</time>
      </trkpt>
      <trkpt lat="41.4078330" lon="2.1016940">
        <ele>360.8</ele>
        <time>2018-04-10T07:56:35Z</time>
      </trkpt>
      <trkpt lat="41.4079010" lon="2.1016770">
        <ele>360.4</ele>
        <time>2018-04-10T07:56:36Z</time>
      </trkpt>
      <trkpt lat="41.4079590" lon="2.1016630">
        <ele>360.2</ele>
        <time>2018-04-10T07:56:37Z</time>
      </trkpt>
      <trkpt lat="41.4080080" lon="2.1016600">
        <ele>359.6</ele>
        <time>2018-04-10T07:56:38Z</time>
      </trkpt>
      <trkpt lat="41.4080530" lon="2.1016640">
        <ele>359.0</ele>
        <time>2018-04-10T07:56:39Z</time>
      </trkpt>
      <trkpt lat="41.4081310" lon="2.1016770">
        <ele>358.6</ele>
        <time>2018-04-10T07:56:41Z</time>
      </trkpt>
      <trkpt lat="41.4081930" lon="2.1016850">
        <ele>358.4</ele>
        <time>2018-04-10T07:56:43Z</time>
      </trkpt>
      <trkpt lat="41.4082550" lon="2.1017010">
        <ele>358.4</ele>
        <time>2018-04-10T07:56:45Z</time>
      </trkpt>
      <trkpt lat="41.4083130" lon="2.1017280">
        <ele>358.4</ele>
        <time>2018-04-10T07:56:47Z</time>
      </trkpt>
      <trkpt lat="41.4083690" lon="2.1017520">
        <ele>358.4</ele>
        <time>2018-04-10T07:56:49Z</time>
      </trkpt>
      <trkpt lat="41.4084280" lon="2.1017630">
        <ele>358.6</ele>
        <time>2018-04-10T07:56:51Z</time>
      </trkpt>
      <trkpt lat="41.4084810" lon="2.1017740">
        <ele>359.0</ele>
        <time>2018-04-10T07:56:53Z</time>
      </trkpt>
      <trkpt lat="41.4085500" lon="2.1017910">
        <ele>359.4</ele>
        <time>2018-04-10T07:56:55Z</time>
      </trkpt>
      <trkpt lat="41.4085920" lon="2.1018060">
        <ele>360.0</ele>
        <time>2018-04-10T07:56:56Z</time>
      </trkpt>
      <trkpt lat="41.4086350" lon="2.1018230">
        <ele>360.4</ele>
        <time>2018-04-10T07:56:57Z</time>
      </trkpt>
      <trkpt lat="41.4087220" lon="2.1018660">
        <ele>361.4</ele>
        <time>2018-04-10T07:56:59Z</time>
      </trkpt>
      <trkpt lat="41.4088120" lon="2.1019140">
        <ele>362.6</ele>
        <time>2018-04-10T07:57:01Z</time>
      </trkpt>
      <trkpt lat="41.4089070" lon="2.1019570">
        <ele>363.0</ele>
        <time>2018-04-10T07:57:03Z</time>
      </trkpt>
      <trkpt lat="41.4090110" lon="2.1020020">
        <ele>363.0</ele>
        <time>2018-04-10T07:57:05Z</time>
      </trkpt>
      <trkpt lat="41.4091100" lon="2.1020510">
        <ele>363.0</ele>
        <time>2018-04-10T07:57:07Z</time>
      </trkpt>
      <trkpt lat="41.4092110" lon="2.1021030">
        <ele>363.0</ele>
        <time>2018-04-10T07:57:09Z</time>
      </trkpt>
      <trkpt lat="41.4093130" lon="2.1021480">
        <ele>363.0</ele>
        <time>2018-04-10T07:57:11Z</time>
      </trkpt>
      <trkpt lat="41.4094120" lon="2.1021810">
        <ele>363.0</ele>
        <time>2018-04-10T07:57:13Z</time>
      </trkpt>
      <trkpt lat="41.4095100" lon="2.1022130">
        <ele>363.0</ele>
        <time>2018-04-10T07:57:15Z</time>
      </trkpt>
      <trkpt lat="41.4096000" lon="2.1022410">
        <ele>363.0</ele>
        <time>2018-04-10T07:57:17Z</time>
      </trkpt>
      <trkpt lat="41.4096870" lon="2.1022680">
        <ele>363.0</ele>
        <time>2018-04-10T07:57:19Z</time>
      </trkpt>
      <trkpt lat="41.4097710" lon="2.1022940">
        <ele>363.0</ele>
        <time>2018-04-10T07:57:21Z</time>
      </trkpt>
      <trkpt lat="41.4098490" lon="2.1023280">
        <ele>363.2</ele>
        <time>2018-04-10T07:57:23Z</time>
      </trkpt>
      <trkpt lat="41.4099200" lon="2.1023620">
        <ele>363.4</ele>
        <time>2018-04-10T07:57:25Z</time>
      </trkpt>
      <trkpt lat="41.4099850" lon="2.1024040">
        <ele>363.6</ele>
        <time>2018-04-10T07:57:27Z</time>
      </trkpt>
      <trkpt lat="41.4100100" lon="2.1024260">
        <ele>363.8</ele>
        <time>2018-04-10T07:57:28Z</time>
      </trkpt>
      <trkpt lat="41.4100330" lon="2.1024440">
        <ele>364.4</ele>
        <time>2018-04-10T07:57:29Z</time>
      </trkpt>
      <trkpt lat="41.4100850" lon="2.1024800">
        <ele>365.0</ele>
        <time>2018-04-10T07:57:31Z</time>
      </trkpt>
      <trkpt lat="41.4101320" lon="2.1025210">
        <ele>365.2</ele>
        <time>2018-04-10T07:57:33Z</time>
      </trkpt>
      <trkpt lat="41.4101760" lon="2.1025610">
        <ele>365.8</ele>
        <time>2018-04-10T07:57:35Z</time>
      </trkpt>
      <trkpt lat="41.4102000" lon="2.1025790">
        <ele>366.0</ele>
        <time>2018-04-10T07:57:36Z</time>
      </trkpt>
      <trkpt lat="41.4102250" lon="2.1025960">
        <ele>366.2</ele>
        <time>2018-04-10T07:57:37Z</time>
      </trkpt>
      <trkpt lat="41.4102820" lon="2.1026280">
        <ele>366.8</ele>
        <time>2018-04-10T07:57:39Z</time>
      </trkpt>
      <trkpt lat="41.4103060" lon="2.1026430">
        <ele>367.2</ele>
        <time>2018-04-10T07:57:40Z</time>
      </trkpt>
      <trkpt lat="41.4103280" lon="2.1026600">
        <ele>367.6</ele>
        <time>2018-04-10T07:57:41Z</time>
      </trkpt>
      <trkpt lat="41.4103730" lon="2.1026890">
        <ele>368.2</ele>
        <time>2018-04-10T07:57:43Z</time>
      </trkpt>
      <trkpt lat="41.4104190" lon="2.1027170">
        <ele>369.0</ele>
        <time>2018-04-10T07:57:45Z</time>
      </trkpt>
      <trkpt lat="41.4104730" lon="2.1027530">
        <ele>369.4</ele>
        <time>2018-04-10T07:57:47Z</time>
      </trkpt>
      <trkpt lat="41.4105130" lon="2.1027900">
        <ele>370.0</ele>
        <time>2018-04-10T07:57:49Z</time>
      </trkpt>
      <trkpt lat="41.4105560" lon="2.1028350">
        <ele>370.6</ele>
        <time>2018-04-10T07:57:51Z</time>
      </trkpt>
      <trkpt lat="41.4106020" lon="2.1028780">
        <ele>371.2</ele>
        <time>2018-04-10T07:57:53Z</time>
      </trkpt>
      <trkpt lat="41.4106630" lon="2.1029010">
        <ele>372.2</ele>
        <time>2018-04-10T07:57:55Z</time>
      </trkpt>
      <trkpt lat="41.4107330" lon="2.1029240">
        <ele>372.8</ele>
        <time>2018-04-10T07:57:57Z</time>
      </trkpt>
      <trkpt lat="41.4108160" lon="2.1029500">
        <ele>373.4</ele>
        <time>2018-04-10T07:57:59Z</time>
      </trkpt>
      <trkpt lat="41.4109090" lon="2.1029660">
        <ele>373.6</ele>
        <time>2018-04-10T07:58:01Z</time>
      </trkpt>
      <trkpt lat="41.4109580" lon="2.1029790">
        <ele>373.8</ele>
        <time>2018-04-10T07:58:02Z</time>
      </trkpt>
      <trkpt lat="41.4110110" lon="2.1029990">
        <ele>373.8</ele>
        <time>2018-04-10T07:58:03Z</time>
      </trkpt>
      <trkpt lat="41.4111140" lon="2.1030600">
        <ele>373.8</ele>
        <time>2018-04-10T07:58:05Z</time>
      </trkpt>
      <trkpt lat="41.4112100" lon="2.1031260">
        <ele>373.8</ele>
        <time>2018-04-10T07:58:07Z</time>
      </trkpt>
      <trkpt lat="41.4113110" lon="2.1032030">
        <ele>373.8</ele>
        <time>2018-04-10T07:58:09Z</time>
      </trkpt>
      <trkpt lat="41.4114180" lon="2.1032830">
        <ele>373.8</ele>
        <time>2018-04-10T07:58:11Z</time>
      </trkpt>
      <trkpt lat="41.4115330" lon="2.1033610">
        <ele>373.6</ele>
        <time>2018-04-10T07:58:13Z</time>
      </trkpt>
      <trkpt lat="41.4116600" lon="2.1034490">
        <ele>373.4</ele>
        <time>2018-04-10T07:58:15Z</time>
      </trkpt>
      <trkpt lat="41.4117860" lon="2.1035270">
        <ele>373.2</ele>
        <time>2018-04-10T07:58:17Z</time>
      </trkpt>
      <trkpt lat="41.4119100" lon="2.1035910">
        <ele>372.8</ele>
        <time>2018-04-10T07:58:19Z</time>
      </trkpt>
      <trkpt lat="41.4120210" lon="2.1036600">
        <ele>372.4</ele>
        <time>2018-04-10T07:58:21Z</time>
      </trkpt>
      <trkpt lat="41.4121340" lon="2.1037480">
        <ele>371.6</ele>
        <time>2018-04-10T07:58:23Z</time>
      </trkpt>
      <trkpt lat="41.4121930" lon="2.1037850">
        <ele>371.0</ele>
        <time>2018-04-10T07:58:24Z</time>
      </trkpt>
      <trkpt lat="41.4122500" lon="2.1038310">
        <ele>370.6</ele>
        <time>2018-04-10T07:58:25Z</time>
      </trkpt>
      <trkpt lat="41.4123070" lon="2.1038720">
        <ele>369.8</ele>
        <time>2018-04-10T07:58:26Z</time>
      </trkpt>
      <trkpt lat="41.4123650" lon="2.1039060">
        <ele>369.4</ele>
        <time>2018-04-10T07:58:27Z</time>
      </trkpt>
      <trkpt lat="41.4124110" lon="2.1039340">
        <ele>368.8</ele>
        <time>2018-04-10T07:58:28Z</time>
      </trkpt>
      <trkpt lat="41.4124570" lon="2.1039640">
        <ele>367.6</ele>
        <time>2018-04-10T07:58:29Z</time>
      </trkpt>
      <trkpt lat="41.4125020" lon="2.1039870">
        <ele>366.8</ele>
        <time>2018-04-10T07:58:30Z</time>
      </trkpt>
      <trkpt lat="41.4125380" lon="2.1040160">
        <ele>366.2</ele>
        <time>2018-04-10T07:58:31Z</time>
      </trkpt>
      <trkpt lat="41.4125870" lon="2.1040640">
        <ele>364.8</ele>
        <time>2018-04-10T07:58:33Z</time>
      </trkpt>
      <trkpt lat="41.4126340" lon="2.1040980">
        <ele>362.8</ele>
        <time>2018-04-10T07:58:35Z</time>
      </trkpt>
      <trkpt lat="41.4126910" lon="2.1041280">
        <ele>361.0</ele>
        <time>2018-04-10T07:58:37Z</time>
      </trkpt>
      <trkpt lat="41.4127140" lon="2.1041460">
        <ele>360.4</ele>
        <time>2018-04-10T07:58:38Z</time>
      </trkpt>
      <trkpt lat="41.4127350" lon="2.1041670">
        <ele>359.6</ele>
        <time>2018-04-10T07:58:39Z</time>
      </trkpt>
      <trkpt lat="41.4127900" lon="2.1042190">
        <ele>358.4</ele>
        <time>2018-04-10T07:58:41Z</time>
      </trkpt>
      <trkpt lat="41.4128530" lon="2.1042820">
        <ele>357.4</ele>
        <time>2018-04-10T07:58:43Z</time>
      </trkpt>
      <trkpt lat="41.4128830" lon="2.1043170">
        <ele>357.2</ele>
        <time>2018-04-10T07:58:44Z</time>
      </trkpt>
      <trkpt lat="41.4129020" lon="2.1043560">
        <ele>356.6</ele>
        <time>2018-04-10T07:58:45Z</time>
      </trkpt>
      <trkpt lat="41.4129240" lon="2.1044510">
        <ele>355.6</ele>
        <time>2018-04-10T07:58:47Z</time>
      </trkpt>
      <trkpt lat="41.4129390" lon="2.1045090">
        <ele>355.2</ele>
        <time>2018-04-10T07:58:48Z</time>
      </trkpt>
      <trkpt lat="41.4129650" lon="2.1045660">
        <ele>354.6</ele>
        <time>2018-04-10T07:58:49Z</time>
      </trkpt>
      <trkpt lat="41.4129970" lon="2.1046220">
        <ele>354.2</ele>
        <time>2018-04-10T07:58:50Z</time>
      </trkpt>
      <trkpt lat="41.4130340" lon="2.1046700">
        <ele>353.8</ele>
        <time>2018-04-10T07:58:51Z</time>
      </trkpt>
      <trkpt lat="41.4130740" lon="2.1047060">
        <ele>353.2</ele>
        <time>2018-04-10T07:58:52Z</time>
      </trkpt>
      <trkpt lat="41.4131110" lon="2.1047370">
        <ele>352.4</ele>
        <time>2018-04-10T07:58:53Z</time>
      </trkpt>
      <trkpt lat="41.4131470" lon="2.1047690">
        <ele>351.8</ele>
        <time>2018-04-10T07:58:54Z</time>
      </trkpt>
      <trkpt lat="41.4131810" lon="2.1047920">
        <ele>351.6</ele>
        <time>2018-04-10T07:58:55Z</time>
      </trkpt>
      <trkpt lat="41.4132400" lon="2.1048180">
        <ele>351.4</ele>
        <time>2018-04-10T07:58:57Z</time>
      </trkpt>
      <trkpt lat="41.4133010" lon="2.1048360">
        <ele>351.4</ele>
        <time>2018-04-10T07:58:59Z</time>
      </trkpt>
      <trkpt lat="41.4133570" lon="2.1048300">
        <ele>351.4</ele>
        <time>2018-04-10T07:59:01Z</time>
      </trkpt>
      <trkpt lat="41.4134150" lon="2.1047940">
        <ele>351.4</ele>
        <time>2018-04-10T07:59:03Z</time>
      </trkpt>
      <trkpt lat="41.4134840" lon="2.1047670">
        <ele>352.0</ele>
        <time>2018-04-10T07:59:05Z</time>
      </trkpt>
      <trkpt lat="41.4135490" lon="2.1047520">
        <ele>352.6</ele>
        <time>2018-04-10T07:59:07Z</time>
      </trkpt>
      <trkpt lat="41.4135830" lon="2.1047460">
        <ele>353.0</ele>
        <time>2018-04-10T07:59:08Z</time>
      </trkpt>
      <trkpt lat="41.4136150" lon="2.1047390">
        <ele>353.2</ele>
        <time>2018-04-10T07:59:09Z</time>
      </trkpt>
      <trkpt lat="41.4136680" lon="2.1047190">
        <ele>353.8</ele>
        <time>2018-04-10T07:59:11Z</time>
      </trkpt>
      <trkpt lat="41.4136890" lon="2.1047110">
        <ele>354.0</ele>
        <time>2018-04-10T07:59:12Z</time>
      </trkpt>
      <trkpt lat="41.4137110" lon="2.1047060">
        <ele>354.2</ele>
        <time>2018-04-10T07:59:13Z</time>
      </trkpt>
      <trkpt lat="41.4137670" lon="2.1047120">
        <ele>354.6</ele>
        <time>2018-04-10T07:59:15Z</time>
      </trkpt>
      <trkpt lat="41.4138280" lon="2.1047140">
        <ele>355.2</ele>
        <time>2018-04-10T07:59:17Z</time>
      </trkpt>
      <trkpt lat="41.4138770" lon="2.1047150">
        <ele>355.6</ele>
        <time>2018-04-10T07:59:19Z</time>
      </trkpt>
      <trkpt lat="41.4139200" lon="2.1047280">
        <ele>356.2</ele>
        <time>2018-04-10T07:59:21Z</time>
      </trkpt>
      <trkpt lat="41.4139450" lon="2.1047470">
        <ele>356.2</ele>
        <time>2018-04-10T07:59:22Z</time>
      </trkpt>
      <trkpt lat="41.4139730" lon="2.1047610">
        <ele>356.4</ele>
        <time>2018-04-10T07:59:23Z</time>
      </trkpt>
      <trkpt lat="41.4140220" lon="2.1047840">
        <ele>356.8</ele>
        <time>2018-04-10T07:59:25Z</time>
      </trkpt>
      <trkpt lat="41.4140710" lon="2.1048240">
        <ele>357.8</ele>
        <time>2018-04-10T07:59:27Z</time>
      </trkpt>
      <trkpt lat="41.4141360" lon="2.1048670">
        <ele>358.2</ele>
        <time>2018-04-10T07:59:29Z</time>
      </trkpt>
      <trkpt lat="41.4141950" lon="2.1049130">
        <ele>358.8</ele>
        <time>2018-04-10T07:59:31Z</time>
      </trkpt>
      <trkpt lat="41.4142510" lon="2.1049700">
        <ele>359.4</ele>
        <time>2018-04-10T07:59:33Z</time>
      </trkpt>
      <trkpt lat="41.4143020" lon="2.1050370">
        <ele>360.0</ele>
        <time>2018-04-10T07:59:35Z</time>
      </trkpt>
      <trkpt lat="41.4143450" lon="2.1051070">
        <ele>360.6</ele>
        <time>2018-04-10T07:59:37Z</time>
      </trkpt>
      <trkpt lat="41.4143790" lon="2.1051830">
        <ele>361.2</ele>
        <time>2018-04-10T07:59:39Z</time>
      </trkpt>
      <trkpt lat="41.4144110" lon="2.1052590">
        <ele>361.8</ele>
        <time>2018-04-10T07:59:41Z</time>
      </trkpt>
      <trkpt lat="41.4144370" lon="2.1053320">
        <ele>362.4</ele>
        <time>2018-04-10T07:59:43Z</time>
      </trkpt>
      <trkpt lat="41.4144360" lon="2.1053990">
        <ele>363.0</ele>
        <time>2018-04-10T07:59:45Z</time>
      </trkpt>
      <trkpt lat="41.4144170" lon="2.1054430">
        <ele>363.4</ele>
        <time>2018-04-10T07:59:47Z</time>
      </trkpt>
      <trkpt lat="41.4143930" lon="2.1054670">
        <ele>364.2</ele>
        <time>2018-04-10T07:59:49Z</time>
      </trkpt>
      <trkpt lat="41.4143690" lon="2.1054860">
        <ele>364.8</ele>
        <time>2018-04-10T07:59:51Z</time>
      </trkpt>
      <trkpt lat="41.4143600" lon="2.1054950">
        <ele>365.0</ele>
        <time>2018-04-10T07:59:52Z</time>
      </trkpt>
      <trkpt lat="41.4143560" lon="2.1055140">
        <ele>365.4</ele>
        <time>2018-04-10T07:59:53Z</time>
      </trkpt>
      <trkpt lat="41.4143530" lon="2.1055480">
        <ele>365.8</ele>
        <time>2018-04-10T07:59:54Z</time>
      </trkpt>
      <trkpt lat="41.4143410" lon="2.1055860">
        <ele>366.2</ele>
        <time>2018-04-10T07:59:55Z</time>
      </trkpt>
      <trkpt lat="41.4142980" lon="2.1056550">
        <ele>367.0</ele>
        <time>2018-04-10T07:59:57Z</time>
      </trkpt>
      <trkpt lat="41.4142610" lon="2.1057280">
        <ele>367.2</ele>
        <time>2018-04-10T07:59:59Z</time>
      </trkpt>
      <trkpt lat="41.4142400" lon="2.1058180">
        <ele>367.4</ele>
        <time>2018-04-10T08:00:01Z</time>
      </trkpt>
      <trkpt lat="41.4142410" lon="2.1059040">
        <ele>367.6</ele>
        <time>2018-04-10T08:00:03Z</time>
      </trkpt>
      <trkpt lat="41.4142500" lon="2.1059430">
        <ele>368.0</ele>
        <time>2018-04-10T08:00:04Z</time>
      </trkpt>
      <trkpt lat="41.4142640" lon="2.1059810">
        <ele>368.2</ele>
        <time>2018-04-10T08:00:05Z</time>
      </trkpt>
      <trkpt lat="41.4142990" lon="2.1060560">
        <ele>368.8</ele>
        <time>2018-04-10T08:00:07Z</time>
      </trkpt>
      <trkpt lat="41.4143210" lon="2.1060910">
        <ele>369.2</ele>
        <time>2018-04-10T08:00:08Z</time>
      </trkpt>
      <trkpt lat="41.4143440" lon="2.1061260">
        <ele>369.4</ele>
        <time>2018-04-10T08:00:09Z</time>
      </trkpt>
      <trkpt lat="41.4143990" lon="2.1061920">
        <ele>370.2</ele>
        <time>2018-04-10T08:00:11Z</time>
      </trkpt>
      <trkpt lat="41.4144260" lon="2.1062240">
        <ele>370.4</ele>
        <time>2018-04-10T08:00:12Z</time>
      </trkpt>
      <trkpt lat="41.4144520" lon="2.1062540">
        <ele>370.8</ele>
        <time>2018-04-10T08:00:13Z</time>
      </trkpt>
      <trkpt lat="41.4144940" lon="2.1063200">
        <ele>371.4</ele>
        <time>2018-04-10T08:00:15Z</time>
      </trkpt>
      <trkpt lat="41.4145140" lon="2.1063530">
        <ele>371.6</ele>
        <time>2018-04-10T08:00:16Z</time>
      </trkpt>
      <trkpt lat="41.4145350" lon="2.1063850">
        <ele>371.8</ele>
        <time>2018-04-10T08:00:17Z</time>
      </trkpt>
      <trkpt lat="41.4145730" lon="2.1064530">
        <ele>372.4</ele>
        <time>2018-04-10T08:00:19Z</time>
      </trkpt>
      <trkpt lat="41.4146140" lon="2.1065300">
        <ele>372.6</ele>
        <time>2018-04-10T08:00:21Z</time>
      </trkpt>
      <trkpt lat="41.4146340" lon="2.1065690">
        <ele>372.8</ele>
        <time>2018-04-10T08:00:22Z</time>
      </trkpt>
      <trkpt lat="41.4146480" lon="2.1066040">
        <ele>373.2</ele>
        <time>2018-04-10T08:00:23Z</time>
      </trkpt>
      <trkpt lat="41.4146630" lon="2.1066780">
        <ele>373.8</ele>
        <time>2018-04-10T08:00:25Z</time>
      </trkpt>
      <trkpt lat="41.4146670" lon="2.1067190">
        <ele>374.2</ele>
        <time>2018-04-10T08:00:26Z</time>
      </trkpt>
      <trkpt lat="41.4146700" lon="2.1067610">
        <ele>374.4</ele>
        <time>2018-04-10T08:00:27Z</time>
      </trkpt>
      <trkpt lat="41.4146710" lon="2.1068370">
        <ele>374.8</ele>
        <time>2018-04-10T08:00:29Z</time>
      </trkpt>
      <trkpt lat="41.4146670" lon="2.1069090">
        <ele>375.2</ele>
        <time>2018-04-10T08:00:31Z</time>
      </trkpt>
      <trkpt lat="41.4146650" lon="2.1069460">
        <ele>375.4</ele>
        <time>2018-04-10T08:00:32Z</time>
      </trkpt>
      <trkpt lat="41.4146660" lon="2.1069880">
        <ele>375.6</ele>
        <time>2018-04-10T08:00:33Z</time>
      </trkpt>
      <trkpt lat="41.4146610" lon="2.1070770">
        <ele>376.0</ele>
        <time>2018-04-10T08:00:35Z</time>
      </trkpt>
      <trkpt lat="41.4146490" lon="2.1071660">
        <ele>376.4</ele>
        <time>2018-04-10T08:00:37Z</time>
      </trkpt>
      <trkpt lat="41.4146370" lon="2.1072550">
        <ele>376.8</ele>
        <time>2018-04-10T08:00:39Z</time>
      </trkpt>
      <trkpt lat="41.4146280" lon="2.1073490">
        <ele>377.2</ele>
        <time>2018-04-10T08:00:41Z</time>
      </trkpt>
      <trkpt lat="41.4146200" lon="2.1073920">
        <ele>377.4</ele>
        <time>2018-04-10T08:00:42Z</time>
      </trkpt>
      <trkpt lat="41.4146170" lon="2.1074390">
        <ele>377.6</ele>
        <time>2018-04-10T08:00:43Z</time>
      </trkpt>
      <trkpt lat="41.4146150" lon="2.1075310">
        <ele>377.8</ele>
        <time>2018-04-10T08:00:45Z</time>
      </trkpt>
      <trkpt lat="41.4146080" lon="2.1076260">
        <ele>378.2</ele>
        <time>2018-04-10T08:00:47Z</time>
      </trkpt>
      <trkpt lat="41.4146090" lon="2.1077280">
        <ele>378.8</ele>
        <time>2018-04-10T08:00:49Z</time>
      </trkpt>
      <trkpt lat="41.4146250" lon="2.1078270">
        <ele>379.2</ele>
        <time>2018-04-10T08:00:51Z</time>
      </trkpt>
      <trkpt lat="41.4146470" lon="2.1079200">
        <ele>379.8</ele>
        <time>2018-04-10T08:00:53Z</time>
      </trkpt>
      <trkpt lat="41.4146710" lon="2.1080110">
        <ele>380.2</ele>
        <time>2018-04-10T08:00:55Z</time>
      </trkpt>
      <trkpt lat="41.4146960" lon="2.1081040">
        <ele>380.6</ele>
        <time>2018-04-10T08:00:57Z</time>
      </trkpt>
      <trkpt lat="41.4147260" lon="2.1081950">
        <ele>380.8</ele>
        <time>2018-04-10T08:00:59Z</time>
      </trkpt>
      <trkpt lat="41.4147580" lon="2.1082850">
        <ele>381.2</ele>
        <time>2018-04-10T08:01:01Z</time>
      </trkpt>
      <trkpt lat="41.4147750" lon="2.1083290">
        <ele>381.2</ele>
        <time>2018-04-10T08:01:02Z</time>
      </trkpt>
      <trkpt lat="41.4147930" lon="2.1083710">
        <ele>381.4</ele>
        <time>2018-04-10T08:01:03Z</time>
      </trkpt>
      <trkpt lat="41.4148290" lon="2.1084530">
        <ele>382.4</ele>
        <time>2018-04-10T08:01:05Z</time>
      </trkpt>
      <trkpt lat="41.4148750" lon="2.1085280">
        <ele>382.8</ele>
        <time>2018-04-10T08:01:07Z</time>
      </trkpt>
      <trkpt lat="41.4149170" lon="2.1086050">
        <ele>383.2</ele>
        <time>2018-04-10T08:01:09Z</time>
      </trkpt>
      <trkpt lat="41.4149370" lon="2.1086440">
        <ele>383.6</ele>
        <time>2018-04-10T08:01:10Z</time>
      </trkpt>
      <trkpt lat="41.4149570" lon="2.1086770">
        <ele>383.8</ele>
        <time>2018-04-10T08:01:11Z</time>
      </trkpt>
      <trkpt lat="41.4149960" lon="2.1087370">
        <ele>384.0</ele>
        <time>2018-04-10T08:01:13Z</time>
      </trkpt>
      <trkpt lat="41.4150310" lon="2.1087910">
        <ele>384.4</ele>
        <time>2018-04-10T08:01:15Z</time>
      </trkpt>
      <trkpt lat="41.4150450" lon="2.1088170">
        <ele>384.6</ele>
        <time>2018-04-10T08:01:16Z</time>
      </trkpt>
      <trkpt lat="41.4150550" lon="2.1088430">
        <ele>385.0</ele>
        <time>2018-04-10T08:01:17Z</time>
      </trkpt>
      <trkpt lat="41.4150750" lon="2.1088910">
        <ele>385.4</ele>
        <time>2018-04-10T08:01:19Z</time>
      </trkpt>
      <trkpt lat="41.4150840" lon="2.1089150">
        <ele>385.8</ele>
        <time>2018-04-10T08:01:20Z</time>
      </trkpt>
      <trkpt lat="41.4150930" lon="2.1089350">
        <ele>386.0</ele>
        <time>2018-04-10T08:01:21Z</time>
      </trkpt>
      <trkpt lat="41.4151120" lon="2.1089740">
        <ele>386.4</ele>
        <time>2018-04-10T08:01:23Z</time>
      </trkpt>
      <trkpt lat="41.4151290" lon="2.1090100">
        <ele>387.0</ele>
        <time>2018-04-10T08:01:25Z</time>
      </trkpt>
      <trkpt lat="41.4151470" lon="2.1090470">
        <ele>387.2</ele>
        <time>2018-04-10T08:01:27Z</time>
      </trkpt>
      <trkpt lat="41.4151560" lon="2.1090690">
        <ele>387.8</ele>
        <time>2018-04-10T08:01:29Z</time>
      </trkpt>
      <trkpt lat="41.4151610" lon="2.1090690">
        <ele>388.0</ele>
        <time>2018-04-10T08:01:31Z</time>
      </trkpt>
      <trkpt lat="41.4151630" lon="2.1090690">
        <ele>388.2</ele>
        <time>2018-04-10T08:01:32Z</time>
      </trkpt>
      <trkpt lat="41.4151620" lon="2.1090690">
        <ele>388.2</ele>
        <time>2018-04-10T08:01:33Z</time>
      </trkpt>
      <trkpt lat="41.4151610" lon="2.1090700">
        <ele>388.4</ele>
        <time>2018-04-10T08:01:35Z</time>
      </trkpt>
      <trkpt lat="41.4151610" lon="2.1090690">
        <ele>388.4</ele>
        <time>2018-04-10T08:01:37Z</time>
      </trkpt>
      <trkpt lat="41.4151610" lon="2.1090690">
        <ele>388.4</ele>
        <time>2018-04-10T08:01:39Z</time>
      </trkpt>
      <trkpt lat="41.4151610" lon="2.1090690">
        <ele>388.6</ele>
        <time>2018-04-10T08:01:41Z</time>
      </trkpt>
      <trkpt lat="41.4151610" lon="2.1090690">
        <ele>388.6</ele>
        <time>2018-04-10T08:01:43Z</time>
      </trkpt>
      <trkpt lat="41.4151610" lon="2.1090690">
        <ele>388.6</ele>
        <time>2018-04-10T08:01:45Z</time>
      </trkpt>
      <trkpt lat="41.4151610" lon="2.1090680">
        <ele>388.6</ele>
        <time>2018-04-10T08:01:47Z</time>
      </trkpt>
      <trkpt lat="41.4151610" lon="2.1090680">
        <ele>388.6</ele>
        <time>2018-04-10T08:01:49Z</time>
      </trkpt>
      <trkpt lat="41.4151610" lon="2.1090680">
        <ele>388.4</ele>
        <time>2018-04-10T08:01:51Z</time>
      </trkpt>
      <trkpt lat="41.4151610" lon="2.1090680">
        <ele>388.4</ele>
        <time>2018-04-10T08:01:53Z</time>
      </trkpt>
      <trkpt lat="41.4151610" lon="2.1090670">
        <ele>388.6</ele>
        <time>2018-04-10T08:01:55Z</time>
      </trkpt>
      <trkpt lat="41.4151610" lon="2.1090670">
        <ele>388.6</ele>
        <time>2018-04-10T08:01:57Z</time>
      </trkpt>
      <trkpt lat="41.4151610" lon="2.1090670">
        <ele>388.6</ele>
        <time>2018-04-10T08:01:59Z</time>
      </trkpt>
      <trkpt lat="41.4151610" lon="2.1090670">
        <ele>388.6</ele>
        <time>2018-04-10T08:02:01Z</time>
      </trkpt>
      <trkpt lat="41.4151610" lon="2.1090670">
        <ele>388.8</ele>
        <time>2018-04-10T08:02:03Z</time>
      </trkpt>
      <trkpt lat="41.4151610" lon="2.1090670">
        <ele>389.0</ele>
        <time>2018-04-10T08:02:05Z</time>
      </trkpt>
      <trkpt lat="41.4151610" lon="2.1090670">
        <ele>389.0</ele>
        <time>2018-04-10T08:02:07Z</time>
      </trkpt>
      <trkpt lat="41.4151610" lon="2.1090670">
        <ele>389.0</ele>
        <time>2018-04-10T08:02:09Z</time>
      </trkpt>
      <trkpt lat="41.4151610" lon="2.1090670">
        <ele>389.0</ele>
        <time>2018-04-10T08:02:11Z</time>
      </trkpt>
      <trkpt lat="41.4151610" lon="2.1090680">
        <ele>389.0</ele>
        <time>2018-04-10T08:02:13Z</time>
      </trkpt>
      <trkpt lat="41.4151610" lon="2.1090680">
        <ele>389.0</ele>
        <time>2018-04-10T08:02:15Z</time>
      </trkpt>
      <trkpt lat="41.4151610" lon="2.1090680">
        <ele>389.0</ele>
        <time>2018-04-10T08:02:17Z</time>
      </trkpt>
      <trkpt lat="41.4151610" lon="2.1090680">
        <ele>389.0</ele>
        <time>2018-04-10T08:02:19Z</time>
      </trkpt>
      <trkpt lat="41.4151610" lon="2.1090680">
        <ele>389.0</ele>
        <time>2018-04-10T08:02:21Z</time>
      </trkpt>
      <trkpt lat="41.4151610" lon="2.1090680">
        <ele>388.8</ele>
        <time>2018-04-10T08:02:23Z</time>
      </trkpt>
      <trkpt lat="41.4151610" lon="2.1090680">
        <ele>388.8</ele>
        <time>2018-04-10T08:02:25Z</time>
      </trkpt>
      <trkpt lat="41.4151610" lon="2.1090680">
        <ele>388.8</ele>
        <time>2018-04-10T08:02:27Z</time>
      </trkpt>
      <trkpt lat="41.4151620" lon="2.1090680">
        <ele>388.8</ele>
        <time>2018-04-10T08:02:28Z</time>
      </trkpt>
      <trkpt lat="41.4151620" lon="2.1090680">
        <ele>388.8</ele>
        <time>2018-04-10T08:02:29Z</time>
      </trkpt>
      <trkpt lat="41.4151620" lon="2.1090680">
        <ele>388.8</ele>
        <time>2018-04-10T08:02:31Z</time>
      </trkpt>
      <trkpt lat="41.4151620" lon="2.1090680">
        <ele>388.8</ele>
        <time>2018-04-10T08:02:33Z</time>
      </trkpt>
      <trkpt lat="41.4151620" lon="2.1090680">
        <ele>388.8</ele>
        <time>2018-04-10T08:02:35Z</time>
      </trkpt>
      <trkpt lat="41.4151620" lon="2.1090680">
        <ele>388.8</ele>
        <time>2018-04-10T08:02:37Z</time>
      </trkpt>
      <trkpt lat="41.4151620" lon="2.1090680">
        <ele>388.8</ele>
        <time>2018-04-10T08:02:39Z</time>
      </trkpt>
      <trkpt lat="41.4151620" lon="2.1090680">
        <ele>388.8</ele>
        <time>2018-04-10T08:02:41Z</time>
      </trkpt>
      <trkpt lat="41.4151690" lon="2.1090710">
        <ele>388.8</ele>
        <time>2018-04-10T08:02:43Z</time>
      </trkpt>
      <trkpt lat="41.4151990" lon="2.1090880">
        <ele>388.8</ele>
        <time>2018-04-10T08:02:45Z</time>
      </trkpt>
      <trkpt lat="41.4152240" lon="2.1091210">
        <ele>388.8</ele>
        <time>2018-04-10T08:02:47Z</time>
      </trkpt>
      <trkpt lat="41.4152390" lon="2.1091450">
        <ele>388.8</ele>
        <time>2018-04-10T08:02:48Z</time>
      </trkpt>
      <trkpt lat="41.4152570" lon="2.1091770">
        <ele>388.8</ele>
        <time>2018-04-10T08:02:49Z</time>
      </trkpt>
      <trkpt lat="41.4152740" lon="2.1092130">
        <ele>388.8</ele>
        <time>2018-04-10T08:02:50Z</time>
      </trkpt>
      <trkpt lat="41.4152930" lon="2.1092470">
        <ele>388.8</ele>
        <time>2018-04-10T08:02:51Z</time>
      </trkpt>
      <trkpt lat="41.4153350" lon="2.1093230">
        <ele>388.8</ele>
        <time>2018-04-10T08:02:53Z</time>
      </trkpt>
      <trkpt lat="41.4153750" lon="2.1094050">
        <ele>389.2</ele>
        <time>2018-04-10T08:02:55Z</time>
      </trkpt>
      <trkpt lat="41.4154160" lon="2.1094890">
        <ele>389.4</ele>
        <time>2018-04-10T08:02:57Z</time>
      </trkpt>
      <trkpt lat="41.4154540" lon="2.1095700">
        <ele>389.8</ele>
        <time>2018-04-10T08:02:59Z</time>
      </trkpt>
      <trkpt lat="41.4154980" lon="2.1096510">
        <ele>390.2</ele>
        <time>2018-04-10T08:03:01Z</time>
      </trkpt>
      <trkpt lat="41.4155540" lon="2.1097270">
        <ele>390.6</ele>
        <time>2018-04-10T08:03:03Z</time>
      </trkpt>
      <trkpt lat="41.4156100" lon="2.1098010">
        <ele>391.2</ele>
        <time>2018-04-10T08:03:05Z</time>
      </trkpt>
      <trkpt lat="41.4156660" lon="2.1098760">
        <ele>391.6</ele>
        <time>2018-04-10T08:03:07Z</time>
      </trkpt>
      <trkpt lat="41.4156940" lon="2.1099130">
        <ele>391.8</ele>
        <time>2018-04-10T08:03:08Z</time>
      </trkpt>
      <trkpt lat="41.4157230" lon="2.1099490">
        <ele>392.2</ele>
        <time>2018-04-10T08:03:09Z</time>
      </trkpt>
      <trkpt lat="41.4157790" lon="2.1100240">
        <ele>392.4</ele>
        <time>2018-04-10T08:03:11Z</time>
      </trkpt>
      <trkpt lat="41.4158280" lon="2.1101010">
        <ele>392.6</ele>
        <time>2018-04-10T08:03:13Z</time>
      </trkpt>
      <trkpt lat="41.4158810" lon="2.1101790">
        <ele>392.8</ele>
        <time>2018-04-10T08:03:15Z</time>
      </trkpt>
      <trkpt lat="41.4159070" lon="2.1102190">
        <ele>393.0</ele>
        <time>2018-04-10T08:03:16Z</time>
      </trkpt>
      <trkpt lat="41.4159230" lon="2.1102630">
        <ele>393.2</ele>
        <time>2018-04-10T08:03:17Z</time>
      </trkpt>
      <trkpt lat="41.4159360" lon="2.1103100">
        <ele>393.4</ele>
        <time>2018-04-10T08:03:18Z</time>
      </trkpt>
      <trkpt lat="41.4159430" lon="2.1103620">
        <ele>393.4</ele>
        <time>2018-04-10T08:03:19Z</time>
      </trkpt>
      <trkpt lat="41.4159600" lon="2.1104800">
        <ele>393.8</ele>
        <time>2018-04-10T08:03:21Z</time>
      </trkpt>
      <trkpt lat="41.4159750" lon="2.1105410">
        <ele>394.4</ele>
        <time>2018-04-10T08:03:22Z</time>
      </trkpt>
      <trkpt lat="41.4159920" lon="2.1105970">
        <ele>394.8</ele>
        <time>2018-04-10T08:03:23Z</time>
      </trkpt>
      <trkpt lat="41.4160230" lon="2.1107040">
        <ele>395.0</ele>
        <time>2018-04-10T08:03:25Z</time>
      </trkpt>
      <trkpt lat="41.4160640" lon="2.1108320">
        <ele>395.2</ele>
        <time>2018-04-10T08:03:27Z</time>
      </trkpt>
      <trkpt lat="41.4161060" lon="2.1109600">
        <ele>395.2</ele>
        <time>2018-04-10T08:03:29Z</time>
      </trkpt>
      <trkpt lat="41.4161450" lon="2.1110900">
        <ele>395.2</ele>
        <time>2018-04-10T08:03:31Z</time>
      </trkpt>
      <trkpt lat="41.4161800" lon="2.1112190">
        <ele>395.4</ele>
        <time>2018-04-10T08:03:33Z</time>
      </trkpt>
      <trkpt lat="41.4162140" lon="2.1113440">
        <ele>395.6</ele>
        <time>2018-04-10T08:03:35Z</time>
      </trkpt>
      <trkpt lat="41.4162320" lon="2.1114040">
        <ele>395.6</ele>
        <time>2018-04-10T08:03:36Z</time>
      </trkpt>
      <trkpt lat="41.4162500" lon="2.1114610">
        <ele>395.8</ele>
        <time>2018-04-10T08:03:37Z</time>
      </trkpt>
      <trkpt lat="41.4162890" lon="2.1115750">
        <ele>396.0</ele>
        <time>2018-04-10T08:03:39Z</time>
      </trkpt>
      <trkpt lat="41.4163310" lon="2.1116850">
        <ele>396.4</ele>
        <time>2018-04-10T08:03:41Z</time>
      </trkpt>
      <trkpt lat="41.4163760" lon="2.1117880">
        <ele>396.8</ele>
        <time>2018-04-10T08:03:43Z</time>
      </trkpt>
      <trkpt lat="41.4164200" lon="2.1118880">
        <ele>397.2</ele>
        <time>2018-04-10T08:03:45Z</time>
      </trkpt>
      <trkpt lat="41.4164610" lon="2.1119870">
        <ele>398.0</ele>
        <time>2018-04-10T08:03:47Z</time>
      </trkpt>
      <trkpt lat="41.4165030" lon="2.1120840">
        <ele>398.4</ele>
        <time>2018-04-10T08:03:49Z</time>
      </trkpt>
      <trkpt lat="41.4165460" lon="2.1121820">
        <ele>398.8</ele>
        <time>2018-04-10T08:03:51Z</time>
      </trkpt>
      <trkpt lat="41.4165680" lon="2.1122310">
        <ele>399.2</ele>
        <time>2018-04-10T08:03:52Z</time>
      </trkpt>
      <trkpt lat="41.4165890" lon="2.1122770">
        <ele>399.6</ele>
        <time>2018-04-10T08:03:53Z</time>
      </trkpt>
      <trkpt lat="41.4166290" lon="2.1123690">
        <ele>400.0</ele>
        <time>2018-04-10T08:03:55Z</time>
      </trkpt>
      <trkpt lat="41.4166690" lon="2.1124610">
        <ele>400.4</ele>
        <time>2018-04-10T08:03:57Z</time>
      </trkpt>
      <trkpt lat="41.4166980" lon="2.1125490">
        <ele>401.0</ele>
        <time>2018-04-10T08:03:59Z</time>
      </trkpt>
      <trkpt lat="41.4167310" lon="2.1126410">
        <ele>401.6</ele>
        <time>2018-04-10T08:04:01Z</time>
      </trkpt>
      <trkpt lat="41.4167550" lon="2.1127330">
        <ele>402.0</ele>
        <time>2018-04-10T08:04:03Z</time>
      </trkpt>
      <trkpt lat="41.4167600" lon="2.1128200">
        <ele>402.4</ele>
        <time>2018-04-10T08:04:05Z</time>
      </trkpt>
      <trkpt lat="41.4167590" lon="2.1128670">
        <ele>402.6</ele>
        <time>2018-04-10T08:04:06Z</time>
      </trkpt>
      <trkpt lat="41.4167550" lon="2.1129160">
        <ele>402.8</ele>
        <time>2018-04-10T08:04:07Z</time>
      </trkpt>
      <trkpt lat="41.4167260" lon="2.1130080">
        <ele>403.2</ele>
        <time>2018-04-10T08:04:09Z</time>
      </trkpt>
      <trkpt lat="41.4166820" lon="2.1130890">
        <ele>403.8</ele>
        <time>2018-04-10T08:04:11Z</time>
      </trkpt>
      <trkpt lat="41.4166360" lon="2.1131590">
        <ele>404.2</ele>
        <time>2018-04-10T08:04:13Z</time>
      </trkpt>
      <trkpt lat="41.4165840" lon="2.1132250">
        <ele>404.8</ele>
        <time>2018-04-10T08:04:15Z</time>
      </trkpt>
      <trkpt lat="41.4165550" lon="2.1132620">
        <ele>405.0</ele>
        <time>2018-04-10T08:04:16Z</time>
      </trkpt>
      <trkpt lat="41.4165280" lon="2.1132940">
        <ele>405.2</ele>
        <time>2018-04-10T08:04:17Z</time>
      </trkpt>
      <trkpt lat="41.4164650" lon="2.1133690">
        <ele>405.8</ele>
        <time>2018-04-10T08:04:19Z</time>
      </trkpt>
      <trkpt lat="41.4164340" lon="2.1134070">
        <ele>406.0</ele>
        <time>2018-04-10T08:04:20Z</time>
      </trkpt>
      <trkpt lat="41.4164040" lon="2.1134440">
        <ele>406.4</ele>
        <time>2018-04-10T08:04:21Z</time>
      </trkpt>
      <trkpt lat="41.4163450" lon="2.1135120">
        <ele>407.0</ele>
        <time>2018-04-10T08:04:23Z</time>
      </trkpt>
      <trkpt lat="41.4163180" lon="2.1135460">
        <ele>407.2</ele>
        <time>2018-04-10T08:04:24Z</time>
      </trkpt>
      <trkpt lat="41.4162910" lon="2.1135810">
        <ele>407.4</ele>
        <time>2018-04-10T08:04:25Z</time>
      </trkpt>
      <trkpt lat="41.4162380" lon="2.1136540">
        <ele>407.6</ele>
        <time>2018-04-10T08:04:27Z</time>
      </trkpt>
      <trkpt lat="41.4161810" lon="2.1137260">
        <ele>408.0</ele>
        <time>2018-04-10T08:04:29Z</time>
      </trkpt>
      <trkpt lat="41.4161590" lon="2.1137620">
        <ele>408.4</ele>
        <time>2018-04-10T08:04:30Z</time>
      </trkpt>
      <trkpt lat="41.4161400" lon="2.1138030">
        <ele>408.6</ele>
        <time>2018-04-10T08:04:31Z</time>
      </trkpt>
      <trkpt lat="41.4161010" lon="2.1138940">
        <ele>409.2</ele>
        <time>2018-04-10T08:04:33Z</time>
      </trkpt>
      <trkpt lat="41.4160820" lon="2.1139400">
        <ele>409.4</ele>
        <time>2018-04-10T08:04:34Z</time>
      </trkpt>
      <trkpt lat="41.4160640" lon="2.1139850">
        <ele>409.8</ele>
        <time>2018-04-10T08:04:35Z</time>
      </trkpt>
      <trkpt lat="41.4160290" lon="2.1140840">
        <ele>410.2</ele>
        <time>2018-04-10T08:04:37Z</time>
      </trkpt>
      <trkpt lat="41.4160060" lon="2.1141900">
        <ele>410.6</ele>
        <time>2018-04-10T08:04:39Z</time>
      </trkpt>
      <trkpt lat="41.4159950" lon="2.1142960">
        <ele>411.2</ele>
        <time>2018-04-10T08:04:41Z</time>
      </trkpt>
      <trkpt lat="41.4159900" lon="2.1143980">
        <ele>411.8</ele>
        <time>2018-04-10T08:04:43Z</time>
      </trkpt>
      <trkpt lat="41.4159960" lon="2.1144990">
        <ele>412.2</ele>
        <time>2018-04-10T08:04:45Z</time>
      </trkpt>
      <trkpt lat="41.4160010" lon="2.1146020">
        <ele>412.8</ele>
        <time>2018-04-10T08:04:47Z</time>
      </trkpt>
      <trkpt lat="41.4160090" lon="2.1146530">
        <ele>413.0</ele>
        <time>2018-04-10T08:04:48Z</time>
      </trkpt>
      <trkpt lat="41.4160200" lon="2.1147030">
        <ele>413.2</ele>
        <time>2018-04-10T08:04:49Z</time>
      </trkpt>
      <trkpt lat="41.4160510" lon="2.1148020">
        <ele>413.8</ele>
        <time>2018-04-10T08:04:51Z</time>
      </trkpt>
      <trkpt lat="41.4160710" lon="2.1148510">
        <ele>414.0</ele>
        <time>2018-04-10T08:04:52Z</time>
      </trkpt>
      <trkpt lat="41.4160920" lon="2.1148950">
        <ele>414.4</ele>
        <time>2018-04-10T08:04:53Z</time>
      </trkpt>
      <trkpt lat="41.4161420" lon="2.1149860">
        <ele>415.0</ele>
        <time>2018-04-10T08:04:55Z</time>
      </trkpt>
      <trkpt lat="41.4161690" lon="2.1150280">
        <ele>415.2</ele>
        <time>2018-04-10T08:04:56Z</time>
      </trkpt>
      <trkpt lat="41.4161990" lon="2.1150650">
        <ele>415.4</ele>
        <time>2018-04-10T08:04:57Z</time>
      </trkpt>
      <trkpt lat="41.4162620" lon="2.1151340">
        <ele>416.0</ele>
        <time>2018-04-10T08:04:59Z</time>
      </trkpt>
      <trkpt lat="41.4163290" lon="2.1151980">
        <ele>416.4</ele>
        <time>2018-04-10T08:05:01Z</time>
      </trkpt>
      <trkpt lat="41.4164020" lon="2.1152550">
        <ele>416.8</ele>
        <time>2018-04-10T08:05:03Z</time>
      </trkpt>
      <trkpt lat="41.4164750" lon="2.1153130">
        <ele>417.4</ele>
        <time>2018-04-10T08:05:05Z</time>
      </trkpt>
      <trkpt lat="41.4165120" lon="2.1153410">
        <ele>417.6</ele>
        <time>2018-04-10T08:05:06Z</time>
      </trkpt>
      <trkpt lat="41.4165500" lon="2.1153690">
        <ele>417.8</ele>
        <time>2018-04-10T08:05:07Z</time>
      </trkpt>
      <trkpt lat="41.4166270" lon="2.1154230">
        <ele>418.6</ele>
        <time>2018-04-10T08:05:09Z</time>
      </trkpt>
      <trkpt lat="41.4167030" lon="2.1154760">
        <ele>419.0</ele>
        <time>2018-04-10T08:05:11Z</time>
      </trkpt>
      <trkpt lat="41.4167770" lon="2.1155310">
        <ele>419.4</ele>
        <time>2018-04-10T08:05:13Z</time>
      </trkpt>
      <trkpt lat="41.4168450" lon="2.1155920">
        <ele>419.8</ele>
        <time>2018-04-10T08:05:15Z</time>
      </trkpt>
      <trkpt lat="41.4168780" lon="2.1156240">
        <ele>420.0</ele>
        <time>2018-04-10T08:05:16Z</time>
      </trkpt>
      <trkpt lat="41.4169090" lon="2.1156600">
        <ele>420.4</ele>
        <time>2018-04-10T08:05:17Z</time>
      </trkpt>
      <trkpt lat="41.4169730" lon="2.1157320">
        <ele>420.8</ele>
        <time>2018-04-10T08:05:19Z</time>
      </trkpt>
      <trkpt lat="41.4170030" lon="2.1157690">
        <ele>421.2</ele>
        <time>2018-04-10T08:05:20Z</time>
      </trkpt>
      <trkpt lat="41.4170330" lon="2.1158080">
        <ele>421.4</ele>
        <time>2018-04-10T08:05:21Z</time>
      </trkpt>
      <trkpt lat="41.4170890" lon="2.1158860">
        <ele>421.8</ele>
        <time>2018-04-10T08:05:23Z</time>
      </trkpt>
      <trkpt lat="41.4171410" lon="2.1159700">
        <ele>422.4</ele>
        <time>2018-04-10T08:05:25Z</time>
      </trkpt>
      <trkpt lat="41.4171930" lon="2.1160520">
        <ele>423.0</ele>
        <time>2018-04-10T08:05:27Z</time>
      </trkpt>
      <trkpt lat="41.4172440" lon="2.1161330">
        <ele>423.4</ele>
        <time>2018-04-10T08:05:29Z</time>
      </trkpt>
      <trkpt lat="41.4172950" lon="2.1162140">
        <ele>423.8</ele>
        <time>2018-04-10T08:05:31Z</time>
      </trkpt>
      <trkpt lat="41.4173460" lon="2.1162980">
        <ele>424.2</ele>
        <time>2018-04-10T08:05:33Z</time>
      </trkpt>
      <trkpt lat="41.4173740" lon="2.1163360">
        <ele>424.6</ele>
        <time>2018-04-10T08:05:34Z</time>
      </trkpt>
      <trkpt lat="41.4174030" lon="2.1163730">
        <ele>424.8</ele>
        <time>2018-04-10T08:05:35Z</time>
      </trkpt>
      <trkpt lat="41.4174660" lon="2.1164370">
        <ele>425.2</ele>
        <time>2018-04-10T08:05:37Z</time>
      </trkpt>
      <trkpt lat="41.4175310" lon="2.1165000">
        <ele>425.8</ele>
        <time>2018-04-10T08:05:39Z</time>
      </trkpt>
      <trkpt lat="41.4175990" lon="2.1165530">
        <ele>426.4</ele>
        <time>2018-04-10T08:05:41Z</time>
      </trkpt>
      <trkpt lat="41.4176670" lon="2.1166010">
        <ele>427.0</ele>
        <time>2018-04-10T08:05:43Z</time>
      </trkpt>
      <trkpt lat="41.4177360" lon="2.1166400">
        <ele>427.2</ele>
        <time>2018-04-10T08:05:45Z</time>
      </trkpt>
      <trkpt lat="41.4178090" lon="2.1166670">
        <ele>427.8</ele>
        <time>2018-04-10T08:05:47Z</time>
      </trkpt>
      <trkpt lat="41.4178470" lon="2.1166760">
        <ele>428.0</ele>
        <time>2018-04-10T08:05:48Z</time>
      </trkpt>
      <trkpt lat="41.4178840" lon="2.1166800">
        <ele>428.6</ele>
        <time>2018-04-10T08:05:49Z</time>
      </trkpt>
      <trkpt lat="41.4179610" lon="2.1166670">
        <ele>429.2</ele>
        <time>2018-04-10T08:05:51Z</time>
      </trkpt>
      <trkpt lat="41.4180360" lon="2.1166390">
        <ele>429.8</ele>
        <time>2018-04-10T08:05:53Z</time>
      </trkpt>
      <trkpt lat="41.4181120" lon="2.1166100">
        <ele>430.2</ele>
        <time>2018-04-10T08:05:55Z</time>
      </trkpt>
      <trkpt lat="41.4181480" lon="2.1165980">
        <ele>430.4</ele>
        <time>2018-04-10T08:05:56Z</time>
      </trkpt>
      <trkpt lat="41.4181830" lon="2.1165880">
        <ele>430.6</ele>
        <time>2018-04-10T08:05:57Z</time>
      </trkpt>
      <trkpt lat="41.4182420" lon="2.1165910">
        <ele>431.0</ele>
        <time>2018-04-10T08:05:59Z</time>
      </trkpt>
      <trkpt lat="41.4182890" lon="2.1166160">
        <ele>431.6</ele>
        <time>2018-04-10T08:06:01Z</time>
      </trkpt>
      <trkpt lat="41.4183290" lon="2.1166560">
        <ele>432.2</ele>
        <time>2018-04-10T08:06:03Z</time>
      </trkpt>
      <trkpt lat="41.4183660" lon="2.1166960">
        <ele>432.6</ele>
        <time>2018-04-10T08:06:05Z</time>
      </trkpt>
      <trkpt lat="41.4184020" lon="2.1167350">
        <ele>433.4</ele>
        <time>2018-04-10T08:06:07Z</time>
      </trkpt>
      <trkpt lat="41.4184210" lon="2.1167570">
        <ele>433.8</ele>
        <time>2018-04-10T08:06:08Z</time>
      </trkpt>
      <trkpt lat="41.4184390" lon="2.1167780">
        <ele>434.2</ele>
        <time>2018-04-10T08:06:09Z</time>
      </trkpt>
      <trkpt lat="41.4184730" lon="2.1168240">
        <ele>435.0</ele>
        <time>2018-04-10T08:06:11Z</time>
      </trkpt>
      <trkpt lat="41.4185120" lon="2.1168700">
        <ele>435.8</ele>
        <time>2018-04-10T08:06:13Z</time>
      </trkpt>
      <trkpt lat="41.4185330" lon="2.1168900">
        <ele>436.0</ele>
        <time>2018-04-10T08:06:14Z</time>
      </trkpt>
      <trkpt lat="41.4185560" lon="2.1169040">
        <ele>436.4</ele>
        <time>2018-04-10T08:06:15Z</time>
      </trkpt>
      <trkpt lat="41.4185960" lon="2.1169090">
        <ele>437.0</ele>
        <time>2018-04-10T08:06:17Z</time>
      </trkpt>
      <trkpt lat="41.4186150" lon="2.1169000">
        <ele>437.4</ele>
        <time>2018-04-10T08:06:18Z</time>
      </trkpt>
      <trkpt lat="41.4186320" lon="2.1168840">
        <ele>438.0</ele>
        <time>2018-04-10T08:06:19Z</time>
      </trkpt>
      <trkpt lat="41.4186560" lon="2.1168380">
        <ele>438.6</ele>
        <time>2018-04-10T08:06:21Z</time>
      </trkpt>
      <trkpt lat="41.4186650" lon="2.1168120">
        <ele>438.8</ele>
        <time>2018-04-10T08:06:22Z</time>
      </trkpt>
      <trkpt lat="41.4186720" lon="2.1167840">
        <ele>439.2</ele>
        <time>2018-04-10T08:06:23Z</time>
      </trkpt>
      <trkpt lat="41.4186720" lon="2.1167560">
        <ele>439.6</ele>
        <time>2018-04-10T08:06:24Z</time>
      </trkpt>
      <trkpt lat="41.4186670" lon="2.1167270">
        <ele>440.0</ele>
        <time>2018-04-10T08:06:25Z</time>
      </trkpt>
      <trkpt lat="41.4186460" lon="2.1166690">
        <ele>440.4</ele>
        <time>2018-04-10T08:06:27Z</time>
      </trkpt>
      <trkpt lat="41.4186320" lon="2.1166450">
        <ele>440.6</ele>
        <time>2018-04-10T08:06:28Z</time>
      </trkpt>
      <trkpt lat="41.4186170" lon="2.1166220">
        <ele>440.8</ele>
        <time>2018-04-10T08:06:29Z</time>
      </trkpt>
      <trkpt lat="41.4185800" lon="2.1165790">
        <ele>441.4</ele>
        <time>2018-04-10T08:06:31Z</time>
      </trkpt>
      <trkpt lat="41.4185630" lon="2.1165580">
        <ele>441.8</ele>
        <time>2018-04-10T08:06:32Z</time>
      </trkpt>
      <trkpt lat="41.4185460" lon="2.1165380">
        <ele>442.0</ele>
        <time>2018-04-10T08:06:33Z</time>
      </trkpt>
      <trkpt lat="41.4185180" lon="2.1164800">
        <ele>442.4</ele>
        <time>2018-04-10T08:06:35Z</time>
      </trkpt>
      <trkpt lat="41.4185140" lon="2.1164160">
        <ele>443.0</ele>
        <time>2018-04-10T08:06:37Z</time>
      </trkpt>
      <trkpt lat="41.4185290" lon="2.1163640">
        <ele>443.8</ele>
        <time>2018-04-10T08:06:39Z</time>
      </trkpt>
      <trkpt lat="41.4185460" lon="2.1163410">
        <ele>444.0</ele>
        <time>2018-04-10T08:06:40Z</time>
      </trkpt>
      <trkpt lat="41.4185680" lon="2.1163260">
        <ele>444.4</ele>
        <time>2018-04-10T08:06:41Z</time>
      </trkpt>
      <trkpt lat="41.4186160" lon="2.1163140">
        <ele>444.8</ele>
        <time>2018-04-10T08:06:43Z</time>
      </trkpt>
      <trkpt lat="41.4186370" lon="2.1163280">
        <ele>445.2</ele>
        <time>2018-04-10T08:06:44Z</time>
      </trkpt>
      <trkpt lat="41.4186550" lon="2.1163470">
        <ele>445.4</ele>
        <time>2018-04-10T08:06:45Z</time>
      </trkpt>
      <trkpt lat="41.4186790" lon="2.1164120">
        <ele>446.2</ele>
        <time>2018-04-10T08:06:47Z</time>
      </trkpt>
      <trkpt lat="41.4186910" lon="2.1164500">
        <ele>446.4</ele>
        <time>2018-04-10T08:06:48Z</time>
      </trkpt>
      <trkpt lat="41.4187040" lon="2.1164870">
        <ele>446.8</ele>
        <time>2018-04-10T08:06:49Z</time>
      </trkpt>
      <trkpt lat="41.4187360" lon="2.1165580">
        <ele>447.4</ele>
        <time>2018-04-10T08:06:51Z</time>
      </trkpt>
      <trkpt lat="41.4187510" lon="2.1165920">
        <ele>447.8</ele>
        <time>2018-04-10T08:06:52Z</time>
      </trkpt>
      <trkpt lat="41.4187680" lon="2.1166270">
        <ele>448.0</ele>
        <time>2018-04-10T08:06:53Z</time>
      </trkpt>
      <trkpt lat="41.4188050" lon="2.1166880">
        <ele>448.6</ele>
        <time>2018-04-10T08:06:55Z</time>
      </trkpt>
      <trkpt lat="41.4188230" lon="2.1167190">
        <ele>448.8</ele>
        <time>2018-04-10T08:06:56Z</time>
      </trkpt>
      <trkpt lat="41.4188400" lon="2.1167490">
        <ele>449.0</ele>
        <time>2018-04-10T08:06:57Z</time>
      </trkpt>
      <trkpt lat="41.4188730" lon="2.1168070">
        <ele>449.6</ele>
        <time>2018-04-10T08:06:59Z</time>
      </trkpt>
      <trkpt lat="41.4188890" lon="2.1168350">
        <ele>449.8</ele>
        <time>2018-04-10T08:07:00Z</time>
      </trkpt>
      <trkpt lat="41.4189060" lon="2.1168630">
        <ele>450.2</ele>
        <time>2018-04-10T08:07:01Z</time>
      </trkpt>
      <trkpt lat="41.4189420" lon="2.1169170">
        <ele>450.6</ele>
        <time>2018-04-10T08:07:03Z</time>
      </trkpt>
      <trkpt lat="41.4189600" lon="2.1169440">
        <ele>451.0</ele>
        <time>2018-04-10T08:07:04Z</time>
      </trkpt>
      <trkpt lat="41.4189760" lon="2.1169720">
        <ele>451.2</ele>
        <time>2018-04-10T08:07:05Z</time>
      </trkpt>
      <trkpt lat="41.4190090" lon="2.1170310">
        <ele>451.8</ele>
        <time>2018-04-10T08:07:07Z</time>
      </trkpt>
      <trkpt lat="41.4190250" lon="2.1170600">
        <ele>452.2</ele>
        <time>2018-04-10T08:07:08Z</time>
      </trkpt>
      <trkpt lat="41.4190410" lon="2.1170870">
        <ele>452.4</ele>
        <time>2018-04-10T08:07:09Z</time>
      </trkpt>
      <trkpt lat="41.4190760" lon="2.1171410">
        <ele>453.0</ele>
        <time>2018-04-10T08:07:11Z</time>
      </trkpt>
      <trkpt lat="41.4190920" lon="2.1171690">
        <ele>453.2</ele>
        <time>2018-04-10T08:07:12Z</time>
      </trkpt>
      <trkpt lat="41.4191070" lon="2.1171960">
        <ele>453.6</ele>
        <time>2018-04-10T08:07:13Z</time>
      </trkpt>
      <trkpt lat="41.4191370" lon="2.1172420">
        <ele>454.2</ele>
        <time>2018-04-10T08:07:15Z</time>
      </trkpt>
      <trkpt lat="41.4191520" lon="2.1172640">
        <ele>454.4</ele>
        <time>2018-04-10T08:07:16Z</time>
      </trkpt>
      <trkpt lat="41.4191650" lon="2.1172870">
        <ele>455.2</ele>
        <time>2018-04-10T08:07:17Z</time>
      </trkpt>
      <trkpt lat="41.4191760" lon="2.1173110">
        <ele>455.6</ele>
        <time>2018-04-10T08:07:18Z</time>
      </trkpt>
      <trkpt lat="41.4191860" lon="2.1173350">
        <ele>456.0</ele>
        <time>2018-04-10T08:07:19Z</time>
      </trkpt>
      <trkpt lat="41.4192050" lon="2.1173880">
        <ele>456.8</ele>
        <time>2018-04-10T08:07:21Z</time>
      </trkpt>
      <trkpt lat="41.4192330" lon="2.1174410">
        <ele>457.8</ele>
        <time>2018-04-10T08:07:23Z</time>
      </trkpt>
      <trkpt lat="41.4192470" lon="2.1174660">
        <ele>458.2</ele>
        <time>2018-04-10T08:07:24Z</time>
      </trkpt>
      <trkpt lat="41.4192610" lon="2.1174920">
        <ele>458.6</ele>
        <time>2018-04-10T08:07:25Z</time>
      </trkpt>
      <trkpt lat="41.4192820" lon="2.1175500">
        <ele>459.4</ele>
        <time>2018-04-10T08:07:27Z</time>
      </trkpt>
      <trkpt lat="41.4193050" lon="2.1176150">
        <ele>460.2</ele>
        <time>2018-04-10T08:07:29Z</time>
      </trkpt>
      <trkpt lat="41.4193190" lon="2.1176480">
        <ele>460.4</ele>
        <time>2018-04-10T08:07:30Z</time>
      </trkpt>
      <trkpt lat="41.4193280" lon="2.1176810">
        <ele>460.8</ele>
        <time>2018-04-10T08:07:31Z</time>
      </trkpt>
      <trkpt lat="41.4193450" lon="2.1177500">
        <ele>461.2</ele>
        <time>2018-04-10T08:07:33Z</time>
      </trkpt>
      <trkpt lat="41.4193520" lon="2.1177840">
        <ele>461.6</ele>
        <time>2018-04-10T08:07:34Z</time>
      </trkpt>
      <trkpt lat="41.4193600" lon="2.1178190">
        <ele>462.0</ele>
        <time>2018-04-10T08:07:35Z</time>
      </trkpt>
      <trkpt lat="41.4193800" lon="2.1178900">
        <ele>462.4</ele>
        <time>2018-04-10T08:07:37Z</time>
      </trkpt>
      <trkpt lat="41.4193910" lon="2.1179260">
        <ele>462.6</ele>
        <time>2018-04-10T08:07:38Z</time>
      </trkpt>
      <trkpt lat="41.4194020" lon="2.1179600">
        <ele>462.8</ele>
        <time>2018-04-10T08:07:39Z</time>
      </trkpt>
      <trkpt lat="41.4194240" lon="2.1180260">
        <ele>463.2</ele>
        <time>2018-04-10T08:07:41Z</time>
      </trkpt>
      <trkpt lat="41.4194410" lon="2.1180930">
        <ele>463.6</ele>
        <time>2018-04-10T08:07:43Z</time>
      </trkpt>
      <trkpt lat="41.4194490" lon="2.1181260">
        <ele>463.8</ele>
        <time>2018-04-10T08:07:44Z</time>
      </trkpt>
      <trkpt lat="41.4194590" lon="2.1181600">
        <ele>464.0</ele>
        <time>2018-04-10T08:07:45Z</time>
      </trkpt>
      <trkpt lat="41.4194790" lon="2.1182190">
        <ele>464.6</ele>
        <time>2018-04-10T08:07:47Z</time>
      </trkpt>
      <trkpt lat="41.4194910" lon="2.1182520">
        <ele>464.8</ele>
        <time>2018-04-10T08:07:48Z</time>
      </trkpt>
      <trkpt lat="41.4195000" lon="2.1182820">
        <ele>465.2</ele>
        <time>2018-04-10T08:07:49Z</time>
      </trkpt>
      <trkpt lat="41.4195140" lon="2.1183430">
        <ele>465.6</ele>
        <time>2018-04-10T08:07:51Z</time>
      </trkpt>
      <trkpt lat="41.4195220" lon="2.1183720">
        <ele>466.0</ele>
        <time>2018-04-10T08:07:52Z</time>
      </trkpt>
      <trkpt lat="41.4195300" lon="2.1184000">
        <ele>466.2</ele>
        <time>2018-04-10T08:07:53Z</time>
      </trkpt>
      <trkpt lat="41.4195470" lon="2.1184550">
        <ele>466.8</ele>
        <time>2018-04-10T08:07:55Z</time>
      </trkpt>
      <trkpt lat="41.4195530" lon="2.1184810">
        <ele>467.0</ele>
        <time>2018-04-10T08:07:56Z</time>
      </trkpt>
      <trkpt lat="41.4195600" lon="2.1185080">
        <ele>467.4</ele>
        <time>2018-04-10T08:07:57Z</time>
      </trkpt>
      <trkpt lat="41.4195770" lon="2.1185580">
        <ele>468.0</ele>
        <time>2018-04-10T08:07:59Z</time>
      </trkpt>
      <trkpt lat="41.4195860" lon="2.1185810">
        <ele>468.4</ele>
        <time>2018-04-10T08:08:00Z</time>
      </trkpt>
      <trkpt lat="41.4195960" lon="2.1186070">
        <ele>468.8</ele>
        <time>2018-04-10T08:08:01Z</time>
      </trkpt>
      <trkpt lat="41.4196200" lon="2.1186680">
        <ele>469.6</ele>
        <time>2018-04-10T08:08:03Z</time>
      </trkpt>
      <trkpt lat="41.4196440" lon="2.1187270">
        <ele>470.2</ele>
        <time>2018-04-10T08:08:05Z</time>
      </trkpt>
      <trkpt lat="41.4196830" lon="2.1187790">
        <ele>470.8</ele>
        <time>2018-04-10T08:08:07Z</time>
      </trkpt>
      <trkpt lat="41.4197230" lon="2.1188270">
        <ele>471.6</ele>
        <time>2018-04-10T08:08:09Z</time>
      </trkpt>
      <trkpt lat="41.4197440" lon="2.1188480">
        <ele>472.0</ele>
        <time>2018-04-10T08:08:10Z</time>
      </trkpt>
      <trkpt lat="41.4197700" lon="2.1188640">
        <ele>472.4</ele>
        <time>2018-04-10T08:08:11Z</time>
      </trkpt>
      <trkpt lat="41.4198240" lon="2.1188900">
        <ele>473.0</ele>
        <time>2018-04-10T08:08:13Z</time>
      </trkpt>
      <trkpt lat="41.4198770" lon="2.1189120">
        <ele>474.0</ele>
        <time>2018-04-10T08:08:15Z</time>
      </trkpt>
      <trkpt lat="41.4199050" lon="2.1189270">
        <ele>474.2</ele>
        <time>2018-04-10T08:08:16Z</time>
      </trkpt>
      <trkpt lat="41.4199330" lon="2.1189400">
        <ele>474.6</ele>
        <time>2018-04-10T08:08:17Z</time>
      </trkpt>
      <trkpt lat="41.4199870" lon="2.1189490">
        <ele>475.0</ele>
        <time>2018-04-10T08:08:19Z</time>
      </trkpt>
      <trkpt lat="41.4200140" lon="2.1189510">
        <ele>475.4</ele>
        <time>2018-04-10T08:08:20Z</time>
      </trkpt>
      <trkpt lat="41.4200420" lon="2.1189560">
        <ele>475.6</ele>
        <time>2018-04-10T08:08:21Z</time>
      </trkpt>
      <trkpt lat="41.4200930" lon="2.1189780">
        <ele>476.2</ele>
        <time>2018-04-10T08:08:23Z</time>
      </trkpt>
      <trkpt lat="41.4201170" lon="2.1189910">
        <ele>476.4</ele>
        <time>2018-04-10T08:08:24Z</time>
      </trkpt>
      <trkpt lat="41.4201430" lon="2.1189960">
        <ele>476.8</ele>
        <time>2018-04-10T08:08:25Z</time>
      </trkpt>
      <trkpt lat="41.4201890" lon="2.1190000">
        <ele>477.6</ele>
        <time>2018-04-10T08:08:27Z</time>
      </trkpt>
      <trkpt lat="41.4202280" lon="2.1190170">
        <ele>478.2</ele>
        <time>2018-04-10T08:08:29Z</time>
      </trkpt>
      <trkpt lat="41.4202460" lon="2.1190270">
        <ele>478.6</ele>
        <time>2018-04-10T08:08:30Z</time>
      </trkpt>
      <trkpt lat="41.4202630" lon="2.1190370">
        <ele>479.2</ele>
        <time>2018-04-10T08:08:31Z</time>
      </trkpt>
      <trkpt lat="41.4203030" lon="2.1190570">
        <ele>480.0</ele>
        <time>2018-04-10T08:08:33Z</time>
      </trkpt>
      <trkpt lat="41.4203490" lon="2.1190720">
        <ele>480.6</ele>
        <time>2018-04-10T08:08:35Z</time>
      </trkpt>
      <trkpt lat="41.4203880" lon="2.1190890">
        <ele>481.2</ele>
        <time>2018-04-10T08:08:37Z</time>
      </trkpt>
      <trkpt lat="41.4204330" lon="2.1191100">
        <ele>482.0</ele>
        <time>2018-04-10T08:08:39Z</time>
      </trkpt>
      <trkpt lat="41.4204570" lon="2.1191230">
        <ele>482.4</ele>
        <time>2018-04-10T08:08:40Z</time>
      </trkpt>
      <trkpt lat="41.4204820" lon="2.1191390">
        <ele>483.0</ele>
        <time>2018-04-10T08:08:41Z</time>
      </trkpt>
      <trkpt lat="41.4205220" lon="2.1191770">
        <ele>483.6</ele>
        <time>2018-04-10T08:08:43Z</time>
      </trkpt>
      <trkpt lat="41.4205680" lon="2.1192150">
        <ele>484.6</ele>
        <time>2018-04-10T08:08:45Z</time>
      </trkpt>
      <trkpt lat="41.4205870" lon="2.1192320">
        <ele>485.0</ele>
        <time>2018-04-10T08:08:46Z</time>
      </trkpt>
      <trkpt lat="41.4206040" lon="2.1192490">
        <ele>485.4</ele>
        <time>2018-04-10T08:08:47Z</time>
      </trkpt>
      <trkpt lat="41.4206480" lon="2.1192900">
        <ele>486.2</ele>
        <time>2018-04-10T08:08:49Z</time>
      </trkpt>
      <trkpt lat="41.4206980" lon="2.1193300">
        <ele>486.8</ele>
        <time>2018-04-10T08:08:51Z</time>
      </trkpt>
      <trkpt lat="41.4207230" lon="2.1193490">
        <ele>487.2</ele>
        <time>2018-04-10T08:08:52Z</time>
      </trkpt>
      <trkpt lat="41.4207470" lon="2.1193680">
        <ele>487.4</ele>
        <time>2018-04-10T08:08:53Z</time>
      </trkpt>
      <trkpt lat="41.4207900" lon="2.1194040">
        <ele>488.2</ele>
        <time>2018-04-10T08:08:55Z</time>
      </trkpt>
      <trkpt lat="41.4208380" lon="2.1194400">
        <ele>489.0</ele>
        <time>2018-04-10T08:08:57Z</time>
      </trkpt>
      <trkpt lat="41.4208620" lon="2.1194620">
        <ele>489.2</ele>
        <time>2018-04-10T08:08:58Z</time>
      </trkpt>
      <trkpt lat="41.4208820" lon="2.1194840">
        <ele>489.4</ele>
        <time>2018-04-10T08:08:59Z</time>
      </trkpt>
      <trkpt lat="41.4209210" lon="2.1195230">
        <ele>490.2</ele>
        <time>2018-04-10T08:09:01Z</time>
      </trkpt>
      <trkpt lat="41.4209430" lon="2.1195430">
        <ele>490.6</ele>
        <time>2018-04-10T08:09:02Z</time>
      </trkpt>
      <trkpt lat="41.4209650" lon="2.1195620">
        <ele>491.0</ele>
        <time>2018-04-10T08:09:03Z</time>
      </trkpt>
      <trkpt lat="41.4210110" lon="2.1196080">
        <ele>491.6</ele>
        <time>2018-04-10T08:09:05Z</time>
      </trkpt>
      <trkpt lat="41.4210390" lon="2.1196610">
        <ele>492.4</ele>
        <time>2018-04-10T08:09:07Z</time>
      </trkpt>
      <trkpt lat="41.4210520" lon="2.1196860">
        <ele>492.8</ele>
        <time>2018-04-10T08:09:08Z</time>
      </trkpt>
      <trkpt lat="41.4210660" lon="2.1197060">
        <ele>493.2</ele>
        <time>2018-04-10T08:09:09Z</time>
      </trkpt>
      <trkpt lat="41.4210780" lon="2.1197190">
        <ele>493.4</ele>
        <time>2018-04-10T08:09:10Z</time>
      </trkpt>
      <trkpt lat="41.4210910" lon="2.1197210">
        <ele>493.6</ele>
        <time>2018-04-10T08:09:11Z</time>
      </trkpt>
      <trkpt lat="41.4211020" lon="2.1197110">
        <ele>494.0</ele>
        <time>2018-04-10T08:09:12Z</time>
      </trkpt>
      <trkpt lat="41.4211150" lon="2.1196880">
        <ele>494.4</ele>
        <time>2018-04-10T08:09:13Z</time>
      </trkpt>
      <trkpt lat="41.4211180" lon="2.1196590">
        <ele>495.2</ele>
        <time>2018-04-10T08:09:14Z</time>
      </trkpt>
      <trkpt lat="41.4211070" lon="2.1196300">
        <ele>495.8</ele>
        <time>2018-04-10T08:09:15Z</time>
      </trkpt>
      <trkpt lat="41.4210740" lon="2.1195700">
        <ele>496.6</ele>
        <time>2018-04-10T08:09:17Z</time>
      </trkpt>
      <trkpt lat="41.4210480" lon="2.1195060">
        <ele>497.4</ele>
        <time>2018-04-10T08:09:19Z</time>
      </trkpt>
      <trkpt lat="41.4210390" lon="2.1194690">
        <ele>497.6</ele>
        <time>2018-04-10T08:09:20Z</time>
      </trkpt>
      <trkpt lat="41.4210330" lon="2.1194340">
        <ele>498.0</ele>
        <time>2018-04-10T08:09:21Z</time>
      </trkpt>
      <trkpt lat="41.4210350" lon="2.1193630">
        <ele>498.4</ele>
        <time>2018-04-10T08:09:23Z</time>
      </trkpt>
      <trkpt lat="41.4210470" lon="2.1192890">
        <ele>498.8</ele>
        <time>2018-04-10T08:09:25Z</time>
      </trkpt>
      <trkpt lat="41.4210610" lon="2.1192180">
        <ele>499.2</ele>
        <time>2018-04-10T08:09:27Z</time>
      </trkpt>
      <trkpt lat="41.4210780" lon="2.1191600">
        <ele>499.6</ele>
        <time>2018-04-10T08:09:29Z</time>
      </trkpt>
      <trkpt lat="41.4211020" lon="2.1191150">
        <ele>500.0</ele>
        <time>2018-04-10T08:09:31Z</time>
      </trkpt>
      <trkpt lat="41.4211360" lon="2.1190790">
        <ele>500.4</ele>
        <time>2018-04-10T08:09:33Z</time>
      </trkpt>
      <trkpt lat="41.4211700" lon="2.1190490">
        <ele>500.8</ele>
        <time>2018-04-10T08:09:35Z</time>
      </trkpt>
      <trkpt lat="41.4212100" lon="2.1190260">
        <ele>501.4</ele>
        <time>2018-04-10T08:09:37Z</time>
      </trkpt>
      <trkpt lat="41.4212270" lon="2.1190290">
        <ele>501.6</ele>
        <time>2018-04-10T08:09:38Z</time>
      </trkpt>
      <trkpt lat="41.4212370" lon="2.1190410">
        <ele>502.2</ele>
        <time>2018-04-10T08:09:39Z</time>
      </trkpt>
      <trkpt lat="41.4212460" lon="2.1190550">
        <ele>502.8</ele>
        <time>2018-04-10T08:09:40Z</time>
      </trkpt>
      <trkpt lat="41.4212510" lon="2.1190680">
        <ele>503.0</ele>
        <time>2018-04-10T08:09:41Z</time>
      </trkpt>
      <trkpt lat="41.4212450" lon="2.1191100">
        <ele>504.2</ele>
        <time>2018-04-10T08:09:43Z</time>
      </trkpt>
      <trkpt lat="41.4212190" lon="2.1191530">
        <ele>505.0</ele>
        <time>2018-04-10T08:09:45Z</time>
      </trkpt>
      <trkpt lat="41.4212080" lon="2.1191730">
        <ele>505.6</ele>
        <time>2018-04-10T08:09:46Z</time>
      </trkpt>
      <trkpt lat="41.4212010" lon="2.1191920">
        <ele>506.0</ele>
        <time>2018-04-10T08:09:47Z</time>
      </trkpt>
      <trkpt lat="41.4212010" lon="2.1192130">
        <ele>506.6</ele>
        <time>2018-04-10T08:09:48Z</time>
      </trkpt>
      <trkpt lat="41.4212060" lon="2.1192370">
        <ele>507.0</ele>
        <time>2018-04-10T08:09:49Z</time>
      </trkpt>
      <trkpt lat="41.4212290" lon="2.1192880">
        <ele>507.4</ele>
        <time>2018-04-10T08:09:51Z</time>
      </trkpt>
      <trkpt lat="41.4212360" lon="2.1193350">
        <ele>508.2</ele>
        <time>2018-04-10T08:09:53Z</time>
      </trkpt>
      <trkpt lat="41.4212210" lon="2.1193700">
        <ele>508.8</ele>
        <time>2018-04-10T08:09:55Z</time>
      </trkpt>
      <trkpt lat="41.4212180" lon="2.1193920">
        <ele>509.2</ele>
        <time>2018-04-10T08:09:56Z</time>
      </trkpt>
      <trkpt lat="41.4212190" lon="2.1194180">
        <ele>509.4</ele>
        <time>2018-04-10T08:09:57Z</time>
      </trkpt>
      <trkpt lat="41.4212500" lon="2.1195620">
        <ele>509.8</ele>
        <time>2018-04-10T08:12:19Z</time>
      </trkpt>
      <trkpt lat="41.4212500" lon="2.1195620">
        <ele>509.8</ele>
        <time>2018-04-10T08:12:21Z</time>
      </trkpt>
      <trkpt lat="41.4212500" lon="2.1195620">
        <ele>510.0</ele>
        <time>2018-04-10T08:12:23Z</time>
      </trkpt>
      <trkpt lat="41.4212500" lon="2.1195610">
        <ele>510.0</ele>
        <time>2018-04-10T08:12:25Z</time>
      </trkpt>
      <trkpt lat="41.4212520" lon="2.1195480">
        <ele>510.0</ele>
        <time>2018-04-10T08:12:26Z</time>
      </trkpt>
      <trkpt lat="41.4212570" lon="2.1195340">
        <ele>510.0</ele>
        <time>2018-04-10T08:12:27Z</time>
      </trkpt>
      <trkpt lat="41.4212660" lon="2.1194980">
        <ele>510.0</ele>
        <time>2018-04-10T08:12:29Z</time>
      </trkpt>
      <trkpt lat="41.4212690" lon="2.1194770">
        <ele>510.0</ele>
        <time>2018-04-10T08:12:30Z</time>
      </trkpt>
      <trkpt lat="41.4212730" lon="2.1194560">
        <ele>510.0</ele>
        <time>2018-04-10T08:12:31Z</time>
      </trkpt>
      <trkpt lat="41.4212860" lon="2.1194030">
        <ele>510.0</ele>
        <time>2018-04-10T08:12:33Z</time>
      </trkpt>
      <trkpt lat="41.4213040" lon="2.1193270">
        <ele>510.0</ele>
        <time>2018-04-10T08:12:35Z</time>
      </trkpt>
      <trkpt lat="41.4213430" lon="2.1192660">
        <ele>510.0</ele>
        <time>2018-04-10T08:12:37Z</time>
      </trkpt>
      <trkpt lat="41.4213730" lon="2.1192170">
        <ele>509.8</ele>
        <time>2018-04-10T08:12:39Z</time>
      </trkpt>
      <trkpt lat="41.4213660" lon="2.1192000">
        <ele>509.8</ele>
        <time>2018-04-10T08:12:41Z</time>
      </trkpt>
      <trkpt lat="41.4213540" lon="2.1192070">
        <ele>509.8</ele>
        <time>2018-04-10T08:12:42Z</time>
      </trkpt>
      <trkpt lat="41.4213390" lon="2.1192260">
        <ele>510.0</ele>
        <time>2018-04-10T08:12:43Z</time>
      </trkpt>
      <trkpt lat="41.4212800" lon="2.1192490">
        <ele>509.8</ele>
        <time>2018-04-10T08:12:45Z</time>
      </trkpt>
      <trkpt lat="41.4212590" lon="2.1191860">
        <ele>509.8</ele>
        <time>2018-04-10T08:12:47Z</time>
      </trkpt>
      <trkpt lat="41.4212790" lon="2.1190910">
        <ele>509.8</ele>
        <time>2018-04-10T08:12:49Z</time>
      </trkpt>
      <trkpt lat="41.4212570" lon="2.1190090">
        <ele>509.8</ele>
        <time>2018-04-10T08:12:51Z</time>
      </trkpt>
      <trkpt lat="41.4211980" lon="2.1190010">
        <ele>509.6</ele>
        <time>2018-04-10T08:12:53Z</time>
      </trkpt>
      <trkpt lat="41.4211260" lon="2.1190630">
        <ele>509.4</ele>
        <time>2018-04-10T08:12:55Z</time>
      </trkpt>
      <trkpt lat="41.4210970" lon="2.1191270">
        <ele>508.8</ele>
        <time>2018-04-10T08:12:56Z</time>
      </trkpt>
      <trkpt lat="41.4210910" lon="2.1192120">
        <ele>508.2</ele>
        <time>2018-04-10T08:12:57Z</time>
      </trkpt>
      <trkpt lat="41.4211210" lon="2.1193990">
        <ele>507.4</ele>
        <time>2018-04-10T08:12:59Z</time>
      </trkpt>
      <trkpt lat="41.4211500" lon="2.1194830">
        <ele>506.8</ele>
        <time>2018-04-10T08:13:00Z</time>
      </trkpt>
      <trkpt lat="41.4211700" lon="2.1195510">
        <ele>506.0</ele>
        <time>2018-04-10T08:13:01Z</time>
      </trkpt>
      <trkpt lat="41.4211620" lon="2.1196040">
        <ele>505.4</ele>
        <time>2018-04-10T08:13:02Z</time>
      </trkpt>
      <trkpt lat="41.4211400" lon="2.1196350">
        <ele>504.6</ele>
        <time>2018-04-10T08:13:03Z</time>
      </trkpt>
      <trkpt lat="41.4211080" lon="2.1196300">
        <ele>503.8</ele>
        <time>2018-04-10T08:13:04Z</time>
      </trkpt>
      <trkpt lat="41.4210700" lon="2.1195880">
        <ele>503.0</ele>
        <time>2018-04-10T08:13:05Z</time>
      </trkpt>
      <trkpt lat="41.4210310" lon="2.1195190">
        <ele>501.4</ele>
        <time>2018-04-10T08:13:06Z</time>
      </trkpt>
      <trkpt lat="41.4209760" lon="2.1194500">
        <ele>500.6</ele>
        <time>2018-04-10T08:13:07Z</time>
      </trkpt>
      <trkpt lat="41.4209120" lon="2.1193850">
        <ele>500.2</ele>
        <time>2018-04-10T08:13:08Z</time>
      </trkpt>
      <trkpt lat="41.4208460" lon="2.1193230">
        <ele>499.6</ele>
        <time>2018-04-10T08:13:09Z</time>
      </trkpt>
      <trkpt lat="41.4207130" lon="2.1192040">
        <ele>498.8</ele>
        <time>2018-04-10T08:13:11Z</time>
      </trkpt>
      <trkpt lat="41.4205860" lon="2.1190850">
        <ele>498.0</ele>
        <time>2018-04-10T08:13:13Z</time>
      </trkpt>
      <trkpt lat="41.4205190" lon="2.1190390">
        <ele>497.2</ele>
        <time>2018-04-10T08:13:14Z</time>
      </trkpt>
      <trkpt lat="41.4204490" lon="2.1190050">
        <ele>496.0</ele>
        <time>2018-04-10T08:13:15Z</time>
      </trkpt>
      <trkpt lat="41.4203720" lon="2.1189770">
        <ele>494.6</ele>
        <time>2018-04-10T08:13:16Z</time>
      </trkpt>
      <trkpt lat="41.4202910" lon="2.1189530">
        <ele>493.4</ele>
        <time>2018-04-10T08:13:17Z</time>
      </trkpt>
      <trkpt lat="41.4202050" lon="2.1189310">
        <ele>492.2</ele>
        <time>2018-04-10T08:13:18Z</time>
      </trkpt>
      <trkpt lat="41.4201110" lon="2.1189130">
        <ele>490.8</ele>
        <time>2018-04-10T08:13:19Z</time>
      </trkpt>
      <trkpt lat="41.4200140" lon="2.1188920">
        <ele>489.6</ele>
        <time>2018-04-10T08:13:20Z</time>
      </trkpt>
      <trkpt lat="41.4199200" lon="2.1188670">
        <ele>488.4</ele>
        <time>2018-04-10T08:13:21Z</time>
      </trkpt>
      <trkpt lat="41.4198360" lon="2.1188370">
        <ele>487.2</ele>
        <time>2018-04-10T08:13:22Z</time>
      </trkpt>
      <trkpt lat="41.4197560" lon="2.1188010">
        <ele>486.4</ele>
        <time>2018-04-10T08:13:23Z</time>
      </trkpt>
      <trkpt lat="41.4196890" lon="2.1187430">
        <ele>485.4</ele>
        <time>2018-04-10T08:13:24Z</time>
      </trkpt>
      <trkpt lat="41.4196360" lon="2.1186650">
        <ele>484.4</ele>
        <time>2018-04-10T08:13:25Z</time>
      </trkpt>
      <trkpt lat="41.4195970" lon="2.1185800">
        <ele>483.4</ele>
        <time>2018-04-10T08:13:26Z</time>
      </trkpt>
      <trkpt lat="41.4195690" lon="2.1184900">
        <ele>482.2</ele>
        <time>2018-04-10T08:13:27Z</time>
      </trkpt>
      <trkpt lat="41.4195480" lon="2.1183910">
        <ele>481.0</ele>
        <time>2018-04-10T08:13:28Z</time>
      </trkpt>
      <trkpt lat="41.4195270" lon="2.1182810">
        <ele>479.8</ele>
        <time>2018-04-10T08:13:29Z</time>
      </trkpt>
      <trkpt lat="41.4194960" lon="2.1181580">
        <ele>478.6</ele>
        <time>2018-04-10T08:13:30Z</time>
      </trkpt>
      <trkpt lat="41.4194650" lon="2.1180300">
        <ele>477.4</ele>
        <time>2018-04-10T08:13:31Z</time>
      </trkpt>
      <trkpt lat="41.4194330" lon="2.1179000">
        <ele>476.4</ele>
        <time>2018-04-10T08:13:32Z</time>
      </trkpt>
      <trkpt lat="41.4193920" lon="2.1177640">
        <ele>475.6</ele>
        <time>2018-04-10T08:13:33Z</time>
      </trkpt>
      <trkpt lat="41.4193460" lon="2.1176260">
        <ele>474.6</ele>
        <time>2018-04-10T08:13:34Z</time>
      </trkpt>
      <trkpt lat="41.4193030" lon="2.1175050">
        <ele>472.8</ele>
        <time>2018-04-10T08:13:35Z</time>
      </trkpt>
      <trkpt lat="41.4192130" lon="2.1172990">
        <ele>470.6</ele>
        <time>2018-04-10T08:13:37Z</time>
      </trkpt>
      <trkpt lat="41.4191650" lon="2.1172020">
        <ele>469.4</ele>
        <time>2018-04-10T08:13:38Z</time>
      </trkpt>
      <trkpt lat="41.4191200" lon="2.1171090">
        <ele>468.2</ele>
        <time>2018-04-10T08:13:39Z</time>
      </trkpt>
      <trkpt lat="41.4190720" lon="2.1170160">
        <ele>466.8</ele>
        <time>2018-04-10T08:13:40Z</time>
      </trkpt>
      <trkpt lat="41.4190220" lon="2.1169190">
        <ele>465.8</ele>
        <time>2018-04-10T08:13:41Z</time>
      </trkpt>
      <trkpt lat="41.4189060" lon="2.1167050">
        <ele>464.2</ele>
        <time>2018-04-10T08:13:43Z</time>
      </trkpt>
      <trkpt lat="41.4187940" lon="2.1164670">
        <ele>462.6</ele>
        <time>2018-04-10T08:13:45Z</time>
      </trkpt>
      <trkpt lat="41.4187550" lon="2.1163510">
        <ele>461.4</ele>
        <time>2018-04-10T08:13:46Z</time>
      </trkpt>
      <trkpt lat="41.4187190" lon="2.1162560">
        <ele>460.2</ele>
        <time>2018-04-10T08:13:47Z</time>
      </trkpt>
      <trkpt lat="41.4186790" lon="2.1161850">
        <ele>459.0</ele>
        <time>2018-04-10T08:13:48Z</time>
      </trkpt>
      <trkpt lat="41.4186330" lon="2.1161520">
        <ele>457.8</ele>
        <time>2018-04-10T08:13:49Z</time>
      </trkpt>
      <trkpt lat="41.4185840" lon="2.1161630">
        <ele>456.4</ele>
        <time>2018-04-10T08:13:50Z</time>
      </trkpt>
      <trkpt lat="41.4185500" lon="2.1162110">
        <ele>455.0</ele>
        <time>2018-04-10T08:13:51Z</time>
      </trkpt>
      <trkpt lat="41.4185400" lon="2.1162870">
        <ele>453.6</ele>
        <time>2018-04-10T08:13:52Z</time>
      </trkpt>
      <trkpt lat="41.4185580" lon="2.1163840">
        <ele>452.2</ele>
        <time>2018-04-10T08:13:53Z</time>
      </trkpt>
      <trkpt lat="41.4185990" lon="2.1164720">
        <ele>450.8</ele>
        <time>2018-04-10T08:13:54Z</time>
      </trkpt>
      <trkpt lat="41.4186550" lon="2.1165360">
        <ele>449.8</ele>
        <time>2018-04-10T08:13:55Z</time>
      </trkpt>
      <trkpt lat="41.4187110" lon="2.1166580">
        <ele>448.4</ele>
        <time>2018-04-10T08:13:57Z</time>
      </trkpt>
      <trkpt lat="41.4186590" lon="2.1167680">
        <ele>447.4</ele>
        <time>2018-04-10T08:13:59Z</time>
      </trkpt>
      <trkpt lat="41.4185410" lon="2.1167300">
        <ele>446.2</ele>
        <time>2018-04-10T08:14:01Z</time>
      </trkpt>
      <trkpt lat="41.4184180" lon="2.1165870">
        <ele>445.0</ele>
        <time>2018-04-10T08:14:03Z</time>
      </trkpt>
      <trkpt lat="41.4183520" lon="2.1165220">
        <ele>443.2</ele>
        <time>2018-04-10T08:14:04Z</time>
      </trkpt>
      <trkpt lat="41.4182810" lon="2.1164800">
        <ele>442.4</ele>
        <time>2018-04-10T08:14:05Z</time>
      </trkpt>
      <trkpt lat="41.4182100" lon="2.1164680">
        <ele>441.6</ele>
        <time>2018-04-10T08:14:06Z</time>
      </trkpt>
      <trkpt lat="41.4181380" lon="2.1164910">
        <ele>441.0</ele>
        <time>2018-04-10T08:14:07Z</time>
      </trkpt>
      <trkpt lat="41.4180620" lon="2.1165270">
        <ele>440.2</ele>
        <time>2018-04-10T08:14:08Z</time>
      </trkpt>
      <trkpt lat="41.4179860" lon="2.1165490">
        <ele>439.4</ele>
        <time>2018-04-10T08:14:09Z</time>
      </trkpt>
      <trkpt lat="41.4179040" lon="2.1165490">
        <ele>438.6</ele>
        <time>2018-04-10T08:14:10Z</time>
      </trkpt>
      <trkpt lat="41.4178220" lon="2.1165240">
        <ele>437.6</ele>
        <time>2018-04-10T08:14:11Z</time>
      </trkpt>
      <trkpt lat="41.4177380" lon="2.1164800">
        <ele>436.6</ele>
        <time>2018-04-10T08:14:12Z</time>
      </trkpt>
      <trkpt lat="41.4176570" lon="2.1164220">
        <ele>435.6</ele>
        <time>2018-04-10T08:14:13Z</time>
      </trkpt>
      <trkpt lat="41.4175780" lon="2.1163520">
        <ele>434.4</ele>
        <time>2018-04-10T08:14:14Z</time>
      </trkpt>
      <trkpt lat="41.4175020" lon="2.1162740">
        <ele>433.4</ele>
        <time>2018-04-10T08:14:15Z</time>
      </trkpt>
      <trkpt lat="41.4173630" lon="2.1160930">
        <ele>432.0</ele>
        <time>2018-04-10T08:14:17Z</time>
      </trkpt>
      <trkpt lat="41.4172970" lon="2.1159950">
        <ele>431.2</ele>
        <time>2018-04-10T08:14:18Z</time>
      </trkpt>
      <trkpt lat="41.4172270" lon="2.1158980">
        <ele>430.6</ele>
        <time>2018-04-10T08:14:19Z</time>
      </trkpt>
      <trkpt lat="41.4170830" lon="2.1157020">
        <ele>429.4</ele>
        <time>2018-04-10T08:14:21Z</time>
      </trkpt>
      <trkpt lat="41.4169250" lon="2.1155260">
        <ele>428.0</ele>
        <time>2018-04-10T08:14:23Z</time>
      </trkpt>
      <trkpt lat="41.4167540" lon="2.1153760">
        <ele>426.6</ele>
        <time>2018-04-10T08:14:25Z</time>
      </trkpt>
      <trkpt lat="41.4165740" lon="2.1152450">
        <ele>425.4</ele>
        <time>2018-04-10T08:14:27Z</time>
      </trkpt>
      <trkpt lat="41.4163970" lon="2.1151070">
        <ele>424.0</ele>
        <time>2018-04-10T08:14:29Z</time>
      </trkpt>
      <trkpt lat="41.4162360" lon="2.1149350">
        <ele>423.0</ele>
        <time>2018-04-10T08:14:31Z</time>
      </trkpt>
      <trkpt lat="41.4161150" lon="2.1147170">
        <ele>421.6</ele>
        <time>2018-04-10T08:14:33Z</time>
      </trkpt>
      <trkpt lat="41.4160730" lon="2.1145970">
        <ele>420.0</ele>
        <time>2018-04-10T08:14:34Z</time>
      </trkpt>
      <trkpt lat="41.4160450" lon="2.1144710">
        <ele>419.4</ele>
        <time>2018-04-10T08:14:35Z</time>
      </trkpt>
      <trkpt lat="41.4160370" lon="2.1142040">
        <ele>418.8</ele>
        <time>2018-04-10T08:14:37Z</time>
      </trkpt>
      <trkpt lat="41.4160990" lon="2.1139410">
        <ele>417.8</ele>
        <time>2018-04-10T08:14:39Z</time>
      </trkpt>
      <trkpt lat="41.4162240" lon="2.1137130">
        <ele>416.6</ele>
        <time>2018-04-10T08:14:41Z</time>
      </trkpt>
      <trkpt lat="41.4163840" lon="2.1135200">
        <ele>415.4</ele>
        <time>2018-04-10T08:14:43Z</time>
      </trkpt>
      <trkpt lat="41.4165600" lon="2.1133420">
        <ele>414.2</ele>
        <time>2018-04-10T08:14:45Z</time>
      </trkpt>
      <trkpt lat="41.4167140" lon="2.1131530">
        <ele>412.8</ele>
        <time>2018-04-10T08:14:47Z</time>
      </trkpt>
      <trkpt lat="41.4168060" lon="2.1129100">
        <ele>411.4</ele>
        <time>2018-04-10T08:14:49Z</time>
      </trkpt>
      <trkpt lat="41.4167990" lon="2.1126370">
        <ele>410.0</ele>
        <time>2018-04-10T08:14:51Z</time>
      </trkpt>
      <trkpt lat="41.4167020" lon="2.1123760">
        <ele>408.4</ele>
        <time>2018-04-10T08:14:53Z</time>
      </trkpt>
      <trkpt lat="41.4165830" lon="2.1121140">
        <ele>407.2</ele>
        <time>2018-04-10T08:14:55Z</time>
      </trkpt>
      <trkpt lat="41.4164580" lon="2.1118480">
        <ele>406.2</ele>
        <time>2018-04-10T08:14:57Z</time>
      </trkpt>
      <trkpt lat="41.4163490" lon="2.1115710">
        <ele>405.0</ele>
        <time>2018-04-10T08:14:59Z</time>
      </trkpt>
      <trkpt lat="41.4162650" lon="2.1112910">
        <ele>403.6</ele>
        <time>2018-04-10T08:15:01Z</time>
      </trkpt>
      <trkpt lat="41.4161990" lon="2.1110180">
        <ele>402.2</ele>
        <time>2018-04-10T08:15:03Z</time>
      </trkpt>
      <trkpt lat="41.4161690" lon="2.1108930">
        <ele>400.8</ele>
        <time>2018-04-10T08:15:04Z</time>
      </trkpt>
      <trkpt lat="41.4161440" lon="2.1107840">
        <ele>400.0</ele>
        <time>2018-04-10T08:15:05Z</time>
      </trkpt>
      <trkpt lat="41.4161260" lon="2.1106970">
        <ele>399.2</ele>
        <time>2018-04-10T08:15:06Z</time>
      </trkpt>
      <trkpt lat="41.4161120" lon="2.1106300">
        <ele>398.4</ele>
        <time>2018-04-10T08:15:07Z</time>
      </trkpt>
      <trkpt lat="41.4161010" lon="2.1105770">
        <ele>397.8</ele>
        <time>2018-04-10T08:15:08Z</time>
      </trkpt>
      <trkpt lat="41.4160930" lon="2.1105400">
        <ele>397.4</ele>
        <time>2018-04-10T08:15:09Z</time>
      </trkpt>
      <trkpt lat="41.4160830" lon="2.1105000">
        <ele>396.8</ele>
        <time>2018-04-10T08:15:10Z</time>
      </trkpt>
      <trkpt lat="41.4160720" lon="2.1104590">
        <ele>396.4</ele>
        <time>2018-04-10T08:15:11Z</time>
      </trkpt>
      <trkpt lat="41.4160490" lon="2.1104010">
        <ele>395.6</ele>
        <time>2018-04-10T08:15:13Z</time>
      </trkpt>
      <trkpt lat="41.4160270" lon="2.1103400">
        <ele>395.4</ele>
        <time>2018-04-10T08:15:15Z</time>
      </trkpt>
      <trkpt lat="41.4159980" lon="2.1102840">
        <ele>395.2</ele>
        <time>2018-04-10T08:15:17Z</time>
      </trkpt>
      <trkpt lat="41.4159730" lon="2.1102470">
        <ele>395.2</ele>
        <time>2018-04-10T08:15:19Z</time>
      </trkpt>
      <trkpt lat="41.4159540" lon="2.1102290">
        <ele>395.0</ele>
        <time>2018-04-10T08:15:21Z</time>
      </trkpt>
      <trkpt lat="41.4159400" lon="2.1102160">
        <ele>394.8</ele>
        <time>2018-04-10T08:15:23Z</time>
      </trkpt>
      <trkpt lat="41.4159250" lon="2.1101970">
        <ele>394.8</ele>
        <time>2018-04-10T08:15:25Z</time>
      </trkpt>
      <trkpt lat="41.4158990" lon="2.1101630">
        <ele>394.6</ele>
        <time>2018-04-10T08:15:27Z</time>
      </trkpt>
      <trkpt lat="41.4158490" lon="2.1100950">
        <ele>394.4</ele>
        <time>2018-04-10T08:15:29Z</time>
      </trkpt>
      <trkpt lat="41.4157830" lon="2.1100080">
        <ele>394.2</ele>
        <time>2018-04-10T08:15:31Z</time>
      </trkpt>
      <trkpt lat="41.4157100" lon="2.1099110">
        <ele>394.0</ele>
        <time>2018-04-10T08:15:33Z</time>
      </trkpt>
      <trkpt lat="41.4156300" lon="2.1098050">
        <ele>394.0</ele>
        <time>2018-04-10T08:15:35Z</time>
      </trkpt>
      <trkpt lat="41.4155520" lon="2.1096900">
        <ele>393.8</ele>
        <time>2018-04-10T08:15:37Z</time>
      </trkpt>
      <trkpt lat="41.4154690" lon="2.1095600">
        <ele>393.2</ele>
        <time>2018-04-10T08:15:39Z</time>
      </trkpt>
      <trkpt lat="41.4153880" lon="2.1094120">
        <ele>392.6</ele>
        <time>2018-04-10T08:15:41Z</time>
      </trkpt>
      <trkpt lat="41.4153000" lon="2.1092410">
        <ele>392.2</ele>
        <time>2018-04-10T08:15:43Z</time>
      </trkpt>
      <trkpt lat="41.4151980" lon="2.1090590">
        <ele>391.6</ele>
        <time>2018-04-10T08:15:45Z</time>
      </trkpt>
      <trkpt lat="41.4150880" lon="2.1088640">
        <ele>391.0</ele>
        <time>2018-04-10T08:15:47Z</time>
      </trkpt>
      <trkpt lat="41.4150280" lon="2.1087600">
        <ele>390.6</ele>
        <time>2018-04-10T08:15:48Z</time>
      </trkpt>
      <trkpt lat="41.4149700" lon="2.1086570">
        <ele>390.4</ele>
        <time>2018-04-10T08:15:49Z</time>
      </trkpt>
      <trkpt lat="41.4148580" lon="2.1084360">
        <ele>389.6</ele>
        <time>2018-04-10T08:15:51Z</time>
      </trkpt>
      <trkpt lat="41.4148090" lon="2.1083140">
        <ele>389.2</ele>
        <time>2018-04-10T08:15:52Z</time>
      </trkpt>
      <trkpt lat="41.4147700" lon="2.1081900">
        <ele>388.6</ele>
        <time>2018-04-10T08:15:53Z</time>
      </trkpt>
      <trkpt lat="41.4147390" lon="2.1080710">
        <ele>388.0</ele>
        <time>2018-04-10T08:15:54Z</time>
      </trkpt>
      <trkpt lat="41.4147170" lon="2.1079590">
        <ele>387.4</ele>
        <time>2018-04-10T08:15:55Z</time>
      </trkpt>
      <trkpt lat="41.4147030" lon="2.1078520">
        <ele>386.8</ele>
        <time>2018-04-10T08:15:56Z</time>
      </trkpt>
      <trkpt lat="41.4147000" lon="2.1077410">
        <ele>386.2</ele>
        <time>2018-04-10T08:15:57Z</time>
      </trkpt>
      <trkpt lat="41.4147070" lon="2.1076260">
        <ele>385.4</ele>
        <time>2018-04-10T08:15:58Z</time>
      </trkpt>
      <trkpt lat="41.4147190" lon="2.1075110">
        <ele>384.8</ele>
        <time>2018-04-10T08:15:59Z</time>
      </trkpt>
      <trkpt lat="41.4147340" lon="2.1073900">
        <ele>384.2</ele>
        <time>2018-04-10T08:16:00Z</time>
      </trkpt>
      <trkpt lat="41.4147520" lon="2.1072700">
        <ele>383.4</ele>
        <time>2018-04-10T08:16:01Z</time>
      </trkpt>
      <trkpt lat="41.4147660" lon="2.1071530">
        <ele>382.2</ele>
        <time>2018-04-10T08:16:02Z</time>
      </trkpt>
      <trkpt lat="41.4147720" lon="2.1070390">
        <ele>381.8</ele>
        <time>2018-04-10T08:16:03Z</time>
      </trkpt>
      <trkpt lat="41.4147520" lon="2.1068160">
        <ele>380.8</ele>
        <time>2018-04-10T08:16:05Z</time>
      </trkpt>
      <trkpt lat="41.4146750" lon="2.1066030">
        <ele>380.0</ele>
        <time>2018-04-10T08:16:07Z</time>
      </trkpt>
      <trkpt lat="41.4146230" lon="2.1065030">
        <ele>379.4</ele>
        <time>2018-04-10T08:16:08Z</time>
      </trkpt>
      <trkpt lat="41.4145660" lon="2.1064090">
        <ele>378.8</ele>
        <time>2018-04-10T08:16:09Z</time>
      </trkpt>
      <trkpt lat="41.4145040" lon="2.1063180">
        <ele>378.0</ele>
        <time>2018-04-10T08:16:10Z</time>
      </trkpt>
      <trkpt lat="41.4144460" lon="2.1062360">
        <ele>377.6</ele>
        <time>2018-04-10T08:16:11Z</time>
      </trkpt>
      <trkpt lat="41.4143860" lon="2.1061640">
        <ele>377.0</ele>
        <time>2018-04-10T08:16:12Z</time>
      </trkpt>
      <trkpt lat="41.4143320" lon="2.1060950">
        <ele>376.4</ele>
        <time>2018-04-10T08:16:13Z</time>
      </trkpt>
      <trkpt lat="41.4142920" lon="2.1060280">
        <ele>375.8</ele>
        <time>2018-04-10T08:16:14Z</time>
      </trkpt>
      <trkpt lat="41.4142710" lon="2.1059600">
        <ele>375.2</ele>
        <time>2018-04-10T08:16:15Z</time>
      </trkpt>
      <trkpt lat="41.4142770" lon="2.1058840">
        <ele>374.6</ele>
        <time>2018-04-10T08:16:16Z</time>
      </trkpt>
      <trkpt lat="41.4143050" lon="2.1058020">
        <ele>374.0</ele>
        <time>2018-04-10T08:16:17Z</time>
      </trkpt>
      <trkpt lat="41.4143540" lon="2.1057240">
        <ele>373.4</ele>
        <time>2018-04-10T08:16:18Z</time>
      </trkpt>
      <trkpt lat="41.4144100" lon="2.1056480">
        <ele>372.8</ele>
        <time>2018-04-10T08:16:19Z</time>
      </trkpt>
      <trkpt lat="41.4145060" lon="2.1055080">
        <ele>372.0</ele>
        <time>2018-04-10T08:16:21Z</time>
      </trkpt>
      <trkpt lat="41.4145250" lon="2.1053350">
        <ele>371.0</ele>
        <time>2018-04-10T08:16:23Z</time>
      </trkpt>
      <trkpt lat="41.4144990" lon="2.1052370">
        <ele>370.4</ele>
        <time>2018-04-10T08:16:24Z</time>
      </trkpt>
      <trkpt lat="41.4144610" lon="2.1051410">
        <ele>370.0</ele>
        <time>2018-04-10T08:16:25Z</time>
      </trkpt>
      <trkpt lat="41.4143430" lon="2.1049520">
        <ele>369.0</ele>
        <time>2018-04-10T08:16:27Z</time>
      </trkpt>
      <trkpt lat="41.4142730" lon="2.1048720">
        <ele>368.4</ele>
        <time>2018-04-10T08:16:28Z</time>
      </trkpt>
      <trkpt lat="41.4141970" lon="2.1048010">
        <ele>367.6</ele>
        <time>2018-04-10T08:16:29Z</time>
      </trkpt>
      <trkpt lat="41.4140310" lon="2.1047140">
        <ele>365.6</ele>
        <time>2018-04-10T08:16:31Z</time>
      </trkpt>
      <trkpt lat="41.4138550" lon="2.1047000">
        <ele>364.0</ele>
        <time>2018-04-10T08:16:33Z</time>
      </trkpt>
      <trkpt lat="41.4137650" lon="2.1047110">
        <ele>363.4</ele>
        <time>2018-04-10T08:16:34Z</time>
      </trkpt>
      <trkpt lat="41.4136800" lon="2.1047240">
        <ele>362.4</ele>
        <time>2018-04-10T08:16:35Z</time>
      </trkpt>
      <trkpt lat="41.4135260" lon="2.1047490">
        <ele>360.8</ele>
        <time>2018-04-10T08:16:37Z</time>
      </trkpt>
      <trkpt lat="41.4134570" lon="2.1047660">
        <ele>360.0</ele>
        <time>2018-04-10T08:16:38Z</time>
      </trkpt>
      <trkpt lat="41.4133950" lon="2.1047760">
        <ele>359.0</ele>
        <time>2018-04-10T08:16:39Z</time>
      </trkpt>
      <trkpt lat="41.4133430" lon="2.1047810">
        <ele>358.2</ele>
        <time>2018-04-10T08:16:40Z</time>
      </trkpt>
      <trkpt lat="41.4132960" lon="2.1047700">
        <ele>357.4</ele>
        <time>2018-04-10T08:16:41Z</time>
      </trkpt>
      <trkpt lat="41.4132420" lon="2.1047470">
        <ele>356.0</ele>
        <time>2018-04-10T08:16:43Z</time>
      </trkpt>
      <trkpt lat="41.4132310" lon="2.1046980">
        <ele>354.8</ele>
        <time>2018-04-10T08:16:45Z</time>
      </trkpt>
      <trkpt lat="41.4133040" lon="2.1046470">
        <ele>353.4</ele>
        <time>2018-04-10T08:16:47Z</time>
      </trkpt>
      <trkpt lat="41.4133450" lon="2.1046160">
        <ele>353.0</ele>
        <time>2018-04-10T08:16:48Z</time>
      </trkpt>
      <trkpt lat="41.4133940" lon="2.1045870">
        <ele>352.6</ele>
        <time>2018-04-10T08:16:49Z</time>
      </trkpt>
      <trkpt lat="41.4134480" lon="2.1045500">
        <ele>352.0</ele>
        <time>2018-04-10T08:16:50Z</time>
      </trkpt>
      <trkpt lat="41.4135050" lon="2.1045140">
        <ele>351.4</ele>
        <time>2018-04-10T08:16:51Z</time>
      </trkpt>
      <trkpt lat="41.4135630" lon="2.1044730">
        <ele>351.0</ele>
        <time>2018-04-10T08:16:52Z</time>
      </trkpt>
      <trkpt lat="41.4136330" lon="2.1044820">
        <ele>350.6</ele>
        <time>2018-04-10T08:16:53Z</time>
      </trkpt>
      <trkpt lat="41.4137760" lon="2.1045060">
        <ele>350.0</ele>
        <time>2018-04-10T08:16:55Z</time>
      </trkpt>
      <trkpt lat="41.4139250" lon="2.1044970">
        <ele>349.4</ele>
        <time>2018-04-10T08:16:57Z</time>
      </trkpt>
      <trkpt lat="41.4139980" lon="2.1044960">
        <ele>348.8</ele>
        <time>2018-04-10T08:16:58Z</time>
      </trkpt>
      <trkpt lat="41.4140780" lon="2.1044910">
        <ele>348.6</ele>
        <time>2018-04-10T08:16:59Z</time>
      </trkpt>
      <trkpt lat="41.4141560" lon="2.1044880">
        <ele>347.6</ele>
        <time>2018-04-10T08:17:00Z</time>
      </trkpt>
      <trkpt lat="41.4142360" lon="2.1044860">
        <ele>347.2</ele>
        <time>2018-04-10T08:17:01Z</time>
      </trkpt>
      <trkpt lat="41.4143980" lon="2.1044810">
        <ele>346.4</ele>
        <time>2018-04-10T08:17:03Z</time>
      </trkpt>
      <trkpt lat="41.4145590" lon="2.1044710">
        <ele>345.8</ele>
        <time>2018-04-10T08:17:05Z</time>
      </trkpt>
      <trkpt lat="41.4146440" lon="2.1044690">
        <ele>345.4</ele>
        <time>2018-04-10T08:17:06Z</time>
      </trkpt>
      <trkpt lat="41.4147250" lon="2.1044890">
        <ele>345.0</ele>
        <time>2018-04-10T08:17:07Z</time>
      </trkpt>
      <trkpt lat="41.4148450" lon="2.1046100">
        <ele>344.6</ele>
        <time>2018-04-10T08:17:09Z</time>
      </trkpt>
      <trkpt lat="41.4149750" lon="2.1047290">
        <ele>344.2</ele>
        <time>2018-04-10T08:17:11Z</time>
      </trkpt>
      <trkpt lat="41.4151200" lon="2.1047330">
        <ele>343.6</ele>
        <time>2018-04-10T08:17:13Z</time>
      </trkpt>
      <trkpt lat="41.4152550" lon="2.1046310">
        <ele>343.0</ele>
        <time>2018-04-10T08:17:15Z</time>
      </trkpt>
      <trkpt lat="41.4153260" lon="2.1045670">
        <ele>342.8</ele>
        <time>2018-04-10T08:17:16Z</time>
      </trkpt>
      <trkpt lat="41.4153970" lon="2.1044990">
        <ele>342.2</ele>
        <time>2018-04-10T08:17:17Z</time>
      </trkpt>
      <trkpt lat="41.4154720" lon="2.1044300">
        <ele>341.8</ele>
        <time>2018-04-10T08:17:18Z</time>
      </trkpt>
      <trkpt lat="41.4155520" lon="2.1043590">
        <ele>341.4</ele>
        <time>2018-04-10T08:17:19Z</time>
      </trkpt>
      <trkpt lat="41.4157080" lon="2.1042090">
        <ele>340.6</ele>
        <time>2018-04-10T08:17:21Z</time>
      </trkpt>
      <trkpt lat="41.4158700" lon="2.1040560">
        <ele>339.8</ele>
        <time>2018-04-10T08:17:23Z</time>
      </trkpt>
      <trkpt lat="41.4159510" lon="2.1039880">
        <ele>339.6</ele>
        <time>2018-04-10T08:17:24Z</time>
      </trkpt>
      <trkpt lat="41.4160300" lon="2.1039310">
        <ele>339.2</ele>
        <time>2018-04-10T08:17:25Z</time>
      </trkpt>
      <trkpt lat="41.4161990" lon="2.1038720">
        <ele>338.2</ele>
        <time>2018-04-10T08:17:27Z</time>
      </trkpt>
      <trkpt lat="41.4163470" lon="2.1039640">
        <ele>336.4</ele>
        <time>2018-04-10T08:17:29Z</time>
      </trkpt>
      <trkpt lat="41.4165010" lon="2.1040660">
        <ele>335.2</ele>
        <time>2018-04-10T08:17:31Z</time>
      </trkpt>
      <trkpt lat="41.4166650" lon="2.1040530">
        <ele>334.2</ele>
        <time>2018-04-10T08:17:33Z</time>
      </trkpt>
      <trkpt lat="41.4168360" lon="2.1039470">
        <ele>333.4</ele>
        <time>2018-04-10T08:17:35Z</time>
      </trkpt>
      <trkpt lat="41.4169220" lon="2.1038960">
        <ele>332.8</ele>
        <time>2018-04-10T08:17:36Z</time>
      </trkpt>
      <trkpt lat="41.4170110" lon="2.1038710">
        <ele>332.4</ele>
        <time>2018-04-10T08:17:37Z</time>
      </trkpt>
      <trkpt lat="41.4171010" lon="2.1038780">
        <ele>331.8</ele>
        <time>2018-04-10T08:17:38Z</time>
      </trkpt>
      <trkpt lat="41.4171760" lon="2.1039270">
        <ele>331.0</ele>
        <time>2018-04-10T08:17:39Z</time>
      </trkpt>
      <trkpt lat="41.4172340" lon="2.1040060">
        <ele>330.6</ele>
        <time>2018-04-10T08:17:40Z</time>
      </trkpt>
      <trkpt lat="41.4172680" lon="2.1041090">
        <ele>329.8</ele>
        <time>2018-04-10T08:17:41Z</time>
      </trkpt>
      <trkpt lat="41.4172740" lon="2.1042290">
        <ele>329.2</ele>
        <time>2018-04-10T08:17:42Z</time>
      </trkpt>
      <trkpt lat="41.4172510" lon="2.1043500">
        <ele>328.8</ele>
        <time>2018-04-10T08:17:43Z</time>
      </trkpt>
      <trkpt lat="41.4171640" lon="2.1045820">
        <ele>328.0</ele>
        <time>2018-04-10T08:17:45Z</time>
      </trkpt>
      <trkpt lat="41.4170970" lon="2.1048070">
        <ele>327.0</ele>
        <time>2018-04-10T08:17:47Z</time>
      </trkpt>
      <trkpt lat="41.4170940" lon="2.1049120">
        <ele>326.4</ele>
        <time>2018-04-10T08:17:48Z</time>
      </trkpt>
      <trkpt lat="41.4171190" lon="2.1050100">
        <ele>325.8</ele>
        <time>2018-04-10T08:17:49Z</time>
      </trkpt>
      <trkpt lat="41.4171660" lon="2.1050890">
        <ele>325.2</ele>
        <time>2018-04-10T08:17:50Z</time>
      </trkpt>
      <trkpt lat="41.4172300" lon="2.1051440">
        <ele>324.6</ele>
        <time>2018-04-10T08:17:51Z</time>
      </trkpt>
      <trkpt lat="41.4173100" lon="2.1051800">
        <ele>324.0</ele>
        <time>2018-04-10T08:17:52Z</time>
      </trkpt>
      <trkpt lat="41.4173940" lon="2.1052060">
        <ele>323.6</ele>
        <time>2018-04-10T08:17:53Z</time>
      </trkpt>
      <trkpt lat="41.4174800" lon="2.1052310">
        <ele>323.0</ele>
        <time>2018-04-10T08:17:54Z</time>
      </trkpt>
      <trkpt lat="41.4175680" lon="2.1052530">
        <ele>322.6</ele>
        <time>2018-04-10T08:17:55Z</time>
      </trkpt>
      <trkpt lat="41.4177550" lon="2.1052970">
        <ele>321.6</ele>
        <time>2018-04-10T08:17:57Z</time>
      </trkpt>
      <trkpt lat="41.4179210" lon="2.1053600">
        <ele>320.4</ele>
        <time>2018-04-10T08:17:59Z</time>
      </trkpt>
      <trkpt lat="41.4180210" lon="2.1054940">
        <ele>319.6</ele>
        <time>2018-04-10T08:18:01Z</time>
      </trkpt>
      <trkpt lat="41.4180310" lon="2.1055940">
        <ele>319.2</ele>
        <time>2018-04-10T08:18:02Z</time>
      </trkpt>
      <trkpt lat="41.4180230" lon="2.1057020">
        <ele>318.6</ele>
        <time>2018-04-10T08:18:03Z</time>
      </trkpt>
      <trkpt lat="41.4180070" lon="2.1058150">
        <ele>318.2</ele>
        <time>2018-04-10T08:18:04Z</time>
      </trkpt>
      <trkpt lat="41.4179920" lon="2.1059330">
        <ele>317.6</ele>
        <time>2018-04-10T08:18:05Z</time>
      </trkpt>
      <trkpt lat="41.4179670" lon="2.1061760">
        <ele>316.8</ele>
        <time>2018-04-10T08:18:07Z</time>
      </trkpt>
      <trkpt lat="41.4178980" lon="2.1064130">
        <ele>316.0</ele>
        <time>2018-04-10T08:18:09Z</time>
      </trkpt>
      <trkpt lat="41.4178470" lon="2.1065250">
        <ele>315.4</ele>
        <time>2018-04-10T08:18:10Z</time>
      </trkpt>
      <trkpt lat="41.4177940" lon="2.1066320">
        <ele>315.0</ele>
        <time>2018-04-10T08:18:11Z</time>
      </trkpt>
      <trkpt lat="41.4177470" lon="2.1067440">
        <ele>314.6</ele>
        <time>2018-04-10T08:18:12Z</time>
      </trkpt>
      <trkpt lat="41.4177180" lon="2.1068590">
        <ele>314.2</ele>
        <time>2018-04-10T08:18:13Z</time>
      </trkpt>
      <trkpt lat="41.4177210" lon="2.1070990">
        <ele>313.0</ele>
        <time>2018-04-10T08:18:15Z</time>
      </trkpt>
      <trkpt lat="41.4178110" lon="2.1073200">
        <ele>312.0</ele>
        <time>2018-04-10T08:18:17Z</time>
      </trkpt>
      <trkpt lat="41.4179550" lon="2.1074620">
        <ele>311.0</ele>
        <time>2018-04-10T08:18:19Z</time>
      </trkpt>
      <trkpt lat="41.4181240" lon="2.1074280">
        <ele>310.0</ele>
        <time>2018-04-10T08:18:21Z</time>
      </trkpt>
      <trkpt lat="41.4181880" lon="2.1073580">
        <ele>309.6</ele>
        <time>2018-04-10T08:18:22Z</time>
      </trkpt>
      <trkpt lat="41.4182390" lon="2.1072660">
        <ele>309.0</ele>
        <time>2018-04-10T08:18:23Z</time>
      </trkpt>
      <trkpt lat="41.4182870" lon="2.1071640">
        <ele>308.4</ele>
        <time>2018-04-10T08:18:24Z</time>
      </trkpt>
      <trkpt lat="41.4183390" lon="2.1070690">
        <ele>307.8</ele>
        <time>2018-04-10T08:18:25Z</time>
      </trkpt>
      <trkpt lat="41.4184700" lon="2.1069140">
        <ele>306.6</ele>
        <time>2018-04-10T08:18:27Z</time>
      </trkpt>
      <trkpt lat="41.4186220" lon="2.1068010">
        <ele>305.8</ele>
        <time>2018-04-10T08:18:29Z</time>
      </trkpt>
      <trkpt lat="41.4186990" lon="2.1067610">
        <ele>305.6</ele>
        <time>2018-04-10T08:18:30Z</time>
      </trkpt>
      <trkpt lat="41.4187800" lon="2.1067510">
        <ele>305.6</ele>
        <time>2018-04-10T08:18:31Z</time>
      </trkpt>
      <trkpt lat="41.4189370" lon="2.1068480">
        <ele>305.2</ele>
        <time>2018-04-10T08:18:33Z</time>
      </trkpt>
      <trkpt lat="41.4190750" lon="2.1070030">
        <ele>304.6</ele>
        <time>2018-04-10T08:18:35Z</time>
      </trkpt>
      <trkpt lat="41.4191450" lon="2.1070820">
        <ele>304.4</ele>
        <time>2018-04-10T08:18:36Z</time>
      </trkpt>
      <trkpt lat="41.4192220" lon="2.1071570">
        <ele>304.2</ele>
        <time>2018-04-10T08:18:37Z</time>
      </trkpt>
      <trkpt lat="41.4193950" lon="2.1072930">
        <ele>303.4</ele>
        <time>2018-04-10T08:18:39Z</time>
      </trkpt>
      <trkpt lat="41.4195820" lon="2.1074230">
        <ele>302.4</ele>
        <time>2018-04-10T08:18:41Z</time>
      </trkpt>
      <trkpt lat="41.4196770" lon="2.1074870">
        <ele>301.8</ele>
        <time>2018-04-10T08:18:42Z</time>
      </trkpt>
      <trkpt lat="41.4197710" lon="2.1075560">
        <ele>301.4</ele>
        <time>2018-04-10T08:18:43Z</time>
      </trkpt>
      <trkpt lat="41.4199450" lon="2.1077180">
        <ele>300.4</ele>
        <time>2018-04-10T08:18:45Z</time>
      </trkpt>
      <trkpt lat="41.4200660" lon="2.1079510">
        <ele>299.4</ele>
        <time>2018-04-10T08:18:47Z</time>
      </trkpt>
      <trkpt lat="41.4201180" lon="2.1080770">
        <ele>299.0</ele>
        <time>2018-04-10T08:18:48Z</time>
      </trkpt>
      <trkpt lat="41.4201830" lon="2.1081880">
        <ele>298.6</ele>
        <time>2018-04-10T08:18:49Z</time>
      </trkpt>
      <trkpt lat="41.4202590" lon="2.1082740">
        <ele>298.0</ele>
        <time>2018-04-10T08:18:50Z</time>
      </trkpt>
      <trkpt lat="41.4203350" lon="2.1083400">
        <ele>297.4</ele>
        <time>2018-04-10T08:18:51Z</time>
      </trkpt>
      <trkpt lat="41.4204070" lon="2.1083910">
        <ele>297.0</ele>
        <time>2018-04-10T08:18:52Z</time>
      </trkpt>
      <trkpt lat="41.4204710" lon="2.1084260">
        <ele>296.4</ele>
        <time>2018-04-10T08:18:53Z</time>
      </trkpt>
      <trkpt lat="41.4205840" lon="2.1084190">
        <ele>295.6</ele>
        <time>2018-04-10T08:18:55Z</time>
      </trkpt>
      <trkpt lat="41.4206370" lon="2.1083260">
        <ele>294.0</ele>
        <time>2018-04-10T08:18:57Z</time>
      </trkpt>
      <trkpt lat="41.4206020" lon="2.1081920">
        <ele>293.2</ele>
        <time>2018-04-10T08:18:59Z</time>
      </trkpt>
      <trkpt lat="41.4205630" lon="2.1081160">
        <ele>292.6</ele>
        <time>2018-04-10T08:19:00Z</time>
      </trkpt>
      <trkpt lat="41.4205150" lon="2.1080240">
        <ele>292.4</ele>
        <time>2018-04-10T08:19:01Z</time>
      </trkpt>
      <trkpt lat="41.4204180" lon="2.1078400">
        <ele>292.2</ele>
        <time>2018-04-10T08:19:03Z</time>
      </trkpt>
      <trkpt lat="41.4203210" lon="2.1076510">
        <ele>292.0</ele>
        <time>2018-04-10T08:19:05Z</time>
      </trkpt>
      <trkpt lat="41.4202250" lon="2.1074540">
        <ele>291.8</ele>
        <time>2018-04-10T08:19:07Z</time>
      </trkpt>
      <trkpt lat="41.4201300" lon="2.1072630">
        <ele>291.4</ele>
        <time>2018-04-10T08:19:09Z</time>
      </trkpt>
      <trkpt lat="41.4200850" lon="2.1071580">
        <ele>291.2</ele>
        <time>2018-04-10T08:19:10Z</time>
      </trkpt>
      <trkpt lat="41.4200430" lon="2.1070520">
        <ele>290.6</ele>
        <time>2018-04-10T08:19:11Z</time>
      </trkpt>
      <trkpt lat="41.4199950" lon="2.1069500">
        <ele>290.2</ele>
        <time>2018-04-10T08:19:12Z</time>
      </trkpt>
      <trkpt lat="41.4199430" lon="2.1068550">
        <ele>289.6</ele>
        <time>2018-04-10T08:19:13Z</time>
      </trkpt>
      <trkpt lat="41.4198850" lon="2.1067630">
        <ele>289.2</ele>
        <time>2018-04-10T08:19:14Z</time>
      </trkpt>
      <trkpt lat="41.4198170" lon="2.1066780">
        <ele>288.6</ele>
        <time>2018-04-10T08:19:15Z</time>
      </trkpt>
      <trkpt lat="41.4196720" lon="2.1065290">
        <ele>288.0</ele>
        <time>2018-04-10T08:19:17Z</time>
      </trkpt>
      <trkpt lat="41.4195910" lon="2.1064560">
        <ele>287.6</ele>
        <time>2018-04-10T08:19:18Z</time>
      </trkpt>
      <trkpt lat="41.4195160" lon="2.1063770">
        <ele>287.4</ele>
        <time>2018-04-10T08:19:19Z</time>
      </trkpt>
      <trkpt lat="41.4194060" lon="2.1061870">
        <ele>286.6</ele>
        <time>2018-04-10T08:19:21Z</time>
      </trkpt>
      <trkpt lat="41.4193650" lon="2.1060770">
        <ele>286.4</ele>
        <time>2018-04-10T08:19:22Z</time>
      </trkpt>
      <trkpt lat="41.4193320" lon="2.1059600">
        <ele>286.0</ele>
        <time>2018-04-10T08:19:23Z</time>
      </trkpt>
      <trkpt lat="41.4192630" lon="2.1057320">
        <ele>285.2</ele>
        <time>2018-04-10T08:19:25Z</time>
      </trkpt>
      <trkpt lat="41.4192310" lon="2.1056170">
        <ele>283.8</ele>
        <time>2018-04-10T08:19:26Z</time>
      </trkpt>
      <trkpt lat="41.4192040" lon="2.1055030">
        <ele>282.8</ele>
        <time>2018-04-10T08:19:27Z</time>
      </trkpt>
      <trkpt lat="41.4191820" lon="2.1053860">
        <ele>282.4</ele>
        <time>2018-04-10T08:19:28Z</time>
      </trkpt>
      <trkpt lat="41.4191680" lon="2.1052630">
        <ele>282.0</ele>
        <time>2018-04-10T08:19:29Z</time>
      </trkpt>
      <trkpt lat="41.4191590" lon="2.1050200">
        <ele>281.2</ele>
        <time>2018-04-10T08:19:31Z</time>
      </trkpt>
      <trkpt lat="41.4191500" lon="2.1047760">
        <ele>280.4</ele>
        <time>2018-04-10T08:19:33Z</time>
      </trkpt>
      <trkpt lat="41.4191450" lon="2.1045330">
        <ele>279.8</ele>
        <time>2018-04-10T08:19:35Z</time>
      </trkpt>
      <trkpt lat="41.4191370" lon="2.1044100">
        <ele>279.4</ele>
        <time>2018-04-10T08:19:36Z</time>
      </trkpt>
      <trkpt lat="41.4191270" lon="2.1042860">
        <ele>279.0</ele>
        <time>2018-04-10T08:19:37Z</time>
      </trkpt>
      <trkpt lat="41.4191220" lon="2.1041650">
        <ele>278.4</ele>
        <time>2018-04-10T08:19:38Z</time>
      </trkpt>
      <trkpt lat="41.4191180" lon="2.1040440">
        <ele>278.0</ele>
        <time>2018-04-10T08:19:39Z</time>
      </trkpt>
      <trkpt lat="41.4191130" lon="2.1039210">
        <ele>277.4</ele>
        <time>2018-04-10T08:19:40Z</time>
      </trkpt>
      <trkpt lat="41.4191030" lon="2.1037980">
        <ele>277.0</ele>
        <time>2018-04-10T08:19:41Z</time>
      </trkpt>
      <trkpt lat="41.4190640" lon="2.1035550">
        <ele>276.2</ele>
        <time>2018-04-10T08:19:43Z</time>
      </trkpt>
      <trkpt lat="41.4190030" lon="2.1033110">
        <ele>275.4</ele>
        <time>2018-04-10T08:19:45Z</time>
      </trkpt>
      <trkpt lat="41.4189680" lon="2.1031880">
        <ele>275.0</ele>
        <time>2018-04-10T08:19:46Z</time>
      </trkpt>
      <trkpt lat="41.4189320" lon="2.1030650">
        <ele>274.6</ele>
        <time>2018-04-10T08:19:47Z</time>
      </trkpt>
      <trkpt lat="41.4188570" lon="2.1028200">
        <ele>274.0</ele>
        <time>2018-04-10T08:19:49Z</time>
      </trkpt>
      <trkpt lat="41.4188200" lon="2.1026970">
        <ele>273.6</ele>
        <time>2018-04-10T08:19:50Z</time>
      </trkpt>
      <trkpt lat="41.4187820" lon="2.1025770">
        <ele>273.4</ele>
        <time>2018-04-10T08:19:51Z</time>
      </trkpt>
      <trkpt lat="41.4187060" lon="2.1023310">
        <ele>272.8</ele>
        <time>2018-04-10T08:19:53Z</time>
      </trkpt>
      <trkpt lat="41.4186670" lon="2.1022020">
        <ele>272.4</ele>
        <time>2018-04-10T08:19:54Z</time>
      </trkpt>
      <trkpt lat="41.4186360" lon="2.1020730">
        <ele>271.8</ele>
        <time>2018-04-10T08:19:55Z</time>
      </trkpt>
      <trkpt lat="41.4186220" lon="2.1019410">
        <ele>271.0</ele>
        <time>2018-04-10T08:19:56Z</time>
      </trkpt>
      <trkpt lat="41.4186300" lon="2.1018120">
        <ele>270.6</ele>
        <time>2018-04-10T08:19:57Z</time>
      </trkpt>
      <trkpt lat="41.4186820" lon="2.1015600">
        <ele>269.8</ele>
        <time>2018-04-10T08:19:59Z</time>
      </trkpt>
      <trkpt lat="41.4187400" lon="2.1013110">
        <ele>268.8</ele>
        <time>2018-04-10T08:20:01Z</time>
      </trkpt>
      <trkpt lat="41.4187660" lon="2.1011870">
        <ele>268.4</ele>
        <time>2018-04-10T08:20:02Z</time>
      </trkpt>
      <trkpt lat="41.4187940" lon="2.1010640">
        <ele>268.0</ele>
        <time>2018-04-10T08:20:03Z</time>
      </trkpt>
      <trkpt lat="41.4188610" lon="2.1008260">
        <ele>267.2</ele>
        <time>2018-04-10T08:20:05Z</time>
      </trkpt>
      <trkpt lat="41.4189320" lon="2.1005860">
        <ele>266.2</ele>
        <time>2018-04-10T08:20:07Z</time>
      </trkpt>
      <trkpt lat="41.4189660" lon="2.1004650">
        <ele>265.8</ele>
        <time>2018-04-10T08:20:08Z</time>
      </trkpt>
      <trkpt lat="41.4190010" lon="2.1003430">
        <ele>265.2</ele>
        <time>2018-04-10T08:20:09Z</time>
      </trkpt>
      <trkpt lat="41.4190730" lon="2.1000910">
        <ele>264.2</ele>
        <time>2018-04-10T08:20:11Z</time>
      </trkpt>
      <trkpt lat="41.4191450" lon="2.0998440">
        <ele>263.4</ele>
        <time>2018-04-10T08:20:13Z</time>
      </trkpt>
      <trkpt lat="41.4191840" lon="2.0997190">
        <ele>262.8</ele>
        <time>2018-04-10T08:20:14Z</time>
      </trkpt>
      <trkpt lat="41.4192190" lon="2.0995850">
        <ele>262.4</ele>
        <time>2018-04-10T08:20:15Z</time>
      </trkpt>
      <trkpt lat="41.4192440" lon="2.0994460">
        <ele>261.8</ele>
        <time>2018-04-10T08:20:16Z</time>
      </trkpt>
      <trkpt lat="41.4192570" lon="2.0993020">
        <ele>261.2</ele>
        <time>2018-04-10T08:20:17Z</time>
      </trkpt>
      <trkpt lat="41.4192460" lon="2.0990200">
        <ele>260.4</ele>
        <time>2018-04-10T08:20:19Z</time>
      </trkpt>
      <trkpt lat="41.4191740" lon="2.0987430">
        <ele>259.2</ele>
        <time>2018-04-10T08:20:21Z</time>
      </trkpt>
      <trkpt lat="41.4191210" lon="2.0986210">
        <ele>258.6</ele>
        <time>2018-04-10T08:20:22Z</time>
      </trkpt>
      <trkpt lat="41.4190720" lon="2.0985000">
        <ele>258.0</ele>
        <time>2018-04-10T08:20:23Z</time>
      </trkpt>
      <trkpt lat="41.4190330" lon="2.0983750">
        <ele>257.4</ele>
        <time>2018-04-10T08:20:24Z</time>
      </trkpt>
      <trkpt lat="41.4190140" lon="2.0982440">
        <ele>256.0</ele>
        <time>2018-04-10T08:20:25Z</time>
      </trkpt>
      <trkpt lat="41.4190250" lon="2.0979840">
        <ele>254.8</ele>
        <time>2018-04-10T08:20:27Z</time>
      </trkpt>
      <trkpt lat="41.4190980" lon="2.0977420">
        <ele>253.8</ele>
        <time>2018-04-10T08:20:29Z</time>
      </trkpt>
      <trkpt lat="41.4191500" lon="2.0976190">
        <ele>253.2</ele>
        <time>2018-04-10T08:20:30Z</time>
      </trkpt>
      <trkpt lat="41.4192100" lon="2.0975050">
        <ele>252.6</ele>
        <time>2018-04-10T08:20:31Z</time>
      </trkpt>
      <trkpt lat="41.4192750" lon="2.0973950">
        <ele>252.0</ele>
        <time>2018-04-10T08:20:32Z</time>
      </trkpt>
      <trkpt lat="41.4193450" lon="2.0972920">
        <ele>251.4</ele>
        <time>2018-04-10T08:20:33Z</time>
      </trkpt>
      <trkpt lat="41.4194220" lon="2.0971950">
        <ele>250.8</ele>
        <time>2018-04-10T08:20:34Z</time>
      </trkpt>
      <trkpt lat="41.4195040" lon="2.0971020">
        <ele>250.2</ele>
        <time>2018-04-10T08:20:35Z</time>
      </trkpt>
      <trkpt lat="41.4195890" lon="2.0970170">
        <ele>249.6</ele>
        <time>2018-04-10T08:20:36Z</time>
      </trkpt>
      <trkpt lat="41.4196770" lon="2.0969340">
        <ele>249.0</ele>
        <time>2018-04-10T08:20:37Z</time>
      </trkpt>
      <trkpt lat="41.4197660" lon="2.0968670">
        <ele>248.4</ele>
        <time>2018-04-10T08:20:38Z</time>
      </trkpt>
      <trkpt lat="41.4198540" lon="2.0967930">
        <ele>247.8</ele>
        <time>2018-04-10T08:20:39Z</time>
      </trkpt>
      <trkpt lat="41.4199410" lon="2.0967190">
        <ele>247.4</ele>
        <time>2018-04-10T08:20:40Z</time>
      </trkpt>
      <trkpt lat="41.4200400" lon="2.0966590">
        <ele>246.8</ele>
        <time>2018-04-10T08:20:41Z</time>
      </trkpt>
      <trkpt lat="41.4201320" lon="2.0965800">
        <ele>246.2</ele>
        <time>2018-04-10T08:20:42Z</time>
      </trkpt>
      <trkpt lat="41.4202190" lon="2.0964900">
        <ele>246.0</ele>
        <time>2018-04-10T08:20:43Z</time>
      </trkpt>
      <trkpt lat="41.4203880" lon="2.0963050">
        <ele>245.2</ele>
        <time>2018-04-10T08:20:45Z</time>
      </trkpt>
      <trkpt lat="41.4205660" lon="2.0961320">
        <ele>244.2</ele>
        <time>2018-04-10T08:20:47Z</time>
      </trkpt>
      <trkpt lat="41.4206620" lon="2.0960600">
        <ele>243.8</ele>
        <time>2018-04-10T08:20:48Z</time>
      </trkpt>
      <trkpt lat="41.4207590" lon="2.0959920">
        <ele>243.2</ele>
        <time>2018-04-10T08:20:49Z</time>
      </trkpt>
      <trkpt lat="41.4209530" lon="2.0958650">
        <ele>242.4</ele>
        <time>2018-04-10T08:20:51Z</time>
      </trkpt>
      <trkpt lat="41.4211410" lon="2.0957380">
        <ele>241.4</ele>
        <time>2018-04-10T08:20:53Z</time>
      </trkpt>
      <trkpt lat="41.4212310" lon="2.0956680">
        <ele>240.2</ele>
        <time>2018-04-10T08:20:54Z</time>
      </trkpt>
      <trkpt lat="41.4213180" lon="2.0955950">
        <ele>239.8</ele>
        <time>2018-04-10T08:20:55Z</time>
      </trkpt>
      <trkpt lat="41.4214840" lon="2.0954410">
        <ele>239.0</ele>
        <time>2018-04-10T08:20:57Z</time>
      </trkpt>
      <trkpt lat="41.4216460" lon="2.0952920">
        <ele>238.6</ele>
        <time>2018-04-10T08:20:59Z</time>
      </trkpt>
      <trkpt lat="41.4218020" lon="2.0951440">
        <ele>238.0</ele>
        <time>2018-04-10T08:21:01Z</time>
      </trkpt>
      <trkpt lat="41.4218800" lon="2.0950690">
        <ele>237.8</ele>
        <time>2018-04-10T08:21:02Z</time>
      </trkpt>
      <trkpt lat="41.4219570" lon="2.0949970">
        <ele>237.6</ele>
        <time>2018-04-10T08:21:03Z</time>
      </trkpt>
      <trkpt lat="41.4221070" lon="2.0948530">
        <ele>237.4</ele>
        <time>2018-04-10T08:21:05Z</time>
      </trkpt>
      <trkpt lat="41.4222560" lon="2.0947060">
        <ele>237.0</ele>
        <time>2018-04-10T08:21:07Z</time>
      </trkpt>
      <trkpt lat="41.4223280" lon="2.0946330">
        <ele>236.8</ele>
        <time>2018-04-10T08:21:08Z</time>
      </trkpt>
      <trkpt lat="41.4224040" lon="2.0945570">
        <ele>236.6</ele>
        <time>2018-04-10T08:21:09Z</time>
      </trkpt>
      <trkpt lat="41.4225550" lon="2.0944130">
        <ele>236.2</ele>
        <time>2018-04-10T08:21:11Z</time>
      </trkpt>
      <trkpt lat="41.4227110" lon="2.0942760">
        <ele>236.0</ele>
        <time>2018-04-10T08:21:13Z</time>
      </trkpt>
      <trkpt lat="41.4228700" lon="2.0941430">
        <ele>235.6</ele>
        <time>2018-04-10T08:21:15Z</time>
      </trkpt>
      <trkpt lat="41.4230360" lon="2.0940210">
        <ele>235.4</ele>
        <time>2018-04-10T08:21:17Z</time>
      </trkpt>
      <trkpt lat="41.4232030" lon="2.0939020">
        <ele>235.2</ele>
        <time>2018-04-10T08:21:19Z</time>
      </trkpt>
      <trkpt lat="41.4233750" lon="2.0937870">
        <ele>235.2</ele>
        <time>2018-04-10T08:21:21Z</time>
      </trkpt>
      <trkpt lat="41.4235370" lon="2.0936600">
        <ele>234.6</ele>
        <time>2018-04-10T08:21:23Z</time>
      </trkpt>
      <trkpt lat="41.4236150" lon="2.0935920">
        <ele>234.4</ele>
        <time>2018-04-10T08:21:24Z</time>
      </trkpt>
      <trkpt lat="41.4236910" lon="2.0935210">
        <ele>234.4</ele>
        <time>2018-04-10T08:21:25Z</time>
      </trkpt>
      <trkpt lat="41.4238420" lon="2.0933740">
        <ele>233.8</ele>
        <time>2018-04-10T08:21:27Z</time>
      </trkpt>
      <trkpt lat="41.4240030" lon="2.0932430">
        <ele>233.6</ele>
        <time>2018-04-10T08:21:29Z</time>
      </trkpt>
      <trkpt lat="41.4240900" lon="2.0931970">
        <ele>233.4</ele>
        <time>2018-04-10T08:21:30Z</time>
      </trkpt>
      <trkpt lat="41.4241780" lon="2.0931570">
        <ele>233.2</ele>
        <time>2018-04-10T08:21:31Z</time>
      </trkpt>
      <trkpt lat="41.4243470" lon="2.0930720">
        <ele>232.6</ele>
        <time>2018-04-10T08:21:33Z</time>
      </trkpt>
      <trkpt lat="41.4245180" lon="2.0929810">
        <ele>232.4</ele>
        <time>2018-04-10T08:21:35Z</time>
      </trkpt>
      <trkpt lat="41.4246060" lon="2.0929310">
        <ele>232.2</ele>
        <time>2018-04-10T08:21:36Z</time>
      </trkpt>
      <trkpt lat="41.4246940" lon="2.0928810">
        <ele>232.0</ele>
        <time>2018-04-10T08:21:37Z</time>
      </trkpt>
      <trkpt lat="41.4248670" lon="2.0927850">
        <ele>231.4</ele>
        <time>2018-04-10T08:21:39Z</time>
      </trkpt>
      <trkpt lat="41.4250400" lon="2.0926880">
        <ele>231.0</ele>
        <time>2018-04-10T08:21:41Z</time>
      </trkpt>
      <trkpt lat="41.4252100" lon="2.0925870">
        <ele>230.4</ele>
        <time>2018-04-10T08:21:43Z</time>
      </trkpt>
      <trkpt lat="41.4253820" lon="2.0924840">
        <ele>229.8</ele>
        <time>2018-04-10T08:21:45Z</time>
      </trkpt>
      <trkpt lat="41.4255550" lon="2.0923880">
        <ele>228.8</ele>
        <time>2018-04-10T08:21:47Z</time>
      </trkpt>
      <trkpt lat="41.4256410" lon="2.0923380">
        <ele>228.4</ele>
        <time>2018-04-10T08:21:48Z</time>
      </trkpt>
      <trkpt lat="41.4257260" lon="2.0922890">
        <ele>227.8</ele>
        <time>2018-04-10T08:21:49Z</time>
      </trkpt>
      <trkpt lat="41.4258950" lon="2.0921960">
        <ele>227.2</ele>
        <time>2018-04-10T08:21:51Z</time>
      </trkpt>
      <trkpt lat="41.4260600" lon="2.0921050">
        <ele>226.4</ele>
        <time>2018-04-10T08:21:53Z</time>
      </trkpt>
      <trkpt lat="41.4262240" lon="2.0920130">
        <ele>226.0</ele>
        <time>2018-04-10T08:21:55Z</time>
      </trkpt>
      <trkpt lat="41.4263880" lon="2.0919220">
        <ele>225.8</ele>
        <time>2018-04-10T08:21:57Z</time>
      </trkpt>
      <trkpt lat="41.4265500" lon="2.0918330">
        <ele>225.4</ele>
        <time>2018-04-10T08:21:59Z</time>
      </trkpt>
      <trkpt lat="41.4267160" lon="2.0917410">
        <ele>225.0</ele>
        <time>2018-04-10T08:22:01Z</time>
      </trkpt>
      <trkpt lat="41.4268860" lon="2.0916520">
        <ele>224.8</ele>
        <time>2018-04-10T08:22:03Z</time>
      </trkpt>
      <trkpt lat="41.4270540" lon="2.0915670">
        <ele>224.6</ele>
        <time>2018-04-10T08:22:05Z</time>
      </trkpt>
      <trkpt lat="41.4272130" lon="2.0914700">
        <ele>224.6</ele>
        <time>2018-04-10T08:22:07Z</time>
      </trkpt>
      <trkpt lat="41.4273620" lon="2.0913680">
        <ele>224.4</ele>
        <time>2018-04-10T08:22:09Z</time>
      </trkpt>
      <trkpt lat="41.4275230" lon="2.0912840">
        <ele>224.4</ele>
        <time>2018-04-10T08:22:11Z</time>
      </trkpt>
      <trkpt lat="41.4276950" lon="2.0912220">
        <ele>224.2</ele>
        <time>2018-04-10T08:22:13Z</time>
      </trkpt>
      <trkpt lat="41.4278820" lon="2.0911490">
        <ele>224.2</ele>
        <time>2018-04-10T08:22:15Z</time>
      </trkpt>
      <trkpt lat="41.4279780" lon="2.0911050">
        <ele>224.0</ele>
        <time>2018-04-10T08:22:16Z</time>
      </trkpt>
      <trkpt lat="41.4280760" lon="2.0910540">
        <ele>223.8</ele>
        <time>2018-04-10T08:22:17Z</time>
      </trkpt>
      <trkpt lat="41.4281750" lon="2.0909900">
        <ele>223.6</ele>
        <time>2018-04-10T08:22:18Z</time>
      </trkpt>
      <trkpt lat="41.4282710" lon="2.0909170">
        <ele>223.4</ele>
        <time>2018-04-10T08:22:19Z</time>
      </trkpt>
      <trkpt lat="41.4284580" lon="2.0907430">
        <ele>222.6</ele>
        <time>2018-04-10T08:22:21Z</time>
      </trkpt>
      <trkpt lat="41.4285390" lon="2.0906400">
        <ele>222.0</ele>
        <time>2018-04-10T08:22:22Z</time>
      </trkpt>
      <trkpt lat="41.4286040" lon="2.0905210">
        <ele>221.4</ele>
        <time>2018-04-10T08:22:23Z</time>
      </trkpt>
      <trkpt lat="41.4286870" lon="2.0902540">
        <ele>220.0</ele>
        <time>2018-04-10T08:22:25Z</time>
      </trkpt>
      <trkpt lat="41.4287200" lon="2.0899790">
        <ele>218.2</ele>
        <time>2018-04-10T08:22:27Z</time>
      </trkpt>
      <trkpt lat="41.4287240" lon="2.0898380">
        <ele>217.4</ele>
        <time>2018-04-10T08:22:28Z</time>
      </trkpt>
      <trkpt lat="41.4287250" lon="2.0897000">
        <ele>216.6</ele>
        <time>2018-04-10T08:22:29Z</time>
      </trkpt>
      <trkpt lat="41.4287250" lon="2.0895610">
        <ele>215.4</ele>
        <time>2018-04-10T08:22:30Z</time>
      </trkpt>
      <trkpt lat="41.4287230" lon="2.0894220">
        <ele>214.6</ele>
        <time>2018-04-10T08:22:31Z</time>
      </trkpt>
      <trkpt lat="41.4287180" lon="2.0892760">
        <ele>213.8</ele>
        <time>2018-04-10T08:22:32Z</time>
      </trkpt>
      <trkpt lat="41.4287150" lon="2.0891380">
        <ele>213.2</ele>
        <time>2018-04-10T08:22:33Z</time>
      </trkpt>
      <trkpt lat="41.4287130" lon="2.0888570">
        <ele>212.2</ele>
        <time>2018-04-10T08:22:35Z</time>
      </trkpt>
      <trkpt lat="41.4287210" lon="2.0885790">
        <ele>211.6</ele>
        <time>2018-04-10T08:22:37Z</time>
      </trkpt>
      <trkpt lat="41.4287310" lon="2.0884430">
        <ele>211.2</ele>
        <time>2018-04-10T08:22:38Z</time>
      </trkpt>
      <trkpt lat="41.4287460" lon="2.0883090">
        <ele>211.0</ele>
        <time>2018-04-10T08:22:39Z</time>
      </trkpt>
      <trkpt lat="41.4287900" lon="2.0880570">
        <ele>210.2</ele>
        <time>2018-04-10T08:22:41Z</time>
      </trkpt>
      <trkpt lat="41.4288310" lon="2.0878460">
        <ele>209.4</ele>
        <time>2018-04-10T08:22:43Z</time>
      </trkpt>
      <trkpt lat="41.4288460" lon="2.0877660">
        <ele>209.0</ele>
        <time>2018-04-10T08:22:44Z</time>
      </trkpt>
      <trkpt lat="41.4288610" lon="2.0877090">
        <ele>208.6</ele>
        <time>2018-04-10T08:22:45Z</time>
      </trkpt>
      <trkpt lat="41.4288840" lon="2.0876400">
        <ele>208.2</ele>
        <time>2018-04-10T08:22:47Z</time>
      </trkpt>
      <trkpt lat="41.4288790" lon="2.0876170">
        <ele>207.8</ele>
        <time>2018-04-10T08:22:48Z</time>
      </trkpt>
      <trkpt lat="41.4288680" lon="2.0876040">
        <ele>207.4</ele>
        <time>2018-04-10T08:22:49Z</time>
      </trkpt>
      <trkpt lat="41.4288440" lon="2.0875990">
        <ele>206.6</ele>
        <time>2018-04-10T08:22:51Z</time>
      </trkpt>
      <trkpt lat="41.4288330" lon="2.0876110">
        <ele>206.4</ele>
        <time>2018-04-10T08:22:52Z</time>
      </trkpt>
      <trkpt lat="41.4288220" lon="2.0876270">
        <ele>206.2</ele>
        <time>2018-04-10T08:22:53Z</time>
      </trkpt>
      <trkpt lat="41.4288050" lon="2.0876820">
        <ele>206.0</ele>
        <time>2018-04-10T08:22:55Z</time>
      </trkpt>
      <trkpt lat="41.4287790" lon="2.0877480">
        <ele>206.0</ele>
        <time>2018-04-10T08:22:57Z</time>
      </trkpt>
      <trkpt lat="41.4287640" lon="2.0877840">
        <ele>206.0</ele>
        <time>2018-04-10T08:22:58Z</time>
      </trkpt>
      <trkpt lat="41.4287490" lon="2.0878240">
        <ele>206.0</ele>
        <time>2018-04-10T08:22:59Z</time>
      </trkpt>
      <trkpt lat="41.4287180" lon="2.0878910">
        <ele>206.0</ele>
        <time>2018-04-10T08:23:01Z</time>
      </trkpt>
      <trkpt lat="41.4286970" lon="2.0879740">
        <ele>206.0</ele>
        <time>2018-04-10T08:23:03Z</time>
      </trkpt>
      <trkpt lat="41.4286800" lon="2.0880790">
        <ele>206.0</ele>
        <time>2018-04-10T08:23:05Z</time>
      </trkpt>
      <trkpt lat="41.4286680" lon="2.0882010">
        <ele>206.2</ele>
        <time>2018-04-10T08:23:07Z</time>
      </trkpt>
      <trkpt lat="41.4286560" lon="2.0883390">
        <ele>206.4</ele>
        <time>2018-04-10T08:23:09Z</time>
      </trkpt>
      <trkpt lat="41.4286440" lon="2.0884810">
        <ele>206.8</ele>
        <time>2018-04-10T08:23:11Z</time>
      </trkpt>
      <trkpt lat="41.4286320" lon="2.0886260">
        <ele>207.0</ele>
        <time>2018-04-10T08:23:13Z</time>
      </trkpt>
      <trkpt lat="41.4286300" lon="2.0887710">
        <ele>207.2</ele>
        <time>2018-04-10T08:23:15Z</time>
      </trkpt>
      <trkpt lat="41.4286260" lon="2.0889140">
        <ele>207.4</ele>
        <time>2018-04-10T08:23:17Z</time>
      </trkpt>
      <trkpt lat="41.4286240" lon="2.0889810">
        <ele>207.6</ele>
        <time>2018-04-10T08:23:18Z</time>
      </trkpt>
      <trkpt lat="41.4286210" lon="2.0890450">
        <ele>207.8</ele>
        <time>2018-04-10T08:23:19Z</time>
      </trkpt>
      <trkpt lat="41.4286150" lon="2.0891670">
        <ele>208.4</ele>
        <time>2018-04-10T08:23:21Z</time>
      </trkpt>
      <trkpt lat="41.4285860" lon="2.0892750">
        <ele>208.6</ele>
        <time>2018-04-10T08:23:23Z</time>
      </trkpt>
      <trkpt lat="41.4285610" lon="2.0893240">
        <ele>208.6</ele>
        <time>2018-04-10T08:23:24Z</time>
      </trkpt>
      <trkpt lat="41.4285340" lon="2.0893690">
        <ele>208.6</ele>
        <time>2018-04-10T08:23:25Z</time>
      </trkpt>
      <trkpt lat="41.4285050" lon="2.0894120">
        <ele>208.8</ele>
        <time>2018-04-10T08:23:26Z</time>
      </trkpt>
      <trkpt lat="41.4284780" lon="2.0894570">
        <ele>208.8</ele>
        <time>2018-04-10T08:23:27Z</time>
      </trkpt>
      <trkpt lat="41.4284300" lon="2.0895520">
        <ele>209.0</ele>
        <time>2018-04-10T08:23:29Z</time>
      </trkpt>
      <trkpt lat="41.4283920" lon="2.0896490">
        <ele>209.2</ele>
        <time>2018-04-10T08:23:31Z</time>
      </trkpt>
      <trkpt lat="41.4283650" lon="2.0897390">
        <ele>209.6</ele>
        <time>2018-04-10T08:23:33Z</time>
      </trkpt>
      <trkpt lat="41.4283560" lon="2.0897810">
        <ele>209.8</ele>
        <time>2018-04-10T08:23:34Z</time>
      </trkpt>
      <trkpt lat="41.4283430" lon="2.0898180">
        <ele>209.8</ele>
        <time>2018-04-10T08:23:35Z</time>
      </trkpt>
      <trkpt lat="41.4283110" lon="2.0898850">
        <ele>209.8</ele>
        <time>2018-04-10T08:23:37Z</time>
      </trkpt>
      <trkpt lat="41.4282830" lon="2.0899580">
        <ele>210.2</ele>
        <time>2018-04-10T08:23:39Z</time>
      </trkpt>
      <trkpt lat="41.4282620" lon="2.0900350">
        <ele>210.6</ele>
        <time>2018-04-10T08:23:41Z</time>
      </trkpt>
      <trkpt lat="41.4282310" lon="2.0901090">
        <ele>211.2</ele>
        <time>2018-04-10T08:23:43Z</time>
      </trkpt>
      <trkpt lat="41.4282090" lon="2.0901370">
        <ele>211.4</ele>
        <time>2018-04-10T08:23:44Z</time>
      </trkpt>
      <trkpt lat="41.4281840" lon="2.0901550">
        <ele>211.6</ele>
        <time>2018-04-10T08:23:45Z</time>
      </trkpt>
      <trkpt lat="41.4281540" lon="2.0901620">
        <ele>211.8</ele>
        <time>2018-04-10T08:23:46Z</time>
      </trkpt>
      <trkpt lat="41.4281260" lon="2.0901570">
        <ele>212.0</ele>
        <time>2018-04-10T08:23:47Z</time>
      </trkpt>
      <trkpt lat="41.4280780" lon="2.0901290">
        <ele>212.4</ele>
        <time>2018-04-10T08:23:49Z</time>
      </trkpt>
      <trkpt lat="41.4280580" lon="2.0901070">
        <ele>212.8</ele>
        <time>2018-04-10T08:23:50Z</time>
      </trkpt>
      <trkpt lat="41.4280390" lon="2.0900840">
        <ele>213.2</ele>
        <time>2018-04-10T08:23:51Z</time>
      </trkpt>
      <trkpt lat="41.4280010" lon="2.0900310">
        <ele>214.0</ele>
        <time>2018-04-10T08:23:53Z</time>
      </trkpt>
      <trkpt lat="41.4279600" lon="2.0899730">
        <ele>214.8</ele>
        <time>2018-04-10T08:23:55Z</time>
      </trkpt>
      <trkpt lat="41.4279380" lon="2.0899460">
        <ele>215.4</ele>
        <time>2018-04-10T08:23:56Z</time>
      </trkpt>
      <trkpt lat="41.4279170" lon="2.0899160">
        <ele>215.8</ele>
        <time>2018-04-10T08:23:57Z</time>
      </trkpt>
      <trkpt lat="41.4278790" lon="2.0898580">
        <ele>216.4</ele>
        <time>2018-04-10T08:23:59Z</time>
      </trkpt>
      <trkpt lat="41.4278410" lon="2.0898110">
        <ele>217.0</ele>
        <time>2018-04-10T08:24:01Z</time>
      </trkpt>
      <trkpt lat="41.4278130" lon="2.0897550">
        <ele>217.4</ele>
        <time>2018-04-10T08:24:03Z</time>
      </trkpt>
      <trkpt lat="41.4277990" lon="2.0897220">
        <ele>217.6</ele>
        <time>2018-04-10T08:24:04Z</time>
      </trkpt>
      <trkpt lat="41.4277850" lon="2.0896880">
        <ele>217.8</ele>
        <time>2018-04-10T08:24:05Z</time>
      </trkpt>
      <trkpt lat="41.4277620" lon="2.0896150">
        <ele>218.2</ele>
        <time>2018-04-10T08:24:07Z</time>
      </trkpt>
      <trkpt lat="41.4277320" lon="2.0895490">
        <ele>218.8</ele>
        <time>2018-04-10T08:24:09Z</time>
      </trkpt>
      <trkpt lat="41.4276750" lon="2.0894910">
        <ele>219.2</ele>
        <time>2018-04-10T08:24:11Z</time>
      </trkpt>
      <trkpt lat="41.4276250" lon="2.0894360">
        <ele>219.4</ele>
        <time>2018-04-10T08:24:13Z</time>
      </trkpt>
      <trkpt lat="41.4276130" lon="2.0894180">
        <ele>219.8</ele>
        <time>2018-04-10T08:24:14Z</time>
      </trkpt>
      <trkpt lat="41.4276080" lon="2.0893990">
        <ele>220.0</ele>
        <time>2018-04-10T08:24:15Z</time>
      </trkpt>
      <trkpt lat="41.4275690" lon="2.0893560">
        <ele>220.4</ele>
        <time>2018-04-10T08:24:17Z</time>
      </trkpt>
      <trkpt lat="41.4274940" lon="2.0893260">
        <ele>220.8</ele>
        <time>2018-04-10T08:24:19Z</time>
      </trkpt>
      <trkpt lat="41.4274220" lon="2.0892830">
        <ele>221.0</ele>
        <time>2018-04-10T08:24:21Z</time>
      </trkpt>
      <trkpt lat="41.4273690" lon="2.0892140">
        <ele>221.2</ele>
        <time>2018-04-10T08:24:23Z</time>
      </trkpt>
      <trkpt lat="41.4273300" lon="2.0891430">
        <ele>221.4</ele>
        <time>2018-04-10T08:24:25Z</time>
      </trkpt>
      <trkpt lat="41.4273030" lon="2.0890510">
        <ele>221.6</ele>
        <time>2018-04-10T08:24:27Z</time>
      </trkpt>
      <trkpt lat="41.4272920" lon="2.0889450">
        <ele>221.8</ele>
        <time>2018-04-10T08:24:29Z</time>
      </trkpt>
      <trkpt lat="41.4272780" lon="2.0888310">
        <ele>222.0</ele>
        <time>2018-04-10T08:24:31Z</time>
      </trkpt>
      <trkpt lat="41.4272490" lon="2.0887300">
        <ele>222.2</ele>
        <time>2018-04-10T08:24:33Z</time>
      </trkpt>
      <trkpt lat="41.4271950" lon="2.0886590">
        <ele>222.4</ele>
        <time>2018-04-10T08:24:35Z</time>
      </trkpt>
      <trkpt lat="41.4271350" lon="2.0886270">
        <ele>222.8</ele>
        <time>2018-04-10T08:24:37Z</time>
      </trkpt>
      <trkpt lat="41.4271070" lon="2.0886290">
        <ele>222.8</ele>
        <time>2018-04-10T08:24:38Z</time>
      </trkpt>
      <trkpt lat="41.4270780" lon="2.0886480">
        <ele>223.0</ele>
        <time>2018-04-10T08:24:39Z</time>
      </trkpt>
      <trkpt lat="41.4270530" lon="2.0886740">
        <ele>223.2</ele>
        <time>2018-04-10T08:24:40Z</time>
      </trkpt>
      <trkpt lat="41.4270330" lon="2.0887020">
        <ele>223.4</ele>
        <time>2018-04-10T08:24:41Z</time>
      </trkpt>
      <trkpt lat="41.4269930" lon="2.0887660">
        <ele>223.8</ele>
        <time>2018-04-10T08:24:43Z</time>
      </trkpt>
      <trkpt lat="41.4269480" lon="2.0888300">
        <ele>224.6</ele>
        <time>2018-04-10T08:24:45Z</time>
      </trkpt>
      <trkpt lat="41.4269070" lon="2.0888880">
        <ele>225.2</ele>
        <time>2018-04-10T08:24:47Z</time>
      </trkpt>
      <trkpt lat="41.4268820" lon="2.0889130">
        <ele>225.6</ele>
        <time>2018-04-10T08:24:48Z</time>
      </trkpt>
      <trkpt lat="41.4268600" lon="2.0889470">
        <ele>226.4</ele>
        <time>2018-04-10T08:24:49Z</time>
      </trkpt>
      <trkpt lat="41.4268430" lon="2.0889790">
        <ele>226.8</ele>
        <time>2018-04-10T08:24:50Z</time>
      </trkpt>
      <trkpt lat="41.4268230" lon="2.0890050">
        <ele>227.2</ele>
        <time>2018-04-10T08:24:51Z</time>
      </trkpt>
      <trkpt lat="41.4267720" lon="2.0890510">
        <ele>227.8</ele>
        <time>2018-04-10T08:24:53Z</time>
      </trkpt>
      <trkpt lat="41.4267450" lon="2.0890700">
        <ele>228.0</ele>
        <time>2018-04-10T08:24:54Z</time>
      </trkpt>
      <trkpt lat="41.4267190" lon="2.0890840">
        <ele>228.2</ele>
        <time>2018-04-10T08:24:55Z</time>
      </trkpt>
      <trkpt lat="41.4266610" lon="2.0891110">
        <ele>228.6</ele>
        <time>2018-04-10T08:24:57Z</time>
      </trkpt>
      <trkpt lat="41.4266010" lon="2.0891230">
        <ele>229.2</ele>
        <time>2018-04-10T08:24:59Z</time>
      </trkpt>
      <trkpt lat="41.4265410" lon="2.0891340">
        <ele>229.6</ele>
        <time>2018-04-10T08:25:01Z</time>
      </trkpt>
      <trkpt lat="41.4264710" lon="2.0891480">
        <ele>230.0</ele>
        <time>2018-04-10T08:25:03Z</time>
      </trkpt>
      <trkpt lat="41.4263940" lon="2.0891720">
        <ele>230.6</ele>
        <time>2018-04-10T08:25:05Z</time>
      </trkpt>
      <trkpt lat="41.4263220" lon="2.0892110">
        <ele>231.0</ele>
        <time>2018-04-10T08:25:07Z</time>
      </trkpt>
      <trkpt lat="41.4262890" lon="2.0892290">
        <ele>231.0</ele>
        <time>2018-04-10T08:25:08Z</time>
      </trkpt>
      <trkpt lat="41.4262570" lon="2.0892440">
        <ele>231.2</ele>
        <time>2018-04-10T08:25:09Z</time>
      </trkpt>
      <trkpt lat="41.4261990" lon="2.0892550">
        <ele>232.0</ele>
        <time>2018-04-10T08:25:11Z</time>
      </trkpt>
      <trkpt lat="41.4261700" lon="2.0892600">
        <ele>232.4</ele>
        <time>2018-04-10T08:25:12Z</time>
      </trkpt>
      <trkpt lat="41.4261430" lon="2.0892700">
        <ele>232.6</ele>
        <time>2018-04-10T08:25:13Z</time>
      </trkpt>
      <trkpt lat="41.4260850" lon="2.0892970">
        <ele>233.0</ele>
        <time>2018-04-10T08:25:15Z</time>
      </trkpt>
      <trkpt lat="41.4260470" lon="2.0893290">
        <ele>233.6</ele>
        <time>2018-04-10T08:25:17Z</time>
      </trkpt>
      <trkpt lat="41.4260300" lon="2.0893890">
        <ele>234.6</ele>
        <time>2018-04-10T08:25:19Z</time>
      </trkpt>
      <trkpt lat="41.4260340" lon="2.0894180">
        <ele>235.0</ele>
        <time>2018-04-10T08:25:20Z</time>
      </trkpt>
      <trkpt lat="41.4260400" lon="2.0894510">
        <ele>235.6</ele>
        <time>2018-04-10T08:25:21Z</time>
      </trkpt>
      <trkpt lat="41.4260550" lon="2.0894850">
        <ele>236.0</ele>
        <time>2018-04-10T08:25:22Z</time>
      </trkpt>
      <trkpt lat="41.4260710" lon="2.0895230">
        <ele>236.6</ele>
        <time>2018-04-10T08:25:23Z</time>
      </trkpt>
      <trkpt lat="41.4260830" lon="2.0895620">
        <ele>237.0</ele>
        <time>2018-04-10T08:25:24Z</time>
      </trkpt>
      <trkpt lat="41.4261030" lon="2.0895980">
        <ele>237.4</ele>
        <time>2018-04-10T08:25:25Z</time>
      </trkpt>
      <trkpt lat="41.4261520" lon="2.0896530">
        <ele>238.4</ele>
        <time>2018-04-10T08:25:27Z</time>
      </trkpt>
      <trkpt lat="41.4261780" lon="2.0896730">
        <ele>238.6</ele>
        <time>2018-04-10T08:25:28Z</time>
      </trkpt>
      <trkpt lat="41.4262040" lon="2.0896950">
        <ele>239.0</ele>
        <time>2018-04-10T08:25:29Z</time>
      </trkpt>
      <trkpt lat="41.4262530" lon="2.0897320">
        <ele>239.2</ele>
        <time>2018-04-10T08:25:31Z</time>
      </trkpt>
      <trkpt lat="41.4262820" lon="2.0897740">
        <ele>239.2</ele>
        <time>2018-04-10T08:25:33Z</time>
      </trkpt>
      <trkpt lat="41.4262670" lon="2.0898080">
        <ele>239.2</ele>
        <time>2018-04-10T08:25:35Z</time>
      </trkpt>
      <trkpt lat="41.4262330" lon="2.0898070">
        <ele>239.2</ele>
        <time>2018-04-10T08:25:37Z</time>
      </trkpt>
      <trkpt lat="41.4261930" lon="2.0897810">
        <ele>239.6</ele>
        <time>2018-04-10T08:25:39Z</time>
      </trkpt>
      <trkpt lat="41.4261710" lon="2.0897670">
        <ele>239.8</ele>
        <time>2018-04-10T08:25:40Z</time>
      </trkpt>
      <trkpt lat="41.4261450" lon="2.0897530">
        <ele>240.2</ele>
        <time>2018-04-10T08:25:41Z</time>
      </trkpt>
      <trkpt lat="41.4260960" lon="2.0897240">
        <ele>240.4</ele>
        <time>2018-04-10T08:25:43Z</time>
      </trkpt>
      <trkpt lat="41.4260720" lon="2.0897110">
        <ele>240.6</ele>
        <time>2018-04-10T08:25:44Z</time>
      </trkpt>
      <trkpt lat="41.4260490" lon="2.0897020">
        <ele>240.8</ele>
        <time>2018-04-10T08:25:45Z</time>
      </trkpt>
      <trkpt lat="41.4260040" lon="2.0896790">
        <ele>241.4</ele>
        <time>2018-04-10T08:25:47Z</time>
      </trkpt>
      <trkpt lat="41.4259620" lon="2.0896550">
        <ele>241.8</ele>
        <time>2018-04-10T08:25:49Z</time>
      </trkpt>
      <trkpt lat="41.4259150" lon="2.0896280">
        <ele>242.4</ele>
        <time>2018-04-10T08:25:51Z</time>
      </trkpt>
      <trkpt lat="41.4258650" lon="2.0896010">
        <ele>243.2</ele>
        <time>2018-04-10T08:25:53Z</time>
      </trkpt>
      <trkpt lat="41.4258170" lon="2.0895840">
        <ele>243.8</ele>
        <time>2018-04-10T08:25:55Z</time>
      </trkpt>
      <trkpt lat="41.4257950" lon="2.0895760">
        <ele>244.2</ele>
        <time>2018-04-10T08:25:56Z</time>
      </trkpt>
      <trkpt lat="41.4257740" lon="2.0895670">
        <ele>244.6</ele>
        <time>2018-04-10T08:25:57Z</time>
      </trkpt>
      <trkpt lat="41.4257310" lon="2.0895480">
        <ele>245.2</ele>
        <time>2018-04-10T08:25:59Z</time>
      </trkpt>
      <trkpt lat="41.4257050" lon="2.0895410">
        <ele>245.4</ele>
        <time>2018-04-10T08:26:00Z</time>
      </trkpt>
      <trkpt lat="41.4256810" lon="2.0895360">
        <ele>245.8</ele>
        <time>2018-04-10T08:26:01Z</time>
      </trkpt>
      <trkpt lat="41.4256270" lon="2.0895350">
        <ele>246.2</ele>
        <time>2018-04-10T08:26:03Z</time>
      </trkpt>
      <trkpt lat="41.4256000" lon="2.0895390">
        <ele>246.4</ele>
        <time>2018-04-10T08:26:04Z</time>
      </trkpt>
      <trkpt lat="41.4255740" lon="2.0895430">
        <ele>246.8</ele>
        <time>2018-04-10T08:26:05Z</time>
      </trkpt>
      <trkpt lat="41.4255190" lon="2.0895550">
        <ele>247.4</ele>
        <time>2018-04-10T08:26:07Z</time>
      </trkpt>
      <trkpt lat="41.4254930" lon="2.0895650">
        <ele>247.6</ele>
        <time>2018-04-10T08:26:08Z</time>
      </trkpt>
      <trkpt lat="41.4254640" lon="2.0895700">
        <ele>248.0</ele>
        <time>2018-04-10T08:26:09Z</time>
      </trkpt>
      <trkpt lat="41.4254070" lon="2.0895680">
        <ele>248.6</ele>
        <time>2018-04-10T08:26:11Z</time>
      </trkpt>
      <trkpt lat="41.4253810" lon="2.0895650">
        <ele>248.8</ele>
        <time>2018-04-10T08:26:12Z</time>
      </trkpt>
      <trkpt lat="41.4253590" lon="2.0895630">
        <ele>249.0</ele>
        <time>2018-04-10T08:26:13Z</time>
      </trkpt>
      <trkpt lat="41.4253210" lon="2.0895650">
        <ele>249.6</ele>
        <time>2018-04-10T08:26:15Z</time>
      </trkpt>
      <trkpt lat="41.4253000" lon="2.0895740">
        <ele>249.8</ele>
        <time>2018-04-10T08:26:16Z</time>
      </trkpt>
      <trkpt lat="41.4252780" lon="2.0895870">
        <ele>250.6</ele>
        <time>2018-04-10T08:26:17Z</time>
      </trkpt>
      <trkpt lat="41.4252660" lon="2.0896080">
        <ele>251.0</ele>
        <time>2018-04-10T08:26:18Z</time>
      </trkpt>
      <trkpt lat="41.4252610" lon="2.0896360">
        <ele>251.2</ele>
        <time>2018-04-10T08:26:19Z</time>
      </trkpt>
      <trkpt lat="41.4252650" lon="2.0897020">
        <ele>252.0</ele>
        <time>2018-04-10T08:26:21Z</time>
      </trkpt>
      <trkpt lat="41.4252870" lon="2.0897570">
        <ele>252.6</ele>
        <time>2018-04-10T08:26:23Z</time>
      </trkpt>
      <trkpt lat="41.4253020" lon="2.0898140">
        <ele>253.2</ele>
        <time>2018-04-10T08:26:25Z</time>
      </trkpt>
      <trkpt lat="41.4253390" lon="2.0898670">
        <ele>253.8</ele>
        <time>2018-04-10T08:26:27Z</time>
      </trkpt>
      <trkpt lat="41.4253610" lon="2.0898930">
        <ele>254.2</ele>
        <time>2018-04-10T08:26:28Z</time>
      </trkpt>
      <trkpt lat="41.4253850" lon="2.0899200">
        <ele>254.4</ele>
        <time>2018-04-10T08:26:29Z</time>
      </trkpt>
      <trkpt lat="41.4254310" lon="2.0899670">
        <ele>254.8</ele>
        <time>2018-04-10T08:26:31Z</time>
      </trkpt>
      <trkpt lat="41.4254700" lon="2.0900000">
        <ele>255.4</ele>
        <time>2018-04-10T08:26:33Z</time>
      </trkpt>
      <trkpt lat="41.4255190" lon="2.0900410">
        <ele>255.8</ele>
        <time>2018-04-10T08:26:35Z</time>
      </trkpt>
      <trkpt lat="41.4255400" lon="2.0900680">
        <ele>256.0</ele>
        <time>2018-04-10T08:26:36Z</time>
      </trkpt>
      <trkpt lat="41.4255540" lon="2.0900990">
        <ele>256.2</ele>
        <time>2018-04-10T08:26:37Z</time>
      </trkpt>
      <trkpt lat="41.4255670" lon="2.0901310">
        <ele>256.4</ele>
        <time>2018-04-10T08:26:38Z</time>
      </trkpt>
      <trkpt lat="41.4255780" lon="2.0901650">
        <ele>256.8</ele>
        <time>2018-04-10T08:26:39Z</time>
      </trkpt>
      <trkpt lat="41.4255770" lon="2.0902360">
        <ele>257.4</ele>
        <time>2018-04-10T08:26:41Z</time>
      </trkpt>
      <trkpt lat="41.4255690" lon="2.0902690">
        <ele>257.6</ele>
        <time>2018-04-10T08:26:42Z</time>
      </trkpt>
      <trkpt lat="41.4255570" lon="2.0902980">
        <ele>257.8</ele>
        <time>2018-04-10T08:26:43Z</time>
      </trkpt>
      <trkpt lat="41.4255220" lon="2.0903440">
        <ele>258.4</ele>
        <time>2018-04-10T08:26:45Z</time>
      </trkpt>
      <trkpt lat="41.4255010" lon="2.0903640">
        <ele>259.2</ele>
        <time>2018-04-10T08:26:46Z</time>
      </trkpt>
      <trkpt lat="41.4254830" lon="2.0903810">
        <ele>259.4</ele>
        <time>2018-04-10T08:26:47Z</time>
      </trkpt>
      <trkpt lat="41.4254450" lon="2.0904120">
        <ele>259.8</ele>
        <time>2018-04-10T08:26:49Z</time>
      </trkpt>
      <trkpt lat="41.4254040" lon="2.0904330">
        <ele>260.4</ele>
        <time>2018-04-10T08:26:51Z</time>
      </trkpt>
      <trkpt lat="41.4253590" lon="2.0904630">
        <ele>260.8</ele>
        <time>2018-04-10T08:26:53Z</time>
      </trkpt>
      <trkpt lat="41.4253070" lon="2.0904970">
        <ele>261.4</ele>
        <time>2018-04-10T08:26:55Z</time>
      </trkpt>
      <trkpt lat="41.4252820" lon="2.0905150">
        <ele>261.6</ele>
        <time>2018-04-10T08:26:56Z</time>
      </trkpt>
      <trkpt lat="41.4252550" lon="2.0905320">
        <ele>262.0</ele>
        <time>2018-04-10T08:26:57Z</time>
      </trkpt>
      <trkpt lat="41.4252010" lon="2.0905750">
        <ele>262.4</ele>
        <time>2018-04-10T08:26:59Z</time>
      </trkpt>
      <trkpt lat="41.4251440" lon="2.0906160">
        <ele>262.8</ele>
        <time>2018-04-10T08:27:01Z</time>
      </trkpt>
      <trkpt lat="41.4250920" lon="2.0906430">
        <ele>263.4</ele>
        <time>2018-04-10T08:27:03Z</time>
      </trkpt>
      <trkpt lat="41.4250400" lon="2.0906700">
        <ele>263.6</ele>
        <time>2018-04-10T08:27:05Z</time>
      </trkpt>
      <trkpt lat="41.4249770" lon="2.0906990">
        <ele>263.8</ele>
        <time>2018-04-10T08:27:07Z</time>
      </trkpt>
      <trkpt lat="41.4249470" lon="2.0907110">
        <ele>263.8</ele>
        <time>2018-04-10T08:27:08Z</time>
      </trkpt>
      <trkpt lat="41.4249170" lon="2.0907200">
        <ele>264.0</ele>
        <time>2018-04-10T08:27:09Z</time>
      </trkpt>
      <trkpt lat="41.4248620" lon="2.0907380">
        <ele>264.2</ele>
        <time>2018-04-10T08:27:11Z</time>
      </trkpt>
      <trkpt lat="41.4248010" lon="2.0907500">
        <ele>264.8</ele>
        <time>2018-04-10T08:27:13Z</time>
      </trkpt>
      <trkpt lat="41.4247720" lon="2.0907510">
        <ele>265.0</ele>
        <time>2018-04-10T08:27:14Z</time>
      </trkpt>
      <trkpt lat="41.4247440" lon="2.0907510">
        <ele>265.4</ele>
        <time>2018-04-10T08:27:15Z</time>
      </trkpt>
      <trkpt lat="41.4246830" lon="2.0907540">
        <ele>266.0</ele>
        <time>2018-04-10T08:27:17Z</time>
      </trkpt>
      <trkpt lat="41.4246550" lon="2.0907530">
        <ele>266.0</ele>
        <time>2018-04-10T08:27:18Z</time>
      </trkpt>
      <trkpt lat="41.4246260" lon="2.0907550">
        <ele>266.4</ele>
        <time>2018-04-10T08:27:19Z</time>
      </trkpt>
      <trkpt lat="41.4245700" lon="2.0907480">
        <ele>266.8</ele>
        <time>2018-04-10T08:27:21Z</time>
      </trkpt>
      <trkpt lat="41.4245050" lon="2.0907320">
        <ele>267.0</ele>
        <time>2018-04-10T08:27:23Z</time>
      </trkpt>
      <trkpt lat="41.4244370" lon="2.0907250">
        <ele>267.6</ele>
        <time>2018-04-10T08:27:25Z</time>
      </trkpt>
      <trkpt lat="41.4243630" lon="2.0907180">
        <ele>267.8</ele>
        <time>2018-04-10T08:27:27Z</time>
      </trkpt>
      <trkpt lat="41.4242990" lon="2.0906910">
        <ele>268.2</ele>
        <time>2018-04-10T08:27:29Z</time>
      </trkpt>
      <trkpt lat="41.4242550" lon="2.0906680">
        <ele>268.6</ele>
        <time>2018-04-10T08:27:31Z</time>
      </trkpt>
      <trkpt lat="41.4242070" lon="2.0906410">
        <ele>269.0</ele>
        <time>2018-04-10T08:27:33Z</time>
      </trkpt>
      <trkpt lat="41.4241810" lon="2.0906310">
        <ele>269.0</ele>
        <time>2018-04-10T08:27:34Z</time>
      </trkpt>
      <trkpt lat="41.4241570" lon="2.0906160">
        <ele>269.4</ele>
        <time>2018-04-10T08:27:35Z</time>
      </trkpt>
      <trkpt lat="41.4241240" lon="2.0905880">
        <ele>269.8</ele>
        <time>2018-04-10T08:27:37Z</time>
      </trkpt>
      <trkpt lat="41.4240860" lon="2.0905680">
        <ele>270.2</ele>
        <time>2018-04-10T08:27:39Z</time>
      </trkpt>
      <trkpt lat="41.4240490" lon="2.0905420">
        <ele>271.0</ele>
        <time>2018-04-10T08:27:41Z</time>
      </trkpt>
      <trkpt lat="41.4240220" lon="2.0905490">
        <ele>271.2</ele>
        <time>2018-04-10T08:27:42Z</time>
      </trkpt>
      <trkpt lat="41.4240190" lon="2.0905330">
        <ele>271.6</ele>
        <time>2018-04-10T08:27:43Z</time>
      </trkpt>
      <trkpt lat="41.4240370" lon="2.0905090">
        <ele>272.6</ele>
        <time>2018-04-10T08:27:45Z</time>
      </trkpt>
      <trkpt lat="41.4240460" lon="2.0905050">
        <ele>273.0</ele>
        <time>2018-04-10T08:27:46Z</time>
      </trkpt>
      <trkpt lat="41.4240620" lon="2.0905170">
        <ele>273.4</ele>
        <time>2018-04-10T08:27:47Z</time>
      </trkpt>
      <trkpt lat="41.4240930" lon="2.0905510">
        <ele>274.0</ele>
        <time>2018-04-10T08:27:49Z</time>
      </trkpt>
      <trkpt lat="41.4241360" lon="2.0905870">
        <ele>274.6</ele>
        <time>2018-04-10T08:27:51Z</time>
      </trkpt>
      <trkpt lat="41.4241590" lon="2.0906030">
        <ele>274.8</ele>
        <time>2018-04-10T08:27:52Z</time>
      </trkpt>
      <trkpt lat="41.4241850" lon="2.0906190">
        <ele>275.2</ele>
        <time>2018-04-10T08:27:53Z</time>
      </trkpt>
      <trkpt lat="41.4242420" lon="2.0906390">
        <ele>275.8</ele>
        <time>2018-04-10T08:27:55Z</time>
      </trkpt>
      <trkpt lat="41.4242990" lon="2.0906160">
        <ele>276.0</ele>
        <time>2018-04-10T08:27:57Z</time>
      </trkpt>
      <trkpt lat="41.4243250" lon="2.0906010">
        <ele>276.2</ele>
        <time>2018-04-10T08:27:58Z</time>
      </trkpt>
      <trkpt lat="41.4243410" lon="2.0905880">
        <ele>276.4</ele>
        <time>2018-04-10T08:27:59Z</time>
      </trkpt>
      <trkpt lat="41.4243900" lon="2.0905650">
        <ele>276.6</ele>
        <time>2018-04-10T08:28:01Z</time>
      </trkpt>
      <trkpt lat="41.4244420" lon="2.0905430">
        <ele>277.0</ele>
        <time>2018-04-10T08:28:03Z</time>
      </trkpt>
      <trkpt lat="41.4245000" lon="2.0905300">
        <ele>277.4</ele>
        <time>2018-04-10T08:28:05Z</time>
      </trkpt>
      <trkpt lat="41.4245310" lon="2.0904950">
        <ele>277.6</ele>
        <time>2018-04-10T08:28:07Z</time>
      </trkpt>
      <trkpt lat="41.4245280" lon="2.0904500">
        <ele>278.0</ele>
        <time>2018-04-10T08:28:09Z</time>
      </trkpt>
      <trkpt lat="41.4244950" lon="2.0904420">
        <ele>278.4</ele>
        <time>2018-04-10T08:28:11Z</time>
      </trkpt>
      <trkpt lat="41.4244530" lon="2.0904360">
        <ele>279.0</ele>
        <time>2018-04-10T08:28:13Z</time>
      </trkpt>
      <trkpt lat="41.4244120" lon="2.0904290">
        <ele>279.8</ele>
        <time>2018-04-10T08:28:15Z</time>
      </trkpt>
      <trkpt lat="41.4243900" lon="2.0904310">
        <ele>280.2</ele>
        <time>2018-04-10T08:28:16Z</time>
      </trkpt>
      <trkpt lat="41.4243690" lon="2.0904290">
        <ele>280.4</ele>
        <time>2018-04-10T08:28:17Z</time>
      </trkpt>
      <trkpt lat="41.4243480" lon="2.0904250">
        <ele>280.8</ele>
        <time>2018-04-10T08:28:18Z</time>
      </trkpt>
      <trkpt lat="41.4243250" lon="2.0904180">
        <ele>281.2</ele>
        <time>2018-04-10T08:28:19Z</time>
      </trkpt>
      <trkpt lat="41.4242860" lon="2.0903980">
        <ele>281.6</ele>
        <time>2018-04-10T08:28:21Z</time>
      </trkpt>
      <trkpt lat="41.4242660" lon="2.0903870">
        <ele>282.0</ele>
        <time>2018-04-10T08:28:22Z</time>
      </trkpt>
      <trkpt lat="41.4242470" lon="2.0903710">
        <ele>282.2</ele>
        <time>2018-04-10T08:28:23Z</time>
      </trkpt>
      <trkpt lat="41.4242150" lon="2.0903390">
        <ele>283.0</ele>
        <time>2018-04-10T08:28:25Z</time>
      </trkpt>
      <trkpt lat="41.4242020" lon="2.0903200">
        <ele>283.4</ele>
        <time>2018-04-10T08:28:26Z</time>
      </trkpt>
      <trkpt lat="41.4241890" lon="2.0902990">
        <ele>283.8</ele>
        <time>2018-04-10T08:28:27Z</time>
      </trkpt>
      <trkpt lat="41.4241530" lon="2.0902620">
        <ele>284.6</ele>
        <time>2018-04-10T08:28:29Z</time>
      </trkpt>
      <trkpt lat="41.4241190" lon="2.0902290">
        <ele>285.2</ele>
        <time>2018-04-10T08:28:31Z</time>
      </trkpt>
      <trkpt lat="41.4241070" lon="2.0902090">
        <ele>285.6</ele>
        <time>2018-04-10T08:28:32Z</time>
      </trkpt>
      <trkpt lat="41.4240920" lon="2.0901870">
        <ele>286.0</ele>
        <time>2018-04-10T08:28:33Z</time>
      </trkpt>
      <trkpt lat="41.4240590" lon="2.0901410">
        <ele>286.6</ele>
        <time>2018-04-10T08:28:35Z</time>
      </trkpt>
      <trkpt lat="41.4240230" lon="2.0901040">
        <ele>287.2</ele>
        <time>2018-04-10T08:28:37Z</time>
      </trkpt>
      <trkpt lat="41.4239880" lon="2.0900740">
        <ele>287.8</ele>
        <time>2018-04-10T08:28:39Z</time>
      </trkpt>
      <trkpt lat="41.4239510" lon="2.0900560">
        <ele>288.2</ele>
        <time>2018-04-10T08:28:41Z</time>
      </trkpt>
      <trkpt lat="41.4239130" lon="2.0900360">
        <ele>288.8</ele>
        <time>2018-04-10T08:28:43Z</time>
      </trkpt>
      <trkpt lat="41.4238680" lon="2.0900230">
        <ele>289.8</ele>
        <time>2018-04-10T08:28:45Z</time>
      </trkpt>
      <trkpt lat="41.4238250" lon="2.0900080">
        <ele>290.6</ele>
        <time>2018-04-10T08:28:47Z</time>
      </trkpt>
      <trkpt lat="41.4237900" lon="2.0899910">
        <ele>291.0</ele>
        <time>2018-04-10T08:28:49Z</time>
      </trkpt>
      <trkpt lat="41.4237490" lon="2.0899920">
        <ele>291.8</ele>
        <time>2018-04-10T08:28:51Z</time>
      </trkpt>
      <trkpt lat="41.4237110" lon="2.0899770">
        <ele>292.4</ele>
        <time>2018-04-10T08:28:53Z</time>
      </trkpt>
      <trkpt lat="41.4236640" lon="2.0899780">
        <ele>292.8</ele>
        <time>2018-04-10T08:28:55Z</time>
      </trkpt>
      <trkpt lat="41.4236230" lon="2.0899770">
        <ele>293.4</ele>
        <time>2018-04-10T08:28:57Z</time>
      </trkpt>
      <trkpt lat="41.4235850" lon="2.0899560">
        <ele>294.0</ele>
        <time>2018-04-10T08:28:59Z</time>
      </trkpt>
      <trkpt lat="41.4235440" lon="2.0899280">
        <ele>294.6</ele>
        <time>2018-04-10T08:29:01Z</time>
      </trkpt>
      <trkpt lat="41.4234990" lon="2.0898970">
        <ele>295.2</ele>
        <time>2018-04-10T08:29:03Z</time>
      </trkpt>
      <trkpt lat="41.4234500" lon="2.0898750">
        <ele>295.8</ele>
        <time>2018-04-10T08:29:05Z</time>
      </trkpt>
      <trkpt lat="41.4234080" lon="2.0898450">
        <ele>296.2</ele>
        <time>2018-04-10T08:29:07Z</time>
      </trkpt>
      <trkpt lat="41.4233570" lon="2.0898210">
        <ele>296.8</ele>
        <time>2018-04-10T08:29:09Z</time>
      </trkpt>
      <trkpt lat="41.4233320" lon="2.0898140">
        <ele>297.2</ele>
        <time>2018-04-10T08:29:10Z</time>
      </trkpt>
      <trkpt lat="41.4233070" lon="2.0898140">
        <ele>297.4</ele>
        <time>2018-04-10T08:29:11Z</time>
      </trkpt>
      <trkpt lat="41.4232760" lon="2.0898160">
        <ele>297.8</ele>
        <time>2018-04-10T08:29:12Z</time>
      </trkpt>
      <trkpt lat="41.4232480" lon="2.0898140">
        <ele>298.4</ele>
        <time>2018-04-10T08:29:13Z</time>
      </trkpt>
      <trkpt lat="41.4232250" lon="2.0898110">
        <ele>298.8</ele>
        <time>2018-04-10T08:29:14Z</time>
      </trkpt>
      <trkpt lat="41.4231960" lon="2.0898120">
        <ele>299.2</ele>
        <time>2018-04-10T08:29:15Z</time>
      </trkpt>
      <trkpt lat="41.4231360" lon="2.0898320">
        <ele>299.8</ele>
        <time>2018-04-10T08:29:17Z</time>
      </trkpt>
      <trkpt lat="41.4231160" lon="2.0898490">
        <ele>300.0</ele>
        <time>2018-04-10T08:29:18Z</time>
      </trkpt>
      <trkpt lat="41.4230930" lon="2.0898730">
        <ele>300.2</ele>
        <time>2018-04-10T08:29:19Z</time>
      </trkpt>
      <trkpt lat="41.4230500" lon="2.0899190">
        <ele>300.6</ele>
        <time>2018-04-10T08:29:21Z</time>
      </trkpt>
      <trkpt lat="41.4230110" lon="2.0899710">
        <ele>300.8</ele>
        <time>2018-04-10T08:29:23Z</time>
      </trkpt>
      <trkpt lat="41.4229860" lon="2.0899810">
        <ele>301.0</ele>
        <time>2018-04-10T08:29:24Z</time>
      </trkpt>
      <trkpt lat="41.4229600" lon="2.0899820">
        <ele>301.2</ele>
        <time>2018-04-10T08:29:25Z</time>
      </trkpt>
      <trkpt lat="41.4229510" lon="2.0899510">
        <ele>301.8</ele>
        <time>2018-04-10T08:29:27Z</time>
      </trkpt>
      <trkpt lat="41.4229610" lon="2.0899300">
        <ele>302.0</ele>
        <time>2018-04-10T08:29:28Z</time>
      </trkpt>
      <trkpt lat="41.4229750" lon="2.0899140">
        <ele>302.4</ele>
        <time>2018-04-10T08:29:29Z</time>
      </trkpt>
      <trkpt lat="41.4229900" lon="2.0898960">
        <ele>302.6</ele>
        <time>2018-04-10T08:29:30Z</time>
      </trkpt>
      <trkpt lat="41.4230070" lon="2.0898780">
        <ele>303.0</ele>
        <time>2018-04-10T08:29:31Z</time>
      </trkpt>
      <trkpt lat="41.4230230" lon="2.0898570">
        <ele>303.2</ele>
        <time>2018-04-10T08:29:32Z</time>
      </trkpt>
      <trkpt lat="41.4230390" lon="2.0898390">
        <ele>303.4</ele>
        <time>2018-04-10T08:29:33Z</time>
      </trkpt>
      <trkpt lat="41.4230840" lon="2.0897980">
        <ele>304.0</ele>
        <time>2018-04-10T08:29:35Z</time>
      </trkpt>
      <trkpt lat="41.4231340" lon="2.0897630">
        <ele>304.6</ele>
        <time>2018-04-10T08:29:37Z</time>
      </trkpt>
      <trkpt lat="41.4231820" lon="2.0897450">
        <ele>305.2</ele>
        <time>2018-04-10T08:29:39Z</time>
      </trkpt>
      <trkpt lat="41.4232320" lon="2.0897320">
        <ele>305.6</ele>
        <time>2018-04-10T08:29:41Z</time>
      </trkpt>
      <trkpt lat="41.4232720" lon="2.0897210">
        <ele>306.6</ele>
        <time>2018-04-10T08:29:43Z</time>
      </trkpt>
      <trkpt lat="41.4232880" lon="2.0897140">
        <ele>306.8</ele>
        <time>2018-04-10T08:29:44Z</time>
      </trkpt>
      <trkpt lat="41.4233050" lon="2.0897070">
        <ele>307.0</ele>
        <time>2018-04-10T08:29:45Z</time>
      </trkpt>
      <trkpt lat="41.4233390" lon="2.0896930">
        <ele>307.4</ele>
        <time>2018-04-10T08:29:47Z</time>
      </trkpt>
      <trkpt lat="41.4233860" lon="2.0896870">
        <ele>308.0</ele>
        <time>2018-04-10T08:29:49Z</time>
      </trkpt>
      <trkpt lat="41.4234380" lon="2.0896870">
        <ele>308.6</ele>
        <time>2018-04-10T08:29:51Z</time>
      </trkpt>
      <trkpt lat="41.4234630" lon="2.0896830">
        <ele>309.0</ele>
        <time>2018-04-10T08:29:52Z</time>
      </trkpt>
      <trkpt lat="41.4234880" lon="2.0896780">
        <ele>309.4</ele>
        <time>2018-04-10T08:29:53Z</time>
      </trkpt>
      <trkpt lat="41.4235360" lon="2.0896680">
        <ele>310.2</ele>
        <time>2018-04-10T08:29:55Z</time>
      </trkpt>
      <trkpt lat="41.4235830" lon="2.0896530">
        <ele>310.8</ele>
        <time>2018-04-10T08:29:57Z</time>
      </trkpt>
      <trkpt lat="41.4236250" lon="2.0896340">
        <ele>311.4</ele>
        <time>2018-04-10T08:29:59Z</time>
      </trkpt>
      <trkpt lat="41.4236320" lon="2.0896190">
        <ele>311.6</ele>
        <time>2018-04-10T08:30:00Z</time>
      </trkpt>
      <trkpt lat="41.4236390" lon="2.0895980">
        <ele>312.0</ele>
        <time>2018-04-10T08:30:01Z</time>
      </trkpt>
      <trkpt lat="41.4236500" lon="2.0895450">
        <ele>312.6</ele>
        <time>2018-04-10T08:30:03Z</time>
      </trkpt>
      <trkpt lat="41.4236390" lon="2.0894860">
        <ele>313.2</ele>
        <time>2018-04-10T08:30:05Z</time>
      </trkpt>
      <trkpt lat="41.4236160" lon="2.0894230">
        <ele>313.8</ele>
        <time>2018-04-10T08:30:07Z</time>
      </trkpt>
      <trkpt lat="41.4236020" lon="2.0893920">
        <ele>314.2</ele>
        <time>2018-04-10T08:30:08Z</time>
      </trkpt>
      <trkpt lat="41.4235890" lon="2.0893660">
        <ele>314.4</ele>
        <time>2018-04-10T08:30:09Z</time>
      </trkpt>
      <trkpt lat="41.4235550" lon="2.0893050">
        <ele>315.4</ele>
        <time>2018-04-10T08:30:11Z</time>
      </trkpt>
      <trkpt lat="41.4235220" lon="2.0892440">
        <ele>316.0</ele>
        <time>2018-04-10T08:30:13Z</time>
      </trkpt>
      <trkpt lat="41.4234950" lon="2.0891820">
        <ele>316.4</ele>
        <time>2018-04-10T08:30:15Z</time>
      </trkpt>
      <trkpt lat="41.4234680" lon="2.0891250">
        <ele>317.0</ele>
        <time>2018-04-10T08:30:17Z</time>
      </trkpt>
      <trkpt lat="41.4234360" lon="2.0890740">
        <ele>317.4</ele>
        <time>2018-04-10T08:30:19Z</time>
      </trkpt>
      <trkpt lat="41.4234180" lon="2.0890470">
        <ele>317.8</ele>
        <time>2018-04-10T08:30:20Z</time>
      </trkpt>
      <trkpt lat="41.4234010" lon="2.0890210">
        <ele>318.0</ele>
        <time>2018-04-10T08:30:21Z</time>
      </trkpt>
      <trkpt lat="41.4233630" lon="2.0889700">
        <ele>318.4</ele>
        <time>2018-04-10T08:30:23Z</time>
      </trkpt>
      <trkpt lat="41.4233240" lon="2.0889260">
        <ele>319.0</ele>
        <time>2018-04-10T08:30:25Z</time>
      </trkpt>
      <trkpt lat="41.4232880" lon="2.0888810">
        <ele>319.6</ele>
        <time>2018-04-10T08:30:27Z</time>
      </trkpt>
      <trkpt lat="41.4232750" lon="2.0888680">
        <ele>320.0</ele>
        <time>2018-04-10T08:30:28Z</time>
      </trkpt>
      <trkpt lat="41.4232610" lon="2.0888590">
        <ele>320.2</ele>
        <time>2018-04-10T08:30:29Z</time>
      </trkpt>
      <trkpt lat="41.4232310" lon="2.0888270">
        <ele>321.2</ele>
        <time>2018-04-10T08:30:31Z</time>
      </trkpt>
      <trkpt lat="41.4232190" lon="2.0888100">
        <ele>321.4</ele>
        <time>2018-04-10T08:30:32Z</time>
      </trkpt>
      <trkpt lat="41.4232080" lon="2.0887910">
        <ele>321.8</ele>
        <time>2018-04-10T08:30:33Z</time>
      </trkpt>
      <trkpt lat="41.4231970" lon="2.0887590">
        <ele>322.2</ele>
        <time>2018-04-10T08:30:35Z</time>
      </trkpt>
      <trkpt lat="41.4232010" lon="2.0887130">
        <ele>322.8</ele>
        <time>2018-04-10T08:30:37Z</time>
      </trkpt>
      <trkpt lat="41.4232130" lon="2.0886920">
        <ele>323.0</ele>
        <time>2018-04-10T08:30:38Z</time>
      </trkpt>
      <trkpt lat="41.4232250" lon="2.0886720">
        <ele>323.4</ele>
        <time>2018-04-10T08:30:39Z</time>
      </trkpt>
      <trkpt lat="41.4232330" lon="2.0886490">
        <ele>323.8</ele>
        <time>2018-04-10T08:30:40Z</time>
      </trkpt>
      <trkpt lat="41.4232410" lon="2.0886300">
        <ele>324.2</ele>
        <time>2018-04-10T08:30:41Z</time>
      </trkpt>
      <trkpt lat="41.4232600" lon="2.0885770">
        <ele>325.0</ele>
        <time>2018-04-10T08:30:43Z</time>
      </trkpt>
      <trkpt lat="41.4232750" lon="2.0885120">
        <ele>325.8</ele>
        <time>2018-04-10T08:30:45Z</time>
      </trkpt>
      <trkpt lat="41.4232830" lon="2.0884810">
        <ele>326.2</ele>
        <time>2018-04-10T08:30:46Z</time>
      </trkpt>
      <trkpt lat="41.4232900" lon="2.0884580">
        <ele>326.6</ele>
        <time>2018-04-10T08:30:47Z</time>
      </trkpt>
      <trkpt lat="41.4233120" lon="2.0884120">
        <ele>327.2</ele>
        <time>2018-04-10T08:30:49Z</time>
      </trkpt>
      <trkpt lat="41.4233260" lon="2.0883610">
        <ele>327.6</ele>
        <time>2018-04-10T08:30:51Z</time>
      </trkpt>
      <trkpt lat="41.4233360" lon="2.0883080">
        <ele>328.0</ele>
        <time>2018-04-10T08:30:53Z</time>
      </trkpt>
      <trkpt lat="41.4233380" lon="2.0882810">
        <ele>328.2</ele>
        <time>2018-04-10T08:30:54Z</time>
      </trkpt>
      <trkpt lat="41.4233390" lon="2.0882540">
        <ele>328.6</ele>
        <time>2018-04-10T08:30:55Z</time>
      </trkpt>
      <trkpt lat="41.4233420" lon="2.0882070">
        <ele>329.2</ele>
        <time>2018-04-10T08:30:57Z</time>
      </trkpt>
      <trkpt lat="41.4233420" lon="2.0881830">
        <ele>329.6</ele>
        <time>2018-04-10T08:30:58Z</time>
      </trkpt>
      <trkpt lat="41.4233430" lon="2.0881590">
        <ele>330.0</ele>
        <time>2018-04-10T08:30:59Z</time>
      </trkpt>
      <trkpt lat="41.4233420" lon="2.0881120">
        <ele>330.6</ele>
        <time>2018-04-10T08:31:01Z</time>
      </trkpt>
      <trkpt lat="41.4233360" lon="2.0880600">
        <ele>331.4</ele>
        <time>2018-04-10T08:31:03Z</time>
      </trkpt>
      <trkpt lat="41.4233340" lon="2.0880360">
        <ele>331.6</ele>
        <time>2018-04-10T08:31:04Z</time>
      </trkpt>
      <trkpt lat="41.4233350" lon="2.0880130">
        <ele>332.0</ele>
        <time>2018-04-10T08:31:05Z</time>
      </trkpt>
      <trkpt lat="41.4233370" lon="2.0879780">
        <ele>332.8</ele>
        <time>2018-04-10T08:31:07Z</time>
      </trkpt>
      <trkpt lat="41.4233460" lon="2.0879400">
        <ele>333.6</ele>
        <time>2018-04-10T08:31:09Z</time>
      </trkpt>
      <trkpt lat="41.4233520" lon="2.0879130">
        <ele>334.2</ele>
        <time>2018-04-10T08:31:10Z</time>
      </trkpt>
      <trkpt lat="41.4233580" lon="2.0878830">
        <ele>334.4</ele>
        <time>2018-04-10T08:31:11Z</time>
      </trkpt>
      <trkpt lat="41.4233790" lon="2.0878070">
        <ele>335.0</ele>
        <time>2018-04-10T08:31:13Z</time>
      </trkpt>
      <trkpt lat="41.4233860" lon="2.0877670">
        <ele>335.4</ele>
        <time>2018-04-10T08:31:14Z</time>
      </trkpt>
      <trkpt lat="41.4233950" lon="2.0877280">
        <ele>335.8</ele>
        <time>2018-04-10T08:31:15Z</time>
      </trkpt>
      <trkpt lat="41.4234130" lon="2.0876510">
        <ele>336.4</ele>
        <time>2018-04-10T08:31:17Z</time>
      </trkpt>
      <trkpt lat="41.4234210" lon="2.0876220">
        <ele>336.6</ele>
        <time>2018-04-10T08:31:18Z</time>
      </trkpt>
      <trkpt lat="41.4234230" lon="2.0875900">
        <ele>337.0</ele>
        <time>2018-04-10T08:31:19Z</time>
      </trkpt>
      <trkpt lat="41.4234070" lon="2.0875410">
        <ele>337.4</ele>
        <time>2018-04-10T08:31:21Z</time>
      </trkpt>
      <trkpt lat="41.4233900" lon="2.0875270">
        <ele>337.8</ele>
        <time>2018-04-10T08:31:22Z</time>
      </trkpt>
      <trkpt lat="41.4233710" lon="2.0875030">
        <ele>338.2</ele>
        <time>2018-04-10T08:31:23Z</time>
      </trkpt>
      <trkpt lat="41.4233450" lon="2.0875060">
        <ele>339.0</ele>
        <time>2018-04-10T08:31:25Z</time>
      </trkpt>
      <trkpt lat="41.4233350" lon="2.0875240">
        <ele>339.2</ele>
        <time>2018-04-10T08:31:26Z</time>
      </trkpt>
      <trkpt lat="41.4233250" lon="2.0875370">
        <ele>339.6</ele>
        <time>2018-04-10T08:31:27Z</time>
      </trkpt>
      <trkpt lat="41.4233120" lon="2.0875550">
        <ele>340.0</ele>
        <time>2018-04-10T08:31:28Z</time>
      </trkpt>
      <trkpt lat="41.4232970" lon="2.0875680">
        <ele>340.2</ele>
        <time>2018-04-10T08:31:29Z</time>
      </trkpt>
      <trkpt lat="41.4232710" lon="2.0876040">
        <ele>340.8</ele>
        <time>2018-04-10T08:31:31Z</time>
      </trkpt>
      <trkpt lat="41.4232580" lon="2.0876230">
        <ele>341.0</ele>
        <time>2018-04-10T08:31:32Z</time>
      </trkpt>
      <trkpt lat="41.4232470" lon="2.0876410">
        <ele>341.4</ele>
        <time>2018-04-10T08:31:33Z</time>
      </trkpt>
      <trkpt lat="41.4232250" lon="2.0876830">
        <ele>342.0</ele>
        <time>2018-04-10T08:31:35Z</time>
      </trkpt>
      <trkpt lat="41.4232160" lon="2.0877080">
        <ele>342.2</ele>
        <time>2018-04-10T08:31:36Z</time>
      </trkpt>
      <trkpt lat="41.4232070" lon="2.0877360">
        <ele>342.6</ele>
        <time>2018-04-10T08:31:37Z</time>
      </trkpt>
      <trkpt lat="41.4231820" lon="2.0877820">
        <ele>343.4</ele>
        <time>2018-04-10T08:31:39Z</time>
      </trkpt>
      <trkpt lat="41.4231420" lon="2.0877900">
        <ele>343.8</ele>
        <time>2018-04-10T08:31:41Z</time>
      </trkpt>
      <trkpt lat="41.4231150" lon="2.0877680">
        <ele>344.2</ele>
        <time>2018-04-10T08:31:43Z</time>
      </trkpt>
      <trkpt lat="41.4231130" lon="2.0877400">
        <ele>344.4</ele>
        <time>2018-04-10T08:31:45Z</time>
      </trkpt>
      <trkpt lat="41.4231150" lon="2.0877020">
        <ele>344.8</ele>
        <time>2018-04-10T08:31:47Z</time>
      </trkpt>
      <trkpt lat="41.4231030" lon="2.0876580">
        <ele>345.2</ele>
        <time>2018-04-10T08:31:49Z</time>
      </trkpt>
      <trkpt lat="41.4230830" lon="2.0876110">
        <ele>345.8</ele>
        <time>2018-04-10T08:31:51Z</time>
      </trkpt>
      <trkpt lat="41.4230550" lon="2.0875720">
        <ele>346.4</ele>
        <time>2018-04-10T08:31:53Z</time>
      </trkpt>
      <trkpt lat="41.4230340" lon="2.0875520">
        <ele>346.8</ele>
        <time>2018-04-10T08:31:54Z</time>
      </trkpt>
      <trkpt lat="41.4230160" lon="2.0875390">
        <ele>347.2</ele>
        <time>2018-04-10T08:31:55Z</time>
      </trkpt>
      <trkpt lat="41.4229850" lon="2.0875180">
        <ele>347.8</ele>
        <time>2018-04-10T08:31:57Z</time>
      </trkpt>
      <trkpt lat="41.4229480" lon="2.0874940">
        <ele>348.6</ele>
        <time>2018-04-10T08:31:59Z</time>
      </trkpt>
      <trkpt lat="41.4229250" lon="2.0874740">
        <ele>349.0</ele>
        <time>2018-04-10T08:32:00Z</time>
      </trkpt>
      <trkpt lat="41.4229020" lon="2.0874550">
        <ele>349.4</ele>
        <time>2018-04-10T08:32:01Z</time>
      </trkpt>
      <trkpt lat="41.4228580" lon="2.0874180">
        <ele>350.0</ele>
        <time>2018-04-10T08:32:03Z</time>
      </trkpt>
      <trkpt lat="41.4228410" lon="2.0874070">
        <ele>350.2</ele>
        <time>2018-04-10T08:32:04Z</time>
      </trkpt>
      <trkpt lat="41.4228240" lon="2.0873950">
        <ele>350.4</ele>
        <time>2018-04-10T08:32:05Z</time>
      </trkpt>
      <trkpt lat="41.4227890" lon="2.0873880">
        <ele>351.0</ele>
        <time>2018-04-10T08:32:07Z</time>
      </trkpt>
      <trkpt lat="41.4227740" lon="2.0873890">
        <ele>351.2</ele>
        <time>2018-04-10T08:32:08Z</time>
      </trkpt>
      <trkpt lat="41.4227580" lon="2.0873860">
        <ele>351.6</ele>
        <time>2018-04-10T08:32:09Z</time>
      </trkpt>
      <trkpt lat="41.4227230" lon="2.0873700">
        <ele>352.2</ele>
        <time>2018-04-10T08:32:11Z</time>
      </trkpt>
      <trkpt lat="41.4227100" lon="2.0873540">
        <ele>352.4</ele>
        <time>2018-04-10T08:32:12Z</time>
      </trkpt>
      <trkpt lat="41.4226970" lon="2.0873390">
        <ele>352.6</ele>
        <time>2018-04-10T08:32:13Z</time>
      </trkpt>
      <trkpt lat="41.4226830" lon="2.0873320">
        <ele>352.8</ele>
        <time>2018-04-10T08:32:14Z</time>
      </trkpt>
      <trkpt lat="41.4226620" lon="2.0873200">
        <ele>353.0</ele>
        <time>2018-04-10T08:32:15Z</time>
      </trkpt>
      <trkpt lat="41.4226210" lon="2.0873020">
        <ele>353.6</ele>
        <time>2018-04-10T08:32:17Z</time>
      </trkpt>
      <trkpt lat="41.4225790" lon="2.0872790">
        <ele>354.2</ele>
        <time>2018-04-10T08:32:19Z</time>
      </trkpt>
      <trkpt lat="41.4225390" lon="2.0872760">
        <ele>354.8</ele>
        <time>2018-04-10T08:32:21Z</time>
      </trkpt>
      <trkpt lat="41.4224940" lon="2.0872710">
        <ele>355.6</ele>
        <time>2018-04-10T08:32:23Z</time>
      </trkpt>
      <trkpt lat="41.4224780" lon="2.0872800">
        <ele>356.0</ele>
        <time>2018-04-10T08:32:24Z</time>
      </trkpt>
      <trkpt lat="41.4224680" lon="2.0873040">
        <ele>356.6</ele>
        <time>2018-04-10T08:32:25Z</time>
      </trkpt>
      <trkpt lat="41.4224590" lon="2.0873560">
        <ele>357.2</ele>
        <time>2018-04-10T08:32:27Z</time>
      </trkpt>
      <trkpt lat="41.4224590" lon="2.0874100">
        <ele>358.0</ele>
        <time>2018-04-10T08:32:29Z</time>
      </trkpt>
      <trkpt lat="41.4224550" lon="2.0874370">
        <ele>358.4</ele>
        <time>2018-04-10T08:32:30Z</time>
      </trkpt>
      <trkpt lat="41.4224490" lon="2.0874640">
        <ele>359.0</ele>
        <time>2018-04-10T08:32:31Z</time>
      </trkpt>
      <trkpt lat="41.4224290" lon="2.0875190">
        <ele>359.8</ele>
        <time>2018-04-10T08:32:33Z</time>
      </trkpt>
      <trkpt lat="41.4224010" lon="2.0875780">
        <ele>360.8</ele>
        <time>2018-04-10T08:32:35Z</time>
      </trkpt>
      <trkpt lat="41.4223850" lon="2.0876090">
        <ele>361.0</ele>
        <time>2018-04-10T08:32:36Z</time>
      </trkpt>
      <trkpt lat="41.4223720" lon="2.0876420">
        <ele>362.0</ele>
        <time>2018-04-10T08:32:37Z</time>
      </trkpt>
      <trkpt lat="41.4223600" lon="2.0876760">
        <ele>362.4</ele>
        <time>2018-04-10T08:32:38Z</time>
      </trkpt>
      <trkpt lat="41.4223480" lon="2.0877110">
        <ele>362.8</ele>
        <time>2018-04-10T08:32:39Z</time>
      </trkpt>
      <trkpt lat="41.4223150" lon="2.0877730">
        <ele>363.4</ele>
        <time>2018-04-10T08:32:41Z</time>
      </trkpt>
      <trkpt lat="41.4222660" lon="2.0877880">
        <ele>364.0</ele>
        <time>2018-04-10T08:32:43Z</time>
      </trkpt>
      <trkpt lat="41.4222370" lon="2.0877550">
        <ele>364.6</ele>
        <time>2018-04-10T08:32:45Z</time>
      </trkpt>
      <trkpt lat="41.4222490" lon="2.0877040">
        <ele>365.2</ele>
        <time>2018-04-10T08:32:47Z</time>
      </trkpt>
      <trkpt lat="41.4222610" lon="2.0876580">
        <ele>365.6</ele>
        <time>2018-04-10T08:32:49Z</time>
      </trkpt>
      <trkpt lat="41.4222620" lon="2.0876190">
        <ele>366.0</ele>
        <time>2018-04-10T08:32:51Z</time>
      </trkpt>
      <trkpt lat="41.4222430" lon="2.0875810">
        <ele>366.6</ele>
        <time>2018-04-10T08:32:53Z</time>
      </trkpt>
      <trkpt lat="41.4222020" lon="2.0875540">
        <ele>367.2</ele>
        <time>2018-04-10T08:32:55Z</time>
      </trkpt>
      <trkpt lat="41.4221690" lon="2.0875630">
        <ele>367.6</ele>
        <time>2018-04-10T08:32:57Z</time>
      </trkpt>
      <trkpt lat="41.4221450" lon="2.0875800">
        <ele>368.2</ele>
        <time>2018-04-10T08:32:59Z</time>
      </trkpt>
      <trkpt lat="41.4221180" lon="2.0875970">
        <ele>368.6</ele>
        <time>2018-04-10T08:33:01Z</time>
      </trkpt>
      <trkpt lat="41.4220800" lon="2.0876090">
        <ele>369.4</ele>
        <time>2018-04-10T08:33:03Z</time>
      </trkpt>
      <trkpt lat="41.4220590" lon="2.0876100">
        <ele>370.0</ele>
        <time>2018-04-10T08:33:04Z</time>
      </trkpt>
      <trkpt lat="41.4220410" lon="2.0876060">
        <ele>370.4</ele>
        <time>2018-04-10T08:33:05Z</time>
      </trkpt>
      <trkpt lat="41.4220090" lon="2.0875860">
        <ele>371.8</ele>
        <time>2018-04-10T08:33:07Z</time>
      </trkpt>
      <trkpt lat="41.4219900" lon="2.0875560">
        <ele>372.8</ele>
        <time>2018-04-10T08:33:09Z</time>
      </trkpt>
      <trkpt lat="41.4219780" lon="2.0875440">
        <ele>373.0</ele>
        <time>2018-04-10T08:33:10Z</time>
      </trkpt>
      <trkpt lat="41.4219660" lon="2.0875320">
        <ele>373.2</ele>
        <time>2018-04-10T08:33:11Z</time>
      </trkpt>
      <trkpt lat="41.4219450" lon="2.0874790">
        <ele>374.2</ele>
        <time>2018-04-10T08:33:13Z</time>
      </trkpt>
      <trkpt lat="41.4219270" lon="2.0874270">
        <ele>375.0</ele>
        <time>2018-04-10T08:33:15Z</time>
      </trkpt>
      <trkpt lat="41.4219180" lon="2.0874000">
        <ele>375.6</ele>
        <time>2018-04-10T08:33:16Z</time>
      </trkpt>
      <trkpt lat="41.4219070" lon="2.0873650">
        <ele>375.8</ele>
        <time>2018-04-10T08:33:17Z</time>
      </trkpt>
      <trkpt lat="41.4218860" lon="2.0872790">
        <ele>376.4</ele>
        <time>2018-04-10T08:33:19Z</time>
      </trkpt>
      <trkpt lat="41.4218710" lon="2.0872290">
        <ele>376.6</ele>
        <time>2018-04-10T08:33:20Z</time>
      </trkpt>
      <trkpt lat="41.4218540" lon="2.0871810">
        <ele>376.8</ele>
        <time>2018-04-10T08:33:21Z</time>
      </trkpt>
      <trkpt lat="41.4218240" lon="2.0870790">
        <ele>377.2</ele>
        <time>2018-04-10T08:33:23Z</time>
      </trkpt>
      <trkpt lat="41.4218030" lon="2.0869600">
        <ele>377.2</ele>
        <time>2018-04-10T08:33:25Z</time>
      </trkpt>
      <trkpt lat="41.4217860" lon="2.0868460">
        <ele>377.4</ele>
        <time>2018-04-10T08:33:27Z</time>
      </trkpt>
      <trkpt lat="41.4217690" lon="2.0867380">
        <ele>377.4</ele>
        <time>2018-04-10T08:33:29Z</time>
      </trkpt>
      <trkpt lat="41.4217540" lon="2.0866420">
        <ele>377.6</ele>
        <time>2018-04-10T08:33:31Z</time>
      </trkpt>
      <trkpt lat="41.4217290" lon="2.0865420">
        <ele>377.6</ele>
        <time>2018-04-10T08:33:33Z</time>
      </trkpt>
      <trkpt lat="41.4216970" lon="2.0864440">
        <ele>377.8</ele>
        <time>2018-04-10T08:33:35Z</time>
      </trkpt>
      <trkpt lat="41.4216550" lon="2.0863470">
        <ele>378.4</ele>
        <time>2018-04-10T08:33:37Z</time>
      </trkpt>
      <trkpt lat="41.4216010" lon="2.0862560">
        <ele>378.8</ele>
        <time>2018-04-10T08:33:39Z</time>
      </trkpt>
      <trkpt lat="41.4215450" lon="2.0861790">
        <ele>379.4</ele>
        <time>2018-04-10T08:33:41Z</time>
      </trkpt>
      <trkpt lat="41.4214850" lon="2.0861100">
        <ele>379.6</ele>
        <time>2018-04-10T08:33:43Z</time>
      </trkpt>
      <trkpt lat="41.4214290" lon="2.0860450">
        <ele>379.8</ele>
        <time>2018-04-10T08:33:45Z</time>
      </trkpt>
      <trkpt lat="41.4213790" lon="2.0859810">
        <ele>379.8</ele>
        <time>2018-04-10T08:33:47Z</time>
      </trkpt>
      <trkpt lat="41.4213530" lon="2.0859470">
        <ele>380.0</ele>
        <time>2018-04-10T08:33:48Z</time>
      </trkpt>
      <trkpt lat="41.4213280" lon="2.0859180">
        <ele>380.2</ele>
        <time>2018-04-10T08:33:49Z</time>
      </trkpt>
      <trkpt lat="41.4212860" lon="2.0858560">
        <ele>380.4</ele>
        <time>2018-04-10T08:33:51Z</time>
      </trkpt>
      <trkpt lat="41.4212410" lon="2.0857890">
        <ele>380.6</ele>
        <time>2018-04-10T08:33:53Z</time>
      </trkpt>
      <trkpt lat="41.4211950" lon="2.0857130">
        <ele>381.0</ele>
        <time>2018-04-10T08:33:55Z</time>
      </trkpt>
      <trkpt lat="41.4211470" lon="2.0856350">
        <ele>381.4</ele>
        <time>2018-04-10T08:33:57Z</time>
      </trkpt>
      <trkpt lat="41.4211000" lon="2.0855540">
        <ele>381.8</ele>
        <time>2018-04-10T08:33:59Z</time>
      </trkpt>
      <trkpt lat="41.4210520" lon="2.0854610">
        <ele>382.2</ele>
        <time>2018-04-10T08:34:01Z</time>
      </trkpt>
      <trkpt lat="41.4209980" lon="2.0853670">
        <ele>382.6</ele>
        <time>2018-04-10T08:34:03Z</time>
      </trkpt>
      <trkpt lat="41.4209360" lon="2.0852880">
        <ele>382.6</ele>
        <time>2018-04-10T08:34:05Z</time>
      </trkpt>
      <trkpt lat="41.4208660" lon="2.0852180">
        <ele>382.8</ele>
        <time>2018-04-10T08:34:07Z</time>
      </trkpt>
      <trkpt lat="41.4207950" lon="2.0851760">
        <ele>382.8</ele>
        <time>2018-04-10T08:34:09Z</time>
      </trkpt>
      <trkpt lat="41.4207190" lon="2.0851600">
        <ele>383.0</ele>
        <time>2018-04-10T08:34:11Z</time>
      </trkpt>
      <trkpt lat="41.4206330" lon="2.0851400">
        <ele>383.0</ele>
        <time>2018-04-10T08:34:13Z</time>
      </trkpt>
      <trkpt lat="41.4205670" lon="2.0850980">
        <ele>383.0</ele>
        <time>2018-04-10T08:34:15Z</time>
      </trkpt>
      <trkpt lat="41.4205320" lon="2.0850940">
        <ele>383.0</ele>
        <time>2018-04-10T08:34:16Z</time>
      </trkpt>
      <trkpt lat="41.4205120" lon="2.0850990">
        <ele>383.0</ele>
        <time>2018-04-10T08:34:17Z</time>
      </trkpt>
      <trkpt lat="41.4205050" lon="2.0851170">
        <ele>383.0</ele>
        <time>2018-04-10T08:34:18Z</time>
      </trkpt>
      <trkpt lat="41.4205030" lon="2.0851360">
        <ele>383.0</ele>
        <time>2018-04-10T08:34:19Z</time>
      </trkpt>
      <trkpt lat="41.4204970" lon="2.0851570">
        <ele>382.4</ele>
        <time>2018-04-10T08:34:21Z</time>
      </trkpt>
      <trkpt lat="41.4204880" lon="2.0851620">
        <ele>381.8</ele>
        <time>2018-04-10T08:34:23Z</time>
      </trkpt>
      <trkpt lat="41.4204790" lon="2.0851660">
        <ele>381.6</ele>
        <time>2018-04-10T08:34:25Z</time>
      </trkpt>
      <trkpt lat="41.4204750" lon="2.0851700">
        <ele>381.6</ele>
        <time>2018-04-10T08:34:27Z</time>
      </trkpt>
      <trkpt lat="41.4204740" lon="2.0851720">
        <ele>381.6</ele>
        <time>2018-04-10T08:34:29Z</time>
      </trkpt>
      <trkpt lat="41.4204710" lon="2.0851710">
        <ele>381.6</ele>
        <time>2018-04-10T08:34:31Z</time>
      </trkpt>
      <trkpt lat="41.4204720" lon="2.0851710">
        <ele>381.6</ele>
        <time>2018-04-10T08:34:33Z</time>
      </trkpt>
      <trkpt lat="41.4204700" lon="2.0851710">
        <ele>381.6</ele>
        <time>2018-04-10T08:34:35Z</time>
      </trkpt>
      <trkpt lat="41.4204700" lon="2.0851710">
        <ele>381.6</ele>
        <time>2018-04-10T08:34:37Z</time>
      </trkpt>
      <trkpt lat="41.4204700" lon="2.0851710">
        <ele>381.6</ele>
        <time>2018-04-10T08:34:39Z</time>
      </trkpt>
      <trkpt lat="41.4204700" lon="2.0851710">
        <ele>381.6</ele>
        <time>2018-04-10T08:34:41Z</time>
      </trkpt>
      <trkpt lat="41.4204690" lon="2.0851710">
        <ele>381.8</ele>
        <time>2018-04-10T08:34:43Z</time>
      </trkpt>
      <trkpt lat="41.4204700" lon="2.0851710">
        <ele>381.8</ele>
        <time>2018-04-10T08:34:45Z</time>
      </trkpt>
      <trkpt lat="41.4204700" lon="2.0851710">
        <ele>381.8</ele>
        <time>2018-04-10T08:34:47Z</time>
      </trkpt>
      <trkpt lat="41.4204700" lon="2.0851700">
        <ele>381.8</ele>
        <time>2018-04-10T08:34:49Z</time>
      </trkpt>
      <trkpt lat="41.4204700" lon="2.0851700">
        <ele>381.8</ele>
        <time>2018-04-10T08:34:51Z</time>
      </trkpt>
      <trkpt lat="41.4204700" lon="2.0851700">
        <ele>381.8</ele>
        <time>2018-04-10T08:34:53Z</time>
      </trkpt>
      <trkpt lat="41.4204700" lon="2.0851700">
        <ele>381.8</ele>
        <time>2018-04-10T08:34:55Z</time>
      </trkpt>
      <trkpt lat="41.4204700" lon="2.0851700">
        <ele>381.8</ele>
        <time>2018-04-10T08:34:57Z</time>
      </trkpt>
      <trkpt lat="41.4204690" lon="2.0851700">
        <ele>381.8</ele>
        <time>2018-04-10T08:34:59Z</time>
      </trkpt>
      <trkpt lat="41.4204700" lon="2.0851700">
        <ele>381.8</ele>
        <time>2018-04-10T08:35:01Z</time>
      </trkpt>
      <trkpt lat="41.4204700" lon="2.0851700">
        <ele>381.6</ele>
        <time>2018-04-10T08:35:03Z</time>
      </trkpt>
      <trkpt lat="41.4204690" lon="2.0851700">
        <ele>381.6</ele>
        <time>2018-04-10T08:35:05Z</time>
      </trkpt>
      <trkpt lat="41.4204690" lon="2.0851700">
        <ele>381.6</ele>
        <time>2018-04-10T08:35:07Z</time>
      </trkpt>
      <trkpt lat="41.4204690" lon="2.0851700">
        <ele>381.6</ele>
        <time>2018-04-10T08:35:09Z</time>
      </trkpt>
      <trkpt lat="41.4204690" lon="2.0851700">
        <ele>381.8</ele>
        <time>2018-04-10T08:35:11Z</time>
      </trkpt>
      <trkpt lat="41.4204690" lon="2.0851700">
        <ele>381.8</ele>
        <time>2018-04-10T08:35:13Z</time>
      </trkpt>
      <trkpt lat="41.4204700" lon="2.0851700">
        <ele>381.8</ele>
        <time>2018-04-10T08:35:15Z</time>
      </trkpt>
      <trkpt lat="41.4204690" lon="2.0851710">
        <ele>381.8</ele>
        <time>2018-04-10T08:35:17Z</time>
      </trkpt>
      <trkpt lat="41.4204690" lon="2.0851710">
        <ele>381.8</ele>
        <time>2018-04-10T08:35:19Z</time>
      </trkpt>
      <trkpt lat="41.4204700" lon="2.0851710">
        <ele>381.8</ele>
        <time>2018-04-10T08:35:21Z</time>
      </trkpt>
      <trkpt lat="41.4204700" lon="2.0851710">
        <ele>382.0</ele>
        <time>2018-04-10T08:35:23Z</time>
      </trkpt>
      <trkpt lat="41.4204690" lon="2.0851700">
        <ele>382.0</ele>
        <time>2018-04-10T08:35:25Z</time>
      </trkpt>
      <trkpt lat="41.4204690" lon="2.0851700">
        <ele>382.0</ele>
        <time>2018-04-10T08:35:27Z</time>
      </trkpt>
      <trkpt lat="41.4204690" lon="2.0851700">
        <ele>381.8</ele>
        <time>2018-04-10T08:35:29Z</time>
      </trkpt>
      <trkpt lat="41.4204700" lon="2.0851700">
        <ele>381.8</ele>
        <time>2018-04-10T08:35:31Z</time>
      </trkpt>
      <trkpt lat="41.4204700" lon="2.0851690">
        <ele>382.0</ele>
        <time>2018-04-10T08:35:33Z</time>
      </trkpt>
      <trkpt lat="41.4204710" lon="2.0851690">
        <ele>382.0</ele>
        <time>2018-04-10T08:35:35Z</time>
      </trkpt>
      <trkpt lat="41.4204740" lon="2.0851710">
        <ele>382.0</ele>
        <time>2018-04-10T08:35:37Z</time>
      </trkpt>
      <trkpt lat="41.4204770" lon="2.0851740">
        <ele>382.2</ele>
        <time>2018-04-10T08:35:39Z</time>
      </trkpt>
      <trkpt lat="41.4204770" lon="2.0851750">
        <ele>382.2</ele>
        <time>2018-04-10T08:35:41Z</time>
      </trkpt>
      <trkpt lat="41.4204770" lon="2.0851750">
        <ele>382.2</ele>
        <time>2018-04-10T08:35:43Z</time>
      </trkpt>
      <trkpt lat="41.4204760" lon="2.0851740">
        <ele>382.2</ele>
        <time>2018-04-10T08:35:45Z</time>
      </trkpt>
      <trkpt lat="41.4204750" lon="2.0851740">
        <ele>382.4</ele>
        <time>2018-04-10T08:35:47Z</time>
      </trkpt>
      <trkpt lat="41.4204760" lon="2.0851740">
        <ele>382.4</ele>
        <time>2018-04-10T08:35:49Z</time>
      </trkpt>
      <trkpt lat="41.4204750" lon="2.0851740">
        <ele>382.4</ele>
        <time>2018-04-10T08:35:51Z</time>
      </trkpt>
      <trkpt lat="41.4204760" lon="2.0851720">
        <ele>382.4</ele>
        <time>2018-04-10T08:35:53Z</time>
      </trkpt>
      <trkpt lat="41.4204760" lon="2.0851730">
        <ele>382.4</ele>
        <time>2018-04-10T08:35:55Z</time>
      </trkpt>
      <trkpt lat="41.4204820" lon="2.0851740">
        <ele>382.4</ele>
        <time>2018-04-10T08:35:57Z</time>
      </trkpt>
      <trkpt lat="41.4204940" lon="2.0851730">
        <ele>382.4</ele>
        <time>2018-04-10T08:35:58Z</time>
      </trkpt>
      <trkpt lat="41.4205070" lon="2.0851710">
        <ele>382.4</ele>
        <time>2018-04-10T08:35:59Z</time>
      </trkpt>
      <trkpt lat="41.4205400" lon="2.0851760">
        <ele>382.4</ele>
        <time>2018-04-10T08:36:01Z</time>
      </trkpt>
      <trkpt lat="41.4205770" lon="2.0851890">
        <ele>382.4</ele>
        <time>2018-04-10T08:36:03Z</time>
      </trkpt>
      <trkpt lat="41.4206260" lon="2.0851970">
        <ele>382.4</ele>
        <time>2018-04-10T08:36:05Z</time>
      </trkpt>
      <trkpt lat="41.4206780" lon="2.0852000">
        <ele>382.4</ele>
        <time>2018-04-10T08:36:07Z</time>
      </trkpt>
      <trkpt lat="41.4207340" lon="2.0852080">
        <ele>382.6</ele>
        <time>2018-04-10T08:36:09Z</time>
      </trkpt>
      <trkpt lat="41.4207870" lon="2.0852350">
        <ele>382.8</ele>
        <time>2018-04-10T08:36:11Z</time>
      </trkpt>
      <trkpt lat="41.4208170" lon="2.0852550">
        <ele>383.0</ele>
        <time>2018-04-10T08:36:12Z</time>
      </trkpt>
      <trkpt lat="41.4208480" lon="2.0852790">
        <ele>383.0</ele>
        <time>2018-04-10T08:36:13Z</time>
      </trkpt>
      <trkpt lat="41.4209100" lon="2.0853370">
        <ele>383.6</ele>
        <time>2018-04-10T08:36:15Z</time>
      </trkpt>
      <trkpt lat="41.4209640" lon="2.0854140">
        <ele>383.8</ele>
        <time>2018-04-10T08:36:17Z</time>
      </trkpt>
      <trkpt lat="41.4210070" lon="2.0854960">
        <ele>384.0</ele>
        <time>2018-04-10T08:36:19Z</time>
      </trkpt>
      <trkpt lat="41.4210480" lon="2.0855830">
        <ele>384.0</ele>
        <time>2018-04-10T08:36:21Z</time>
      </trkpt>
      <trkpt lat="41.4210860" lon="2.0856710">
        <ele>384.0</ele>
        <time>2018-04-10T08:36:23Z</time>
      </trkpt>
      <trkpt lat="41.4211130" lon="2.0857140">
        <ele>384.0</ele>
        <time>2018-04-10T08:36:24Z</time>
      </trkpt>
      <trkpt lat="41.4211410" lon="2.0857560">
        <ele>384.0</ele>
        <time>2018-04-10T08:36:25Z</time>
      </trkpt>
      <trkpt lat="41.4212010" lon="2.0858390">
        <ele>383.8</ele>
        <time>2018-04-10T08:36:27Z</time>
      </trkpt>
      <trkpt lat="41.4212760" lon="2.0859330">
        <ele>383.8</ele>
        <time>2018-04-10T08:36:29Z</time>
      </trkpt>
      <trkpt lat="41.4213640" lon="2.0860290">
        <ele>383.6</ele>
        <time>2018-04-10T08:36:31Z</time>
      </trkpt>
      <trkpt lat="41.4214620" lon="2.0861340">
        <ele>383.8</ele>
        <time>2018-04-10T08:36:33Z</time>
      </trkpt>
      <trkpt lat="41.4215060" lon="2.0861940">
        <ele>383.8</ele>
        <time>2018-04-10T08:36:34Z</time>
      </trkpt>
      <trkpt lat="41.4215420" lon="2.0862620">
        <ele>383.8</ele>
        <time>2018-04-10T08:36:35Z</time>
      </trkpt>
      <trkpt lat="41.4215880" lon="2.0864160">
        <ele>383.4</ele>
        <time>2018-04-10T08:36:37Z</time>
      </trkpt>
      <trkpt lat="41.4216160" lon="2.0865900">
        <ele>382.6</ele>
        <time>2018-04-10T08:36:39Z</time>
      </trkpt>
      <trkpt lat="41.4216230" lon="2.0866860">
        <ele>382.4</ele>
        <time>2018-04-10T08:36:40Z</time>
      </trkpt>
      <trkpt lat="41.4216410" lon="2.0867900">
        <ele>382.0</ele>
        <time>2018-04-10T08:36:41Z</time>
      </trkpt>
      <trkpt lat="41.4216750" lon="2.0870010">
        <ele>381.4</ele>
        <time>2018-04-10T08:36:43Z</time>
      </trkpt>
      <trkpt lat="41.4216960" lon="2.0870990">
        <ele>381.2</ele>
        <time>2018-04-10T08:36:44Z</time>
      </trkpt>
      <trkpt lat="41.4217180" lon="2.0871950">
        <ele>381.0</ele>
        <time>2018-04-10T08:36:45Z</time>
      </trkpt>
      <trkpt lat="41.4217550" lon="2.0873560">
        <ele>380.8</ele>
        <time>2018-04-10T08:36:47Z</time>
      </trkpt>
      <trkpt lat="41.4217810" lon="2.0874740">
        <ele>380.2</ele>
        <time>2018-04-10T08:36:49Z</time>
      </trkpt>
      <trkpt lat="41.4218290" lon="2.0875620">
        <ele>379.2</ele>
        <time>2018-04-10T08:36:51Z</time>
      </trkpt>
      <trkpt lat="41.4218570" lon="2.0875830">
        <ele>379.0</ele>
        <time>2018-04-10T08:36:52Z</time>
      </trkpt>
      <trkpt lat="41.4218890" lon="2.0875880">
        <ele>379.0</ele>
        <time>2018-04-10T08:36:53Z</time>
      </trkpt>
      <trkpt lat="41.4219660" lon="2.0875660">
        <ele>378.8</ele>
        <time>2018-04-10T08:36:55Z</time>
      </trkpt>
      <trkpt lat="41.4220450" lon="2.0875360">
        <ele>378.6</ele>
        <time>2018-04-10T08:36:57Z</time>
      </trkpt>
      <trkpt lat="41.4221180" lon="2.0875880">
        <ele>378.2</ele>
        <time>2018-04-10T08:36:59Z</time>
      </trkpt>
      <trkpt lat="41.4221410" lon="2.0876350">
        <ele>377.6</ele>
        <time>2018-04-10T08:37:00Z</time>
      </trkpt>
      <trkpt lat="41.4221490" lon="2.0876800">
        <ele>376.6</ele>
        <time>2018-04-10T08:37:01Z</time>
      </trkpt>
      <trkpt lat="41.4221780" lon="2.0877530">
        <ele>375.2</ele>
        <time>2018-04-10T08:37:03Z</time>
      </trkpt>
      <trkpt lat="41.4222270" lon="2.0877430">
        <ele>373.4</ele>
        <time>2018-04-10T08:37:05Z</time>
      </trkpt>
      <trkpt lat="41.4222630" lon="2.0876300">
        <ele>371.6</ele>
        <time>2018-04-10T08:37:07Z</time>
      </trkpt>
      <trkpt lat="41.4222810" lon="2.0874880">
        <ele>370.2</ele>
        <time>2018-04-10T08:37:09Z</time>
      </trkpt>
      <trkpt lat="41.4222900" lon="2.0873810">
        <ele>369.0</ele>
        <time>2018-04-10T08:37:11Z</time>
      </trkpt>
      <trkpt lat="41.4223380" lon="2.0873020">
        <ele>368.0</ele>
        <time>2018-04-10T08:37:13Z</time>
      </trkpt>
      <trkpt lat="41.4224410" lon="2.0872800">
        <ele>366.8</ele>
        <time>2018-04-10T08:37:15Z</time>
      </trkpt>
      <trkpt lat="41.4225820" lon="2.0873430">
        <ele>365.6</ele>
        <time>2018-04-10T08:37:17Z</time>
      </trkpt>
      <trkpt lat="41.4226540" lon="2.0873850">
        <ele>365.0</ele>
        <time>2018-04-10T08:37:18Z</time>
      </trkpt>
      <trkpt lat="41.4227210" lon="2.0874250">
        <ele>364.4</ele>
        <time>2018-04-10T08:37:19Z</time>
      </trkpt>
      <trkpt lat="41.4228270" lon="2.0874940">
        <ele>362.8</ele>
        <time>2018-04-10T08:37:21Z</time>
      </trkpt>
      <trkpt lat="41.4228980" lon="2.0875620">
        <ele>360.8</ele>
        <time>2018-04-10T08:37:23Z</time>
      </trkpt>
      <trkpt lat="41.4229390" lon="2.0876760">
        <ele>358.6</ele>
        <time>2018-04-10T08:37:25Z</time>
      </trkpt>
      <trkpt lat="41.4229440" lon="2.0877370">
        <ele>357.2</ele>
        <time>2018-04-10T08:37:26Z</time>
      </trkpt>
      <trkpt lat="41.4229440" lon="2.0877900">
        <ele>355.8</ele>
        <time>2018-04-10T08:37:27Z</time>
      </trkpt>
      <trkpt lat="41.4229510" lon="2.0878340">
        <ele>354.8</ele>
        <time>2018-04-10T08:37:28Z</time>
      </trkpt>
      <trkpt lat="41.4229680" lon="2.0878560">
        <ele>353.0</ele>
        <time>2018-04-10T08:37:29Z</time>
      </trkpt>
      <trkpt lat="41.4230120" lon="2.0878180">
        <ele>352.0</ele>
        <time>2018-04-10T08:37:31Z</time>
      </trkpt>
      <trkpt lat="41.4230650" lon="2.0877320">
        <ele>350.6</ele>
        <time>2018-04-10T08:37:33Z</time>
      </trkpt>
      <trkpt lat="41.4231000" lon="2.0876850">
        <ele>349.8</ele>
        <time>2018-04-10T08:37:34Z</time>
      </trkpt>
      <trkpt lat="41.4231320" lon="2.0876330">
        <ele>349.0</ele>
        <time>2018-04-10T08:37:35Z</time>
      </trkpt>
      <trkpt lat="41.4231750" lon="2.0875120">
        <ele>347.4</ele>
        <time>2018-04-10T08:37:37Z</time>
      </trkpt>
      <trkpt lat="41.4232220" lon="2.0874580">
        <ele>346.2</ele>
        <time>2018-04-10T08:37:39Z</time>
      </trkpt>
      <trkpt lat="41.4232500" lon="2.0875100">
        <ele>345.4</ele>
        <time>2018-04-10T08:37:41Z</time>
      </trkpt>
      <trkpt lat="41.4232500" lon="2.0875670">
        <ele>345.0</ele>
        <time>2018-04-10T08:37:42Z</time>
      </trkpt>
      <trkpt lat="41.4232360" lon="2.0876380">
        <ele>344.6</ele>
        <time>2018-04-10T08:37:43Z</time>
      </trkpt>
      <trkpt lat="41.4232030" lon="2.0878200">
        <ele>344.0</ele>
        <time>2018-04-10T08:37:45Z</time>
      </trkpt>
      <trkpt lat="41.4231960" lon="2.0879280">
        <ele>343.6</ele>
        <time>2018-04-10T08:37:46Z</time>
      </trkpt>
      <trkpt lat="41.4231900" lon="2.0880380">
        <ele>343.2</ele>
        <time>2018-04-10T08:37:47Z</time>
      </trkpt>
      <trkpt lat="41.4231910" lon="2.0881440">
        <ele>342.8</ele>
        <time>2018-04-10T08:37:48Z</time>
      </trkpt>
      <trkpt lat="41.4231870" lon="2.0882370">
        <ele>342.2</ele>
        <time>2018-04-10T08:37:49Z</time>
      </trkpt>
      <trkpt lat="41.4231740" lon="2.0883180">
        <ele>341.4</ele>
        <time>2018-04-10T08:37:50Z</time>
      </trkpt>
      <trkpt lat="41.4231500" lon="2.0883880">
        <ele>340.8</ele>
        <time>2018-04-10T08:37:51Z</time>
      </trkpt>
      <trkpt lat="41.4231280" lon="2.0884560">
        <ele>340.2</ele>
        <time>2018-04-10T08:37:52Z</time>
      </trkpt>
      <trkpt lat="41.4231120" lon="2.0885130">
        <ele>339.4</ele>
        <time>2018-04-10T08:37:53Z</time>
      </trkpt>
      <trkpt lat="41.4231130" lon="2.0885730">
        <ele>338.4</ele>
        <time>2018-04-10T08:37:54Z</time>
      </trkpt>
      <trkpt lat="41.4231280" lon="2.0886330">
        <ele>337.2</ele>
        <time>2018-04-10T08:37:55Z</time>
      </trkpt>
      <trkpt lat="41.4231620" lon="2.0886860">
        <ele>336.0</ele>
        <time>2018-04-10T08:37:56Z</time>
      </trkpt>
      <trkpt lat="41.4232060" lon="2.0887350">
        <ele>334.8</ele>
        <time>2018-04-10T08:37:57Z</time>
      </trkpt>
      <trkpt lat="41.4232630" lon="2.0887890">
        <ele>333.8</ele>
        <time>2018-04-10T08:37:58Z</time>
      </trkpt>
      <trkpt lat="41.4233220" lon="2.0888530">
        <ele>331.8</ele>
        <time>2018-04-10T08:37:59Z</time>
      </trkpt>
      <trkpt lat="41.4234360" lon="2.0890070">
        <ele>329.8</ele>
        <time>2018-04-10T08:38:01Z</time>
      </trkpt>
      <trkpt lat="41.4234790" lon="2.0890970">
        <ele>329.0</ele>
        <time>2018-04-10T08:38:02Z</time>
      </trkpt>
      <trkpt lat="41.4235250" lon="2.0891840">
        <ele>328.0</ele>
        <time>2018-04-10T08:38:03Z</time>
      </trkpt>
      <trkpt lat="41.4235980" lon="2.0893340">
        <ele>326.0</ele>
        <time>2018-04-10T08:38:05Z</time>
      </trkpt>
      <trkpt lat="41.4236230" lon="2.0894620">
        <ele>324.4</ele>
        <time>2018-04-10T08:38:07Z</time>
      </trkpt>
      <trkpt lat="41.4235670" lon="2.0895560">
        <ele>322.8</ele>
        <time>2018-04-10T08:38:09Z</time>
      </trkpt>
      <trkpt lat="41.4234390" lon="2.0896020">
        <ele>321.0</ele>
        <time>2018-04-10T08:38:11Z</time>
      </trkpt>
      <trkpt lat="41.4233660" lon="2.0896130">
        <ele>320.2</ele>
        <time>2018-04-10T08:38:12Z</time>
      </trkpt>
      <trkpt lat="41.4232930" lon="2.0896220">
        <ele>319.4</ele>
        <time>2018-04-10T08:38:13Z</time>
      </trkpt>
      <trkpt lat="41.4231600" lon="2.0896550">
        <ele>317.8</ele>
        <time>2018-04-10T08:38:15Z</time>
      </trkpt>
      <trkpt lat="41.4231010" lon="2.0896860">
        <ele>317.2</ele>
        <time>2018-04-10T08:38:16Z</time>
      </trkpt>
      <trkpt lat="41.4230430" lon="2.0897270">
        <ele>316.6</ele>
        <time>2018-04-10T08:38:17Z</time>
      </trkpt>
      <trkpt lat="41.4229630" lon="2.0898030">
        <ele>315.2</ele>
        <time>2018-04-10T08:38:19Z</time>
      </trkpt>
      <trkpt lat="41.4229310" lon="2.0898710">
        <ele>313.6</ele>
        <time>2018-04-10T08:38:21Z</time>
      </trkpt>
      <trkpt lat="41.4229470" lon="2.0899020">
        <ele>312.6</ele>
        <time>2018-04-10T08:38:22Z</time>
      </trkpt>
      <trkpt lat="41.4229730" lon="2.0899320">
        <ele>311.6</ele>
        <time>2018-04-10T08:38:23Z</time>
      </trkpt>
      <trkpt lat="41.4230550" lon="2.0899150">
        <ele>309.6</ele>
        <time>2018-04-10T08:38:25Z</time>
      </trkpt>
      <trkpt lat="41.4231550" lon="2.0898580">
        <ele>308.0</ele>
        <time>2018-04-10T08:38:27Z</time>
      </trkpt>
      <trkpt lat="41.4232170" lon="2.0898450">
        <ele>306.8</ele>
        <time>2018-04-10T08:38:28Z</time>
      </trkpt>
      <trkpt lat="41.4232950" lon="2.0898440">
        <ele>306.4</ele>
        <time>2018-04-10T08:38:29Z</time>
      </trkpt>
      <trkpt lat="41.4234650" lon="2.0898850">
        <ele>305.6</ele>
        <time>2018-04-10T08:38:31Z</time>
      </trkpt>
      <trkpt lat="41.4236380" lon="2.0899590">
        <ele>304.4</ele>
        <time>2018-04-10T08:38:33Z</time>
      </trkpt>
      <trkpt lat="41.4237260" lon="2.0899840">
        <ele>304.0</ele>
        <time>2018-04-10T08:38:34Z</time>
      </trkpt>
      <trkpt lat="41.4238110" lon="2.0900040">
        <ele>303.4</ele>
        <time>2018-04-10T08:38:35Z</time>
      </trkpt>
      <trkpt lat="41.4239690" lon="2.0900630">
        <ele>302.4</ele>
        <time>2018-04-10T08:38:37Z</time>
      </trkpt>
      <trkpt lat="41.4240940" lon="2.0901620">
        <ele>301.2</ele>
        <time>2018-04-10T08:38:39Z</time>
      </trkpt>
      <trkpt lat="41.4241990" lon="2.0902840">
        <ele>299.2</ele>
        <time>2018-04-10T08:38:41Z</time>
      </trkpt>
      <trkpt lat="41.4242630" lon="2.0903270">
        <ele>298.0</ele>
        <time>2018-04-10T08:38:42Z</time>
      </trkpt>
      <trkpt lat="41.4243330" lon="2.0903540">
        <ele>296.6</ele>
        <time>2018-04-10T08:38:43Z</time>
      </trkpt>
      <trkpt lat="41.4244090" lon="2.0903670">
        <ele>295.4</ele>
        <time>2018-04-10T08:38:44Z</time>
      </trkpt>
      <trkpt lat="41.4244700" lon="2.0903670">
        <ele>294.4</ele>
        <time>2018-04-10T08:38:45Z</time>
      </trkpt>
      <trkpt lat="41.4245210" lon="2.0903650">
        <ele>293.4</ele>
        <time>2018-04-10T08:38:46Z</time>
      </trkpt>
      <trkpt lat="41.4245570" lon="2.0903710">
        <ele>292.2</ele>
        <time>2018-04-10T08:38:47Z</time>
      </trkpt>
      <trkpt lat="41.4245830" lon="2.0903860">
        <ele>291.2</ele>
        <time>2018-04-10T08:38:48Z</time>
      </trkpt>
      <trkpt lat="41.4245860" lon="2.0904100">
        <ele>290.0</ele>
        <time>2018-04-10T08:38:49Z</time>
      </trkpt>
      <trkpt lat="41.4245120" lon="2.0904440">
        <ele>288.0</ele>
        <time>2018-04-10T08:38:51Z</time>
      </trkpt>
      <trkpt lat="41.4244690" lon="2.0904530">
        <ele>286.8</ele>
        <time>2018-04-10T08:38:52Z</time>
      </trkpt>
      <trkpt lat="41.4244220" lon="2.0904640">
        <ele>285.8</ele>
        <time>2018-04-10T08:38:53Z</time>
      </trkpt>
      <trkpt lat="41.4243660" lon="2.0904830">
        <ele>284.6</ele>
        <time>2018-04-10T08:38:54Z</time>
      </trkpt>
      <trkpt lat="41.4243080" lon="2.0905030">
        <ele>283.6</ele>
        <time>2018-04-10T08:38:55Z</time>
      </trkpt>
      <trkpt lat="41.4241860" lon="2.0904740">
        <ele>281.8</ele>
        <time>2018-04-10T08:38:57Z</time>
      </trkpt>
      <trkpt lat="41.4240920" lon="2.0904010">
        <ele>280.6</ele>
        <time>2018-04-10T08:38:59Z</time>
      </trkpt>
      <trkpt lat="41.4240600" lon="2.0903560">
        <ele>279.8</ele>
        <time>2018-04-10T08:39:01Z</time>
      </trkpt>
      <trkpt lat="41.4240700" lon="2.0903640">
        <ele>279.4</ele>
        <time>2018-04-10T08:39:02Z</time>
      </trkpt>
      <trkpt lat="41.4240930" lon="2.0903990">
        <ele>279.0</ele>
        <time>2018-04-10T08:39:03Z</time>
      </trkpt>
      <trkpt lat="41.4241830" lon="2.0904830">
        <ele>278.0</ele>
        <time>2018-04-10T08:39:05Z</time>
      </trkpt>
      <trkpt lat="41.4243140" lon="2.0905540">
        <ele>277.2</ele>
        <time>2018-04-10T08:39:07Z</time>
      </trkpt>
      <trkpt lat="41.4244620" lon="2.0906070">
        <ele>276.8</ele>
        <time>2018-04-10T08:39:09Z</time>
      </trkpt>
      <trkpt lat="41.4246070" lon="2.0906590">
        <ele>276.0</ele>
        <time>2018-04-10T08:39:11Z</time>
      </trkpt>
      <trkpt lat="41.4246930" lon="2.0906690">
        <ele>275.4</ele>
        <time>2018-04-10T08:39:12Z</time>
      </trkpt>
      <trkpt lat="41.4247830" lon="2.0906690">
        <ele>274.8</ele>
        <time>2018-04-10T08:39:13Z</time>
      </trkpt>
      <trkpt lat="41.4248720" lon="2.0906670">
        <ele>274.0</ele>
        <time>2018-04-10T08:39:14Z</time>
      </trkpt>
      <trkpt lat="41.4249570" lon="2.0906660">
        <ele>273.2</ele>
        <time>2018-04-10T08:39:15Z</time>
      </trkpt>
      <trkpt lat="41.4250440" lon="2.0906470">
        <ele>272.2</ele>
        <time>2018-04-10T08:39:16Z</time>
      </trkpt>
      <trkpt lat="41.4251310" lon="2.0906110">
        <ele>271.2</ele>
        <time>2018-04-10T08:39:17Z</time>
      </trkpt>
      <trkpt lat="41.4252230" lon="2.0905610">
        <ele>270.4</ele>
        <time>2018-04-10T08:39:18Z</time>
      </trkpt>
      <trkpt lat="41.4253170" lon="2.0905070">
        <ele>269.8</ele>
        <time>2018-04-10T08:39:19Z</time>
      </trkpt>
      <trkpt lat="41.4253930" lon="2.0904590">
        <ele>269.4</ele>
        <time>2018-04-10T08:39:20Z</time>
      </trkpt>
      <trkpt lat="41.4254610" lon="2.0904180">
        <ele>268.8</ele>
        <time>2018-04-10T08:39:21Z</time>
      </trkpt>
      <trkpt lat="41.4255270" lon="2.0903850">
        <ele>268.2</ele>
        <time>2018-04-10T08:39:22Z</time>
      </trkpt>
      <trkpt lat="41.4255830" lon="2.0903480">
        <ele>267.6</ele>
        <time>2018-04-10T08:39:23Z</time>
      </trkpt>
      <trkpt lat="41.4256160" lon="2.0902840">
        <ele>267.0</ele>
        <time>2018-04-10T08:39:24Z</time>
      </trkpt>
      <trkpt lat="41.4256250" lon="2.0902050">
        <ele>266.2</ele>
        <time>2018-04-10T08:39:25Z</time>
      </trkpt>
      <trkpt lat="41.4256080" lon="2.0901300">
        <ele>265.6</ele>
        <time>2018-04-10T08:39:26Z</time>
      </trkpt>
      <trkpt lat="41.4255720" lon="2.0900590">
        <ele>264.2</ele>
        <time>2018-04-10T08:39:27Z</time>
      </trkpt>
      <trkpt lat="41.4255220" lon="2.0899880">
        <ele>263.6</ele>
        <time>2018-04-10T08:39:28Z</time>
      </trkpt>
      <trkpt lat="41.4254730" lon="2.0899150">
        <ele>263.0</ele>
        <time>2018-04-10T08:39:29Z</time>
      </trkpt>
      <trkpt lat="41.4253800" lon="2.0897950">
        <ele>261.8</ele>
        <time>2018-04-10T08:39:31Z</time>
      </trkpt>
      <trkpt lat="41.4253230" lon="2.0897140">
        <ele>260.6</ele>
        <time>2018-04-10T08:39:33Z</time>
      </trkpt>
      <trkpt lat="41.4252860" lon="2.0896560">
        <ele>259.4</ele>
        <time>2018-04-10T08:39:35Z</time>
      </trkpt>
      <trkpt lat="41.4253290" lon="2.0896500">
        <ele>258.0</ele>
        <time>2018-04-10T08:39:37Z</time>
      </trkpt>
      <trkpt lat="41.4254270" lon="2.0896640">
        <ele>256.8</ele>
        <time>2018-04-10T08:39:39Z</time>
      </trkpt>
      <trkpt lat="41.4255480" lon="2.0896560">
        <ele>255.8</ele>
        <time>2018-04-10T08:39:41Z</time>
      </trkpt>
      <trkpt lat="41.4256060" lon="2.0896390">
        <ele>255.6</ele>
        <time>2018-04-10T08:39:42Z</time>
      </trkpt>
      <trkpt lat="41.4256680" lon="2.0896220">
        <ele>255.2</ele>
        <time>2018-04-10T08:39:43Z</time>
      </trkpt>
      <trkpt lat="41.4258040" lon="2.0896310">
        <ele>254.4</ele>
        <time>2018-04-10T08:39:45Z</time>
      </trkpt>
      <trkpt lat="41.4259700" lon="2.0896920">
        <ele>253.2</ele>
        <time>2018-04-10T08:39:47Z</time>
      </trkpt>
      <trkpt lat="41.4261530" lon="2.0897870">
        <ele>251.6</ele>
        <time>2018-04-10T08:39:49Z</time>
      </trkpt>
      <trkpt lat="41.4263290" lon="2.0898880">
        <ele>250.2</ele>
        <time>2018-04-10T08:39:51Z</time>
      </trkpt>
      <trkpt lat="41.4264910" lon="2.0899650">
        <ele>248.6</ele>
        <time>2018-04-10T08:39:53Z</time>
      </trkpt>
      <trkpt lat="41.4266420" lon="2.0900400">
        <ele>247.2</ele>
        <time>2018-04-10T08:39:55Z</time>
      </trkpt>
      <trkpt lat="41.4267030" lon="2.0900840">
        <ele>245.2</ele>
        <time>2018-04-10T08:39:56Z</time>
      </trkpt>
      <trkpt lat="41.4267430" lon="2.0901360">
        <ele>244.2</ele>
        <time>2018-04-10T08:39:57Z</time>
      </trkpt>
      <trkpt lat="41.4267630" lon="2.0902000">
        <ele>243.0</ele>
        <time>2018-04-10T08:39:58Z</time>
      </trkpt>
      <trkpt lat="41.4267630" lon="2.0902720">
        <ele>242.2</ele>
        <time>2018-04-10T08:39:59Z</time>
      </trkpt>
      <trkpt lat="41.4267420" lon="2.0903480">
        <ele>241.6</ele>
        <time>2018-04-10T08:40:00Z</time>
      </trkpt>
      <trkpt lat="41.4267070" lon="2.0904240">
        <ele>241.0</ele>
        <time>2018-04-10T08:40:01Z</time>
      </trkpt>
      <trkpt lat="41.4265840" lon="2.0905620">
        <ele>240.4</ele>
        <time>2018-04-10T08:40:03Z</time>
      </trkpt>
      <trkpt lat="41.4264590" lon="2.0906380">
        <ele>239.6</ele>
        <time>2018-04-10T08:40:05Z</time>
      </trkpt>
      <trkpt lat="41.4263610" lon="2.0907290">
        <ele>239.0</ele>
        <time>2018-04-10T08:40:07Z</time>
      </trkpt>
      <trkpt lat="41.4262820" lon="2.0908550">
        <ele>238.4</ele>
        <time>2018-04-10T08:40:09Z</time>
      </trkpt>
      <trkpt lat="41.4262410" lon="2.0909200">
        <ele>237.8</ele>
        <time>2018-04-10T08:40:10Z</time>
      </trkpt>
      <trkpt lat="41.4262030" lon="2.0909840">
        <ele>237.8</ele>
        <time>2018-04-10T08:40:11Z</time>
      </trkpt>
      <trkpt lat="41.4261120" lon="2.0910910">
        <ele>237.4</ele>
        <time>2018-04-10T08:40:13Z</time>
      </trkpt>
      <trkpt lat="41.4259970" lon="2.0911490">
        <ele>237.0</ele>
        <time>2018-04-10T08:40:15Z</time>
      </trkpt>
      <trkpt lat="41.4258800" lon="2.0911730">
        <ele>236.4</ele>
        <time>2018-04-10T08:40:17Z</time>
      </trkpt>
      <trkpt lat="41.4257710" lon="2.0911820">
        <ele>236.4</ele>
        <time>2018-04-10T08:40:19Z</time>
      </trkpt>
      <trkpt lat="41.4257180" lon="2.0911740">
        <ele>236.2</ele>
        <time>2018-04-10T08:40:20Z</time>
      </trkpt>
      <trkpt lat="41.4256710" lon="2.0911500">
        <ele>236.2</ele>
        <time>2018-04-10T08:40:21Z</time>
      </trkpt>
      <trkpt lat="41.4255660" lon="2.0910920">
        <ele>236.2</ele>
        <time>2018-04-10T08:40:23Z</time>
      </trkpt>
      <trkpt lat="41.4254350" lon="2.0910830">
        <ele>236.2</ele>
        <time>2018-04-10T08:40:25Z</time>
      </trkpt>
      <trkpt lat="41.4253130" lon="2.0911530">
        <ele>236.0</ele>
        <time>2018-04-10T08:40:27Z</time>
      </trkpt>
      <trkpt lat="41.4252150" lon="2.0912870">
        <ele>235.8</ele>
        <time>2018-04-10T08:40:29Z</time>
      </trkpt>
      <trkpt lat="41.4251450" lon="2.0914600">
        <ele>235.8</ele>
        <time>2018-04-10T08:40:31Z</time>
      </trkpt>
      <trkpt lat="41.4250870" lon="2.0916930">
        <ele>235.6</ele>
        <time>2018-04-10T08:40:33Z</time>
      </trkpt>
      <trkpt lat="41.4250670" lon="2.0918060">
        <ele>235.2</ele>
        <time>2018-04-10T08:40:34Z</time>
      </trkpt>
      <trkpt lat="41.4250590" lon="2.0919100">
        <ele>234.8</ele>
        <time>2018-04-10T08:40:35Z</time>
      </trkpt>
      <trkpt lat="41.4250620" lon="2.0920120">
        <ele>234.4</ele>
        <time>2018-04-10T08:40:36Z</time>
      </trkpt>
      <trkpt lat="41.4250720" lon="2.0920970">
        <ele>233.8</ele>
        <time>2018-04-10T08:40:37Z</time>
      </trkpt>
      <trkpt lat="41.4250800" lon="2.0921880">
        <ele>233.0</ele>
        <time>2018-04-10T08:40:38Z</time>
      </trkpt>
      <trkpt lat="41.4250710" lon="2.0922800">
        <ele>232.2</ele>
        <time>2018-04-10T08:40:39Z</time>
      </trkpt>
      <trkpt lat="41.4250800" lon="2.0923430">
        <ele>231.4</ele>
        <time>2018-04-10T08:40:40Z</time>
      </trkpt>
      <trkpt lat="41.4250760" lon="2.0924290">
        <ele>230.6</ele>
        <time>2018-04-10T08:40:41Z</time>
      </trkpt>
      <trkpt lat="41.4250750" lon="2.0924780">
        <ele>229.6</ele>
        <time>2018-04-10T08:40:42Z</time>
      </trkpt>
      <trkpt lat="41.4250690" lon="2.0925130">
        <ele>228.6</ele>
        <time>2018-04-10T08:40:43Z</time>
      </trkpt>
      <trkpt lat="41.4250760" lon="2.0925300">
        <ele>227.6</ele>
        <time>2018-04-10T08:40:44Z</time>
      </trkpt>
      <trkpt lat="41.4250780" lon="2.0925540">
        <ele>227.2</ele>
        <time>2018-04-10T08:40:45Z</time>
      </trkpt>
      <trkpt lat="41.4250940" lon="2.0925680">
        <ele>226.6</ele>
        <time>2018-04-10T08:40:47Z</time>
      </trkpt>
      <trkpt lat="41.4251030" lon="2.0925870">
        <ele>226.6</ele>
        <time>2018-04-10T08:40:49Z</time>
      </trkpt>
      <trkpt lat="41.4251200" lon="2.0926110">
        <ele>226.4</ele>
        <time>2018-04-10T08:40:51Z</time>
      </trkpt>
      <trkpt lat="41.4251670" lon="2.0926150">
        <ele>226.4</ele>
        <time>2018-04-10T08:40:53Z</time>
      </trkpt>
      <trkpt lat="41.4252330" lon="2.0925810">
        <ele>226.4</ele>
        <time>2018-04-10T08:40:55Z</time>
      </trkpt>
      <trkpt lat="41.4252710" lon="2.0925560">
        <ele>226.4</ele>
        <time>2018-04-10T08:40:56Z</time>
      </trkpt>
      <trkpt lat="41.4253110" lon="2.0925320">
        <ele>226.4</ele>
        <time>2018-04-10T08:40:57Z</time>
      </trkpt>
      <trkpt lat="41.4253980" lon="2.0924850">
        <ele>226.4</ele>
        <time>2018-04-10T08:40:59Z</time>
      </trkpt>
      <trkpt lat="41.4254960" lon="2.0924310">
        <ele>226.4</ele>
        <time>2018-04-10T08:41:01Z</time>
      </trkpt>
      <trkpt lat="41.4256060" lon="2.0923730">
        <ele>226.2</ele>
        <time>2018-04-10T08:41:03Z</time>
      </trkpt>
      <trkpt lat="41.4257230" lon="2.0923080">
        <ele>226.2</ele>
        <time>2018-04-10T08:41:05Z</time>
      </trkpt>
      <trkpt lat="41.4258500" lon="2.0922390">
        <ele>226.0</ele>
        <time>2018-04-10T08:41:07Z</time>
      </trkpt>
      <trkpt lat="41.4259770" lon="2.0921710">
        <ele>225.8</ele>
        <time>2018-04-10T08:41:09Z</time>
      </trkpt>
      <trkpt lat="41.4261030" lon="2.0920950">
        <ele>225.6</ele>
        <time>2018-04-10T08:41:11Z</time>
      </trkpt>
      <trkpt lat="41.4262350" lon="2.0920230">
        <ele>225.6</ele>
        <time>2018-04-10T08:41:13Z</time>
      </trkpt>
      <trkpt lat="41.4263650" lon="2.0919530">
        <ele>225.4</ele>
        <time>2018-04-10T08:41:15Z</time>
      </trkpt>
      <trkpt lat="41.4264950" lon="2.0918800">
        <ele>225.4</ele>
        <time>2018-04-10T08:41:17Z</time>
      </trkpt>
      <trkpt lat="41.4266240" lon="2.0918050">
        <ele>225.2</ele>
        <time>2018-04-10T08:41:19Z</time>
      </trkpt>
      <trkpt lat="41.4267530" lon="2.0917370">
        <ele>224.8</ele>
        <time>2018-04-10T08:41:21Z</time>
      </trkpt>
      <trkpt lat="41.4268910" lon="2.0916730">
        <ele>224.6</ele>
        <time>2018-04-10T08:41:23Z</time>
      </trkpt>
      <trkpt lat="41.4269610" lon="2.0916370">
        <ele>224.4</ele>
        <time>2018-04-10T08:41:24Z</time>
      </trkpt>
      <trkpt lat="41.4270340" lon="2.0915960">
        <ele>224.2</ele>
        <time>2018-04-10T08:41:25Z</time>
      </trkpt>
      <trkpt lat="41.4271640" lon="2.0915080">
        <ele>224.2</ele>
        <time>2018-04-10T08:41:27Z</time>
      </trkpt>
      <trkpt lat="41.4272910" lon="2.0914190">
        <ele>224.0</ele>
        <time>2018-04-10T08:41:29Z</time>
      </trkpt>
      <trkpt lat="41.4274260" lon="2.0913430">
        <ele>223.8</ele>
        <time>2018-04-10T08:41:31Z</time>
      </trkpt>
      <trkpt lat="41.4275700" lon="2.0912800">
        <ele>223.6</ele>
        <time>2018-04-10T08:41:33Z</time>
      </trkpt>
      <trkpt lat="41.4277320" lon="2.0912270">
        <ele>223.4</ele>
        <time>2018-04-10T08:41:35Z</time>
      </trkpt>
      <trkpt lat="41.4279060" lon="2.0911590">
        <ele>223.2</ele>
        <time>2018-04-10T08:41:37Z</time>
      </trkpt>
      <trkpt lat="41.4280870" lon="2.0910750">
        <ele>223.0</ele>
        <time>2018-04-10T08:41:39Z</time>
      </trkpt>
      <trkpt lat="41.4281770" lon="2.0910200">
        <ele>222.6</ele>
        <time>2018-04-10T08:41:40Z</time>
      </trkpt>
      <trkpt lat="41.4282620" lon="2.0909500">
        <ele>222.4</ele>
        <time>2018-04-10T08:41:41Z</time>
      </trkpt>
      <trkpt lat="41.4284330" lon="2.0907850">
        <ele>221.6</ele>
        <time>2018-04-10T08:41:43Z</time>
      </trkpt>
      <trkpt lat="41.4285110" lon="2.0906830">
        <ele>221.0</ele>
        <time>2018-04-10T08:41:44Z</time>
      </trkpt>
      <trkpt lat="41.4285740" lon="2.0905690">
        <ele>220.2</ele>
        <time>2018-04-10T08:41:45Z</time>
      </trkpt>
      <trkpt lat="41.4286570" lon="2.0903070">
        <ele>219.0</ele>
        <time>2018-04-10T08:41:47Z</time>
      </trkpt>
      <trkpt lat="41.4286900" lon="2.0900300">
        <ele>217.4</ele>
        <time>2018-04-10T08:41:49Z</time>
      </trkpt>
      <trkpt lat="41.4286960" lon="2.0898920">
        <ele>216.8</ele>
        <time>2018-04-10T08:41:50Z</time>
      </trkpt>
      <trkpt lat="41.4286980" lon="2.0897530">
        <ele>215.8</ele>
        <time>2018-04-10T08:41:51Z</time>
      </trkpt>
      <trkpt lat="41.4286990" lon="2.0894810">
        <ele>214.0</ele>
        <time>2018-04-10T08:41:53Z</time>
      </trkpt>
      <trkpt lat="41.4286990" lon="2.0893460">
        <ele>213.0</ele>
        <time>2018-04-10T08:41:54Z</time>
      </trkpt>
      <trkpt lat="41.4287000" lon="2.0892130">
        <ele>212.4</ele>
        <time>2018-04-10T08:41:55Z</time>
      </trkpt>
      <trkpt lat="41.4287050" lon="2.0889490">
        <ele>211.6</ele>
        <time>2018-04-10T08:41:57Z</time>
      </trkpt>
      <trkpt lat="41.4287090" lon="2.0886880">
        <ele>210.8</ele>
        <time>2018-04-10T08:41:59Z</time>
      </trkpt>
      <trkpt lat="41.4287140" lon="2.0885570">
        <ele>210.4</ele>
        <time>2018-04-10T08:42:00Z</time>
      </trkpt>
      <trkpt lat="41.4287240" lon="2.0884290">
        <ele>210.0</ele>
        <time>2018-04-10T08:42:01Z</time>
      </trkpt>
      <trkpt lat="41.4287560" lon="2.0881720">
        <ele>209.4</ele>
        <time>2018-04-10T08:42:03Z</time>
      </trkpt>
      <trkpt lat="41.4287760" lon="2.0880440">
        <ele>209.0</ele>
        <time>2018-04-10T08:42:04Z</time>
      </trkpt>
      <trkpt lat="41.4287950" lon="2.0879170">
        <ele>208.6</ele>
        <time>2018-04-10T08:42:05Z</time>
      </trkpt>
      <trkpt lat="41.4288320" lon="2.0876660">
        <ele>207.8</ele>
        <time>2018-04-10T08:42:07Z</time>
      </trkpt>
      <trkpt lat="41.4288780" lon="2.0874110">
        <ele>207.2</ele>
        <time>2018-04-10T08:42:09Z</time>
      </trkpt>
      <trkpt lat="41.4289240" lon="2.0871600">
        <ele>206.8</ele>
        <time>2018-04-10T08:42:11Z</time>
      </trkpt>
      <trkpt lat="41.4289680" lon="2.0869060">
        <ele>206.2</ele>
        <time>2018-04-10T08:42:13Z</time>
      </trkpt>
      <trkpt lat="41.4290130" lon="2.0866600">
        <ele>205.4</ele>
        <time>2018-04-10T08:42:15Z</time>
      </trkpt>
      <trkpt lat="41.4290540" lon="2.0864120">
        <ele>204.6</ele>
        <time>2018-04-10T08:42:17Z</time>
      </trkpt>
      <trkpt lat="41.4290750" lon="2.0862870">
        <ele>204.2</ele>
        <time>2018-04-10T08:42:18Z</time>
      </trkpt>
      <trkpt lat="41.4290980" lon="2.0861630">
        <ele>204.0</ele>
        <time>2018-04-10T08:42:19Z</time>
      </trkpt>
      <trkpt lat="41.4291600" lon="2.0859250">
        <ele>203.2</ele>
        <time>2018-04-10T08:42:21Z</time>
      </trkpt>
      <trkpt lat="41.4292570" lon="2.0857070">
        <ele>202.4</ele>
        <time>2018-04-10T08:42:23Z</time>
      </trkpt>
      <trkpt lat="41.4293080" lon="2.0856010">
        <ele>202.0</ele>
        <time>2018-04-10T08:42:24Z</time>
      </trkpt>
      <trkpt lat="41.4293590" lon="2.0854960">
        <ele>201.6</ele>
        <time>2018-04-10T08:42:25Z</time>
      </trkpt>
      <trkpt lat="41.4294610" lon="2.0852930">
        <ele>200.8</ele>
        <time>2018-04-10T08:42:27Z</time>
      </trkpt>
      <trkpt lat="41.4295560" lon="2.0850880">
        <ele>200.0</ele>
        <time>2018-04-10T08:42:29Z</time>
      </trkpt>
      <trkpt lat="41.4296020" lon="2.0849890">
        <ele>199.6</ele>
        <time>2018-04-10T08:42:30Z</time>
      </trkpt>
      <trkpt lat="41.4296450" lon="2.0848990">
        <ele>199.2</ele>
        <time>2018-04-10T08:42:31Z</time>
      </trkpt>
      <trkpt lat="41.4297310" lon="2.0847550">
        <ele>198.6</ele>
        <time>2018-04-10T08:42:33Z</time>
      </trkpt>
      <trkpt lat="41.4298410" lon="2.0846820">
        <ele>198.0</ele>
        <time>2018-04-10T08:42:35Z</time>
      </trkpt>
      <trkpt lat="41.4299290" lon="2.0847060">
        <ele>197.6</ele>
        <time>2018-04-10T08:42:37Z</time>
      </trkpt>
      <trkpt lat="41.4299530" lon="2.0847160">
        <ele>197.6</ele>
        <time>2018-04-10T08:42:39Z</time>
      </trkpt>
      <trkpt lat="41.4299510" lon="2.0847220">
        <ele>197.4</ele>
        <time>2018-04-10T08:42:41Z</time>
      </trkpt>
      <trkpt lat="41.4299560" lon="2.0847260">
        <ele>197.4</ele>
        <time>2018-04-10T08:42:43Z</time>
      </trkpt>
      <trkpt lat="41.4299640" lon="2.0847360">
        <ele>197.4</ele>
        <time>2018-04-10T08:42:45Z</time>
      </trkpt>
      <trkpt lat="41.4299720" lon="2.0847400">
        <ele>197.8</ele>
        <time>2018-04-10T08:42:47Z</time>
      </trkpt>
      <trkpt lat="41.4299840" lon="2.0847510">
        <ele>198.2</ele>
        <time>2018-04-10T08:42:49Z</time>
      </trkpt>
      <trkpt lat="41.4299940" lon="2.0847450">
        <ele>198.4</ele>
        <time>2018-04-10T08:42:51Z</time>
      </trkpt>
      <trkpt lat="41.4299770" lon="2.0847210">
        <ele>198.4</ele>
        <time>2018-04-10T08:42:53Z</time>
      </trkpt>
      <trkpt lat="41.4299510" lon="2.0846790">
        <ele>198.4</ele>
        <time>2018-04-10T08:42:55Z</time>
      </trkpt>
      <trkpt lat="41.4299240" lon="2.0846220">
        <ele>198.4</ele>
        <time>2018-04-10T08:42:57Z</time>
      </trkpt>
      <trkpt lat="41.4299100" lon="2.0846020">
        <ele>198.4</ele>
        <time>2018-04-10T08:42:58Z</time>
      </trkpt>
      <trkpt lat="41.4298910" lon="2.0845950">
        <ele>198.4</ele>
        <time>2018-04-10T08:42:59Z</time>
      </trkpt>
      <trkpt lat="41.4298530" lon="2.0846120">
        <ele>198.4</ele>
        <time>2018-04-10T08:43:01Z</time>
      </trkpt>
      <trkpt lat="41.4298620" lon="2.0846730">
        <ele>197.8</ele>
        <time>2018-04-10T08:43:03Z</time>
      </trkpt>
      <trkpt lat="41.4299090" lon="2.0847110">
        <ele>197.0</ele>
        <time>2018-04-10T08:43:05Z</time>
      </trkpt>
      <trkpt lat="41.4299640" lon="2.0847540">
        <ele>196.6</ele>
        <time>2018-04-10T08:43:07Z</time>
      </trkpt>
      <trkpt lat="41.4300030" lon="2.0847990">
        <ele>196.6</ele>
        <time>2018-04-10T08:43:09Z</time>
      </trkpt>
      <trkpt lat="41.4300170" lon="2.0848190">
        <ele>196.6</ele>
        <time>2018-04-10T08:43:10Z</time>
      </trkpt>
      <trkpt lat="41.4300290" lon="2.0848400">
        <ele>196.6</ele>
        <time>2018-04-10T08:43:11Z</time>
      </trkpt>
      <trkpt lat="41.4300500" lon="2.0848870">
        <ele>196.6</ele>
        <time>2018-04-10T08:43:13Z</time>
      </trkpt>
      <trkpt lat="41.4300830" lon="2.0849360">
        <ele>197.0</ele>
        <time>2018-04-10T08:43:15Z</time>
      </trkpt>
      <trkpt lat="41.4300940" lon="2.0849610">
        <ele>197.4</ele>
        <time>2018-04-10T08:43:16Z</time>
      </trkpt>
      <trkpt lat="41.4300990" lon="2.0849890">
        <ele>198.0</ele>
        <time>2018-04-10T08:43:17Z</time>
      </trkpt>
      <trkpt lat="41.4301030" lon="2.0850190">
        <ele>198.6</ele>
        <time>2018-04-10T08:43:18Z</time>
      </trkpt>
      <trkpt lat="41.4301100" lon="2.0850480">
        <ele>199.2</ele>
        <time>2018-04-10T08:43:19Z</time>
      </trkpt>
      <trkpt lat="41.4301240" lon="2.0850770">
        <ele>199.8</ele>
        <time>2018-04-10T08:43:20Z</time>
      </trkpt>
      <trkpt lat="41.4301380" lon="2.0851040">
        <ele>200.4</ele>
        <time>2018-04-10T08:43:21Z</time>
      </trkpt>
      <trkpt lat="41.4301480" lon="2.0851300">
        <ele>201.4</ele>
        <time>2018-04-10T08:43:22Z</time>
      </trkpt>
      <trkpt lat="41.4301550" lon="2.0851530">
        <ele>201.8</ele>
        <time>2018-04-10T08:43:23Z</time>
      </trkpt>
      <trkpt lat="41.4301640" lon="2.0852040">
        <ele>202.6</ele>
        <time>2018-04-10T08:43:25Z</time>
      </trkpt>
      <trkpt lat="41.4301950" lon="2.0852740">
        <ele>203.2</ele>
        <time>2018-04-10T08:43:27Z</time>
      </trkpt>
      <trkpt lat="41.4302120" lon="2.0853090">
        <ele>203.6</ele>
        <time>2018-04-10T08:43:28Z</time>
      </trkpt>
      <trkpt lat="41.4302250" lon="2.0853470">
        <ele>204.0</ele>
        <time>2018-04-10T08:43:29Z</time>
      </trkpt>
      <trkpt lat="41.4302570" lon="2.0854360">
        <ele>204.6</ele>
        <time>2018-04-10T08:43:31Z</time>
      </trkpt>
      <trkpt lat="41.4302930" lon="2.0855120">
        <ele>205.0</ele>
        <time>2018-04-10T08:43:33Z</time>
      </trkpt>
      <trkpt lat="41.4303620" lon="2.0855760">
        <ele>205.0</ele>
        <time>2018-04-10T08:43:35Z</time>
      </trkpt>
      <trkpt lat="41.4304250" lon="2.0856250">
        <ele>205.2</ele>
        <time>2018-04-10T08:43:37Z</time>
      </trkpt>
      <trkpt lat="41.4304780" lon="2.0856690">
        <ele>205.2</ele>
        <time>2018-04-10T08:43:39Z</time>
      </trkpt>
      <trkpt lat="41.4305300" lon="2.0857030">
        <ele>205.4</ele>
        <time>2018-04-10T08:43:41Z</time>
      </trkpt>
      <trkpt lat="41.4305820" lon="2.0857370">
        <ele>205.8</ele>
        <time>2018-04-10T08:43:43Z</time>
      </trkpt>
      <trkpt lat="41.4306320" lon="2.0857650">
        <ele>206.2</ele>
        <time>2018-04-10T08:43:45Z</time>
      </trkpt>
      <trkpt lat="41.4306810" lon="2.0857920">
        <ele>206.8</ele>
        <time>2018-04-10T08:43:47Z</time>
      </trkpt>
      <trkpt lat="41.4307070" lon="2.0858090">
        <ele>207.0</ele>
        <time>2018-04-10T08:43:48Z</time>
      </trkpt>
      <trkpt lat="41.4307320" lon="2.0858230">
        <ele>207.2</ele>
        <time>2018-04-10T08:43:49Z</time>
      </trkpt>
      <trkpt lat="41.4307850" lon="2.0858390">
        <ele>208.0</ele>
        <time>2018-04-10T08:43:51Z</time>
      </trkpt>
      <trkpt lat="41.4308090" lon="2.0858460">
        <ele>208.2</ele>
        <time>2018-04-10T08:43:52Z</time>
      </trkpt>
      <trkpt lat="41.4308300" lon="2.0858560">
        <ele>208.6</ele>
        <time>2018-04-10T08:43:53Z</time>
      </trkpt>
      <trkpt lat="41.4308710" lon="2.0858740">
        <ele>209.0</ele>
        <time>2018-04-10T08:43:55Z</time>
      </trkpt>
      <trkpt lat="41.4309130" lon="2.0858910">
        <ele>209.2</ele>
        <time>2018-04-10T08:43:57Z</time>
      </trkpt>
      <trkpt lat="41.4309470" lon="2.0859120">
        <ele>209.6</ele>
        <time>2018-04-10T08:43:59Z</time>
      </trkpt>
      <trkpt lat="41.4309860" lon="2.0859270">
        <ele>210.2</ele>
        <time>2018-04-10T08:44:01Z</time>
      </trkpt>
      <trkpt lat="41.4310070" lon="2.0859320">
        <ele>210.6</ele>
        <time>2018-04-10T08:44:02Z</time>
      </trkpt>
      <trkpt lat="41.4310280" lon="2.0859360">
        <ele>210.8</ele>
        <time>2018-04-10T08:44:03Z</time>
      </trkpt>
      <trkpt lat="41.4310690" lon="2.0859500">
        <ele>211.4</ele>
        <time>2018-04-10T08:44:05Z</time>
      </trkpt>
      <trkpt lat="41.4310870" lon="2.0859590">
        <ele>211.6</ele>
        <time>2018-04-10T08:44:06Z</time>
      </trkpt>
      <trkpt lat="41.4311040" lon="2.0859710">
        <ele>211.8</ele>
        <time>2018-04-10T08:44:07Z</time>
      </trkpt>
      <trkpt lat="41.4311360" lon="2.0859970">
        <ele>212.2</ele>
        <time>2018-04-10T08:44:09Z</time>
      </trkpt>
      <trkpt lat="41.4311710" lon="2.0860170">
        <ele>212.8</ele>
        <time>2018-04-10T08:44:11Z</time>
      </trkpt>
      <trkpt lat="41.4312120" lon="2.0860370">
        <ele>213.2</ele>
        <time>2018-04-10T08:44:13Z</time>
      </trkpt>
      <trkpt lat="41.4312550" lon="2.0860670">
        <ele>213.6</ele>
        <time>2018-04-10T08:44:15Z</time>
      </trkpt>
      <trkpt lat="41.4312930" lon="2.0860980">
        <ele>213.8</ele>
        <time>2018-04-10T08:44:17Z</time>
      </trkpt>
      <trkpt lat="41.4313290" lon="2.0861280">
        <ele>214.4</ele>
        <time>2018-04-10T08:44:19Z</time>
      </trkpt>
      <trkpt lat="41.4313700" lon="2.0861530">
        <ele>214.8</ele>
        <time>2018-04-10T08:44:21Z</time>
      </trkpt>
      <trkpt lat="41.4314120" lon="2.0861820">
        <ele>215.2</ele>
        <time>2018-04-10T08:44:23Z</time>
      </trkpt>
      <trkpt lat="41.4314520" lon="2.0862040">
        <ele>215.8</ele>
        <time>2018-04-10T08:44:25Z</time>
      </trkpt>
      <trkpt lat="41.4314730" lon="2.0862140">
        <ele>216.0</ele>
        <time>2018-04-10T08:44:26Z</time>
      </trkpt>
      <trkpt lat="41.4314910" lon="2.0862290">
        <ele>216.4</ele>
        <time>2018-04-10T08:44:27Z</time>
      </trkpt>
      <trkpt lat="41.4315240" lon="2.0862640">
        <ele>217.0</ele>
        <time>2018-04-10T08:44:29Z</time>
      </trkpt>
      <trkpt lat="41.4315440" lon="2.0862800">
        <ele>217.2</ele>
        <time>2018-04-10T08:44:30Z</time>
      </trkpt>
      <trkpt lat="41.4315640" lon="2.0862930">
        <ele>217.4</ele>
        <time>2018-04-10T08:44:31Z</time>
      </trkpt>
      <trkpt lat="41.4316060" lon="2.0863170">
        <ele>218.0</ele>
        <time>2018-04-10T08:44:33Z</time>
      </trkpt>
      <trkpt lat="41.4316520" lon="2.0863340">
        <ele>218.4</ele>
        <time>2018-04-10T08:44:35Z</time>
      </trkpt>
      <trkpt lat="41.4316940" lon="2.0863590">
        <ele>219.0</ele>
        <time>2018-04-10T08:44:37Z</time>
      </trkpt>
      <trkpt lat="41.4317330" lon="2.0863890">
        <ele>219.6</ele>
        <time>2018-04-10T08:44:39Z</time>
      </trkpt>
      <trkpt lat="41.4317710" lon="2.0864090">
        <ele>220.0</ele>
        <time>2018-04-10T08:44:41Z</time>
      </trkpt>
      <trkpt lat="41.4318080" lon="2.0864300">
        <ele>220.4</ele>
        <time>2018-04-10T08:44:43Z</time>
      </trkpt>
      <trkpt lat="41.4318240" lon="2.0864460">
        <ele>220.4</ele>
        <time>2018-04-10T08:44:44Z</time>
      </trkpt>
      <trkpt lat="41.4318410" lon="2.0864650">
        <ele>220.6</ele>
        <time>2018-04-10T08:44:45Z</time>
      </trkpt>
      <trkpt lat="41.4318770" lon="2.0864890">
        <ele>221.0</ele>
        <time>2018-04-10T08:44:47Z</time>
      </trkpt>
      <trkpt lat="41.4319170" lon="2.0864960">
        <ele>221.8</ele>
        <time>2018-04-10T08:44:49Z</time>
      </trkpt>
      <trkpt lat="41.4319540" lon="2.0865170">
        <ele>222.2</ele>
        <time>2018-04-10T08:44:51Z</time>
      </trkpt>
      <trkpt lat="41.4319890" lon="2.0865410">
        <ele>222.6</ele>
        <time>2018-04-10T08:44:53Z</time>
      </trkpt>
      <trkpt lat="41.4320090" lon="2.0865520">
        <ele>222.8</ele>
        <time>2018-04-10T08:44:54Z</time>
      </trkpt>
      <trkpt lat="41.4320270" lon="2.0865600">
        <ele>223.0</ele>
        <time>2018-04-10T08:44:55Z</time>
      </trkpt>
      <trkpt lat="41.4320670" lon="2.0865760">
        <ele>223.4</ele>
        <time>2018-04-10T08:44:57Z</time>
      </trkpt>
      <trkpt lat="41.4321000" lon="2.0865950">
        <ele>224.0</ele>
        <time>2018-04-10T08:44:59Z</time>
      </trkpt>
      <trkpt lat="41.4321380" lon="2.0866020">
        <ele>224.4</ele>
        <time>2018-04-10T08:45:01Z</time>
      </trkpt>
      <trkpt lat="41.4321860" lon="2.0866050">
        <ele>225.0</ele>
        <time>2018-04-10T08:45:03Z</time>
      </trkpt>
      <trkpt lat="41.4322110" lon="2.0866010">
        <ele>225.2</ele>
        <time>2018-04-10T08:45:04Z</time>
      </trkpt>
      <trkpt lat="41.4322330" lon="2.0865960">
        <ele>225.6</ele>
        <time>2018-04-10T08:45:05Z</time>
      </trkpt>
      <trkpt lat="41.4322790" lon="2.0865880">
        <ele>226.2</ele>
        <time>2018-04-10T08:45:07Z</time>
      </trkpt>
      <trkpt lat="41.4322990" lon="2.0865830">
        <ele>226.2</ele>
        <time>2018-04-10T08:45:08Z</time>
      </trkpt>
      <trkpt lat="41.4323230" lon="2.0865820">
        <ele>226.4</ele>
        <time>2018-04-10T08:45:09Z</time>
      </trkpt>
      <trkpt lat="41.4323660" lon="2.0865860">
        <ele>227.0</ele>
        <time>2018-04-10T08:45:11Z</time>
      </trkpt>
      <trkpt lat="41.4323870" lon="2.0865860">
        <ele>227.2</ele>
        <time>2018-04-10T08:45:12Z</time>
      </trkpt>
      <trkpt lat="41.4324080" lon="2.0865880">
        <ele>227.6</ele>
        <time>2018-04-10T08:45:13Z</time>
      </trkpt>
      <trkpt lat="41.4324540" lon="2.0865930">
        <ele>228.2</ele>
        <time>2018-04-10T08:45:15Z</time>
      </trkpt>
      <trkpt lat="41.4324770" lon="2.0865950">
        <ele>228.4</ele>
        <time>2018-04-10T08:45:16Z</time>
      </trkpt>
      <trkpt lat="41.4325000" lon="2.0865930">
        <ele>228.8</ele>
        <time>2018-04-10T08:45:17Z</time>
      </trkpt>
      <trkpt lat="41.4325450" lon="2.0865920">
        <ele>229.4</ele>
        <time>2018-04-10T08:45:19Z</time>
      </trkpt>
      <trkpt lat="41.4325870" lon="2.0865950">
        <ele>230.0</ele>
        <time>2018-04-10T08:45:21Z</time>
      </trkpt>
      <trkpt lat="41.4326090" lon="2.0865870">
        <ele>230.4</ele>
        <time>2018-04-10T08:45:22Z</time>
      </trkpt>
      <trkpt lat="41.4326280" lon="2.0865690">
        <ele>230.8</ele>
        <time>2018-04-10T08:45:23Z</time>
      </trkpt>
      <trkpt lat="41.4326570" lon="2.0865190">
        <ele>231.4</ele>
        <time>2018-04-10T08:45:25Z</time>
      </trkpt>
      <trkpt lat="41.4326680" lon="2.0864890">
        <ele>231.8</ele>
        <time>2018-04-10T08:45:26Z</time>
      </trkpt>
      <trkpt lat="41.4326740" lon="2.0864600">
        <ele>232.0</ele>
        <time>2018-04-10T08:45:27Z</time>
      </trkpt>
      <trkpt lat="41.4326710" lon="2.0864120">
        <ele>232.6</ele>
        <time>2018-04-10T08:45:29Z</time>
      </trkpt>
      <trkpt lat="41.4326640" lon="2.0863950">
        <ele>233.0</ele>
        <time>2018-04-10T08:45:30Z</time>
      </trkpt>
      <trkpt lat="41.4326580" lon="2.0863780">
        <ele>233.4</ele>
        <time>2018-04-10T08:45:31Z</time>
      </trkpt>
      <trkpt lat="41.4326470" lon="2.0863430">
        <ele>234.0</ele>
        <time>2018-04-10T08:45:33Z</time>
      </trkpt>
      <trkpt lat="41.4326280" lon="2.0863100">
        <ele>234.8</ele>
        <time>2018-04-10T08:45:35Z</time>
      </trkpt>
      <trkpt lat="41.4326170" lon="2.0862950">
        <ele>235.2</ele>
        <time>2018-04-10T08:45:36Z</time>
      </trkpt>
      <trkpt lat="41.4326030" lon="2.0862800">
        <ele>235.4</ele>
        <time>2018-04-10T08:45:37Z</time>
      </trkpt>
      <trkpt lat="41.4325750" lon="2.0862480">
        <ele>236.2</ele>
        <time>2018-04-10T08:45:39Z</time>
      </trkpt>
      <trkpt lat="41.4325630" lon="2.0862350">
        <ele>236.4</ele>
        <time>2018-04-10T08:45:40Z</time>
      </trkpt>
      <trkpt lat="41.4325520" lon="2.0862180">
        <ele>236.8</ele>
        <time>2018-04-10T08:45:41Z</time>
      </trkpt>
      <trkpt lat="41.4325240" lon="2.0861830">
        <ele>237.6</ele>
        <time>2018-04-10T08:45:43Z</time>
      </trkpt>
      <trkpt lat="41.4324930" lon="2.0861530">
        <ele>238.2</ele>
        <time>2018-04-10T08:45:45Z</time>
      </trkpt>
      <trkpt lat="41.4324760" lon="2.0861420">
        <ele>238.6</ele>
        <time>2018-04-10T08:45:46Z</time>
      </trkpt>
      <trkpt lat="41.4324580" lon="2.0861300">
        <ele>239.0</ele>
        <time>2018-04-10T08:45:47Z</time>
      </trkpt>
      <trkpt lat="41.4324430" lon="2.0861130">
        <ele>239.6</ele>
        <time>2018-04-10T08:45:48Z</time>
      </trkpt>
      <trkpt lat="41.4324270" lon="2.0860960">
        <ele>240.0</ele>
        <time>2018-04-10T08:45:49Z</time>
      </trkpt>
      <trkpt lat="41.4324000" lon="2.0860650">
        <ele>240.6</ele>
        <time>2018-04-10T08:45:51Z</time>
      </trkpt>
      <trkpt lat="41.4323730" lon="2.0860340">
        <ele>241.4</ele>
        <time>2018-04-10T08:45:53Z</time>
      </trkpt>
      <trkpt lat="41.4323600" lon="2.0860210">
        <ele>241.8</ele>
        <time>2018-04-10T08:45:54Z</time>
      </trkpt>
      <trkpt lat="41.4323480" lon="2.0860090">
        <ele>242.0</ele>
        <time>2018-04-10T08:45:55Z</time>
      </trkpt>
      <trkpt lat="41.4323170" lon="2.0859800">
        <ele>242.6</ele>
        <time>2018-04-10T08:45:57Z</time>
      </trkpt>
      <trkpt lat="41.4323000" lon="2.0859700">
        <ele>243.0</ele>
        <time>2018-04-10T08:45:58Z</time>
      </trkpt>
      <trkpt lat="41.4322840" lon="2.0859590">
        <ele>243.4</ele>
        <time>2018-04-10T08:45:59Z</time>
      </trkpt>
      <trkpt lat="41.4322490" lon="2.0859400">
        <ele>244.2</ele>
        <time>2018-04-10T08:46:01Z</time>
      </trkpt>
      <trkpt lat="41.4322170" lon="2.0859200">
        <ele>244.8</ele>
        <time>2018-04-10T08:46:03Z</time>
      </trkpt>
      <trkpt lat="41.4321990" lon="2.0859130">
        <ele>245.2</ele>
        <time>2018-04-10T08:46:04Z</time>
      </trkpt>
      <trkpt lat="41.4321840" lon="2.0859030">
        <ele>245.8</ele>
        <time>2018-04-10T08:46:05Z</time>
      </trkpt>
      <trkpt lat="41.4321760" lon="2.0858860">
        <ele>246.2</ele>
        <time>2018-04-10T08:46:06Z</time>
      </trkpt>
      <trkpt lat="41.4321710" lon="2.0858640">
        <ele>246.6</ele>
        <time>2018-04-10T08:46:07Z</time>
      </trkpt>
      <trkpt lat="41.4321600" lon="2.0858230">
        <ele>247.4</ele>
        <time>2018-04-10T08:46:09Z</time>
      </trkpt>
      <trkpt lat="41.4321530" lon="2.0858060">
        <ele>247.6</ele>
        <time>2018-04-10T08:46:10Z</time>
      </trkpt>
      <trkpt lat="41.4321430" lon="2.0857880">
        <ele>248.0</ele>
        <time>2018-04-10T08:46:11Z</time>
      </trkpt>
      <trkpt lat="41.4321120" lon="2.0857560">
        <ele>249.0</ele>
        <time>2018-04-10T08:46:13Z</time>
      </trkpt>
      <trkpt lat="41.4320850" lon="2.0857130">
        <ele>249.8</ele>
        <time>2018-04-10T08:46:15Z</time>
      </trkpt>
      <trkpt lat="41.4320740" lon="2.0856920">
        <ele>250.2</ele>
        <time>2018-04-10T08:46:16Z</time>
      </trkpt>
      <trkpt lat="41.4320650" lon="2.0856690">
        <ele>251.0</ele>
        <time>2018-04-10T08:46:17Z</time>
      </trkpt>
      <trkpt lat="41.4320570" lon="2.0856480">
        <ele>251.4</ele>
        <time>2018-04-10T08:46:18Z</time>
      </trkpt>
      <trkpt lat="41.4320470" lon="2.0856230">
        <ele>251.6</ele>
        <time>2018-04-10T08:46:19Z</time>
      </trkpt>
      <trkpt lat="41.4320280" lon="2.0855780">
        <ele>252.4</ele>
        <time>2018-04-10T08:46:21Z</time>
      </trkpt>
      <trkpt lat="41.4320230" lon="2.0855520">
        <ele>252.6</ele>
        <time>2018-04-10T08:46:22Z</time>
      </trkpt>
      <trkpt lat="41.4320240" lon="2.0855290">
        <ele>253.0</ele>
        <time>2018-04-10T08:46:23Z</time>
      </trkpt>
      <trkpt lat="41.4320430" lon="2.0854930">
        <ele>253.8</ele>
        <time>2018-04-10T08:46:25Z</time>
      </trkpt>
      <trkpt lat="41.4320560" lon="2.0854780">
        <ele>254.0</ele>
        <time>2018-04-10T08:46:26Z</time>
      </trkpt>
      <trkpt lat="41.4320710" lon="2.0854670">
        <ele>254.4</ele>
        <time>2018-04-10T08:46:27Z</time>
      </trkpt>
      <trkpt lat="41.4320870" lon="2.0854590">
        <ele>254.6</ele>
        <time>2018-04-10T08:46:28Z</time>
      </trkpt>
      <trkpt lat="41.4321010" lon="2.0854530">
        <ele>255.0</ele>
        <time>2018-04-10T08:46:29Z</time>
      </trkpt>
      <trkpt lat="41.4321160" lon="2.0854490">
        <ele>255.4</ele>
        <time>2018-04-10T08:46:30Z</time>
      </trkpt>
      <trkpt lat="41.4321310" lon="2.0854470">
        <ele>255.8</ele>
        <time>2018-04-10T08:46:31Z</time>
      </trkpt>
      <trkpt lat="41.4321570" lon="2.0854570">
        <ele>256.4</ele>
        <time>2018-04-10T08:46:33Z</time>
      </trkpt>
      <trkpt lat="41.4321880" lon="2.0854800">
        <ele>257.0</ele>
        <time>2018-04-10T08:46:35Z</time>
      </trkpt>
      <trkpt lat="41.4322200" lon="2.0854870">
        <ele>257.6</ele>
        <time>2018-04-10T08:46:37Z</time>
      </trkpt>
      <trkpt lat="41.4322520" lon="2.0854880">
        <ele>258.2</ele>
        <time>2018-04-10T08:46:39Z</time>
      </trkpt>
      <trkpt lat="41.4322820" lon="2.0855020">
        <ele>258.8</ele>
        <time>2018-04-10T08:46:41Z</time>
      </trkpt>
      <trkpt lat="41.4323090" lon="2.0855190">
        <ele>259.4</ele>
        <time>2018-04-10T08:46:43Z</time>
      </trkpt>
      <trkpt lat="41.4323380" lon="2.0855270">
        <ele>260.2</ele>
        <time>2018-04-10T08:46:45Z</time>
      </trkpt>
      <trkpt lat="41.4323700" lon="2.0855380">
        <ele>261.0</ele>
        <time>2018-04-10T08:46:47Z</time>
      </trkpt>
      <trkpt lat="41.4323870" lon="2.0855410">
        <ele>261.4</ele>
        <time>2018-04-10T08:46:48Z</time>
      </trkpt>
      <trkpt lat="41.4324010" lon="2.0855420">
        <ele>261.8</ele>
        <time>2018-04-10T08:46:49Z</time>
      </trkpt>
      <trkpt lat="41.4324330" lon="2.0855480">
        <ele>262.4</ele>
        <time>2018-04-10T08:46:51Z</time>
      </trkpt>
      <trkpt lat="41.4324610" lon="2.0855410">
        <ele>263.2</ele>
        <time>2018-04-10T08:46:53Z</time>
      </trkpt>
      <trkpt lat="41.4324930" lon="2.0855390">
        <ele>263.6</ele>
        <time>2018-04-10T08:46:55Z</time>
      </trkpt>
      <trkpt lat="41.4325230" lon="2.0855440">
        <ele>264.4</ele>
        <time>2018-04-10T08:46:57Z</time>
      </trkpt>
      <trkpt lat="41.4325540" lon="2.0855590">
        <ele>265.0</ele>
        <time>2018-04-10T08:46:59Z</time>
      </trkpt>
      <trkpt lat="41.4325770" lon="2.0855650">
        <ele>265.2</ele>
        <time>2018-04-10T08:47:00Z</time>
      </trkpt>
      <trkpt lat="41.4325980" lon="2.0855670">
        <ele>265.6</ele>
        <time>2018-04-10T08:47:01Z</time>
      </trkpt>
      <trkpt lat="41.4326370" lon="2.0855600">
        <ele>266.2</ele>
        <time>2018-04-10T08:47:03Z</time>
      </trkpt>
      <trkpt lat="41.4326740" lon="2.0855640">
        <ele>267.0</ele>
        <time>2018-04-10T08:47:05Z</time>
      </trkpt>
      <trkpt lat="41.4326980" lon="2.0855650">
        <ele>267.4</ele>
        <time>2018-04-10T08:47:06Z</time>
      </trkpt>
      <trkpt lat="41.4327230" lon="2.0855680">
        <ele>267.6</ele>
        <time>2018-04-10T08:47:07Z</time>
      </trkpt>
      <trkpt lat="41.4327680" lon="2.0855740">
        <ele>268.4</ele>
        <time>2018-04-10T08:47:09Z</time>
      </trkpt>
      <trkpt lat="41.4327870" lon="2.0855760">
        <ele>268.6</ele>
        <time>2018-04-10T08:47:10Z</time>
      </trkpt>
      <trkpt lat="41.4328060" lon="2.0855760">
        <ele>268.8</ele>
        <time>2018-04-10T08:47:11Z</time>
      </trkpt>
      <trkpt lat="41.4328480" lon="2.0855850">
        <ele>269.2</ele>
        <time>2018-04-10T08:47:13Z</time>
      </trkpt>
      <trkpt lat="41.4328850" lon="2.0856020">
        <ele>269.8</ele>
        <time>2018-04-10T08:47:15Z</time>
      </trkpt>
      <trkpt lat="41.4329200" lon="2.0856020">
        <ele>271.0</ele>
        <time>2018-04-10T08:47:17Z</time>
      </trkpt>
      <trkpt lat="41.4329610" lon="2.0856080">
        <ele>271.8</ele>
        <time>2018-04-10T08:47:19Z</time>
      </trkpt>
      <trkpt lat="41.4329840" lon="2.0856090">
        <ele>272.2</ele>
        <time>2018-04-10T08:47:20Z</time>
      </trkpt>
      <trkpt lat="41.4330070" lon="2.0856110">
        <ele>272.4</ele>
        <time>2018-04-10T08:47:21Z</time>
      </trkpt>
      <trkpt lat="41.4330480" lon="2.0856240">
        <ele>273.2</ele>
        <time>2018-04-10T08:47:23Z</time>
      </trkpt>
      <trkpt lat="41.4330880" lon="2.0856370">
        <ele>273.8</ele>
        <time>2018-04-10T08:47:25Z</time>
      </trkpt>
      <trkpt lat="41.4331180" lon="2.0856500">
        <ele>274.4</ele>
        <time>2018-04-10T08:47:27Z</time>
      </trkpt>
      <trkpt lat="41.4331600" lon="2.0856600">
        <ele>274.8</ele>
        <time>2018-04-10T08:47:29Z</time>
      </trkpt>
      <trkpt lat="41.4332020" lon="2.0856640">
        <ele>275.4</ele>
        <time>2018-04-10T08:47:31Z</time>
      </trkpt>
      <trkpt lat="41.4332220" lon="2.0856680">
        <ele>275.6</ele>
        <time>2018-04-10T08:47:32Z</time>
      </trkpt>
      <trkpt lat="41.4332400" lon="2.0856750">
        <ele>275.8</ele>
        <time>2018-04-10T08:47:33Z</time>
      </trkpt>
      <trkpt lat="41.4332690" lon="2.0856960">
        <ele>276.6</ele>
        <time>2018-04-10T08:47:35Z</time>
      </trkpt>
      <trkpt lat="41.4332790" lon="2.0857040">
        <ele>276.8</ele>
        <time>2018-04-10T08:47:36Z</time>
      </trkpt>
      <trkpt lat="41.4332900" lon="2.0857110">
        <ele>277.2</ele>
        <time>2018-04-10T08:47:37Z</time>
      </trkpt>
      <trkpt lat="41.4333170" lon="2.0857210">
        <ele>277.6</ele>
        <time>2018-04-10T08:47:39Z</time>
      </trkpt>
      <trkpt lat="41.4333320" lon="2.0857250">
        <ele>278.0</ele>
        <time>2018-04-10T08:47:40Z</time>
      </trkpt>
      <trkpt lat="41.4333490" lon="2.0857340">
        <ele>278.4</ele>
        <time>2018-04-10T08:47:41Z</time>
      </trkpt>
      <trkpt lat="41.4333770" lon="2.0857590">
        <ele>279.0</ele>
        <time>2018-04-10T08:47:43Z</time>
      </trkpt>
      <trkpt lat="41.4334130" lon="2.0857680">
        <ele>279.8</ele>
        <time>2018-04-10T08:47:45Z</time>
      </trkpt>
      <trkpt lat="41.4334310" lon="2.0857700">
        <ele>280.2</ele>
        <time>2018-04-10T08:47:46Z</time>
      </trkpt>
      <trkpt lat="41.4334490" lon="2.0857740">
        <ele>280.4</ele>
        <time>2018-04-10T08:47:47Z</time>
      </trkpt>
      <trkpt lat="41.4334790" lon="2.0857950">
        <ele>281.2</ele>
        <time>2018-04-10T08:47:49Z</time>
      </trkpt>
      <trkpt lat="41.4334910" lon="2.0858110">
        <ele>281.6</ele>
        <time>2018-04-10T08:47:50Z</time>
      </trkpt>
      <trkpt lat="41.4335020" lon="2.0858260">
        <ele>281.8</ele>
        <time>2018-04-10T08:47:51Z</time>
      </trkpt>
      <trkpt lat="41.4335250" lon="2.0858460">
        <ele>282.6</ele>
        <time>2018-04-10T08:47:53Z</time>
      </trkpt>
      <trkpt lat="41.4335390" lon="2.0858490">
        <ele>282.8</ele>
        <time>2018-04-10T08:47:54Z</time>
      </trkpt>
      <trkpt lat="41.4335590" lon="2.0858530">
        <ele>283.2</ele>
        <time>2018-04-10T08:47:55Z</time>
      </trkpt>
      <trkpt lat="41.4335940" lon="2.0858610">
        <ele>283.8</ele>
        <time>2018-04-10T08:47:57Z</time>
      </trkpt>
      <trkpt lat="41.4336120" lon="2.0858700">
        <ele>284.0</ele>
        <time>2018-04-10T08:47:58Z</time>
      </trkpt>
      <trkpt lat="41.4336270" lon="2.0858810">
        <ele>284.4</ele>
        <time>2018-04-10T08:47:59Z</time>
      </trkpt>
      <trkpt lat="41.4336530" lon="2.0859080">
        <ele>285.0</ele>
        <time>2018-04-10T08:48:01Z</time>
      </trkpt>
      <trkpt lat="41.4336840" lon="2.0859300">
        <ele>285.8</ele>
        <time>2018-04-10T08:48:03Z</time>
      </trkpt>
      <trkpt lat="41.4337190" lon="2.0859370">
        <ele>286.2</ele>
        <time>2018-04-10T08:48:05Z</time>
      </trkpt>
      <trkpt lat="41.4337570" lon="2.0859530">
        <ele>287.0</ele>
        <time>2018-04-10T08:48:07Z</time>
      </trkpt>
      <trkpt lat="41.4337720" lon="2.0859680">
        <ele>287.4</ele>
        <time>2018-04-10T08:48:08Z</time>
      </trkpt>
      <trkpt lat="41.4337850" lon="2.0859850">
        <ele>287.8</ele>
        <time>2018-04-10T08:48:09Z</time>
      </trkpt>
      <trkpt lat="41.4338120" lon="2.0860120">
        <ele>288.6</ele>
        <time>2018-04-10T08:48:11Z</time>
      </trkpt>
      <trkpt lat="41.4338460" lon="2.0860310">
        <ele>289.2</ele>
        <time>2018-04-10T08:48:13Z</time>
      </trkpt>
      <trkpt lat="41.4338760" lon="2.0860600">
        <ele>290.2</ele>
        <time>2018-04-10T08:48:15Z</time>
      </trkpt>
      <trkpt lat="41.4339040" lon="2.0860970">
        <ele>291.0</ele>
        <time>2018-04-10T08:48:17Z</time>
      </trkpt>
      <trkpt lat="41.4339150" lon="2.0861180">
        <ele>291.2</ele>
        <time>2018-04-10T08:48:18Z</time>
      </trkpt>
      <trkpt lat="41.4339260" lon="2.0861380">
        <ele>291.6</ele>
        <time>2018-04-10T08:48:19Z</time>
      </trkpt>
      <trkpt lat="41.4339480" lon="2.0861810">
        <ele>292.4</ele>
        <time>2018-04-10T08:48:21Z</time>
      </trkpt>
      <trkpt lat="41.4339670" lon="2.0862300">
        <ele>293.2</ele>
        <time>2018-04-10T08:48:23Z</time>
      </trkpt>
      <trkpt lat="41.4339780" lon="2.0862560">
        <ele>293.6</ele>
        <time>2018-04-10T08:48:24Z</time>
      </trkpt>
      <trkpt lat="41.4339900" lon="2.0862840">
        <ele>293.8</ele>
        <time>2018-04-10T08:48:25Z</time>
      </trkpt>
      <trkpt lat="41.4340120" lon="2.0863470">
        <ele>294.6</ele>
        <time>2018-04-10T08:48:27Z</time>
      </trkpt>
      <trkpt lat="41.4340240" lon="2.0863830">
        <ele>294.8</ele>
        <time>2018-04-10T08:48:28Z</time>
      </trkpt>
      <trkpt lat="41.4340390" lon="2.0864190">
        <ele>295.2</ele>
        <time>2018-04-10T08:48:29Z</time>
      </trkpt>
      <trkpt lat="41.4340690" lon="2.0864940">
        <ele>295.6</ele>
        <time>2018-04-10T08:48:31Z</time>
      </trkpt>
      <trkpt lat="41.4340840" lon="2.0865320">
        <ele>296.0</ele>
        <time>2018-04-10T08:48:32Z</time>
      </trkpt>
      <trkpt lat="41.4340990" lon="2.0865710">
        <ele>296.2</ele>
        <time>2018-04-10T08:48:33Z</time>
      </trkpt>
      <trkpt lat="41.4341310" lon="2.0866430">
        <ele>296.6</ele>
        <time>2018-04-10T08:48:35Z</time>
      </trkpt>
      <trkpt lat="41.4341680" lon="2.0867170">
        <ele>296.8</ele>
        <time>2018-04-10T08:48:37Z</time>
      </trkpt>
      <trkpt lat="41.4341840" lon="2.0867560">
        <ele>297.0</ele>
        <time>2018-04-10T08:48:38Z</time>
      </trkpt>
      <trkpt lat="41.4341980" lon="2.0867940">
        <ele>297.4</ele>
        <time>2018-04-10T08:48:39Z</time>
      </trkpt>
      <trkpt lat="41.4342300" lon="2.0868710">
        <ele>297.8</ele>
        <time>2018-04-10T08:48:41Z</time>
      </trkpt>
      <trkpt lat="41.4342570" lon="2.0869450">
        <ele>298.0</ele>
        <time>2018-04-10T08:48:43Z</time>
      </trkpt>
      <trkpt lat="41.4342680" lon="2.0869820">
        <ele>298.4</ele>
        <time>2018-04-10T08:48:44Z</time>
      </trkpt>
      <trkpt lat="41.4342770" lon="2.0870210">
        <ele>298.4</ele>
        <time>2018-04-10T08:48:45Z</time>
      </trkpt>
      <trkpt lat="41.4342930" lon="2.0870970">
        <ele>298.8</ele>
        <time>2018-04-10T08:48:47Z</time>
      </trkpt>
      <trkpt lat="41.4343150" lon="2.0871770">
        <ele>299.2</ele>
        <time>2018-04-10T08:48:49Z</time>
      </trkpt>
      <trkpt lat="41.4343420" lon="2.0872540">
        <ele>299.4</ele>
        <time>2018-04-10T08:48:51Z</time>
      </trkpt>
      <trkpt lat="41.4343730" lon="2.0873310">
        <ele>299.6</ele>
        <time>2018-04-10T08:48:53Z</time>
      </trkpt>
      <trkpt lat="41.4344040" lon="2.0874120">
        <ele>299.8</ele>
        <time>2018-04-10T08:48:55Z</time>
      </trkpt>
      <trkpt lat="41.4344330" lon="2.0874980">
        <ele>300.2</ele>
        <time>2018-04-10T08:48:57Z</time>
      </trkpt>
      <trkpt lat="41.4344650" lon="2.0875790">
        <ele>300.4</ele>
        <time>2018-04-10T08:48:59Z</time>
      </trkpt>
      <trkpt lat="41.4344980" lon="2.0876620">
        <ele>300.6</ele>
        <time>2018-04-10T08:49:01Z</time>
      </trkpt>
      <trkpt lat="41.4345330" lon="2.0877430">
        <ele>301.2</ele>
        <time>2018-04-10T08:49:03Z</time>
      </trkpt>
      <trkpt lat="41.4345580" lon="2.0878310">
        <ele>301.6</ele>
        <time>2018-04-10T08:49:05Z</time>
      </trkpt>
      <trkpt lat="41.4345720" lon="2.0879250">
        <ele>301.6</ele>
        <time>2018-04-10T08:49:07Z</time>
      </trkpt>
      <trkpt lat="41.4345580" lon="2.0880130">
        <ele>301.8</ele>
        <time>2018-04-10T08:49:09Z</time>
      </trkpt>
      <trkpt lat="41.4345340" lon="2.0880940">
        <ele>301.8</ele>
        <time>2018-04-10T08:49:11Z</time>
      </trkpt>
      <trkpt lat="41.4345090" lon="2.0881800">
        <ele>302.0</ele>
        <time>2018-04-10T08:49:13Z</time>
      </trkpt>
      <trkpt lat="41.4344920" lon="2.0882700">
        <ele>302.2</ele>
        <time>2018-04-10T08:49:15Z</time>
      </trkpt>
      <trkpt lat="41.4344830" lon="2.0883590">
        <ele>302.6</ele>
        <time>2018-04-10T08:49:17Z</time>
      </trkpt>
      <trkpt lat="41.4344810" lon="2.0884050">
        <ele>302.8</ele>
        <time>2018-04-10T08:49:18Z</time>
      </trkpt>
      <trkpt lat="41.4344810" lon="2.0884520">
        <ele>303.0</ele>
        <time>2018-04-10T08:49:19Z</time>
      </trkpt>
      <trkpt lat="41.4344890" lon="2.0885470">
        <ele>303.2</ele>
        <time>2018-04-10T08:49:21Z</time>
      </trkpt>
      <trkpt lat="41.4345030" lon="2.0886370">
        <ele>303.4</ele>
        <time>2018-04-10T08:49:23Z</time>
      </trkpt>
      <trkpt lat="41.4345310" lon="2.0887250">
        <ele>304.0</ele>
        <time>2018-04-10T08:49:25Z</time>
      </trkpt>
      <trkpt lat="41.4345690" lon="2.0887990">
        <ele>304.6</ele>
        <time>2018-04-10T08:49:27Z</time>
      </trkpt>
      <trkpt lat="41.4346020" lon="2.0888650">
        <ele>304.8</ele>
        <time>2018-04-10T08:49:29Z</time>
      </trkpt>
      <trkpt lat="41.4346160" lon="2.0888940">
        <ele>305.2</ele>
        <time>2018-04-10T08:49:30Z</time>
      </trkpt>
      <trkpt lat="41.4346290" lon="2.0889230">
        <ele>305.4</ele>
        <time>2018-04-10T08:49:31Z</time>
      </trkpt>
      <trkpt lat="41.4346550" lon="2.0889740">
        <ele>305.6</ele>
        <time>2018-04-10T08:49:33Z</time>
      </trkpt>
      <trkpt lat="41.4346760" lon="2.0890260">
        <ele>306.0</ele>
        <time>2018-04-10T08:49:35Z</time>
      </trkpt>
      <trkpt lat="41.4347020" lon="2.0890820">
        <ele>306.2</ele>
        <time>2018-04-10T08:49:37Z</time>
      </trkpt>
      <trkpt lat="41.4347280" lon="2.0891370">
        <ele>306.8</ele>
        <time>2018-04-10T08:49:39Z</time>
      </trkpt>
      <trkpt lat="41.4347460" lon="2.0891850">
        <ele>307.6</ele>
        <time>2018-04-10T08:49:41Z</time>
      </trkpt>
      <trkpt lat="41.4347610" lon="2.0892380">
        <ele>308.4</ele>
        <time>2018-04-10T08:49:43Z</time>
      </trkpt>
      <trkpt lat="41.4347770" lon="2.0892570">
        <ele>308.8</ele>
        <time>2018-04-10T08:49:44Z</time>
      </trkpt>
      <trkpt lat="41.4347980" lon="2.0892510">
        <ele>309.0</ele>
        <time>2018-04-10T08:49:45Z</time>
      </trkpt>
      <trkpt lat="41.4348280" lon="2.0891960">
        <ele>309.6</ele>
        <time>2018-04-10T08:49:47Z</time>
      </trkpt>
      <trkpt lat="41.4348270" lon="2.0891650">
        <ele>310.0</ele>
        <time>2018-04-10T08:49:48Z</time>
      </trkpt>
      <trkpt lat="41.4348240" lon="2.0891340">
        <ele>310.2</ele>
        <time>2018-04-10T08:49:49Z</time>
      </trkpt>
      <trkpt lat="41.4348250" lon="2.0890780">
        <ele>311.0</ele>
        <time>2018-04-10T08:49:51Z</time>
      </trkpt>
      <trkpt lat="41.4348310" lon="2.0890330">
        <ele>311.4</ele>
        <time>2018-04-10T08:49:53Z</time>
      </trkpt>
      <trkpt lat="41.4348330" lon="2.0889850">
        <ele>312.2</ele>
        <time>2018-04-10T08:49:55Z</time>
      </trkpt>
      <trkpt lat="41.4348330" lon="2.0889350">
        <ele>312.8</ele>
        <time>2018-04-10T08:49:57Z</time>
      </trkpt>
      <trkpt lat="41.4348250" lon="2.0888860">
        <ele>313.4</ele>
        <time>2018-04-10T08:49:59Z</time>
      </trkpt>
      <trkpt lat="41.4348190" lon="2.0888310">
        <ele>314.2</ele>
        <time>2018-04-10T08:50:01Z</time>
      </trkpt>
      <trkpt lat="41.4348200" lon="2.0888020">
        <ele>314.4</ele>
        <time>2018-04-10T08:50:02Z</time>
      </trkpt>
      <trkpt lat="41.4348200" lon="2.0887710">
        <ele>314.8</ele>
        <time>2018-04-10T08:50:03Z</time>
      </trkpt>
      <trkpt lat="41.4348130" lon="2.0887140">
        <ele>315.4</ele>
        <time>2018-04-10T08:50:05Z</time>
      </trkpt>
      <trkpt lat="41.4348150" lon="2.0886580">
        <ele>316.2</ele>
        <time>2018-04-10T08:50:07Z</time>
      </trkpt>
      <trkpt lat="41.4348140" lon="2.0886230">
        <ele>316.6</ele>
        <time>2018-04-10T08:50:08Z</time>
      </trkpt>
      <trkpt lat="41.4348160" lon="2.0885930">
        <ele>317.0</ele>
        <time>2018-04-10T08:50:09Z</time>
      </trkpt>
      <trkpt lat="41.4348220" lon="2.0885430">
        <ele>317.8</ele>
        <time>2018-04-10T08:50:11Z</time>
      </trkpt>
      <trkpt lat="41.4348330" lon="2.0884920">
        <ele>318.8</ele>
        <time>2018-04-10T08:50:13Z</time>
      </trkpt>
      <trkpt lat="41.4348540" lon="2.0884460">
        <ele>319.6</ele>
        <time>2018-04-10T08:50:15Z</time>
      </trkpt>
      <trkpt lat="41.4348660" lon="2.0884220">
        <ele>320.0</ele>
        <time>2018-04-10T08:50:16Z</time>
      </trkpt>
      <trkpt lat="41.4348790" lon="2.0884010">
        <ele>320.2</ele>
        <time>2018-04-10T08:50:17Z</time>
      </trkpt>
      <trkpt lat="41.4348990" lon="2.0883420">
        <ele>320.8</ele>
        <time>2018-04-10T08:50:19Z</time>
      </trkpt>
      <trkpt lat="41.4349110" lon="2.0883160">
        <ele>321.2</ele>
        <time>2018-04-10T08:50:20Z</time>
      </trkpt>
      <trkpt lat="41.4349240" lon="2.0882860">
        <ele>321.6</ele>
        <time>2018-04-10T08:50:21Z</time>
      </trkpt>
      <trkpt lat="41.4349530" lon="2.0882380">
        <ele>322.2</ele>
        <time>2018-04-10T08:50:23Z</time>
      </trkpt>
      <trkpt lat="41.4349830" lon="2.0882010">
        <ele>322.8</ele>
        <time>2018-04-10T08:50:25Z</time>
      </trkpt>
      <trkpt lat="41.4350050" lon="2.0881560">
        <ele>323.4</ele>
        <time>2018-04-10T08:50:27Z</time>
      </trkpt>
      <trkpt lat="41.4350160" lon="2.0881340">
        <ele>323.8</ele>
        <time>2018-04-10T08:50:28Z</time>
      </trkpt>
      <trkpt lat="41.4350240" lon="2.0881080">
        <ele>324.0</ele>
        <time>2018-04-10T08:50:29Z</time>
      </trkpt>
      <trkpt lat="41.4350390" lon="2.0880500">
        <ele>324.8</ele>
        <time>2018-04-10T08:50:31Z</time>
      </trkpt>
      <trkpt lat="41.4350520" lon="2.0880320">
        <ele>325.0</ele>
        <time>2018-04-10T08:50:32Z</time>
      </trkpt>
      <trkpt lat="41.4350640" lon="2.0880160">
        <ele>325.4</ele>
        <time>2018-04-10T08:50:33Z</time>
      </trkpt>
      <trkpt lat="41.4350900" lon="2.0879880">
        <ele>326.0</ele>
        <time>2018-04-10T08:50:35Z</time>
      </trkpt>
      <trkpt lat="41.4351040" lon="2.0879890">
        <ele>326.2</ele>
        <time>2018-04-10T08:50:36Z</time>
      </trkpt>
      <trkpt lat="41.4351180" lon="2.0880020">
        <ele>326.2</ele>
        <time>2018-04-10T08:50:37Z</time>
      </trkpt>
      <trkpt lat="41.4351290" lon="2.0880220">
        <ele>326.4</ele>
        <time>2018-04-10T08:50:38Z</time>
      </trkpt>
      <trkpt lat="41.4351340" lon="2.0880440">
        <ele>326.6</ele>
        <time>2018-04-10T08:50:39Z</time>
      </trkpt>
      <trkpt lat="41.4351320" lon="2.0880860">
        <ele>327.6</ele>
        <time>2018-04-10T08:50:41Z</time>
      </trkpt>
      <trkpt lat="41.4351250" lon="2.0881070">
        <ele>328.2</ele>
        <time>2018-04-10T08:50:42Z</time>
      </trkpt>
      <trkpt lat="41.4351200" lon="2.0881290">
        <ele>328.4</ele>
        <time>2018-04-10T08:50:43Z</time>
      </trkpt>
      <trkpt lat="41.4351210" lon="2.0881720">
        <ele>329.2</ele>
        <time>2018-04-10T08:50:45Z</time>
      </trkpt>
      <trkpt lat="41.4351350" lon="2.0882260">
        <ele>329.8</ele>
        <time>2018-04-10T08:50:47Z</time>
      </trkpt>
      <trkpt lat="41.4351410" lon="2.0882890">
        <ele>330.0</ele>
        <time>2018-04-10T08:50:49Z</time>
      </trkpt>
      <trkpt lat="41.4351460" lon="2.0883220">
        <ele>330.2</ele>
        <time>2018-04-10T08:50:50Z</time>
      </trkpt>
      <trkpt lat="41.4351490" lon="2.0883540">
        <ele>330.4</ele>
        <time>2018-04-10T08:50:51Z</time>
      </trkpt>
      <trkpt lat="41.4351540" lon="2.0884130">
        <ele>331.0</ele>
        <time>2018-04-10T08:50:53Z</time>
      </trkpt>
      <trkpt lat="41.4351540" lon="2.0884390">
        <ele>331.2</ele>
        <time>2018-04-10T08:50:54Z</time>
      </trkpt>
      <trkpt lat="41.4351540" lon="2.0884630">
        <ele>331.6</ele>
        <time>2018-04-10T08:50:55Z</time>
      </trkpt>
      <trkpt lat="41.4351580" lon="2.0885140">
        <ele>332.2</ele>
        <time>2018-04-10T08:50:57Z</time>
      </trkpt>
      <trkpt lat="41.4351590" lon="2.0885420">
        <ele>332.4</ele>
        <time>2018-04-10T08:50:58Z</time>
      </trkpt>
      <trkpt lat="41.4351630" lon="2.0885660">
        <ele>332.8</ele>
        <time>2018-04-10T08:50:59Z</time>
      </trkpt>
      <trkpt lat="41.4351790" lon="2.0886180">
        <ele>333.4</ele>
        <time>2018-04-10T08:51:01Z</time>
      </trkpt>
      <trkpt lat="41.4351890" lon="2.0886450">
        <ele>333.6</ele>
        <time>2018-04-10T08:51:02Z</time>
      </trkpt>
      <trkpt lat="41.4352010" lon="2.0886730">
        <ele>334.0</ele>
        <time>2018-04-10T08:51:03Z</time>
      </trkpt>
      <trkpt lat="41.4352140" lon="2.0886990">
        <ele>334.2</ele>
        <time>2018-04-10T08:51:04Z</time>
      </trkpt>
      <trkpt lat="41.4352260" lon="2.0887250">
        <ele>334.6</ele>
        <time>2018-04-10T08:51:05Z</time>
      </trkpt>
      <trkpt lat="41.4352370" lon="2.0887500">
        <ele>334.8</ele>
        <time>2018-04-10T08:51:06Z</time>
      </trkpt>
      <trkpt lat="41.4352480" lon="2.0887760">
        <ele>335.2</ele>
        <time>2018-04-10T08:51:07Z</time>
      </trkpt>
      <trkpt lat="41.4352730" lon="2.0888260">
        <ele>335.6</ele>
        <time>2018-04-10T08:51:09Z</time>
      </trkpt>
      <trkpt lat="41.4352890" lon="2.0888490">
        <ele>336.2</ele>
        <time>2018-04-10T08:51:10Z</time>
      </trkpt>
      <trkpt lat="41.4353010" lon="2.0888700">
        <ele>336.4</ele>
        <time>2018-04-10T08:51:11Z</time>
      </trkpt>
      <trkpt lat="41.4353300" lon="2.0889240">
        <ele>337.2</ele>
        <time>2018-04-10T08:51:13Z</time>
      </trkpt>
      <trkpt lat="41.4353400" lon="2.0889530">
        <ele>337.6</ele>
        <time>2018-04-10T08:51:14Z</time>
      </trkpt>
      <trkpt lat="41.4353540" lon="2.0889800">
        <ele>337.8</ele>
        <time>2018-04-10T08:51:15Z</time>
      </trkpt>
      <trkpt lat="41.4353860" lon="2.0890380">
        <ele>338.2</ele>
        <time>2018-04-10T08:51:17Z</time>
      </trkpt>
      <trkpt lat="41.4354130" lon="2.0891020">
        <ele>338.8</ele>
        <time>2018-04-10T08:51:19Z</time>
      </trkpt>
      <trkpt lat="41.4354440" lon="2.0891660">
        <ele>339.4</ele>
        <time>2018-04-10T08:51:21Z</time>
      </trkpt>
      <trkpt lat="41.4354780" lon="2.0892260">
        <ele>340.0</ele>
        <time>2018-04-10T08:51:23Z</time>
      </trkpt>
      <trkpt lat="41.4354930" lon="2.0892920">
        <ele>340.2</ele>
        <time>2018-04-10T08:51:25Z</time>
      </trkpt>
      <trkpt lat="41.4354960" lon="2.0893620">
        <ele>340.6</ele>
        <time>2018-04-10T08:51:27Z</time>
      </trkpt>
      <trkpt lat="41.4355030" lon="2.0894310">
        <ele>340.8</ele>
        <time>2018-04-10T08:51:29Z</time>
      </trkpt>
      <trkpt lat="41.4355050" lon="2.0894670">
        <ele>341.0</ele>
        <time>2018-04-10T08:51:30Z</time>
      </trkpt>
      <trkpt lat="41.4355090" lon="2.0895020">
        <ele>341.4</ele>
        <time>2018-04-10T08:51:31Z</time>
      </trkpt>
      <trkpt lat="41.4355210" lon="2.0895740">
        <ele>341.8</ele>
        <time>2018-04-10T08:51:33Z</time>
      </trkpt>
      <trkpt lat="41.4355270" lon="2.0896470">
        <ele>342.2</ele>
        <time>2018-04-10T08:51:35Z</time>
      </trkpt>
      <trkpt lat="41.4355150" lon="2.0897210">
        <ele>343.0</ele>
        <time>2018-04-10T08:51:37Z</time>
      </trkpt>
      <trkpt lat="41.4354880" lon="2.0897940">
        <ele>343.4</ele>
        <time>2018-04-10T08:51:39Z</time>
      </trkpt>
      <trkpt lat="41.4354690" lon="2.0898280">
        <ele>343.6</ele>
        <time>2018-04-10T08:51:40Z</time>
      </trkpt>
      <trkpt lat="41.4354490" lon="2.0898680">
        <ele>343.6</ele>
        <time>2018-04-10T08:51:41Z</time>
      </trkpt>
      <trkpt lat="41.4354060" lon="2.0899480">
        <ele>343.8</ele>
        <time>2018-04-10T08:51:43Z</time>
      </trkpt>
      <trkpt lat="41.4353610" lon="2.0900330">
        <ele>344.0</ele>
        <time>2018-04-10T08:51:45Z</time>
      </trkpt>
      <trkpt lat="41.4353210" lon="2.0901180">
        <ele>344.2</ele>
        <time>2018-04-10T08:51:47Z</time>
      </trkpt>
      <trkpt lat="41.4352700" lon="2.0901960">
        <ele>344.2</ele>
        <time>2018-04-10T08:51:49Z</time>
      </trkpt>
      <trkpt lat="41.4352250" lon="2.0902770">
        <ele>344.2</ele>
        <time>2018-04-10T08:51:51Z</time>
      </trkpt>
      <trkpt lat="41.4351780" lon="2.0903640">
        <ele>344.2</ele>
        <time>2018-04-10T08:51:53Z</time>
      </trkpt>
      <trkpt lat="41.4351320" lon="2.0904490">
        <ele>344.4</ele>
        <time>2018-04-10T08:51:55Z</time>
      </trkpt>
      <trkpt lat="41.4350820" lon="2.0905330">
        <ele>344.6</ele>
        <time>2018-04-10T08:51:57Z</time>
      </trkpt>
      <trkpt lat="41.4350420" lon="2.0906260">
        <ele>345.0</ele>
        <time>2018-04-10T08:51:59Z</time>
      </trkpt>
      <trkpt lat="41.4349990" lon="2.0907180">
        <ele>345.2</ele>
        <time>2018-04-10T08:52:01Z</time>
      </trkpt>
      <trkpt lat="41.4349480" lon="2.0908060">
        <ele>345.2</ele>
        <time>2018-04-10T08:52:03Z</time>
      </trkpt>
      <trkpt lat="41.4349000" lon="2.0908920">
        <ele>345.6</ele>
        <time>2018-04-10T08:52:05Z</time>
      </trkpt>
      <trkpt lat="41.4348490" lon="2.0909690">
        <ele>345.8</ele>
        <time>2018-04-10T08:52:07Z</time>
      </trkpt>
      <trkpt lat="41.4347850" lon="2.0910380">
        <ele>346.2</ele>
        <time>2018-04-10T08:52:09Z</time>
      </trkpt>
      <trkpt lat="41.4347100" lon="2.0911070">
        <ele>346.4</ele>
        <time>2018-04-10T08:52:11Z</time>
      </trkpt>
      <trkpt lat="41.4346200" lon="2.0911820">
        <ele>346.6</ele>
        <time>2018-04-10T08:52:13Z</time>
      </trkpt>
      <trkpt lat="41.4345090" lon="2.0912810">
        <ele>346.6</ele>
        <time>2018-04-10T08:52:15Z</time>
      </trkpt>
      <trkpt lat="41.4343820" lon="2.0913910">
        <ele>346.6</ele>
        <time>2018-04-10T08:52:17Z</time>
      </trkpt>
      <trkpt lat="41.4342500" lon="2.0915030">
        <ele>346.6</ele>
        <time>2018-04-10T08:52:19Z</time>
      </trkpt>
      <trkpt lat="41.4341280" lon="2.0916170">
        <ele>346.0</ele>
        <time>2018-04-10T08:52:21Z</time>
      </trkpt>
      <trkpt lat="41.4340480" lon="2.0917630">
        <ele>345.4</ele>
        <time>2018-04-10T08:52:23Z</time>
      </trkpt>
      <trkpt lat="41.4340260" lon="2.0919530">
        <ele>344.4</ele>
        <time>2018-04-10T08:52:25Z</time>
      </trkpt>
      <trkpt lat="41.4339850" lon="2.0921670">
        <ele>343.8</ele>
        <time>2018-04-10T08:52:27Z</time>
      </trkpt>
      <trkpt lat="41.4339600" lon="2.0922810">
        <ele>343.4</ele>
        <time>2018-04-10T08:52:28Z</time>
      </trkpt>
      <trkpt lat="41.4339370" lon="2.0923990">
        <ele>343.2</ele>
        <time>2018-04-10T08:52:29Z</time>
      </trkpt>
      <trkpt lat="41.4339030" lon="2.0926440">
        <ele>342.4</ele>
        <time>2018-04-10T08:52:31Z</time>
      </trkpt>
      <trkpt lat="41.4338690" lon="2.0929040">
        <ele>341.8</ele>
        <time>2018-04-10T08:52:33Z</time>
      </trkpt>
      <trkpt lat="41.4338430" lon="2.0930350">
        <ele>341.4</ele>
        <time>2018-04-10T08:52:34Z</time>
      </trkpt>
      <trkpt lat="41.4338110" lon="2.0931600">
        <ele>340.6</ele>
        <time>2018-04-10T08:52:35Z</time>
      </trkpt>
      <trkpt lat="41.4337770" lon="2.0932780">
        <ele>339.8</ele>
        <time>2018-04-10T08:52:36Z</time>
      </trkpt>
      <trkpt lat="41.4337440" lon="2.0933920">
        <ele>338.8</ele>
        <time>2018-04-10T08:52:37Z</time>
      </trkpt>
      <trkpt lat="41.4337170" lon="2.0935060">
        <ele>338.0</ele>
        <time>2018-04-10T08:52:38Z</time>
      </trkpt>
      <trkpt lat="41.4336990" lon="2.0936120">
        <ele>336.2</ele>
        <time>2018-04-10T08:52:39Z</time>
      </trkpt>
      <trkpt lat="41.4336770" lon="2.0937900">
        <ele>334.2</ele>
        <time>2018-04-10T08:52:41Z</time>
      </trkpt>
      <trkpt lat="41.4336530" lon="2.0938590">
        <ele>333.0</ele>
        <time>2018-04-10T08:52:42Z</time>
      </trkpt>
      <trkpt lat="41.4336110" lon="2.0939060">
        <ele>332.0</ele>
        <time>2018-04-10T08:52:43Z</time>
      </trkpt>
      <trkpt lat="41.4335330" lon="2.0939730">
        <ele>330.4</ele>
        <time>2018-04-10T08:52:45Z</time>
      </trkpt>
      <trkpt lat="41.4335170" lon="2.0940780">
        <ele>328.4</ele>
        <time>2018-04-10T08:52:47Z</time>
      </trkpt>
      <trkpt lat="41.4335460" lon="2.0941900">
        <ele>326.8</ele>
        <time>2018-04-10T08:52:49Z</time>
      </trkpt>
      <trkpt lat="41.4335960" lon="2.0942880">
        <ele>325.6</ele>
        <time>2018-04-10T08:52:51Z</time>
      </trkpt>
      <trkpt lat="41.4336210" lon="2.0943380">
        <ele>325.2</ele>
        <time>2018-04-10T08:52:52Z</time>
      </trkpt>
      <trkpt lat="41.4336440" lon="2.0943920">
        <ele>325.0</ele>
        <time>2018-04-10T08:52:53Z</time>
      </trkpt>
      <trkpt lat="41.4336860" lon="2.0945070">
        <ele>324.8</ele>
        <time>2018-04-10T08:52:55Z</time>
      </trkpt>
      <trkpt lat="41.4337270" lon="2.0946130">
        <ele>324.8</ele>
        <time>2018-04-10T08:52:57Z</time>
      </trkpt>
      <trkpt lat="41.4337670" lon="2.0947150">
        <ele>324.8</ele>
        <time>2018-04-10T08:52:59Z</time>
      </trkpt>
      <trkpt lat="41.4337970" lon="2.0948190">
        <ele>324.8</ele>
        <time>2018-04-10T08:53:01Z</time>
      </trkpt>
      <trkpt lat="41.4338250" lon="2.0949340">
        <ele>325.2</ele>
        <time>2018-04-10T08:53:03Z</time>
      </trkpt>
      <trkpt lat="41.4338380" lon="2.0950490">
        <ele>325.6</ele>
        <time>2018-04-10T08:53:05Z</time>
      </trkpt>
      <trkpt lat="41.4338400" lon="2.0951050">
        <ele>325.8</ele>
        <time>2018-04-10T08:53:06Z</time>
      </trkpt>
      <trkpt lat="41.4338380" lon="2.0951600">
        <ele>326.4</ele>
        <time>2018-04-10T08:53:07Z</time>
      </trkpt>
      <trkpt lat="41.4338330" lon="2.0952710">
        <ele>326.6</ele>
        <time>2018-04-10T08:53:09Z</time>
      </trkpt>
      <trkpt lat="41.4338340" lon="2.0953270">
        <ele>326.8</ele>
        <time>2018-04-10T08:53:10Z</time>
      </trkpt>
      <trkpt lat="41.4338390" lon="2.0953830">
        <ele>327.0</ele>
        <time>2018-04-10T08:53:11Z</time>
      </trkpt>
      <trkpt lat="41.4338360" lon="2.0954990">
        <ele>327.4</ele>
        <time>2018-04-10T08:53:13Z</time>
      </trkpt>
      <trkpt lat="41.4338290" lon="2.0955560">
        <ele>327.6</ele>
        <time>2018-04-10T08:53:14Z</time>
      </trkpt>
      <trkpt lat="41.4338230" lon="2.0956140">
        <ele>327.8</ele>
        <time>2018-04-10T08:53:15Z</time>
      </trkpt>
      <trkpt lat="41.4338150" lon="2.0956720">
        <ele>328.0</ele>
        <time>2018-04-10T08:53:16Z</time>
      </trkpt>
      <trkpt lat="41.4338040" lon="2.0957310">
        <ele>328.2</ele>
        <time>2018-04-10T08:53:17Z</time>
      </trkpt>
      <trkpt lat="41.4337980" lon="2.0957920">
        <ele>328.4</ele>
        <time>2018-04-10T08:53:18Z</time>
      </trkpt>
      <trkpt lat="41.4337960" lon="2.0958530">
        <ele>328.4</ele>
        <time>2018-04-10T08:53:19Z</time>
      </trkpt>
      <trkpt lat="41.4337730" lon="2.0959730">
        <ele>328.8</ele>
        <time>2018-04-10T08:53:21Z</time>
      </trkpt>
      <trkpt lat="41.4337440" lon="2.0960900">
        <ele>329.0</ele>
        <time>2018-04-10T08:53:23Z</time>
      </trkpt>
      <trkpt lat="41.4337120" lon="2.0962040">
        <ele>329.2</ele>
        <time>2018-04-10T08:53:25Z</time>
      </trkpt>
      <trkpt lat="41.4336860" lon="2.0963120">
        <ele>329.4</ele>
        <time>2018-04-10T08:53:27Z</time>
      </trkpt>
      <trkpt lat="41.4336710" lon="2.0964190">
        <ele>329.4</ele>
        <time>2018-04-10T08:53:29Z</time>
      </trkpt>
      <trkpt lat="41.4336530" lon="2.0965200">
        <ele>329.6</ele>
        <time>2018-04-10T08:53:31Z</time>
      </trkpt>
      <trkpt lat="41.4336370" lon="2.0966170">
        <ele>329.8</ele>
        <time>2018-04-10T08:53:33Z</time>
      </trkpt>
      <trkpt lat="41.4336290" lon="2.0966660">
        <ele>330.2</ele>
        <time>2018-04-10T08:53:34Z</time>
      </trkpt>
      <trkpt lat="41.4336210" lon="2.0967140">
        <ele>330.4</ele>
        <time>2018-04-10T08:53:35Z</time>
      </trkpt>
      <trkpt lat="41.4336080" lon="2.0968200">
        <ele>331.2</ele>
        <time>2018-04-10T08:53:37Z</time>
      </trkpt>
      <trkpt lat="41.4335940" lon="2.0968770">
        <ele>331.6</ele>
        <time>2018-04-10T08:53:38Z</time>
      </trkpt>
      <trkpt lat="41.4335800" lon="2.0969360">
        <ele>331.8</ele>
        <time>2018-04-10T08:53:39Z</time>
      </trkpt>
      <trkpt lat="41.4335470" lon="2.0970530">
        <ele>332.2</ele>
        <time>2018-04-10T08:53:41Z</time>
      </trkpt>
      <trkpt lat="41.4335130" lon="2.0971700">
        <ele>332.4</ele>
        <time>2018-04-10T08:53:43Z</time>
      </trkpt>
      <trkpt lat="41.4334840" lon="2.0972920">
        <ele>332.4</ele>
        <time>2018-04-10T08:53:45Z</time>
      </trkpt>
      <trkpt lat="41.4334670" lon="2.0974350">
        <ele>332.4</ele>
        <time>2018-04-10T08:53:47Z</time>
      </trkpt>
      <trkpt lat="41.4334940" lon="2.0975800">
        <ele>332.4</ele>
        <time>2018-04-10T08:53:49Z</time>
      </trkpt>
      <trkpt lat="41.4335560" lon="2.0977060">
        <ele>332.2</ele>
        <time>2018-04-10T08:53:51Z</time>
      </trkpt>
      <trkpt lat="41.4336370" lon="2.0978140">
        <ele>332.2</ele>
        <time>2018-04-10T08:53:53Z</time>
      </trkpt>
      <trkpt lat="41.4336960" lon="2.0979360">
        <ele>332.0</ele>
        <time>2018-04-10T08:53:55Z</time>
      </trkpt>
      <trkpt lat="41.4337390" lon="2.0980670">
        <ele>332.0</ele>
        <time>2018-04-10T08:53:57Z</time>
      </trkpt>
      <trkpt lat="41.4337710" lon="2.0982040">
        <ele>332.0</ele>
        <time>2018-04-10T08:53:59Z</time>
      </trkpt>
      <trkpt lat="41.4338020" lon="2.0983380">
        <ele>332.0</ele>
        <time>2018-04-10T08:54:01Z</time>
      </trkpt>
      <trkpt lat="41.4338240" lon="2.0984000">
        <ele>332.0</ele>
        <time>2018-04-10T08:54:02Z</time>
      </trkpt>
      <trkpt lat="41.4338520" lon="2.0984580">
        <ele>332.0</ele>
        <time>2018-04-10T08:54:03Z</time>
      </trkpt>
      <trkpt lat="41.4339110" lon="2.0985650">
        <ele>332.2</ele>
        <time>2018-04-10T08:54:05Z</time>
      </trkpt>
      <trkpt lat="41.4339530" lon="2.0986710">
        <ele>332.4</ele>
        <time>2018-04-10T08:54:07Z</time>
      </trkpt>
      <trkpt lat="41.4339620" lon="2.0987860">
        <ele>332.6</ele>
        <time>2018-04-10T08:54:09Z</time>
      </trkpt>
      <trkpt lat="41.4339230" lon="2.0988930">
        <ele>332.8</ele>
        <time>2018-04-10T08:54:11Z</time>
      </trkpt>
      <trkpt lat="41.4338930" lon="2.0989370">
        <ele>332.8</ele>
        <time>2018-04-10T08:54:12Z</time>
      </trkpt>
      <trkpt lat="41.4338660" lon="2.0989780">
        <ele>333.0</ele>
        <time>2018-04-10T08:54:13Z</time>
      </trkpt>
      <trkpt lat="41.4338350" lon="2.0990160">
        <ele>333.2</ele>
        <time>2018-04-10T08:54:14Z</time>
      </trkpt>
      <trkpt lat="41.4338010" lon="2.0990520">
        <ele>333.4</ele>
        <time>2018-04-10T08:54:15Z</time>
      </trkpt>
      <trkpt lat="41.4337710" lon="2.0990860">
        <ele>333.6</ele>
        <time>2018-04-10T08:54:16Z</time>
      </trkpt>
      <trkpt lat="41.4337400" lon="2.0991150">
        <ele>334.0</ele>
        <time>2018-04-10T08:54:17Z</time>
      </trkpt>
      <trkpt lat="41.4336850" lon="2.0991560">
        <ele>334.6</ele>
        <time>2018-04-10T08:54:19Z</time>
      </trkpt>
      <trkpt lat="41.4336560" lon="2.0991840">
        <ele>334.8</ele>
        <time>2018-04-10T08:54:20Z</time>
      </trkpt>
      <trkpt lat="41.4336270" lon="2.0992160">
        <ele>335.2</ele>
        <time>2018-04-10T08:54:21Z</time>
      </trkpt>
      <trkpt lat="41.4335710" lon="2.0992700">
        <ele>335.6</ele>
        <time>2018-04-10T08:54:23Z</time>
      </trkpt>
      <trkpt lat="41.4335400" lon="2.0992950">
        <ele>335.8</ele>
        <time>2018-04-10T08:54:24Z</time>
      </trkpt>
      <trkpt lat="41.4335070" lon="2.0993190">
        <ele>336.2</ele>
        <time>2018-04-10T08:54:25Z</time>
      </trkpt>
      <trkpt lat="41.4334530" lon="2.0993660">
        <ele>336.6</ele>
        <time>2018-04-10T08:54:27Z</time>
      </trkpt>
      <trkpt lat="41.4334290" lon="2.0993940">
        <ele>337.0</ele>
        <time>2018-04-10T08:54:28Z</time>
      </trkpt>
      <trkpt lat="41.4334050" lon="2.0994250">
        <ele>337.2</ele>
        <time>2018-04-10T08:54:29Z</time>
      </trkpt>
      <trkpt lat="41.4333780" lon="2.0994600">
        <ele>337.4</ele>
        <time>2018-04-10T08:54:30Z</time>
      </trkpt>
      <trkpt lat="41.4333520" lon="2.0995000">
        <ele>337.6</ele>
        <time>2018-04-10T08:54:31Z</time>
      </trkpt>
      <trkpt lat="41.4333130" lon="2.0996100">
        <ele>338.0</ele>
        <time>2018-04-10T08:54:33Z</time>
      </trkpt>
      <trkpt lat="41.4333000" lon="2.0997430">
        <ele>338.8</ele>
        <time>2018-04-10T08:54:35Z</time>
      </trkpt>
      <trkpt lat="41.4332990" lon="2.0998090">
        <ele>339.0</ele>
        <time>2018-04-10T08:54:36Z</time>
      </trkpt>
      <trkpt lat="41.4332970" lon="2.0998720">
        <ele>339.2</ele>
        <time>2018-04-10T08:54:37Z</time>
      </trkpt>
      <trkpt lat="41.4332960" lon="2.1000030">
        <ele>339.4</ele>
        <time>2018-04-10T08:54:39Z</time>
      </trkpt>
      <trkpt lat="41.4332970" lon="2.1000670">
        <ele>339.4</ele>
        <time>2018-04-10T08:54:40Z</time>
      </trkpt>
      <trkpt lat="41.4333030" lon="2.1001290">
        <ele>339.4</ele>
        <time>2018-04-10T08:54:41Z</time>
      </trkpt>
      <trkpt lat="41.4333050" lon="2.1001920">
        <ele>339.4</ele>
        <time>2018-04-10T08:54:42Z</time>
      </trkpt>
      <trkpt lat="41.4333010" lon="2.1002540">
        <ele>339.4</ele>
        <time>2018-04-10T08:54:43Z</time>
      </trkpt>
      <trkpt lat="41.4332850" lon="2.1003760">
        <ele>339.6</ele>
        <time>2018-04-10T08:54:45Z</time>
      </trkpt>
      <trkpt lat="41.4332570" lon="2.1004940">
        <ele>339.8</ele>
        <time>2018-04-10T08:54:47Z</time>
      </trkpt>
      <trkpt lat="41.4332100" lon="2.1005920">
        <ele>340.2</ele>
        <time>2018-04-10T08:54:49Z</time>
      </trkpt>
      <trkpt lat="41.4331490" lon="2.1006670">
        <ele>340.6</ele>
        <time>2018-04-10T08:54:51Z</time>
      </trkpt>
      <trkpt lat="41.4330830" lon="2.1007290">
        <ele>341.2</ele>
        <time>2018-04-10T08:54:53Z</time>
      </trkpt>
      <trkpt lat="41.4330170" lon="2.1007930">
        <ele>342.0</ele>
        <time>2018-04-10T08:54:55Z</time>
      </trkpt>
      <trkpt lat="41.4329870" lon="2.1008190">
        <ele>342.4</ele>
        <time>2018-04-10T08:54:56Z</time>
      </trkpt>
      <trkpt lat="41.4329570" lon="2.1008460">
        <ele>342.6</ele>
        <time>2018-04-10T08:54:57Z</time>
      </trkpt>
      <trkpt lat="41.4329020" lon="2.1008870">
        <ele>343.2</ele>
        <time>2018-04-10T08:54:59Z</time>
      </trkpt>
      <trkpt lat="41.4328750" lon="2.1009030">
        <ele>343.4</ele>
        <time>2018-04-10T08:55:00Z</time>
      </trkpt>
      <trkpt lat="41.4328480" lon="2.1009200">
        <ele>343.8</ele>
        <time>2018-04-10T08:55:01Z</time>
      </trkpt>
      <trkpt lat="41.4327900" lon="2.1009500">
        <ele>344.2</ele>
        <time>2018-04-10T08:55:03Z</time>
      </trkpt>
      <trkpt lat="41.4327640" lon="2.1009630">
        <ele>344.8</ele>
        <time>2018-04-10T08:55:04Z</time>
      </trkpt>
      <trkpt lat="41.4327350" lon="2.1009780">
        <ele>345.0</ele>
        <time>2018-04-10T08:55:05Z</time>
      </trkpt>
      <trkpt lat="41.4326750" lon="2.1010030">
        <ele>345.6</ele>
        <time>2018-04-10T08:55:07Z</time>
      </trkpt>
      <trkpt lat="41.4326470" lon="2.1010110">
        <ele>345.8</ele>
        <time>2018-04-10T08:55:08Z</time>
      </trkpt>
      <trkpt lat="41.4326210" lon="2.1010240">
        <ele>346.0</ele>
        <time>2018-04-10T08:55:09Z</time>
      </trkpt>
      <trkpt lat="41.4325560" lon="2.1010610">
        <ele>346.6</ele>
        <time>2018-04-10T08:55:11Z</time>
      </trkpt>
      <trkpt lat="41.4325250" lon="2.1010810">
        <ele>347.0</ele>
        <time>2018-04-10T08:55:12Z</time>
      </trkpt>
      <trkpt lat="41.4325000" lon="2.1010870">
        <ele>347.2</ele>
        <time>2018-04-10T08:55:13Z</time>
      </trkpt>
      <trkpt lat="41.4324760" lon="2.1010990">
        <ele>347.4</ele>
        <time>2018-04-10T08:55:14Z</time>
      </trkpt>
      <trkpt lat="41.4324460" lon="2.1011060">
        <ele>347.6</ele>
        <time>2018-04-10T08:55:15Z</time>
      </trkpt>
      <trkpt lat="41.4323850" lon="2.1011140">
        <ele>348.2</ele>
        <time>2018-04-10T08:55:17Z</time>
      </trkpt>
      <trkpt lat="41.4323310" lon="2.1011050">
        <ele>348.6</ele>
        <time>2018-04-10T08:55:19Z</time>
      </trkpt>
      <trkpt lat="41.4322740" lon="2.1011130">
        <ele>349.4</ele>
        <time>2018-04-10T08:55:21Z</time>
      </trkpt>
      <trkpt lat="41.4322180" lon="2.1011130">
        <ele>350.0</ele>
        <time>2018-04-10T08:55:23Z</time>
      </trkpt>
      <trkpt lat="41.4321720" lon="2.1010980">
        <ele>350.6</ele>
        <time>2018-04-10T08:55:25Z</time>
      </trkpt>
      <trkpt lat="41.4321200" lon="2.1010670">
        <ele>351.4</ele>
        <time>2018-04-10T08:55:27Z</time>
      </trkpt>
      <trkpt lat="41.4320910" lon="2.1010540">
        <ele>351.6</ele>
        <time>2018-04-10T08:55:28Z</time>
      </trkpt>
      <trkpt lat="41.4320660" lon="2.1010360">
        <ele>352.0</ele>
        <time>2018-04-10T08:55:29Z</time>
      </trkpt>
      <trkpt lat="41.4320100" lon="2.1010000">
        <ele>352.8</ele>
        <time>2018-04-10T08:55:31Z</time>
      </trkpt>
      <trkpt lat="41.4319660" lon="2.1009490">
        <ele>354.2</ele>
        <time>2018-04-10T08:55:33Z</time>
      </trkpt>
      <trkpt lat="41.4319240" lon="2.1008760">
        <ele>354.8</ele>
        <time>2018-04-10T08:55:35Z</time>
      </trkpt>
      <trkpt lat="41.4318780" lon="2.1007970">
        <ele>355.2</ele>
        <time>2018-04-10T08:55:37Z</time>
      </trkpt>
      <trkpt lat="41.4318320" lon="2.1007170">
        <ele>355.8</ele>
        <time>2018-04-10T08:55:39Z</time>
      </trkpt>
      <trkpt lat="41.4317880" lon="2.1006390">
        <ele>356.4</ele>
        <time>2018-04-10T08:55:41Z</time>
      </trkpt>
      <trkpt lat="41.4317370" lon="2.1005670">
        <ele>357.0</ele>
        <time>2018-04-10T08:55:43Z</time>
      </trkpt>
      <trkpt lat="41.4316730" lon="2.1005110">
        <ele>357.4</ele>
        <time>2018-04-10T08:55:45Z</time>
      </trkpt>
      <trkpt lat="41.4316340" lon="2.1005000">
        <ele>357.6</ele>
        <time>2018-04-10T08:55:46Z</time>
      </trkpt>
      <trkpt lat="41.4315960" lon="2.1004960">
        <ele>357.8</ele>
        <time>2018-04-10T08:55:47Z</time>
      </trkpt>
      <trkpt lat="41.4315270" lon="2.1004960">
        <ele>358.4</ele>
        <time>2018-04-10T08:55:49Z</time>
      </trkpt>
      <trkpt lat="41.4314610" lon="2.1005190">
        <ele>358.8</ele>
        <time>2018-04-10T08:55:51Z</time>
      </trkpt>
      <trkpt lat="41.4313950" lon="2.1005500">
        <ele>359.0</ele>
        <time>2018-04-10T08:55:53Z</time>
      </trkpt>
      <trkpt lat="41.4313200" lon="2.1005650">
        <ele>359.4</ele>
        <time>2018-04-10T08:55:55Z</time>
      </trkpt>
      <trkpt lat="41.4312480" lon="2.1005630">
        <ele>359.6</ele>
        <time>2018-04-10T08:55:57Z</time>
      </trkpt>
      <trkpt lat="41.4311770" lon="2.1005600">
        <ele>360.2</ele>
        <time>2018-04-10T08:55:59Z</time>
      </trkpt>
      <trkpt lat="41.4311150" lon="2.1005510">
        <ele>360.8</ele>
        <time>2018-04-10T08:56:01Z</time>
      </trkpt>
      <trkpt lat="41.4310580" lon="2.1005320">
        <ele>361.8</ele>
        <time>2018-04-10T08:56:03Z</time>
      </trkpt>
      <trkpt lat="41.4310290" lon="2.1005150">
        <ele>362.0</ele>
        <time>2018-04-10T08:56:04Z</time>
      </trkpt>
      <trkpt lat="41.4309990" lon="2.1005020">
        <ele>362.4</ele>
        <time>2018-04-10T08:56:05Z</time>
      </trkpt>
      <trkpt lat="41.4309380" lon="2.1004900">
        <ele>363.0</ele>
        <time>2018-04-10T08:56:07Z</time>
      </trkpt>
      <trkpt lat="41.4309070" lon="2.1004900">
        <ele>363.2</ele>
        <time>2018-04-10T08:56:08Z</time>
      </trkpt>
      <trkpt lat="41.4308780" lon="2.1004900">
        <ele>363.4</ele>
        <time>2018-04-10T08:56:09Z</time>
      </trkpt>
      <trkpt lat="41.4308170" lon="2.1004760">
        <ele>364.0</ele>
        <time>2018-04-10T08:56:11Z</time>
      </trkpt>
      <trkpt lat="41.4307850" lon="2.1004640">
        <ele>364.4</ele>
        <time>2018-04-10T08:56:12Z</time>
      </trkpt>
      <trkpt lat="41.4307560" lon="2.1004440">
        <ele>364.8</ele>
        <time>2018-04-10T08:56:13Z</time>
      </trkpt>
      <trkpt lat="41.4306900" lon="2.1004130">
        <ele>365.4</ele>
        <time>2018-04-10T08:56:15Z</time>
      </trkpt>
      <trkpt lat="41.4306230" lon="2.1004170">
        <ele>366.0</ele>
        <time>2018-04-10T08:56:17Z</time>
      </trkpt>
      <trkpt lat="41.4305590" lon="2.1004310">
        <ele>366.6</ele>
        <time>2018-04-10T08:56:19Z</time>
      </trkpt>
      <trkpt lat="41.4304990" lon="2.1004580">
        <ele>367.0</ele>
        <time>2018-04-10T08:56:21Z</time>
      </trkpt>
      <trkpt lat="41.4304380" lon="2.1005050">
        <ele>367.6</ele>
        <time>2018-04-10T08:56:23Z</time>
      </trkpt>
      <trkpt lat="41.4303810" lon="2.1005650">
        <ele>368.0</ele>
        <time>2018-04-10T08:56:25Z</time>
      </trkpt>
      <trkpt lat="41.4303330" lon="2.1006360">
        <ele>368.4</ele>
        <time>2018-04-10T08:56:27Z</time>
      </trkpt>
      <trkpt lat="41.4303080" lon="2.1006780">
        <ele>368.8</ele>
        <time>2018-04-10T08:56:28Z</time>
      </trkpt>
      <trkpt lat="41.4302830" lon="2.1007190">
        <ele>369.0</ele>
        <time>2018-04-10T08:56:29Z</time>
      </trkpt>
      <trkpt lat="41.4302370" lon="2.1008070">
        <ele>369.8</ele>
        <time>2018-04-10T08:56:31Z</time>
      </trkpt>
      <trkpt lat="41.4301950" lon="2.1009050">
        <ele>370.2</ele>
        <time>2018-04-10T08:56:33Z</time>
      </trkpt>
      <trkpt lat="41.4301630" lon="2.1010100">
        <ele>370.6</ele>
        <time>2018-04-10T08:56:35Z</time>
      </trkpt>
      <trkpt lat="41.4301470" lon="2.1010630">
        <ele>371.0</ele>
        <time>2018-04-10T08:56:36Z</time>
      </trkpt>
      <trkpt lat="41.4301300" lon="2.1011180">
        <ele>371.2</ele>
        <time>2018-04-10T08:56:37Z</time>
      </trkpt>
      <trkpt lat="41.4300930" lon="2.1012290">
        <ele>371.8</ele>
        <time>2018-04-10T08:56:39Z</time>
      </trkpt>
      <trkpt lat="41.4300730" lon="2.1012880">
        <ele>372.0</ele>
        <time>2018-04-10T08:56:40Z</time>
      </trkpt>
      <trkpt lat="41.4300560" lon="2.1013430">
        <ele>372.4</ele>
        <time>2018-04-10T08:56:41Z</time>
      </trkpt>
      <trkpt lat="41.4300350" lon="2.1013980">
        <ele>372.6</ele>
        <time>2018-04-10T08:56:42Z</time>
      </trkpt>
      <trkpt lat="41.4300110" lon="2.1014460">
        <ele>372.8</ele>
        <time>2018-04-10T08:56:43Z</time>
      </trkpt>
      <trkpt lat="41.4299650" lon="2.1015250">
        <ele>373.2</ele>
        <time>2018-04-10T08:56:45Z</time>
      </trkpt>
      <trkpt lat="41.4299120" lon="2.1016080">
        <ele>373.8</ele>
        <time>2018-04-10T08:56:47Z</time>
      </trkpt>
      <trkpt lat="41.4298830" lon="2.1016490">
        <ele>374.0</ele>
        <time>2018-04-10T08:56:48Z</time>
      </trkpt>
      <trkpt lat="41.4298570" lon="2.1016830">
        <ele>374.2</ele>
        <time>2018-04-10T08:56:49Z</time>
      </trkpt>
      <trkpt lat="41.4298360" lon="2.1017200">
        <ele>374.4</ele>
        <time>2018-04-10T08:56:50Z</time>
      </trkpt>
      <trkpt lat="41.4298100" lon="2.1017590">
        <ele>374.8</ele>
        <time>2018-04-10T08:56:51Z</time>
      </trkpt>
      <trkpt lat="41.4297580" lon="2.1018330">
        <ele>375.2</ele>
        <time>2018-04-10T08:56:53Z</time>
      </trkpt>
      <trkpt lat="41.4297170" lon="2.1018940">
        <ele>375.4</ele>
        <time>2018-04-10T08:56:55Z</time>
      </trkpt>
      <trkpt lat="41.4296930" lon="2.1019240">
        <ele>375.6</ele>
        <time>2018-04-10T08:56:56Z</time>
      </trkpt>
      <trkpt lat="41.4296660" lon="2.1019580">
        <ele>375.8</ele>
        <time>2018-04-10T08:56:57Z</time>
      </trkpt>
      <trkpt lat="41.4296140" lon="2.1020200">
        <ele>376.0</ele>
        <time>2018-04-10T08:56:59Z</time>
      </trkpt>
      <trkpt lat="41.4295620" lon="2.1020680">
        <ele>376.6</ele>
        <time>2018-04-10T08:57:01Z</time>
      </trkpt>
      <trkpt lat="41.4295040" lon="2.1020960">
        <ele>377.0</ele>
        <time>2018-04-10T08:57:03Z</time>
      </trkpt>
      <trkpt lat="41.4294520" lon="2.1021330">
        <ele>377.4</ele>
        <time>2018-04-10T08:57:05Z</time>
      </trkpt>
      <trkpt lat="41.4294050" lon="2.1021810">
        <ele>377.8</ele>
        <time>2018-04-10T08:57:07Z</time>
      </trkpt>
      <trkpt lat="41.4293620" lon="2.1022200">
        <ele>378.4</ele>
        <time>2018-04-10T08:57:09Z</time>
      </trkpt>
      <trkpt lat="41.4293180" lon="2.1022700">
        <ele>379.0</ele>
        <time>2018-04-10T08:57:11Z</time>
      </trkpt>
      <trkpt lat="41.4292820" lon="2.1023230">
        <ele>379.6</ele>
        <time>2018-04-10T08:57:13Z</time>
      </trkpt>
      <trkpt lat="41.4292490" lon="2.1023860">
        <ele>380.2</ele>
        <time>2018-04-10T08:57:15Z</time>
      </trkpt>
      <trkpt lat="41.4292100" lon="2.1024580">
        <ele>380.8</ele>
        <time>2018-04-10T08:57:17Z</time>
      </trkpt>
      <trkpt lat="41.4291800" lon="2.1025470">
        <ele>381.4</ele>
        <time>2018-04-10T08:57:19Z</time>
      </trkpt>
      <trkpt lat="41.4291520" lon="2.1026440">
        <ele>381.8</ele>
        <time>2018-04-10T08:57:21Z</time>
      </trkpt>
      <trkpt lat="41.4291340" lon="2.1027250">
        <ele>382.4</ele>
        <time>2018-04-10T08:57:23Z</time>
      </trkpt>
      <trkpt lat="41.4291160" lon="2.1028170">
        <ele>382.8</ele>
        <time>2018-04-10T08:57:25Z</time>
      </trkpt>
      <trkpt lat="41.4291020" lon="2.1029000">
        <ele>383.4</ele>
        <time>2018-04-10T08:57:27Z</time>
      </trkpt>
      <trkpt lat="41.4290960" lon="2.1029740">
        <ele>384.2</ele>
        <time>2018-04-10T08:57:29Z</time>
      </trkpt>
      <trkpt lat="41.4290930" lon="2.1030120">
        <ele>384.6</ele>
        <time>2018-04-10T08:57:30Z</time>
      </trkpt>
      <trkpt lat="41.4290880" lon="2.1030570">
        <ele>385.2</ele>
        <time>2018-04-10T08:57:31Z</time>
      </trkpt>
      <trkpt lat="41.4290770" lon="2.1031730">
        <ele>385.6</ele>
        <time>2018-04-10T08:57:33Z</time>
      </trkpt>
      <trkpt lat="41.4290700" lon="2.1032890">
        <ele>386.4</ele>
        <time>2018-04-10T08:57:35Z</time>
      </trkpt>
      <trkpt lat="41.4290760" lon="2.1033980">
        <ele>387.0</ele>
        <time>2018-04-10T08:57:37Z</time>
      </trkpt>
      <trkpt lat="41.4290870" lon="2.1035020">
        <ele>387.6</ele>
        <time>2018-04-10T08:57:39Z</time>
      </trkpt>
      <trkpt lat="41.4290920" lon="2.1036030">
        <ele>388.2</ele>
        <time>2018-04-10T08:57:41Z</time>
      </trkpt>
      <trkpt lat="41.4290920" lon="2.1037070">
        <ele>388.6</ele>
        <time>2018-04-10T08:57:43Z</time>
      </trkpt>
      <trkpt lat="41.4291060" lon="2.1038060">
        <ele>389.2</ele>
        <time>2018-04-10T08:57:45Z</time>
      </trkpt>
      <trkpt lat="41.4291250" lon="2.1038990">
        <ele>389.6</ele>
        <time>2018-04-10T08:57:47Z</time>
      </trkpt>
      <trkpt lat="41.4291280" lon="2.1039910">
        <ele>390.4</ele>
        <time>2018-04-10T08:57:49Z</time>
      </trkpt>
      <trkpt lat="41.4291330" lon="2.1040800">
        <ele>391.0</ele>
        <time>2018-04-10T08:57:51Z</time>
      </trkpt>
      <trkpt lat="41.4291470" lon="2.1041730">
        <ele>391.4</ele>
        <time>2018-04-10T08:57:53Z</time>
      </trkpt>
      <trkpt lat="41.4291580" lon="2.1042670">
        <ele>392.0</ele>
        <time>2018-04-10T08:57:55Z</time>
      </trkpt>
      <trkpt lat="41.4291700" lon="2.1043620">
        <ele>392.6</ele>
        <time>2018-04-10T08:57:57Z</time>
      </trkpt>
      <trkpt lat="41.4291810" lon="2.1044530">
        <ele>393.0</ele>
        <time>2018-04-10T08:57:59Z</time>
      </trkpt>
      <trkpt lat="41.4291880" lon="2.1044990">
        <ele>393.6</ele>
        <time>2018-04-10T08:58:00Z</time>
      </trkpt>
      <trkpt lat="41.4291980" lon="2.1045460">
        <ele>394.0</ele>
        <time>2018-04-10T08:58:01Z</time>
      </trkpt>
      <trkpt lat="41.4292130" lon="2.1046410">
        <ele>394.6</ele>
        <time>2018-04-10T08:58:03Z</time>
      </trkpt>
      <trkpt lat="41.4292170" lon="2.1046900">
        <ele>394.8</ele>
        <time>2018-04-10T08:58:04Z</time>
      </trkpt>
      <trkpt lat="41.4292290" lon="2.1047390">
        <ele>395.2</ele>
        <time>2018-04-10T08:58:05Z</time>
      </trkpt>
      <trkpt lat="41.4292320" lon="2.1048400">
        <ele>395.8</ele>
        <time>2018-04-10T08:58:07Z</time>
      </trkpt>
      <trkpt lat="41.4292370" lon="2.1048900">
        <ele>396.0</ele>
        <time>2018-04-10T08:58:08Z</time>
      </trkpt>
      <trkpt lat="41.4292380" lon="2.1049410">
        <ele>396.4</ele>
        <time>2018-04-10T08:58:09Z</time>
      </trkpt>
      <trkpt lat="41.4292510" lon="2.1050380">
        <ele>397.0</ele>
        <time>2018-04-10T08:58:11Z</time>
      </trkpt>
      <trkpt lat="41.4292540" lon="2.1050860">
        <ele>397.4</ele>
        <time>2018-04-10T08:58:12Z</time>
      </trkpt>
      <trkpt lat="41.4292570" lon="2.1051360">
        <ele>397.6</ele>
        <time>2018-04-10T08:58:13Z</time>
      </trkpt>
      <trkpt lat="41.4292490" lon="2.1052360">
        <ele>398.0</ele>
        <time>2018-04-10T08:58:15Z</time>
      </trkpt>
      <trkpt lat="41.4292390" lon="2.1053350">
        <ele>398.4</ele>
        <time>2018-04-10T08:58:17Z</time>
      </trkpt>
      <trkpt lat="41.4292300" lon="2.1054340">
        <ele>399.0</ele>
        <time>2018-04-10T08:58:19Z</time>
      </trkpt>
      <trkpt lat="41.4292190" lon="2.1055340">
        <ele>399.4</ele>
        <time>2018-04-10T08:58:21Z</time>
      </trkpt>
      <trkpt lat="41.4292110" lon="2.1056380">
        <ele>399.6</ele>
        <time>2018-04-10T08:58:23Z</time>
      </trkpt>
      <trkpt lat="41.4292020" lon="2.1057410">
        <ele>400.0</ele>
        <time>2018-04-10T08:58:25Z</time>
      </trkpt>
      <trkpt lat="41.4292030" lon="2.1058470">
        <ele>400.4</ele>
        <time>2018-04-10T08:58:27Z</time>
      </trkpt>
      <trkpt lat="41.4292020" lon="2.1059010">
        <ele>400.6</ele>
        <time>2018-04-10T08:58:28Z</time>
      </trkpt>
      <trkpt lat="41.4292050" lon="2.1059560">
        <ele>401.0</ele>
        <time>2018-04-10T08:58:29Z</time>
      </trkpt>
      <trkpt lat="41.4292050" lon="2.1060090">
        <ele>401.0</ele>
        <time>2018-04-10T08:58:30Z</time>
      </trkpt>
      <trkpt lat="41.4292000" lon="2.1060640">
        <ele>401.4</ele>
        <time>2018-04-10T08:58:31Z</time>
      </trkpt>
      <trkpt lat="41.4291980" lon="2.1061780">
        <ele>402.0</ele>
        <time>2018-04-10T08:58:33Z</time>
      </trkpt>
      <trkpt lat="41.4292250" lon="2.1062980">
        <ele>402.4</ele>
        <time>2018-04-10T08:58:35Z</time>
      </trkpt>
      <trkpt lat="41.4292480" lon="2.1063600">
        <ele>402.4</ele>
        <time>2018-04-10T08:58:36Z</time>
      </trkpt>
      <trkpt lat="41.4292800" lon="2.1064200">
        <ele>402.6</ele>
        <time>2018-04-10T08:58:37Z</time>
      </trkpt>
      <trkpt lat="41.4293540" lon="2.1065370">
        <ele>402.6</ele>
        <time>2018-04-10T08:58:39Z</time>
      </trkpt>
      <trkpt lat="41.4293920" lon="2.1065850">
        <ele>402.6</ele>
        <time>2018-04-10T08:58:40Z</time>
      </trkpt>
      <trkpt lat="41.4294330" lon="2.1066220">
        <ele>402.6</ele>
        <time>2018-04-10T08:58:41Z</time>
      </trkpt>
      <trkpt lat="41.4295450" lon="2.1066930">
        <ele>402.6</ele>
        <time>2018-04-10T08:58:43Z</time>
      </trkpt>
      <trkpt lat="41.4296440" lon="2.1067850">
        <ele>402.6</ele>
        <time>2018-04-10T08:58:45Z</time>
      </trkpt>
      <trkpt lat="41.4296960" lon="2.1069260">
        <ele>402.4</ele>
        <time>2018-04-10T08:58:47Z</time>
      </trkpt>
      <trkpt lat="41.4297130" lon="2.1070810">
        <ele>402.4</ele>
        <time>2018-04-10T08:58:49Z</time>
      </trkpt>
      <trkpt lat="41.4297130" lon="2.1071580">
        <ele>402.2</ele>
        <time>2018-04-10T08:58:50Z</time>
      </trkpt>
      <trkpt lat="41.4297110" lon="2.1072350">
        <ele>402.2</ele>
        <time>2018-04-10T08:58:51Z</time>
      </trkpt>
      <trkpt lat="41.4297050" lon="2.1073860">
        <ele>402.2</ele>
        <time>2018-04-10T08:58:53Z</time>
      </trkpt>
      <trkpt lat="41.4297030" lon="2.1075340">
        <ele>402.2</ele>
        <time>2018-04-10T08:58:55Z</time>
      </trkpt>
      <trkpt lat="41.4297120" lon="2.1076910">
        <ele>402.2</ele>
        <time>2018-04-10T08:58:57Z</time>
      </trkpt>
      <trkpt lat="41.4297220" lon="2.1077700">
        <ele>402.2</ele>
        <time>2018-04-10T08:58:58Z</time>
      </trkpt>
      <trkpt lat="41.4297420" lon="2.1078470">
        <ele>402.2</ele>
        <time>2018-04-10T08:58:59Z</time>
      </trkpt>
      <trkpt lat="41.4298200" lon="2.1079890">
        <ele>402.2</ele>
        <time>2018-04-10T08:59:01Z</time>
      </trkpt>
      <trkpt lat="41.4299310" lon="2.1080780">
        <ele>402.2</ele>
        <time>2018-04-10T08:59:03Z</time>
      </trkpt>
      <trkpt lat="41.4300480" lon="2.1081190">
        <ele>402.2</ele>
        <time>2018-04-10T08:59:05Z</time>
      </trkpt>
      <trkpt lat="41.4301730" lon="2.1081340">
        <ele>402.2</ele>
        <time>2018-04-10T08:59:07Z</time>
      </trkpt>
      <trkpt lat="41.4302830" lon="2.1080760">
        <ele>401.8</ele>
        <time>2018-04-10T08:59:09Z</time>
      </trkpt>
      <trkpt lat="41.4303700" lon="2.1079810">
        <ele>401.6</ele>
        <time>2018-04-10T08:59:11Z</time>
      </trkpt>
      <trkpt lat="41.4304260" lon="2.1079420">
        <ele>401.6</ele>
        <time>2018-04-10T08:59:12Z</time>
      </trkpt>
      <trkpt lat="41.4304910" lon="2.1079170">
        <ele>401.4</ele>
        <time>2018-04-10T08:59:13Z</time>
      </trkpt>
      <trkpt lat="41.4306220" lon="2.1078870">
        <ele>401.0</ele>
        <time>2018-04-10T08:59:15Z</time>
      </trkpt>
      <trkpt lat="41.4307530" lon="2.1078560">
        <ele>400.8</ele>
        <time>2018-04-10T08:59:17Z</time>
      </trkpt>
      <trkpt lat="41.4308140" lon="2.1078430">
        <ele>400.6</ele>
        <time>2018-04-10T08:59:18Z</time>
      </trkpt>
      <trkpt lat="41.4308720" lon="2.1078520">
        <ele>400.4</ele>
        <time>2018-04-10T08:59:19Z</time>
      </trkpt>
      <trkpt lat="41.4309840" lon="2.1079260">
        <ele>400.4</ele>
        <time>2018-04-10T08:59:21Z</time>
      </trkpt>
      <trkpt lat="41.4311090" lon="2.1079940">
        <ele>400.4</ele>
        <time>2018-04-10T08:59:23Z</time>
      </trkpt>
      <trkpt lat="41.4312270" lon="2.1080100">
        <ele>400.4</ele>
        <time>2018-04-10T08:59:25Z</time>
      </trkpt>
      <trkpt lat="41.4313370" lon="2.1080310">
        <ele>400.4</ele>
        <time>2018-04-10T08:59:27Z</time>
      </trkpt>
      <trkpt lat="41.4314460" lon="2.1080790">
        <ele>400.4</ele>
        <time>2018-04-10T08:59:29Z</time>
      </trkpt>
      <trkpt lat="41.4315000" lon="2.1081090">
        <ele>400.4</ele>
        <time>2018-04-10T08:59:30Z</time>
      </trkpt>
      <trkpt lat="41.4315560" lon="2.1081400">
        <ele>400.6</ele>
        <time>2018-04-10T08:59:31Z</time>
      </trkpt>
      <trkpt lat="41.4316080" lon="2.1081820">
        <ele>400.6</ele>
        <time>2018-04-10T08:59:32Z</time>
      </trkpt>
      <trkpt lat="41.4316480" lon="2.1082360">
        <ele>400.6</ele>
        <time>2018-04-10T08:59:33Z</time>
      </trkpt>
      <trkpt lat="41.4316960" lon="2.1083670">
        <ele>400.6</ele>
        <time>2018-04-10T08:59:35Z</time>
      </trkpt>
      <trkpt lat="41.4317240" lon="2.1085040">
        <ele>400.6</ele>
        <time>2018-04-10T08:59:37Z</time>
      </trkpt>
      <trkpt lat="41.4317340" lon="2.1085770">
        <ele>400.6</ele>
        <time>2018-04-10T08:59:38Z</time>
      </trkpt>
      <trkpt lat="41.4317330" lon="2.1086570">
        <ele>400.6</ele>
        <time>2018-04-10T08:59:39Z</time>
      </trkpt>
      <trkpt lat="41.4316750" lon="2.1088170">
        <ele>400.6</ele>
        <time>2018-04-10T08:59:41Z</time>
      </trkpt>
      <trkpt lat="41.4316290" lon="2.1088840">
        <ele>400.6</ele>
        <time>2018-04-10T08:59:42Z</time>
      </trkpt>
      <trkpt lat="41.4315680" lon="2.1089540">
        <ele>400.6</ele>
        <time>2018-04-10T08:59:43Z</time>
      </trkpt>
      <trkpt lat="41.4314650" lon="2.1090890">
        <ele>400.4</ele>
        <time>2018-04-10T08:59:45Z</time>
      </trkpt>
      <trkpt lat="41.4313690" lon="2.1092240">
        <ele>400.2</ele>
        <time>2018-04-10T08:59:47Z</time>
      </trkpt>
      <trkpt lat="41.4312720" lon="2.1093500">
        <ele>399.6</ele>
        <time>2018-04-10T08:59:49Z</time>
      </trkpt>
      <trkpt lat="41.4312280" lon="2.1093910">
        <ele>399.4</ele>
        <time>2018-04-10T08:59:50Z</time>
      </trkpt>
      <trkpt lat="41.4311830" lon="2.1094250">
        <ele>398.8</ele>
        <time>2018-04-10T08:59:51Z</time>
      </trkpt>
      <trkpt lat="41.4311050" lon="2.1094990">
        <ele>398.0</ele>
        <time>2018-04-10T08:59:53Z</time>
      </trkpt>
      <trkpt lat="41.4310360" lon="2.1095650">
        <ele>397.6</ele>
        <time>2018-04-10T08:59:55Z</time>
      </trkpt>
      <trkpt lat="41.4309700" lon="2.1096280">
        <ele>397.4</ele>
        <time>2018-04-10T08:59:57Z</time>
      </trkpt>
      <trkpt lat="41.4309040" lon="2.1096860">
        <ele>397.4</ele>
        <time>2018-04-10T08:59:59Z</time>
      </trkpt>
      <trkpt lat="41.4308420" lon="2.1097420">
        <ele>397.4</ele>
        <time>2018-04-10T09:00:01Z</time>
      </trkpt>
      <trkpt lat="41.4307900" lon="2.1097930">
        <ele>397.6</ele>
        <time>2018-04-10T09:00:03Z</time>
      </trkpt>
      <trkpt lat="41.4307430" lon="2.1098280">
        <ele>398.0</ele>
        <time>2018-04-10T09:00:05Z</time>
      </trkpt>
      <trkpt lat="41.4306910" lon="2.1098860">
        <ele>398.4</ele>
        <time>2018-04-10T09:00:07Z</time>
      </trkpt>
      <trkpt lat="41.4306640" lon="2.1099080">
        <ele>398.8</ele>
        <time>2018-04-10T09:00:08Z</time>
      </trkpt>
      <trkpt lat="41.4306340" lon="2.1099300">
        <ele>399.2</ele>
        <time>2018-04-10T09:00:09Z</time>
      </trkpt>
      <trkpt lat="41.4305740" lon="2.1099760">
        <ele>399.8</ele>
        <time>2018-04-10T09:00:11Z</time>
      </trkpt>
      <trkpt lat="41.4305430" lon="2.1099970">
        <ele>400.2</ele>
        <time>2018-04-10T09:00:12Z</time>
      </trkpt>
      <trkpt lat="41.4305140" lon="2.1100150">
        <ele>400.4</ele>
        <time>2018-04-10T09:00:13Z</time>
      </trkpt>
      <trkpt lat="41.4304560" lon="2.1100580">
        <ele>400.8</ele>
        <time>2018-04-10T09:00:15Z</time>
      </trkpt>
      <trkpt lat="41.4304240" lon="2.1100800">
        <ele>401.2</ele>
        <time>2018-04-10T09:00:16Z</time>
      </trkpt>
      <trkpt lat="41.4303920" lon="2.1101030">
        <ele>401.4</ele>
        <time>2018-04-10T09:00:17Z</time>
      </trkpt>
      <trkpt lat="41.4303350" lon="2.1101330">
        <ele>401.8</ele>
        <time>2018-04-10T09:00:19Z</time>
      </trkpt>
      <trkpt lat="41.4302800" lon="2.1101720">
        <ele>402.2</ele>
        <time>2018-04-10T09:00:21Z</time>
      </trkpt>
      <trkpt lat="41.4302260" lon="2.1102270">
        <ele>402.8</ele>
        <time>2018-04-10T09:00:23Z</time>
      </trkpt>
      <trkpt lat="41.4301800" lon="2.1102850">
        <ele>403.2</ele>
        <time>2018-04-10T09:00:25Z</time>
      </trkpt>
      <trkpt lat="41.4301600" lon="2.1103200">
        <ele>403.6</ele>
        <time>2018-04-10T09:00:26Z</time>
      </trkpt>
      <trkpt lat="41.4301400" lon="2.1103590">
        <ele>404.0</ele>
        <time>2018-04-10T09:00:27Z</time>
      </trkpt>
      <trkpt lat="41.4301020" lon="2.1104390">
        <ele>404.6</ele>
        <time>2018-04-10T09:00:29Z</time>
      </trkpt>
      <trkpt lat="41.4300640" lon="2.1105250">
        <ele>405.0</ele>
        <time>2018-04-10T09:00:31Z</time>
      </trkpt>
      <trkpt lat="41.4300320" lon="2.1106120">
        <ele>405.4</ele>
        <time>2018-04-10T09:00:33Z</time>
      </trkpt>
      <trkpt lat="41.4300160" lon="2.1106530">
        <ele>405.6</ele>
        <time>2018-04-10T09:00:34Z</time>
      </trkpt>
      <trkpt lat="41.4300030" lon="2.1106990">
        <ele>405.8</ele>
        <time>2018-04-10T09:00:35Z</time>
      </trkpt>
      <trkpt lat="41.4299800" lon="2.1108010">
        <ele>406.2</ele>
        <time>2018-04-10T09:00:37Z</time>
      </trkpt>
      <trkpt lat="41.4299680" lon="2.1109110">
        <ele>406.8</ele>
        <time>2018-04-10T09:00:39Z</time>
      </trkpt>
      <trkpt lat="41.4299630" lon="2.1110310">
        <ele>407.2</ele>
        <time>2018-04-10T09:00:41Z</time>
      </trkpt>
      <trkpt lat="41.4299660" lon="2.1111510">
        <ele>407.8</ele>
        <time>2018-04-10T09:00:43Z</time>
      </trkpt>
      <trkpt lat="41.4299750" lon="2.1112690">
        <ele>408.6</ele>
        <time>2018-04-10T09:00:45Z</time>
      </trkpt>
      <trkpt lat="41.4299790" lon="2.1113790">
        <ele>408.8</ele>
        <time>2018-04-10T09:00:47Z</time>
      </trkpt>
      <trkpt lat="41.4299790" lon="2.1114850">
        <ele>409.4</ele>
        <time>2018-04-10T09:00:49Z</time>
      </trkpt>
      <trkpt lat="41.4299810" lon="2.1115900">
        <ele>409.8</ele>
        <time>2018-04-10T09:00:51Z</time>
      </trkpt>
      <trkpt lat="41.4299800" lon="2.1116930">
        <ele>410.4</ele>
        <time>2018-04-10T09:00:53Z</time>
      </trkpt>
      <trkpt lat="41.4299840" lon="2.1117930">
        <ele>410.8</ele>
        <time>2018-04-10T09:00:55Z</time>
      </trkpt>
      <trkpt lat="41.4299840" lon="2.1118440">
        <ele>411.2</ele>
        <time>2018-04-10T09:00:56Z</time>
      </trkpt>
      <trkpt lat="41.4299840" lon="2.1118950">
        <ele>411.4</ele>
        <time>2018-04-10T09:00:57Z</time>
      </trkpt>
      <trkpt lat="41.4299900" lon="2.1119990">
        <ele>411.8</ele>
        <time>2018-04-10T09:00:59Z</time>
      </trkpt>
      <trkpt lat="41.4300010" lon="2.1121040">
        <ele>412.2</ele>
        <time>2018-04-10T09:01:01Z</time>
      </trkpt>
      <trkpt lat="41.4300100" lon="2.1121550">
        <ele>412.4</ele>
        <time>2018-04-10T09:01:02Z</time>
      </trkpt>
      <trkpt lat="41.4300180" lon="2.1122060">
        <ele>412.6</ele>
        <time>2018-04-10T09:01:03Z</time>
      </trkpt>
      <trkpt lat="41.4300410" lon="2.1123080">
        <ele>413.0</ele>
        <time>2018-04-10T09:01:05Z</time>
      </trkpt>
      <trkpt lat="41.4300760" lon="2.1124100">
        <ele>413.4</ele>
        <time>2018-04-10T09:01:07Z</time>
      </trkpt>
      <trkpt lat="41.4300950" lon="2.1124600">
        <ele>413.4</ele>
        <time>2018-04-10T09:01:08Z</time>
      </trkpt>
      <trkpt lat="41.4301170" lon="2.1125090">
        <ele>413.6</ele>
        <time>2018-04-10T09:01:09Z</time>
      </trkpt>
      <trkpt lat="41.4301640" lon="2.1126010">
        <ele>413.8</ele>
        <time>2018-04-10T09:01:11Z</time>
      </trkpt>
      <trkpt lat="41.4302070" lon="2.1126930">
        <ele>414.2</ele>
        <time>2018-04-10T09:01:13Z</time>
      </trkpt>
      <trkpt lat="41.4302540" lon="2.1127860">
        <ele>414.6</ele>
        <time>2018-04-10T09:01:15Z</time>
      </trkpt>
      <trkpt lat="41.4303000" lon="2.1128780">
        <ele>414.6</ele>
        <time>2018-04-10T09:01:17Z</time>
      </trkpt>
      <trkpt lat="41.4303480" lon="2.1129690">
        <ele>415.0</ele>
        <time>2018-04-10T09:01:19Z</time>
      </trkpt>
      <trkpt lat="41.4303950" lon="2.1130610">
        <ele>415.4</ele>
        <time>2018-04-10T09:01:21Z</time>
      </trkpt>
      <trkpt lat="41.4304400" lon="2.1131530">
        <ele>415.6</ele>
        <time>2018-04-10T09:01:23Z</time>
      </trkpt>
      <trkpt lat="41.4304870" lon="2.1132450">
        <ele>416.2</ele>
        <time>2018-04-10T09:01:25Z</time>
      </trkpt>
      <trkpt lat="41.4305310" lon="2.1133420">
        <ele>416.4</ele>
        <time>2018-04-10T09:01:27Z</time>
      </trkpt>
      <trkpt lat="41.4305650" lon="2.1134490">
        <ele>416.6</ele>
        <time>2018-04-10T09:01:29Z</time>
      </trkpt>
      <trkpt lat="41.4305820" lon="2.1135680">
        <ele>417.0</ele>
        <time>2018-04-10T09:01:31Z</time>
      </trkpt>
      <trkpt lat="41.4305850" lon="2.1136290">
        <ele>417.0</ele>
        <time>2018-04-10T09:01:32Z</time>
      </trkpt>
      <trkpt lat="41.4305790" lon="2.1136890">
        <ele>417.0</ele>
        <time>2018-04-10T09:01:33Z</time>
      </trkpt>
      <trkpt lat="41.4305560" lon="2.1138070">
        <ele>417.2</ele>
        <time>2018-04-10T09:01:35Z</time>
      </trkpt>
      <trkpt lat="41.4305130" lon="2.1139150">
        <ele>417.4</ele>
        <time>2018-04-10T09:01:37Z</time>
      </trkpt>
      <trkpt lat="41.4304500" lon="2.1140060">
        <ele>417.6</ele>
        <time>2018-04-10T09:01:39Z</time>
      </trkpt>
      <trkpt lat="41.4304110" lon="2.1140450">
        <ele>417.8</ele>
        <time>2018-04-10T09:01:40Z</time>
      </trkpt>
      <trkpt lat="41.4303640" lon="2.1140790">
        <ele>417.8</ele>
        <time>2018-04-10T09:01:41Z</time>
      </trkpt>
      <trkpt lat="41.4302730" lon="2.1141300">
        <ele>418.0</ele>
        <time>2018-04-10T09:01:43Z</time>
      </trkpt>
      <trkpt lat="41.4301780" lon="2.1141550">
        <ele>418.2</ele>
        <time>2018-04-10T09:01:45Z</time>
      </trkpt>
      <trkpt lat="41.4301290" lon="2.1141610">
        <ele>418.4</ele>
        <time>2018-04-10T09:01:46Z</time>
      </trkpt>
      <trkpt lat="41.4300810" lon="2.1141620">
        <ele>418.6</ele>
        <time>2018-04-10T09:01:47Z</time>
      </trkpt>
      <trkpt lat="41.4299860" lon="2.1141630">
        <ele>418.8</ele>
        <time>2018-04-10T09:01:49Z</time>
      </trkpt>
      <trkpt lat="41.4298940" lon="2.1141630">
        <ele>419.0</ele>
        <time>2018-04-10T09:01:51Z</time>
      </trkpt>
      <trkpt lat="41.4298470" lon="2.1141660">
        <ele>419.0</ele>
        <time>2018-04-10T09:01:52Z</time>
      </trkpt>
      <trkpt lat="41.4298000" lon="2.1141740">
        <ele>419.2</ele>
        <time>2018-04-10T09:01:53Z</time>
      </trkpt>
      <trkpt lat="41.4297050" lon="2.1142010">
        <ele>419.6</ele>
        <time>2018-04-10T09:01:55Z</time>
      </trkpt>
      <trkpt lat="41.4296580" lon="2.1142210">
        <ele>419.6</ele>
        <time>2018-04-10T09:01:56Z</time>
      </trkpt>
      <trkpt lat="41.4296140" lon="2.1142460">
        <ele>419.8</ele>
        <time>2018-04-10T09:01:57Z</time>
      </trkpt>
      <trkpt lat="41.4295340" lon="2.1143160">
        <ele>420.4</ele>
        <time>2018-04-10T09:01:59Z</time>
      </trkpt>
      <trkpt lat="41.4294650" lon="2.1143990">
        <ele>420.8</ele>
        <time>2018-04-10T09:02:01Z</time>
      </trkpt>
      <trkpt lat="41.4294130" lon="2.1144990">
        <ele>420.8</ele>
        <time>2018-04-10T09:02:03Z</time>
      </trkpt>
      <trkpt lat="41.4293910" lon="2.1145550">
        <ele>421.0</ele>
        <time>2018-04-10T09:02:04Z</time>
      </trkpt>
      <trkpt lat="41.4293730" lon="2.1146130">
        <ele>421.0</ele>
        <time>2018-04-10T09:02:05Z</time>
      </trkpt>
      <trkpt lat="41.4293570" lon="2.1146730">
        <ele>421.2</ele>
        <time>2018-04-10T09:02:06Z</time>
      </trkpt>
      <trkpt lat="41.4293450" lon="2.1147330">
        <ele>421.2</ele>
        <time>2018-04-10T09:02:07Z</time>
      </trkpt>
      <trkpt lat="41.4293260" lon="2.1148570">
        <ele>421.4</ele>
        <time>2018-04-10T09:02:09Z</time>
      </trkpt>
      <trkpt lat="41.4293140" lon="2.1149860">
        <ele>421.6</ele>
        <time>2018-04-10T09:02:11Z</time>
      </trkpt>
      <trkpt lat="41.4293000" lon="2.1151130">
        <ele>422.0</ele>
        <time>2018-04-10T09:02:13Z</time>
      </trkpt>
      <trkpt lat="41.4292890" lon="2.1151760">
        <ele>422.0</ele>
        <time>2018-04-10T09:02:14Z</time>
      </trkpt>
      <trkpt lat="41.4292770" lon="2.1152400">
        <ele>422.2</ele>
        <time>2018-04-10T09:02:15Z</time>
      </trkpt>
      <trkpt lat="41.4292490" lon="2.1153700">
        <ele>422.4</ele>
        <time>2018-04-10T09:02:17Z</time>
      </trkpt>
      <trkpt lat="41.4292410" lon="2.1154370">
        <ele>422.6</ele>
        <time>2018-04-10T09:02:18Z</time>
      </trkpt>
      <trkpt lat="41.4292310" lon="2.1155020">
        <ele>422.6</ele>
        <time>2018-04-10T09:02:19Z</time>
      </trkpt>
      <trkpt lat="41.4292160" lon="2.1156290">
        <ele>422.8</ele>
        <time>2018-04-10T09:02:21Z</time>
      </trkpt>
      <trkpt lat="41.4292080" lon="2.1156930">
        <ele>423.0</ele>
        <time>2018-04-10T09:02:22Z</time>
      </trkpt>
      <trkpt lat="41.4292000" lon="2.1157560">
        <ele>423.0</ele>
        <time>2018-04-10T09:02:23Z</time>
      </trkpt>
      <trkpt lat="41.4291910" lon="2.1158810">
        <ele>423.6</ele>
        <time>2018-04-10T09:02:25Z</time>
      </trkpt>
      <trkpt lat="41.4291830" lon="2.1159430">
        <ele>423.6</ele>
        <time>2018-04-10T09:02:26Z</time>
      </trkpt>
      <trkpt lat="41.4291730" lon="2.1160060">
        <ele>423.8</ele>
        <time>2018-04-10T09:02:27Z</time>
      </trkpt>
      <trkpt lat="41.4291600" lon="2.1160680">
        <ele>423.8</ele>
        <time>2018-04-10T09:02:28Z</time>
      </trkpt>
      <trkpt lat="41.4291430" lon="2.1161280">
        <ele>424.0</ele>
        <time>2018-04-10T09:02:29Z</time>
      </trkpt>
      <trkpt lat="41.4291190" lon="2.1161870">
        <ele>424.2</ele>
        <time>2018-04-10T09:02:30Z</time>
      </trkpt>
      <trkpt lat="41.4290910" lon="2.1162430">
        <ele>424.2</ele>
        <time>2018-04-10T09:02:31Z</time>
      </trkpt>
      <trkpt lat="41.4290610" lon="2.1162950">
        <ele>424.4</ele>
        <time>2018-04-10T09:02:32Z</time>
      </trkpt>
      <trkpt lat="41.4290300" lon="2.1163430">
        <ele>424.6</ele>
        <time>2018-04-10T09:02:33Z</time>
      </trkpt>
      <trkpt lat="41.4289540" lon="2.1164350">
        <ele>424.8</ele>
        <time>2018-04-10T09:02:35Z</time>
      </trkpt>
      <trkpt lat="41.4288620" lon="2.1165060">
        <ele>425.0</ele>
        <time>2018-04-10T09:02:37Z</time>
      </trkpt>
      <trkpt lat="41.4287620" lon="2.1165630">
        <ele>425.2</ele>
        <time>2018-04-10T09:02:39Z</time>
      </trkpt>
      <trkpt lat="41.4287090" lon="2.1165830">
        <ele>425.2</ele>
        <time>2018-04-10T09:02:40Z</time>
      </trkpt>
      <trkpt lat="41.4286560" lon="2.1166020">
        <ele>425.4</ele>
        <time>2018-04-10T09:02:41Z</time>
      </trkpt>
      <trkpt lat="41.4285470" lon="2.1166360">
        <ele>425.6</ele>
        <time>2018-04-10T09:02:43Z</time>
      </trkpt>
      <trkpt lat="41.4284350" lon="2.1166670">
        <ele>425.6</ele>
        <time>2018-04-10T09:02:45Z</time>
      </trkpt>
      <trkpt lat="41.4283190" lon="2.1167030">
        <ele>425.6</ele>
        <time>2018-04-10T09:02:47Z</time>
      </trkpt>
      <trkpt lat="41.4282050" lon="2.1167440">
        <ele>425.6</ele>
        <time>2018-04-10T09:02:49Z</time>
      </trkpt>
      <trkpt lat="41.4280970" lon="2.1168100">
        <ele>425.6</ele>
        <time>2018-04-10T09:02:51Z</time>
      </trkpt>
      <trkpt lat="41.4279990" lon="2.1168890">
        <ele>425.6</ele>
        <time>2018-04-10T09:02:53Z</time>
      </trkpt>
      <trkpt lat="41.4279100" lon="2.1169850">
        <ele>425.6</ele>
        <time>2018-04-10T09:02:55Z</time>
      </trkpt>
      <trkpt lat="41.4278670" lon="2.1170430">
        <ele>425.6</ele>
        <time>2018-04-10T09:02:56Z</time>
      </trkpt>
      <trkpt lat="41.4278280" lon="2.1171040">
        <ele>425.6</ele>
        <time>2018-04-10T09:02:57Z</time>
      </trkpt>
      <trkpt lat="41.4277660" lon="2.1172400">
        <ele>425.4</ele>
        <time>2018-04-10T09:02:59Z</time>
      </trkpt>
      <trkpt lat="41.4277190" lon="2.1173990">
        <ele>425.4</ele>
        <time>2018-04-10T09:03:01Z</time>
      </trkpt>
      <trkpt lat="41.4276790" lon="2.1175620">
        <ele>425.4</ele>
        <time>2018-04-10T09:03:03Z</time>
      </trkpt>
      <trkpt lat="41.4276410" lon="2.1177320">
        <ele>425.4</ele>
        <time>2018-04-10T09:03:05Z</time>
      </trkpt>
      <trkpt lat="41.4276040" lon="2.1179070">
        <ele>425.2</ele>
        <time>2018-04-10T09:03:07Z</time>
      </trkpt>
      <trkpt lat="41.4275620" lon="2.1180840">
        <ele>425.0</ele>
        <time>2018-04-10T09:03:09Z</time>
      </trkpt>
      <trkpt lat="41.4275110" lon="2.1182680">
        <ele>425.0</ele>
        <time>2018-04-10T09:03:11Z</time>
      </trkpt>
      <trkpt lat="41.4274680" lon="2.1184480">
        <ele>424.8</ele>
        <time>2018-04-10T09:03:13Z</time>
      </trkpt>
      <trkpt lat="41.4274350" lon="2.1186310">
        <ele>424.8</ele>
        <time>2018-04-10T09:03:15Z</time>
      </trkpt>
      <trkpt lat="41.4273930" lon="2.1188060">
        <ele>424.6</ele>
        <time>2018-04-10T09:03:17Z</time>
      </trkpt>
      <trkpt lat="41.4273550" lon="2.1189780">
        <ele>424.6</ele>
        <time>2018-04-10T09:03:19Z</time>
      </trkpt>
      <trkpt lat="41.4273210" lon="2.1191500">
        <ele>424.6</ele>
        <time>2018-04-10T09:03:21Z</time>
      </trkpt>
      <trkpt lat="41.4272840" lon="2.1193230">
        <ele>424.6</ele>
        <time>2018-04-10T09:03:23Z</time>
      </trkpt>
      <trkpt lat="41.4272350" lon="2.1194930">
        <ele>424.6</ele>
        <time>2018-04-10T09:03:25Z</time>
      </trkpt>
      <trkpt lat="41.4272000" lon="2.1196630">
        <ele>424.6</ele>
        <time>2018-04-10T09:03:27Z</time>
      </trkpt>
      <trkpt lat="41.4271820" lon="2.1198310">
        <ele>424.6</ele>
        <time>2018-04-10T09:03:29Z</time>
      </trkpt>
      <trkpt lat="41.4271880" lon="2.1199160">
        <ele>424.6</ele>
        <time>2018-04-10T09:03:30Z</time>
      </trkpt>
      <trkpt lat="41.4271900" lon="2.1200010">
        <ele>424.8</ele>
        <time>2018-04-10T09:03:31Z</time>
      </trkpt>
      <trkpt lat="41.4272040" lon="2.1201690">
        <ele>424.8</ele>
        <time>2018-04-10T09:03:33Z</time>
      </trkpt>
      <trkpt lat="41.4272260" lon="2.1203310">
        <ele>425.0</ele>
        <time>2018-04-10T09:03:35Z</time>
      </trkpt>
      <trkpt lat="41.4272660" lon="2.1204870">
        <ele>425.0</ele>
        <time>2018-04-10T09:03:37Z</time>
      </trkpt>
      <trkpt lat="41.4272920" lon="2.1205610">
        <ele>425.2</ele>
        <time>2018-04-10T09:03:38Z</time>
      </trkpt>
      <trkpt lat="41.4273220" lon="2.1206340">
        <ele>425.2</ele>
        <time>2018-04-10T09:03:39Z</time>
      </trkpt>
      <trkpt lat="41.4273820" lon="2.1207740">
        <ele>425.4</ele>
        <time>2018-04-10T09:03:41Z</time>
      </trkpt>
      <trkpt lat="41.4274160" lon="2.1208370">
        <ele>425.6</ele>
        <time>2018-04-10T09:03:42Z</time>
      </trkpt>
      <trkpt lat="41.4274520" lon="2.1208950">
        <ele>425.6</ele>
        <time>2018-04-10T09:03:43Z</time>
      </trkpt>
      <trkpt lat="41.4275350" lon="2.1210040">
        <ele>425.8</ele>
        <time>2018-04-10T09:03:45Z</time>
      </trkpt>
      <trkpt lat="41.4276230" lon="2.1211070">
        <ele>425.8</ele>
        <time>2018-04-10T09:03:47Z</time>
      </trkpt>
      <trkpt lat="41.4277200" lon="2.1212020">
        <ele>426.0</ele>
        <time>2018-04-10T09:03:49Z</time>
      </trkpt>
      <trkpt lat="41.4277700" lon="2.1212470">
        <ele>426.2</ele>
        <time>2018-04-10T09:03:50Z</time>
      </trkpt>
      <trkpt lat="41.4278200" lon="2.1212920">
        <ele>426.4</ele>
        <time>2018-04-10T09:03:51Z</time>
      </trkpt>
      <trkpt lat="41.4279200" lon="2.1213860">
        <ele>426.4</ele>
        <time>2018-04-10T09:03:53Z</time>
      </trkpt>
      <trkpt lat="41.4279690" lon="2.1214350">
        <ele>426.4</ele>
        <time>2018-04-10T09:03:54Z</time>
      </trkpt>
      <trkpt lat="41.4280140" lon="2.1214900">
        <ele>426.4</ele>
        <time>2018-04-10T09:03:55Z</time>
      </trkpt>
      <trkpt lat="41.4280930" lon="2.1216060">
        <ele>426.6</ele>
        <time>2018-04-10T09:03:57Z</time>
      </trkpt>
      <trkpt lat="41.4281740" lon="2.1217320">
        <ele>426.8</ele>
        <time>2018-04-10T09:03:59Z</time>
      </trkpt>
      <trkpt lat="41.4282500" lon="2.1218600">
        <ele>426.8</ele>
        <time>2018-04-10T09:04:01Z</time>
      </trkpt>
      <trkpt lat="41.4283190" lon="2.1219890">
        <ele>427.2</ele>
        <time>2018-04-10T09:04:03Z</time>
      </trkpt>
      <trkpt lat="41.4283920" lon="2.1221170">
        <ele>427.4</ele>
        <time>2018-04-10T09:04:05Z</time>
      </trkpt>
      <trkpt lat="41.4284680" lon="2.1222450">
        <ele>427.6</ele>
        <time>2018-04-10T09:04:07Z</time>
      </trkpt>
      <trkpt lat="41.4285410" lon="2.1223790">
        <ele>427.6</ele>
        <time>2018-04-10T09:04:09Z</time>
      </trkpt>
      <trkpt lat="41.4286170" lon="2.1225140">
        <ele>427.6</ele>
        <time>2018-04-10T09:04:11Z</time>
      </trkpt>
      <trkpt lat="41.4286880" lon="2.1226550">
        <ele>427.8</ele>
        <time>2018-04-10T09:04:13Z</time>
      </trkpt>
      <trkpt lat="41.4287460" lon="2.1228080">
        <ele>427.8</ele>
        <time>2018-04-10T09:04:15Z</time>
      </trkpt>
      <trkpt lat="41.4287730" lon="2.1229810">
        <ele>427.8</ele>
        <time>2018-04-10T09:04:17Z</time>
      </trkpt>
      <trkpt lat="41.4287510" lon="2.1231490">
        <ele>427.8</ele>
        <time>2018-04-10T09:04:19Z</time>
      </trkpt>
      <trkpt lat="41.4286520" lon="2.1232660">
        <ele>427.8</ele>
        <time>2018-04-10T09:04:21Z</time>
      </trkpt>
      <trkpt lat="41.4285420" lon="2.1233100">
        <ele>427.8</ele>
        <time>2018-04-10T09:04:23Z</time>
      </trkpt>
      <trkpt lat="41.4284550" lon="2.1232980">
        <ele>427.8</ele>
        <time>2018-04-10T09:04:25Z</time>
      </trkpt>
      <trkpt lat="41.4284160" lon="2.1232830">
        <ele>427.8</ele>
        <time>2018-04-10T09:04:26Z</time>
      </trkpt>
      <trkpt lat="41.4283780" lon="2.1232690">
        <ele>427.8</ele>
        <time>2018-04-10T09:04:27Z</time>
      </trkpt>
      <trkpt lat="41.4283050" lon="2.1232500">
        <ele>428.2</ele>
        <time>2018-04-10T09:04:29Z</time>
      </trkpt>
      <trkpt lat="41.4282690" lon="2.1232440">
        <ele>428.6</ele>
        <time>2018-04-10T09:04:30Z</time>
      </trkpt>
      <trkpt lat="41.4282340" lon="2.1232400">
        <ele>429.0</ele>
        <time>2018-04-10T09:04:31Z</time>
      </trkpt>
      <trkpt lat="41.4281720" lon="2.1232300">
        <ele>429.8</ele>
        <time>2018-04-10T09:04:33Z</time>
      </trkpt>
      <trkpt lat="41.4281090" lon="2.1232140">
        <ele>430.4</ele>
        <time>2018-04-10T09:04:35Z</time>
      </trkpt>
      <trkpt lat="41.4280460" lon="2.1231920">
        <ele>430.8</ele>
        <time>2018-04-10T09:04:37Z</time>
      </trkpt>
      <trkpt lat="41.4279810" lon="2.1231740">
        <ele>431.4</ele>
        <time>2018-04-10T09:04:39Z</time>
      </trkpt>
      <trkpt lat="41.4279170" lon="2.1231610">
        <ele>431.8</ele>
        <time>2018-04-10T09:04:41Z</time>
      </trkpt>
      <trkpt lat="41.4278530" lon="2.1231480">
        <ele>432.4</ele>
        <time>2018-04-10T09:04:43Z</time>
      </trkpt>
      <trkpt lat="41.4277910" lon="2.1231310">
        <ele>432.8</ele>
        <time>2018-04-10T09:04:45Z</time>
      </trkpt>
      <trkpt lat="41.4277610" lon="2.1231210">
        <ele>433.2</ele>
        <time>2018-04-10T09:04:46Z</time>
      </trkpt>
      <trkpt lat="41.4277320" lon="2.1231130">
        <ele>433.4</ele>
        <time>2018-04-10T09:04:47Z</time>
      </trkpt>
      <trkpt lat="41.4276690" lon="2.1231000">
        <ele>434.0</ele>
        <time>2018-04-10T09:04:49Z</time>
      </trkpt>
      <trkpt lat="41.4275970" lon="2.1231080">
        <ele>434.6</ele>
        <time>2018-04-10T09:04:51Z</time>
      </trkpt>
      <trkpt lat="41.4275330" lon="2.1231080">
        <ele>435.2</ele>
        <time>2018-04-10T09:04:53Z</time>
      </trkpt>
      <trkpt lat="41.4274650" lon="2.1231020">
        <ele>435.6</ele>
        <time>2018-04-10T09:04:55Z</time>
      </trkpt>
      <trkpt lat="41.4274310" lon="2.1230980">
        <ele>435.8</ele>
        <time>2018-04-10T09:04:56Z</time>
      </trkpt>
      <trkpt lat="41.4273970" lon="2.1230930">
        <ele>436.2</ele>
        <time>2018-04-10T09:04:57Z</time>
      </trkpt>
      <trkpt lat="41.4273320" lon="2.1230880">
        <ele>436.8</ele>
        <time>2018-04-10T09:04:59Z</time>
      </trkpt>
      <trkpt lat="41.4272660" lon="2.1230930">
        <ele>437.4</ele>
        <time>2018-04-10T09:05:01Z</time>
      </trkpt>
      <trkpt lat="41.4272010" lon="2.1230950">
        <ele>437.8</ele>
        <time>2018-04-10T09:05:03Z</time>
      </trkpt>
      <trkpt lat="41.4271360" lon="2.1230850">
        <ele>438.2</ele>
        <time>2018-04-10T09:05:05Z</time>
      </trkpt>
      <trkpt lat="41.4271020" lon="2.1230810">
        <ele>438.6</ele>
        <time>2018-04-10T09:05:06Z</time>
      </trkpt>
      <trkpt lat="41.4270690" lon="2.1230750">
        <ele>438.8</ele>
        <time>2018-04-10T09:05:07Z</time>
      </trkpt>
      <trkpt lat="41.4270030" lon="2.1230660">
        <ele>439.2</ele>
        <time>2018-04-10T09:05:09Z</time>
      </trkpt>
      <trkpt lat="41.4269360" lon="2.1230580">
        <ele>439.8</ele>
        <time>2018-04-10T09:05:11Z</time>
      </trkpt>
      <trkpt lat="41.4268700" lon="2.1230550">
        <ele>440.2</ele>
        <time>2018-04-10T09:05:13Z</time>
      </trkpt>
      <trkpt lat="41.4268040" lon="2.1230470">
        <ele>440.6</ele>
        <time>2018-04-10T09:05:15Z</time>
      </trkpt>
      <trkpt lat="41.4267720" lon="2.1230410">
        <ele>440.8</ele>
        <time>2018-04-10T09:05:16Z</time>
      </trkpt>
      <trkpt lat="41.4267400" lon="2.1230340">
        <ele>441.0</ele>
        <time>2018-04-10T09:05:17Z</time>
      </trkpt>
      <trkpt lat="41.4266770" lon="2.1230200">
        <ele>441.2</ele>
        <time>2018-04-10T09:05:19Z</time>
      </trkpt>
      <trkpt lat="41.4266460" lon="2.1230110">
        <ele>441.8</ele>
        <time>2018-04-10T09:05:20Z</time>
      </trkpt>
      <trkpt lat="41.4266150" lon="2.1230000">
        <ele>442.2</ele>
        <time>2018-04-10T09:05:21Z</time>
      </trkpt>
      <trkpt lat="41.4265570" lon="2.1229690">
        <ele>442.6</ele>
        <time>2018-04-10T09:05:23Z</time>
      </trkpt>
      <trkpt lat="41.4265030" lon="2.1229310">
        <ele>442.8</ele>
        <time>2018-04-10T09:05:25Z</time>
      </trkpt>
      <trkpt lat="41.4264510" lon="2.1228890">
        <ele>443.4</ele>
        <time>2018-04-10T09:05:27Z</time>
      </trkpt>
      <trkpt lat="41.4263970" lon="2.1228490">
        <ele>443.8</ele>
        <time>2018-04-10T09:05:29Z</time>
      </trkpt>
      <trkpt lat="41.4263660" lon="2.1228340">
        <ele>444.0</ele>
        <time>2018-04-10T09:05:30Z</time>
      </trkpt>
      <trkpt lat="41.4263370" lon="2.1228160">
        <ele>444.4</ele>
        <time>2018-04-10T09:05:31Z</time>
      </trkpt>
      <trkpt lat="41.4262780" lon="2.1227820">
        <ele>444.8</ele>
        <time>2018-04-10T09:05:33Z</time>
      </trkpt>
      <trkpt lat="41.4262490" lon="2.1227640">
        <ele>445.2</ele>
        <time>2018-04-10T09:05:34Z</time>
      </trkpt>
      <trkpt lat="41.4262200" lon="2.1227460">
        <ele>445.4</ele>
        <time>2018-04-10T09:05:35Z</time>
      </trkpt>
      <trkpt lat="41.4261640" lon="2.1227120">
        <ele>445.8</ele>
        <time>2018-04-10T09:05:37Z</time>
      </trkpt>
      <trkpt lat="41.4261350" lon="2.1226940">
        <ele>446.2</ele>
        <time>2018-04-10T09:05:38Z</time>
      </trkpt>
      <trkpt lat="41.4261060" lon="2.1226740">
        <ele>446.6</ele>
        <time>2018-04-10T09:05:39Z</time>
      </trkpt>
      <trkpt lat="41.4260480" lon="2.1226370">
        <ele>447.4</ele>
        <time>2018-04-10T09:05:41Z</time>
      </trkpt>
      <trkpt lat="41.4259930" lon="2.1225970">
        <ele>448.0</ele>
        <time>2018-04-10T09:05:43Z</time>
      </trkpt>
      <trkpt lat="41.4259370" lon="2.1225560">
        <ele>448.4</ele>
        <time>2018-04-10T09:05:45Z</time>
      </trkpt>
      <trkpt lat="41.4259050" lon="2.1225390">
        <ele>448.6</ele>
        <time>2018-04-10T09:05:46Z</time>
      </trkpt>
      <trkpt lat="41.4258730" lon="2.1225240">
        <ele>448.8</ele>
        <time>2018-04-10T09:05:47Z</time>
      </trkpt>
      <trkpt lat="41.4258090" lon="2.1224940">
        <ele>449.0</ele>
        <time>2018-04-10T09:05:49Z</time>
      </trkpt>
      <trkpt lat="41.4257750" lon="2.1224830">
        <ele>449.6</ele>
        <time>2018-04-10T09:05:50Z</time>
      </trkpt>
      <trkpt lat="41.4257430" lon="2.1224690">
        <ele>450.0</ele>
        <time>2018-04-10T09:05:51Z</time>
      </trkpt>
      <trkpt lat="41.4256720" lon="2.1224500">
        <ele>450.4</ele>
        <time>2018-04-10T09:05:53Z</time>
      </trkpt>
      <trkpt lat="41.4256410" lon="2.1224320">
        <ele>450.8</ele>
        <time>2018-04-10T09:05:54Z</time>
      </trkpt>
      <trkpt lat="41.4256110" lon="2.1224160">
        <ele>451.0</ele>
        <time>2018-04-10T09:05:55Z</time>
      </trkpt>
      <trkpt lat="41.4255520" lon="2.1223770">
        <ele>451.4</ele>
        <time>2018-04-10T09:05:57Z</time>
      </trkpt>
      <trkpt lat="41.4254930" lon="2.1223450">
        <ele>452.0</ele>
        <time>2018-04-10T09:05:59Z</time>
      </trkpt>
      <trkpt lat="41.4254250" lon="2.1223220">
        <ele>452.4</ele>
        <time>2018-04-10T09:06:01Z</time>
      </trkpt>
      <trkpt lat="41.4253650" lon="2.1222840">
        <ele>453.0</ele>
        <time>2018-04-10T09:06:03Z</time>
      </trkpt>
      <trkpt lat="41.4253100" lon="2.1222390">
        <ele>453.4</ele>
        <time>2018-04-10T09:06:05Z</time>
      </trkpt>
      <trkpt lat="41.4252510" lon="2.1221980">
        <ele>453.8</ele>
        <time>2018-04-10T09:06:07Z</time>
      </trkpt>
      <trkpt lat="41.4252190" lon="2.1221800">
        <ele>454.0</ele>
        <time>2018-04-10T09:06:08Z</time>
      </trkpt>
      <trkpt lat="41.4251890" lon="2.1221590">
        <ele>454.4</ele>
        <time>2018-04-10T09:06:09Z</time>
      </trkpt>
      <trkpt lat="41.4251270" lon="2.1221180">
        <ele>455.0</ele>
        <time>2018-04-10T09:06:11Z</time>
      </trkpt>
      <trkpt lat="41.4250950" lon="2.1220970">
        <ele>455.2</ele>
        <time>2018-04-10T09:06:12Z</time>
      </trkpt>
      <trkpt lat="41.4250610" lon="2.1220780">
        <ele>455.4</ele>
        <time>2018-04-10T09:06:13Z</time>
      </trkpt>
      <trkpt lat="41.4249980" lon="2.1220310">
        <ele>455.6</ele>
        <time>2018-04-10T09:06:15Z</time>
      </trkpt>
      <trkpt lat="41.4249430" lon="2.1219820">
        <ele>456.0</ele>
        <time>2018-04-10T09:06:17Z</time>
      </trkpt>
      <trkpt lat="41.4248930" lon="2.1219360">
        <ele>456.6</ele>
        <time>2018-04-10T09:06:19Z</time>
      </trkpt>
      <trkpt lat="41.4248460" lon="2.1218840">
        <ele>457.2</ele>
        <time>2018-04-10T09:06:21Z</time>
      </trkpt>
      <trkpt lat="41.4248060" lon="2.1218140">
        <ele>457.8</ele>
        <time>2018-04-10T09:06:23Z</time>
      </trkpt>
      <trkpt lat="41.4247640" lon="2.1217440">
        <ele>458.2</ele>
        <time>2018-04-10T09:06:25Z</time>
      </trkpt>
      <trkpt lat="41.4247190" lon="2.1216760">
        <ele>458.8</ele>
        <time>2018-04-10T09:06:27Z</time>
      </trkpt>
      <trkpt lat="41.4246970" lon="2.1216390">
        <ele>459.0</ele>
        <time>2018-04-10T09:06:28Z</time>
      </trkpt>
      <trkpt lat="41.4246760" lon="2.1215990">
        <ele>459.2</ele>
        <time>2018-04-10T09:06:29Z</time>
      </trkpt>
      <trkpt lat="41.4246320" lon="2.1215270">
        <ele>459.8</ele>
        <time>2018-04-10T09:06:31Z</time>
      </trkpt>
      <trkpt lat="41.4246110" lon="2.1214880">
        <ele>460.0</ele>
        <time>2018-04-10T09:06:32Z</time>
      </trkpt>
      <trkpt lat="41.4245900" lon="2.1214480">
        <ele>460.2</ele>
        <time>2018-04-10T09:06:33Z</time>
      </trkpt>
      <trkpt lat="41.4245450" lon="2.1213740">
        <ele>460.6</ele>
        <time>2018-04-10T09:06:35Z</time>
      </trkpt>
      <trkpt lat="41.4244960" lon="2.1213020">
        <ele>461.0</ele>
        <time>2018-04-10T09:06:37Z</time>
      </trkpt>
      <trkpt lat="41.4244710" lon="2.1212670">
        <ele>461.2</ele>
        <time>2018-04-10T09:06:38Z</time>
      </trkpt>
      <trkpt lat="41.4244470" lon="2.1212320">
        <ele>461.4</ele>
        <time>2018-04-10T09:06:39Z</time>
      </trkpt>
      <trkpt lat="41.4243980" lon="2.1211670">
        <ele>461.8</ele>
        <time>2018-04-10T09:06:41Z</time>
      </trkpt>
      <trkpt lat="41.4243480" lon="2.1210990">
        <ele>462.4</ele>
        <time>2018-04-10T09:06:43Z</time>
      </trkpt>
      <trkpt lat="41.4242940" lon="2.1210380">
        <ele>462.8</ele>
        <time>2018-04-10T09:06:45Z</time>
      </trkpt>
      <trkpt lat="41.4242380" lon="2.1209820">
        <ele>463.2</ele>
        <time>2018-04-10T09:06:47Z</time>
      </trkpt>
      <trkpt lat="41.4242090" lon="2.1209560">
        <ele>463.4</ele>
        <time>2018-04-10T09:06:48Z</time>
      </trkpt>
      <trkpt lat="41.4241790" lon="2.1209290">
        <ele>463.8</ele>
        <time>2018-04-10T09:06:49Z</time>
      </trkpt>
      <trkpt lat="41.4241120" lon="2.1208850">
        <ele>464.0</ele>
        <time>2018-04-10T09:06:51Z</time>
      </trkpt>
      <trkpt lat="41.4240450" lon="2.1208320">
        <ele>464.4</ele>
        <time>2018-04-10T09:06:53Z</time>
      </trkpt>
      <trkpt lat="41.4240110" lon="2.1208080">
        <ele>464.6</ele>
        <time>2018-04-10T09:06:54Z</time>
      </trkpt>
      <trkpt lat="41.4239760" lon="2.1207860">
        <ele>464.8</ele>
        <time>2018-04-10T09:06:55Z</time>
      </trkpt>
      <trkpt lat="41.4239050" lon="2.1207430">
        <ele>465.2</ele>
        <time>2018-04-10T09:06:57Z</time>
      </trkpt>
      <trkpt lat="41.4238270" lon="2.1207110">
        <ele>465.6</ele>
        <time>2018-04-10T09:06:59Z</time>
      </trkpt>
      <trkpt lat="41.4237880" lon="2.1206980">
        <ele>465.8</ele>
        <time>2018-04-10T09:07:00Z</time>
      </trkpt>
      <trkpt lat="41.4237520" lon="2.1206800">
        <ele>465.8</ele>
        <time>2018-04-10T09:07:01Z</time>
      </trkpt>
      <trkpt lat="41.4236750" lon="2.1206520">
        <ele>466.2</ele>
        <time>2018-04-10T09:07:03Z</time>
      </trkpt>
      <trkpt lat="41.4235940" lon="2.1206370">
        <ele>466.6</ele>
        <time>2018-04-10T09:07:05Z</time>
      </trkpt>
      <trkpt lat="41.4235520" lon="2.1206340">
        <ele>466.8</ele>
        <time>2018-04-10T09:07:06Z</time>
      </trkpt>
      <trkpt lat="41.4235100" lon="2.1206310">
        <ele>467.0</ele>
        <time>2018-04-10T09:07:07Z</time>
      </trkpt>
      <trkpt lat="41.4234310" lon="2.1206210">
        <ele>467.6</ele>
        <time>2018-04-10T09:07:09Z</time>
      </trkpt>
      <trkpt lat="41.4233910" lon="2.1206200">
        <ele>468.0</ele>
        <time>2018-04-10T09:07:10Z</time>
      </trkpt>
      <trkpt lat="41.4233510" lon="2.1206180">
        <ele>468.2</ele>
        <time>2018-04-10T09:07:11Z</time>
      </trkpt>
      <trkpt lat="41.4232710" lon="2.1206130">
        <ele>468.8</ele>
        <time>2018-04-10T09:07:13Z</time>
      </trkpt>
      <trkpt lat="41.4232300" lon="2.1206130">
        <ele>469.0</ele>
        <time>2018-04-10T09:07:14Z</time>
      </trkpt>
      <trkpt lat="41.4231880" lon="2.1206190">
        <ele>469.2</ele>
        <time>2018-04-10T09:07:15Z</time>
      </trkpt>
      <trkpt lat="41.4231460" lon="2.1206290">
        <ele>469.4</ele>
        <time>2018-04-10T09:07:16Z</time>
      </trkpt>
      <trkpt lat="41.4231060" lon="2.1206420">
        <ele>469.6</ele>
        <time>2018-04-10T09:07:17Z</time>
      </trkpt>
      <trkpt lat="41.4230650" lon="2.1206550">
        <ele>470.2</ele>
        <time>2018-04-10T09:07:18Z</time>
      </trkpt>
      <trkpt lat="41.4230250" lon="2.1206700">
        <ele>470.6</ele>
        <time>2018-04-10T09:07:19Z</time>
      </trkpt>
      <trkpt lat="41.4229480" lon="2.1206940">
        <ele>471.0</ele>
        <time>2018-04-10T09:07:21Z</time>
      </trkpt>
      <trkpt lat="41.4229110" lon="2.1207000">
        <ele>471.4</ele>
        <time>2018-04-10T09:07:22Z</time>
      </trkpt>
      <trkpt lat="41.4228720" lon="2.1207050">
        <ele>471.6</ele>
        <time>2018-04-10T09:07:23Z</time>
      </trkpt>
      <trkpt lat="41.4227960" lon="2.1207010">
        <ele>472.0</ele>
        <time>2018-04-10T09:07:25Z</time>
      </trkpt>
      <trkpt lat="41.4227250" lon="2.1206640">
        <ele>472.2</ele>
        <time>2018-04-10T09:07:27Z</time>
      </trkpt>
      <trkpt lat="41.4227030" lon="2.1206280">
        <ele>472.4</ele>
        <time>2018-04-10T09:07:28Z</time>
      </trkpt>
      <trkpt lat="41.4226960" lon="2.1205830">
        <ele>472.6</ele>
        <time>2018-04-10T09:07:29Z</time>
      </trkpt>
      <trkpt lat="41.4227180" lon="2.1204950">
        <ele>473.0</ele>
        <time>2018-04-10T09:07:31Z</time>
      </trkpt>
      <trkpt lat="41.4227770" lon="2.1204390">
        <ele>473.2</ele>
        <time>2018-04-10T09:07:33Z</time>
      </trkpt>
      <trkpt lat="41.4228530" lon="2.1204370">
        <ele>473.6</ele>
        <time>2018-04-10T09:07:35Z</time>
      </trkpt>
      <trkpt lat="41.4228900" lon="2.1204530">
        <ele>473.8</ele>
        <time>2018-04-10T09:07:36Z</time>
      </trkpt>
      <trkpt lat="41.4229270" lon="2.1204720">
        <ele>474.0</ele>
        <time>2018-04-10T09:07:37Z</time>
      </trkpt>
      <trkpt lat="41.4230010" lon="2.1205040">
        <ele>474.4</ele>
        <time>2018-04-10T09:07:39Z</time>
      </trkpt>
      <trkpt lat="41.4230810" lon="2.1205330">
        <ele>474.8</ele>
        <time>2018-04-10T09:07:41Z</time>
      </trkpt>
      <trkpt lat="41.4231590" lon="2.1205450">
        <ele>475.2</ele>
        <time>2018-04-10T09:07:43Z</time>
      </trkpt>
      <trkpt lat="41.4232400" lon="2.1205400">
        <ele>475.6</ele>
        <time>2018-04-10T09:07:45Z</time>
      </trkpt>
      <trkpt lat="41.4233230" lon="2.1205280">
        <ele>476.2</ele>
        <time>2018-04-10T09:07:47Z</time>
      </trkpt>
      <trkpt lat="41.4234080" lon="2.1205120">
        <ele>476.4</ele>
        <time>2018-04-10T09:07:49Z</time>
      </trkpt>
      <trkpt lat="41.4234900" lon="2.1204980">
        <ele>476.8</ele>
        <time>2018-04-10T09:07:51Z</time>
      </trkpt>
      <trkpt lat="41.4235690" lon="2.1204870">
        <ele>477.2</ele>
        <time>2018-04-10T09:07:53Z</time>
      </trkpt>
      <trkpt lat="41.4236070" lon="2.1204790">
        <ele>477.2</ele>
        <time>2018-04-10T09:07:54Z</time>
      </trkpt>
      <trkpt lat="41.4236450" lon="2.1204720">
        <ele>477.4</ele>
        <time>2018-04-10T09:07:55Z</time>
      </trkpt>
      <trkpt lat="41.4237230" lon="2.1204640">
        <ele>478.0</ele>
        <time>2018-04-10T09:07:57Z</time>
      </trkpt>
      <trkpt lat="41.4237990" lon="2.1204610">
        <ele>478.4</ele>
        <time>2018-04-10T09:07:59Z</time>
      </trkpt>
      <trkpt lat="41.4238770" lon="2.1204630">
        <ele>479.0</ele>
        <time>2018-04-10T09:08:01Z</time>
      </trkpt>
      <trkpt lat="41.4239550" lon="2.1204730">
        <ele>479.4</ele>
        <time>2018-04-10T09:08:03Z</time>
      </trkpt>
      <trkpt lat="41.4239950" lon="2.1204810">
        <ele>479.6</ele>
        <time>2018-04-10T09:08:04Z</time>
      </trkpt>
      <trkpt lat="41.4240340" lon="2.1204940">
        <ele>479.8</ele>
        <time>2018-04-10T09:08:05Z</time>
      </trkpt>
      <trkpt lat="41.4241120" lon="2.1205250">
        <ele>480.2</ele>
        <time>2018-04-10T09:08:07Z</time>
      </trkpt>
      <trkpt lat="41.4241840" lon="2.1205590">
        <ele>480.8</ele>
        <time>2018-04-10T09:08:09Z</time>
      </trkpt>
      <trkpt lat="41.4242510" lon="2.1206000">
        <ele>481.0</ele>
        <time>2018-04-10T09:08:11Z</time>
      </trkpt>
      <trkpt lat="41.4243170" lon="2.1206480">
        <ele>481.2</ele>
        <time>2018-04-10T09:08:13Z</time>
      </trkpt>
      <trkpt lat="41.4243830" lon="2.1206920">
        <ele>481.6</ele>
        <time>2018-04-10T09:08:15Z</time>
      </trkpt>
      <trkpt lat="41.4244170" lon="2.1207110">
        <ele>481.8</ele>
        <time>2018-04-10T09:08:16Z</time>
      </trkpt>
      <trkpt lat="41.4244510" lon="2.1207310">
        <ele>482.4</ele>
        <time>2018-04-10T09:08:17Z</time>
      </trkpt>
      <trkpt lat="41.4245140" lon="2.1207780">
        <ele>482.8</ele>
        <time>2018-04-10T09:08:19Z</time>
      </trkpt>
      <trkpt lat="41.4245470" lon="2.1208020">
        <ele>483.0</ele>
        <time>2018-04-10T09:08:20Z</time>
      </trkpt>
      <trkpt lat="41.4245800" lon="2.1208240">
        <ele>483.2</ele>
        <time>2018-04-10T09:08:21Z</time>
      </trkpt>
      <trkpt lat="41.4246480" lon="2.1208640">
        <ele>483.4</ele>
        <time>2018-04-10T09:08:23Z</time>
      </trkpt>
      <trkpt lat="41.4247160" lon="2.1209070">
        <ele>483.8</ele>
        <time>2018-04-10T09:08:25Z</time>
      </trkpt>
      <trkpt lat="41.4247480" lon="2.1209290">
        <ele>484.0</ele>
        <time>2018-04-10T09:08:26Z</time>
      </trkpt>
      <trkpt lat="41.4247800" lon="2.1209520">
        <ele>484.4</ele>
        <time>2018-04-10T09:08:27Z</time>
      </trkpt>
      <trkpt lat="41.4248490" lon="2.1209950">
        <ele>484.8</ele>
        <time>2018-04-10T09:08:29Z</time>
      </trkpt>
      <trkpt lat="41.4249180" lon="2.1210360">
        <ele>485.2</ele>
        <time>2018-04-10T09:08:31Z</time>
      </trkpt>
      <trkpt lat="41.4249840" lon="2.1210800">
        <ele>485.6</ele>
        <time>2018-04-10T09:08:33Z</time>
      </trkpt>
      <trkpt lat="41.4250540" lon="2.1211240">
        <ele>486.0</ele>
        <time>2018-04-10T09:08:35Z</time>
      </trkpt>
      <trkpt lat="41.4250890" lon="2.1211450">
        <ele>486.2</ele>
        <time>2018-04-10T09:08:36Z</time>
      </trkpt>
      <trkpt lat="41.4251250" lon="2.1211670">
        <ele>486.4</ele>
        <time>2018-04-10T09:08:37Z</time>
      </trkpt>
      <trkpt lat="41.4252000" lon="2.1212190">
        <ele>486.8</ele>
        <time>2018-04-10T09:08:39Z</time>
      </trkpt>
      <trkpt lat="41.4252710" lon="2.1212640">
        <ele>487.2</ele>
        <time>2018-04-10T09:08:41Z</time>
      </trkpt>
      <trkpt lat="41.4253070" lon="2.1212830">
        <ele>487.6</ele>
        <time>2018-04-10T09:08:42Z</time>
      </trkpt>
      <trkpt lat="41.4253440" lon="2.1212990">
        <ele>487.8</ele>
        <time>2018-04-10T09:08:43Z</time>
      </trkpt>
      <trkpt lat="41.4254180" lon="2.1213310">
        <ele>488.2</ele>
        <time>2018-04-10T09:08:45Z</time>
      </trkpt>
      <trkpt lat="41.4254560" lon="2.1213450">
        <ele>488.6</ele>
        <time>2018-04-10T09:08:46Z</time>
      </trkpt>
      <trkpt lat="41.4254960" lon="2.1213560">
        <ele>488.8</ele>
        <time>2018-04-10T09:08:47Z</time>
      </trkpt>
      <trkpt lat="41.4255740" lon="2.1213700">
        <ele>489.2</ele>
        <time>2018-04-10T09:08:49Z</time>
      </trkpt>
      <trkpt lat="41.4256120" lon="2.1213700">
        <ele>489.6</ele>
        <time>2018-04-10T09:08:50Z</time>
      </trkpt>
      <trkpt lat="41.4256470" lon="2.1213660">
        <ele>489.8</ele>
        <time>2018-04-10T09:08:51Z</time>
      </trkpt>
      <trkpt lat="41.4257080" lon="2.1213330">
        <ele>490.2</ele>
        <time>2018-04-10T09:08:53Z</time>
      </trkpt>
      <trkpt lat="41.4257690" lon="2.1212790">
        <ele>490.8</ele>
        <time>2018-04-10T09:08:55Z</time>
      </trkpt>
      <trkpt lat="41.4258150" lon="2.1212090">
        <ele>491.2</ele>
        <time>2018-04-10T09:08:57Z</time>
      </trkpt>
      <trkpt lat="41.4258550" lon="2.1211270">
        <ele>491.6</ele>
        <time>2018-04-10T09:08:59Z</time>
      </trkpt>
      <trkpt lat="41.4258690" lon="2.1210820">
        <ele>491.8</ele>
        <time>2018-04-10T09:09:00Z</time>
      </trkpt>
      <trkpt lat="41.4258780" lon="2.1210340">
        <ele>492.0</ele>
        <time>2018-04-10T09:09:01Z</time>
      </trkpt>
      <trkpt lat="41.4258960" lon="2.1209350">
        <ele>492.4</ele>
        <time>2018-04-10T09:09:03Z</time>
      </trkpt>
      <trkpt lat="41.4258980" lon="2.1208320">
        <ele>493.2</ele>
        <time>2018-04-10T09:09:05Z</time>
      </trkpt>
      <trkpt lat="41.4258800" lon="2.1207300">
        <ele>493.6</ele>
        <time>2018-04-10T09:09:07Z</time>
      </trkpt>
      <trkpt lat="41.4258640" lon="2.1206330">
        <ele>494.0</ele>
        <time>2018-04-10T09:09:09Z</time>
      </trkpt>
      <trkpt lat="41.4258580" lon="2.1205870">
        <ele>494.2</ele>
        <time>2018-04-10T09:09:10Z</time>
      </trkpt>
      <trkpt lat="41.4258520" lon="2.1205400">
        <ele>494.4</ele>
        <time>2018-04-10T09:09:11Z</time>
      </trkpt>
      <trkpt lat="41.4258430" lon="2.1204420">
        <ele>494.8</ele>
        <time>2018-04-10T09:09:13Z</time>
      </trkpt>
      <trkpt lat="41.4258270" lon="2.1203440">
        <ele>495.4</ele>
        <time>2018-04-10T09:09:15Z</time>
      </trkpt>
      <trkpt lat="41.4258110" lon="2.1202420">
        <ele>495.8</ele>
        <time>2018-04-10T09:09:17Z</time>
      </trkpt>
      <trkpt lat="41.4257950" lon="2.1201370">
        <ele>496.0</ele>
        <time>2018-04-10T09:09:19Z</time>
      </trkpt>
      <trkpt lat="41.4257790" lon="2.1200350">
        <ele>496.4</ele>
        <time>2018-04-10T09:09:21Z</time>
      </trkpt>
      <trkpt lat="41.4257710" lon="2.1199860">
        <ele>496.6</ele>
        <time>2018-04-10T09:09:22Z</time>
      </trkpt>
      <trkpt lat="41.4257640" lon="2.1199380">
        <ele>497.0</ele>
        <time>2018-04-10T09:09:23Z</time>
      </trkpt>
      <trkpt lat="41.4257470" lon="2.1198520">
        <ele>497.4</ele>
        <time>2018-04-10T09:09:25Z</time>
      </trkpt>
      <trkpt lat="41.4257220" lon="2.1197690">
        <ele>497.8</ele>
        <time>2018-04-10T09:09:27Z</time>
      </trkpt>
      <trkpt lat="41.4256750" lon="2.1197070">
        <ele>498.2</ele>
        <time>2018-04-10T09:09:29Z</time>
      </trkpt>
      <trkpt lat="41.4256150" lon="2.1196650">
        <ele>498.6</ele>
        <time>2018-04-10T09:09:31Z</time>
      </trkpt>
      <trkpt lat="41.4255840" lon="2.1196450">
        <ele>498.8</ele>
        <time>2018-04-10T09:09:32Z</time>
      </trkpt>
      <trkpt lat="41.4255510" lon="2.1196260">
        <ele>499.2</ele>
        <time>2018-04-10T09:09:33Z</time>
      </trkpt>
      <trkpt lat="41.4254820" lon="2.1195960">
        <ele>499.8</ele>
        <time>2018-04-10T09:09:35Z</time>
      </trkpt>
      <trkpt lat="41.4254500" lon="2.1195850">
        <ele>500.2</ele>
        <time>2018-04-10T09:09:36Z</time>
      </trkpt>
      <trkpt lat="41.4254170" lon="2.1195750">
        <ele>500.4</ele>
        <time>2018-04-10T09:09:37Z</time>
      </trkpt>
      <trkpt lat="41.4253460" lon="2.1195530">
        <ele>500.8</ele>
        <time>2018-04-10T09:09:39Z</time>
      </trkpt>
      <trkpt lat="41.4252750" lon="2.1195300">
        <ele>501.4</ele>
        <time>2018-04-10T09:09:41Z</time>
      </trkpt>
      <trkpt lat="41.4252060" lon="2.1195110">
        <ele>501.8</ele>
        <time>2018-04-10T09:09:43Z</time>
      </trkpt>
      <trkpt lat="41.4251340" lon="2.1194860">
        <ele>502.6</ele>
        <time>2018-04-10T09:09:45Z</time>
      </trkpt>
      <trkpt lat="41.4250610" lon="2.1194640">
        <ele>503.0</ele>
        <time>2018-04-10T09:09:47Z</time>
      </trkpt>
      <trkpt lat="41.4249880" lon="2.1194420">
        <ele>503.6</ele>
        <time>2018-04-10T09:09:49Z</time>
      </trkpt>
      <trkpt lat="41.4249520" lon="2.1194330">
        <ele>503.8</ele>
        <time>2018-04-10T09:09:50Z</time>
      </trkpt>
      <trkpt lat="41.4249150" lon="2.1194210">
        <ele>504.2</ele>
        <time>2018-04-10T09:09:51Z</time>
      </trkpt>
      <trkpt lat="41.4248480" lon="2.1193950">
        <ele>504.6</ele>
        <time>2018-04-10T09:09:53Z</time>
      </trkpt>
      <trkpt lat="41.4247760" lon="2.1193770">
        <ele>505.0</ele>
        <time>2018-04-10T09:09:55Z</time>
      </trkpt>
      <trkpt lat="41.4247070" lon="2.1193640">
        <ele>505.6</ele>
        <time>2018-04-10T09:09:57Z</time>
      </trkpt>
      <trkpt lat="41.4246360" lon="2.1193520">
        <ele>506.0</ele>
        <time>2018-04-10T09:09:59Z</time>
      </trkpt>
      <trkpt lat="41.4245720" lon="2.1193360">
        <ele>506.4</ele>
        <time>2018-04-10T09:10:01Z</time>
      </trkpt>
      <trkpt lat="41.4245110" lon="2.1193280">
        <ele>506.8</ele>
        <time>2018-04-10T09:10:03Z</time>
      </trkpt>
      <trkpt lat="41.4244470" lon="2.1193170">
        <ele>507.2</ele>
        <time>2018-04-10T09:10:05Z</time>
      </trkpt>
      <trkpt lat="41.4243830" lon="2.1193080">
        <ele>507.8</ele>
        <time>2018-04-10T09:10:07Z</time>
      </trkpt>
      <trkpt lat="41.4243180" lon="2.1192850">
        <ele>508.2</ele>
        <time>2018-04-10T09:10:09Z</time>
      </trkpt>
      <trkpt lat="41.4242840" lon="2.1192760">
        <ele>508.4</ele>
        <time>2018-04-10T09:10:10Z</time>
      </trkpt>
      <trkpt lat="41.4242500" lon="2.1192630">
        <ele>508.6</ele>
        <time>2018-04-10T09:10:11Z</time>
      </trkpt>
      <trkpt lat="41.4241810" lon="2.1192340">
        <ele>509.2</ele>
        <time>2018-04-10T09:10:13Z</time>
      </trkpt>
      <trkpt lat="41.4241470" lon="2.1192200">
        <ele>510.0</ele>
        <time>2018-04-10T09:10:14Z</time>
      </trkpt>
      <trkpt lat="41.4241080" lon="2.1192170">
        <ele>510.2</ele>
        <time>2018-04-10T09:10:15Z</time>
      </trkpt>
      <trkpt lat="41.4240330" lon="2.1192040">
        <ele>510.6</ele>
        <time>2018-04-10T09:10:17Z</time>
      </trkpt>
      <trkpt lat="41.4239560" lon="2.1191890">
        <ele>511.2</ele>
        <time>2018-04-10T09:10:19Z</time>
      </trkpt>
      <trkpt lat="41.4238700" lon="2.1191950">
        <ele>511.6</ele>
        <time>2018-04-10T09:10:21Z</time>
      </trkpt>
      <trkpt lat="41.4237840" lon="2.1191860">
        <ele>512.0</ele>
        <time>2018-04-10T09:10:23Z</time>
      </trkpt>
      <trkpt lat="41.4237420" lon="2.1191780">
        <ele>512.2</ele>
        <time>2018-04-10T09:10:24Z</time>
      </trkpt>
      <trkpt lat="41.4236990" lon="2.1191720">
        <ele>512.4</ele>
        <time>2018-04-10T09:10:25Z</time>
      </trkpt>
      <trkpt lat="41.4236180" lon="2.1191530">
        <ele>512.8</ele>
        <time>2018-04-10T09:10:27Z</time>
      </trkpt>
      <trkpt lat="41.4235340" lon="2.1191240">
        <ele>513.2</ele>
        <time>2018-04-10T09:10:29Z</time>
      </trkpt>
      <trkpt lat="41.4234930" lon="2.1191090">
        <ele>513.4</ele>
        <time>2018-04-10T09:10:30Z</time>
      </trkpt>
      <trkpt lat="41.4234510" lon="2.1190920">
        <ele>513.6</ele>
        <time>2018-04-10T09:10:31Z</time>
      </trkpt>
      <trkpt lat="41.4233690" lon="2.1190600">
        <ele>514.0</ele>
        <time>2018-04-10T09:10:33Z</time>
      </trkpt>
      <trkpt lat="41.4232880" lon="2.1190240">
        <ele>514.2</ele>
        <time>2018-04-10T09:10:35Z</time>
      </trkpt>
      <trkpt lat="41.4232070" lon="2.1189860">
        <ele>514.6</ele>
        <time>2018-04-10T09:10:37Z</time>
      </trkpt>
      <trkpt lat="41.4231260" lon="2.1189420">
        <ele>515.0</ele>
        <time>2018-04-10T09:10:39Z</time>
      </trkpt>
      <trkpt lat="41.4230510" lon="2.1188920">
        <ele>515.6</ele>
        <time>2018-04-10T09:10:41Z</time>
      </trkpt>
      <trkpt lat="41.4229720" lon="2.1188460">
        <ele>515.8</ele>
        <time>2018-04-10T09:10:43Z</time>
      </trkpt>
      <trkpt lat="41.4228890" lon="2.1187980">
        <ele>516.4</ele>
        <time>2018-04-10T09:10:45Z</time>
      </trkpt>
      <trkpt lat="41.4228050" lon="2.1187430">
        <ele>516.8</ele>
        <time>2018-04-10T09:10:47Z</time>
      </trkpt>
      <trkpt lat="41.4227640" lon="2.1187100">
        <ele>516.8</ele>
        <time>2018-04-10T09:10:48Z</time>
      </trkpt>
      <trkpt lat="41.4227250" lon="2.1186730">
        <ele>517.0</ele>
        <time>2018-04-10T09:10:49Z</time>
      </trkpt>
      <trkpt lat="41.4226440" lon="2.1185900">
        <ele>517.0</ele>
        <time>2018-04-10T09:10:51Z</time>
      </trkpt>
      <trkpt lat="41.4225580" lon="2.1184960">
        <ele>517.0</ele>
        <time>2018-04-10T09:10:53Z</time>
      </trkpt>
      <trkpt lat="41.4225130" lon="2.1184470">
        <ele>517.0</ele>
        <time>2018-04-10T09:10:54Z</time>
      </trkpt>
      <trkpt lat="41.4224660" lon="2.1184020">
        <ele>517.0</ele>
        <time>2018-04-10T09:10:55Z</time>
      </trkpt>
      <trkpt lat="41.4224120" lon="2.1183600">
        <ele>517.0</ele>
        <time>2018-04-10T09:10:56Z</time>
      </trkpt>
      <trkpt lat="41.4223550" lon="2.1183260">
        <ele>517.0</ele>
        <time>2018-04-10T09:10:57Z</time>
      </trkpt>
      <trkpt lat="41.4222280" lon="2.1183000">
        <ele>517.0</ele>
        <time>2018-04-10T09:10:59Z</time>
      </trkpt>
      <trkpt lat="41.4220940" lon="2.1183290">
        <ele>516.4</ele>
        <time>2018-04-10T09:11:01Z</time>
      </trkpt>
      <trkpt lat="41.4219680" lon="2.1184290">
        <ele>515.6</ele>
        <time>2018-04-10T09:11:03Z</time>
      </trkpt>
      <trkpt lat="41.4218610" lon="2.1185870">
        <ele>515.2</ele>
        <time>2018-04-10T09:11:05Z</time>
      </trkpt>
      <trkpt lat="41.4218120" lon="2.1186760">
        <ele>515.0</ele>
        <time>2018-04-10T09:11:06Z</time>
      </trkpt>
      <trkpt lat="41.4217630" lon="2.1187640">
        <ele>514.6</ele>
        <time>2018-04-10T09:11:07Z</time>
      </trkpt>
      <trkpt lat="41.4216840" lon="2.1189330">
        <ele>514.0</ele>
        <time>2018-04-10T09:11:09Z</time>
      </trkpt>
      <trkpt lat="41.4216160" lon="2.1190520">
        <ele>513.6</ele>
        <time>2018-04-10T09:11:11Z</time>
      </trkpt>
      <trkpt lat="41.4215580" lon="2.1191320">
        <ele>512.4</ele>
        <time>2018-04-10T09:11:13Z</time>
      </trkpt>
      <trkpt lat="41.4215070" lon="2.1191980">
        <ele>511.8</ele>
        <time>2018-04-10T09:11:15Z</time>
      </trkpt>
      <trkpt lat="41.4214690" lon="2.1192450">
        <ele>511.4</ele>
        <time>2018-04-10T09:11:17Z</time>
      </trkpt>
      <trkpt lat="41.4214480" lon="2.1192720">
        <ele>511.4</ele>
        <time>2018-04-10T09:11:19Z</time>
      </trkpt>
      <trkpt lat="41.4214470" lon="2.1192910">
        <ele>511.2</ele>
        <time>2018-04-10T09:11:21Z</time>
      </trkpt>
      <trkpt lat="41.4214440" lon="2.1193180">
        <ele>511.2</ele>
        <time>2018-04-10T09:11:23Z</time>
      </trkpt>
      <trkpt lat="41.4214380" lon="2.1193420">
        <ele>511.2</ele>
        <time>2018-04-10T09:11:25Z</time>
      </trkpt>
      <trkpt lat="41.4214320" lon="2.1193570">
        <ele>511.2</ele>
        <time>2018-04-10T09:11:27Z</time>
      </trkpt>
      <trkpt lat="41.4214190" lon="2.1193680">
        <ele>511.2</ele>
        <time>2018-04-10T09:11:29Z</time>
      </trkpt>
      <trkpt lat="41.4214020" lon="2.1194080">
        <ele>511.2</ele>
        <time>2018-04-10T09:11:31Z</time>
      </trkpt>
      <trkpt lat="41.4213840" lon="2.1194270">
        <ele>511.2</ele>
        <time>2018-04-10T09:11:32Z</time>
      </trkpt>
      <trkpt lat="41.4213600" lon="2.1194500">
        <ele>511.0</ele>
        <time>2018-04-10T09:11:33Z</time>
      </trkpt>
      <trkpt lat="41.4213120" lon="2.1194750">
        <ele>511.0</ele>
        <time>2018-04-10T09:11:35Z</time>
      </trkpt>
      <trkpt lat="41.4212900" lon="2.1194630">
        <ele>511.0</ele>
        <time>2018-04-10T09:11:37Z</time>
      </trkpt>
      <trkpt lat="41.4213070" lon="2.1194570">
        <ele>511.0</ele>
        <time>2018-04-10T09:11:39Z</time>
      </trkpt>
      <trkpt lat="41.4213320" lon="2.1194690">
        <ele>511.0</ele>
        <time>2018-04-10T09:11:41Z</time>
      </trkpt>
      <trkpt lat="41.4213420" lon="2.1194680">
        <ele>511.0</ele>
        <time>2018-04-10T09:11:42Z</time>
      </trkpt>
      <trkpt lat="41.4213490" lon="2.1194630">
        <ele>511.0</ele>
        <time>2018-04-10T09:11:43Z</time>
      </trkpt>
      <trkpt lat="41.4213520" lon="2.1194630">
        <ele>511.0</ele>
        <time>2018-04-10T09:11:45Z</time>
      </trkpt>
      <trkpt lat="41.4213550" lon="2.1194590">
        <ele>511.0</ele>
        <time>2018-04-10T09:11:47Z</time>
      </trkpt>
      <trkpt lat="41.4213560" lon="2.1194540">
        <ele>511.0</ele>
        <time>2018-04-10T09:11:49Z</time>
      </trkpt>
      <trkpt lat="41.4213580" lon="2.1194460">
        <ele>511.2</ele>
        <time>2018-04-10T09:11:51Z</time>
      </trkpt>
      <trkpt lat="41.4213670" lon="2.1194370">
        <ele>511.2</ele>
        <time>2018-04-10T09:11:53Z</time>
      </trkpt>
      <trkpt lat="41.4213730" lon="2.1194070">
        <ele>511.2</ele>
        <time>2018-04-10T09:11:55Z</time>
      </trkpt>
      <trkpt lat="41.4213940" lon="2.1193860">
        <ele>511.0</ele>
        <time>2018-04-10T09:11:57Z</time>
      </trkpt>
      <trkpt lat="41.4214240" lon="2.1193720">
        <ele>511.0</ele>
        <time>2018-04-10T09:11:59Z</time>
      </trkpt>
      <trkpt lat="41.4214390" lon="2.1193670">
        <ele>511.0</ele>
        <time>2018-04-10T09:12:00Z</time>
      </trkpt>
      <trkpt lat="41.4214490" lon="2.1193350">
        <ele>511.0</ele>
        <time>2018-04-10T09:12:01Z</time>
      </trkpt>
      <trkpt lat="41.4214390" lon="2.1192440">
        <ele>511.0</ele>
        <time>2018-04-10T09:12:03Z</time>
      </trkpt>
      <trkpt lat="41.4214300" lon="2.1191690">
        <ele>511.2</ele>
        <time>2018-04-10T09:12:05Z</time>
      </trkpt>
      <trkpt lat="41.4214330" lon="2.1191050">
        <ele>511.2</ele>
        <time>2018-04-10T09:12:07Z</time>
      </trkpt>
      <trkpt lat="41.4214330" lon="2.1190600">
        <ele>511.2</ele>
        <time>2018-04-10T09:12:09Z</time>
      </trkpt>
      <trkpt lat="41.4214320" lon="2.1190400">
        <ele>511.2</ele>
        <time>2018-04-10T09:12:11Z</time>
      </trkpt>
      <trkpt lat="41.4214370" lon="2.1190270">
        <ele>511.4</ele>
        <time>2018-04-10T09:12:13Z</time>
      </trkpt>
      <trkpt lat="41.4214380" lon="2.1190170">
        <ele>511.4</ele>
        <time>2018-04-10T09:12:15Z</time>
      </trkpt>
      <trkpt lat="41.4214470" lon="2.1190150">
        <ele>511.8</ele>
        <time>2018-04-10T09:12:17Z</time>
      </trkpt>
      <trkpt lat="41.4214570" lon="2.1190080">
        <ele>511.8</ele>
        <time>2018-04-10T09:12:19Z</time>
      </trkpt>
      <trkpt lat="41.4214690" lon="2.1189980">
        <ele>511.8</ele>
        <time>2018-04-10T09:12:21Z</time>
      </trkpt>
      <trkpt lat="41.4214770" lon="2.1189930">
        <ele>511.8</ele>
        <time>2018-04-10T09:12:23Z</time>
      </trkpt>
      <trkpt lat="41.4214850" lon="2.1189900">
        <ele>511.8</ele>
        <time>2018-04-10T09:12:25Z</time>
      </trkpt>
      <trkpt lat="41.4214880" lon="2.1189860">
        <ele>511.8</ele>
        <time>2018-04-10T09:12:27Z</time>
      </trkpt>
      <trkpt lat="41.4214930" lon="2.1189790">
        <ele>511.8</ele>
        <time>2018-04-10T09:12:29Z</time>
      </trkpt>
      <trkpt lat="41.4214950" lon="2.1189740">
        <ele>511.8</ele>
        <time>2018-04-10T09:12:31Z</time>
      </trkpt>
      <trkpt lat="41.4215030" lon="2.1189700">
        <ele>511.8</ele>
        <time>2018-04-10T09:12:33Z</time>
      </trkpt>
      <trkpt lat="41.4215100" lon="2.1189700">
        <ele>511.8</ele>
        <time>2018-04-10T09:12:35Z</time>
      </trkpt>
      <trkpt lat="41.4215160" lon="2.1189690">
        <ele>511.8</ele>
        <time>2018-04-10T09:12:37Z</time>
      </trkpt>
      <trkpt lat="41.4215320" lon="2.1189720">
        <ele>511.8</ele>
        <time>2018-04-10T09:12:39Z</time>
      </trkpt>
      <trkpt lat="41.4215480" lon="2.1189770">
        <ele>511.8</ele>
        <time>2018-04-10T09:12:41Z</time>
      </trkpt>
      <trkpt lat="41.4215390" lon="2.1189660">
        <ele>511.6</ele>
        <time>2018-04-10T09:12:43Z</time>
      </trkpt>
      <trkpt lat="41.4215520" lon="2.1189690">
        <ele>511.4</ele>
        <time>2018-04-10T09:12:45Z</time>
      </trkpt>
      <trkpt lat="41.4215570" lon="2.1189700">
        <ele>511.4</ele>
        <time>2018-04-10T09:12:47Z</time>
      </trkpt>
      <trkpt lat="41.4215570" lon="2.1189700">
        <ele>511.4</ele>
        <time>2018-04-10T09:12:49Z</time>
      </trkpt>
      <trkpt lat="41.4215580" lon="2.1189700">
        <ele>511.4</ele>
        <time>2018-04-10T09:12:51Z</time>
      </trkpt>
      <trkpt lat="41.4215570" lon="2.1189700">
        <ele>511.4</ele>
        <time>2018-04-10T09:12:53Z</time>
      </trkpt>
      <trkpt lat="41.4215570" lon="2.1189700">
        <ele>511.6</ele>
        <time>2018-04-10T09:12:55Z</time>
      </trkpt>
      <trkpt lat="41.4215570" lon="2.1189700">
        <ele>511.6</ele>
        <time>2018-04-10T09:12:57Z</time>
      </trkpt>
      <trkpt lat="41.4215570" lon="2.1189710">
        <ele>511.6</ele>
        <time>2018-04-10T09:12:59Z</time>
      </trkpt>
      <trkpt lat="41.4215570" lon="2.1189710">
        <ele>511.6</ele>
        <time>2018-04-10T09:13:01Z</time>
      </trkpt>
      <trkpt lat="41.4215570" lon="2.1189710">
        <ele>511.6</ele>
        <time>2018-04-10T09:13:03Z</time>
      </trkpt>
      <trkpt lat="41.4215570" lon="2.1189710">
        <ele>511.6</ele>
        <time>2018-04-10T09:13:05Z</time>
      </trkpt>
      <trkpt lat="41.4215580" lon="2.1189710">
        <ele>511.6</ele>
        <time>2018-04-10T09:13:07Z</time>
      </trkpt>
      <trkpt lat="41.4215600" lon="2.1189680">
        <ele>511.6</ele>
        <time>2018-04-10T09:13:09Z</time>
      </trkpt>
      <trkpt lat="41.4215610" lon="2.1189660">
        <ele>511.6</ele>
        <time>2018-04-10T09:13:11Z</time>
      </trkpt>
      <trkpt lat="41.4215610" lon="2.1189620">
        <ele>511.6</ele>
        <time>2018-04-10T09:13:13Z</time>
      </trkpt>
      <trkpt lat="41.4215620" lon="2.1189640">
        <ele>511.6</ele>
        <time>2018-04-10T09:13:15Z</time>
      </trkpt>
      <trkpt lat="41.4215620" lon="2.1189620">
        <ele>511.6</ele>
        <time>2018-04-10T09:13:17Z</time>
      </trkpt>
      <trkpt lat="41.4215610" lon="2.1189610">
        <ele>511.6</ele>
        <time>2018-04-10T09:13:19Z</time>
      </trkpt>
      <trkpt lat="41.4215610" lon="2.1189600">
        <ele>511.6</ele>
        <time>2018-04-10T09:13:21Z</time>
      </trkpt>
      <trkpt lat="41.4215700" lon="2.1189510">
        <ele>511.6</ele>
        <time>2018-04-10T09:13:23Z</time>
      </trkpt>
      <trkpt lat="41.4215780" lon="2.1189430">
        <ele>511.6</ele>
        <time>2018-04-10T09:13:24Z</time>
      </trkpt>
      <trkpt lat="41.4215850" lon="2.1189330">
        <ele>511.6</ele>
        <time>2018-04-10T09:13:25Z</time>
      </trkpt>
      <trkpt lat="41.4215970" lon="2.1189080">
        <ele>511.6</ele>
        <time>2018-04-10T09:13:27Z</time>
      </trkpt>
      <trkpt lat="41.4216290" lon="2.1188930">
        <ele>511.6</ele>
        <time>2018-04-10T09:13:29Z</time>
      </trkpt>
      <trkpt lat="41.4216830" lon="2.1188820">
        <ele>511.6</ele>
        <time>2018-04-10T09:13:31Z</time>
      </trkpt>
      <trkpt lat="41.4217300" lon="2.1188380">
        <ele>511.6</ele>
        <time>2018-04-10T09:13:33Z</time>
      </trkpt>
      <trkpt lat="41.4217740" lon="2.1187680">
        <ele>511.8</ele>
        <time>2018-04-10T09:13:35Z</time>
      </trkpt>
      <trkpt lat="41.4218200" lon="2.1186860">
        <ele>511.8</ele>
        <time>2018-04-10T09:13:37Z</time>
      </trkpt>
      <trkpt lat="41.4218650" lon="2.1186020">
        <ele>511.8</ele>
        <time>2018-04-10T09:13:39Z</time>
      </trkpt>
      <trkpt lat="41.4219070" lon="2.1185300">
        <ele>511.8</ele>
        <time>2018-04-10T09:13:41Z</time>
      </trkpt>
      <trkpt lat="41.4219540" lon="2.1184630">
        <ele>511.8</ele>
        <time>2018-04-10T09:13:43Z</time>
      </trkpt>
      <trkpt lat="41.4220080" lon="2.1184050">
        <ele>511.8</ele>
        <time>2018-04-10T09:13:45Z</time>
      </trkpt>
      <trkpt lat="41.4220650" lon="2.1183610">
        <ele>512.0</ele>
        <time>2018-04-10T09:13:47Z</time>
      </trkpt>
      <trkpt lat="41.4221310" lon="2.1183290">
        <ele>512.4</ele>
        <time>2018-04-10T09:13:49Z</time>
      </trkpt>
      <trkpt lat="41.4222070" lon="2.1183180">
        <ele>512.8</ele>
        <time>2018-04-10T09:13:51Z</time>
      </trkpt>
      <trkpt lat="41.4222780" lon="2.1183130">
        <ele>513.2</ele>
        <time>2018-04-10T09:13:53Z</time>
      </trkpt>
      <trkpt lat="41.4223110" lon="2.1183180">
        <ele>513.4</ele>
        <time>2018-04-10T09:13:54Z</time>
      </trkpt>
      <trkpt lat="41.4223430" lon="2.1183310">
        <ele>513.4</ele>
        <time>2018-04-10T09:13:55Z</time>
      </trkpt>
      <trkpt lat="41.4224060" lon="2.1183660">
        <ele>513.8</ele>
        <time>2018-04-10T09:13:57Z</time>
      </trkpt>
      <trkpt lat="41.4224620" lon="2.1184250">
        <ele>514.2</ele>
        <time>2018-04-10T09:13:59Z</time>
      </trkpt>
      <trkpt lat="41.4224900" lon="2.1184580">
        <ele>514.4</ele>
        <time>2018-04-10T09:14:00Z</time>
      </trkpt>
      <trkpt lat="41.4225200" lon="2.1184910">
        <ele>514.6</ele>
        <time>2018-04-10T09:14:01Z</time>
      </trkpt>
      <trkpt lat="41.4225890" lon="2.1185560">
        <ele>515.0</ele>
        <time>2018-04-10T09:14:03Z</time>
      </trkpt>
      <trkpt lat="41.4226550" lon="2.1186200">
        <ele>515.4</ele>
        <time>2018-04-10T09:14:05Z</time>
      </trkpt>
      <trkpt lat="41.4226890" lon="2.1186500">
        <ele>515.8</ele>
        <time>2018-04-10T09:14:06Z</time>
      </trkpt>
      <trkpt lat="41.4227230" lon="2.1186780">
        <ele>516.0</ele>
        <time>2018-04-10T09:14:07Z</time>
      </trkpt>
      <trkpt lat="41.4227850" lon="2.1187340">
        <ele>516.6</ele>
        <time>2018-04-10T09:14:09Z</time>
      </trkpt>
      <trkpt lat="41.4228170" lon="2.1187620">
        <ele>516.8</ele>
        <time>2018-04-10T09:14:10Z</time>
      </trkpt>
      <trkpt lat="41.4228490" lon="2.1187890">
        <ele>517.0</ele>
        <time>2018-04-10T09:14:11Z</time>
      </trkpt>
      <trkpt lat="41.4229220" lon="2.1188390">
        <ele>517.2</ele>
        <time>2018-04-10T09:14:13Z</time>
      </trkpt>
      <trkpt lat="41.4230010" lon="2.1188910">
        <ele>517.4</ele>
        <time>2018-04-10T09:14:15Z</time>
      </trkpt>
      <trkpt lat="41.4230880" lon="2.1189400">
        <ele>517.4</ele>
        <time>2018-04-10T09:14:17Z</time>
      </trkpt>
      <trkpt lat="41.4231780" lon="2.1189890">
        <ele>517.4</ele>
        <time>2018-04-10T09:14:19Z</time>
      </trkpt>
      <trkpt lat="41.4232750" lon="2.1190360">
        <ele>517.4</ele>
        <time>2018-04-10T09:14:21Z</time>
      </trkpt>
      <trkpt lat="41.4233800" lon="2.1190790">
        <ele>517.4</ele>
        <time>2018-04-10T09:14:23Z</time>
      </trkpt>
      <trkpt lat="41.4235010" lon="2.1191120">
        <ele>517.4</ele>
        <time>2018-04-10T09:14:25Z</time>
      </trkpt>
      <trkpt lat="41.4236320" lon="2.1191420">
        <ele>517.2</ele>
        <time>2018-04-10T09:14:27Z</time>
      </trkpt>
      <trkpt lat="41.4237600" lon="2.1191760">
        <ele>516.8</ele>
        <time>2018-04-10T09:14:29Z</time>
      </trkpt>
      <trkpt lat="41.4238960" lon="2.1191970">
        <ele>516.6</ele>
        <time>2018-04-10T09:14:31Z</time>
      </trkpt>
      <trkpt lat="41.4240400" lon="2.1192130">
        <ele>516.2</ele>
        <time>2018-04-10T09:14:33Z</time>
      </trkpt>
      <trkpt lat="41.4241190" lon="2.1192170">
        <ele>515.8</ele>
        <time>2018-04-10T09:14:34Z</time>
      </trkpt>
      <trkpt lat="41.4242040" lon="2.1192190">
        <ele>515.4</ele>
        <time>2018-04-10T09:14:35Z</time>
      </trkpt>
      <trkpt lat="41.4243760" lon="2.1192320">
        <ele>514.8</ele>
        <time>2018-04-10T09:14:37Z</time>
      </trkpt>
      <trkpt lat="41.4244600" lon="2.1192380">
        <ele>514.2</ele>
        <time>2018-04-10T09:14:38Z</time>
      </trkpt>
      <trkpt lat="41.4245450" lon="2.1192490">
        <ele>513.8</ele>
        <time>2018-04-10T09:14:39Z</time>
      </trkpt>
      <trkpt lat="41.4247040" lon="2.1192810">
        <ele>513.2</ele>
        <time>2018-04-10T09:14:41Z</time>
      </trkpt>
      <trkpt lat="41.4248340" lon="2.1193210">
        <ele>512.4</ele>
        <time>2018-04-10T09:14:43Z</time>
      </trkpt>
      <trkpt lat="41.4248900" lon="2.1193410">
        <ele>511.8</ele>
        <time>2018-04-10T09:14:44Z</time>
      </trkpt>
      <trkpt lat="41.4249570" lon="2.1193530">
        <ele>511.4</ele>
        <time>2018-04-10T09:14:45Z</time>
      </trkpt>
      <trkpt lat="41.4250220" lon="2.1193680">
        <ele>510.8</ele>
        <time>2018-04-10T09:14:46Z</time>
      </trkpt>
      <trkpt lat="41.4250910" lon="2.1193880">
        <ele>510.2</ele>
        <time>2018-04-10T09:14:47Z</time>
      </trkpt>
      <trkpt lat="41.4251620" lon="2.1194110">
        <ele>509.6</ele>
        <time>2018-04-10T09:14:48Z</time>
      </trkpt>
      <trkpt lat="41.4252360" lon="2.1194320">
        <ele>509.2</ele>
        <time>2018-04-10T09:14:49Z</time>
      </trkpt>
      <trkpt lat="41.4253850" lon="2.1194730">
        <ele>508.2</ele>
        <time>2018-04-10T09:14:51Z</time>
      </trkpt>
      <trkpt lat="41.4255080" lon="2.1195080">
        <ele>507.4</ele>
        <time>2018-04-10T09:14:53Z</time>
      </trkpt>
      <trkpt lat="41.4255640" lon="2.1195330">
        <ele>507.0</ele>
        <time>2018-04-10T09:14:54Z</time>
      </trkpt>
      <trkpt lat="41.4256160" lon="2.1195740">
        <ele>506.6</ele>
        <time>2018-04-10T09:14:55Z</time>
      </trkpt>
      <trkpt lat="41.4257060" lon="2.1197060">
        <ele>505.8</ele>
        <time>2018-04-10T09:14:57Z</time>
      </trkpt>
      <trkpt lat="41.4257600" lon="2.1198920">
        <ele>504.8</ele>
        <time>2018-04-10T09:14:59Z</time>
      </trkpt>
      <trkpt lat="41.4257780" lon="2.1199980">
        <ele>504.4</ele>
        <time>2018-04-10T09:15:00Z</time>
      </trkpt>
      <trkpt lat="41.4257940" lon="2.1201060">
        <ele>504.0</ele>
        <time>2018-04-10T09:15:01Z</time>
      </trkpt>
      <trkpt lat="41.4258250" lon="2.1203280">
        <ele>503.4</ele>
        <time>2018-04-10T09:15:03Z</time>
      </trkpt>
      <trkpt lat="41.4258620" lon="2.1205520">
        <ele>502.4</ele>
        <time>2018-04-10T09:15:05Z</time>
      </trkpt>
      <trkpt lat="41.4258810" lon="2.1206670">
        <ele>501.8</ele>
        <time>2018-04-10T09:15:06Z</time>
      </trkpt>
      <trkpt lat="41.4258960" lon="2.1207830">
        <ele>501.2</ele>
        <time>2018-04-10T09:15:07Z</time>
      </trkpt>
      <trkpt lat="41.4258980" lon="2.1209000">
        <ele>500.4</ele>
        <time>2018-04-10T09:15:08Z</time>
      </trkpt>
      <trkpt lat="41.4258830" lon="2.1210190">
        <ele>499.8</ele>
        <time>2018-04-10T09:15:09Z</time>
      </trkpt>
      <trkpt lat="41.4257890" lon="2.1212300">
        <ele>498.8</ele>
        <time>2018-04-10T09:15:11Z</time>
      </trkpt>
      <trkpt lat="41.4256180" lon="2.1213470">
        <ele>497.6</ele>
        <time>2018-04-10T09:15:13Z</time>
      </trkpt>
      <trkpt lat="41.4254320" lon="2.1213320">
        <ele>496.4</ele>
        <time>2018-04-10T09:15:15Z</time>
      </trkpt>
      <trkpt lat="41.4252720" lon="2.1212600">
        <ele>495.6</ele>
        <time>2018-04-10T09:15:17Z</time>
      </trkpt>
      <trkpt lat="41.4251970" lon="2.1212170">
        <ele>495.0</ele>
        <time>2018-04-10T09:15:18Z</time>
      </trkpt>
      <trkpt lat="41.4251250" lon="2.1211630">
        <ele>494.8</ele>
        <time>2018-04-10T09:15:19Z</time>
      </trkpt>
      <trkpt lat="41.4249710" lon="2.1210660">
        <ele>493.8</ele>
        <time>2018-04-10T09:15:21Z</time>
      </trkpt>
      <trkpt lat="41.4248140" lon="2.1209610">
        <ele>492.4</ele>
        <time>2018-04-10T09:15:23Z</time>
      </trkpt>
      <trkpt lat="41.4246470" lon="2.1208580">
        <ele>491.4</ele>
        <time>2018-04-10T09:15:25Z</time>
      </trkpt>
      <trkpt lat="41.4244760" lon="2.1207470">
        <ele>490.4</ele>
        <time>2018-04-10T09:15:27Z</time>
      </trkpt>
      <trkpt lat="41.4243900" lon="2.1206900">
        <ele>490.0</ele>
        <time>2018-04-10T09:15:28Z</time>
      </trkpt>
      <trkpt lat="41.4243030" lon="2.1206340">
        <ele>489.6</ele>
        <time>2018-04-10T09:15:29Z</time>
      </trkpt>
      <trkpt lat="41.4241240" lon="2.1205310">
        <ele>488.6</ele>
        <time>2018-04-10T09:15:31Z</time>
      </trkpt>
      <trkpt lat="41.4239380" lon="2.1204540">
        <ele>488.0</ele>
        <time>2018-04-10T09:15:33Z</time>
      </trkpt>
      <trkpt lat="41.4238420" lon="2.1204330">
        <ele>487.6</ele>
        <time>2018-04-10T09:15:34Z</time>
      </trkpt>
      <trkpt lat="41.4237460" lon="2.1204320">
        <ele>487.0</ele>
        <time>2018-04-10T09:15:35Z</time>
      </trkpt>
      <trkpt lat="41.4235530" lon="2.1204560">
        <ele>485.4</ele>
        <time>2018-04-10T09:15:37Z</time>
      </trkpt>
      <trkpt lat="41.4234530" lon="2.1204670">
        <ele>484.8</ele>
        <time>2018-04-10T09:15:38Z</time>
      </trkpt>
      <trkpt lat="41.4233560" lon="2.1204810">
        <ele>484.4</ele>
        <time>2018-04-10T09:15:39Z</time>
      </trkpt>
      <trkpt lat="41.4231710" lon="2.1205070">
        <ele>483.2</ele>
        <time>2018-04-10T09:15:41Z</time>
      </trkpt>
      <trkpt lat="41.4230840" lon="2.1205060">
        <ele>482.6</ele>
        <time>2018-04-10T09:15:42Z</time>
      </trkpt>
      <trkpt lat="41.4230010" lon="2.1204860">
        <ele>482.2</ele>
        <time>2018-04-10T09:15:43Z</time>
      </trkpt>
      <trkpt lat="41.4228430" lon="2.1204170">
        <ele>481.4</ele>
        <time>2018-04-10T09:15:45Z</time>
      </trkpt>
      <trkpt lat="41.4227720" lon="2.1203890">
        <ele>480.8</ele>
        <time>2018-04-10T09:15:46Z</time>
      </trkpt>
      <trkpt lat="41.4227030" lon="2.1204030">
        <ele>480.2</ele>
        <time>2018-04-10T09:15:47Z</time>
      </trkpt>
      <trkpt lat="41.4226490" lon="2.1204500">
        <ele>479.8</ele>
        <time>2018-04-10T09:15:48Z</time>
      </trkpt>
      <trkpt lat="41.4226100" lon="2.1205110">
        <ele>479.2</ele>
        <time>2018-04-10T09:15:49Z</time>
      </trkpt>
      <trkpt lat="41.4225850" lon="2.1205750">
        <ele>478.6</ele>
        <time>2018-04-10T09:15:50Z</time>
      </trkpt>
      <trkpt lat="41.4225760" lon="2.1206380">
        <ele>478.2</ele>
        <time>2018-04-10T09:15:51Z</time>
      </trkpt>
      <trkpt lat="41.4225960" lon="2.1207190">
        <ele>477.4</ele>
        <time>2018-04-10T09:15:53Z</time>
      </trkpt>
      <trkpt lat="41.4226340" lon="2.1207760">
        <ele>476.6</ele>
        <time>2018-04-10T09:15:55Z</time>
      </trkpt>
      <trkpt lat="41.4226970" lon="2.1208110">
        <ele>476.2</ele>
        <time>2018-04-10T09:15:57Z</time>
      </trkpt>
      <trkpt lat="41.4227780" lon="2.1208190">
        <ele>475.8</ele>
        <time>2018-04-10T09:15:59Z</time>
      </trkpt>
      <trkpt lat="41.4228240" lon="2.1208170">
        <ele>475.4</ele>
        <time>2018-04-10T09:16:00Z</time>
      </trkpt>
      <trkpt lat="41.4228730" lon="2.1208100">
        <ele>475.4</ele>
        <time>2018-04-10T09:16:01Z</time>
      </trkpt>
      <trkpt lat="41.4229250" lon="2.1208020">
        <ele>475.2</ele>
        <time>2018-04-10T09:16:02Z</time>
      </trkpt>
      <trkpt lat="41.4229790" lon="2.1207910">
        <ele>475.0</ele>
        <time>2018-04-10T09:16:03Z</time>
      </trkpt>
      <trkpt lat="41.4230960" lon="2.1207570">
        <ele>474.6</ele>
        <time>2018-04-10T09:16:05Z</time>
      </trkpt>
      <trkpt lat="41.4232280" lon="2.1207310">
        <ele>474.2</ele>
        <time>2018-04-10T09:16:07Z</time>
      </trkpt>
      <trkpt lat="41.4232990" lon="2.1207300">
        <ele>474.2</ele>
        <time>2018-04-10T09:16:08Z</time>
      </trkpt>
      <trkpt lat="41.4233710" lon="2.1207370">
        <ele>474.0</ele>
        <time>2018-04-10T09:16:09Z</time>
      </trkpt>
      <trkpt lat="41.4235200" lon="2.1207740">
        <ele>473.8</ele>
        <time>2018-04-10T09:16:11Z</time>
      </trkpt>
      <trkpt lat="41.4236720" lon="2.1208220">
        <ele>473.6</ele>
        <time>2018-04-10T09:16:13Z</time>
      </trkpt>
      <trkpt lat="41.4238260" lon="2.1208810">
        <ele>472.8</ele>
        <time>2018-04-10T09:16:15Z</time>
      </trkpt>
      <trkpt lat="41.4239810" lon="2.1209610">
        <ele>472.0</ele>
        <time>2018-04-10T09:16:17Z</time>
      </trkpt>
      <trkpt lat="41.4240580" lon="2.1210100">
        <ele>471.6</ele>
        <time>2018-04-10T09:16:18Z</time>
      </trkpt>
      <trkpt lat="41.4241320" lon="2.1210680">
        <ele>471.2</ele>
        <time>2018-04-10T09:16:19Z</time>
      </trkpt>
      <trkpt lat="41.4242760" lon="2.1212090">
        <ele>470.4</ele>
        <time>2018-04-10T09:16:21Z</time>
      </trkpt>
      <trkpt lat="41.4244140" lon="2.1213790">
        <ele>469.6</ele>
        <time>2018-04-10T09:16:23Z</time>
      </trkpt>
      <trkpt lat="41.4244780" lon="2.1214740">
        <ele>469.2</ele>
        <time>2018-04-10T09:16:24Z</time>
      </trkpt>
      <trkpt lat="41.4245410" lon="2.1215760">
        <ele>468.6</ele>
        <time>2018-04-10T09:16:25Z</time>
      </trkpt>
      <trkpt lat="41.4246030" lon="2.1216810">
        <ele>468.2</ele>
        <time>2018-04-10T09:16:26Z</time>
      </trkpt>
      <trkpt lat="41.4246660" lon="2.1217890">
        <ele>467.6</ele>
        <time>2018-04-10T09:16:27Z</time>
      </trkpt>
      <trkpt lat="41.4247990" lon="2.1220060">
        <ele>466.8</ele>
        <time>2018-04-10T09:16:29Z</time>
      </trkpt>
      <trkpt lat="41.4248740" lon="2.1221080">
        <ele>466.4</ele>
        <time>2018-04-10T09:16:30Z</time>
      </trkpt>
      <trkpt lat="41.4249570" lon="2.1222020">
        <ele>466.0</ele>
        <time>2018-04-10T09:16:31Z</time>
      </trkpt>
      <trkpt lat="41.4250470" lon="2.1222850">
        <ele>465.6</ele>
        <time>2018-04-10T09:16:32Z</time>
      </trkpt>
      <trkpt lat="41.4251450" lon="2.1223580">
        <ele>465.0</ele>
        <time>2018-04-10T09:16:33Z</time>
      </trkpt>
      <trkpt lat="41.4252480" lon="2.1224220">
        <ele>464.4</ele>
        <time>2018-04-10T09:16:34Z</time>
      </trkpt>
      <trkpt lat="41.4253540" lon="2.1224820">
        <ele>464.0</ele>
        <time>2018-04-10T09:16:35Z</time>
      </trkpt>
      <trkpt lat="41.4254610" lon="2.1225440">
        <ele>463.0</ele>
        <time>2018-04-10T09:16:36Z</time>
      </trkpt>
      <trkpt lat="41.4255700" lon="2.1226080">
        <ele>462.4</ele>
        <time>2018-04-10T09:16:37Z</time>
      </trkpt>
      <trkpt lat="41.4256800" lon="2.1226710">
        <ele>461.8</ele>
        <time>2018-04-10T09:16:38Z</time>
      </trkpt>
      <trkpt lat="41.4257920" lon="2.1227330">
        <ele>461.0</ele>
        <time>2018-04-10T09:16:39Z</time>
      </trkpt>
      <trkpt lat="41.4259040" lon="2.1227970">
        <ele>460.4</ele>
        <time>2018-04-10T09:16:40Z</time>
      </trkpt>
      <trkpt lat="41.4260160" lon="2.1228610">
        <ele>459.6</ele>
        <time>2018-04-10T09:16:41Z</time>
      </trkpt>
      <trkpt lat="41.4261290" lon="2.1229280">
        <ele>459.0</ele>
        <time>2018-04-10T09:16:42Z</time>
      </trkpt>
      <trkpt lat="41.4262420" lon="2.1229950">
        <ele>458.2</ele>
        <time>2018-04-10T09:16:43Z</time>
      </trkpt>
      <trkpt lat="41.4263560" lon="2.1230560">
        <ele>457.4</ele>
        <time>2018-04-10T09:16:44Z</time>
      </trkpt>
      <trkpt lat="41.4264740" lon="2.1231070">
        <ele>456.6</ele>
        <time>2018-04-10T09:16:45Z</time>
      </trkpt>
      <trkpt lat="41.4265950" lon="2.1231470">
        <ele>456.0</ele>
        <time>2018-04-10T09:16:46Z</time>
      </trkpt>
      <trkpt lat="41.4267190" lon="2.1231770">
        <ele>455.0</ele>
        <time>2018-04-10T09:16:47Z</time>
      </trkpt>
      <trkpt lat="41.4268430" lon="2.1232030">
        <ele>453.8</ele>
        <time>2018-04-10T09:16:48Z</time>
      </trkpt>
      <trkpt lat="41.4269690" lon="2.1232210">
        <ele>452.8</ele>
        <time>2018-04-10T09:16:49Z</time>
      </trkpt>
      <trkpt lat="41.4270950" lon="2.1232310">
        <ele>451.6</ele>
        <time>2018-04-10T09:16:50Z</time>
      </trkpt>
      <trkpt lat="41.4272240" lon="2.1232410">
        <ele>450.8</ele>
        <time>2018-04-10T09:16:51Z</time>
      </trkpt>
      <trkpt lat="41.4273530" lon="2.1232520">
        <ele>450.2</ele>
        <time>2018-04-10T09:16:52Z</time>
      </trkpt>
      <trkpt lat="41.4274840" lon="2.1232630">
        <ele>449.4</ele>
        <time>2018-04-10T09:16:53Z</time>
      </trkpt>
      <trkpt lat="41.4276160" lon="2.1232700">
        <ele>448.6</ele>
        <time>2018-04-10T09:16:54Z</time>
      </trkpt>
      <trkpt lat="41.4277490" lon="2.1232770">
        <ele>447.6</ele>
        <time>2018-04-10T09:16:55Z</time>
      </trkpt>
      <trkpt lat="41.4278830" lon="2.1232860">
        <ele>446.6</ele>
        <time>2018-04-10T09:16:56Z</time>
      </trkpt>
      <trkpt lat="41.4280160" lon="2.1232970">
        <ele>445.6</ele>
        <time>2018-04-10T09:16:57Z</time>
      </trkpt>
      <trkpt lat="41.4281500" lon="2.1233060">
        <ele>444.8</ele>
        <time>2018-04-10T09:16:58Z</time>
      </trkpt>
      <trkpt lat="41.4282850" lon="2.1233150">
        <ele>443.8</ele>
        <time>2018-04-10T09:16:59Z</time>
      </trkpt>
      <trkpt lat="41.4284190" lon="2.1233320">
        <ele>442.8</ele>
        <time>2018-04-10T09:17:00Z</time>
      </trkpt>
      <trkpt lat="41.4285520" lon="2.1233650">
        <ele>442.0</ele>
        <time>2018-04-10T09:17:01Z</time>
      </trkpt>
      <trkpt lat="41.4286830" lon="2.1234150">
        <ele>441.0</ele>
        <time>2018-04-10T09:17:02Z</time>
      </trkpt>
      <trkpt lat="41.4288090" lon="2.1234830">
        <ele>439.8</ele>
        <time>2018-04-10T09:17:03Z</time>
      </trkpt>
      <trkpt lat="41.4289290" lon="2.1235670">
        <ele>438.8</ele>
        <time>2018-04-10T09:17:04Z</time>
      </trkpt>
      <trkpt lat="41.4290470" lon="2.1236590">
        <ele>436.8</ele>
        <time>2018-04-10T09:17:05Z</time>
      </trkpt>
      <trkpt lat="41.4291640" lon="2.1237500">
        <ele>435.8</ele>
        <time>2018-04-10T09:17:06Z</time>
      </trkpt>
      <trkpt lat="41.4292800" lon="2.1238490">
        <ele>434.8</ele>
        <time>2018-04-10T09:17:07Z</time>
      </trkpt>
      <trkpt lat="41.4293900" lon="2.1239590">
        <ele>433.8</ele>
        <time>2018-04-10T09:17:08Z</time>
      </trkpt>
      <trkpt lat="41.4294960" lon="2.1240790">
        <ele>432.8</ele>
        <time>2018-04-10T09:17:09Z</time>
      </trkpt>
      <trkpt lat="41.4297020" lon="2.1243290">
        <ele>430.8</ele>
        <time>2018-04-10T09:17:11Z</time>
      </trkpt>
      <trkpt lat="41.4298050" lon="2.1244540">
        <ele>429.8</ele>
        <time>2018-04-10T09:17:12Z</time>
      </trkpt>
      <trkpt lat="41.4299090" lon="2.1245800">
        <ele>428.8</ele>
        <time>2018-04-10T09:17:13Z</time>
      </trkpt>
      <trkpt lat="41.4300140" lon="2.1247040">
        <ele>427.8</ele>
        <time>2018-04-10T09:17:14Z</time>
      </trkpt>
      <trkpt lat="41.4301170" lon="2.1248290">
        <ele>427.0</ele>
        <time>2018-04-10T09:17:15Z</time>
      </trkpt>
      <trkpt lat="41.4302200" lon="2.1249550">
        <ele>426.2</ele>
        <time>2018-04-10T09:17:16Z</time>
      </trkpt>
      <trkpt lat="41.4303250" lon="2.1250810">
        <ele>425.0</ele>
        <time>2018-04-10T09:17:17Z</time>
      </trkpt>
      <trkpt lat="41.4304280" lon="2.1252090">
        <ele>424.0</ele>
        <time>2018-04-10T09:17:18Z</time>
      </trkpt>
      <trkpt lat="41.4305280" lon="2.1253370">
        <ele>423.0</ele>
        <time>2018-04-10T09:17:19Z</time>
      </trkpt>
      <trkpt lat="41.4306280" lon="2.1254630">
        <ele>422.0</ele>
        <time>2018-04-10T09:17:20Z</time>
      </trkpt>
      <trkpt lat="41.4307270" lon="2.1255870">
        <ele>421.2</ele>
        <time>2018-04-10T09:17:21Z</time>
      </trkpt>
      <trkpt lat="41.4308270" lon="2.1257070">
        <ele>420.2</ele>
        <time>2018-04-10T09:17:22Z</time>
      </trkpt>
      <trkpt lat="41.4309280" lon="2.1258230">
        <ele>419.2</ele>
        <time>2018-04-10T09:17:23Z</time>
      </trkpt>
      <trkpt lat="41.4310260" lon="2.1259390">
        <ele>418.2</ele>
        <time>2018-04-10T09:17:24Z</time>
      </trkpt>
      <trkpt lat="41.4311210" lon="2.1260550">
        <ele>417.4</ele>
        <time>2018-04-10T09:17:25Z</time>
      </trkpt>
      <trkpt lat="41.4312140" lon="2.1261690">
        <ele>416.2</ele>
        <time>2018-04-10T09:17:26Z</time>
      </trkpt>
      <trkpt lat="41.4313060" lon="2.1262830">
        <ele>415.2</ele>
        <time>2018-04-10T09:17:27Z</time>
      </trkpt>
      <trkpt lat="41.4314870" lon="2.1265100">
        <ele>413.6</ele>
        <time>2018-04-10T09:17:29Z</time>
      </trkpt>
      <trkpt lat="41.4316510" lon="2.1267530">
        <ele>412.2</ele>
        <time>2018-04-10T09:17:31Z</time>
      </trkpt>
      <trkpt lat="41.4317740" lon="2.1270410">
        <ele>411.0</ele>
        <time>2018-04-10T09:17:33Z</time>
      </trkpt>
      <trkpt lat="41.4318150" lon="2.1271950">
        <ele>409.8</ele>
        <time>2018-04-10T09:17:34Z</time>
      </trkpt>
      <trkpt lat="41.4318480" lon="2.1273550">
        <ele>409.0</ele>
        <time>2018-04-10T09:17:35Z</time>
      </trkpt>
      <trkpt lat="41.4318660" lon="2.1275170">
        <ele>408.4</ele>
        <time>2018-04-10T09:17:36Z</time>
      </trkpt>
      <trkpt lat="41.4318760" lon="2.1276810">
        <ele>407.6</ele>
        <time>2018-04-10T09:17:37Z</time>
      </trkpt>
      <trkpt lat="41.4318760" lon="2.1278470">
        <ele>407.0</ele>
        <time>2018-04-10T09:17:38Z</time>
      </trkpt>
      <trkpt lat="41.4318640" lon="2.1280080">
        <ele>406.2</ele>
        <time>2018-04-10T09:17:39Z</time>
      </trkpt>
      <trkpt lat="41.4318410" lon="2.1281680">
        <ele>405.6</ele>
        <time>2018-04-10T09:17:40Z</time>
      </trkpt>
      <trkpt lat="41.4318160" lon="2.1283260">
        <ele>405.0</ele>
        <time>2018-04-10T09:17:41Z</time>
      </trkpt>
      <trkpt lat="41.4317960" lon="2.1284860">
        <ele>404.4</ele>
        <time>2018-04-10T09:17:42Z</time>
      </trkpt>
      <trkpt lat="41.4317730" lon="2.1286450">
        <ele>403.6</ele>
        <time>2018-04-10T09:17:43Z</time>
      </trkpt>
      <trkpt lat="41.4317530" lon="2.1288060">
        <ele>403.0</ele>
        <time>2018-04-10T09:17:44Z</time>
      </trkpt>
      <trkpt lat="41.4317440" lon="2.1289690">
        <ele>402.6</ele>
        <time>2018-04-10T09:17:45Z</time>
      </trkpt>
      <trkpt lat="41.4317480" lon="2.1291340">
        <ele>401.8</ele>
        <time>2018-04-10T09:17:46Z</time>
      </trkpt>
      <trkpt lat="41.4317640" lon="2.1293000">
        <ele>401.2</ele>
        <time>2018-04-10T09:17:47Z</time>
      </trkpt>
      <trkpt lat="41.4317890" lon="2.1294670">
        <ele>400.6</ele>
        <time>2018-04-10T09:17:48Z</time>
      </trkpt>
      <trkpt lat="41.4318170" lon="2.1296360">
        <ele>400.0</ele>
        <time>2018-04-10T09:17:49Z</time>
      </trkpt>
      <trkpt lat="41.4318340" lon="2.1298110">
        <ele>399.4</ele>
        <time>2018-04-10T09:17:50Z</time>
      </trkpt>
      <trkpt lat="41.4318310" lon="2.1299900">
        <ele>398.8</ele>
        <time>2018-04-10T09:17:51Z</time>
      </trkpt>
      <trkpt lat="41.4318080" lon="2.1301660">
        <ele>398.2</ele>
        <time>2018-04-10T09:17:52Z</time>
      </trkpt>
      <trkpt lat="41.4317710" lon="2.1303360">
        <ele>397.6</ele>
        <time>2018-04-10T09:17:53Z</time>
      </trkpt>
      <trkpt lat="41.4317290" lon="2.1305040">
        <ele>397.0</ele>
        <time>2018-04-10T09:17:54Z</time>
      </trkpt>
      <trkpt lat="41.4316900" lon="2.1306730">
        <ele>396.4</ele>
        <time>2018-04-10T09:17:55Z</time>
      </trkpt>
      <trkpt lat="41.4316530" lon="2.1308410">
        <ele>395.8</ele>
        <time>2018-04-10T09:17:56Z</time>
      </trkpt>
      <trkpt lat="41.4316230" lon="2.1310080">
        <ele>395.2</ele>
        <time>2018-04-10T09:17:57Z</time>
      </trkpt>
      <trkpt lat="41.4316060" lon="2.1311770">
        <ele>394.4</ele>
        <time>2018-04-10T09:17:58Z</time>
      </trkpt>
      <trkpt lat="41.4316130" lon="2.1313450">
        <ele>393.4</ele>
        <time>2018-04-10T09:17:59Z</time>
      </trkpt>
      <trkpt lat="41.4316470" lon="2.1315080">
        <ele>392.4</ele>
        <time>2018-04-10T09:18:00Z</time>
      </trkpt>
      <trkpt lat="41.4317040" lon="2.1316600">
        <ele>391.6</ele>
        <time>2018-04-10T09:18:01Z</time>
      </trkpt>
      <trkpt lat="41.4317740" lon="2.1318040">
        <ele>390.8</ele>
        <time>2018-04-10T09:18:02Z</time>
      </trkpt>
      <trkpt lat="41.4318460" lon="2.1319460">
        <ele>389.2</ele>
        <time>2018-04-10T09:18:03Z</time>
      </trkpt>
      <trkpt lat="41.4319070" lon="2.1320910">
        <ele>388.4</ele>
        <time>2018-04-10T09:18:04Z</time>
      </trkpt>
      <trkpt lat="41.4319430" lon="2.1322460">
        <ele>387.8</ele>
        <time>2018-04-10T09:18:05Z</time>
      </trkpt>
      <trkpt lat="41.4319230" lon="2.1325680">
        <ele>386.6</ele>
        <time>2018-04-10T09:18:07Z</time>
      </trkpt>
      <trkpt lat="41.4318330" lon="2.1328730">
        <ele>385.4</ele>
        <time>2018-04-10T09:18:09Z</time>
      </trkpt>
      <trkpt lat="41.4317360" lon="2.1331740">
        <ele>383.8</ele>
        <time>2018-04-10T09:18:11Z</time>
      </trkpt>
      <trkpt lat="41.4316970" lon="2.1333260">
        <ele>383.0</ele>
        <time>2018-04-10T09:18:12Z</time>
      </trkpt>
      <trkpt lat="41.4316760" lon="2.1334790">
        <ele>382.2</ele>
        <time>2018-04-10T09:18:13Z</time>
      </trkpt>
      <trkpt lat="41.4317310" lon="2.1337680">
        <ele>380.6</ele>
        <time>2018-04-10T09:18:15Z</time>
      </trkpt>
      <trkpt lat="41.4319120" lon="2.1339540">
        <ele>378.6</ele>
        <time>2018-04-10T09:18:17Z</time>
      </trkpt>
      <trkpt lat="41.4321430" lon="2.1339580">
        <ele>377.2</ele>
        <time>2018-04-10T09:18:19Z</time>
      </trkpt>
      <trkpt lat="41.4323750" lon="2.1338500">
        <ele>375.8</ele>
        <time>2018-04-10T09:18:21Z</time>
      </trkpt>
      <trkpt lat="41.4326080" lon="2.1337390">
        <ele>374.6</ele>
        <time>2018-04-10T09:18:23Z</time>
      </trkpt>
      <trkpt lat="41.4328460" lon="2.1337060">
        <ele>373.2</ele>
        <time>2018-04-10T09:18:25Z</time>
      </trkpt>
      <trkpt lat="41.4330810" lon="2.1337480">
        <ele>372.0</ele>
        <time>2018-04-10T09:18:27Z</time>
      </trkpt>
      <trkpt lat="41.4331970" lon="2.1337810">
        <ele>371.2</ele>
        <time>2018-04-10T09:18:28Z</time>
      </trkpt>
      <trkpt lat="41.4333110" lon="2.1338140">
        <ele>370.6</ele>
        <time>2018-04-10T09:18:29Z</time>
      </trkpt>
      <trkpt lat="41.4335360" lon="2.1338750">
        <ele>369.2</ele>
        <time>2018-04-10T09:18:31Z</time>
      </trkpt>
      <trkpt lat="41.4336440" lon="2.1339070">
        <ele>367.8</ele>
        <time>2018-04-10T09:18:32Z</time>
      </trkpt>
      <trkpt lat="41.4337530" lon="2.1339410">
        <ele>367.4</ele>
        <time>2018-04-10T09:18:33Z</time>
      </trkpt>
      <trkpt lat="41.4339550" lon="2.1340240">
        <ele>366.4</ele>
        <time>2018-04-10T09:18:35Z</time>
      </trkpt>
      <trkpt lat="41.4340980" lon="2.1341800">
        <ele>365.6</ele>
        <time>2018-04-10T09:18:37Z</time>
      </trkpt>
      <trkpt lat="41.4341340" lon="2.1342910">
        <ele>365.0</ele>
        <time>2018-04-10T09:18:38Z</time>
      </trkpt>
      <trkpt lat="41.4341340" lon="2.1344090">
        <ele>364.4</ele>
        <time>2018-04-10T09:18:39Z</time>
      </trkpt>
      <trkpt lat="41.4341000" lon="2.1345170">
        <ele>364.0</ele>
        <time>2018-04-10T09:18:40Z</time>
      </trkpt>
      <trkpt lat="41.4340360" lon="2.1345980">
        <ele>363.8</ele>
        <time>2018-04-10T09:18:41Z</time>
      </trkpt>
      <trkpt lat="41.4338680" lon="2.1346360">
        <ele>363.2</ele>
        <time>2018-04-10T09:18:43Z</time>
      </trkpt>
      <trkpt lat="41.4337830" lon="2.1345960">
        <ele>363.0</ele>
        <time>2018-04-10T09:18:44Z</time>
      </trkpt>
      <trkpt lat="41.4336980" lon="2.1345370">
        <ele>362.6</ele>
        <time>2018-04-10T09:18:45Z</time>
      </trkpt>
      <trkpt lat="41.4336150" lon="2.1344690">
        <ele>362.4</ele>
        <time>2018-04-10T09:18:46Z</time>
      </trkpt>
      <trkpt lat="41.4335300" lon="2.1344010">
        <ele>362.2</ele>
        <time>2018-04-10T09:18:47Z</time>
      </trkpt>
      <trkpt lat="41.4334420" lon="2.1343370">
        <ele>361.8</ele>
        <time>2018-04-10T09:18:48Z</time>
      </trkpt>
      <trkpt lat="41.4333550" lon="2.1342730">
        <ele>361.6</ele>
        <time>2018-04-10T09:18:49Z</time>
      </trkpt>
      <trkpt lat="41.4331780" lon="2.1341440">
        <ele>361.0</ele>
        <time>2018-04-10T09:18:51Z</time>
      </trkpt>
      <trkpt lat="41.4330830" lon="2.1340960">
        <ele>360.8</ele>
        <time>2018-04-10T09:18:52Z</time>
      </trkpt>
      <trkpt lat="41.4329840" lon="2.1340630">
        <ele>360.4</ele>
        <time>2018-04-10T09:18:53Z</time>
      </trkpt>
      <trkpt lat="41.4327800" lon="2.1340530">
        <ele>359.4</ele>
        <time>2018-04-10T09:18:55Z</time>
      </trkpt>
      <trkpt lat="41.4325840" lon="2.1341120">
        <ele>358.2</ele>
        <time>2018-04-10T09:18:57Z</time>
      </trkpt>
      <trkpt lat="41.4323940" lon="2.1342240">
        <ele>357.4</ele>
        <time>2018-04-10T09:18:59Z</time>
      </trkpt>
      <trkpt lat="41.4322980" lon="2.1342850">
        <ele>357.0</ele>
        <time>2018-04-10T09:19:00Z</time>
      </trkpt>
      <trkpt lat="41.4322010" lon="2.1343470">
        <ele>356.8</ele>
        <time>2018-04-10T09:19:01Z</time>
      </trkpt>
      <trkpt lat="41.4321020" lon="2.1344010">
        <ele>356.0</ele>
        <time>2018-04-10T09:19:02Z</time>
      </trkpt>
      <trkpt lat="41.4319980" lon="2.1344280">
        <ele>355.4</ele>
        <time>2018-04-10T09:19:03Z</time>
      </trkpt>
      <trkpt lat="41.4317870" lon="2.1344030">
        <ele>354.6</ele>
        <time>2018-04-10T09:19:05Z</time>
      </trkpt>
      <trkpt lat="41.4315970" lon="2.1342700">
        <ele>353.6</ele>
        <time>2018-04-10T09:19:07Z</time>
      </trkpt>
      <trkpt lat="41.4315030" lon="2.1341880">
        <ele>353.0</ele>
        <time>2018-04-10T09:19:08Z</time>
      </trkpt>
      <trkpt lat="41.4314020" lon="2.1341110">
        <ele>352.4</ele>
        <time>2018-04-10T09:19:09Z</time>
      </trkpt>
      <trkpt lat="41.4313030" lon="2.1340270">
        <ele>352.0</ele>
        <time>2018-04-10T09:19:10Z</time>
      </trkpt>
      <trkpt lat="41.4312180" lon="2.1339200">
        <ele>351.4</ele>
        <time>2018-04-10T09:19:11Z</time>
      </trkpt>
      <trkpt lat="41.4311580" lon="2.1337860">
        <ele>351.0</ele>
        <time>2018-04-10T09:19:12Z</time>
      </trkpt>
      <trkpt lat="41.4311290" lon="2.1336350">
        <ele>350.4</ele>
        <time>2018-04-10T09:19:13Z</time>
      </trkpt>
      <trkpt lat="41.4311290" lon="2.1334800">
        <ele>350.0</ele>
        <time>2018-04-10T09:19:14Z</time>
      </trkpt>
      <trkpt lat="41.4311500" lon="2.1333230">
        <ele>349.4</ele>
        <time>2018-04-10T09:19:15Z</time>
      </trkpt>
      <trkpt lat="41.4311830" lon="2.1331680">
        <ele>349.0</ele>
        <time>2018-04-10T09:19:16Z</time>
      </trkpt>
      <trkpt lat="41.4312200" lon="2.1330130">
        <ele>348.4</ele>
        <time>2018-04-10T09:19:17Z</time>
      </trkpt>
      <trkpt lat="41.4312770" lon="2.1326960">
        <ele>347.2</ele>
        <time>2018-04-10T09:19:19Z</time>
      </trkpt>
      <trkpt lat="41.4312400" lon="2.1323750">
        <ele>345.4</ele>
        <time>2018-04-10T09:19:21Z</time>
      </trkpt>
      <trkpt lat="41.4310920" lon="2.1321210">
        <ele>344.0</ele>
        <time>2018-04-10T09:19:23Z</time>
      </trkpt>
      <trkpt lat="41.4308970" lon="2.1319520">
        <ele>342.8</ele>
        <time>2018-04-10T09:19:25Z</time>
      </trkpt>
      <trkpt lat="41.4307010" lon="2.1317890">
        <ele>341.6</ele>
        <time>2018-04-10T09:19:27Z</time>
      </trkpt>
      <trkpt lat="41.4305100" lon="2.1316240">
        <ele>340.4</ele>
        <time>2018-04-10T09:19:29Z</time>
      </trkpt>
      <trkpt lat="41.4303170" lon="2.1314740">
        <ele>339.0</ele>
        <time>2018-04-10T09:19:31Z</time>
      </trkpt>
      <trkpt lat="41.4301430" lon="2.1313120">
        <ele>338.2</ele>
        <time>2018-04-10T09:19:33Z</time>
      </trkpt>
      <trkpt lat="41.4300670" lon="2.1312150">
        <ele>338.0</ele>
        <time>2018-04-10T09:19:34Z</time>
      </trkpt>
      <trkpt lat="41.4300070" lon="2.1311060">
        <ele>337.6</ele>
        <time>2018-04-10T09:19:35Z</time>
      </trkpt>
      <trkpt lat="41.4299360" lon="2.1308690">
        <ele>336.6</ele>
        <time>2018-04-10T09:19:37Z</time>
      </trkpt>
      <trkpt lat="41.4299330" lon="2.1306290">
        <ele>335.8</ele>
        <time>2018-04-10T09:19:39Z</time>
      </trkpt>
      <trkpt lat="41.4299550" lon="2.1305150">
        <ele>335.6</ele>
        <time>2018-04-10T09:19:40Z</time>
      </trkpt>
      <trkpt lat="41.4299910" lon="2.1304060">
        <ele>335.4</ele>
        <time>2018-04-10T09:19:41Z</time>
      </trkpt>
      <trkpt lat="41.4300950" lon="2.1302160">
        <ele>335.2</ele>
        <time>2018-04-10T09:19:43Z</time>
      </trkpt>
      <trkpt lat="41.4302200" lon="2.1300520">
        <ele>335.0</ele>
        <time>2018-04-10T09:19:45Z</time>
      </trkpt>
      <trkpt lat="41.4303460" lon="2.1298900">
        <ele>335.0</ele>
        <time>2018-04-10T09:19:47Z</time>
      </trkpt>
      <trkpt lat="41.4304000" lon="2.1298000">
        <ele>335.0</ele>
        <time>2018-04-10T09:19:48Z</time>
      </trkpt>
      <trkpt lat="41.4304460" lon="2.1297040">
        <ele>335.0</ele>
        <time>2018-04-10T09:19:49Z</time>
      </trkpt>
      <trkpt lat="41.4305140" lon="2.1294950">
        <ele>335.0</ele>
        <time>2018-04-10T09:19:51Z</time>
      </trkpt>
      <trkpt lat="41.4305450" lon="2.1292730">
        <ele>335.0</ele>
        <time>2018-04-10T09:19:53Z</time>
      </trkpt>
      <trkpt lat="41.4305470" lon="2.1290520">
        <ele>335.0</ele>
        <time>2018-04-10T09:19:55Z</time>
      </trkpt>
      <trkpt lat="41.4305410" lon="2.1289420">
        <ele>335.2</ele>
        <time>2018-04-10T09:19:56Z</time>
      </trkpt>
      <trkpt lat="41.4305340" lon="2.1288310">
        <ele>335.2</ele>
        <time>2018-04-10T09:19:57Z</time>
      </trkpt>
      <trkpt lat="41.4305190" lon="2.1286130">
        <ele>335.4</ele>
        <time>2018-04-10T09:19:59Z</time>
      </trkpt>
      <trkpt lat="41.4304950" lon="2.1283920">
        <ele>335.4</ele>
        <time>2018-04-10T09:20:01Z</time>
      </trkpt>
      <trkpt lat="41.4304480" lon="2.1281810">
        <ele>335.6</ele>
        <time>2018-04-10T09:20:03Z</time>
      </trkpt>
      <trkpt lat="41.4303530" lon="2.1280150">
        <ele>335.6</ele>
        <time>2018-04-10T09:20:05Z</time>
      </trkpt>
      <trkpt lat="41.4302040" lon="2.1279020">
        <ele>335.4</ele>
        <time>2018-04-10T09:20:07Z</time>
      </trkpt>
      <trkpt lat="41.4300240" lon="2.1278490">
        <ele>335.2</ele>
        <time>2018-04-10T09:20:09Z</time>
      </trkpt>
      <trkpt lat="41.4298280" lon="2.1278110">
        <ele>335.2</ele>
        <time>2018-04-10T09:20:11Z</time>
      </trkpt>
      <trkpt lat="41.4296410" lon="2.1276920">
        <ele>334.8</ele>
        <time>2018-04-10T09:20:13Z</time>
      </trkpt>
      <trkpt lat="41.4294700" lon="2.1275110">
        <ele>334.4</ele>
        <time>2018-04-10T09:20:15Z</time>
      </trkpt>
      <trkpt lat="41.4292980" lon="2.1273370">
        <ele>333.0</ele>
        <time>2018-04-10T09:20:17Z</time>
      </trkpt>
      <trkpt lat="41.4290990" lon="2.1272610">
        <ele>332.2</ele>
        <time>2018-04-10T09:20:19Z</time>
      </trkpt>
      <trkpt lat="41.4289980" lon="2.1272800">
        <ele>332.0</ele>
        <time>2018-04-10T09:20:20Z</time>
      </trkpt>
      <trkpt lat="41.4289080" lon="2.1273410">
        <ele>331.2</ele>
        <time>2018-04-10T09:20:21Z</time>
      </trkpt>
      <trkpt lat="41.4288380" lon="2.1274350">
        <ele>330.6</ele>
        <time>2018-04-10T09:20:22Z</time>
      </trkpt>
      <trkpt lat="41.4287830" lon="2.1275580">
        <ele>330.0</ele>
        <time>2018-04-10T09:20:23Z</time>
      </trkpt>
      <trkpt lat="41.4287260" lon="2.1276810">
        <ele>329.6</ele>
        <time>2018-04-10T09:20:24Z</time>
      </trkpt>
      <trkpt lat="41.4286540" lon="2.1277880">
        <ele>329.0</ele>
        <time>2018-04-10T09:20:25Z</time>
      </trkpt>
      <trkpt lat="41.4285690" lon="2.1278610">
        <ele>328.6</ele>
        <time>2018-04-10T09:20:26Z</time>
      </trkpt>
      <trkpt lat="41.4284740" lon="2.1278890">
        <ele>328.0</ele>
        <time>2018-04-10T09:20:27Z</time>
      </trkpt>
      <trkpt lat="41.4282870" lon="2.1278080">
        <ele>326.2</ele>
        <time>2018-04-10T09:20:29Z</time>
      </trkpt>
      <trkpt lat="41.4281590" lon="2.1275900">
        <ele>324.6</ele>
        <time>2018-04-10T09:20:31Z</time>
      </trkpt>
      <trkpt lat="41.4281060" lon="2.1274690">
        <ele>323.8</ele>
        <time>2018-04-10T09:20:32Z</time>
      </trkpt>
      <trkpt lat="41.4280510" lon="2.1273480">
        <ele>323.0</ele>
        <time>2018-04-10T09:20:33Z</time>
      </trkpt>
      <trkpt lat="41.4279890" lon="2.1272430">
        <ele>322.2</ele>
        <time>2018-04-10T09:20:34Z</time>
      </trkpt>
      <trkpt lat="41.4279170" lon="2.1271600">
        <ele>321.6</ele>
        <time>2018-04-10T09:20:35Z</time>
      </trkpt>
      <trkpt lat="41.4277390" lon="2.1270620">
        <ele>319.8</ele>
        <time>2018-04-10T09:20:37Z</time>
      </trkpt>
      <trkpt lat="41.4275550" lon="2.1271120">
        <ele>318.4</ele>
        <time>2018-04-10T09:20:39Z</time>
      </trkpt>
      <trkpt lat="41.4274230" lon="2.1272970">
        <ele>317.4</ele>
        <time>2018-04-10T09:20:41Z</time>
      </trkpt>
      <trkpt lat="41.4273760" lon="2.1275500">
        <ele>316.4</ele>
        <time>2018-04-10T09:20:43Z</time>
      </trkpt>
      <trkpt lat="41.4273670" lon="2.1276850">
        <ele>316.0</ele>
        <time>2018-04-10T09:20:44Z</time>
      </trkpt>
      <trkpt lat="41.4273600" lon="2.1278220">
        <ele>315.4</ele>
        <time>2018-04-10T09:20:45Z</time>
      </trkpt>
      <trkpt lat="41.4273530" lon="2.1279610">
        <ele>314.8</ele>
        <time>2018-04-10T09:20:46Z</time>
      </trkpt>
      <trkpt lat="41.4273510" lon="2.1281060">
        <ele>314.6</ele>
        <time>2018-04-10T09:20:47Z</time>
      </trkpt>
      <trkpt lat="41.4273440" lon="2.1283970">
        <ele>314.0</ele>
        <time>2018-04-10T09:20:49Z</time>
      </trkpt>
      <trkpt lat="41.4273390" lon="2.1285440">
        <ele>313.6</ele>
        <time>2018-04-10T09:20:50Z</time>
      </trkpt>
      <trkpt lat="41.4273320" lon="2.1286930">
        <ele>313.2</ele>
        <time>2018-04-10T09:20:51Z</time>
      </trkpt>
      <trkpt lat="41.4273280" lon="2.1289840">
        <ele>312.2</ele>
        <time>2018-04-10T09:20:53Z</time>
      </trkpt>
      <trkpt lat="41.4273230" lon="2.1292810">
        <ele>311.0</ele>
        <time>2018-04-10T09:20:55Z</time>
      </trkpt>
      <trkpt lat="41.4273150" lon="2.1295800">
        <ele>309.8</ele>
        <time>2018-04-10T09:20:57Z</time>
      </trkpt>
      <trkpt lat="41.4273080" lon="2.1297300">
        <ele>308.6</ele>
        <time>2018-04-10T09:20:58Z</time>
      </trkpt>
      <trkpt lat="41.4272910" lon="2.1298820">
        <ele>308.0</ele>
        <time>2018-04-10T09:20:59Z</time>
      </trkpt>
      <trkpt lat="41.4272610" lon="2.1300310">
        <ele>307.4</ele>
        <time>2018-04-10T09:21:00Z</time>
      </trkpt>
      <trkpt lat="41.4272150" lon="2.1301750">
        <ele>307.0</ele>
        <time>2018-04-10T09:21:01Z</time>
      </trkpt>
      <trkpt lat="41.4271590" lon="2.1303130">
        <ele>306.2</ele>
        <time>2018-04-10T09:21:02Z</time>
      </trkpt>
      <trkpt lat="41.4271030" lon="2.1304420">
        <ele>305.6</ele>
        <time>2018-04-10T09:21:03Z</time>
      </trkpt>
      <trkpt lat="41.4270430" lon="2.1305500">
        <ele>305.0</ele>
        <time>2018-04-10T09:21:04Z</time>
      </trkpt>
      <trkpt lat="41.4269710" lon="2.1306360">
        <ele>304.2</ele>
        <time>2018-04-10T09:21:05Z</time>
      </trkpt>
      <trkpt lat="41.4268910" lon="2.1306840">
        <ele>303.4</ele>
        <time>2018-04-10T09:21:06Z</time>
      </trkpt>
      <trkpt lat="41.4268070" lon="2.1306840">
        <ele>302.6</ele>
        <time>2018-04-10T09:21:07Z</time>
      </trkpt>
      <trkpt lat="41.4267240" lon="2.1306450">
        <ele>301.8</ele>
        <time>2018-04-10T09:21:08Z</time>
      </trkpt>
      <trkpt lat="41.4266480" lon="2.1305720">
        <ele>301.0</ele>
        <time>2018-04-10T09:21:09Z</time>
      </trkpt>
      <trkpt lat="41.4265730" lon="2.1304840">
        <ele>300.4</ele>
        <time>2018-04-10T09:21:10Z</time>
      </trkpt>
      <trkpt lat="41.4264930" lon="2.1303910">
        <ele>299.6</ele>
        <time>2018-04-10T09:21:11Z</time>
      </trkpt>
      <trkpt lat="41.4264130" lon="2.1302980">
        <ele>299.0</ele>
        <time>2018-04-10T09:21:12Z</time>
      </trkpt>
      <trkpt lat="41.4263300" lon="2.1302030">
        <ele>298.2</ele>
        <time>2018-04-10T09:21:13Z</time>
      </trkpt>
      <trkpt lat="41.4262460" lon="2.1301060">
        <ele>297.6</ele>
        <time>2018-04-10T09:21:14Z</time>
      </trkpt>
      <trkpt lat="41.4261580" lon="2.1300070">
        <ele>296.6</ele>
        <time>2018-04-10T09:21:15Z</time>
      </trkpt>
      <trkpt lat="41.4260690" lon="2.1299070">
        <ele>295.8</ele>
        <time>2018-04-10T09:21:16Z</time>
      </trkpt>
      <trkpt lat="41.4259790" lon="2.1298050">
        <ele>294.8</ele>
        <time>2018-04-10T09:21:17Z</time>
      </trkpt>
      <trkpt lat="41.4258880" lon="2.1297040">
        <ele>294.0</ele>
        <time>2018-04-10T09:21:18Z</time>
      </trkpt>
      <trkpt lat="41.4257960" lon="2.1295990">
        <ele>293.4</ele>
        <time>2018-04-10T09:21:19Z</time>
      </trkpt>
      <trkpt lat="41.4257040" lon="2.1294910">
        <ele>292.6</ele>
        <time>2018-04-10T09:21:20Z</time>
      </trkpt>
      <trkpt lat="41.4256100" lon="2.1293850">
        <ele>291.8</ele>
        <time>2018-04-10T09:21:21Z</time>
      </trkpt>
      <trkpt lat="41.4255160" lon="2.1292810">
        <ele>291.0</ele>
        <time>2018-04-10T09:21:22Z</time>
      </trkpt>
      <trkpt lat="41.4254230" lon="2.1291770">
        <ele>290.2</ele>
        <time>2018-04-10T09:21:23Z</time>
      </trkpt>
      <trkpt lat="41.4253320" lon="2.1290700">
        <ele>289.4</ele>
        <time>2018-04-10T09:21:24Z</time>
      </trkpt>
      <trkpt lat="41.4252410" lon="2.1289660">
        <ele>288.4</ele>
        <time>2018-04-10T09:21:25Z</time>
      </trkpt>
      <trkpt lat="41.4251500" lon="2.1288630">
        <ele>287.4</ele>
        <time>2018-04-10T09:21:26Z</time>
      </trkpt>
      <trkpt lat="41.4250590" lon="2.1287590">
        <ele>285.8</ele>
        <time>2018-04-10T09:21:27Z</time>
      </trkpt>
      <trkpt lat="41.4248730" lon="2.1285580">
        <ele>284.2</ele>
        <time>2018-04-10T09:21:29Z</time>
      </trkpt>
      <trkpt lat="41.4246940" lon="2.1283630">
        <ele>282.6</ele>
        <time>2018-04-10T09:21:31Z</time>
      </trkpt>
      <trkpt lat="41.4245250" lon="2.1282140">
        <ele>281.0</ele>
        <time>2018-04-10T09:21:33Z</time>
      </trkpt>
      <trkpt lat="41.4243440" lon="2.1281680">
        <ele>279.8</ele>
        <time>2018-04-10T09:21:35Z</time>
      </trkpt>
      <trkpt lat="41.4241880" lon="2.1282420">
        <ele>278.6</ele>
        <time>2018-04-10T09:21:37Z</time>
      </trkpt>
      <trkpt lat="41.4241020" lon="2.1284320">
        <ele>277.6</ele>
        <time>2018-04-10T09:21:39Z</time>
      </trkpt>
      <trkpt lat="41.4240930" lon="2.1286690">
        <ele>276.6</ele>
        <time>2018-04-10T09:21:41Z</time>
      </trkpt>
      <trkpt lat="41.4241170" lon="2.1287910">
        <ele>276.2</ele>
        <time>2018-04-10T09:21:42Z</time>
      </trkpt>
      <trkpt lat="41.4241690" lon="2.1289070">
        <ele>276.0</ele>
        <time>2018-04-10T09:21:43Z</time>
      </trkpt>
      <trkpt lat="41.4242220" lon="2.1290240">
        <ele>275.6</ele>
        <time>2018-04-10T09:21:44Z</time>
      </trkpt>
      <trkpt lat="41.4242780" lon="2.1291490">
        <ele>275.4</ele>
        <time>2018-04-10T09:21:45Z</time>
      </trkpt>
      <trkpt lat="41.4243350" lon="2.1292770">
        <ele>275.0</ele>
        <time>2018-04-10T09:21:46Z</time>
      </trkpt>
      <trkpt lat="41.4243940" lon="2.1294100">
        <ele>274.6</ele>
        <time>2018-04-10T09:21:47Z</time>
      </trkpt>
      <trkpt lat="41.4245100" lon="2.1296820">
        <ele>273.8</ele>
        <time>2018-04-10T09:21:49Z</time>
      </trkpt>
      <trkpt lat="41.4246330" lon="2.1299600">
        <ele>273.0</ele>
        <time>2018-04-10T09:21:51Z</time>
      </trkpt>
      <trkpt lat="41.4246990" lon="2.1301000">
        <ele>272.4</ele>
        <time>2018-04-10T09:21:52Z</time>
      </trkpt>
      <trkpt lat="41.4247660" lon="2.1302410">
        <ele>271.6</ele>
        <time>2018-04-10T09:21:53Z</time>
      </trkpt>
      <trkpt lat="41.4248320" lon="2.1303840">
        <ele>270.8</ele>
        <time>2018-04-10T09:21:54Z</time>
      </trkpt>
      <trkpt lat="41.4249020" lon="2.1305260">
        <ele>270.0</ele>
        <time>2018-04-10T09:21:55Z</time>
      </trkpt>
      <trkpt lat="41.4249710" lon="2.1306680">
        <ele>269.2</ele>
        <time>2018-04-10T09:21:56Z</time>
      </trkpt>
      <trkpt lat="41.4250280" lon="2.1308130">
        <ele>267.6</ele>
        <time>2018-04-10T09:21:57Z</time>
      </trkpt>
      <trkpt lat="41.4251080" lon="2.1311080">
        <ele>265.6</ele>
        <time>2018-04-10T09:21:59Z</time>
      </trkpt>
      <trkpt lat="41.4251250" lon="2.1314260">
        <ele>263.8</ele>
        <time>2018-04-10T09:22:01Z</time>
      </trkpt>
      <trkpt lat="41.4250980" lon="2.1317590">
        <ele>262.0</ele>
        <time>2018-04-10T09:22:03Z</time>
      </trkpt>
      <trkpt lat="41.4250660" lon="2.1320960">
        <ele>260.4</ele>
        <time>2018-04-10T09:22:05Z</time>
      </trkpt>
      <trkpt lat="41.4250410" lon="2.1324320">
        <ele>258.8</ele>
        <time>2018-04-10T09:22:07Z</time>
      </trkpt>
      <trkpt lat="41.4250150" lon="2.1327670">
        <ele>257.0</ele>
        <time>2018-04-10T09:22:09Z</time>
      </trkpt>
      <trkpt lat="41.4250050" lon="2.1329340">
        <ele>256.0</ele>
        <time>2018-04-10T09:22:10Z</time>
      </trkpt>
      <trkpt lat="41.4250030" lon="2.1331020">
        <ele>255.0</ele>
        <time>2018-04-10T09:22:11Z</time>
      </trkpt>
      <trkpt lat="41.4250130" lon="2.1332690">
        <ele>254.2</ele>
        <time>2018-04-10T09:22:12Z</time>
      </trkpt>
      <trkpt lat="41.4250280" lon="2.1334360">
        <ele>253.2</ele>
        <time>2018-04-10T09:22:13Z</time>
      </trkpt>
      <trkpt lat="41.4250490" lon="2.1336000">
        <ele>252.2</ele>
        <time>2018-04-10T09:22:14Z</time>
      </trkpt>
      <trkpt lat="41.4250780" lon="2.1337610">
        <ele>251.4</ele>
        <time>2018-04-10T09:22:15Z</time>
      </trkpt>
      <trkpt lat="41.4251100" lon="2.1339170">
        <ele>250.4</ele>
        <time>2018-04-10T09:22:16Z</time>
      </trkpt>
      <trkpt lat="41.4251360" lon="2.1340690">
        <ele>249.4</ele>
        <time>2018-04-10T09:22:17Z</time>
      </trkpt>
      <trkpt lat="41.4251470" lon="2.1342160">
        <ele>248.6</ele>
        <time>2018-04-10T09:22:18Z</time>
      </trkpt>
      <trkpt lat="41.4251390" lon="2.1343620">
        <ele>247.8</ele>
        <time>2018-04-10T09:22:19Z</time>
      </trkpt>
      <trkpt lat="41.4251140" lon="2.1345030">
        <ele>247.0</ele>
        <time>2018-04-10T09:22:20Z</time>
      </trkpt>
      <trkpt lat="41.4250760" lon="2.1346390">
        <ele>246.2</ele>
        <time>2018-04-10T09:22:21Z</time>
      </trkpt>
      <trkpt lat="41.4250290" lon="2.1347690">
        <ele>245.4</ele>
        <time>2018-04-10T09:22:22Z</time>
      </trkpt>
      <trkpt lat="41.4249790" lon="2.1348960">
        <ele>244.6</ele>
        <time>2018-04-10T09:22:23Z</time>
      </trkpt>
      <trkpt lat="41.4249310" lon="2.1350240">
        <ele>244.0</ele>
        <time>2018-04-10T09:22:24Z</time>
      </trkpt>
      <trkpt lat="41.4248860" lon="2.1351540">
        <ele>243.4</ele>
        <time>2018-04-10T09:22:25Z</time>
      </trkpt>
      <trkpt lat="41.4248450" lon="2.1352870">
        <ele>242.0</ele>
        <time>2018-04-10T09:22:26Z</time>
      </trkpt>
      <trkpt lat="41.4248030" lon="2.1354200">
        <ele>241.2</ele>
        <time>2018-04-10T09:22:27Z</time>
      </trkpt>
      <trkpt lat="41.4247630" lon="2.1355520">
        <ele>240.6</ele>
        <time>2018-04-10T09:22:28Z</time>
      </trkpt>
      <trkpt lat="41.4247240" lon="2.1356840">
        <ele>240.0</ele>
        <time>2018-04-10T09:22:29Z</time>
      </trkpt>
      <trkpt lat="41.4246790" lon="2.1358110">
        <ele>239.4</ele>
        <time>2018-04-10T09:22:30Z</time>
      </trkpt>
      <trkpt lat="41.4246200" lon="2.1359290">
        <ele>238.8</ele>
        <time>2018-04-10T09:22:31Z</time>
      </trkpt>
      <trkpt lat="41.4245450" lon="2.1360300">
        <ele>238.2</ele>
        <time>2018-04-10T09:22:32Z</time>
      </trkpt>
      <trkpt lat="41.4244550" lon="2.1361100">
        <ele>237.6</ele>
        <time>2018-04-10T09:22:33Z</time>
      </trkpt>
      <trkpt lat="41.4243560" lon="2.1361650">
        <ele>237.0</ele>
        <time>2018-04-10T09:22:34Z</time>
      </trkpt>
      <trkpt lat="41.4242500" lon="2.1361940">
        <ele>236.4</ele>
        <time>2018-04-10T09:22:35Z</time>
      </trkpt>
      <trkpt lat="41.4241430" lon="2.1362020">
        <ele>235.8</ele>
        <time>2018-04-10T09:22:36Z</time>
      </trkpt>
      <trkpt lat="41.4240370" lon="2.1361980">
        <ele>235.2</ele>
        <time>2018-04-10T09:22:37Z</time>
      </trkpt>
      <trkpt lat="41.4239300" lon="2.1361920">
        <ele>234.8</ele>
        <time>2018-04-10T09:22:38Z</time>
      </trkpt>
      <trkpt lat="41.4238230" lon="2.1362050">
        <ele>234.2</ele>
        <time>2018-04-10T09:22:39Z</time>
      </trkpt>
      <trkpt lat="41.4237280" lon="2.1362470">
        <ele>233.6</ele>
        <time>2018-04-10T09:22:40Z</time>
      </trkpt>
      <trkpt lat="41.4236520" lon="2.1363170">
        <ele>232.8</ele>
        <time>2018-04-10T09:22:41Z</time>
      </trkpt>
      <trkpt lat="41.4235960" lon="2.1364140">
        <ele>232.2</ele>
        <time>2018-04-10T09:22:42Z</time>
      </trkpt>
      <trkpt lat="41.4235590" lon="2.1365370">
        <ele>231.4</ele>
        <time>2018-04-10T09:22:43Z</time>
      </trkpt>
      <trkpt lat="41.4235390" lon="2.1366750">
        <ele>230.6</ele>
        <time>2018-04-10T09:22:44Z</time>
      </trkpt>
      <trkpt lat="41.4235300" lon="2.1368150">
        <ele>229.8</ele>
        <time>2018-04-10T09:22:45Z</time>
      </trkpt>
      <trkpt lat="41.4235220" lon="2.1369560">
        <ele>229.2</ele>
        <time>2018-04-10T09:22:46Z</time>
      </trkpt>
      <trkpt lat="41.4235050" lon="2.1370980">
        <ele>228.6</ele>
        <time>2018-04-10T09:22:47Z</time>
      </trkpt>
      <trkpt lat="41.4234740" lon="2.1372370">
        <ele>227.8</ele>
        <time>2018-04-10T09:22:48Z</time>
      </trkpt>
      <trkpt lat="41.4234320" lon="2.1373710">
        <ele>227.4</ele>
        <time>2018-04-10T09:22:49Z</time>
      </trkpt>
      <trkpt lat="41.4233200" lon="2.1376170">
        <ele>226.4</ele>
        <time>2018-04-10T09:22:51Z</time>
      </trkpt>
      <trkpt lat="41.4231770" lon="2.1378290">
        <ele>225.2</ele>
        <time>2018-04-10T09:22:53Z</time>
      </trkpt>
      <trkpt lat="41.4230080" lon="2.1380000">
        <ele>222.8</ele>
        <time>2018-04-10T09:22:55Z</time>
      </trkpt>
      <trkpt lat="41.4228180" lon="2.1381250">
        <ele>221.6</ele>
        <time>2018-04-10T09:22:57Z</time>
      </trkpt>
      <trkpt lat="41.4227170" lon="2.1381670">
        <ele>221.0</ele>
        <time>2018-04-10T09:22:58Z</time>
      </trkpt>
      <trkpt lat="41.4226150" lon="2.1382040">
        <ele>220.4</ele>
        <time>2018-04-10T09:22:59Z</time>
      </trkpt>
      <trkpt lat="41.4224080" lon="2.1382840">
        <ele>219.2</ele>
        <time>2018-04-10T09:23:01Z</time>
      </trkpt>
      <trkpt lat="41.4221990" lon="2.1383650">
        <ele>217.8</ele>
        <time>2018-04-10T09:23:03Z</time>
      </trkpt>
      <trkpt lat="41.4219970" lon="2.1384400">
        <ele>216.4</ele>
        <time>2018-04-10T09:23:05Z</time>
      </trkpt>
      <trkpt lat="41.4219000" lon="2.1384600">
        <ele>215.8</ele>
        <time>2018-04-10T09:23:06Z</time>
      </trkpt>
      <trkpt lat="41.4218040" lon="2.1384600">
        <ele>215.0</ele>
        <time>2018-04-10T09:23:07Z</time>
      </trkpt>
      <trkpt lat="41.4216220" lon="2.1383710">
        <ele>214.0</ele>
        <time>2018-04-10T09:23:09Z</time>
      </trkpt>
      <trkpt lat="41.4214790" lon="2.1381770">
        <ele>212.8</ele>
        <time>2018-04-10T09:23:11Z</time>
      </trkpt>
      <trkpt lat="41.4213920" lon="2.1379370">
        <ele>211.6</ele>
        <time>2018-04-10T09:23:13Z</time>
      </trkpt>
      <trkpt lat="41.4212680" lon="2.1377560">
        <ele>210.4</ele>
        <time>2018-04-10T09:23:15Z</time>
      </trkpt>
      <trkpt lat="41.4210810" lon="2.1376960">
        <ele>209.0</ele>
        <time>2018-04-10T09:23:17Z</time>
      </trkpt>
      <trkpt lat="41.4209150" lon="2.1378220">
        <ele>207.4</ele>
        <time>2018-04-10T09:23:19Z</time>
      </trkpt>
      <trkpt lat="41.4208100" lon="2.1380640">
        <ele>205.8</ele>
        <time>2018-04-10T09:23:21Z</time>
      </trkpt>
      <trkpt lat="41.4207310" lon="2.1383360">
        <ele>204.6</ele>
        <time>2018-04-10T09:23:23Z</time>
      </trkpt>
      <trkpt lat="41.4206980" lon="2.1384490">
        <ele>203.2</ele>
        <time>2018-04-10T09:23:24Z</time>
      </trkpt>
      <trkpt lat="41.4206720" lon="2.1385450">
        <ele>202.6</ele>
        <time>2018-04-10T09:23:25Z</time>
      </trkpt>
      <trkpt lat="41.4206530" lon="2.1386280">
        <ele>201.6</ele>
        <time>2018-04-10T09:23:26Z</time>
      </trkpt>
      <trkpt lat="41.4206390" lon="2.1386950">
        <ele>200.8</ele>
        <time>2018-04-10T09:23:27Z</time>
      </trkpt>
      <trkpt lat="41.4206260" lon="2.1387530">
        <ele>200.2</ele>
        <time>2018-04-10T09:23:28Z</time>
      </trkpt>
      <trkpt lat="41.4206070" lon="2.1388100">
        <ele>199.4</ele>
        <time>2018-04-10T09:23:29Z</time>
      </trkpt>
      <trkpt lat="41.4205810" lon="2.1388700">
        <ele>198.6</ele>
        <time>2018-04-10T09:23:30Z</time>
      </trkpt>
      <trkpt lat="41.4205470" lon="2.1389290">
        <ele>198.0</ele>
        <time>2018-04-10T09:23:31Z</time>
      </trkpt>
      <trkpt lat="41.4205030" lon="2.1389790">
        <ele>197.2</ele>
        <time>2018-04-10T09:23:32Z</time>
      </trkpt>
      <trkpt lat="41.4204450" lon="2.1390090">
        <ele>196.6</ele>
        <time>2018-04-10T09:23:33Z</time>
      </trkpt>
      <trkpt lat="41.4203780" lon="2.1390210">
        <ele>196.0</ele>
        <time>2018-04-10T09:23:34Z</time>
      </trkpt>
      <trkpt lat="41.4203070" lon="2.1390120">
        <ele>195.6</ele>
        <time>2018-04-10T09:23:35Z</time>
      </trkpt>
      <trkpt lat="41.4201550" lon="2.1389580">
        <ele>194.8</ele>
        <time>2018-04-10T09:23:37Z</time>
      </trkpt>
      <trkpt lat="41.4199980" lon="2.1388920">
        <ele>193.8</ele>
        <time>2018-04-10T09:23:39Z</time>
      </trkpt>
      <trkpt lat="41.4199140" lon="2.1388590">
        <ele>193.4</ele>
        <time>2018-04-10T09:23:40Z</time>
      </trkpt>
      <trkpt lat="41.4198310" lon="2.1388280">
        <ele>193.0</ele>
        <time>2018-04-10T09:23:41Z</time>
      </trkpt>
      <trkpt lat="41.4197470" lon="2.1387980">
        <ele>192.4</ele>
        <time>2018-04-10T09:23:42Z</time>
      </trkpt>
      <trkpt lat="41.4196620" lon="2.1387670">
        <ele>191.8</ele>
        <time>2018-04-10T09:23:43Z</time>
      </trkpt>
      <trkpt lat="41.4195750" lon="2.1387400">
        <ele>191.2</ele>
        <time>2018-04-10T09:23:44Z</time>
      </trkpt>
      <trkpt lat="41.4194870" lon="2.1387160">
        <ele>190.4</ele>
        <time>2018-04-10T09:23:45Z</time>
      </trkpt>
      <trkpt lat="41.4193990" lon="2.1386970">
        <ele>189.8</ele>
        <time>2018-04-10T09:23:46Z</time>
      </trkpt>
      <trkpt lat="41.4193090" lon="2.1386810">
        <ele>189.4</ele>
        <time>2018-04-10T09:23:47Z</time>
      </trkpt>
      <trkpt lat="41.4192170" lon="2.1386640">
        <ele>188.8</ele>
        <time>2018-04-10T09:23:48Z</time>
      </trkpt>
      <trkpt lat="41.4191260" lon="2.1386480">
        <ele>188.2</ele>
        <time>2018-04-10T09:23:49Z</time>
      </trkpt>
      <trkpt lat="41.4189450" lon="2.1386190">
        <ele>187.2</ele>
        <time>2018-04-10T09:23:51Z</time>
      </trkpt>
      <trkpt lat="41.4187850" lon="2.1386090">
        <ele>185.2</ele>
        <time>2018-04-10T09:23:53Z</time>
      </trkpt>
      <trkpt lat="41.4186400" lon="2.1386150">
        <ele>184.2</ele>
        <time>2018-04-10T09:23:55Z</time>
      </trkpt>
      <trkpt lat="41.4184890" lon="2.1386150">
        <ele>182.8</ele>
        <time>2018-04-10T09:23:57Z</time>
      </trkpt>
      <trkpt lat="41.4184150" lon="2.1385990">
        <ele>182.2</ele>
        <time>2018-04-10T09:23:58Z</time>
      </trkpt>
      <trkpt lat="41.4183410" lon="2.1385690">
        <ele>181.6</ele>
        <time>2018-04-10T09:23:59Z</time>
      </trkpt>
      <trkpt lat="41.4182020" lon="2.1384810">
        <ele>180.8</ele>
        <time>2018-04-10T09:24:01Z</time>
      </trkpt>
      <trkpt lat="41.4181450" lon="2.1384390">
        <ele>180.2</ele>
        <time>2018-04-10T09:24:02Z</time>
      </trkpt>
      <trkpt lat="41.4181030" lon="2.1384030">
        <ele>179.8</ele>
        <time>2018-04-10T09:24:03Z</time>
      </trkpt>
      <trkpt lat="41.4180720" lon="2.1383760">
        <ele>179.2</ele>
        <time>2018-04-10T09:24:04Z</time>
      </trkpt>
      <trkpt lat="41.4180510" lon="2.1383650">
        <ele>178.8</ele>
        <time>2018-04-10T09:24:05Z</time>
      </trkpt>
      <trkpt lat="41.4180330" lon="2.1383890">
        <ele>177.8</ele>
        <time>2018-04-10T09:24:07Z</time>
      </trkpt>
      <trkpt lat="41.4180500" lon="2.1384380">
        <ele>176.6</ele>
        <time>2018-04-10T09:24:09Z</time>
      </trkpt>
      <trkpt lat="41.4180820" lon="2.1384480">
        <ele>175.8</ele>
        <time>2018-04-10T09:24:11Z</time>
      </trkpt>
      <trkpt lat="41.4181260" lon="2.1384760">
        <ele>175.6</ele>
        <time>2018-04-10T09:24:13Z</time>
      </trkpt>
      <trkpt lat="41.4181810" lon="2.1385130">
        <ele>175.4</ele>
        <time>2018-04-10T09:24:15Z</time>
      </trkpt>
      <trkpt lat="41.4182370" lon="2.1385450">
        <ele>175.4</ele>
        <time>2018-04-10T09:24:17Z</time>
      </trkpt>
      <trkpt lat="41.4182900" lon="2.1385820">
        <ele>175.4</ele>
        <time>2018-04-10T09:24:19Z</time>
      </trkpt>
      <trkpt lat="41.4183380" lon="2.1386200">
        <ele>175.6</ele>
        <time>2018-04-10T09:24:21Z</time>
      </trkpt>
      <trkpt lat="41.4183950" lon="2.1386560">
        <ele>175.8</ele>
        <time>2018-04-10T09:24:23Z</time>
      </trkpt>
      <trkpt lat="41.4184610" lon="2.1386750">
        <ele>176.4</ele>
        <time>2018-04-10T09:24:25Z</time>
      </trkpt>
      <trkpt lat="41.4184950" lon="2.1386800">
        <ele>176.6</ele>
        <time>2018-04-10T09:24:26Z</time>
      </trkpt>
      <trkpt lat="41.4185270" lon="2.1386820">
        <ele>176.8</ele>
        <time>2018-04-10T09:24:27Z</time>
      </trkpt>
      <trkpt lat="41.4185860" lon="2.1386820">
        <ele>177.2</ele>
        <time>2018-04-10T09:24:29Z</time>
      </trkpt>
      <trkpt lat="41.4186500" lon="2.1386790">
        <ele>177.8</ele>
        <time>2018-04-10T09:24:31Z</time>
      </trkpt>
      <trkpt lat="41.4187110" lon="2.1386740">
        <ele>178.0</ele>
        <time>2018-04-10T09:24:33Z</time>
      </trkpt>
      <trkpt lat="41.4187720" lon="2.1386730">
        <ele>178.4</ele>
        <time>2018-04-10T09:24:35Z</time>
      </trkpt>
      <trkpt lat="41.4188350" lon="2.1386670">
        <ele>178.8</ele>
        <time>2018-04-10T09:24:37Z</time>
      </trkpt>
      <trkpt lat="41.4189030" lon="2.1386670">
        <ele>179.2</ele>
        <time>2018-04-10T09:24:39Z</time>
      </trkpt>
      <trkpt lat="41.4189710" lon="2.1386650">
        <ele>179.4</ele>
        <time>2018-04-10T09:24:41Z</time>
      </trkpt>
      <trkpt lat="41.4190370" lon="2.1386660">
        <ele>179.8</ele>
        <time>2018-04-10T09:24:43Z</time>
      </trkpt>
      <trkpt lat="41.4191020" lon="2.1386720">
        <ele>180.4</ele>
        <time>2018-04-10T09:24:45Z</time>
      </trkpt>
      <trkpt lat="41.4191690" lon="2.1386870">
        <ele>180.6</ele>
        <time>2018-04-10T09:24:47Z</time>
      </trkpt>
      <trkpt lat="41.4192330" lon="2.1387020">
        <ele>181.0</ele>
        <time>2018-04-10T09:24:49Z</time>
      </trkpt>
      <trkpt lat="41.4192970" lon="2.1387190">
        <ele>181.8</ele>
        <time>2018-04-10T09:24:51Z</time>
      </trkpt>
      <trkpt lat="41.4193620" lon="2.1387380">
        <ele>182.2</ele>
        <time>2018-04-10T09:24:53Z</time>
      </trkpt>
      <trkpt lat="41.4194260" lon="2.1387600">
        <ele>182.6</ele>
        <time>2018-04-10T09:24:55Z</time>
      </trkpt>
      <trkpt lat="41.4194920" lon="2.1387810">
        <ele>183.2</ele>
        <time>2018-04-10T09:24:57Z</time>
      </trkpt>
      <trkpt lat="41.4195560" lon="2.1388090">
        <ele>183.8</ele>
        <time>2018-04-10T09:24:59Z</time>
      </trkpt>
      <trkpt lat="41.4196220" lon="2.1388320">
        <ele>184.0</ele>
        <time>2018-04-10T09:25:01Z</time>
      </trkpt>
      <trkpt lat="41.4196530" lon="2.1388460">
        <ele>184.2</ele>
        <time>2018-04-10T09:25:02Z</time>
      </trkpt>
      <trkpt lat="41.4196840" lon="2.1388600">
        <ele>184.6</ele>
        <time>2018-04-10T09:25:03Z</time>
      </trkpt>
      <trkpt lat="41.4197460" lon="2.1388830">
        <ele>185.0</ele>
        <time>2018-04-10T09:25:05Z</time>
      </trkpt>
      <trkpt lat="41.4198080" lon="2.1389060">
        <ele>185.2</ele>
        <time>2018-04-10T09:25:07Z</time>
      </trkpt>
      <trkpt lat="41.4198370" lon="2.1389210">
        <ele>185.4</ele>
        <time>2018-04-10T09:25:08Z</time>
      </trkpt>
      <trkpt lat="41.4198660" lon="2.1389350">
        <ele>185.8</ele>
        <time>2018-04-10T09:25:09Z</time>
      </trkpt>
      <trkpt lat="41.4199300" lon="2.1389600">
        <ele>186.0</ele>
        <time>2018-04-10T09:25:11Z</time>
      </trkpt>
      <trkpt lat="41.4199960" lon="2.1389870">
        <ele>186.6</ele>
        <time>2018-04-10T09:25:13Z</time>
      </trkpt>
      <trkpt lat="41.4200590" lon="2.1390100">
        <ele>187.2</ele>
        <time>2018-04-10T09:25:15Z</time>
      </trkpt>
      <trkpt lat="41.4201220" lon="2.1390330">
        <ele>187.4</ele>
        <time>2018-04-10T09:25:17Z</time>
      </trkpt>
      <trkpt lat="41.4201860" lon="2.1390500">
        <ele>187.8</ele>
        <time>2018-04-10T09:25:19Z</time>
      </trkpt>
      <trkpt lat="41.4202550" lon="2.1390620">
        <ele>188.6</ele>
        <time>2018-04-10T09:25:21Z</time>
      </trkpt>
      <trkpt lat="41.4202890" lon="2.1390670">
        <ele>189.0</ele>
        <time>2018-04-10T09:25:22Z</time>
      </trkpt>
      <trkpt lat="41.4203230" lon="2.1390700">
        <ele>189.0</ele>
        <time>2018-04-10T09:25:23Z</time>
      </trkpt>
      <trkpt lat="41.4203890" lon="2.1390640">
        <ele>189.6</ele>
        <time>2018-04-10T09:25:25Z</time>
      </trkpt>
      <trkpt lat="41.4204220" lon="2.1390560">
        <ele>189.8</ele>
        <time>2018-04-10T09:25:26Z</time>
      </trkpt>
      <trkpt lat="41.4204550" lon="2.1390420">
        <ele>190.0</ele>
        <time>2018-04-10T09:25:27Z</time>
      </trkpt>
      <trkpt lat="41.4205160" lon="2.1390020">
        <ele>190.4</ele>
        <time>2018-04-10T09:25:29Z</time>
      </trkpt>
      <trkpt lat="41.4205670" lon="2.1389440">
        <ele>191.0</ele>
        <time>2018-04-10T09:25:31Z</time>
      </trkpt>
      <trkpt lat="41.4206030" lon="2.1388630">
        <ele>191.4</ele>
        <time>2018-04-10T09:25:33Z</time>
      </trkpt>
      <trkpt lat="41.4206360" lon="2.1387810">
        <ele>192.0</ele>
        <time>2018-04-10T09:25:35Z</time>
      </trkpt>
      <trkpt lat="41.4206670" lon="2.1387050">
        <ele>192.6</ele>
        <time>2018-04-10T09:25:37Z</time>
      </trkpt>
      <trkpt lat="41.4206980" lon="2.1386320">
        <ele>193.2</ele>
        <time>2018-04-10T09:25:39Z</time>
      </trkpt>
      <trkpt lat="41.4207250" lon="2.1385530">
        <ele>193.6</ele>
        <time>2018-04-10T09:25:41Z</time>
      </trkpt>
      <trkpt lat="41.4207500" lon="2.1384650">
        <ele>193.8</ele>
        <time>2018-04-10T09:25:43Z</time>
      </trkpt>
      <trkpt lat="41.4207790" lon="2.1383810">
        <ele>194.4</ele>
        <time>2018-04-10T09:25:45Z</time>
      </trkpt>
      <trkpt lat="41.4208060" lon="2.1383000">
        <ele>195.0</ele>
        <time>2018-04-10T09:25:47Z</time>
      </trkpt>
      <trkpt lat="41.4208290" lon="2.1382170">
        <ele>195.8</ele>
        <time>2018-04-10T09:25:49Z</time>
      </trkpt>
      <trkpt lat="41.4208550" lon="2.1381400">
        <ele>196.4</ele>
        <time>2018-04-10T09:25:51Z</time>
      </trkpt>
      <trkpt lat="41.4208850" lon="2.1380630">
        <ele>196.8</ele>
        <time>2018-04-10T09:25:53Z</time>
      </trkpt>
      <trkpt lat="41.4209140" lon="2.1379830">
        <ele>197.4</ele>
        <time>2018-04-10T09:25:55Z</time>
      </trkpt>
      <trkpt lat="41.4209480" lon="2.1379080">
        <ele>198.0</ele>
        <time>2018-04-10T09:25:57Z</time>
      </trkpt>
      <trkpt lat="41.4209900" lon="2.1378480">
        <ele>198.4</ele>
        <time>2018-04-10T09:25:59Z</time>
      </trkpt>
      <trkpt lat="41.4210410" lon="2.1378080">
        <ele>198.8</ele>
        <time>2018-04-10T09:26:01Z</time>
      </trkpt>
      <trkpt lat="41.4210710" lon="2.1377970">
        <ele>199.2</ele>
        <time>2018-04-10T09:26:02Z</time>
      </trkpt>
      <trkpt lat="41.4211020" lon="2.1377890">
        <ele>199.4</ele>
        <time>2018-04-10T09:26:03Z</time>
      </trkpt>
      <trkpt lat="41.4211630" lon="2.1377890">
        <ele>199.8</ele>
        <time>2018-04-10T09:26:05Z</time>
      </trkpt>
      <trkpt lat="41.4212140" lon="2.1378130">
        <ele>200.4</ele>
        <time>2018-04-10T09:26:07Z</time>
      </trkpt>
      <trkpt lat="41.4212620" lon="2.1378670">
        <ele>200.8</ele>
        <time>2018-04-10T09:26:09Z</time>
      </trkpt>
      <trkpt lat="41.4213010" lon="2.1379370">
        <ele>201.4</ele>
        <time>2018-04-10T09:26:11Z</time>
      </trkpt>
      <trkpt lat="41.4213350" lon="2.1380120">
        <ele>202.0</ele>
        <time>2018-04-10T09:26:13Z</time>
      </trkpt>
      <trkpt lat="41.4213680" lon="2.1380890">
        <ele>202.4</ele>
        <time>2018-04-10T09:26:15Z</time>
      </trkpt>
      <trkpt lat="41.4214050" lon="2.1381630">
        <ele>202.8</ele>
        <time>2018-04-10T09:26:17Z</time>
      </trkpt>
      <trkpt lat="41.4214470" lon="2.1382400">
        <ele>203.4</ele>
        <time>2018-04-10T09:26:19Z</time>
      </trkpt>
      <trkpt lat="41.4214740" lon="2.1382750">
        <ele>203.6</ele>
        <time>2018-04-10T09:26:20Z</time>
      </trkpt>
      <trkpt lat="41.4214990" lon="2.1383100">
        <ele>204.0</ele>
        <time>2018-04-10T09:26:21Z</time>
      </trkpt>
      <trkpt lat="41.4215520" lon="2.1383750">
        <ele>204.4</ele>
        <time>2018-04-10T09:26:23Z</time>
      </trkpt>
      <trkpt lat="41.4216150" lon="2.1384280">
        <ele>205.0</ele>
        <time>2018-04-10T09:26:25Z</time>
      </trkpt>
      <trkpt lat="41.4216810" lon="2.1384630">
        <ele>205.6</ele>
        <time>2018-04-10T09:26:27Z</time>
      </trkpt>
      <trkpt lat="41.4217500" lon="2.1384850">
        <ele>206.2</ele>
        <time>2018-04-10T09:26:29Z</time>
      </trkpt>
      <trkpt lat="41.4218230" lon="2.1384890">
        <ele>206.6</ele>
        <time>2018-04-10T09:26:31Z</time>
      </trkpt>
      <trkpt lat="41.4218990" lon="2.1384800">
        <ele>207.0</ele>
        <time>2018-04-10T09:26:33Z</time>
      </trkpt>
      <trkpt lat="41.4219360" lon="2.1384720">
        <ele>207.2</ele>
        <time>2018-04-10T09:26:34Z</time>
      </trkpt>
      <trkpt lat="41.4219730" lon="2.1384660">
        <ele>207.6</ele>
        <time>2018-04-10T09:26:35Z</time>
      </trkpt>
      <trkpt lat="41.4220480" lon="2.1384450">
        <ele>208.2</ele>
        <time>2018-04-10T09:26:37Z</time>
      </trkpt>
      <trkpt lat="41.4220850" lon="2.1384310">
        <ele>208.4</ele>
        <time>2018-04-10T09:26:38Z</time>
      </trkpt>
      <trkpt lat="41.4221210" lon="2.1384160">
        <ele>208.6</ele>
        <time>2018-04-10T09:26:39Z</time>
      </trkpt>
      <trkpt lat="41.4221950" lon="2.1383890">
        <ele>209.2</ele>
        <time>2018-04-10T09:26:41Z</time>
      </trkpt>
      <trkpt lat="41.4222300" lon="2.1383720">
        <ele>209.6</ele>
        <time>2018-04-10T09:26:42Z</time>
      </trkpt>
      <trkpt lat="41.4222660" lon="2.1383560">
        <ele>209.8</ele>
        <time>2018-04-10T09:26:43Z</time>
      </trkpt>
      <trkpt lat="41.4223370" lon="2.1383290">
        <ele>210.4</ele>
        <time>2018-04-10T09:26:45Z</time>
      </trkpt>
      <trkpt lat="41.4223730" lon="2.1383180">
        <ele>210.8</ele>
        <time>2018-04-10T09:26:46Z</time>
      </trkpt>
      <trkpt lat="41.4224090" lon="2.1383040">
        <ele>211.0</ele>
        <time>2018-04-10T09:26:47Z</time>
      </trkpt>
      <trkpt lat="41.4224820" lon="2.1382750">
        <ele>211.8</ele>
        <time>2018-04-10T09:26:49Z</time>
      </trkpt>
      <trkpt lat="41.4225170" lon="2.1382590">
        <ele>212.0</ele>
        <time>2018-04-10T09:26:50Z</time>
      </trkpt>
      <trkpt lat="41.4225530" lon="2.1382450">
        <ele>212.2</ele>
        <time>2018-04-10T09:26:51Z</time>
      </trkpt>
      <trkpt lat="41.4226250" lon="2.1382120">
        <ele>212.8</ele>
        <time>2018-04-10T09:26:53Z</time>
      </trkpt>
      <trkpt lat="41.4226620" lon="2.1381990">
        <ele>213.0</ele>
        <time>2018-04-10T09:26:54Z</time>
      </trkpt>
      <trkpt lat="41.4226990" lon="2.1381850">
        <ele>213.2</ele>
        <time>2018-04-10T09:26:55Z</time>
      </trkpt>
      <trkpt lat="41.4227740" lon="2.1381530">
        <ele>213.6</ele>
        <time>2018-04-10T09:26:57Z</time>
      </trkpt>
      <trkpt lat="41.4228450" lon="2.1381160">
        <ele>213.8</ele>
        <time>2018-04-10T09:26:59Z</time>
      </trkpt>
      <trkpt lat="41.4228770" lon="2.1380950">
        <ele>214.2</ele>
        <time>2018-04-10T09:27:00Z</time>
      </trkpt>
      <trkpt lat="41.4229100" lon="2.1380740">
        <ele>214.4</ele>
        <time>2018-04-10T09:27:01Z</time>
      </trkpt>
      <trkpt lat="41.4229740" lon="2.1380270">
        <ele>214.8</ele>
        <time>2018-04-10T09:27:03Z</time>
      </trkpt>
      <trkpt lat="41.4230380" lon="2.1379720">
        <ele>215.2</ele>
        <time>2018-04-10T09:27:05Z</time>
      </trkpt>
      <trkpt lat="41.4230990" lon="2.1379110">
        <ele>215.6</ele>
        <time>2018-04-10T09:27:07Z</time>
      </trkpt>
      <trkpt lat="41.4231600" lon="2.1378520">
        <ele>215.8</ele>
        <time>2018-04-10T09:27:09Z</time>
      </trkpt>
      <trkpt lat="41.4232170" lon="2.1377880">
        <ele>216.2</ele>
        <time>2018-04-10T09:27:11Z</time>
      </trkpt>
      <trkpt lat="41.4232710" lon="2.1377220">
        <ele>216.6</ele>
        <time>2018-04-10T09:27:13Z</time>
      </trkpt>
      <trkpt lat="41.4233220" lon="2.1376510">
        <ele>217.0</ele>
        <time>2018-04-10T09:27:15Z</time>
      </trkpt>
      <trkpt lat="41.4233460" lon="2.1376120">
        <ele>217.4</ele>
        <time>2018-04-10T09:27:16Z</time>
      </trkpt>
      <trkpt lat="41.4233690" lon="2.1375720">
        <ele>217.8</ele>
        <time>2018-04-10T09:27:17Z</time>
      </trkpt>
      <trkpt lat="41.4234140" lon="2.1374880">
        <ele>218.4</ele>
        <time>2018-04-10T09:27:19Z</time>
      </trkpt>
      <trkpt lat="41.4234500" lon="2.1373990">
        <ele>218.8</ele>
        <time>2018-04-10T09:27:21Z</time>
      </trkpt>
      <trkpt lat="41.4234830" lon="2.1373100">
        <ele>219.4</ele>
        <time>2018-04-10T09:27:23Z</time>
      </trkpt>
      <trkpt lat="41.4234970" lon="2.1372630">
        <ele>219.6</ele>
        <time>2018-04-10T09:27:24Z</time>
      </trkpt>
      <trkpt lat="41.4235080" lon="2.1372150">
        <ele>220.0</ele>
        <time>2018-04-10T09:27:25Z</time>
      </trkpt>
      <trkpt lat="41.4235280" lon="2.1371180">
        <ele>220.4</ele>
        <time>2018-04-10T09:27:27Z</time>
      </trkpt>
      <trkpt lat="41.4235400" lon="2.1370220">
        <ele>220.8</ele>
        <time>2018-04-10T09:27:29Z</time>
      </trkpt>
      <trkpt lat="41.4235490" lon="2.1369240">
        <ele>221.2</ele>
        <time>2018-04-10T09:27:31Z</time>
      </trkpt>
      <trkpt lat="41.4235600" lon="2.1368260">
        <ele>221.6</ele>
        <time>2018-04-10T09:27:33Z</time>
      </trkpt>
      <trkpt lat="41.4235670" lon="2.1367250">
        <ele>221.8</ele>
        <time>2018-04-10T09:27:35Z</time>
      </trkpt>
      <trkpt lat="41.4235780" lon="2.1366260">
        <ele>222.4</ele>
        <time>2018-04-10T09:27:37Z</time>
      </trkpt>
      <trkpt lat="41.4235910" lon="2.1365290">
        <ele>223.0</ele>
        <time>2018-04-10T09:27:39Z</time>
      </trkpt>
      <trkpt lat="41.4236140" lon="2.1364360">
        <ele>223.6</ele>
        <time>2018-04-10T09:27:41Z</time>
      </trkpt>
      <trkpt lat="41.4236520" lon="2.1363550">
        <ele>224.2</ele>
        <time>2018-04-10T09:27:43Z</time>
      </trkpt>
      <trkpt lat="41.4237020" lon="2.1362920">
        <ele>224.6</ele>
        <time>2018-04-10T09:27:45Z</time>
      </trkpt>
      <trkpt lat="41.4237260" lon="2.1362660">
        <ele>225.2</ele>
        <time>2018-04-10T09:27:46Z</time>
      </trkpt>
      <trkpt lat="41.4237530" lon="2.1362440">
        <ele>225.4</ele>
        <time>2018-04-10T09:27:47Z</time>
      </trkpt>
      <trkpt lat="41.4238150" lon="2.1362180">
        <ele>225.8</ele>
        <time>2018-04-10T09:27:49Z</time>
      </trkpt>
      <trkpt lat="41.4238760" lon="2.1362120">
        <ele>226.2</ele>
        <time>2018-04-10T09:27:51Z</time>
      </trkpt>
      <trkpt lat="41.4239100" lon="2.1362100">
        <ele>226.4</ele>
        <time>2018-04-10T09:27:52Z</time>
      </trkpt>
      <trkpt lat="41.4239490" lon="2.1362100">
        <ele>226.8</ele>
        <time>2018-04-10T09:27:53Z</time>
      </trkpt>
      <trkpt lat="41.4240210" lon="2.1362140">
        <ele>227.4</ele>
        <time>2018-04-10T09:27:55Z</time>
      </trkpt>
      <trkpt lat="41.4240580" lon="2.1362130">
        <ele>227.6</ele>
        <time>2018-04-10T09:27:56Z</time>
      </trkpt>
      <trkpt lat="41.4240960" lon="2.1362120">
        <ele>227.8</ele>
        <time>2018-04-10T09:27:57Z</time>
      </trkpt>
      <trkpt lat="41.4241720" lon="2.1362110">
        <ele>228.2</ele>
        <time>2018-04-10T09:27:59Z</time>
      </trkpt>
      <trkpt lat="41.4242470" lon="2.1362050">
        <ele>228.8</ele>
        <time>2018-04-10T09:28:01Z</time>
      </trkpt>
      <trkpt lat="41.4243200" lon="2.1361890">
        <ele>229.2</ele>
        <time>2018-04-10T09:28:03Z</time>
      </trkpt>
      <trkpt lat="41.4243900" lon="2.1361520">
        <ele>229.6</ele>
        <time>2018-04-10T09:28:05Z</time>
      </trkpt>
      <trkpt lat="41.4244240" lon="2.1361290">
        <ele>229.6</ele>
        <time>2018-04-10T09:28:06Z</time>
      </trkpt>
      <trkpt lat="41.4244580" lon="2.1361050">
        <ele>229.8</ele>
        <time>2018-04-10T09:28:07Z</time>
      </trkpt>
      <trkpt lat="41.4245230" lon="2.1360560">
        <ele>230.0</ele>
        <time>2018-04-10T09:28:09Z</time>
      </trkpt>
      <trkpt lat="41.4245810" lon="2.1359960">
        <ele>230.4</ele>
        <time>2018-04-10T09:28:11Z</time>
      </trkpt>
      <trkpt lat="41.4246060" lon="2.1359600">
        <ele>230.8</ele>
        <time>2018-04-10T09:28:12Z</time>
      </trkpt>
      <trkpt lat="41.4246290" lon="2.1359220">
        <ele>231.0</ele>
        <time>2018-04-10T09:28:13Z</time>
      </trkpt>
      <trkpt lat="41.4246650" lon="2.1358380">
        <ele>231.8</ele>
        <time>2018-04-10T09:28:15Z</time>
      </trkpt>
      <trkpt lat="41.4246980" lon="2.1357500">
        <ele>232.2</ele>
        <time>2018-04-10T09:28:17Z</time>
      </trkpt>
      <trkpt lat="41.4247300" lon="2.1356610">
        <ele>232.4</ele>
        <time>2018-04-10T09:28:19Z</time>
      </trkpt>
      <trkpt lat="41.4247630" lon="2.1355750">
        <ele>232.8</ele>
        <time>2018-04-10T09:28:21Z</time>
      </trkpt>
      <trkpt lat="41.4248000" lon="2.1354940">
        <ele>233.4</ele>
        <time>2018-04-10T09:28:23Z</time>
      </trkpt>
      <trkpt lat="41.4248310" lon="2.1354050">
        <ele>233.8</ele>
        <time>2018-04-10T09:28:25Z</time>
      </trkpt>
      <trkpt lat="41.4248450" lon="2.1353590">
        <ele>234.0</ele>
        <time>2018-04-10T09:28:26Z</time>
      </trkpt>
      <trkpt lat="41.4248610" lon="2.1353150">
        <ele>234.0</ele>
        <time>2018-04-10T09:28:27Z</time>
      </trkpt>
      <trkpt lat="41.4248880" lon="2.1352250">
        <ele>234.4</ele>
        <time>2018-04-10T09:28:29Z</time>
      </trkpt>
      <trkpt lat="41.4249130" lon="2.1351410">
        <ele>234.6</ele>
        <time>2018-04-10T09:28:31Z</time>
      </trkpt>
      <trkpt lat="41.4249440" lon="2.1350560">
        <ele>235.2</ele>
        <time>2018-04-10T09:28:33Z</time>
      </trkpt>
      <trkpt lat="41.4249770" lon="2.1349650">
        <ele>235.6</ele>
        <time>2018-04-10T09:28:35Z</time>
      </trkpt>
      <trkpt lat="41.4250140" lon="2.1348710">
        <ele>235.8</ele>
        <time>2018-04-10T09:28:37Z</time>
      </trkpt>
      <trkpt lat="41.4250530" lon="2.1347810">
        <ele>236.2</ele>
        <time>2018-04-10T09:28:39Z</time>
      </trkpt>
      <trkpt lat="41.4250910" lon="2.1346910">
        <ele>236.6</ele>
        <time>2018-04-10T09:28:41Z</time>
      </trkpt>
      <trkpt lat="41.4251220" lon="2.1345970">
        <ele>237.0</ele>
        <time>2018-04-10T09:28:43Z</time>
      </trkpt>
      <trkpt lat="41.4251370" lon="2.1345530">
        <ele>237.6</ele>
        <time>2018-04-10T09:28:44Z</time>
      </trkpt>
      <trkpt lat="41.4251500" lon="2.1345080">
        <ele>237.8</ele>
        <time>2018-04-10T09:28:45Z</time>
      </trkpt>
      <trkpt lat="41.4251710" lon="2.1344150">
        <ele>238.4</ele>
        <time>2018-04-10T09:28:47Z</time>
      </trkpt>
      <trkpt lat="41.4251780" lon="2.1343670">
        <ele>238.6</ele>
        <time>2018-04-10T09:28:48Z</time>
      </trkpt>
      <trkpt lat="41.4251800" lon="2.1343160">
        <ele>238.8</ele>
        <time>2018-04-10T09:28:49Z</time>
      </trkpt>
      <trkpt lat="41.4251760" lon="2.1342160">
        <ele>239.4</ele>
        <time>2018-04-10T09:28:51Z</time>
      </trkpt>
      <trkpt lat="41.4251590" lon="2.1341140">
        <ele>239.8</ele>
        <time>2018-04-10T09:28:53Z</time>
      </trkpt>
      <trkpt lat="41.4251350" lon="2.1340120">
        <ele>240.2</ele>
        <time>2018-04-10T09:28:55Z</time>
      </trkpt>
      <trkpt lat="41.4251180" lon="2.1339100">
        <ele>240.8</ele>
        <time>2018-04-10T09:28:57Z</time>
      </trkpt>
      <trkpt lat="41.4250980" lon="2.1338060">
        <ele>241.4</ele>
        <time>2018-04-10T09:28:59Z</time>
      </trkpt>
      <trkpt lat="41.4250780" lon="2.1337050">
        <ele>242.0</ele>
        <time>2018-04-10T09:29:01Z</time>
      </trkpt>
      <trkpt lat="41.4250560" lon="2.1336020">
        <ele>242.4</ele>
        <time>2018-04-10T09:29:03Z</time>
      </trkpt>
      <trkpt lat="41.4250400" lon="2.1334980">
        <ele>242.8</ele>
        <time>2018-04-10T09:29:05Z</time>
      </trkpt>
      <trkpt lat="41.4250260" lon="2.1334010">
        <ele>243.0</ele>
        <time>2018-04-10T09:29:07Z</time>
      </trkpt>
      <trkpt lat="41.4250200" lon="2.1332990">
        <ele>243.4</ele>
        <time>2018-04-10T09:29:09Z</time>
      </trkpt>
      <trkpt lat="41.4250190" lon="2.1332450">
        <ele>243.6</ele>
        <time>2018-04-10T09:29:10Z</time>
      </trkpt>
      <trkpt lat="41.4250200" lon="2.1331940">
        <ele>243.8</ele>
        <time>2018-04-10T09:29:11Z</time>
      </trkpt>
      <trkpt lat="41.4250260" lon="2.1330880">
        <ele>244.2</ele>
        <time>2018-04-10T09:29:13Z</time>
      </trkpt>
      <trkpt lat="41.4250330" lon="2.1329900">
        <ele>244.6</ele>
        <time>2018-04-10T09:29:15Z</time>
      </trkpt>
      <trkpt lat="41.4250370" lon="2.1329410">
        <ele>245.0</ele>
        <time>2018-04-10T09:29:16Z</time>
      </trkpt>
      <trkpt lat="41.4250420" lon="2.1328890">
        <ele>245.4</ele>
        <time>2018-04-10T09:29:17Z</time>
      </trkpt>
      <trkpt lat="41.4250510" lon="2.1327900">
        <ele>245.6</ele>
        <time>2018-04-10T09:29:19Z</time>
      </trkpt>
      <trkpt lat="41.4250550" lon="2.1327390">
        <ele>245.8</ele>
        <time>2018-04-10T09:29:20Z</time>
      </trkpt>
      <trkpt lat="41.4250540" lon="2.1326880">
        <ele>246.0</ele>
        <time>2018-04-10T09:29:21Z</time>
      </trkpt>
      <trkpt lat="41.4250630" lon="2.1325920">
        <ele>246.4</ele>
        <time>2018-04-10T09:29:23Z</time>
      </trkpt>
      <trkpt lat="41.4250690" lon="2.1324970">
        <ele>247.0</ele>
        <time>2018-04-10T09:29:25Z</time>
      </trkpt>
      <trkpt lat="41.4250750" lon="2.1323940">
        <ele>247.6</ele>
        <time>2018-04-10T09:29:27Z</time>
      </trkpt>
      <trkpt lat="41.4250790" lon="2.1323410">
        <ele>248.0</ele>
        <time>2018-04-10T09:29:28Z</time>
      </trkpt>
      <trkpt lat="41.4250810" lon="2.1322880">
        <ele>248.2</ele>
        <time>2018-04-10T09:29:29Z</time>
      </trkpt>
      <trkpt lat="41.4250890" lon="2.1321890">
        <ele>248.6</ele>
        <time>2018-04-10T09:29:31Z</time>
      </trkpt>
      <trkpt lat="41.4250900" lon="2.1320860">
        <ele>249.0</ele>
        <time>2018-04-10T09:29:33Z</time>
      </trkpt>
      <trkpt lat="41.4250950" lon="2.1319880">
        <ele>249.4</ele>
        <time>2018-04-10T09:29:35Z</time>
      </trkpt>
      <trkpt lat="41.4251050" lon="2.1318910">
        <ele>249.6</ele>
        <time>2018-04-10T09:29:37Z</time>
      </trkpt>
      <trkpt lat="41.4251060" lon="2.1317920">
        <ele>250.0</ele>
        <time>2018-04-10T09:29:39Z</time>
      </trkpt>
      <trkpt lat="41.4251090" lon="2.1316950">
        <ele>250.6</ele>
        <time>2018-04-10T09:29:41Z</time>
      </trkpt>
      <trkpt lat="41.4251160" lon="2.1315970">
        <ele>251.8</ele>
        <time>2018-04-10T09:29:43Z</time>
      </trkpt>
      <trkpt lat="41.4251170" lon="2.1315060">
        <ele>252.6</ele>
        <time>2018-04-10T09:29:45Z</time>
      </trkpt>
      <trkpt lat="41.4251250" lon="2.1314140">
        <ele>253.0</ele>
        <time>2018-04-10T09:29:47Z</time>
      </trkpt>
      <trkpt lat="41.4251270" lon="2.1313130">
        <ele>253.2</ele>
        <time>2018-04-10T09:29:49Z</time>
      </trkpt>
      <trkpt lat="41.4251200" lon="2.1312140">
        <ele>253.6</ele>
        <time>2018-04-10T09:29:51Z</time>
      </trkpt>
      <trkpt lat="41.4250940" lon="2.1311240">
        <ele>254.0</ele>
        <time>2018-04-10T09:29:53Z</time>
      </trkpt>
      <trkpt lat="41.4250670" lon="2.1310380">
        <ele>254.8</ele>
        <time>2018-04-10T09:29:55Z</time>
      </trkpt>
      <trkpt lat="41.4250510" lon="2.1309940">
        <ele>255.2</ele>
        <time>2018-04-10T09:29:56Z</time>
      </trkpt>
      <trkpt lat="41.4250320" lon="2.1309510">
        <ele>255.6</ele>
        <time>2018-04-10T09:29:57Z</time>
      </trkpt>
      <trkpt lat="41.4249940" lon="2.1308680">
        <ele>256.0</ele>
        <time>2018-04-10T09:29:59Z</time>
      </trkpt>
      <trkpt lat="41.4249760" lon="2.1308260">
        <ele>256.6</ele>
        <time>2018-04-10T09:30:00Z</time>
      </trkpt>
      <trkpt lat="41.4249640" lon="2.1307850">
        <ele>256.8</ele>
        <time>2018-04-10T09:30:01Z</time>
      </trkpt>
      <trkpt lat="41.4249390" lon="2.1307030">
        <ele>257.2</ele>
        <time>2018-04-10T09:30:03Z</time>
      </trkpt>
      <trkpt lat="41.4249040" lon="2.1306180">
        <ele>257.6</ele>
        <time>2018-04-10T09:30:05Z</time>
      </trkpt>
      <trkpt lat="41.4248720" lon="2.1305310">
        <ele>258.2</ele>
        <time>2018-04-10T09:30:07Z</time>
      </trkpt>
      <trkpt lat="41.4248360" lon="2.1304460">
        <ele>259.0</ele>
        <time>2018-04-10T09:30:09Z</time>
      </trkpt>
      <trkpt lat="41.4247990" lon="2.1303560">
        <ele>259.6</ele>
        <time>2018-04-10T09:30:11Z</time>
      </trkpt>
      <trkpt lat="41.4247790" lon="2.1303120">
        <ele>260.0</ele>
        <time>2018-04-10T09:30:12Z</time>
      </trkpt>
      <trkpt lat="41.4247600" lon="2.1302690">
        <ele>260.6</ele>
        <time>2018-04-10T09:30:13Z</time>
      </trkpt>
      <trkpt lat="41.4247210" lon="2.1301830">
        <ele>261.2</ele>
        <time>2018-04-10T09:30:15Z</time>
      </trkpt>
      <trkpt lat="41.4246850" lon="2.1300940">
        <ele>261.8</ele>
        <time>2018-04-10T09:30:17Z</time>
      </trkpt>
      <trkpt lat="41.4246410" lon="2.1300030">
        <ele>262.4</ele>
        <time>2018-04-10T09:30:19Z</time>
      </trkpt>
      <trkpt lat="41.4246010" lon="2.1299150">
        <ele>262.8</ele>
        <time>2018-04-10T09:30:21Z</time>
      </trkpt>
      <trkpt lat="41.4245610" lon="2.1298260">
        <ele>263.4</ele>
        <time>2018-04-10T09:30:23Z</time>
      </trkpt>
      <trkpt lat="41.4245420" lon="2.1297830">
        <ele>263.6</ele>
        <time>2018-04-10T09:30:24Z</time>
      </trkpt>
      <trkpt lat="41.4245240" lon="2.1297400">
        <ele>264.0</ele>
        <time>2018-04-10T09:30:25Z</time>
      </trkpt>
      <trkpt lat="41.4244930" lon="2.1296520">
        <ele>264.6</ele>
        <time>2018-04-10T09:30:27Z</time>
      </trkpt>
      <trkpt lat="41.4244770" lon="2.1296130">
        <ele>264.8</ele>
        <time>2018-04-10T09:30:28Z</time>
      </trkpt>
      <trkpt lat="41.4244590" lon="2.1295670">
        <ele>265.0</ele>
        <time>2018-04-10T09:30:29Z</time>
      </trkpt>
      <trkpt lat="41.4244300" lon="2.1294820">
        <ele>265.6</ele>
        <time>2018-04-10T09:30:31Z</time>
      </trkpt>
      <trkpt lat="41.4244150" lon="2.1294390">
        <ele>265.8</ele>
        <time>2018-04-10T09:30:32Z</time>
      </trkpt>
      <trkpt lat="41.4243990" lon="2.1293960">
        <ele>266.0</ele>
        <time>2018-04-10T09:30:33Z</time>
      </trkpt>
      <trkpt lat="41.4243630" lon="2.1293120">
        <ele>266.4</ele>
        <time>2018-04-10T09:30:35Z</time>
      </trkpt>
      <trkpt lat="41.4243420" lon="2.1292690">
        <ele>266.6</ele>
        <time>2018-04-10T09:30:36Z</time>
      </trkpt>
      <trkpt lat="41.4243220" lon="2.1292250">
        <ele>267.0</ele>
        <time>2018-04-10T09:30:37Z</time>
      </trkpt>
      <trkpt lat="41.4242850" lon="2.1291390">
        <ele>267.6</ele>
        <time>2018-04-10T09:30:39Z</time>
      </trkpt>
      <trkpt lat="41.4242690" lon="2.1290980">
        <ele>267.8</ele>
        <time>2018-04-10T09:30:40Z</time>
      </trkpt>
      <trkpt lat="41.4242510" lon="2.1290560">
        <ele>268.0</ele>
        <time>2018-04-10T09:30:41Z</time>
      </trkpt>
      <trkpt lat="41.4242150" lon="2.1289760">
        <ele>268.8</ele>
        <time>2018-04-10T09:30:43Z</time>
      </trkpt>
      <trkpt lat="41.4241990" lon="2.1289340">
        <ele>269.2</ele>
        <time>2018-04-10T09:30:44Z</time>
      </trkpt>
      <trkpt lat="41.4241920" lon="2.1288960">
        <ele>269.6</ele>
        <time>2018-04-10T09:30:45Z</time>
      </trkpt>
      <trkpt lat="41.4241860" lon="2.1288200">
        <ele>270.0</ele>
        <time>2018-04-10T09:30:47Z</time>
      </trkpt>
      <trkpt lat="41.4241820" lon="2.1287810">
        <ele>270.4</ele>
        <time>2018-04-10T09:30:48Z</time>
      </trkpt>
      <trkpt lat="41.4241780" lon="2.1287350">
        <ele>270.6</ele>
        <time>2018-04-10T09:30:49Z</time>
      </trkpt>
      <trkpt lat="41.4241900" lon="2.1286340">
        <ele>271.2</ele>
        <time>2018-04-10T09:30:51Z</time>
      </trkpt>
      <trkpt lat="41.4242020" lon="2.1285890">
        <ele>271.4</ele>
        <time>2018-04-10T09:30:52Z</time>
      </trkpt>
      <trkpt lat="41.4242180" lon="2.1285420">
        <ele>271.8</ele>
        <time>2018-04-10T09:30:53Z</time>
      </trkpt>
      <trkpt lat="41.4242700" lon="2.1284530">
        <ele>272.6</ele>
        <time>2018-04-10T09:30:55Z</time>
      </trkpt>
      <trkpt lat="41.4243420" lon="2.1283740">
        <ele>273.0</ele>
        <time>2018-04-10T09:30:57Z</time>
      </trkpt>
      <trkpt lat="41.4244200" lon="2.1283220">
        <ele>273.4</ele>
        <time>2018-04-10T09:30:59Z</time>
      </trkpt>
      <trkpt lat="41.4245030" lon="2.1283120">
        <ele>273.8</ele>
        <time>2018-04-10T09:31:01Z</time>
      </trkpt>
      <trkpt lat="41.4245830" lon="2.1283340">
        <ele>274.2</ele>
        <time>2018-04-10T09:31:03Z</time>
      </trkpt>
      <trkpt lat="41.4246200" lon="2.1283600">
        <ele>274.4</ele>
        <time>2018-04-10T09:31:04Z</time>
      </trkpt>
      <trkpt lat="41.4246550" lon="2.1283860">
        <ele>274.6</ele>
        <time>2018-04-10T09:31:05Z</time>
      </trkpt>
      <trkpt lat="41.4247200" lon="2.1284470">
        <ele>274.8</ele>
        <time>2018-04-10T09:31:07Z</time>
      </trkpt>
      <trkpt lat="41.4247800" lon="2.1285110">
        <ele>275.0</ele>
        <time>2018-04-10T09:31:09Z</time>
      </trkpt>
      <trkpt lat="41.4248390" lon="2.1285770">
        <ele>275.6</ele>
        <time>2018-04-10T09:31:11Z</time>
      </trkpt>
      <trkpt lat="41.4248970" lon="2.1286460">
        <ele>276.0</ele>
        <time>2018-04-10T09:31:13Z</time>
      </trkpt>
      <trkpt lat="41.4249550" lon="2.1287150">
        <ele>276.4</ele>
        <time>2018-04-10T09:31:15Z</time>
      </trkpt>
      <trkpt lat="41.4249830" lon="2.1287490">
        <ele>276.6</ele>
        <time>2018-04-10T09:31:16Z</time>
      </trkpt>
      <trkpt lat="41.4250100" lon="2.1287820">
        <ele>276.8</ele>
        <time>2018-04-10T09:31:17Z</time>
      </trkpt>
      <trkpt lat="41.4250660" lon="2.1288490">
        <ele>277.2</ele>
        <time>2018-04-10T09:31:19Z</time>
      </trkpt>
      <trkpt lat="41.4251210" lon="2.1289150">
        <ele>277.6</ele>
        <time>2018-04-10T09:31:21Z</time>
      </trkpt>
      <trkpt lat="41.4251760" lon="2.1289820">
        <ele>278.0</ele>
        <time>2018-04-10T09:31:23Z</time>
      </trkpt>
      <trkpt lat="41.4252340" lon="2.1290490">
        <ele>278.6</ele>
        <time>2018-04-10T09:31:25Z</time>
      </trkpt>
      <trkpt lat="41.4252620" lon="2.1290830">
        <ele>278.8</ele>
        <time>2018-04-10T09:31:26Z</time>
      </trkpt>
      <trkpt lat="41.4252910" lon="2.1291170">
        <ele>279.2</ele>
        <time>2018-04-10T09:31:27Z</time>
      </trkpt>
      <trkpt lat="41.4253490" lon="2.1291840">
        <ele>279.4</ele>
        <time>2018-04-10T09:31:29Z</time>
      </trkpt>
      <trkpt lat="41.4254060" lon="2.1292510">
        <ele>279.8</ele>
        <time>2018-04-10T09:31:31Z</time>
      </trkpt>
      <trkpt lat="41.4254630" lon="2.1293150">
        <ele>280.4</ele>
        <time>2018-04-10T09:31:33Z</time>
      </trkpt>
      <trkpt lat="41.4255200" lon="2.1293810">
        <ele>280.8</ele>
        <time>2018-04-10T09:31:35Z</time>
      </trkpt>
      <trkpt lat="41.4255480" lon="2.1294140">
        <ele>280.8</ele>
        <time>2018-04-10T09:31:36Z</time>
      </trkpt>
      <trkpt lat="41.4255770" lon="2.1294480">
        <ele>281.0</ele>
        <time>2018-04-10T09:31:37Z</time>
      </trkpt>
      <trkpt lat="41.4256360" lon="2.1295140">
        <ele>281.4</ele>
        <time>2018-04-10T09:31:39Z</time>
      </trkpt>
      <trkpt lat="41.4256950" lon="2.1295790">
        <ele>282.2</ele>
        <time>2018-04-10T09:31:41Z</time>
      </trkpt>
      <trkpt lat="41.4257540" lon="2.1296460">
        <ele>282.6</ele>
        <time>2018-04-10T09:31:43Z</time>
      </trkpt>
      <trkpt lat="41.4258120" lon="2.1297130">
        <ele>283.2</ele>
        <time>2018-04-10T09:31:45Z</time>
      </trkpt>
      <trkpt lat="41.4258700" lon="2.1297810">
        <ele>283.6</ele>
        <time>2018-04-10T09:31:47Z</time>
      </trkpt>
      <trkpt lat="41.4259290" lon="2.1298490">
        <ele>284.2</ele>
        <time>2018-04-10T09:31:49Z</time>
      </trkpt>
      <trkpt lat="41.4259590" lon="2.1298830">
        <ele>284.4</ele>
        <time>2018-04-10T09:31:50Z</time>
      </trkpt>
      <trkpt lat="41.4259880" lon="2.1299170">
        <ele>284.6</ele>
        <time>2018-04-10T09:31:51Z</time>
      </trkpt>
      <trkpt lat="41.4260450" lon="2.1299870">
        <ele>285.2</ele>
        <time>2018-04-10T09:31:53Z</time>
      </trkpt>
      <trkpt lat="41.4260740" lon="2.1300210">
        <ele>285.4</ele>
        <time>2018-04-10T09:31:54Z</time>
      </trkpt>
      <trkpt lat="41.4261020" lon="2.1300550">
        <ele>285.8</ele>
        <time>2018-04-10T09:31:55Z</time>
      </trkpt>
      <trkpt lat="41.4261590" lon="2.1301210">
        <ele>286.2</ele>
        <time>2018-04-10T09:31:57Z</time>
      </trkpt>
      <trkpt lat="41.4262160" lon="2.1301860">
        <ele>286.6</ele>
        <time>2018-04-10T09:31:59Z</time>
      </trkpt>
      <trkpt lat="41.4262710" lon="2.1302530">
        <ele>287.0</ele>
        <time>2018-04-10T09:32:01Z</time>
      </trkpt>
      <trkpt lat="41.4263280" lon="2.1303160">
        <ele>287.4</ele>
        <time>2018-04-10T09:32:03Z</time>
      </trkpt>
      <trkpt lat="41.4263570" lon="2.1303490">
        <ele>287.6</ele>
        <time>2018-04-10T09:32:04Z</time>
      </trkpt>
      <trkpt lat="41.4263850" lon="2.1303790">
        <ele>287.8</ele>
        <time>2018-04-10T09:32:05Z</time>
      </trkpt>
      <trkpt lat="41.4264410" lon="2.1304380">
        <ele>288.4</ele>
        <time>2018-04-10T09:32:07Z</time>
      </trkpt>
      <trkpt lat="41.4264670" lon="2.1304710">
        <ele>288.6</ele>
        <time>2018-04-10T09:32:08Z</time>
      </trkpt>
      <trkpt lat="41.4264930" lon="2.1305040">
        <ele>289.0</ele>
        <time>2018-04-10T09:32:09Z</time>
      </trkpt>
      <trkpt lat="41.4265460" lon="2.1305640">
        <ele>289.6</ele>
        <time>2018-04-10T09:32:11Z</time>
      </trkpt>
      <trkpt lat="41.4265710" lon="2.1305940">
        <ele>289.8</ele>
        <time>2018-04-10T09:32:12Z</time>
      </trkpt>
      <trkpt lat="41.4265960" lon="2.1306250">
        <ele>290.2</ele>
        <time>2018-04-10T09:32:13Z</time>
      </trkpt>
      <trkpt lat="41.4266470" lon="2.1306840">
        <ele>290.6</ele>
        <time>2018-04-10T09:32:15Z</time>
      </trkpt>
      <trkpt lat="41.4267030" lon="2.1307340">
        <ele>291.2</ele>
        <time>2018-04-10T09:32:17Z</time>
      </trkpt>
      <trkpt lat="41.4267650" lon="2.1307680">
        <ele>291.8</ele>
        <time>2018-04-10T09:32:19Z</time>
      </trkpt>
      <trkpt lat="41.4268300" lon="2.1307770">
        <ele>292.2</ele>
        <time>2018-04-10T09:32:21Z</time>
      </trkpt>
      <trkpt lat="41.4268950" lon="2.1307570">
        <ele>292.8</ele>
        <time>2018-04-10T09:32:23Z</time>
      </trkpt>
      <trkpt lat="41.4269550" lon="2.1307190">
        <ele>293.2</ele>
        <time>2018-04-10T09:32:25Z</time>
      </trkpt>
      <trkpt lat="41.4270110" lon="2.1306590">
        <ele>293.8</ele>
        <time>2018-04-10T09:32:27Z</time>
      </trkpt>
      <trkpt lat="41.4270530" lon="2.1305840">
        <ele>294.6</ele>
        <time>2018-04-10T09:32:29Z</time>
      </trkpt>
      <trkpt lat="41.4270870" lon="2.1304970">
        <ele>295.2</ele>
        <time>2018-04-10T09:32:31Z</time>
      </trkpt>
      <trkpt lat="41.4271270" lon="2.1304150">
        <ele>295.8</ele>
        <time>2018-04-10T09:32:33Z</time>
      </trkpt>
      <trkpt lat="41.4271630" lon="2.1303310">
        <ele>296.4</ele>
        <time>2018-04-10T09:32:35Z</time>
      </trkpt>
      <trkpt lat="41.4271810" lon="2.1302890">
        <ele>296.8</ele>
        <time>2018-04-10T09:32:36Z</time>
      </trkpt>
      <trkpt lat="41.4271990" lon="2.1302460">
        <ele>297.2</ele>
        <time>2018-04-10T09:32:37Z</time>
      </trkpt>
      <trkpt lat="41.4272340" lon="2.1301610">
        <ele>298.0</ele>
        <time>2018-04-10T09:32:39Z</time>
      </trkpt>
      <trkpt lat="41.4272650" lon="2.1300720">
        <ele>298.6</ele>
        <time>2018-04-10T09:32:41Z</time>
      </trkpt>
      <trkpt lat="41.4272920" lon="2.1299810">
        <ele>299.2</ele>
        <time>2018-04-10T09:32:43Z</time>
      </trkpt>
      <trkpt lat="41.4273080" lon="2.1298900">
        <ele>299.8</ele>
        <time>2018-04-10T09:32:45Z</time>
      </trkpt>
      <trkpt lat="41.4273160" lon="2.1297950">
        <ele>300.2</ele>
        <time>2018-04-10T09:32:47Z</time>
      </trkpt>
      <trkpt lat="41.4273210" lon="2.1297470">
        <ele>300.4</ele>
        <time>2018-04-10T09:32:48Z</time>
      </trkpt>
      <trkpt lat="41.4273250" lon="2.1296990">
        <ele>300.8</ele>
        <time>2018-04-10T09:32:49Z</time>
      </trkpt>
      <trkpt lat="41.4273240" lon="2.1296070">
        <ele>301.2</ele>
        <time>2018-04-10T09:32:51Z</time>
      </trkpt>
      <trkpt lat="41.4273290" lon="2.1295160">
        <ele>301.4</ele>
        <time>2018-04-10T09:32:53Z</time>
      </trkpt>
      <trkpt lat="41.4273300" lon="2.1294270">
        <ele>302.0</ele>
        <time>2018-04-10T09:32:55Z</time>
      </trkpt>
      <trkpt lat="41.4273350" lon="2.1293310">
        <ele>302.2</ele>
        <time>2018-04-10T09:32:57Z</time>
      </trkpt>
      <trkpt lat="41.4273420" lon="2.1292310">
        <ele>302.6</ele>
        <time>2018-04-10T09:32:59Z</time>
      </trkpt>
      <trkpt lat="41.4273470" lon="2.1291260">
        <ele>303.0</ele>
        <time>2018-04-10T09:33:01Z</time>
      </trkpt>
      <trkpt lat="41.4273560" lon="2.1290250">
        <ele>304.0</ele>
        <time>2018-04-10T09:33:03Z</time>
      </trkpt>
      <trkpt lat="41.4273580" lon="2.1289270">
        <ele>304.6</ele>
        <time>2018-04-10T09:33:05Z</time>
      </trkpt>
      <trkpt lat="41.4273550" lon="2.1288240">
        <ele>305.2</ele>
        <time>2018-04-10T09:33:07Z</time>
      </trkpt>
      <trkpt lat="41.4273550" lon="2.1287210">
        <ele>305.8</ele>
        <time>2018-04-10T09:33:09Z</time>
      </trkpt>
      <trkpt lat="41.4273570" lon="2.1286720">
        <ele>306.2</ele>
        <time>2018-04-10T09:33:10Z</time>
      </trkpt>
      <trkpt lat="41.4273600" lon="2.1286220">
        <ele>306.4</ele>
        <time>2018-04-10T09:33:11Z</time>
      </trkpt>
      <trkpt lat="41.4273680" lon="2.1285200">
        <ele>306.8</ele>
        <time>2018-04-10T09:33:13Z</time>
      </trkpt>
      <trkpt lat="41.4273720" lon="2.1284140">
        <ele>307.0</ele>
        <time>2018-04-10T09:33:15Z</time>
      </trkpt>
      <trkpt lat="41.4273760" lon="2.1283620">
        <ele>307.2</ele>
        <time>2018-04-10T09:33:16Z</time>
      </trkpt>
      <trkpt lat="41.4273780" lon="2.1283090">
        <ele>307.4</ele>
        <time>2018-04-10T09:33:17Z</time>
      </trkpt>
      <trkpt lat="41.4273840" lon="2.1282050">
        <ele>307.6</ele>
        <time>2018-04-10T09:33:19Z</time>
      </trkpt>
      <trkpt lat="41.4273910" lon="2.1281050">
        <ele>308.4</ele>
        <time>2018-04-10T09:33:21Z</time>
      </trkpt>
      <trkpt lat="41.4273990" lon="2.1280040">
        <ele>308.8</ele>
        <time>2018-04-10T09:33:23Z</time>
      </trkpt>
      <trkpt lat="41.4274080" lon="2.1279030">
        <ele>309.2</ele>
        <time>2018-04-10T09:33:25Z</time>
      </trkpt>
      <trkpt lat="41.4274110" lon="2.1278520">
        <ele>309.4</ele>
        <time>2018-04-10T09:33:26Z</time>
      </trkpt>
      <trkpt lat="41.4274150" lon="2.1277990">
        <ele>309.6</ele>
        <time>2018-04-10T09:33:27Z</time>
      </trkpt>
      <trkpt lat="41.4274260" lon="2.1276950">
        <ele>310.0</ele>
        <time>2018-04-10T09:33:29Z</time>
      </trkpt>
      <trkpt lat="41.4274460" lon="2.1275880">
        <ele>310.4</ele>
        <time>2018-04-10T09:33:31Z</time>
      </trkpt>
      <trkpt lat="41.4274780" lon="2.1274840">
        <ele>310.8</ele>
        <time>2018-04-10T09:33:33Z</time>
      </trkpt>
      <trkpt lat="41.4275250" lon="2.1273880">
        <ele>311.4</ele>
        <time>2018-04-10T09:33:35Z</time>
      </trkpt>
      <trkpt lat="41.4275510" lon="2.1273440">
        <ele>311.6</ele>
        <time>2018-04-10T09:33:36Z</time>
      </trkpt>
      <trkpt lat="41.4275810" lon="2.1273060">
        <ele>311.8</ele>
        <time>2018-04-10T09:33:37Z</time>
      </trkpt>
      <trkpt lat="41.4276530" lon="2.1272460">
        <ele>312.4</ele>
        <time>2018-04-10T09:33:39Z</time>
      </trkpt>
      <trkpt lat="41.4277300" lon="2.1272220">
        <ele>312.8</ele>
        <time>2018-04-10T09:33:41Z</time>
      </trkpt>
      <trkpt lat="41.4278070" lon="2.1272280">
        <ele>313.2</ele>
        <time>2018-04-10T09:33:43Z</time>
      </trkpt>
      <trkpt lat="41.4278870" lon="2.1272580">
        <ele>313.8</ele>
        <time>2018-04-10T09:33:45Z</time>
      </trkpt>
      <trkpt lat="41.4279270" lon="2.1272810">
        <ele>313.8</ele>
        <time>2018-04-10T09:33:46Z</time>
      </trkpt>
      <trkpt lat="41.4279630" lon="2.1273100">
        <ele>314.0</ele>
        <time>2018-04-10T09:33:47Z</time>
      </trkpt>
      <trkpt lat="41.4280200" lon="2.1273800">
        <ele>314.4</ele>
        <time>2018-04-10T09:33:49Z</time>
      </trkpt>
      <trkpt lat="41.4280630" lon="2.1274630">
        <ele>314.6</ele>
        <time>2018-04-10T09:33:51Z</time>
      </trkpt>
      <trkpt lat="41.4281030" lon="2.1275530">
        <ele>315.0</ele>
        <time>2018-04-10T09:33:53Z</time>
      </trkpt>
      <trkpt lat="41.4281450" lon="2.1276430">
        <ele>315.2</ele>
        <time>2018-04-10T09:33:55Z</time>
      </trkpt>
      <trkpt lat="41.4281880" lon="2.1277330">
        <ele>315.6</ele>
        <time>2018-04-10T09:33:57Z</time>
      </trkpt>
      <trkpt lat="41.4282300" lon="2.1278230">
        <ele>316.0</ele>
        <time>2018-04-10T09:33:59Z</time>
      </trkpt>
      <trkpt lat="41.4282810" lon="2.1279020">
        <ele>316.6</ele>
        <time>2018-04-10T09:34:01Z</time>
      </trkpt>
      <trkpt lat="41.4283440" lon="2.1279640">
        <ele>316.8</ele>
        <time>2018-04-10T09:34:03Z</time>
      </trkpt>
      <trkpt lat="41.4284170" lon="2.1280030">
        <ele>317.0</ele>
        <time>2018-04-10T09:34:05Z</time>
      </trkpt>
      <trkpt lat="41.4284940" lon="2.1280210">
        <ele>317.8</ele>
        <time>2018-04-10T09:34:07Z</time>
      </trkpt>
      <trkpt lat="41.4285690" lon="2.1280100">
        <ele>318.2</ele>
        <time>2018-04-10T09:34:09Z</time>
      </trkpt>
      <trkpt lat="41.4286050" lon="2.1279930">
        <ele>318.4</ele>
        <time>2018-04-10T09:34:10Z</time>
      </trkpt>
      <trkpt lat="41.4286400" lon="2.1279700">
        <ele>318.8</ele>
        <time>2018-04-10T09:34:11Z</time>
      </trkpt>
      <trkpt lat="41.4287080" lon="2.1279100">
        <ele>319.2</ele>
        <time>2018-04-10T09:34:13Z</time>
      </trkpt>
      <trkpt lat="41.4287650" lon="2.1278360">
        <ele>319.6</ele>
        <time>2018-04-10T09:34:15Z</time>
      </trkpt>
      <trkpt lat="41.4288090" lon="2.1277510">
        <ele>320.2</ele>
        <time>2018-04-10T09:34:17Z</time>
      </trkpt>
      <trkpt lat="41.4288460" lon="2.1276610">
        <ele>320.8</ele>
        <time>2018-04-10T09:34:19Z</time>
      </trkpt>
      <trkpt lat="41.4288810" lon="2.1275710">
        <ele>321.4</ele>
        <time>2018-04-10T09:34:21Z</time>
      </trkpt>
      <trkpt lat="41.4289030" lon="2.1275270">
        <ele>321.8</ele>
        <time>2018-04-10T09:34:22Z</time>
      </trkpt>
      <trkpt lat="41.4289280" lon="2.1274870">
        <ele>322.2</ele>
        <time>2018-04-10T09:34:23Z</time>
      </trkpt>
      <trkpt lat="41.4289850" lon="2.1274230">
        <ele>322.8</ele>
        <time>2018-04-10T09:34:25Z</time>
      </trkpt>
      <trkpt lat="41.4290170" lon="2.1273970">
        <ele>323.0</ele>
        <time>2018-04-10T09:34:26Z</time>
      </trkpt>
      <trkpt lat="41.4290540" lon="2.1273800">
        <ele>323.2</ele>
        <time>2018-04-10T09:34:27Z</time>
      </trkpt>
      <trkpt lat="41.4291290" lon="2.1273670">
        <ele>323.8</ele>
        <time>2018-04-10T09:34:29Z</time>
      </trkpt>
      <trkpt lat="41.4291680" lon="2.1273740">
        <ele>324.0</ele>
        <time>2018-04-10T09:34:30Z</time>
      </trkpt>
      <trkpt lat="41.4292060" lon="2.1273900">
        <ele>324.4</ele>
        <time>2018-04-10T09:34:31Z</time>
      </trkpt>
      <trkpt lat="41.4292720" lon="2.1274400">
        <ele>324.8</ele>
        <time>2018-04-10T09:34:33Z</time>
      </trkpt>
      <trkpt lat="41.4293030" lon="2.1274710">
        <ele>325.2</ele>
        <time>2018-04-10T09:34:34Z</time>
      </trkpt>
      <trkpt lat="41.4293350" lon="2.1275030">
        <ele>325.2</ele>
        <time>2018-04-10T09:34:35Z</time>
      </trkpt>
      <trkpt lat="41.4293990" lon="2.1275680">
        <ele>325.6</ele>
        <time>2018-04-10T09:34:37Z</time>
      </trkpt>
      <trkpt lat="41.4294610" lon="2.1276330">
        <ele>326.2</ele>
        <time>2018-04-10T09:34:39Z</time>
      </trkpt>
      <trkpt lat="41.4295220" lon="2.1277020">
        <ele>326.6</ele>
        <time>2018-04-10T09:34:41Z</time>
      </trkpt>
      <trkpt lat="41.4295860" lon="2.1277680">
        <ele>327.2</ele>
        <time>2018-04-10T09:34:43Z</time>
      </trkpt>
      <trkpt lat="41.4296520" lon="2.1278290">
        <ele>327.6</ele>
        <time>2018-04-10T09:34:45Z</time>
      </trkpt>
      <trkpt lat="41.4297230" lon="2.1278800">
        <ele>328.0</ele>
        <time>2018-04-10T09:34:47Z</time>
      </trkpt>
      <trkpt lat="41.4298000" lon="2.1279130">
        <ele>328.4</ele>
        <time>2018-04-10T09:34:49Z</time>
      </trkpt>
      <trkpt lat="41.4298780" lon="2.1279260">
        <ele>328.8</ele>
        <time>2018-04-10T09:34:51Z</time>
      </trkpt>
      <trkpt lat="41.4299560" lon="2.1279350">
        <ele>329.4</ele>
        <time>2018-04-10T09:34:53Z</time>
      </trkpt>
      <trkpt lat="41.4299930" lon="2.1279420">
        <ele>329.6</ele>
        <time>2018-04-10T09:34:54Z</time>
      </trkpt>
      <trkpt lat="41.4300310" lon="2.1279480">
        <ele>329.8</ele>
        <time>2018-04-10T09:34:55Z</time>
      </trkpt>
      <trkpt lat="41.4301090" lon="2.1279620">
        <ele>330.2</ele>
        <time>2018-04-10T09:34:57Z</time>
      </trkpt>
      <trkpt lat="41.4301810" lon="2.1279920">
        <ele>330.8</ele>
        <time>2018-04-10T09:34:59Z</time>
      </trkpt>
      <trkpt lat="41.4302450" lon="2.1280400">
        <ele>331.2</ele>
        <time>2018-04-10T09:35:01Z</time>
      </trkpt>
      <trkpt lat="41.4303020" lon="2.1280930">
        <ele>331.8</ele>
        <time>2018-04-10T09:35:03Z</time>
      </trkpt>
      <trkpt lat="41.4303280" lon="2.1281260">
        <ele>332.0</ele>
        <time>2018-04-10T09:35:04Z</time>
      </trkpt>
      <trkpt lat="41.4303510" lon="2.1281680">
        <ele>332.2</ele>
        <time>2018-04-10T09:35:05Z</time>
      </trkpt>
      <trkpt lat="41.4303930" lon="2.1282660">
        <ele>332.8</ele>
        <time>2018-04-10T09:35:07Z</time>
      </trkpt>
      <trkpt lat="41.4304230" lon="2.1283740">
        <ele>333.2</ele>
        <time>2018-04-10T09:35:09Z</time>
      </trkpt>
      <trkpt lat="41.4304380" lon="2.1284980">
        <ele>333.6</ele>
        <time>2018-04-10T09:35:11Z</time>
      </trkpt>
      <trkpt lat="41.4304530" lon="2.1286300">
        <ele>333.8</ele>
        <time>2018-04-10T09:35:13Z</time>
      </trkpt>
      <trkpt lat="41.4304660" lon="2.1287700">
        <ele>334.0</ele>
        <time>2018-04-10T09:35:15Z</time>
      </trkpt>
      <trkpt lat="41.4304740" lon="2.1289140">
        <ele>334.2</ele>
        <time>2018-04-10T09:35:17Z</time>
      </trkpt>
      <trkpt lat="41.4304780" lon="2.1290610">
        <ele>334.2</ele>
        <time>2018-04-10T09:35:19Z</time>
      </trkpt>
      <trkpt lat="41.4304820" lon="2.1292140">
        <ele>334.4</ele>
        <time>2018-04-10T09:35:21Z</time>
      </trkpt>
      <trkpt lat="41.4304710" lon="2.1293680">
        <ele>334.4</ele>
        <time>2018-04-10T09:35:23Z</time>
      </trkpt>
      <trkpt lat="41.4304450" lon="2.1295160">
        <ele>334.4</ele>
        <time>2018-04-10T09:35:25Z</time>
      </trkpt>
      <trkpt lat="41.4304250" lon="2.1295870">
        <ele>334.4</ele>
        <time>2018-04-10T09:35:26Z</time>
      </trkpt>
      <trkpt lat="41.4303990" lon="2.1296570">
        <ele>334.4</ele>
        <time>2018-04-10T09:35:27Z</time>
      </trkpt>
      <trkpt lat="41.4303340" lon="2.1297920">
        <ele>334.4</ele>
        <time>2018-04-10T09:35:29Z</time>
      </trkpt>
      <trkpt lat="41.4302580" lon="2.1299150">
        <ele>334.4</ele>
        <time>2018-04-10T09:35:31Z</time>
      </trkpt>
      <trkpt lat="41.4301800" lon="2.1300270">
        <ele>334.4</ele>
        <time>2018-04-10T09:35:33Z</time>
      </trkpt>
      <trkpt lat="41.4301060" lon="2.1301260">
        <ele>334.4</ele>
        <time>2018-04-10T09:35:35Z</time>
      </trkpt>
      <trkpt lat="41.4300710" lon="2.1301730">
        <ele>334.4</ele>
        <time>2018-04-10T09:35:36Z</time>
      </trkpt>
      <trkpt lat="41.4300350" lon="2.1302200">
        <ele>334.4</ele>
        <time>2018-04-10T09:35:37Z</time>
      </trkpt>
      <trkpt lat="41.4299680" lon="2.1303260">
        <ele>334.4</ele>
        <time>2018-04-10T09:35:39Z</time>
      </trkpt>
      <trkpt lat="41.4299370" lon="2.1303860">
        <ele>334.4</ele>
        <time>2018-04-10T09:35:40Z</time>
      </trkpt>
      <trkpt lat="41.4299110" lon="2.1304500">
        <ele>334.4</ele>
        <time>2018-04-10T09:35:41Z</time>
      </trkpt>
      <trkpt lat="41.4298750" lon="2.1305970">
        <ele>334.4</ele>
        <time>2018-04-10T09:35:43Z</time>
      </trkpt>
      <trkpt lat="41.4298570" lon="2.1307530">
        <ele>334.6</ele>
        <time>2018-04-10T09:35:45Z</time>
      </trkpt>
      <trkpt lat="41.4298660" lon="2.1309130">
        <ele>334.8</ele>
        <time>2018-04-10T09:35:47Z</time>
      </trkpt>
      <trkpt lat="41.4299010" lon="2.1310710">
        <ele>335.0</ele>
        <time>2018-04-10T09:35:49Z</time>
      </trkpt>
      <trkpt lat="41.4299600" lon="2.1312200">
        <ele>335.2</ele>
        <time>2018-04-10T09:35:51Z</time>
      </trkpt>
      <trkpt lat="41.4300410" lon="2.1313490">
        <ele>335.2</ele>
        <time>2018-04-10T09:35:53Z</time>
      </trkpt>
      <trkpt lat="41.4301420" lon="2.1314510">
        <ele>335.2</ele>
        <time>2018-04-10T09:35:55Z</time>
      </trkpt>
      <trkpt lat="41.4301940" lon="2.1314960">
        <ele>335.2</ele>
        <time>2018-04-10T09:35:56Z</time>
      </trkpt>
      <trkpt lat="41.4302480" lon="2.1315400">
        <ele>335.2</ele>
        <time>2018-04-10T09:35:57Z</time>
      </trkpt>
      <trkpt lat="41.4303570" lon="2.1316290">
        <ele>335.2</ele>
        <time>2018-04-10T09:35:59Z</time>
      </trkpt>
      <trkpt lat="41.4304650" lon="2.1317180">
        <ele>335.2</ele>
        <time>2018-04-10T09:36:01Z</time>
      </trkpt>
      <trkpt lat="41.4305690" lon="2.1318030">
        <ele>335.4</ele>
        <time>2018-04-10T09:36:03Z</time>
      </trkpt>
      <trkpt lat="41.4306680" lon="2.1318850">
        <ele>335.4</ele>
        <time>2018-04-10T09:36:05Z</time>
      </trkpt>
      <trkpt lat="41.4307670" lon="2.1319660">
        <ele>335.6</ele>
        <time>2018-04-10T09:36:07Z</time>
      </trkpt>
      <trkpt lat="41.4308620" lon="2.1320490">
        <ele>336.0</ele>
        <time>2018-04-10T09:36:09Z</time>
      </trkpt>
      <trkpt lat="41.4309520" lon="2.1321320">
        <ele>336.0</ele>
        <time>2018-04-10T09:36:11Z</time>
      </trkpt>
      <trkpt lat="41.4310420" lon="2.1322140">
        <ele>336.4</ele>
        <time>2018-04-10T09:36:13Z</time>
      </trkpt>
      <trkpt lat="41.4311240" lon="2.1323080">
        <ele>336.6</ele>
        <time>2018-04-10T09:36:15Z</time>
      </trkpt>
      <trkpt lat="41.4311870" lon="2.1324280">
        <ele>336.8</ele>
        <time>2018-04-10T09:36:17Z</time>
      </trkpt>
      <trkpt lat="41.4312230" lon="2.1325640">
        <ele>337.0</ele>
        <time>2018-04-10T09:36:19Z</time>
      </trkpt>
      <trkpt lat="41.4312270" lon="2.1327000">
        <ele>337.6</ele>
        <time>2018-04-10T09:36:21Z</time>
      </trkpt>
      <trkpt lat="41.4312200" lon="2.1327650">
        <ele>337.8</ele>
        <time>2018-04-10T09:36:22Z</time>
      </trkpt>
      <trkpt lat="41.4312100" lon="2.1328270">
        <ele>338.0</ele>
        <time>2018-04-10T09:36:23Z</time>
      </trkpt>
      <trkpt lat="41.4311850" lon="2.1329430">
        <ele>338.4</ele>
        <time>2018-04-10T09:36:25Z</time>
      </trkpt>
      <trkpt lat="41.4311590" lon="2.1330530">
        <ele>338.6</ele>
        <time>2018-04-10T09:36:27Z</time>
      </trkpt>
      <trkpt lat="41.4311370" lon="2.1331540">
        <ele>338.6</ele>
        <time>2018-04-10T09:36:29Z</time>
      </trkpt>
      <trkpt lat="41.4311260" lon="2.1332020">
        <ele>339.4</ele>
        <time>2018-04-10T09:36:30Z</time>
      </trkpt>
      <trkpt lat="41.4311150" lon="2.1332500">
        <ele>339.8</ele>
        <time>2018-04-10T09:36:31Z</time>
      </trkpt>
      <trkpt lat="41.4310920" lon="2.1333450">
        <ele>340.4</ele>
        <time>2018-04-10T09:36:33Z</time>
      </trkpt>
      <trkpt lat="41.4310720" lon="2.1334400">
        <ele>341.2</ele>
        <time>2018-04-10T09:36:35Z</time>
      </trkpt>
      <trkpt lat="41.4310640" lon="2.1334890">
        <ele>341.6</ele>
        <time>2018-04-10T09:36:36Z</time>
      </trkpt>
      <trkpt lat="41.4310580" lon="2.1335370">
        <ele>341.8</ele>
        <time>2018-04-10T09:36:37Z</time>
      </trkpt>
      <trkpt lat="41.4310530" lon="2.1336380">
        <ele>342.4</ele>
        <time>2018-04-10T09:36:39Z</time>
      </trkpt>
      <trkpt lat="41.4310560" lon="2.1336880">
        <ele>342.6</ele>
        <time>2018-04-10T09:36:40Z</time>
      </trkpt>
      <trkpt lat="41.4310640" lon="2.1337380">
        <ele>342.8</ele>
        <time>2018-04-10T09:36:41Z</time>
      </trkpt>
      <trkpt lat="41.4310910" lon="2.1338360">
        <ele>343.4</ele>
        <time>2018-04-10T09:36:43Z</time>
      </trkpt>
      <trkpt lat="41.4311060" lon="2.1338830">
        <ele>343.6</ele>
        <time>2018-04-10T09:36:44Z</time>
      </trkpt>
      <trkpt lat="41.4311250" lon="2.1339290">
        <ele>343.8</ele>
        <time>2018-04-10T09:36:45Z</time>
      </trkpt>
      <trkpt lat="41.4311730" lon="2.1340090">
        <ele>344.4</ele>
        <time>2018-04-10T09:36:47Z</time>
      </trkpt>
      <trkpt lat="41.4312340" lon="2.1340760">
        <ele>344.6</ele>
        <time>2018-04-10T09:36:49Z</time>
      </trkpt>
      <trkpt lat="41.4313000" lon="2.1341320">
        <ele>345.0</ele>
        <time>2018-04-10T09:36:51Z</time>
      </trkpt>
      <trkpt lat="41.4313650" lon="2.1341900">
        <ele>345.4</ele>
        <time>2018-04-10T09:36:53Z</time>
      </trkpt>
      <trkpt lat="41.4314280" lon="2.1342490">
        <ele>345.8</ele>
        <time>2018-04-10T09:36:55Z</time>
      </trkpt>
      <trkpt lat="41.4314900" lon="2.1343090">
        <ele>346.2</ele>
        <time>2018-04-10T09:36:57Z</time>
      </trkpt>
      <trkpt lat="41.4315540" lon="2.1343660">
        <ele>346.6</ele>
        <time>2018-04-10T09:36:59Z</time>
      </trkpt>
      <trkpt lat="41.4316210" lon="2.1344160">
        <ele>347.0</ele>
        <time>2018-04-10T09:37:01Z</time>
      </trkpt>
      <trkpt lat="41.4316890" lon="2.1344670">
        <ele>347.6</ele>
        <time>2018-04-10T09:37:03Z</time>
      </trkpt>
      <trkpt lat="41.4317630" lon="2.1345060">
        <ele>348.2</ele>
        <time>2018-04-10T09:37:05Z</time>
      </trkpt>
      <trkpt lat="41.4318030" lon="2.1345190">
        <ele>348.4</ele>
        <time>2018-04-10T09:37:06Z</time>
      </trkpt>
      <trkpt lat="41.4318430" lon="2.1345270">
        <ele>348.8</ele>
        <time>2018-04-10T09:37:07Z</time>
      </trkpt>
      <trkpt lat="41.4319220" lon="2.1345320">
        <ele>349.4</ele>
        <time>2018-04-10T09:37:09Z</time>
      </trkpt>
      <trkpt lat="41.4320000" lon="2.1345240">
        <ele>350.4</ele>
        <time>2018-04-10T09:37:11Z</time>
      </trkpt>
      <trkpt lat="41.4320830" lon="2.1345010">
        <ele>350.8</ele>
        <time>2018-04-10T09:37:13Z</time>
      </trkpt>
      <trkpt lat="41.4321590" lon="2.1344530">
        <ele>351.4</ele>
        <time>2018-04-10T09:37:15Z</time>
      </trkpt>
      <trkpt lat="41.4322360" lon="2.1343980">
        <ele>351.6</ele>
        <time>2018-04-10T09:37:17Z</time>
      </trkpt>
      <trkpt lat="41.4323160" lon="2.1343490">
        <ele>352.0</ele>
        <time>2018-04-10T09:37:19Z</time>
      </trkpt>
      <trkpt lat="41.4323950" lon="2.1342990">
        <ele>352.4</ele>
        <time>2018-04-10T09:37:21Z</time>
      </trkpt>
      <trkpt lat="41.4324760" lon="2.1342480">
        <ele>352.8</ele>
        <time>2018-04-10T09:37:23Z</time>
      </trkpt>
      <trkpt lat="41.4325580" lon="2.1342000">
        <ele>353.0</ele>
        <time>2018-04-10T09:37:25Z</time>
      </trkpt>
      <trkpt lat="41.4326400" lon="2.1341610">
        <ele>353.6</ele>
        <time>2018-04-10T09:37:27Z</time>
      </trkpt>
      <trkpt lat="41.4326820" lon="2.1341470">
        <ele>353.6</ele>
        <time>2018-04-10T09:37:28Z</time>
      </trkpt>
      <trkpt lat="41.4327270" lon="2.1341350">
        <ele>353.8</ele>
        <time>2018-04-10T09:37:29Z</time>
      </trkpt>
      <trkpt lat="41.4328180" lon="2.1341240">
        <ele>354.6</ele>
        <time>2018-04-10T09:37:31Z</time>
      </trkpt>
      <trkpt lat="41.4329070" lon="2.1341310">
        <ele>355.0</ele>
        <time>2018-04-10T09:37:33Z</time>
      </trkpt>
      <trkpt lat="41.4329920" lon="2.1341490">
        <ele>355.4</ele>
        <time>2018-04-10T09:37:35Z</time>
      </trkpt>
      <trkpt lat="41.4330310" lon="2.1341660">
        <ele>355.6</ele>
        <time>2018-04-10T09:37:36Z</time>
      </trkpt>
      <trkpt lat="41.4330710" lon="2.1341850">
        <ele>355.8</ele>
        <time>2018-04-10T09:37:37Z</time>
      </trkpt>
      <trkpt lat="41.4331500" lon="2.1342310">
        <ele>356.2</ele>
        <time>2018-04-10T09:37:39Z</time>
      </trkpt>
      <trkpt lat="41.4332280" lon="2.1342850">
        <ele>356.6</ele>
        <time>2018-04-10T09:37:41Z</time>
      </trkpt>
      <trkpt lat="41.4332670" lon="2.1343160">
        <ele>356.8</ele>
        <time>2018-04-10T09:37:42Z</time>
      </trkpt>
      <trkpt lat="41.4333050" lon="2.1343460">
        <ele>356.8</ele>
        <time>2018-04-10T09:37:43Z</time>
      </trkpt>
      <trkpt lat="41.4333790" lon="2.1344060">
        <ele>357.2</ele>
        <time>2018-04-10T09:37:45Z</time>
      </trkpt>
      <trkpt lat="41.4334520" lon="2.1344640">
        <ele>357.6</ele>
        <time>2018-04-10T09:37:47Z</time>
      </trkpt>
      <trkpt lat="41.4334870" lon="2.1344930">
        <ele>357.8</ele>
        <time>2018-04-10T09:37:48Z</time>
      </trkpt>
      <trkpt lat="41.4335240" lon="2.1345220">
        <ele>358.0</ele>
        <time>2018-04-10T09:37:49Z</time>
      </trkpt>
      <trkpt lat="41.4335990" lon="2.1345780">
        <ele>358.2</ele>
        <time>2018-04-10T09:37:51Z</time>
      </trkpt>
      <trkpt lat="41.4336730" lon="2.1346350">
        <ele>358.6</ele>
        <time>2018-04-10T09:37:53Z</time>
      </trkpt>
      <trkpt lat="41.4337100" lon="2.1346630">
        <ele>359.0</ele>
        <time>2018-04-10T09:37:54Z</time>
      </trkpt>
      <trkpt lat="41.4337490" lon="2.1346890">
        <ele>359.2</ele>
        <time>2018-04-10T09:37:55Z</time>
      </trkpt>
      <trkpt lat="41.4337900" lon="2.1347100">
        <ele>359.4</ele>
        <time>2018-04-10T09:37:56Z</time>
      </trkpt>
      <trkpt lat="41.4338330" lon="2.1347240">
        <ele>359.6</ele>
        <time>2018-04-10T09:37:57Z</time>
      </trkpt>
      <trkpt lat="41.4339210" lon="2.1347260">
        <ele>360.2</ele>
        <time>2018-04-10T09:37:59Z</time>
      </trkpt>
      <trkpt lat="41.4340050" lon="2.1346960">
        <ele>360.8</ele>
        <time>2018-04-10T09:38:01Z</time>
      </trkpt>
      <trkpt lat="41.4340800" lon="2.1346260">
        <ele>361.2</ele>
        <time>2018-04-10T09:38:03Z</time>
      </trkpt>
      <trkpt lat="41.4341380" lon="2.1345150">
        <ele>361.4</ele>
        <time>2018-04-10T09:38:05Z</time>
      </trkpt>
      <trkpt lat="41.4341710" lon="2.1343790">
        <ele>361.6</ele>
        <time>2018-04-10T09:38:07Z</time>
      </trkpt>
      <trkpt lat="41.4341660" lon="2.1342360">
        <ele>361.8</ele>
        <time>2018-04-10T09:38:09Z</time>
      </trkpt>
      <trkpt lat="41.4341220" lon="2.1341020">
        <ele>362.0</ele>
        <time>2018-04-10T09:38:11Z</time>
      </trkpt>
      <trkpt lat="41.4340450" lon="2.1340060">
        <ele>362.2</ele>
        <time>2018-04-10T09:38:13Z</time>
      </trkpt>
      <trkpt lat="41.4339500" lon="2.1339370">
        <ele>362.2</ele>
        <time>2018-04-10T09:38:15Z</time>
      </trkpt>
      <trkpt lat="41.4338530" lon="2.1338970">
        <ele>362.4</ele>
        <time>2018-04-10T09:38:17Z</time>
      </trkpt>
      <trkpt lat="41.4338060" lon="2.1338750">
        <ele>362.6</ele>
        <time>2018-04-10T09:38:18Z</time>
      </trkpt>
      <trkpt lat="41.4337590" lon="2.1338520">
        <ele>362.6</ele>
        <time>2018-04-10T09:38:19Z</time>
      </trkpt>
      <trkpt lat="41.4336650" lon="2.1338170">
        <ele>363.0</ele>
        <time>2018-04-10T09:38:21Z</time>
      </trkpt>
      <trkpt lat="41.4336180" lon="2.1337990">
        <ele>363.4</ele>
        <time>2018-04-10T09:38:22Z</time>
      </trkpt>
      <trkpt lat="41.4335710" lon="2.1337800">
        <ele>363.8</ele>
        <time>2018-04-10T09:38:23Z</time>
      </trkpt>
      <trkpt lat="41.4334760" lon="2.1337450">
        <ele>364.2</ele>
        <time>2018-04-10T09:38:25Z</time>
      </trkpt>
      <trkpt lat="41.4333840" lon="2.1337120">
        <ele>364.4</ele>
        <time>2018-04-10T09:38:27Z</time>
      </trkpt>
      <trkpt lat="41.4332950" lon="2.1336780">
        <ele>364.4</ele>
        <time>2018-04-10T09:38:29Z</time>
      </trkpt>
      <trkpt lat="41.4332510" lon="2.1336610">
        <ele>364.8</ele>
        <time>2018-04-10T09:38:30Z</time>
      </trkpt>
      <trkpt lat="41.4332050" lon="2.1336460">
        <ele>364.8</ele>
        <time>2018-04-10T09:38:31Z</time>
      </trkpt>
      <trkpt lat="41.4331090" lon="2.1336200">
        <ele>365.2</ele>
        <time>2018-04-10T09:38:33Z</time>
      </trkpt>
      <trkpt lat="41.4330210" lon="2.1335940">
        <ele>365.4</ele>
        <time>2018-04-10T09:38:35Z</time>
      </trkpt>
      <trkpt lat="41.4329770" lon="2.1335870">
        <ele>365.8</ele>
        <time>2018-04-10T09:38:36Z</time>
      </trkpt>
      <trkpt lat="41.4329330" lon="2.1335810">
        <ele>366.0</ele>
        <time>2018-04-10T09:38:37Z</time>
      </trkpt>
      <trkpt lat="41.4328450" lon="2.1335760">
        <ele>366.4</ele>
        <time>2018-04-10T09:38:39Z</time>
      </trkpt>
      <trkpt lat="41.4328010" lon="2.1335770">
        <ele>366.8</ele>
        <time>2018-04-10T09:38:40Z</time>
      </trkpt>
      <trkpt lat="41.4327570" lon="2.1335820">
        <ele>367.2</ele>
        <time>2018-04-10T09:38:41Z</time>
      </trkpt>
      <trkpt lat="41.4326690" lon="2.1336010">
        <ele>367.6</ele>
        <time>2018-04-10T09:38:43Z</time>
      </trkpt>
      <trkpt lat="41.4326260" lon="2.1336130">
        <ele>367.8</ele>
        <time>2018-04-10T09:38:44Z</time>
      </trkpt>
      <trkpt lat="41.4325820" lon="2.1336250">
        <ele>368.0</ele>
        <time>2018-04-10T09:38:45Z</time>
      </trkpt>
      <trkpt lat="41.4324960" lon="2.1336560">
        <ele>368.2</ele>
        <time>2018-04-10T09:38:47Z</time>
      </trkpt>
      <trkpt lat="41.4324150" lon="2.1336870">
        <ele>368.6</ele>
        <time>2018-04-10T09:38:49Z</time>
      </trkpt>
      <trkpt lat="41.4323740" lon="2.1337070">
        <ele>368.6</ele>
        <time>2018-04-10T09:38:50Z</time>
      </trkpt>
      <trkpt lat="41.4323320" lon="2.1337270">
        <ele>368.8</ele>
        <time>2018-04-10T09:38:51Z</time>
      </trkpt>
      <trkpt lat="41.4322510" lon="2.1337700">
        <ele>369.0</ele>
        <time>2018-04-10T09:38:53Z</time>
      </trkpt>
      <trkpt lat="41.4321720" lon="2.1338070">
        <ele>369.4</ele>
        <time>2018-04-10T09:38:55Z</time>
      </trkpt>
      <trkpt lat="41.4320930" lon="2.1338320">
        <ele>369.8</ele>
        <time>2018-04-10T09:38:57Z</time>
      </trkpt>
      <trkpt lat="41.4320160" lon="2.1338390">
        <ele>370.4</ele>
        <time>2018-04-10T09:38:59Z</time>
      </trkpt>
      <trkpt lat="41.4319450" lon="2.1338230">
        <ele>370.8</ele>
        <time>2018-04-10T09:39:01Z</time>
      </trkpt>
      <trkpt lat="41.4318780" lon="2.1337900">
        <ele>371.4</ele>
        <time>2018-04-10T09:39:03Z</time>
      </trkpt>
      <trkpt lat="41.4318200" lon="2.1337360">
        <ele>372.0</ele>
        <time>2018-04-10T09:39:05Z</time>
      </trkpt>
      <trkpt lat="41.4317730" lon="2.1336660">
        <ele>372.4</ele>
        <time>2018-04-10T09:39:07Z</time>
      </trkpt>
      <trkpt lat="41.4317430" lon="2.1335860">
        <ele>372.8</ele>
        <time>2018-04-10T09:39:09Z</time>
      </trkpt>
      <trkpt lat="41.4317310" lon="2.1335430">
        <ele>373.2</ele>
        <time>2018-04-10T09:39:10Z</time>
      </trkpt>
      <trkpt lat="41.4317230" lon="2.1334990">
        <ele>373.6</ele>
        <time>2018-04-10T09:39:11Z</time>
      </trkpt>
      <trkpt lat="41.4317270" lon="2.1334070">
        <ele>374.0</ele>
        <time>2018-04-10T09:39:13Z</time>
      </trkpt>
      <trkpt lat="41.4317410" lon="2.1333160">
        <ele>374.4</ele>
        <time>2018-04-10T09:39:15Z</time>
      </trkpt>
      <trkpt lat="41.4317540" lon="2.1332700">
        <ele>374.6</ele>
        <time>2018-04-10T09:39:16Z</time>
      </trkpt>
      <trkpt lat="41.4317660" lon="2.1332260">
        <ele>375.0</ele>
        <time>2018-04-10T09:39:17Z</time>
      </trkpt>
      <trkpt lat="41.4317930" lon="2.1331350">
        <ele>375.4</ele>
        <time>2018-04-10T09:39:19Z</time>
      </trkpt>
      <trkpt lat="41.4318050" lon="2.1330880">
        <ele>375.6</ele>
        <time>2018-04-10T09:39:20Z</time>
      </trkpt>
      <trkpt lat="41.4318210" lon="2.1330430">
        <ele>375.8</ele>
        <time>2018-04-10T09:39:21Z</time>
      </trkpt>
      <trkpt lat="41.4318530" lon="2.1329520">
        <ele>376.0</ele>
        <time>2018-04-10T09:39:23Z</time>
      </trkpt>
      <trkpt lat="41.4318830" lon="2.1328600">
        <ele>376.8</ele>
        <time>2018-04-10T09:39:25Z</time>
      </trkpt>
      <trkpt lat="41.4319130" lon="2.1327700">
        <ele>377.2</ele>
        <time>2018-04-10T09:39:27Z</time>
      </trkpt>
      <trkpt lat="41.4319410" lon="2.1326820">
        <ele>377.6</ele>
        <time>2018-04-10T09:39:29Z</time>
      </trkpt>
      <trkpt lat="41.4319560" lon="2.1326380">
        <ele>377.8</ele>
        <time>2018-04-10T09:39:30Z</time>
      </trkpt>
      <trkpt lat="41.4319690" lon="2.1325930">
        <ele>377.8</ele>
        <time>2018-04-10T09:39:31Z</time>
      </trkpt>
      <trkpt lat="41.4319860" lon="2.1325000">
        <ele>378.2</ele>
        <time>2018-04-10T09:39:33Z</time>
      </trkpt>
      <trkpt lat="41.4320010" lon="2.1324010">
        <ele>378.8</ele>
        <time>2018-04-10T09:39:35Z</time>
      </trkpt>
      <trkpt lat="41.4320050" lon="2.1323490">
        <ele>379.0</ele>
        <time>2018-04-10T09:39:36Z</time>
      </trkpt>
      <trkpt lat="41.4320060" lon="2.1322980">
        <ele>379.2</ele>
        <time>2018-04-10T09:39:37Z</time>
      </trkpt>
      <trkpt lat="41.4319960" lon="2.1321970">
        <ele>379.6</ele>
        <time>2018-04-10T09:39:39Z</time>
      </trkpt>
      <trkpt lat="41.4319760" lon="2.1320990">
        <ele>380.2</ele>
        <time>2018-04-10T09:39:41Z</time>
      </trkpt>
      <trkpt lat="41.4319490" lon="2.1320060">
        <ele>380.6</ele>
        <time>2018-04-10T09:39:43Z</time>
      </trkpt>
      <trkpt lat="41.4319110" lon="2.1319160">
        <ele>381.2</ele>
        <time>2018-04-10T09:39:45Z</time>
      </trkpt>
      <trkpt lat="41.4318920" lon="2.1318710">
        <ele>381.4</ele>
        <time>2018-04-10T09:39:46Z</time>
      </trkpt>
      <trkpt lat="41.4318700" lon="2.1318250">
        <ele>381.6</ele>
        <time>2018-04-10T09:39:47Z</time>
      </trkpt>
      <trkpt lat="41.4318290" lon="2.1317360">
        <ele>382.0</ele>
        <time>2018-04-10T09:39:49Z</time>
      </trkpt>
      <trkpt lat="41.4317880" lon="2.1316480">
        <ele>382.4</ele>
        <time>2018-04-10T09:39:51Z</time>
      </trkpt>
      <trkpt lat="41.4317470" lon="2.1315640">
        <ele>382.8</ele>
        <time>2018-04-10T09:39:53Z</time>
      </trkpt>
      <trkpt lat="41.4317090" lon="2.1314750">
        <ele>383.2</ele>
        <time>2018-04-10T09:39:55Z</time>
      </trkpt>
      <trkpt lat="41.4316760" lon="2.1313810">
        <ele>383.6</ele>
        <time>2018-04-10T09:39:57Z</time>
      </trkpt>
      <trkpt lat="41.4316580" lon="2.1312790">
        <ele>384.2</ele>
        <time>2018-04-10T09:39:59Z</time>
      </trkpt>
      <trkpt lat="41.4316490" lon="2.1311780">
        <ele>384.6</ele>
        <time>2018-04-10T09:40:01Z</time>
      </trkpt>
      <trkpt lat="41.4316560" lon="2.1310780">
        <ele>385.0</ele>
        <time>2018-04-10T09:40:03Z</time>
      </trkpt>
      <trkpt lat="41.4316610" lon="2.1309720">
        <ele>385.4</ele>
        <time>2018-04-10T09:40:05Z</time>
      </trkpt>
      <trkpt lat="41.4316830" lon="2.1308750">
        <ele>385.6</ele>
        <time>2018-04-10T09:40:07Z</time>
      </trkpt>
      <trkpt lat="41.4316950" lon="2.1308270">
        <ele>385.6</ele>
        <time>2018-04-10T09:40:08Z</time>
      </trkpt>
      <trkpt lat="41.4317100" lon="2.1307790">
        <ele>386.0</ele>
        <time>2018-04-10T09:40:09Z</time>
      </trkpt>
      <trkpt lat="41.4317340" lon="2.1306810">
        <ele>386.6</ele>
        <time>2018-04-10T09:40:11Z</time>
      </trkpt>
      <trkpt lat="41.4317450" lon="2.1306310">
        <ele>386.8</ele>
        <time>2018-04-10T09:40:12Z</time>
      </trkpt>
      <trkpt lat="41.4317570" lon="2.1305820">
        <ele>387.0</ele>
        <time>2018-04-10T09:40:13Z</time>
      </trkpt>
      <trkpt lat="41.4317800" lon="2.1304830">
        <ele>387.6</ele>
        <time>2018-04-10T09:40:15Z</time>
      </trkpt>
      <trkpt lat="41.4317910" lon="2.1304330">
        <ele>388.0</ele>
        <time>2018-04-10T09:40:16Z</time>
      </trkpt>
      <trkpt lat="41.4318030" lon="2.1303830">
        <ele>388.2</ele>
        <time>2018-04-10T09:40:17Z</time>
      </trkpt>
      <trkpt lat="41.4318270" lon="2.1302840">
        <ele>388.4</ele>
        <time>2018-04-10T09:40:19Z</time>
      </trkpt>
      <trkpt lat="41.4318490" lon="2.1301840">
        <ele>388.8</ele>
        <time>2018-04-10T09:40:21Z</time>
      </trkpt>
      <trkpt lat="41.4318590" lon="2.1301330">
        <ele>389.0</ele>
        <time>2018-04-10T09:40:22Z</time>
      </trkpt>
      <trkpt lat="41.4318680" lon="2.1300820">
        <ele>389.2</ele>
        <time>2018-04-10T09:40:23Z</time>
      </trkpt>
      <trkpt lat="41.4318790" lon="2.1299760">
        <ele>389.8</ele>
        <time>2018-04-10T09:40:25Z</time>
      </trkpt>
      <trkpt lat="41.4318810" lon="2.1298680">
        <ele>390.4</ele>
        <time>2018-04-10T09:40:27Z</time>
      </trkpt>
      <trkpt lat="41.4318730" lon="2.1297600">
        <ele>391.2</ele>
        <time>2018-04-10T09:40:29Z</time>
      </trkpt>
      <trkpt lat="41.4318680" lon="2.1297070">
        <ele>391.4</ele>
        <time>2018-04-10T09:40:30Z</time>
      </trkpt>
      <trkpt lat="41.4318620" lon="2.1296570">
        <ele>391.8</ele>
        <time>2018-04-10T09:40:31Z</time>
      </trkpt>
      <trkpt lat="41.4318500" lon="2.1295540">
        <ele>392.2</ele>
        <time>2018-04-10T09:40:33Z</time>
      </trkpt>
      <trkpt lat="41.4318340" lon="2.1294510">
        <ele>392.6</ele>
        <time>2018-04-10T09:40:35Z</time>
      </trkpt>
      <trkpt lat="41.4318150" lon="2.1293500">
        <ele>393.0</ele>
        <time>2018-04-10T09:40:37Z</time>
      </trkpt>
      <trkpt lat="41.4317970" lon="2.1292470">
        <ele>393.4</ele>
        <time>2018-04-10T09:40:39Z</time>
      </trkpt>
      <trkpt lat="41.4317860" lon="2.1291440">
        <ele>393.6</ele>
        <time>2018-04-10T09:40:41Z</time>
      </trkpt>
      <trkpt lat="41.4317810" lon="2.1290900">
        <ele>393.8</ele>
        <time>2018-04-10T09:40:42Z</time>
      </trkpt>
      <trkpt lat="41.4317780" lon="2.1290370">
        <ele>394.2</ele>
        <time>2018-04-10T09:40:43Z</time>
      </trkpt>
      <trkpt lat="41.4317770" lon="2.1289290">
        <ele>394.6</ele>
        <time>2018-04-10T09:40:45Z</time>
      </trkpt>
      <trkpt lat="41.4317790" lon="2.1288200">
        <ele>395.0</ele>
        <time>2018-04-10T09:40:47Z</time>
      </trkpt>
      <trkpt lat="41.4317860" lon="2.1287130">
        <ele>395.4</ele>
        <time>2018-04-10T09:40:49Z</time>
      </trkpt>
      <trkpt lat="41.4317980" lon="2.1286070">
        <ele>395.8</ele>
        <time>2018-04-10T09:40:51Z</time>
      </trkpt>
      <trkpt lat="41.4318090" lon="2.1284990">
        <ele>396.0</ele>
        <time>2018-04-10T09:40:53Z</time>
      </trkpt>
      <trkpt lat="41.4318230" lon="2.1283920">
        <ele>396.6</ele>
        <time>2018-04-10T09:40:55Z</time>
      </trkpt>
      <trkpt lat="41.4318370" lon="2.1282840">
        <ele>397.2</ele>
        <time>2018-04-10T09:40:57Z</time>
      </trkpt>
      <trkpt lat="41.4318490" lon="2.1281780">
        <ele>397.8</ele>
        <time>2018-04-10T09:40:59Z</time>
      </trkpt>
      <trkpt lat="41.4318620" lon="2.1280710">
        <ele>398.4</ele>
        <time>2018-04-10T09:41:01Z</time>
      </trkpt>
      <trkpt lat="41.4318750" lon="2.1279700">
        <ele>398.8</ele>
        <time>2018-04-10T09:41:03Z</time>
      </trkpt>
      <trkpt lat="41.4318830" lon="2.1278710">
        <ele>399.2</ele>
        <time>2018-04-10T09:41:05Z</time>
      </trkpt>
      <trkpt lat="41.4318850" lon="2.1278210">
        <ele>399.4</ele>
        <time>2018-04-10T09:41:06Z</time>
      </trkpt>
      <trkpt lat="41.4318860" lon="2.1277700">
        <ele>399.6</ele>
        <time>2018-04-10T09:41:07Z</time>
      </trkpt>
      <trkpt lat="41.4318850" lon="2.1276650">
        <ele>400.0</ele>
        <time>2018-04-10T09:41:09Z</time>
      </trkpt>
      <trkpt lat="41.4318810" lon="2.1275590">
        <ele>400.6</ele>
        <time>2018-04-10T09:41:11Z</time>
      </trkpt>
      <trkpt lat="41.4318730" lon="2.1274540">
        <ele>401.0</ele>
        <time>2018-04-10T09:41:13Z</time>
      </trkpt>
      <trkpt lat="41.4318620" lon="2.1273480">
        <ele>401.4</ele>
        <time>2018-04-10T09:41:15Z</time>
      </trkpt>
      <trkpt lat="41.4318550" lon="2.1272960">
        <ele>401.8</ele>
        <time>2018-04-10T09:41:16Z</time>
      </trkpt>
      <trkpt lat="41.4318470" lon="2.1272450">
        <ele>402.0</ele>
        <time>2018-04-10T09:41:17Z</time>
      </trkpt>
      <trkpt lat="41.4318290" lon="2.1271430">
        <ele>402.6</ele>
        <time>2018-04-10T09:41:19Z</time>
      </trkpt>
      <trkpt lat="41.4318190" lon="2.1270970">
        <ele>403.0</ele>
        <time>2018-04-10T09:41:20Z</time>
      </trkpt>
      <trkpt lat="41.4318110" lon="2.1270510">
        <ele>403.2</ele>
        <time>2018-04-10T09:41:21Z</time>
      </trkpt>
      <trkpt lat="41.4317840" lon="2.1269640">
        <ele>403.8</ele>
        <time>2018-04-10T09:41:23Z</time>
      </trkpt>
      <trkpt lat="41.4317520" lon="2.1268790">
        <ele>404.2</ele>
        <time>2018-04-10T09:41:25Z</time>
      </trkpt>
      <trkpt lat="41.4317130" lon="2.1267880">
        <ele>404.8</ele>
        <time>2018-04-10T09:41:27Z</time>
      </trkpt>
      <trkpt lat="41.4316720" lon="2.1266980">
        <ele>405.2</ele>
        <time>2018-04-10T09:41:29Z</time>
      </trkpt>
      <trkpt lat="41.4316210" lon="2.1266120">
        <ele>405.4</ele>
        <time>2018-04-10T09:41:31Z</time>
      </trkpt>
      <trkpt lat="41.4315630" lon="2.1265310">
        <ele>405.8</ele>
        <time>2018-04-10T09:41:33Z</time>
      </trkpt>
      <trkpt lat="41.4315030" lon="2.1264510">
        <ele>406.0</ele>
        <time>2018-04-10T09:41:35Z</time>
      </trkpt>
      <trkpt lat="41.4314420" lon="2.1263730">
        <ele>406.2</ele>
        <time>2018-04-10T09:41:37Z</time>
      </trkpt>
      <trkpt lat="41.4313780" lon="2.1262970">
        <ele>406.6</ele>
        <time>2018-04-10T09:41:39Z</time>
      </trkpt>
      <trkpt lat="41.4313110" lon="2.1262310">
        <ele>407.0</ele>
        <time>2018-04-10T09:41:41Z</time>
      </trkpt>
      <trkpt lat="41.4312820" lon="2.1261910">
        <ele>407.4</ele>
        <time>2018-04-10T09:41:42Z</time>
      </trkpt>
      <trkpt lat="41.4312530" lon="2.1261460">
        <ele>407.6</ele>
        <time>2018-04-10T09:41:43Z</time>
      </trkpt>
      <trkpt lat="41.4312240" lon="2.1261030">
        <ele>407.8</ele>
        <time>2018-04-10T09:41:44Z</time>
      </trkpt>
      <trkpt lat="41.4311940" lon="2.1260620">
        <ele>407.8</ele>
        <time>2018-04-10T09:41:45Z</time>
      </trkpt>
      <trkpt lat="41.4311370" lon="2.1259790">
        <ele>408.2</ele>
        <time>2018-04-10T09:41:47Z</time>
      </trkpt>
      <trkpt lat="41.4310730" lon="2.1259050">
        <ele>408.4</ele>
        <time>2018-04-10T09:41:49Z</time>
      </trkpt>
      <trkpt lat="41.4310080" lon="2.1258310">
        <ele>408.8</ele>
        <time>2018-04-10T09:41:51Z</time>
      </trkpt>
      <trkpt lat="41.4309460" lon="2.1257540">
        <ele>409.0</ele>
        <time>2018-04-10T09:41:53Z</time>
      </trkpt>
      <trkpt lat="41.4308800" lon="2.1256780">
        <ele>409.6</ele>
        <time>2018-04-10T09:41:55Z</time>
      </trkpt>
      <trkpt lat="41.4308490" lon="2.1256390">
        <ele>410.0</ele>
        <time>2018-04-10T09:41:56Z</time>
      </trkpt>
      <trkpt lat="41.4308160" lon="2.1256010">
        <ele>410.2</ele>
        <time>2018-04-10T09:41:57Z</time>
      </trkpt>
      <trkpt lat="41.4307510" lon="2.1255190">
        <ele>410.6</ele>
        <time>2018-04-10T09:41:59Z</time>
      </trkpt>
      <trkpt lat="41.4306870" lon="2.1254400">
        <ele>411.0</ele>
        <time>2018-04-10T09:42:01Z</time>
      </trkpt>
      <trkpt lat="41.4306240" lon="2.1253620">
        <ele>411.4</ele>
        <time>2018-04-10T09:42:03Z</time>
      </trkpt>
      <trkpt lat="41.4305600" lon="2.1252830">
        <ele>411.8</ele>
        <time>2018-04-10T09:42:05Z</time>
      </trkpt>
      <trkpt lat="41.4305220" lon="2.1252410">
        <ele>412.2</ele>
        <time>2018-04-10T09:42:06Z</time>
      </trkpt>
      <trkpt lat="41.4304900" lon="2.1252010">
        <ele>412.2</ele>
        <time>2018-04-10T09:42:07Z</time>
      </trkpt>
      <trkpt lat="41.4304240" lon="2.1251230">
        <ele>412.6</ele>
        <time>2018-04-10T09:42:09Z</time>
      </trkpt>
      <trkpt lat="41.4303580" lon="2.1250440">
        <ele>413.0</ele>
        <time>2018-04-10T09:42:11Z</time>
      </trkpt>
      <trkpt lat="41.4303260" lon="2.1250040">
        <ele>413.2</ele>
        <time>2018-04-10T09:42:12Z</time>
      </trkpt>
      <trkpt lat="41.4302930" lon="2.1249670">
        <ele>413.6</ele>
        <time>2018-04-10T09:42:13Z</time>
      </trkpt>
      <trkpt lat="41.4302290" lon="2.1248910">
        <ele>414.0</ele>
        <time>2018-04-10T09:42:15Z</time>
      </trkpt>
      <trkpt lat="41.4301970" lon="2.1248540">
        <ele>414.4</ele>
        <time>2018-04-10T09:42:16Z</time>
      </trkpt>
      <trkpt lat="41.4301650" lon="2.1248160">
        <ele>414.6</ele>
        <time>2018-04-10T09:42:17Z</time>
      </trkpt>
      <trkpt lat="41.4301020" lon="2.1247410">
        <ele>415.2</ele>
        <time>2018-04-10T09:42:19Z</time>
      </trkpt>
      <trkpt lat="41.4300690" lon="2.1247030">
        <ele>415.4</ele>
        <time>2018-04-10T09:42:20Z</time>
      </trkpt>
      <trkpt lat="41.4300370" lon="2.1246660">
        <ele>415.8</ele>
        <time>2018-04-10T09:42:21Z</time>
      </trkpt>
      <trkpt lat="41.4299750" lon="2.1245910">
        <ele>416.6</ele>
        <time>2018-04-10T09:42:23Z</time>
      </trkpt>
      <trkpt lat="41.4299130" lon="2.1245180">
        <ele>417.2</ele>
        <time>2018-04-10T09:42:25Z</time>
      </trkpt>
      <trkpt lat="41.4298500" lon="2.1244470">
        <ele>418.0</ele>
        <time>2018-04-10T09:42:27Z</time>
      </trkpt>
      <trkpt lat="41.4297890" lon="2.1243740">
        <ele>418.6</ele>
        <time>2018-04-10T09:42:29Z</time>
      </trkpt>
      <trkpt lat="41.4297310" lon="2.1243010">
        <ele>418.8</ele>
        <time>2018-04-10T09:42:31Z</time>
      </trkpt>
      <trkpt lat="41.4296740" lon="2.1242290">
        <ele>419.4</ele>
        <time>2018-04-10T09:42:33Z</time>
      </trkpt>
      <trkpt lat="41.4296160" lon="2.1241590">
        <ele>420.0</ele>
        <time>2018-04-10T09:42:35Z</time>
      </trkpt>
      <trkpt lat="41.4295830" lon="2.1241220">
        <ele>420.4</ele>
        <time>2018-04-10T09:42:36Z</time>
      </trkpt>
      <trkpt lat="41.4295500" lon="2.1240900">
        <ele>420.6</ele>
        <time>2018-04-10T09:42:37Z</time>
      </trkpt>
      <trkpt lat="41.4294820" lon="2.1240290">
        <ele>421.2</ele>
        <time>2018-04-10T09:42:39Z</time>
      </trkpt>
      <trkpt lat="41.4294480" lon="2.1239960">
        <ele>421.4</ele>
        <time>2018-04-10T09:42:40Z</time>
      </trkpt>
      <trkpt lat="41.4294170" lon="2.1239600">
        <ele>421.8</ele>
        <time>2018-04-10T09:42:41Z</time>
      </trkpt>
      <trkpt lat="41.4293600" lon="2.1238830">
        <ele>422.0</ele>
        <time>2018-04-10T09:42:43Z</time>
      </trkpt>
      <trkpt lat="41.4293050" lon="2.1238030">
        <ele>422.8</ele>
        <time>2018-04-10T09:42:45Z</time>
      </trkpt>
      <trkpt lat="41.4292500" lon="2.1237260">
        <ele>423.4</ele>
        <time>2018-04-10T09:42:47Z</time>
      </trkpt>
      <trkpt lat="41.4292230" lon="2.1236870">
        <ele>423.8</ele>
        <time>2018-04-10T09:42:48Z</time>
      </trkpt>
      <trkpt lat="41.4291960" lon="2.1236470">
        <ele>424.2</ele>
        <time>2018-04-10T09:42:49Z</time>
      </trkpt>
      <trkpt lat="41.4291430" lon="2.1235650">
        <ele>424.8</ele>
        <time>2018-04-10T09:42:51Z</time>
      </trkpt>
      <trkpt lat="41.4290920" lon="2.1234780">
        <ele>425.8</ele>
        <time>2018-04-10T09:42:53Z</time>
      </trkpt>
      <trkpt lat="41.4290670" lon="2.1234350">
        <ele>426.2</ele>
        <time>2018-04-10T09:42:54Z</time>
      </trkpt>
      <trkpt lat="41.4290420" lon="2.1233940">
        <ele>426.6</ele>
        <time>2018-04-10T09:42:55Z</time>
      </trkpt>
      <trkpt lat="41.4289850" lon="2.1233210">
        <ele>427.0</ele>
        <time>2018-04-10T09:42:57Z</time>
      </trkpt>
      <trkpt lat="41.4289500" lon="2.1232920">
        <ele>427.4</ele>
        <time>2018-04-10T09:42:58Z</time>
      </trkpt>
      <trkpt lat="41.4289120" lon="2.1232700">
        <ele>427.6</ele>
        <time>2018-04-10T09:42:59Z</time>
      </trkpt>
      <trkpt lat="41.4288340" lon="2.1232500">
        <ele>428.2</ele>
        <time>2018-04-10T09:43:01Z</time>
      </trkpt>
      <trkpt lat="41.4287540" lon="2.1232590">
        <ele>428.4</ele>
        <time>2018-04-10T09:43:03Z</time>
      </trkpt>
      <trkpt lat="41.4286730" lon="2.1232860">
        <ele>428.8</ele>
        <time>2018-04-10T09:43:05Z</time>
      </trkpt>
      <trkpt lat="41.4285930" lon="2.1233100">
        <ele>429.2</ele>
        <time>2018-04-10T09:43:07Z</time>
      </trkpt>
      <trkpt lat="41.4285150" lon="2.1233010">
        <ele>429.6</ele>
        <time>2018-04-10T09:43:09Z</time>
      </trkpt>
      <trkpt lat="41.4284370" lon="2.1232810">
        <ele>430.2</ele>
        <time>2018-04-10T09:43:11Z</time>
      </trkpt>
      <trkpt lat="41.4283540" lon="2.1232690">
        <ele>430.8</ele>
        <time>2018-04-10T09:43:13Z</time>
      </trkpt>
      <trkpt lat="41.4282680" lon="2.1232650">
        <ele>431.4</ele>
        <time>2018-04-10T09:43:15Z</time>
      </trkpt>
      <trkpt lat="41.4281860" lon="2.1232600">
        <ele>432.0</ele>
        <time>2018-04-10T09:43:17Z</time>
      </trkpt>
      <trkpt lat="41.4281050" lon="2.1232510">
        <ele>432.4</ele>
        <time>2018-04-10T09:43:19Z</time>
      </trkpt>
      <trkpt lat="41.4280250" lon="2.1232390">
        <ele>432.8</ele>
        <time>2018-04-10T09:43:21Z</time>
      </trkpt>
      <trkpt lat="41.4279850" lon="2.1232320">
        <ele>433.4</ele>
        <time>2018-04-10T09:43:22Z</time>
      </trkpt>
      <trkpt lat="41.4279460" lon="2.1232240">
        <ele>433.6</ele>
        <time>2018-04-10T09:43:23Z</time>
      </trkpt>
      <trkpt lat="41.4278710" lon="2.1232080">
        <ele>434.2</ele>
        <time>2018-04-10T09:43:25Z</time>
      </trkpt>
      <trkpt lat="41.4278350" lon="2.1232010">
        <ele>434.6</ele>
        <time>2018-04-10T09:43:26Z</time>
      </trkpt>
      <trkpt lat="41.4278010" lon="2.1231960">
        <ele>435.0</ele>
        <time>2018-04-10T09:43:27Z</time>
      </trkpt>
      <trkpt lat="41.4277310" lon="2.1231840">
        <ele>435.8</ele>
        <time>2018-04-10T09:43:29Z</time>
      </trkpt>
      <trkpt lat="41.4276960" lon="2.1231800">
        <ele>436.0</ele>
        <time>2018-04-10T09:43:30Z</time>
      </trkpt>
      <trkpt lat="41.4276580" lon="2.1231780">
        <ele>436.2</ele>
        <time>2018-04-10T09:43:31Z</time>
      </trkpt>
      <trkpt lat="41.4275840" lon="2.1231710">
        <ele>436.8</ele>
        <time>2018-04-10T09:43:33Z</time>
      </trkpt>
      <trkpt lat="41.4275480" lon="2.1231640">
        <ele>437.0</ele>
        <time>2018-04-10T09:43:34Z</time>
      </trkpt>
      <trkpt lat="41.4275150" lon="2.1231580">
        <ele>437.2</ele>
        <time>2018-04-10T09:43:35Z</time>
      </trkpt>
      <trkpt lat="41.4274440" lon="2.1231480">
        <ele>438.0</ele>
        <time>2018-04-10T09:43:37Z</time>
      </trkpt>
      <trkpt lat="41.4274090" lon="2.1231440">
        <ele>438.2</ele>
        <time>2018-04-10T09:43:38Z</time>
      </trkpt>
      <trkpt lat="41.4273740" lon="2.1231400">
        <ele>438.6</ele>
        <time>2018-04-10T09:43:39Z</time>
      </trkpt>
      <trkpt lat="41.4273080" lon="2.1231280">
        <ele>439.0</ele>
        <time>2018-04-10T09:43:41Z</time>
      </trkpt>
      <trkpt lat="41.4272400" lon="2.1231190">
        <ele>439.4</ele>
        <time>2018-04-10T09:43:43Z</time>
      </trkpt>
      <trkpt lat="41.4271680" lon="2.1231130">
        <ele>439.8</ele>
        <time>2018-04-10T09:43:45Z</time>
      </trkpt>
      <trkpt lat="41.4270960" lon="2.1231090">
        <ele>440.2</ele>
        <time>2018-04-10T09:43:47Z</time>
      </trkpt>
      <trkpt lat="41.4270590" lon="2.1231050">
        <ele>440.4</ele>
        <time>2018-04-10T09:43:48Z</time>
      </trkpt>
      <trkpt lat="41.4270240" lon="2.1231000">
        <ele>440.8</ele>
        <time>2018-04-10T09:43:49Z</time>
      </trkpt>
      <trkpt lat="41.4269490" lon="2.1230920">
        <ele>441.8</ele>
        <time>2018-04-10T09:43:51Z</time>
      </trkpt>
      <trkpt lat="41.4268720" lon="2.1230860">
        <ele>442.2</ele>
        <time>2018-04-10T09:43:53Z</time>
      </trkpt>
      <trkpt lat="41.4267990" lon="2.1230780">
        <ele>442.8</ele>
        <time>2018-04-10T09:43:55Z</time>
      </trkpt>
      <trkpt lat="41.4267270" lon="2.1230650">
        <ele>443.2</ele>
        <time>2018-04-10T09:43:57Z</time>
      </trkpt>
      <trkpt lat="41.4266540" lon="2.1230480">
        <ele>443.8</ele>
        <time>2018-04-10T09:43:59Z</time>
      </trkpt>
      <trkpt lat="41.4266140" lon="2.1230400">
        <ele>444.0</ele>
        <time>2018-04-10T09:44:00Z</time>
      </trkpt>
      <trkpt lat="41.4265770" lon="2.1230280">
        <ele>444.2</ele>
        <time>2018-04-10T09:44:01Z</time>
      </trkpt>
      <trkpt lat="41.4265060" lon="2.1230050">
        <ele>444.8</ele>
        <time>2018-04-10T09:44:03Z</time>
      </trkpt>
      <trkpt lat="41.4264700" lon="2.1229900">
        <ele>445.0</ele>
        <time>2018-04-10T09:44:04Z</time>
      </trkpt>
      <trkpt lat="41.4264350" lon="2.1229770">
        <ele>445.4</ele>
        <time>2018-04-10T09:44:05Z</time>
      </trkpt>
      <trkpt lat="41.4263680" lon="2.1229480">
        <ele>446.2</ele>
        <time>2018-04-10T09:44:07Z</time>
      </trkpt>
      <trkpt lat="41.4262990" lon="2.1229160">
        <ele>446.8</ele>
        <time>2018-04-10T09:44:09Z</time>
      </trkpt>
      <trkpt lat="41.4262350" lon="2.1228810">
        <ele>447.6</ele>
        <time>2018-04-10T09:44:11Z</time>
      </trkpt>
      <trkpt lat="41.4261700" lon="2.1228470">
        <ele>448.2</ele>
        <time>2018-04-10T09:44:13Z</time>
      </trkpt>
      <trkpt lat="41.4261380" lon="2.1228290">
        <ele>448.6</ele>
        <time>2018-04-10T09:44:14Z</time>
      </trkpt>
      <trkpt lat="41.4261080" lon="2.1228100">
        <ele>448.8</ele>
        <time>2018-04-10T09:44:15Z</time>
      </trkpt>
      <trkpt lat="41.4260410" lon="2.1227740">
        <ele>449.2</ele>
        <time>2018-04-10T09:44:17Z</time>
      </trkpt>
      <trkpt lat="41.4259750" lon="2.1227350">
        <ele>449.8</ele>
        <time>2018-04-10T09:44:19Z</time>
      </trkpt>
      <trkpt lat="41.4259090" lon="2.1226950">
        <ele>450.8</ele>
        <time>2018-04-10T09:44:21Z</time>
      </trkpt>
      <trkpt lat="41.4258760" lon="2.1226740">
        <ele>451.0</ele>
        <time>2018-04-10T09:44:22Z</time>
      </trkpt>
      <trkpt lat="41.4258440" lon="2.1226550">
        <ele>451.2</ele>
        <time>2018-04-10T09:44:23Z</time>
      </trkpt>
      <trkpt lat="41.4257790" lon="2.1226200">
        <ele>451.6</ele>
        <time>2018-04-10T09:44:25Z</time>
      </trkpt>
      <trkpt lat="41.4257080" lon="2.1225850">
        <ele>452.2</ele>
        <time>2018-04-10T09:44:27Z</time>
      </trkpt>
      <trkpt lat="41.4256390" lon="2.1225470">
        <ele>452.6</ele>
        <time>2018-04-10T09:44:29Z</time>
      </trkpt>
      <trkpt lat="41.4255730" lon="2.1225110">
        <ele>453.0</ele>
        <time>2018-04-10T09:44:31Z</time>
      </trkpt>
      <trkpt lat="41.4255390" lon="2.1224920">
        <ele>453.2</ele>
        <time>2018-04-10T09:44:32Z</time>
      </trkpt>
      <trkpt lat="41.4255050" lon="2.1224770">
        <ele>453.2</ele>
        <time>2018-04-10T09:44:33Z</time>
      </trkpt>
      <trkpt lat="41.4254380" lon="2.1224400">
        <ele>453.6</ele>
        <time>2018-04-10T09:44:35Z</time>
      </trkpt>
      <trkpt lat="41.4253720" lon="2.1223980">
        <ele>454.0</ele>
        <time>2018-04-10T09:44:37Z</time>
      </trkpt>
      <trkpt lat="41.4253380" lon="2.1223800">
        <ele>454.2</ele>
        <time>2018-04-10T09:44:38Z</time>
      </trkpt>
      <trkpt lat="41.4253030" lon="2.1223630">
        <ele>454.4</ele>
        <time>2018-04-10T09:44:39Z</time>
      </trkpt>
      <trkpt lat="41.4252360" lon="2.1223230">
        <ele>455.0</ele>
        <time>2018-04-10T09:44:41Z</time>
      </trkpt>
      <trkpt lat="41.4252040" lon="2.1223000">
        <ele>455.4</ele>
        <time>2018-04-10T09:44:42Z</time>
      </trkpt>
      <trkpt lat="41.4251720" lon="2.1222780">
        <ele>455.8</ele>
        <time>2018-04-10T09:44:43Z</time>
      </trkpt>
      <trkpt lat="41.4251050" lon="2.1222340">
        <ele>456.4</ele>
        <time>2018-04-10T09:44:45Z</time>
      </trkpt>
      <trkpt lat="41.4250720" lon="2.1222110">
        <ele>456.4</ele>
        <time>2018-04-10T09:44:46Z</time>
      </trkpt>
      <trkpt lat="41.4250400" lon="2.1221860">
        <ele>456.6</ele>
        <time>2018-04-10T09:44:47Z</time>
      </trkpt>
      <trkpt lat="41.4249770" lon="2.1221300">
        <ele>457.0</ele>
        <time>2018-04-10T09:44:49Z</time>
      </trkpt>
      <trkpt lat="41.4249180" lon="2.1220690">
        <ele>457.6</ele>
        <time>2018-04-10T09:44:51Z</time>
      </trkpt>
      <trkpt lat="41.4248660" lon="2.1220000">
        <ele>458.0</ele>
        <time>2018-04-10T09:44:53Z</time>
      </trkpt>
      <trkpt lat="41.4248220" lon="2.1219280">
        <ele>458.8</ele>
        <time>2018-04-10T09:44:55Z</time>
      </trkpt>
      <trkpt lat="41.4247810" lon="2.1218510">
        <ele>459.6</ele>
        <time>2018-04-10T09:44:57Z</time>
      </trkpt>
      <trkpt lat="41.4247590" lon="2.1218130">
        <ele>460.0</ele>
        <time>2018-04-10T09:44:58Z</time>
      </trkpt>
      <trkpt lat="41.4247360" lon="2.1217740">
        <ele>460.4</ele>
        <time>2018-04-10T09:44:59Z</time>
      </trkpt>
      <trkpt lat="41.4246890" lon="2.1216950">
        <ele>460.6</ele>
        <time>2018-04-10T09:45:01Z</time>
      </trkpt>
      <trkpt lat="41.4246420" lon="2.1216170">
        <ele>461.0</ele>
        <time>2018-04-10T09:45:03Z</time>
      </trkpt>
      <trkpt lat="41.4245930" lon="2.1215440">
        <ele>461.4</ele>
        <time>2018-04-10T09:45:05Z</time>
      </trkpt>
      <trkpt lat="41.4245440" lon="2.1214690">
        <ele>462.2</ele>
        <time>2018-04-10T09:45:07Z</time>
      </trkpt>
      <trkpt lat="41.4244960" lon="2.1213930">
        <ele>462.4</ele>
        <time>2018-04-10T09:45:09Z</time>
      </trkpt>
      <trkpt lat="41.4244470" lon="2.1213160">
        <ele>462.8</ele>
        <time>2018-04-10T09:45:11Z</time>
      </trkpt>
      <trkpt lat="41.4244210" lon="2.1212790">
        <ele>463.2</ele>
        <time>2018-04-10T09:45:12Z</time>
      </trkpt>
      <trkpt lat="41.4243930" lon="2.1212440">
        <ele>463.6</ele>
        <time>2018-04-10T09:45:13Z</time>
      </trkpt>
      <trkpt lat="41.4243360" lon="2.1211800">
        <ele>464.2</ele>
        <time>2018-04-10T09:45:15Z</time>
      </trkpt>
      <trkpt lat="41.4243070" lon="2.1211500">
        <ele>464.2</ele>
        <time>2018-04-10T09:45:16Z</time>
      </trkpt>
      <trkpt lat="41.4242770" lon="2.1211190">
        <ele>464.4</ele>
        <time>2018-04-10T09:45:17Z</time>
      </trkpt>
      <trkpt lat="41.4242160" lon="2.1210610">
        <ele>464.8</ele>
        <time>2018-04-10T09:45:19Z</time>
      </trkpt>
      <trkpt lat="41.4241500" lon="2.1210100">
        <ele>465.6</ele>
        <time>2018-04-10T09:45:21Z</time>
      </trkpt>
      <trkpt lat="41.4240830" lon="2.1209630">
        <ele>466.2</ele>
        <time>2018-04-10T09:45:23Z</time>
      </trkpt>
      <trkpt lat="41.4240140" lon="2.1209200">
        <ele>466.6</ele>
        <time>2018-04-10T09:45:25Z</time>
      </trkpt>
      <trkpt lat="41.4239430" lon="2.1208820">
        <ele>467.0</ele>
        <time>2018-04-10T09:45:27Z</time>
      </trkpt>
      <trkpt lat="41.4238760" lon="2.1208470">
        <ele>467.4</ele>
        <time>2018-04-10T09:45:29Z</time>
      </trkpt>
      <trkpt lat="41.4238410" lon="2.1208280">
        <ele>467.6</ele>
        <time>2018-04-10T09:45:30Z</time>
      </trkpt>
      <trkpt lat="41.4238050" lon="2.1208130">
        <ele>467.8</ele>
        <time>2018-04-10T09:45:31Z</time>
      </trkpt>
      <trkpt lat="41.4237340" lon="2.1207840">
        <ele>468.0</ele>
        <time>2018-04-10T09:45:33Z</time>
      </trkpt>
      <trkpt lat="41.4236650" lon="2.1207590">
        <ele>468.4</ele>
        <time>2018-04-10T09:45:35Z</time>
      </trkpt>
      <trkpt lat="41.4235900" lon="2.1207380">
        <ele>468.8</ele>
        <time>2018-04-10T09:45:37Z</time>
      </trkpt>
      <trkpt lat="41.4235110" lon="2.1207210">
        <ele>469.2</ele>
        <time>2018-04-10T09:45:39Z</time>
      </trkpt>
      <trkpt lat="41.4234330" lon="2.1207030">
        <ele>469.6</ele>
        <time>2018-04-10T09:45:41Z</time>
      </trkpt>
      <trkpt lat="41.4233590" lon="2.1206890">
        <ele>469.8</ele>
        <time>2018-04-10T09:45:43Z</time>
      </trkpt>
      <trkpt lat="41.4232860" lon="2.1206900">
        <ele>470.0</ele>
        <time>2018-04-10T09:45:45Z</time>
      </trkpt>
      <trkpt lat="41.4232100" lon="2.1206950">
        <ele>470.6</ele>
        <time>2018-04-10T09:45:47Z</time>
      </trkpt>
      <trkpt lat="41.4231710" lon="2.1206980">
        <ele>471.0</ele>
        <time>2018-04-10T09:45:48Z</time>
      </trkpt>
      <trkpt lat="41.4231330" lon="2.1207040">
        <ele>471.0</ele>
        <time>2018-04-10T09:45:49Z</time>
      </trkpt>
      <trkpt lat="41.4230580" lon="2.1207300">
        <ele>471.4</ele>
        <time>2018-04-10T09:45:51Z</time>
      </trkpt>
      <trkpt lat="41.4229830" lon="2.1207610">
        <ele>471.8</ele>
        <time>2018-04-10T09:45:53Z</time>
      </trkpt>
      <trkpt lat="41.4229440" lon="2.1207700">
        <ele>472.0</ele>
        <time>2018-04-10T09:45:54Z</time>
      </trkpt>
      <trkpt lat="41.4229050" lon="2.1207770">
        <ele>472.2</ele>
        <time>2018-04-10T09:45:55Z</time>
      </trkpt>
      <trkpt lat="41.4228240" lon="2.1207860">
        <ele>472.6</ele>
        <time>2018-04-10T09:45:57Z</time>
      </trkpt>
      <trkpt lat="41.4227430" lon="2.1207740">
        <ele>473.0</ele>
        <time>2018-04-10T09:45:59Z</time>
      </trkpt>
      <trkpt lat="41.4227070" lon="2.1207500">
        <ele>473.2</ele>
        <time>2018-04-10T09:46:00Z</time>
      </trkpt>
      <trkpt lat="41.4226810" lon="2.1207100">
        <ele>473.4</ele>
        <time>2018-04-10T09:46:01Z</time>
      </trkpt>
      <trkpt lat="41.4226730" lon="2.1206070">
        <ele>473.6</ele>
        <time>2018-04-10T09:46:03Z</time>
      </trkpt>
      <trkpt lat="41.4227190" lon="2.1205190">
        <ele>474.2</ele>
        <time>2018-04-10T09:46:05Z</time>
      </trkpt>
      <trkpt lat="41.4227900" lon="2.1204890">
        <ele>474.8</ele>
        <time>2018-04-10T09:46:07Z</time>
      </trkpt>
      <trkpt lat="41.4228660" lon="2.1205090">
        <ele>475.2</ele>
        <time>2018-04-10T09:46:09Z</time>
      </trkpt>
      <trkpt lat="41.4229040" lon="2.1205240">
        <ele>475.4</ele>
        <time>2018-04-10T09:46:10Z</time>
      </trkpt>
      <trkpt lat="41.4229420" lon="2.1205370">
        <ele>475.4</ele>
        <time>2018-04-10T09:46:11Z</time>
      </trkpt>
      <trkpt lat="41.4230190" lon="2.1205630">
        <ele>475.8</ele>
        <time>2018-04-10T09:46:13Z</time>
      </trkpt>
      <trkpt lat="41.4230580" lon="2.1205720">
        <ele>476.0</ele>
        <time>2018-04-10T09:46:14Z</time>
      </trkpt>
      <trkpt lat="41.4230980" lon="2.1205770">
        <ele>476.2</ele>
        <time>2018-04-10T09:46:15Z</time>
      </trkpt>
      <trkpt lat="41.4231380" lon="2.1205800">
        <ele>476.4</ele>
        <time>2018-04-10T09:46:16Z</time>
      </trkpt>
      <trkpt lat="41.4231790" lon="2.1205810">
        <ele>476.8</ele>
        <time>2018-04-10T09:46:17Z</time>
      </trkpt>
      <trkpt lat="41.4232610" lon="2.1205690">
        <ele>477.2</ele>
        <time>2018-04-10T09:46:19Z</time>
      </trkpt>
      <trkpt lat="41.4233420" lon="2.1205550">
        <ele>477.4</ele>
        <time>2018-04-10T09:46:21Z</time>
      </trkpt>
      <trkpt lat="41.4233830" lon="2.1205500">
        <ele>477.6</ele>
        <time>2018-04-10T09:46:22Z</time>
      </trkpt>
      <trkpt lat="41.4234240" lon="2.1205430">
        <ele>477.8</ele>
        <time>2018-04-10T09:46:23Z</time>
      </trkpt>
      <trkpt lat="41.4235060" lon="2.1205290">
        <ele>478.2</ele>
        <time>2018-04-10T09:46:25Z</time>
      </trkpt>
      <trkpt lat="41.4235890" lon="2.1205120">
        <ele>478.4</ele>
        <time>2018-04-10T09:46:27Z</time>
      </trkpt>
      <trkpt lat="41.4236700" lon="2.1204940">
        <ele>478.6</ele>
        <time>2018-04-10T09:46:29Z</time>
      </trkpt>
      <trkpt lat="41.4237520" lon="2.1204920">
        <ele>479.0</ele>
        <time>2018-04-10T09:46:31Z</time>
      </trkpt>
      <trkpt lat="41.4238320" lon="2.1204970">
        <ele>479.2</ele>
        <time>2018-04-10T09:46:33Z</time>
      </trkpt>
      <trkpt lat="41.4239130" lon="2.1205070">
        <ele>479.8</ele>
        <time>2018-04-10T09:46:35Z</time>
      </trkpt>
      <trkpt lat="41.4239950" lon="2.1205270">
        <ele>480.4</ele>
        <time>2018-04-10T09:46:37Z</time>
      </trkpt>
      <trkpt lat="41.4240750" lon="2.1205550">
        <ele>480.8</ele>
        <time>2018-04-10T09:46:39Z</time>
      </trkpt>
      <trkpt lat="41.4241520" lon="2.1205940">
        <ele>481.4</ele>
        <time>2018-04-10T09:46:41Z</time>
      </trkpt>
      <trkpt lat="41.4242280" lon="2.1206400">
        <ele>481.8</ele>
        <time>2018-04-10T09:46:43Z</time>
      </trkpt>
      <trkpt lat="41.4243030" lon="2.1206870">
        <ele>482.4</ele>
        <time>2018-04-10T09:46:45Z</time>
      </trkpt>
      <trkpt lat="41.4243780" lon="2.1207350">
        <ele>483.0</ele>
        <time>2018-04-10T09:46:47Z</time>
      </trkpt>
      <trkpt lat="41.4244540" lon="2.1207780">
        <ele>483.6</ele>
        <time>2018-04-10T09:46:49Z</time>
      </trkpt>
      <trkpt lat="41.4245260" lon="2.1208240">
        <ele>483.8</ele>
        <time>2018-04-10T09:46:51Z</time>
      </trkpt>
      <trkpt lat="41.4245970" lon="2.1208690">
        <ele>484.0</ele>
        <time>2018-04-10T09:46:53Z</time>
      </trkpt>
      <trkpt lat="41.4246710" lon="2.1209100">
        <ele>484.6</ele>
        <time>2018-04-10T09:46:55Z</time>
      </trkpt>
      <trkpt lat="41.4247440" lon="2.1209540">
        <ele>485.2</ele>
        <time>2018-04-10T09:46:57Z</time>
      </trkpt>
      <trkpt lat="41.4248150" lon="2.1210010">
        <ele>485.8</ele>
        <time>2018-04-10T09:46:59Z</time>
      </trkpt>
      <trkpt lat="41.4248900" lon="2.1210490">
        <ele>486.2</ele>
        <time>2018-04-10T09:47:01Z</time>
      </trkpt>
      <trkpt lat="41.4249640" lon="2.1210920">
        <ele>486.8</ele>
        <time>2018-04-10T09:47:03Z</time>
      </trkpt>
      <trkpt lat="41.4250370" lon="2.1211360">
        <ele>487.4</ele>
        <time>2018-04-10T09:47:05Z</time>
      </trkpt>
      <trkpt lat="41.4251080" lon="2.1211820">
        <ele>487.8</ele>
        <time>2018-04-10T09:47:07Z</time>
      </trkpt>
      <trkpt lat="41.4251800" lon="2.1212310">
        <ele>488.4</ele>
        <time>2018-04-10T09:47:09Z</time>
      </trkpt>
      <trkpt lat="41.4252160" lon="2.1212540">
        <ele>488.6</ele>
        <time>2018-04-10T09:47:10Z</time>
      </trkpt>
      <trkpt lat="41.4252520" lon="2.1212760">
        <ele>488.8</ele>
        <time>2018-04-10T09:47:11Z</time>
      </trkpt>
      <trkpt lat="41.4253260" lon="2.1213160">
        <ele>489.2</ele>
        <time>2018-04-10T09:47:13Z</time>
      </trkpt>
      <trkpt lat="41.4253990" lon="2.1213590">
        <ele>489.8</ele>
        <time>2018-04-10T09:47:15Z</time>
      </trkpt>
      <trkpt lat="41.4254720" lon="2.1213930">
        <ele>490.2</ele>
        <time>2018-04-10T09:47:17Z</time>
      </trkpt>
      <trkpt lat="41.4255430" lon="2.1214010">
        <ele>490.6</ele>
        <time>2018-04-10T09:47:19Z</time>
      </trkpt>
      <trkpt lat="41.4255790" lon="2.1213960">
        <ele>490.8</ele>
        <time>2018-04-10T09:47:20Z</time>
      </trkpt>
      <trkpt lat="41.4256150" lon="2.1213860">
        <ele>491.2</ele>
        <time>2018-04-10T09:47:21Z</time>
      </trkpt>
      <trkpt lat="41.4256880" lon="2.1213560">
        <ele>491.8</ele>
        <time>2018-04-10T09:47:23Z</time>
      </trkpt>
      <trkpt lat="41.4257210" lon="2.1213300">
        <ele>492.0</ele>
        <time>2018-04-10T09:47:24Z</time>
      </trkpt>
      <trkpt lat="41.4257510" lon="2.1212970">
        <ele>492.2</ele>
        <time>2018-04-10T09:47:25Z</time>
      </trkpt>
      <trkpt lat="41.4258010" lon="2.1212200">
        <ele>492.6</ele>
        <time>2018-04-10T09:47:27Z</time>
      </trkpt>
      <trkpt lat="41.4258410" lon="2.1211360">
        <ele>493.0</ele>
        <time>2018-04-10T09:47:29Z</time>
      </trkpt>
      <trkpt lat="41.4258700" lon="2.1210460">
        <ele>493.8</ele>
        <time>2018-04-10T09:47:31Z</time>
      </trkpt>
      <trkpt lat="41.4258900" lon="2.1209420">
        <ele>494.4</ele>
        <time>2018-04-10T09:47:33Z</time>
      </trkpt>
      <trkpt lat="41.4258890" lon="2.1208360">
        <ele>494.8</ele>
        <time>2018-04-10T09:47:35Z</time>
      </trkpt>
      <trkpt lat="41.4258850" lon="2.1207330">
        <ele>495.6</ele>
        <time>2018-04-10T09:47:37Z</time>
      </trkpt>
      <trkpt lat="41.4258750" lon="2.1206320">
        <ele>496.0</ele>
        <time>2018-04-10T09:47:39Z</time>
      </trkpt>
      <trkpt lat="41.4258610" lon="2.1205310">
        <ele>496.4</ele>
        <time>2018-04-10T09:47:41Z</time>
      </trkpt>
      <trkpt lat="41.4258490" lon="2.1204790">
        <ele>496.6</ele>
        <time>2018-04-10T09:47:42Z</time>
      </trkpt>
      <trkpt lat="41.4258390" lon="2.1204310">
        <ele>496.6</ele>
        <time>2018-04-10T09:47:43Z</time>
      </trkpt>
      <trkpt lat="41.4258230" lon="2.1203310">
        <ele>497.0</ele>
        <time>2018-04-10T09:47:45Z</time>
      </trkpt>
      <trkpt lat="41.4258190" lon="2.1202280">
        <ele>497.6</ele>
        <time>2018-04-10T09:47:47Z</time>
      </trkpt>
      <trkpt lat="41.4258110" lon="2.1201750">
        <ele>497.8</ele>
        <time>2018-04-10T09:47:48Z</time>
      </trkpt>
      <trkpt lat="41.4258000" lon="2.1201230">
        <ele>497.8</ele>
        <time>2018-04-10T09:47:49Z</time>
      </trkpt>
      <trkpt lat="41.4257800" lon="2.1200250">
        <ele>498.2</ele>
        <time>2018-04-10T09:47:51Z</time>
      </trkpt>
      <trkpt lat="41.4257610" lon="2.1199300">
        <ele>498.4</ele>
        <time>2018-04-10T09:47:53Z</time>
      </trkpt>
      <trkpt lat="41.4257440" lon="2.1198430">
        <ele>498.6</ele>
        <time>2018-04-10T09:47:55Z</time>
      </trkpt>
      <trkpt lat="41.4257330" lon="2.1198020">
        <ele>498.8</ele>
        <time>2018-04-10T09:47:56Z</time>
      </trkpt>
      <trkpt lat="41.4257160" lon="2.1197650">
        <ele>499.0</ele>
        <time>2018-04-10T09:47:57Z</time>
      </trkpt>
      <trkpt lat="41.4256620" lon="2.1197070">
        <ele>499.4</ele>
        <time>2018-04-10T09:47:59Z</time>
      </trkpt>
      <trkpt lat="41.4256000" lon="2.1196680">
        <ele>499.8</ele>
        <time>2018-04-10T09:48:01Z</time>
      </trkpt>
      <trkpt lat="41.4255680" lon="2.1196530">
        <ele>500.0</ele>
        <time>2018-04-10T09:48:02Z</time>
      </trkpt>
      <trkpt lat="41.4255330" lon="2.1196390">
        <ele>500.4</ele>
        <time>2018-04-10T09:48:03Z</time>
      </trkpt>
      <trkpt lat="41.4254650" lon="2.1196150">
        <ele>501.0</ele>
        <time>2018-04-10T09:48:05Z</time>
      </trkpt>
      <trkpt lat="41.4254340" lon="2.1196070">
        <ele>501.4</ele>
        <time>2018-04-10T09:48:06Z</time>
      </trkpt>
      <trkpt lat="41.4254060" lon="2.1195980">
        <ele>501.4</ele>
        <time>2018-04-10T09:48:07Z</time>
      </trkpt>
      <trkpt lat="41.4253420" lon="2.1195810">
        <ele>502.0</ele>
        <time>2018-04-10T09:48:09Z</time>
      </trkpt>
      <trkpt lat="41.4252700" lon="2.1195610">
        <ele>502.2</ele>
        <time>2018-04-10T09:48:11Z</time>
      </trkpt>
      <trkpt lat="41.4252360" lon="2.1195520">
        <ele>502.4</ele>
        <time>2018-04-10T09:48:12Z</time>
      </trkpt>
      <trkpt lat="41.4251990" lon="2.1195410">
        <ele>502.8</ele>
        <time>2018-04-10T09:48:13Z</time>
      </trkpt>
      <trkpt lat="41.4251260" lon="2.1195210">
        <ele>503.0</ele>
        <time>2018-04-10T09:48:15Z</time>
      </trkpt>
      <trkpt lat="41.4250560" lon="2.1195000">
        <ele>503.6</ele>
        <time>2018-04-10T09:48:17Z</time>
      </trkpt>
      <trkpt lat="41.4249830" lon="2.1194790">
        <ele>504.2</ele>
        <time>2018-04-10T09:48:19Z</time>
      </trkpt>
      <trkpt lat="41.4249100" lon="2.1194570">
        <ele>505.0</ele>
        <time>2018-04-10T09:48:21Z</time>
      </trkpt>
      <trkpt lat="41.4248380" lon="2.1194320">
        <ele>505.6</ele>
        <time>2018-04-10T09:48:23Z</time>
      </trkpt>
      <trkpt lat="41.4247670" lon="2.1194150">
        <ele>506.0</ele>
        <time>2018-04-10T09:48:25Z</time>
      </trkpt>
      <trkpt lat="41.4247010" lon="2.1194020">
        <ele>506.4</ele>
        <time>2018-04-10T09:48:27Z</time>
      </trkpt>
      <trkpt lat="41.4246300" lon="2.1193830">
        <ele>506.8</ele>
        <time>2018-04-10T09:48:29Z</time>
      </trkpt>
      <trkpt lat="41.4245560" lon="2.1193680">
        <ele>507.2</ele>
        <time>2018-04-10T09:48:31Z</time>
      </trkpt>
      <trkpt lat="41.4244950" lon="2.1193710">
        <ele>507.8</ele>
        <time>2018-04-10T09:48:33Z</time>
      </trkpt>
      <trkpt lat="41.4244560" lon="2.1193690">
        <ele>508.2</ele>
        <time>2018-04-10T09:48:34Z</time>
      </trkpt>
      <trkpt lat="41.4244230" lon="2.1193630">
        <ele>508.6</ele>
        <time>2018-04-10T09:48:35Z</time>
      </trkpt>
      <trkpt lat="41.4243440" lon="2.1193440">
        <ele>509.0</ele>
        <time>2018-04-10T09:48:37Z</time>
      </trkpt>
      <trkpt lat="41.4243070" lon="2.1193340">
        <ele>509.4</ele>
        <time>2018-04-10T09:48:38Z</time>
      </trkpt>
      <trkpt lat="41.4242690" lon="2.1193280">
        <ele>509.6</ele>
        <time>2018-04-10T09:48:39Z</time>
      </trkpt>
      <trkpt lat="41.4241950" lon="2.1193060">
        <ele>509.8</ele>
        <time>2018-04-10T09:48:41Z</time>
      </trkpt>
      <trkpt lat="41.4241520" lon="2.1192960">
        <ele>510.4</ele>
        <time>2018-04-10T09:48:42Z</time>
      </trkpt>
      <trkpt lat="41.4241110" lon="2.1192870">
        <ele>510.6</ele>
        <time>2018-04-10T09:48:43Z</time>
      </trkpt>
      <trkpt lat="41.4240260" lon="2.1192700">
        <ele>511.2</ele>
        <time>2018-04-10T09:48:45Z</time>
      </trkpt>
      <trkpt lat="41.4239840" lon="2.1192630">
        <ele>511.6</ele>
        <time>2018-04-10T09:48:46Z</time>
      </trkpt>
      <trkpt lat="41.4239430" lon="2.1192520">
        <ele>511.8</ele>
        <time>2018-04-10T09:48:47Z</time>
      </trkpt>
      <trkpt lat="41.4238610" lon="2.1192400">
        <ele>512.4</ele>
        <time>2018-04-10T09:48:49Z</time>
      </trkpt>
      <trkpt lat="41.4238210" lon="2.1192330">
        <ele>512.6</ele>
        <time>2018-04-10T09:48:50Z</time>
      </trkpt>
      <trkpt lat="41.4237810" lon="2.1192240">
        <ele>512.8</ele>
        <time>2018-04-10T09:48:51Z</time>
      </trkpt>
      <trkpt lat="41.4236980" lon="2.1192060">
        <ele>513.2</ele>
        <time>2018-04-10T09:48:53Z</time>
      </trkpt>
      <trkpt lat="41.4236160" lon="2.1191850">
        <ele>513.8</ele>
        <time>2018-04-10T09:48:55Z</time>
      </trkpt>
      <trkpt lat="41.4235740" lon="2.1191740">
        <ele>514.0</ele>
        <time>2018-04-10T09:48:56Z</time>
      </trkpt>
      <trkpt lat="41.4235330" lon="2.1191640">
        <ele>514.0</ele>
        <time>2018-04-10T09:48:57Z</time>
      </trkpt>
      <trkpt lat="41.4234530" lon="2.1191420">
        <ele>514.2</ele>
        <time>2018-04-10T09:48:59Z</time>
      </trkpt>
      <trkpt lat="41.4233770" lon="2.1191130">
        <ele>514.8</ele>
        <time>2018-04-10T09:49:01Z</time>
      </trkpt>
      <trkpt lat="41.4233000" lon="2.1190770">
        <ele>515.2</ele>
        <time>2018-04-10T09:49:03Z</time>
      </trkpt>
      <trkpt lat="41.4232300" lon="2.1190380">
        <ele>515.6</ele>
        <time>2018-04-10T09:49:05Z</time>
      </trkpt>
      <trkpt lat="41.4231590" lon="2.1189970">
        <ele>515.8</ele>
        <time>2018-04-10T09:49:07Z</time>
      </trkpt>
      <trkpt lat="41.4231240" lon="2.1189780">
        <ele>516.0</ele>
        <time>2018-04-10T09:49:08Z</time>
      </trkpt>
      <trkpt lat="41.4230920" lon="2.1189570">
        <ele>516.0</ele>
        <time>2018-04-10T09:49:09Z</time>
      </trkpt>
      <trkpt lat="41.4230240" lon="2.1189160">
        <ele>516.6</ele>
        <time>2018-04-10T09:49:11Z</time>
      </trkpt>
      <trkpt lat="41.4229520" lon="2.1188760">
        <ele>517.2</ele>
        <time>2018-04-10T09:49:13Z</time>
      </trkpt>
      <trkpt lat="41.4228790" lon="2.1188350">
        <ele>517.4</ele>
        <time>2018-04-10T09:49:15Z</time>
      </trkpt>
      <trkpt lat="41.4228050" lon="2.1187970">
        <ele>517.6</ele>
        <time>2018-04-10T09:49:17Z</time>
      </trkpt>
      <trkpt lat="41.4227350" lon="2.1187410">
        <ele>517.8</ele>
        <time>2018-04-10T09:49:19Z</time>
      </trkpt>
      <trkpt lat="41.4226740" lon="2.1186800">
        <ele>518.0</ele>
        <time>2018-04-10T09:49:21Z</time>
      </trkpt>
      <trkpt lat="41.4226180" lon="2.1186230">
        <ele>518.2</ele>
        <time>2018-04-10T09:49:23Z</time>
      </trkpt>
      <trkpt lat="41.4225480" lon="2.1185520">
        <ele>518.2</ele>
        <time>2018-04-10T09:49:25Z</time>
      </trkpt>
      <trkpt lat="41.4224720" lon="2.1184670">
        <ele>518.2</ele>
        <time>2018-04-10T09:49:27Z</time>
      </trkpt>
      <trkpt lat="41.4223780" lon="2.1183990">
        <ele>518.2</ele>
        <time>2018-04-10T09:49:29Z</time>
      </trkpt>
      <trkpt lat="41.4222560" lon="2.1183760">
        <ele>518.0</ele>
        <time>2018-04-10T09:49:31Z</time>
      </trkpt>
      <trkpt lat="41.4221390" lon="2.1184050">
        <ele>517.6</ele>
        <time>2018-04-10T09:49:33Z</time>
      </trkpt>
      <trkpt lat="41.4220350" lon="2.1184740">
        <ele>517.2</ele>
        <time>2018-04-10T09:49:35Z</time>
      </trkpt>
      <trkpt lat="41.4219860" lon="2.1185280">
        <ele>517.2</ele>
        <time>2018-04-10T09:49:36Z</time>
      </trkpt>
      <trkpt lat="41.4219400" lon="2.1185960">
        <ele>517.0</ele>
        <time>2018-04-10T09:49:37Z</time>
      </trkpt>
      <trkpt lat="41.4218930" lon="2.1186710">
        <ele>516.8</ele>
        <time>2018-04-10T09:49:38Z</time>
      </trkpt>
      <trkpt lat="41.4218480" lon="2.1187500">
        <ele>516.4</ele>
        <time>2018-04-10T09:49:39Z</time>
      </trkpt>
      <trkpt lat="41.4217980" lon="2.1188270">
        <ele>515.4</ele>
        <time>2018-04-10T09:49:40Z</time>
      </trkpt>
      <trkpt lat="41.4217510" lon="2.1189050">
        <ele>515.2</ele>
        <time>2018-04-10T09:49:41Z</time>
      </trkpt>
      <trkpt lat="41.4216580" lon="2.1190460">
        <ele>514.4</ele>
        <time>2018-04-10T09:49:43Z</time>
      </trkpt>
      <trkpt lat="41.4216100" lon="2.1191020">
        <ele>514.0</ele>
        <time>2018-04-10T09:49:44Z</time>
      </trkpt>
      <trkpt lat="41.4215590" lon="2.1191490">
        <ele>513.4</ele>
        <time>2018-04-10T09:49:45Z</time>
      </trkpt>
      <trkpt lat="41.4215020" lon="2.1191840">
        <ele>513.0</ele>
        <time>2018-04-10T09:49:46Z</time>
      </trkpt>
      <trkpt lat="41.4214480" lon="2.1192150">
        <ele>512.8</ele>
        <time>2018-04-10T09:49:47Z</time>
      </trkpt>
      <trkpt lat="41.4213790" lon="2.1193170">
        <ele>512.4</ele>
        <time>2018-04-10T09:49:49Z</time>
      </trkpt>
      <trkpt lat="41.4213550" lon="2.1194510">
        <ele>512.2</ele>
        <time>2018-04-10T09:49:51Z</time>
      </trkpt>
      <trkpt lat="41.4213070" lon="2.1195480">
        <ele>512.0</ele>
        <time>2018-04-10T09:49:53Z</time>
      </trkpt>
      <trkpt lat="41.4212950" lon="2.1195960">
        <ele>512.0</ele>
        <time>2018-04-10T09:49:55Z</time>
      </trkpt>
      <trkpt lat="41.4213190" lon="2.1196060">
        <ele>512.0</ele>
        <time>2018-04-10T09:49:57Z</time>
      </trkpt>
      <trkpt lat="41.4213200" lon="2.1195580">
        <ele>512.0</ele>
        <time>2018-04-10T09:49:59Z</time>
      </trkpt>
      <trkpt lat="41.4212770" lon="2.1195360">
        <ele>511.8</ele>
        <time>2018-04-10T09:50:01Z</time>
      </trkpt>
      <trkpt lat="41.4212410" lon="2.1195480">
        <ele>511.8</ele>
        <time>2018-04-10T09:50:03Z</time>
      </trkpt>
      <trkpt lat="41.4212360" lon="2.1195500">
        <ele>511.8</ele>
        <time>2018-04-10T09:50:05Z</time>
      </trkpt>
      <trkpt lat="41.4212340" lon="2.1195500">
        <ele>511.8</ele>
        <time>2018-04-10T09:50:07Z</time>
      </trkpt>
      <trkpt lat="41.4212310" lon="2.1195510">
        <ele>512.4</ele>
        <time>2018-04-10T09:50:09Z</time>
      </trkpt>
      <trkpt lat="41.4212300" lon="2.1195510">
        <ele>512.2</ele>
        <time>2018-04-10T09:50:11Z</time>
      </trkpt>
      <trkpt lat="41.4212300" lon="2.1195500">
        <ele>512.4</ele>
        <time>2018-04-10T09:50:13Z</time>
      </trkpt>
      <trkpt lat="41.4212300" lon="2.1195500">
        <ele>512.4</ele>
        <time>2018-04-10T09:50:15Z</time>
      </trkpt>
      <trkpt lat="41.4212300" lon="2.1195500">
        <ele>512.4</ele>
        <time>2018-04-10T09:50:17Z</time>
      </trkpt>
      <trkpt lat="41.4212300" lon="2.1195510">
        <ele>512.4</ele>
        <time>2018-04-10T09:50:19Z</time>
      </trkpt>
      <trkpt lat="41.4212300" lon="2.1195510">
        <ele>512.4</ele>
        <time>2018-04-10T09:50:21Z</time>
      </trkpt>
      <trkpt lat="41.4212300" lon="2.1195510">
        <ele>512.4</ele>
        <time>2018-04-10T09:50:23Z</time>
      </trkpt>
      <trkpt lat="41.4212300" lon="2.1195520">
        <ele>512.4</ele>
        <time>2018-04-10T09:50:25Z</time>
      </trkpt>
      <trkpt lat="41.4212290" lon="2.1195520">
        <ele>512.4</ele>
        <time>2018-04-10T09:50:27Z</time>
      </trkpt>
      <trkpt lat="41.4212290" lon="2.1195530">
        <ele>512.4</ele>
        <time>2018-04-10T09:50:29Z</time>
      </trkpt>
      <trkpt lat="41.4212290" lon="2.1195540">
        <ele>512.4</ele>
        <time>2018-04-10T09:50:31Z</time>
      </trkpt>
      <trkpt lat="41.4212290" lon="2.1195540">
        <ele>512.4</ele>
        <time>2018-04-10T09:50:33Z</time>
      </trkpt>
      <trkpt lat="41.4212290" lon="2.1195540">
        <ele>512.4</ele>
        <time>2018-04-10T09:50:35Z</time>
      </trkpt>
      <trkpt lat="41.4212290" lon="2.1195550">
        <ele>512.4</ele>
        <time>2018-04-10T09:50:37Z</time>
      </trkpt>
      <trkpt lat="41.4212290" lon="2.1195550">
        <ele>512.4</ele>
        <time>2018-04-10T09:50:39Z</time>
      </trkpt>
      <trkpt lat="41.4212290" lon="2.1195560">
        <ele>512.4</ele>
        <time>2018-04-10T09:50:41Z</time>
      </trkpt>
      <trkpt lat="41.4212290" lon="2.1195560">
        <ele>512.4</ele>
        <time>2018-04-10T09:50:43Z</time>
      </trkpt>
      <trkpt lat="41.4212290" lon="2.1195560">
        <ele>512.4</ele>
        <time>2018-04-10T09:50:45Z</time>
      </trkpt>
      <trkpt lat="41.4212290" lon="2.1195560">
        <ele>512.4</ele>
        <time>2018-04-10T09:50:47Z</time>
      </trkpt>
      <trkpt lat="41.4212300" lon="2.1195560">
        <ele>512.4</ele>
        <time>2018-04-10T09:50:49Z</time>
      </trkpt>
      <trkpt lat="41.4212300" lon="2.1195560">
        <ele>512.4</ele>
        <time>2018-04-10T09:50:51Z</time>
      </trkpt>
      <trkpt lat="41.4212300" lon="2.1195560">
        <ele>512.4</ele>
        <time>2018-04-10T09:50:53Z</time>
      </trkpt>
      <trkpt lat="41.4212300" lon="2.1195560">
        <ele>512.2</ele>
        <time>2018-04-10T09:50:55Z</time>
      </trkpt>
      <trkpt lat="41.4212300" lon="2.1195560">
        <ele>512.2</ele>
        <time>2018-04-10T09:50:57Z</time>
      </trkpt>
      <trkpt lat="41.4212300" lon="2.1195560">
        <ele>512.2</ele>
        <time>2018-04-10T09:50:59Z</time>
      </trkpt>
      <trkpt lat="41.4212300" lon="2.1195550">
        <ele>512.4</ele>
        <time>2018-04-10T09:51:01Z</time>
      </trkpt>
      <trkpt lat="41.4212300" lon="2.1195550">
        <ele>512.4</ele>
        <time>2018-04-10T09:51:03Z</time>
      </trkpt>
      <trkpt lat="41.4212300" lon="2.1195550">
        <ele>512.4</ele>
        <time>2018-04-10T09:51:05Z</time>
      </trkpt>
      <trkpt lat="41.4212300" lon="2.1195550">
        <ele>512.4</ele>
        <time>2018-04-10T09:51:07Z</time>
      </trkpt>
      <trkpt lat="41.4212300" lon="2.1195550">
        <ele>512.4</ele>
        <time>2018-04-10T09:51:09Z</time>
      </trkpt>
      <trkpt lat="41.4212300" lon="2.1195550">
        <ele>512.4</ele>
        <time>2018-04-10T09:51:11Z</time>
      </trkpt>
      <trkpt lat="41.4212300" lon="2.1195560">
        <ele>512.4</ele>
        <time>2018-04-10T09:51:13Z</time>
      </trkpt>
      <trkpt lat="41.4212300" lon="2.1195560">
        <ele>512.2</ele>
        <time>2018-04-10T09:51:15Z</time>
      </trkpt>
      <trkpt lat="41.4212300" lon="2.1195560">
        <ele>512.2</ele>
        <time>2018-04-10T09:51:17Z</time>
      </trkpt>
      <trkpt lat="41.4212290" lon="2.1195560">
        <ele>512.2</ele>
        <time>2018-04-10T09:51:19Z</time>
      </trkpt>
      <trkpt lat="41.4212300" lon="2.1195560">
        <ele>512.2</ele>
        <time>2018-04-10T09:51:21Z</time>
      </trkpt>
      <trkpt lat="41.4212300" lon="2.1195560">
        <ele>512.2</ele>
        <time>2018-04-10T09:51:23Z</time>
      </trkpt>
      <trkpt lat="41.4212300" lon="2.1195560">
        <ele>512.2</ele>
        <time>2018-04-10T09:51:25Z</time>
      </trkpt>
      <trkpt lat="41.4212300" lon="2.1195560">
        <ele>512.2</ele>
        <time>2018-04-10T09:51:27Z</time>
      </trkpt>
      <trkpt lat="41.4212300" lon="2.1195560">
        <ele>512.2</ele>
        <time>2018-04-10T09:51:29Z</time>
      </trkpt>
      <trkpt lat="41.4212300" lon="2.1195560">
        <ele>512.2</ele>
        <time>2018-04-10T09:51:31Z</time>
      </trkpt>
      <trkpt lat="41.4212300" lon="2.1195560">
        <ele>512.2</ele>
        <time>2018-04-10T09:51:33Z</time>
      </trkpt>
      <trkpt lat="41.4212380" lon="2.1195520">
        <ele>512.6</ele>
        <time>2018-04-10T09:53:06Z</time>
      </trkpt>
      <trkpt lat="41.4212390" lon="2.1195520">
        <ele>512.6</ele>
        <time>2018-04-10T09:53:07Z</time>
      </trkpt>
      <trkpt lat="41.4212390" lon="2.1195520">
        <ele>512.6</ele>
        <time>2018-04-10T09:53:09Z</time>
      </trkpt>
      <trkpt lat="41.4212390" lon="2.1195520">
        <ele>512.6</ele>
        <time>2018-04-10T09:53:11Z</time>
      </trkpt>
      <trkpt lat="41.4212460" lon="2.1195410">
        <ele>512.6</ele>
        <time>2018-04-10T09:53:13Z</time>
      </trkpt>
      <trkpt lat="41.4212620" lon="2.1195120">
        <ele>512.4</ele>
        <time>2018-04-10T09:53:15Z</time>
      </trkpt>
      <trkpt lat="41.4212820" lon="2.1194690">
        <ele>512.6</ele>
        <time>2018-04-10T09:53:17Z</time>
      </trkpt>
      <trkpt lat="41.4213070" lon="2.1194180">
        <ele>512.6</ele>
        <time>2018-04-10T09:53:19Z</time>
      </trkpt>
      <trkpt lat="41.4213140" lon="2.1193850">
        <ele>512.6</ele>
        <time>2018-04-10T09:53:20Z</time>
      </trkpt>
      <trkpt lat="41.4213040" lon="2.1193520">
        <ele>512.6</ele>
        <time>2018-04-10T09:53:21Z</time>
      </trkpt>
      <trkpt lat="41.4212850" lon="2.1193250">
        <ele>512.6</ele>
        <time>2018-04-10T09:53:22Z</time>
      </trkpt>
      <trkpt lat="41.4212690" lon="2.1192960">
        <ele>512.6</ele>
        <time>2018-04-10T09:53:23Z</time>
      </trkpt>
      <trkpt lat="41.4212760" lon="2.1192090">
        <ele>512.6</ele>
        <time>2018-04-10T09:53:25Z</time>
      </trkpt>
      <trkpt lat="41.4212950" lon="2.1191630">
        <ele>512.6</ele>
        <time>2018-04-10T09:53:26Z</time>
      </trkpt>
      <trkpt lat="41.4213090" lon="2.1191210">
        <ele>512.6</ele>
        <time>2018-04-10T09:53:27Z</time>
      </trkpt>
      <trkpt lat="41.4213120" lon="2.1190830">
        <ele>512.4</ele>
        <time>2018-04-10T09:53:28Z</time>
      </trkpt>
      <trkpt lat="41.4213000" lon="2.1190560">
        <ele>512.4</ele>
        <time>2018-04-10T09:53:29Z</time>
      </trkpt>
      <trkpt lat="41.4212320" lon="2.1190410">
        <ele>512.2</ele>
        <time>2018-04-10T09:53:31Z</time>
      </trkpt>
      <trkpt lat="41.4211760" lon="2.1191130">
        <ele>512.2</ele>
        <time>2018-04-10T09:53:33Z</time>
      </trkpt>
      <trkpt lat="41.4211520" lon="2.1191740">
        <ele>511.2</ele>
        <time>2018-04-10T09:53:34Z</time>
      </trkpt>
      <trkpt lat="41.4211330" lon="2.1192410">
        <ele>510.6</ele>
        <time>2018-04-10T09:53:35Z</time>
      </trkpt>
      <trkpt lat="41.4211290" lon="2.1193100">
        <ele>510.2</ele>
        <time>2018-04-10T09:53:36Z</time>
      </trkpt>
      <trkpt lat="41.4211330" lon="2.1193770">
        <ele>509.6</ele>
        <time>2018-04-10T09:53:37Z</time>
      </trkpt>
      <trkpt lat="41.4211560" lon="2.1195090">
        <ele>508.6</ele>
        <time>2018-04-10T09:53:39Z</time>
      </trkpt>
      <trkpt lat="41.4211800" lon="2.1196170">
        <ele>507.0</ele>
        <time>2018-04-10T09:53:41Z</time>
      </trkpt>
      <trkpt lat="41.4211500" lon="2.1196760">
        <ele>505.4</ele>
        <time>2018-04-10T09:53:43Z</time>
      </trkpt>
      <trkpt lat="41.4210890" lon="2.1196360">
        <ele>503.8</ele>
        <time>2018-04-10T09:53:45Z</time>
      </trkpt>
      <trkpt lat="41.4210110" lon="2.1195250">
        <ele>502.6</ele>
        <time>2018-04-10T09:53:47Z</time>
      </trkpt>
      <trkpt lat="41.4209070" lon="2.1194260">
        <ele>502.0</ele>
        <time>2018-04-10T09:53:49Z</time>
      </trkpt>
      <trkpt lat="41.4208500" lon="2.1193790">
        <ele>501.6</ele>
        <time>2018-04-10T09:53:50Z</time>
      </trkpt>
      <trkpt lat="41.4207920" lon="2.1193300">
        <ele>501.4</ele>
        <time>2018-04-10T09:53:51Z</time>
      </trkpt>
      <trkpt lat="41.4206790" lon="2.1192310">
        <ele>500.4</ele>
        <time>2018-04-10T09:53:53Z</time>
      </trkpt>
      <trkpt lat="41.4205650" lon="2.1191280">
        <ele>498.4</ele>
        <time>2018-04-10T09:53:55Z</time>
      </trkpt>
      <trkpt lat="41.4205090" lon="2.1190930">
        <ele>497.4</ele>
        <time>2018-04-10T09:53:56Z</time>
      </trkpt>
      <trkpt lat="41.4204500" lon="2.1190620">
        <ele>496.6</ele>
        <time>2018-04-10T09:53:57Z</time>
      </trkpt>
      <trkpt lat="41.4203850" lon="2.1190380">
        <ele>495.8</ele>
        <time>2018-04-10T09:53:58Z</time>
      </trkpt>
      <trkpt lat="41.4203190" lon="2.1190190">
        <ele>494.6</ele>
        <time>2018-04-10T09:53:59Z</time>
      </trkpt>
      <trkpt lat="41.4202550" lon="2.1190020">
        <ele>493.6</ele>
        <time>2018-04-10T09:54:00Z</time>
      </trkpt>
      <trkpt lat="41.4201900" lon="2.1189810">
        <ele>492.8</ele>
        <time>2018-04-10T09:54:01Z</time>
      </trkpt>
      <trkpt lat="41.4201240" lon="2.1189590">
        <ele>491.6</ele>
        <time>2018-04-10T09:54:02Z</time>
      </trkpt>
      <trkpt lat="41.4200570" lon="2.1189390">
        <ele>489.8</ele>
        <time>2018-04-10T09:54:03Z</time>
      </trkpt>
      <trkpt lat="41.4199220" lon="2.1189010">
        <ele>488.6</ele>
        <time>2018-04-10T09:54:05Z</time>
      </trkpt>
      <trkpt lat="41.4198570" lon="2.1188780">
        <ele>487.8</ele>
        <time>2018-04-10T09:54:06Z</time>
      </trkpt>
      <trkpt lat="41.4197980" lon="2.1188440">
        <ele>487.0</ele>
        <time>2018-04-10T09:54:07Z</time>
      </trkpt>
      <trkpt lat="41.4197110" lon="2.1187320">
        <ele>485.0</ele>
        <time>2018-04-10T09:54:09Z</time>
      </trkpt>
      <trkpt lat="41.4196520" lon="2.1185800">
        <ele>483.4</ele>
        <time>2018-04-10T09:54:11Z</time>
      </trkpt>
      <trkpt lat="41.4196320" lon="2.1184990">
        <ele>482.4</ele>
        <time>2018-04-10T09:54:12Z</time>
      </trkpt>
      <trkpt lat="41.4196120" lon="2.1184140">
        <ele>481.4</ele>
        <time>2018-04-10T09:54:13Z</time>
      </trkpt>
      <trkpt lat="41.4195910" lon="2.1183240">
        <ele>480.8</ele>
        <time>2018-04-10T09:54:14Z</time>
      </trkpt>
      <trkpt lat="41.4195660" lon="2.1182330">
        <ele>480.0</ele>
        <time>2018-04-10T09:54:15Z</time>
      </trkpt>
      <trkpt lat="41.4195410" lon="2.1181410">
        <ele>479.4</ele>
        <time>2018-04-10T09:54:16Z</time>
      </trkpt>
      <trkpt lat="41.4195100" lon="2.1180470">
        <ele>478.6</ele>
        <time>2018-04-10T09:54:17Z</time>
      </trkpt>
      <trkpt lat="41.4194790" lon="2.1179520">
        <ele>478.0</ele>
        <time>2018-04-10T09:54:18Z</time>
      </trkpt>
      <trkpt lat="41.4194440" lon="2.1178510">
        <ele>477.0</ele>
        <time>2018-04-10T09:54:19Z</time>
      </trkpt>
      <trkpt lat="41.4194090" lon="2.1177500">
        <ele>476.0</ele>
        <time>2018-04-10T09:54:20Z</time>
      </trkpt>
      <trkpt lat="41.4193700" lon="2.1176500">
        <ele>475.0</ele>
        <time>2018-04-10T09:54:21Z</time>
      </trkpt>
      <trkpt lat="41.4192850" lon="2.1174640">
        <ele>473.4</ele>
        <time>2018-04-10T09:54:23Z</time>
      </trkpt>
      <trkpt lat="41.4191900" lon="2.1172830">
        <ele>471.4</ele>
        <time>2018-04-10T09:54:25Z</time>
      </trkpt>
      <trkpt lat="41.4190900" lon="2.1170980">
        <ele>469.8</ele>
        <time>2018-04-10T09:54:27Z</time>
      </trkpt>
      <trkpt lat="41.4189820" lon="2.1169080">
        <ele>468.0</ele>
        <time>2018-04-10T09:54:29Z</time>
      </trkpt>
      <trkpt lat="41.4188780" lon="2.1167160">
        <ele>467.0</ele>
        <time>2018-04-10T09:54:31Z</time>
      </trkpt>
      <trkpt lat="41.4188300" lon="2.1166170">
        <ele>465.2</ele>
        <time>2018-04-10T09:54:32Z</time>
      </trkpt>
      <trkpt lat="41.4187900" lon="2.1165220">
        <ele>464.4</ele>
        <time>2018-04-10T09:54:33Z</time>
      </trkpt>
      <trkpt lat="41.4187550" lon="2.1164320">
        <ele>463.2</ele>
        <time>2018-04-10T09:54:34Z</time>
      </trkpt>
      <trkpt lat="41.4187230" lon="2.1163520">
        <ele>462.0</ele>
        <time>2018-04-10T09:54:35Z</time>
      </trkpt>
      <trkpt lat="41.4186830" lon="2.1162920">
        <ele>460.6</ele>
        <time>2018-04-10T09:54:36Z</time>
      </trkpt>
      <trkpt lat="41.4186400" lon="2.1162620">
        <ele>459.2</ele>
        <time>2018-04-10T09:54:37Z</time>
      </trkpt>
      <trkpt lat="41.4186030" lon="2.1162590">
        <ele>458.2</ele>
        <time>2018-04-10T09:54:38Z</time>
      </trkpt>
      <trkpt lat="41.4185770" lon="2.1162810">
        <ele>457.0</ele>
        <time>2018-04-10T09:54:39Z</time>
      </trkpt>
      <trkpt lat="41.4185620" lon="2.1163270">
        <ele>455.8</ele>
        <time>2018-04-10T09:54:40Z</time>
      </trkpt>
      <trkpt lat="41.4185600" lon="2.1163860">
        <ele>454.6</ele>
        <time>2018-04-10T09:54:41Z</time>
      </trkpt>
      <trkpt lat="41.4186110" lon="2.1165160">
        <ele>453.0</ele>
        <time>2018-04-10T09:54:43Z</time>
      </trkpt>
      <trkpt lat="41.4186820" lon="2.1166220">
        <ele>452.0</ele>
        <time>2018-04-10T09:54:45Z</time>
      </trkpt>
      <trkpt lat="41.4187090" lon="2.1166790">
        <ele>451.6</ele>
        <time>2018-04-10T09:54:46Z</time>
      </trkpt>
      <trkpt lat="41.4187130" lon="2.1167360">
        <ele>451.2</ele>
        <time>2018-04-10T09:54:47Z</time>
      </trkpt>
      <trkpt lat="41.4186840" lon="2.1167790">
        <ele>450.8</ele>
        <time>2018-04-10T09:54:48Z</time>
      </trkpt>
      <trkpt lat="41.4186420" lon="2.1168030">
        <ele>450.2</ele>
        <time>2018-04-10T09:54:49Z</time>
      </trkpt>
      <trkpt lat="41.4185610" lon="2.1167880">
        <ele>449.2</ele>
        <time>2018-04-10T09:54:51Z</time>
      </trkpt>
      <trkpt lat="41.4184820" lon="2.1167040">
        <ele>448.0</ele>
        <time>2018-04-10T09:54:53Z</time>
      </trkpt>
      <trkpt lat="41.4183950" lon="2.1166020">
        <ele>446.8</ele>
        <time>2018-04-10T09:54:55Z</time>
      </trkpt>
      <trkpt lat="41.4183490" lon="2.1165600">
        <ele>446.2</ele>
        <time>2018-04-10T09:54:56Z</time>
      </trkpt>
      <trkpt lat="41.4182980" lon="2.1165290">
        <ele>445.6</ele>
        <time>2018-04-10T09:54:57Z</time>
      </trkpt>
      <trkpt lat="41.4182070" lon="2.1165200">
        <ele>444.4</ele>
        <time>2018-04-10T09:54:59Z</time>
      </trkpt>
      <trkpt lat="41.4181420" lon="2.1165800">
        <ele>442.0</ele>
        <time>2018-04-10T09:55:01Z</time>
      </trkpt>
      <trkpt lat="41.4181340" lon="2.1166810">
        <ele>440.4</ele>
        <time>2018-04-10T09:55:03Z</time>
      </trkpt>
      <trkpt lat="41.4181780" lon="2.1167550">
        <ele>438.8</ele>
        <time>2018-04-10T09:55:05Z</time>
      </trkpt>
      <trkpt lat="41.4182060" lon="2.1167860">
        <ele>438.4</ele>
        <time>2018-04-10T09:55:06Z</time>
      </trkpt>
      <trkpt lat="41.4182410" lon="2.1168130">
        <ele>437.8</ele>
        <time>2018-04-10T09:55:07Z</time>
      </trkpt>
      <trkpt lat="41.4183080" lon="2.1168680">
        <ele>437.0</ele>
        <time>2018-04-10T09:55:09Z</time>
      </trkpt>
      <trkpt lat="41.4183750" lon="2.1169270">
        <ele>436.8</ele>
        <time>2018-04-10T09:55:11Z</time>
      </trkpt>
      <trkpt lat="41.4184110" lon="2.1169650">
        <ele>436.6</ele>
        <time>2018-04-10T09:55:12Z</time>
      </trkpt>
      <trkpt lat="41.4184420" lon="2.1170070">
        <ele>436.6</ele>
        <time>2018-04-10T09:55:13Z</time>
      </trkpt>
      <trkpt lat="41.4185010" lon="2.1170900">
        <ele>436.6</ele>
        <time>2018-04-10T09:55:15Z</time>
      </trkpt>
      <trkpt lat="41.4185290" lon="2.1171360">
        <ele>436.6</ele>
        <time>2018-04-10T09:55:16Z</time>
      </trkpt>
      <trkpt lat="41.4185520" lon="2.1171870">
        <ele>436.6</ele>
        <time>2018-04-10T09:55:17Z</time>
      </trkpt>
      <trkpt lat="41.4185740" lon="2.1172380">
        <ele>436.8</ele>
        <time>2018-04-10T09:55:18Z</time>
      </trkpt>
      <trkpt lat="41.4185960" lon="2.1172870">
        <ele>437.0</ele>
        <time>2018-04-10T09:55:19Z</time>
      </trkpt>
      <trkpt lat="41.4186390" lon="2.1173840">
        <ele>437.4</ele>
        <time>2018-04-10T09:55:21Z</time>
      </trkpt>
      <trkpt lat="41.4186790" lon="2.1174820">
        <ele>438.0</ele>
        <time>2018-04-10T09:55:23Z</time>
      </trkpt>
      <trkpt lat="41.4187210" lon="2.1175790">
        <ele>438.2</ele>
        <time>2018-04-10T09:55:25Z</time>
      </trkpt>
      <trkpt lat="41.4187590" lon="2.1176760">
        <ele>438.8</ele>
        <time>2018-04-10T09:55:27Z</time>
      </trkpt>
      <trkpt lat="41.4187960" lon="2.1177710">
        <ele>439.4</ele>
        <time>2018-04-10T09:55:29Z</time>
      </trkpt>
      <trkpt lat="41.4188350" lon="2.1178650">
        <ele>440.2</ele>
        <time>2018-04-10T09:55:31Z</time>
      </trkpt>
      <trkpt lat="41.4188740" lon="2.1179560">
        <ele>440.6</ele>
        <time>2018-04-10T09:55:33Z</time>
      </trkpt>
      <trkpt lat="41.4189130" lon="2.1180520">
        <ele>441.2</ele>
        <time>2018-04-10T09:55:35Z</time>
      </trkpt>
      <trkpt lat="41.4189510" lon="2.1181430">
        <ele>441.6</ele>
        <time>2018-04-10T09:55:37Z</time>
      </trkpt>
      <trkpt lat="41.4189850" lon="2.1182360">
        <ele>442.0</ele>
        <time>2018-04-10T09:55:39Z</time>
      </trkpt>
      <trkpt lat="41.4189970" lon="2.1182820">
        <ele>442.4</ele>
        <time>2018-04-10T09:55:40Z</time>
      </trkpt>
      <trkpt lat="41.4190090" lon="2.1183280">
        <ele>442.6</ele>
        <time>2018-04-10T09:55:41Z</time>
      </trkpt>
      <trkpt lat="41.4190220" lon="2.1184270">
        <ele>443.2</ele>
        <time>2018-04-10T09:55:43Z</time>
      </trkpt>
      <trkpt lat="41.4190290" lon="2.1184760">
        <ele>443.4</ele>
        <time>2018-04-10T09:55:44Z</time>
      </trkpt>
      <trkpt lat="41.4190340" lon="2.1185270">
        <ele>443.8</ele>
        <time>2018-04-10T09:55:45Z</time>
      </trkpt>
      <trkpt lat="41.4190400" lon="2.1186300">
        <ele>444.2</ele>
        <time>2018-04-10T09:55:47Z</time>
      </trkpt>
      <trkpt lat="41.4190470" lon="2.1187350">
        <ele>444.4</ele>
        <time>2018-04-10T09:55:49Z</time>
      </trkpt>
      <trkpt lat="41.4190560" lon="2.1188390">
        <ele>445.0</ele>
        <time>2018-04-10T09:55:51Z</time>
      </trkpt>
      <trkpt lat="41.4190650" lon="2.1189410">
        <ele>445.4</ele>
        <time>2018-04-10T09:55:53Z</time>
      </trkpt>
      <trkpt lat="41.4190790" lon="2.1190410">
        <ele>445.8</ele>
        <time>2018-04-10T09:55:55Z</time>
      </trkpt>
      <trkpt lat="41.4191080" lon="2.1191350">
        <ele>446.2</ele>
        <time>2018-04-10T09:55:57Z</time>
      </trkpt>
      <trkpt lat="41.4191510" lon="2.1192250">
        <ele>446.6</ele>
        <time>2018-04-10T09:55:59Z</time>
      </trkpt>
      <trkpt lat="41.4192040" lon="2.1193040">
        <ele>447.4</ele>
        <time>2018-04-10T09:56:01Z</time>
      </trkpt>
      <trkpt lat="41.4192340" lon="2.1193370">
        <ele>447.6</ele>
        <time>2018-04-10T09:56:02Z</time>
      </trkpt>
      <trkpt lat="41.4192680" lon="2.1193680">
        <ele>447.8</ele>
        <time>2018-04-10T09:56:03Z</time>
      </trkpt>
      <trkpt lat="41.4193390" lon="2.1194190">
        <ele>448.2</ele>
        <time>2018-04-10T09:56:05Z</time>
      </trkpt>
      <trkpt lat="41.4194070" lon="2.1194740">
        <ele>449.0</ele>
        <time>2018-04-10T09:56:07Z</time>
      </trkpt>
      <trkpt lat="41.4194760" lon="2.1195210">
        <ele>449.4</ele>
        <time>2018-04-10T09:56:09Z</time>
      </trkpt>
      <trkpt lat="41.4195400" lon="2.1195690">
        <ele>449.8</ele>
        <time>2018-04-10T09:56:11Z</time>
      </trkpt>
      <trkpt lat="41.4196050" lon="2.1196120">
        <ele>450.0</ele>
        <time>2018-04-10T09:56:13Z</time>
      </trkpt>
      <trkpt lat="41.4196740" lon="2.1196500">
        <ele>450.4</ele>
        <time>2018-04-10T09:56:15Z</time>
      </trkpt>
      <trkpt lat="41.4197430" lon="2.1196900">
        <ele>451.0</ele>
        <time>2018-04-10T09:56:17Z</time>
      </trkpt>
      <trkpt lat="41.4197780" lon="2.1197110">
        <ele>451.2</ele>
        <time>2018-04-10T09:56:18Z</time>
      </trkpt>
      <trkpt lat="41.4198120" lon="2.1197290">
        <ele>451.4</ele>
        <time>2018-04-10T09:56:19Z</time>
      </trkpt>
      <trkpt lat="41.4198850" lon="2.1197620">
        <ele>452.6</ele>
        <time>2018-04-10T09:56:21Z</time>
      </trkpt>
      <trkpt lat="41.4199600" lon="2.1197900">
        <ele>453.2</ele>
        <time>2018-04-10T09:56:23Z</time>
      </trkpt>
      <trkpt lat="41.4200360" lon="2.1198230">
        <ele>453.6</ele>
        <time>2018-04-10T09:56:25Z</time>
      </trkpt>
      <trkpt lat="41.4201140" lon="2.1198600">
        <ele>454.4</ele>
        <time>2018-04-10T09:56:27Z</time>
      </trkpt>
      <trkpt lat="41.4201530" lon="2.1198780">
        <ele>454.8</ele>
        <time>2018-04-10T09:56:28Z</time>
      </trkpt>
      <trkpt lat="41.4201910" lon="2.1198980">
        <ele>455.2</ele>
        <time>2018-04-10T09:56:29Z</time>
      </trkpt>
      <trkpt lat="41.4202620" lon="2.1199470">
        <ele>455.6</ele>
        <time>2018-04-10T09:56:31Z</time>
      </trkpt>
      <trkpt lat="41.4202950" lon="2.1199730">
        <ele>455.8</ele>
        <time>2018-04-10T09:56:32Z</time>
      </trkpt>
      <trkpt lat="41.4203280" lon="2.1200040">
        <ele>456.0</ele>
        <time>2018-04-10T09:56:33Z</time>
      </trkpt>
      <trkpt lat="41.4203860" lon="2.1200760">
        <ele>456.4</ele>
        <time>2018-04-10T09:56:35Z</time>
      </trkpt>
      <trkpt lat="41.4204340" lon="2.1201630">
        <ele>456.6</ele>
        <time>2018-04-10T09:56:37Z</time>
      </trkpt>
      <trkpt lat="41.4204530" lon="2.1202090">
        <ele>456.8</ele>
        <time>2018-04-10T09:56:38Z</time>
      </trkpt>
      <trkpt lat="41.4204690" lon="2.1202560">
        <ele>457.0</ele>
        <time>2018-04-10T09:56:39Z</time>
      </trkpt>
      <trkpt lat="41.4204960" lon="2.1203500">
        <ele>457.6</ele>
        <time>2018-04-10T09:56:41Z</time>
      </trkpt>
      <trkpt lat="41.4205180" lon="2.1204480">
        <ele>458.0</ele>
        <time>2018-04-10T09:56:43Z</time>
      </trkpt>
      <trkpt lat="41.4205380" lon="2.1205460">
        <ele>458.4</ele>
        <time>2018-04-10T09:56:45Z</time>
      </trkpt>
      <trkpt lat="41.4205550" lon="2.1206420">
        <ele>459.0</ele>
        <time>2018-04-10T09:56:47Z</time>
      </trkpt>
      <trkpt lat="41.4205750" lon="2.1207410">
        <ele>459.6</ele>
        <time>2018-04-10T09:56:49Z</time>
      </trkpt>
      <trkpt lat="41.4205940" lon="2.1208400">
        <ele>460.2</ele>
        <time>2018-04-10T09:56:51Z</time>
      </trkpt>
      <trkpt lat="41.4206110" lon="2.1209410">
        <ele>460.6</ele>
        <time>2018-04-10T09:56:53Z</time>
      </trkpt>
      <trkpt lat="41.4206320" lon="2.1210450">
        <ele>461.0</ele>
        <time>2018-04-10T09:56:55Z</time>
      </trkpt>
      <trkpt lat="41.4206420" lon="2.1210930">
        <ele>461.4</ele>
        <time>2018-04-10T09:56:56Z</time>
      </trkpt>
      <trkpt lat="41.4206500" lon="2.1211370">
        <ele>461.6</ele>
        <time>2018-04-10T09:56:57Z</time>
      </trkpt>
      <trkpt lat="41.4206740" lon="2.1212130">
        <ele>462.2</ele>
        <time>2018-04-10T09:56:59Z</time>
      </trkpt>
      <trkpt lat="41.4206900" lon="2.1212510">
        <ele>462.6</ele>
        <time>2018-04-10T09:57:00Z</time>
      </trkpt>
      <trkpt lat="41.4207080" lon="2.1212930">
        <ele>462.8</ele>
        <time>2018-04-10T09:57:01Z</time>
      </trkpt>
      <trkpt lat="41.4207470" lon="2.1213760">
        <ele>463.4</ele>
        <time>2018-04-10T09:57:03Z</time>
      </trkpt>
      <trkpt lat="41.4207670" lon="2.1214250">
        <ele>463.8</ele>
        <time>2018-04-10T09:57:04Z</time>
      </trkpt>
      <trkpt lat="41.4207900" lon="2.1214720">
        <ele>464.0</ele>
        <time>2018-04-10T09:57:05Z</time>
      </trkpt>
      <trkpt lat="41.4208470" lon="2.1215410">
        <ele>464.8</ele>
        <time>2018-04-10T09:57:07Z</time>
      </trkpt>
      <trkpt lat="41.4208800" lon="2.1215630">
        <ele>465.2</ele>
        <time>2018-04-10T09:57:08Z</time>
      </trkpt>
      <trkpt lat="41.4209170" lon="2.1215760">
        <ele>465.8</ele>
        <time>2018-04-10T09:57:09Z</time>
      </trkpt>
      <trkpt lat="41.4209970" lon="2.1215740">
        <ele>466.4</ele>
        <time>2018-04-10T09:57:11Z</time>
      </trkpt>
      <trkpt lat="41.4210790" lon="2.1215610">
        <ele>467.0</ele>
        <time>2018-04-10T09:57:13Z</time>
      </trkpt>
      <trkpt lat="41.4211580" lon="2.1215340">
        <ele>467.4</ele>
        <time>2018-04-10T09:57:15Z</time>
      </trkpt>
      <trkpt lat="41.4211930" lon="2.1215190">
        <ele>467.8</ele>
        <time>2018-04-10T09:57:16Z</time>
      </trkpt>
      <trkpt lat="41.4212300" lon="2.1215010">
        <ele>468.0</ele>
        <time>2018-04-10T09:57:17Z</time>
      </trkpt>
      <trkpt lat="41.4213020" lon="2.1214550">
        <ele>468.4</ele>
        <time>2018-04-10T09:57:19Z</time>
      </trkpt>
      <trkpt lat="41.4213700" lon="2.1214070">
        <ele>468.8</ele>
        <time>2018-04-10T09:57:21Z</time>
      </trkpt>
      <trkpt lat="41.4214000" lon="2.1213810">
        <ele>468.8</ele>
        <time>2018-04-10T09:57:22Z</time>
      </trkpt>
      <trkpt lat="41.4214280" lon="2.1213530">
        <ele>469.0</ele>
        <time>2018-04-10T09:57:23Z</time>
      </trkpt>
      <trkpt lat="41.4214890" lon="2.1212960">
        <ele>469.6</ele>
        <time>2018-04-10T09:57:25Z</time>
      </trkpt>
      <trkpt lat="41.4215200" lon="2.1212660">
        <ele>470.0</ele>
        <time>2018-04-10T09:57:26Z</time>
      </trkpt>
      <trkpt lat="41.4215540" lon="2.1212340">
        <ele>470.4</ele>
        <time>2018-04-10T09:57:27Z</time>
      </trkpt>
      <trkpt lat="41.4216190" lon="2.1211710">
        <ele>471.0</ele>
        <time>2018-04-10T09:57:29Z</time>
      </trkpt>
      <trkpt lat="41.4216860" lon="2.1211080">
        <ele>471.6</ele>
        <time>2018-04-10T09:57:31Z</time>
      </trkpt>
      <trkpt lat="41.4217460" lon="2.1210480">
        <ele>472.0</ele>
        <time>2018-04-10T09:57:33Z</time>
      </trkpt>
      <trkpt lat="41.4217770" lon="2.1210210">
        <ele>472.2</ele>
        <time>2018-04-10T09:57:34Z</time>
      </trkpt>
      <trkpt lat="41.4218080" lon="2.1209930">
        <ele>472.4</ele>
        <time>2018-04-10T09:57:35Z</time>
      </trkpt>
      <trkpt lat="41.4218690" lon="2.1209400">
        <ele>472.8</ele>
        <time>2018-04-10T09:57:37Z</time>
      </trkpt>
      <trkpt lat="41.4219400" lon="2.1208960">
        <ele>473.2</ele>
        <time>2018-04-10T09:57:39Z</time>
      </trkpt>
      <trkpt lat="41.4220140" lon="2.1208580">
        <ele>473.8</ele>
        <time>2018-04-10T09:57:41Z</time>
      </trkpt>
      <trkpt lat="41.4220880" lon="2.1208230">
        <ele>474.2</ele>
        <time>2018-04-10T09:57:43Z</time>
      </trkpt>
      <trkpt lat="41.4221240" lon="2.1208090">
        <ele>474.4</ele>
        <time>2018-04-10T09:57:44Z</time>
      </trkpt>
      <trkpt lat="41.4221600" lon="2.1207990">
        <ele>474.6</ele>
        <time>2018-04-10T09:57:45Z</time>
      </trkpt>
      <trkpt lat="41.4222340" lon="2.1207900">
        <ele>475.2</ele>
        <time>2018-04-10T09:57:47Z</time>
      </trkpt>
      <trkpt lat="41.4223070" lon="2.1207950">
        <ele>475.6</ele>
        <time>2018-04-10T09:57:49Z</time>
      </trkpt>
      <trkpt lat="41.4223880" lon="2.1208130">
        <ele>476.0</ele>
        <time>2018-04-10T09:57:51Z</time>
      </trkpt>
      <trkpt lat="41.4224760" lon="2.1208410">
        <ele>476.2</ele>
        <time>2018-04-10T09:57:53Z</time>
      </trkpt>
      <trkpt lat="41.4225740" lon="2.1208640">
        <ele>476.6</ele>
        <time>2018-04-10T09:57:55Z</time>
      </trkpt>
      <trkpt lat="41.4226800" lon="2.1208800">
        <ele>477.2</ele>
        <time>2018-04-10T09:57:57Z</time>
      </trkpt>
      <trkpt lat="41.4227940" lon="2.1208820">
        <ele>477.2</ele>
        <time>2018-04-10T09:57:59Z</time>
      </trkpt>
      <trkpt lat="41.4229140" lon="2.1208630">
        <ele>477.2</ele>
        <time>2018-04-10T09:58:01Z</time>
      </trkpt>
      <trkpt lat="41.4230370" lon="2.1208280">
        <ele>477.2</ele>
        <time>2018-04-10T09:58:03Z</time>
      </trkpt>
      <trkpt lat="41.4231680" lon="2.1207900">
        <ele>477.2</ele>
        <time>2018-04-10T09:58:05Z</time>
      </trkpt>
      <trkpt lat="41.4232360" lon="2.1207800">
        <ele>477.0</ele>
        <time>2018-04-10T09:58:06Z</time>
      </trkpt>
      <trkpt lat="41.4233040" lon="2.1207830">
        <ele>477.0</ele>
        <time>2018-04-10T09:58:07Z</time>
      </trkpt>
      <trkpt lat="41.4234410" lon="2.1208120">
        <ele>476.6</ele>
        <time>2018-04-10T09:58:09Z</time>
      </trkpt>
      <trkpt lat="41.4235900" lon="2.1208560">
        <ele>476.4</ele>
        <time>2018-04-10T09:58:11Z</time>
      </trkpt>
      <trkpt lat="41.4237460" lon="2.1209030">
        <ele>475.8</ele>
        <time>2018-04-10T09:58:13Z</time>
      </trkpt>
      <trkpt lat="41.4239060" lon="2.1209710">
        <ele>475.4</ele>
        <time>2018-04-10T09:58:15Z</time>
      </trkpt>
      <trkpt lat="41.4240640" lon="2.1210640">
        <ele>475.0</ele>
        <time>2018-04-10T09:58:17Z</time>
      </trkpt>
      <trkpt lat="41.4242160" lon="2.1211830">
        <ele>474.2</ele>
        <time>2018-04-10T09:58:19Z</time>
      </trkpt>
      <trkpt lat="41.4242890" lon="2.1212540">
        <ele>473.6</ele>
        <time>2018-04-10T09:58:20Z</time>
      </trkpt>
      <trkpt lat="41.4243590" lon="2.1213350">
        <ele>473.0</ele>
        <time>2018-04-10T09:58:21Z</time>
      </trkpt>
      <trkpt lat="41.4244920" lon="2.1215190">
        <ele>471.8</ele>
        <time>2018-04-10T09:58:23Z</time>
      </trkpt>
      <trkpt lat="41.4246150" lon="2.1217260">
        <ele>470.6</ele>
        <time>2018-04-10T09:58:25Z</time>
      </trkpt>
      <trkpt lat="41.4247400" lon="2.1219450">
        <ele>469.8</ele>
        <time>2018-04-10T09:58:27Z</time>
      </trkpt>
      <trkpt lat="41.4248080" lon="2.1220530">
        <ele>469.2</ele>
        <time>2018-04-10T09:58:28Z</time>
      </trkpt>
      <trkpt lat="41.4248850" lon="2.1221540">
        <ele>468.6</ele>
        <time>2018-04-10T09:58:29Z</time>
      </trkpt>
      <trkpt lat="41.4249720" lon="2.1222460">
        <ele>468.2</ele>
        <time>2018-04-10T09:58:30Z</time>
      </trkpt>
      <trkpt lat="41.4250670" lon="2.1223290">
        <ele>467.6</ele>
        <time>2018-04-10T09:58:31Z</time>
      </trkpt>
      <trkpt lat="41.4251700" lon="2.1224040">
        <ele>467.0</ele>
        <time>2018-04-10T09:58:32Z</time>
      </trkpt>
      <trkpt lat="41.4252790" lon="2.1224710">
        <ele>466.2</ele>
        <time>2018-04-10T09:58:33Z</time>
      </trkpt>
      <trkpt lat="41.4253900" lon="2.1225350">
        <ele>465.6</ele>
        <time>2018-04-10T09:58:34Z</time>
      </trkpt>
      <trkpt lat="41.4255020" lon="2.1225990">
        <ele>465.0</ele>
        <time>2018-04-10T09:58:35Z</time>
      </trkpt>
      <trkpt lat="41.4256170" lon="2.1226640">
        <ele>464.4</ele>
        <time>2018-04-10T09:58:36Z</time>
      </trkpt>
      <trkpt lat="41.4257340" lon="2.1227280">
        <ele>463.8</ele>
        <time>2018-04-10T09:58:37Z</time>
      </trkpt>
      <trkpt lat="41.4258520" lon="2.1227920">
        <ele>463.2</ele>
        <time>2018-04-10T09:58:38Z</time>
      </trkpt>
      <trkpt lat="41.4259710" lon="2.1228550">
        <ele>462.6</ele>
        <time>2018-04-10T09:58:39Z</time>
      </trkpt>
      <trkpt lat="41.4260890" lon="2.1229200">
        <ele>462.0</ele>
        <time>2018-04-10T09:58:40Z</time>
      </trkpt>
      <trkpt lat="41.4262060" lon="2.1229850">
        <ele>461.6</ele>
        <time>2018-04-10T09:58:41Z</time>
      </trkpt>
      <trkpt lat="41.4263250" lon="2.1230490">
        <ele>460.8</ele>
        <time>2018-04-10T09:58:42Z</time>
      </trkpt>
      <trkpt lat="41.4264450" lon="2.1231100">
        <ele>460.0</ele>
        <time>2018-04-10T09:58:43Z</time>
      </trkpt>
      <trkpt lat="41.4265680" lon="2.1231590">
        <ele>459.2</ele>
        <time>2018-04-10T09:58:44Z</time>
      </trkpt>
      <trkpt lat="41.4266960" lon="2.1231990">
        <ele>458.4</ele>
        <time>2018-04-10T09:58:45Z</time>
      </trkpt>
      <trkpt lat="41.4268230" lon="2.1232220">
        <ele>457.4</ele>
        <time>2018-04-10T09:58:46Z</time>
      </trkpt>
      <trkpt lat="41.4269530" lon="2.1232380">
        <ele>456.4</ele>
        <time>2018-04-10T09:58:47Z</time>
      </trkpt>
      <trkpt lat="41.4270830" lon="2.1232500">
        <ele>455.2</ele>
        <time>2018-04-10T09:58:48Z</time>
      </trkpt>
      <trkpt lat="41.4272130" lon="2.1232640">
        <ele>454.2</ele>
        <time>2018-04-10T09:58:49Z</time>
      </trkpt>
      <trkpt lat="41.4274830" lon="2.1232930">
        <ele>452.8</ele>
        <time>2018-04-10T09:58:51Z</time>
      </trkpt>
      <trkpt lat="41.4277590" lon="2.1233090">
        <ele>450.0</ele>
        <time>2018-04-10T09:58:53Z</time>
      </trkpt>
      <trkpt lat="41.4280370" lon="2.1233250">
        <ele>448.0</ele>
        <time>2018-04-10T09:58:55Z</time>
      </trkpt>
      <trkpt lat="41.4281740" lon="2.1233310">
        <ele>446.8</ele>
        <time>2018-04-10T09:58:56Z</time>
      </trkpt>
      <trkpt lat="41.4283040" lon="2.1233470">
        <ele>446.0</ele>
        <time>2018-04-10T09:58:57Z</time>
      </trkpt>
      <trkpt lat="41.4284240" lon="2.1233690">
        <ele>445.0</ele>
        <time>2018-04-10T09:58:58Z</time>
      </trkpt>
      <trkpt lat="41.4285340" lon="2.1233950">
        <ele>444.0</ele>
        <time>2018-04-10T09:58:59Z</time>
      </trkpt>
      <trkpt lat="41.4286350" lon="2.1234180">
        <ele>442.8</ele>
        <time>2018-04-10T09:59:00Z</time>
      </trkpt>
      <trkpt lat="41.4287230" lon="2.1234280">
        <ele>441.8</ele>
        <time>2018-04-10T09:59:01Z</time>
      </trkpt>
      <trkpt lat="41.4287930" lon="2.1234240">
        <ele>440.6</ele>
        <time>2018-04-10T09:59:02Z</time>
      </trkpt>
      <trkpt lat="41.4288520" lon="2.1233990">
        <ele>439.8</ele>
        <time>2018-04-10T09:59:03Z</time>
      </trkpt>
      <trkpt lat="41.4289020" lon="2.1233480">
        <ele>438.8</ele>
        <time>2018-04-10T09:59:04Z</time>
      </trkpt>
      <trkpt lat="41.4289400" lon="2.1232720">
        <ele>437.8</ele>
        <time>2018-04-10T09:59:05Z</time>
      </trkpt>
      <trkpt lat="41.4289540" lon="2.1231820">
        <ele>437.0</ele>
        <time>2018-04-10T09:59:06Z</time>
      </trkpt>
      <trkpt lat="41.4289470" lon="2.1230880">
        <ele>436.2</ele>
        <time>2018-04-10T09:59:07Z</time>
      </trkpt>
      <trkpt lat="41.4289200" lon="2.1229950">
        <ele>435.6</ele>
        <time>2018-04-10T09:59:08Z</time>
      </trkpt>
      <trkpt lat="41.4288800" lon="2.1229050">
        <ele>435.0</ele>
        <time>2018-04-10T09:59:09Z</time>
      </trkpt>
      <trkpt lat="41.4288300" lon="2.1228240">
        <ele>434.4</ele>
        <time>2018-04-10T09:59:10Z</time>
      </trkpt>
      <trkpt lat="41.4287790" lon="2.1227460">
        <ele>433.8</ele>
        <time>2018-04-10T09:59:11Z</time>
      </trkpt>
      <trkpt lat="41.4287320" lon="2.1226670">
        <ele>433.4</ele>
        <time>2018-04-10T09:59:12Z</time>
      </trkpt>
      <trkpt lat="41.4286840" lon="2.1225860">
        <ele>433.2</ele>
        <time>2018-04-10T09:59:13Z</time>
      </trkpt>
      <trkpt lat="41.4285910" lon="2.1224220">
        <ele>433.0</ele>
        <time>2018-04-10T09:59:15Z</time>
      </trkpt>
      <trkpt lat="41.4284990" lon="2.1222570">
        <ele>432.8</ele>
        <time>2018-04-10T09:59:17Z</time>
      </trkpt>
      <trkpt lat="41.4284080" lon="2.1220890">
        <ele>432.8</ele>
        <time>2018-04-10T09:59:19Z</time>
      </trkpt>
      <trkpt lat="41.4283190" lon="2.1219240">
        <ele>432.6</ele>
        <time>2018-04-10T09:59:21Z</time>
      </trkpt>
      <trkpt lat="41.4282270" lon="2.1217650">
        <ele>432.6</ele>
        <time>2018-04-10T09:59:23Z</time>
      </trkpt>
      <trkpt lat="41.4281290" lon="2.1216090">
        <ele>432.6</ele>
        <time>2018-04-10T09:59:25Z</time>
      </trkpt>
      <trkpt lat="41.4280220" lon="2.1214600">
        <ele>432.6</ele>
        <time>2018-04-10T09:59:27Z</time>
      </trkpt>
      <trkpt lat="41.4279060" lon="2.1213180">
        <ele>432.6</ele>
        <time>2018-04-10T09:59:29Z</time>
      </trkpt>
      <trkpt lat="41.4277790" lon="2.1211870">
        <ele>432.4</ele>
        <time>2018-04-10T09:59:31Z</time>
      </trkpt>
      <trkpt lat="41.4276470" lon="2.1210590">
        <ele>432.4</ele>
        <time>2018-04-10T09:59:33Z</time>
      </trkpt>
      <trkpt lat="41.4275210" lon="2.1209150">
        <ele>432.2</ele>
        <time>2018-04-10T09:59:35Z</time>
      </trkpt>
      <trkpt lat="41.4274630" lon="2.1208320">
        <ele>432.2</ele>
        <time>2018-04-10T09:59:36Z</time>
      </trkpt>
      <trkpt lat="41.4274110" lon="2.1207410">
        <ele>432.0</ele>
        <time>2018-04-10T09:59:37Z</time>
      </trkpt>
      <trkpt lat="41.4273240" lon="2.1205380">
        <ele>432.0</ele>
        <time>2018-04-10T09:59:39Z</time>
      </trkpt>
      <trkpt lat="41.4272660" lon="2.1203210">
        <ele>431.6</ele>
        <time>2018-04-10T09:59:41Z</time>
      </trkpt>
      <trkpt lat="41.4272460" lon="2.1202080">
        <ele>431.6</ele>
        <time>2018-04-10T09:59:42Z</time>
      </trkpt>
      <trkpt lat="41.4272340" lon="2.1200940">
        <ele>431.4</ele>
        <time>2018-04-10T09:59:43Z</time>
      </trkpt>
      <trkpt lat="41.4272330" lon="2.1198630">
        <ele>431.2</ele>
        <time>2018-04-10T09:59:45Z</time>
      </trkpt>
      <trkpt lat="41.4272410" lon="2.1197460">
        <ele>430.8</ele>
        <time>2018-04-10T09:59:46Z</time>
      </trkpt>
      <trkpt lat="41.4272550" lon="2.1196290">
        <ele>430.6</ele>
        <time>2018-04-10T09:59:47Z</time>
      </trkpt>
      <trkpt lat="41.4272780" lon="2.1195140">
        <ele>430.4</ele>
        <time>2018-04-10T09:59:48Z</time>
      </trkpt>
      <trkpt lat="41.4273010" lon="2.1193980">
        <ele>430.2</ele>
        <time>2018-04-10T09:59:49Z</time>
      </trkpt>
      <trkpt lat="41.4273490" lon="2.1191700">
        <ele>430.2</ele>
        <time>2018-04-10T09:59:51Z</time>
      </trkpt>
      <trkpt lat="41.4273950" lon="2.1189450">
        <ele>430.0</ele>
        <time>2018-04-10T09:59:53Z</time>
      </trkpt>
      <trkpt lat="41.4274400" lon="2.1187210">
        <ele>430.0</ele>
        <time>2018-04-10T09:59:55Z</time>
      </trkpt>
      <trkpt lat="41.4274860" lon="2.1185020">
        <ele>429.8</ele>
        <time>2018-04-10T09:59:57Z</time>
      </trkpt>
      <trkpt lat="41.4275340" lon="2.1182840">
        <ele>429.6</ele>
        <time>2018-04-10T09:59:59Z</time>
      </trkpt>
      <trkpt lat="41.4275780" lon="2.1180680">
        <ele>429.4</ele>
        <time>2018-04-10T10:00:01Z</time>
      </trkpt>
      <trkpt lat="41.4276190" lon="2.1178540">
        <ele>429.4</ele>
        <time>2018-04-10T10:00:03Z</time>
      </trkpt>
      <trkpt lat="41.4276620" lon="2.1176380">
        <ele>429.4</ele>
        <time>2018-04-10T10:00:05Z</time>
      </trkpt>
      <trkpt lat="41.4277160" lon="2.1174280">
        <ele>429.4</ele>
        <time>2018-04-10T10:00:07Z</time>
      </trkpt>
      <trkpt lat="41.4277940" lon="2.1172340">
        <ele>429.4</ele>
        <time>2018-04-10T10:00:09Z</time>
      </trkpt>
      <trkpt lat="41.4279090" lon="2.1170680">
        <ele>429.6</ele>
        <time>2018-04-10T10:00:11Z</time>
      </trkpt>
      <trkpt lat="41.4280480" lon="2.1169340">
        <ele>429.8</ele>
        <time>2018-04-10T10:00:13Z</time>
      </trkpt>
      <trkpt lat="41.4282060" lon="2.1168360">
        <ele>430.0</ele>
        <time>2018-04-10T10:00:15Z</time>
      </trkpt>
      <trkpt lat="41.4283690" lon="2.1167700">
        <ele>430.0</ele>
        <time>2018-04-10T10:00:17Z</time>
      </trkpt>
      <trkpt lat="41.4285310" lon="2.1167210">
        <ele>430.2</ele>
        <time>2018-04-10T10:00:19Z</time>
      </trkpt>
      <trkpt lat="41.4286890" lon="2.1166710">
        <ele>430.4</ele>
        <time>2018-04-10T10:00:21Z</time>
      </trkpt>
      <trkpt lat="41.4288400" lon="2.1166100">
        <ele>430.4</ele>
        <time>2018-04-10T10:00:23Z</time>
      </trkpt>
      <trkpt lat="41.4289130" lon="2.1165690">
        <ele>430.6</ele>
        <time>2018-04-10T10:00:24Z</time>
      </trkpt>
      <trkpt lat="41.4289800" lon="2.1165150">
        <ele>430.6</ele>
        <time>2018-04-10T10:00:25Z</time>
      </trkpt>
      <trkpt lat="41.4290390" lon="2.1164480">
        <ele>430.6</ele>
        <time>2018-04-10T10:00:26Z</time>
      </trkpt>
      <trkpt lat="41.4290910" lon="2.1163680">
        <ele>430.6</ele>
        <time>2018-04-10T10:00:27Z</time>
      </trkpt>
      <trkpt lat="41.4291760" lon="2.1161770">
        <ele>430.8</ele>
        <time>2018-04-10T10:00:29Z</time>
      </trkpt>
      <trkpt lat="41.4292220" lon="2.1159550">
        <ele>431.0</ele>
        <time>2018-04-10T10:00:31Z</time>
      </trkpt>
      <trkpt lat="41.4292350" lon="2.1158350">
        <ele>431.0</ele>
        <time>2018-04-10T10:00:32Z</time>
      </trkpt>
      <trkpt lat="41.4292480" lon="2.1157120">
        <ele>431.0</ele>
        <time>2018-04-10T10:00:33Z</time>
      </trkpt>
      <trkpt lat="41.4292760" lon="2.1154640">
        <ele>431.0</ele>
        <time>2018-04-10T10:00:35Z</time>
      </trkpt>
      <trkpt lat="41.4293070" lon="2.1152160">
        <ele>431.0</ele>
        <time>2018-04-10T10:00:37Z</time>
      </trkpt>
      <trkpt lat="41.4293360" lon="2.1149650">
        <ele>430.8</ele>
        <time>2018-04-10T10:00:39Z</time>
      </trkpt>
      <trkpt lat="41.4293700" lon="2.1147110">
        <ele>430.4</ele>
        <time>2018-04-10T10:00:41Z</time>
      </trkpt>
      <trkpt lat="41.4294040" lon="2.1145880">
        <ele>430.0</ele>
        <time>2018-04-10T10:00:42Z</time>
      </trkpt>
      <trkpt lat="41.4294590" lon="2.1144770">
        <ele>429.6</ele>
        <time>2018-04-10T10:00:43Z</time>
      </trkpt>
      <trkpt lat="41.4295340" lon="2.1143840">
        <ele>429.4</ele>
        <time>2018-04-10T10:00:44Z</time>
      </trkpt>
      <trkpt lat="41.4296240" lon="2.1143130">
        <ele>429.0</ele>
        <time>2018-04-10T10:00:45Z</time>
      </trkpt>
      <trkpt lat="41.4298210" lon="2.1142400">
        <ele>428.2</ele>
        <time>2018-04-10T10:00:47Z</time>
      </trkpt>
      <trkpt lat="41.4300180" lon="2.1142220">
        <ele>427.6</ele>
        <time>2018-04-10T10:00:49Z</time>
      </trkpt>
      <trkpt lat="41.4302060" lon="2.1141970">
        <ele>427.0</ele>
        <time>2018-04-10T10:00:51Z</time>
      </trkpt>
      <trkpt lat="41.4303690" lon="2.1141110">
        <ele>426.4</ele>
        <time>2018-04-10T10:00:53Z</time>
      </trkpt>
      <trkpt lat="41.4304920" lon="2.1139460">
        <ele>426.0</ele>
        <time>2018-04-10T10:00:55Z</time>
      </trkpt>
      <trkpt lat="41.4305540" lon="2.1137220">
        <ele>425.4</ele>
        <time>2018-04-10T10:00:57Z</time>
      </trkpt>
      <trkpt lat="41.4305470" lon="2.1134660">
        <ele>425.0</ele>
        <time>2018-04-10T10:00:59Z</time>
      </trkpt>
      <trkpt lat="41.4305150" lon="2.1133470">
        <ele>424.8</ele>
        <time>2018-04-10T10:01:00Z</time>
      </trkpt>
      <trkpt lat="41.4304740" lon="2.1132330">
        <ele>424.6</ele>
        <time>2018-04-10T10:01:01Z</time>
      </trkpt>
      <trkpt lat="41.4304270" lon="2.1131230">
        <ele>424.4</ele>
        <time>2018-04-10T10:01:02Z</time>
      </trkpt>
      <trkpt lat="41.4303740" lon="2.1130130">
        <ele>424.2</ele>
        <time>2018-04-10T10:01:03Z</time>
      </trkpt>
      <trkpt lat="41.4302700" lon="2.1127930">
        <ele>423.8</ele>
        <time>2018-04-10T10:01:05Z</time>
      </trkpt>
      <trkpt lat="41.4302150" lon="2.1126800">
        <ele>423.6</ele>
        <time>2018-04-10T10:01:06Z</time>
      </trkpt>
      <trkpt lat="41.4301610" lon="2.1125650">
        <ele>423.4</ele>
        <time>2018-04-10T10:01:07Z</time>
      </trkpt>
      <trkpt lat="41.4300560" lon="2.1123240">
        <ele>423.0</ele>
        <time>2018-04-10T10:01:09Z</time>
      </trkpt>
      <trkpt lat="41.4300160" lon="2.1121960">
        <ele>422.6</ele>
        <time>2018-04-10T10:01:10Z</time>
      </trkpt>
      <trkpt lat="41.4299910" lon="2.1120600">
        <ele>422.6</ele>
        <time>2018-04-10T10:01:11Z</time>
      </trkpt>
      <trkpt lat="41.4299780" lon="2.1117840">
        <ele>422.2</ele>
        <time>2018-04-10T10:01:13Z</time>
      </trkpt>
      <trkpt lat="41.4299740" lon="2.1115020">
        <ele>421.4</ele>
        <time>2018-04-10T10:01:15Z</time>
      </trkpt>
      <trkpt lat="41.4299650" lon="2.1112170">
        <ele>420.2</ele>
        <time>2018-04-10T10:01:17Z</time>
      </trkpt>
      <trkpt lat="41.4299620" lon="2.1109240">
        <ele>418.6</ele>
        <time>2018-04-10T10:01:19Z</time>
      </trkpt>
      <trkpt lat="41.4300210" lon="2.1106290">
        <ele>417.8</ele>
        <time>2018-04-10T10:01:21Z</time>
      </trkpt>
      <trkpt lat="41.4300920" lon="2.1105020">
        <ele>417.4</ele>
        <time>2018-04-10T10:01:22Z</time>
      </trkpt>
      <trkpt lat="41.4301840" lon="2.1103950">
        <ele>416.8</ele>
        <time>2018-04-10T10:01:23Z</time>
      </trkpt>
      <trkpt lat="41.4303940" lon="2.1102260">
        <ele>415.8</ele>
        <time>2018-04-10T10:01:25Z</time>
      </trkpt>
      <trkpt lat="41.4305120" lon="2.1101580">
        <ele>415.2</ele>
        <time>2018-04-10T10:01:26Z</time>
      </trkpt>
      <trkpt lat="41.4306330" lon="2.1100810">
        <ele>414.8</ele>
        <time>2018-04-10T10:01:27Z</time>
      </trkpt>
      <trkpt lat="41.4308570" lon="2.1099020">
        <ele>413.4</ele>
        <time>2018-04-10T10:01:29Z</time>
      </trkpt>
      <trkpt lat="41.4310680" lon="2.1096900">
        <ele>411.6</ele>
        <time>2018-04-10T10:01:31Z</time>
      </trkpt>
      <trkpt lat="41.4312950" lon="2.1094840">
        <ele>409.8</ele>
        <time>2018-04-10T10:01:33Z</time>
      </trkpt>
      <trkpt lat="41.4315470" lon="2.1093120">
        <ele>408.2</ele>
        <time>2018-04-10T10:01:35Z</time>
      </trkpt>
      <trkpt lat="41.4318210" lon="2.1091810">
        <ele>406.6</ele>
        <time>2018-04-10T10:01:37Z</time>
      </trkpt>
      <trkpt lat="41.4320930" lon="2.1090070">
        <ele>405.2</ele>
        <time>2018-04-10T10:01:39Z</time>
      </trkpt>
      <trkpt lat="41.4323370" lon="2.1087840">
        <ele>403.8</ele>
        <time>2018-04-10T10:01:41Z</time>
      </trkpt>
      <trkpt lat="41.4324650" lon="2.1086870">
        <ele>402.6</ele>
        <time>2018-04-10T10:01:42Z</time>
      </trkpt>
      <trkpt lat="41.4325970" lon="2.1085980">
        <ele>401.6</ele>
        <time>2018-04-10T10:01:43Z</time>
      </trkpt>
      <trkpt lat="41.4328690" lon="2.1084240">
        <ele>400.0</ele>
        <time>2018-04-10T10:01:45Z</time>
      </trkpt>
      <trkpt lat="41.4330070" lon="2.1083350">
        <ele>398.8</ele>
        <time>2018-04-10T10:01:46Z</time>
      </trkpt>
      <trkpt lat="41.4331460" lon="2.1082440">
        <ele>397.6</ele>
        <time>2018-04-10T10:01:47Z</time>
      </trkpt>
      <trkpt lat="41.4332870" lon="2.1081540">
        <ele>395.6</ele>
        <time>2018-04-10T10:01:48Z</time>
      </trkpt>
      <trkpt lat="41.4334290" lon="2.1080760">
        <ele>394.6</ele>
        <time>2018-04-10T10:01:49Z</time>
      </trkpt>
      <trkpt lat="41.4335820" lon="2.1080120">
        <ele>393.6</ele>
        <time>2018-04-10T10:01:50Z</time>
      </trkpt>
      <trkpt lat="41.4337410" lon="2.1079700">
        <ele>392.6</ele>
        <time>2018-04-10T10:01:51Z</time>
      </trkpt>
      <trkpt lat="41.4339000" lon="2.1079400">
        <ele>391.4</ele>
        <time>2018-04-10T10:01:52Z</time>
      </trkpt>
      <trkpt lat="41.4340620" lon="2.1079190">
        <ele>390.2</ele>
        <time>2018-04-10T10:01:53Z</time>
      </trkpt>
      <trkpt lat="41.4342220" lon="2.1079060">
        <ele>388.8</ele>
        <time>2018-04-10T10:01:54Z</time>
      </trkpt>
      <trkpt lat="41.4343800" lon="2.1078940">
        <ele>387.4</ele>
        <time>2018-04-10T10:01:55Z</time>
      </trkpt>
      <trkpt lat="41.4345280" lon="2.1078740">
        <ele>386.2</ele>
        <time>2018-04-10T10:01:56Z</time>
      </trkpt>
      <trkpt lat="41.4346650" lon="2.1078240">
        <ele>385.2</ele>
        <time>2018-04-10T10:01:57Z</time>
      </trkpt>
      <trkpt lat="41.4347910" lon="2.1077450">
        <ele>384.0</ele>
        <time>2018-04-10T10:01:58Z</time>
      </trkpt>
      <trkpt lat="41.4349030" lon="2.1076300">
        <ele>382.8</ele>
        <time>2018-04-10T10:01:59Z</time>
      </trkpt>
      <trkpt lat="41.4350090" lon="2.1074860">
        <ele>381.8</ele>
        <time>2018-04-10T10:02:00Z</time>
      </trkpt>
      <trkpt lat="41.4351050" lon="2.1073320">
        <ele>381.0</ele>
        <time>2018-04-10T10:02:01Z</time>
      </trkpt>
      <trkpt lat="41.4351930" lon="2.1071680">
        <ele>379.6</ele>
        <time>2018-04-10T10:02:02Z</time>
      </trkpt>
      <trkpt lat="41.4352840" lon="2.1070060">
        <ele>378.4</ele>
        <time>2018-04-10T10:02:03Z</time>
      </trkpt>
      <trkpt lat="41.4353740" lon="2.1068400">
        <ele>377.2</ele>
        <time>2018-04-10T10:02:04Z</time>
      </trkpt>
      <trkpt lat="41.4354680" lon="2.1066800">
        <ele>376.0</ele>
        <time>2018-04-10T10:02:05Z</time>
      </trkpt>
      <trkpt lat="41.4355670" lon="2.1065300">
        <ele>375.0</ele>
        <time>2018-04-10T10:02:06Z</time>
      </trkpt>
      <trkpt lat="41.4356760" lon="2.1063940">
        <ele>373.8</ele>
        <time>2018-04-10T10:02:07Z</time>
      </trkpt>
      <trkpt lat="41.4357950" lon="2.1062710">
        <ele>372.6</ele>
        <time>2018-04-10T10:02:08Z</time>
      </trkpt>
      <trkpt lat="41.4359160" lon="2.1061510">
        <ele>371.4</ele>
        <time>2018-04-10T10:02:09Z</time>
      </trkpt>
      <trkpt lat="41.4360370" lon="2.1060320">
        <ele>370.6</ele>
        <time>2018-04-10T10:02:10Z</time>
      </trkpt>
      <trkpt lat="41.4361570" lon="2.1059160">
        <ele>370.0</ele>
        <time>2018-04-10T10:02:11Z</time>
      </trkpt>
      <trkpt lat="41.4362730" lon="2.1058000">
        <ele>369.2</ele>
        <time>2018-04-10T10:02:12Z</time>
      </trkpt>
      <trkpt lat="41.4363870" lon="2.1056850">
        <ele>368.6</ele>
        <time>2018-04-10T10:02:13Z</time>
      </trkpt>
      <trkpt lat="41.4364980" lon="2.1055750">
        <ele>367.4</ele>
        <time>2018-04-10T10:02:14Z</time>
      </trkpt>
      <trkpt lat="41.4366110" lon="2.1054760">
        <ele>366.6</ele>
        <time>2018-04-10T10:02:15Z</time>
      </trkpt>
      <trkpt lat="41.4367380" lon="2.1054100">
        <ele>365.4</ele>
        <time>2018-04-10T10:02:16Z</time>
      </trkpt>
      <trkpt lat="41.4368750" lon="2.1053830">
        <ele>364.8</ele>
        <time>2018-04-10T10:02:17Z</time>
      </trkpt>
      <trkpt lat="41.4370150" lon="2.1053820">
        <ele>363.4</ele>
        <time>2018-04-10T10:02:18Z</time>
      </trkpt>
      <trkpt lat="41.4371530" lon="2.1054000">
        <ele>363.2</ele>
        <time>2018-04-10T10:02:19Z</time>
      </trkpt>
      <trkpt lat="41.4372870" lon="2.1054310">
        <ele>362.8</ele>
        <time>2018-04-10T10:02:20Z</time>
      </trkpt>
      <trkpt lat="41.4374190" lon="2.1054590">
        <ele>362.4</ele>
        <time>2018-04-10T10:02:21Z</time>
      </trkpt>
      <trkpt lat="41.4375490" lon="2.1054680">
        <ele>362.4</ele>
        <time>2018-04-10T10:02:22Z</time>
      </trkpt>
      <trkpt lat="41.4376770" lon="2.1054550">
        <ele>362.2</ele>
        <time>2018-04-10T10:02:23Z</time>
      </trkpt>
      <trkpt lat="41.4379130" lon="2.1053260">
        <ele>362.2</ele>
        <time>2018-04-10T10:02:25Z</time>
      </trkpt>
      <trkpt lat="41.4380950" lon="2.1051030">
        <ele>361.8</ele>
        <time>2018-04-10T10:02:27Z</time>
      </trkpt>
      <trkpt lat="41.4382410" lon="2.1048270">
        <ele>361.6</ele>
        <time>2018-04-10T10:02:29Z</time>
      </trkpt>
      <trkpt lat="41.4383070" lon="2.1046760">
        <ele>361.6</ele>
        <time>2018-04-10T10:02:30Z</time>
      </trkpt>
      <trkpt lat="41.4383730" lon="2.1045230">
        <ele>361.6</ele>
        <time>2018-04-10T10:02:31Z</time>
      </trkpt>
      <trkpt lat="41.4385190" lon="2.1042310">
        <ele>361.2</ele>
        <time>2018-04-10T10:02:33Z</time>
      </trkpt>
      <trkpt lat="41.4387000" lon="2.1039980">
        <ele>361.2</ele>
        <time>2018-04-10T10:02:35Z</time>
      </trkpt>
      <trkpt lat="41.4388990" lon="2.1038060">
        <ele>361.0</ele>
        <time>2018-04-10T10:02:37Z</time>
      </trkpt>
      <trkpt lat="41.4390440" lon="2.1035280">
        <ele>360.2</ele>
        <time>2018-04-10T10:02:39Z</time>
      </trkpt>
      <trkpt lat="41.4390910" lon="2.1031900">
        <ele>359.2</ele>
        <time>2018-04-10T10:02:41Z</time>
      </trkpt>
      <trkpt lat="41.4390970" lon="2.1030110">
        <ele>358.4</ele>
        <time>2018-04-10T10:02:42Z</time>
      </trkpt>
      <trkpt lat="41.4391010" lon="2.1028310">
        <ele>357.6</ele>
        <time>2018-04-10T10:02:43Z</time>
      </trkpt>
      <trkpt lat="41.4391050" lon="2.1026530">
        <ele>356.4</ele>
        <time>2018-04-10T10:02:44Z</time>
      </trkpt>
      <trkpt lat="41.4391100" lon="2.1024720">
        <ele>355.2</ele>
        <time>2018-04-10T10:02:45Z</time>
      </trkpt>
      <trkpt lat="41.4391130" lon="2.1022880">
        <ele>354.0</ele>
        <time>2018-04-10T10:02:46Z</time>
      </trkpt>
      <trkpt lat="41.4391210" lon="2.1021040">
        <ele>352.6</ele>
        <time>2018-04-10T10:02:47Z</time>
      </trkpt>
      <trkpt lat="41.4391580" lon="2.1017340">
        <ele>351.4</ele>
        <time>2018-04-10T10:02:49Z</time>
      </trkpt>
      <trkpt lat="41.4392440" lon="2.1013740">
        <ele>350.2</ele>
        <time>2018-04-10T10:02:51Z</time>
      </trkpt>
      <trkpt lat="41.4393570" lon="2.1010250">
        <ele>349.2</ele>
        <time>2018-04-10T10:02:53Z</time>
      </trkpt>
      <trkpt lat="41.4394930" lon="2.1006910">
        <ele>348.0</ele>
        <time>2018-04-10T10:02:55Z</time>
      </trkpt>
      <trkpt lat="41.4395760" lon="2.1005370">
        <ele>347.4</ele>
        <time>2018-04-10T10:02:56Z</time>
      </trkpt>
      <trkpt lat="41.4396790" lon="2.1003990">
        <ele>347.2</ele>
        <time>2018-04-10T10:02:57Z</time>
      </trkpt>
      <trkpt lat="41.4397890" lon="2.1002720">
        <ele>347.0</ele>
        <time>2018-04-10T10:02:58Z</time>
      </trkpt>
      <trkpt lat="41.4399070" lon="2.1001600">
        <ele>346.4</ele>
        <time>2018-04-10T10:02:59Z</time>
      </trkpt>
      <trkpt lat="41.4400370" lon="2.1000630">
        <ele>345.8</ele>
        <time>2018-04-10T10:03:00Z</time>
      </trkpt>
      <trkpt lat="41.4401670" lon="2.0999810">
        <ele>345.0</ele>
        <time>2018-04-10T10:03:01Z</time>
      </trkpt>
      <trkpt lat="41.4403030" lon="2.0999120">
        <ele>344.2</ele>
        <time>2018-04-10T10:03:02Z</time>
      </trkpt>
      <trkpt lat="41.4404400" lon="2.0998440">
        <ele>343.4</ele>
        <time>2018-04-10T10:03:03Z</time>
      </trkpt>
      <trkpt lat="41.4405750" lon="2.0997770">
        <ele>342.8</ele>
        <time>2018-04-10T10:03:04Z</time>
      </trkpt>
      <trkpt lat="41.4407070" lon="2.0997100">
        <ele>342.0</ele>
        <time>2018-04-10T10:03:05Z</time>
      </trkpt>
      <trkpt lat="41.4408360" lon="2.0996390">
        <ele>341.2</ele>
        <time>2018-04-10T10:03:06Z</time>
      </trkpt>
      <trkpt lat="41.4409640" lon="2.0995700">
        <ele>340.4</ele>
        <time>2018-04-10T10:03:07Z</time>
      </trkpt>
      <trkpt lat="41.4410910" lon="2.0995040">
        <ele>339.6</ele>
        <time>2018-04-10T10:03:08Z</time>
      </trkpt>
      <trkpt lat="41.4412200" lon="2.0994350">
        <ele>338.8</ele>
        <time>2018-04-10T10:03:09Z</time>
      </trkpt>
      <trkpt lat="41.4413480" lon="2.0993650">
        <ele>338.0</ele>
        <time>2018-04-10T10:03:10Z</time>
      </trkpt>
      <trkpt lat="41.4414760" lon="2.0992940">
        <ele>337.2</ele>
        <time>2018-04-10T10:03:11Z</time>
      </trkpt>
      <trkpt lat="41.4416030" lon="2.0992160">
        <ele>336.4</ele>
        <time>2018-04-10T10:03:12Z</time>
      </trkpt>
      <trkpt lat="41.4417210" lon="2.0991160">
        <ele>335.8</ele>
        <time>2018-04-10T10:03:13Z</time>
      </trkpt>
      <trkpt lat="41.4418270" lon="2.0989940">
        <ele>335.0</ele>
        <time>2018-04-10T10:03:14Z</time>
      </trkpt>
      <trkpt lat="41.4419260" lon="2.0988610">
        <ele>334.2</ele>
        <time>2018-04-10T10:03:15Z</time>
      </trkpt>
      <trkpt lat="41.4420230" lon="2.0987230">
        <ele>332.6</ele>
        <time>2018-04-10T10:03:16Z</time>
      </trkpt>
      <trkpt lat="41.4421250" lon="2.0985810">
        <ele>332.0</ele>
        <time>2018-04-10T10:03:17Z</time>
      </trkpt>
      <trkpt lat="41.4422280" lon="2.0984430">
        <ele>331.2</ele>
        <time>2018-04-10T10:03:18Z</time>
      </trkpt>
      <trkpt lat="41.4423290" lon="2.0983030">
        <ele>330.6</ele>
        <time>2018-04-10T10:03:19Z</time>
      </trkpt>
      <trkpt lat="41.4424360" lon="2.0981740">
        <ele>330.0</ele>
        <time>2018-04-10T10:03:20Z</time>
      </trkpt>
      <trkpt lat="41.4425560" lon="2.0980680">
        <ele>329.4</ele>
        <time>2018-04-10T10:03:21Z</time>
      </trkpt>
      <trkpt lat="41.4426780" lon="2.0979730">
        <ele>329.0</ele>
        <time>2018-04-10T10:03:22Z</time>
      </trkpt>
      <trkpt lat="41.4427990" lon="2.0978810">
        <ele>328.4</ele>
        <time>2018-04-10T10:03:23Z</time>
      </trkpt>
      <trkpt lat="41.4429220" lon="2.0978000">
        <ele>327.6</ele>
        <time>2018-04-10T10:03:24Z</time>
      </trkpt>
      <trkpt lat="41.4430460" lon="2.0977290">
        <ele>326.8</ele>
        <time>2018-04-10T10:03:25Z</time>
      </trkpt>
      <trkpt lat="41.4431740" lon="2.0977000">
        <ele>325.8</ele>
        <time>2018-04-10T10:03:26Z</time>
      </trkpt>
      <trkpt lat="41.4433100" lon="2.0977300">
        <ele>325.0</ele>
        <time>2018-04-10T10:03:27Z</time>
      </trkpt>
      <trkpt lat="41.4434380" lon="2.0977980">
        <ele>324.0</ele>
        <time>2018-04-10T10:03:28Z</time>
      </trkpt>
      <trkpt lat="41.4435640" lon="2.0978890">
        <ele>322.8</ele>
        <time>2018-04-10T10:03:29Z</time>
      </trkpt>
      <trkpt lat="41.4436890" lon="2.0979920">
        <ele>321.6</ele>
        <time>2018-04-10T10:03:30Z</time>
      </trkpt>
      <trkpt lat="41.4438220" lon="2.0980860">
        <ele>320.4</ele>
        <time>2018-04-10T10:03:31Z</time>
      </trkpt>
      <trkpt lat="41.4439680" lon="2.0981510">
        <ele>319.6</ele>
        <time>2018-04-10T10:03:32Z</time>
      </trkpt>
      <trkpt lat="41.4441220" lon="2.0981850">
        <ele>318.8</ele>
        <time>2018-04-10T10:03:33Z</time>
      </trkpt>
      <trkpt lat="41.4444360" lon="2.0981600">
        <ele>317.0</ele>
        <time>2018-04-10T10:03:35Z</time>
      </trkpt>
      <trkpt lat="41.4445810" lon="2.0980970">
        <ele>316.0</ele>
        <time>2018-04-10T10:03:36Z</time>
      </trkpt>
      <trkpt lat="41.4447200" lon="2.0979910">
        <ele>315.0</ele>
        <time>2018-04-10T10:03:37Z</time>
      </trkpt>
      <trkpt lat="41.4449450" lon="2.0977110">
        <ele>313.2</ele>
        <time>2018-04-10T10:03:39Z</time>
      </trkpt>
      <trkpt lat="41.4451720" lon="2.0974540">
        <ele>311.2</ele>
        <time>2018-04-10T10:03:41Z</time>
      </trkpt>
      <trkpt lat="41.4452980" lon="2.0973600">
        <ele>310.0</ele>
        <time>2018-04-10T10:03:42Z</time>
      </trkpt>
      <trkpt lat="41.4454260" lon="2.0972740">
        <ele>308.8</ele>
        <time>2018-04-10T10:03:43Z</time>
      </trkpt>
      <trkpt lat="41.4455500" lon="2.0971790">
        <ele>306.6</ele>
        <time>2018-04-10T10:03:44Z</time>
      </trkpt>
      <trkpt lat="41.4456670" lon="2.0970600">
        <ele>305.4</ele>
        <time>2018-04-10T10:03:45Z</time>
      </trkpt>
      <trkpt lat="41.4458180" lon="2.0967420">
        <ele>303.8</ele>
        <time>2018-04-10T10:03:47Z</time>
      </trkpt>
      <trkpt lat="41.4458900" lon="2.0963850">
        <ele>302.8</ele>
        <time>2018-04-10T10:03:49Z</time>
      </trkpt>
      <trkpt lat="41.4460180" lon="2.0961130">
        <ele>302.2</ele>
        <time>2018-04-10T10:03:51Z</time>
      </trkpt>
      <trkpt lat="41.4462510" lon="2.0959650">
        <ele>301.8</ele>
        <time>2018-04-10T10:03:53Z</time>
      </trkpt>
      <trkpt lat="41.4463810" lon="2.0958820">
        <ele>301.4</ele>
        <time>2018-04-10T10:03:54Z</time>
      </trkpt>
      <trkpt lat="41.4465070" lon="2.0957650">
        <ele>301.0</ele>
        <time>2018-04-10T10:03:55Z</time>
      </trkpt>
      <trkpt lat="41.4466990" lon="2.0954490">
        <ele>300.0</ele>
        <time>2018-04-10T10:03:57Z</time>
      </trkpt>
      <trkpt lat="41.4467660" lon="2.0952720">
        <ele>299.6</ele>
        <time>2018-04-10T10:03:58Z</time>
      </trkpt>
      <trkpt lat="41.4468300" lon="2.0950870">
        <ele>299.0</ele>
        <time>2018-04-10T10:03:59Z</time>
      </trkpt>
      <trkpt lat="41.4469730" lon="2.0947210">
        <ele>297.6</ele>
        <time>2018-04-10T10:04:01Z</time>
      </trkpt>
      <trkpt lat="41.4471740" lon="2.0944160">
        <ele>296.0</ele>
        <time>2018-04-10T10:04:03Z</time>
      </trkpt>
      <trkpt lat="41.4472970" lon="2.0943010">
        <ele>295.0</ele>
        <time>2018-04-10T10:04:04Z</time>
      </trkpt>
      <trkpt lat="41.4474290" lon="2.0942180">
        <ele>293.8</ele>
        <time>2018-04-10T10:04:05Z</time>
      </trkpt>
      <trkpt lat="41.4475630" lon="2.0941790">
        <ele>292.6</ele>
        <time>2018-04-10T10:04:06Z</time>
      </trkpt>
      <trkpt lat="41.4476980" lon="2.0941500">
        <ele>291.4</ele>
        <time>2018-04-10T10:04:07Z</time>
      </trkpt>
      <trkpt lat="41.4478350" lon="2.0940990">
        <ele>290.0</ele>
        <time>2018-04-10T10:04:08Z</time>
      </trkpt>
      <trkpt lat="41.4479640" lon="2.0939980">
        <ele>288.4</ele>
        <time>2018-04-10T10:04:09Z</time>
      </trkpt>
      <trkpt lat="41.4480730" lon="2.0938640">
        <ele>287.2</ele>
        <time>2018-04-10T10:04:10Z</time>
      </trkpt>
      <trkpt lat="41.4481590" lon="2.0937010">
        <ele>286.0</ele>
        <time>2018-04-10T10:04:11Z</time>
      </trkpt>
      <trkpt lat="41.4482280" lon="2.0935180">
        <ele>285.0</ele>
        <time>2018-04-10T10:04:12Z</time>
      </trkpt>
      <trkpt lat="41.4482920" lon="2.0933280">
        <ele>283.6</ele>
        <time>2018-04-10T10:04:13Z</time>
      </trkpt>
      <trkpt lat="41.4483540" lon="2.0931420">
        <ele>281.0</ele>
        <time>2018-04-10T10:04:14Z</time>
      </trkpt>
      <trkpt lat="41.4484070" lon="2.0929440">
        <ele>279.6</ele>
        <time>2018-04-10T10:04:15Z</time>
      </trkpt>
      <trkpt lat="41.4484460" lon="2.0927420">
        <ele>278.4</ele>
        <time>2018-04-10T10:04:16Z</time>
      </trkpt>
      <trkpt lat="41.4484800" lon="2.0925390">
        <ele>277.0</ele>
        <time>2018-04-10T10:04:17Z</time>
      </trkpt>
      <trkpt lat="41.4485580" lon="2.0921410">
        <ele>275.2</ele>
        <time>2018-04-10T10:04:19Z</time>
      </trkpt>
      <trkpt lat="41.4485960" lon="2.0919460">
        <ele>274.2</ele>
        <time>2018-04-10T10:04:20Z</time>
      </trkpt>
      <trkpt lat="41.4486420" lon="2.0917610">
        <ele>272.8</ele>
        <time>2018-04-10T10:04:21Z</time>
      </trkpt>
      <trkpt lat="41.4487030" lon="2.0915950">
        <ele>271.6</ele>
        <time>2018-04-10T10:04:22Z</time>
      </trkpt>
      <trkpt lat="41.4487910" lon="2.0914560">
        <ele>270.4</ele>
        <time>2018-04-10T10:04:23Z</time>
      </trkpt>
      <trkpt lat="41.4489000" lon="2.0913430">
        <ele>269.6</ele>
        <time>2018-04-10T10:04:24Z</time>
      </trkpt>
      <trkpt lat="41.4490190" lon="2.0912540">
        <ele>268.6</ele>
        <time>2018-04-10T10:04:25Z</time>
      </trkpt>
      <trkpt lat="41.4491480" lon="2.0911870">
        <ele>267.4</ele>
        <time>2018-04-10T10:04:26Z</time>
      </trkpt>
      <trkpt lat="41.4492790" lon="2.0911270">
        <ele>266.4</ele>
        <time>2018-04-10T10:04:27Z</time>
      </trkpt>
      <trkpt lat="41.4494060" lon="2.0910790">
        <ele>265.4</ele>
        <time>2018-04-10T10:04:28Z</time>
      </trkpt>
      <trkpt lat="41.4495320" lon="2.0910590">
        <ele>264.4</ele>
        <time>2018-04-10T10:04:29Z</time>
      </trkpt>
      <trkpt lat="41.4496590" lon="2.0910760">
        <ele>263.4</ele>
        <time>2018-04-10T10:04:30Z</time>
      </trkpt>
      <trkpt lat="41.4497820" lon="2.0911320">
        <ele>262.4</ele>
        <time>2018-04-10T10:04:31Z</time>
      </trkpt>
      <trkpt lat="41.4498920" lon="2.0912190">
        <ele>261.4</ele>
        <time>2018-04-10T10:04:32Z</time>
      </trkpt>
      <trkpt lat="41.4499870" lon="2.0913440">
        <ele>260.2</ele>
        <time>2018-04-10T10:04:33Z</time>
      </trkpt>
      <trkpt lat="41.4500760" lon="2.0914740">
        <ele>259.2</ele>
        <time>2018-04-10T10:04:34Z</time>
      </trkpt>
      <trkpt lat="41.4501590" lon="2.0916010">
        <ele>258.4</ele>
        <time>2018-04-10T10:04:35Z</time>
      </trkpt>
      <trkpt lat="41.4502520" lon="2.0916970">
        <ele>257.4</ele>
        <time>2018-04-10T10:04:36Z</time>
      </trkpt>
      <trkpt lat="41.4503640" lon="2.0917490">
        <ele>256.6</ele>
        <time>2018-04-10T10:04:37Z</time>
      </trkpt>
      <trkpt lat="41.4506130" lon="2.0917660">
        <ele>254.4</ele>
        <time>2018-04-10T10:04:39Z</time>
      </trkpt>
      <trkpt lat="41.4507230" lon="2.0917860">
        <ele>253.2</ele>
        <time>2018-04-10T10:04:40Z</time>
      </trkpt>
      <trkpt lat="41.4508270" lon="2.0918410">
        <ele>252.0</ele>
        <time>2018-04-10T10:04:41Z</time>
      </trkpt>
      <trkpt lat="41.4510070" lon="2.0920330">
        <ele>249.6</ele>
        <time>2018-04-10T10:04:43Z</time>
      </trkpt>
      <trkpt lat="41.4511730" lon="2.0922010">
        <ele>247.8</ele>
        <time>2018-04-10T10:04:45Z</time>
      </trkpt>
      <trkpt lat="41.4513950" lon="2.0922050">
        <ele>246.2</ele>
        <time>2018-04-10T10:04:47Z</time>
      </trkpt>
      <trkpt lat="41.4515820" lon="2.0920270">
        <ele>244.6</ele>
        <time>2018-04-10T10:04:49Z</time>
      </trkpt>
      <trkpt lat="41.4517030" lon="2.0917460">
        <ele>243.0</ele>
        <time>2018-04-10T10:04:51Z</time>
      </trkpt>
      <trkpt lat="41.4517730" lon="2.0916360">
        <ele>242.2</ele>
        <time>2018-04-10T10:04:52Z</time>
      </trkpt>
      <trkpt lat="41.4518640" lon="2.0915490">
        <ele>241.6</ele>
        <time>2018-04-10T10:04:53Z</time>
      </trkpt>
      <trkpt lat="41.4520690" lon="2.0915600">
        <ele>240.4</ele>
        <time>2018-04-10T10:04:55Z</time>
      </trkpt>
      <trkpt lat="41.4522560" lon="2.0917600">
        <ele>238.8</ele>
        <time>2018-04-10T10:04:57Z</time>
      </trkpt>
      <trkpt lat="41.4523310" lon="2.0918700">
        <ele>238.2</ele>
        <time>2018-04-10T10:04:58Z</time>
      </trkpt>
      <trkpt lat="41.4524020" lon="2.0919500">
        <ele>237.4</ele>
        <time>2018-04-10T10:04:59Z</time>
      </trkpt>
      <trkpt lat="41.4525630" lon="2.0919220">
        <ele>235.8</ele>
        <time>2018-04-10T10:05:01Z</time>
      </trkpt>
      <trkpt lat="41.4527020" lon="2.0917100">
        <ele>233.8</ele>
        <time>2018-04-10T10:05:03Z</time>
      </trkpt>
      <trkpt lat="41.4527930" lon="2.0914230">
        <ele>232.2</ele>
        <time>2018-04-10T10:05:05Z</time>
      </trkpt>
      <trkpt lat="41.4529040" lon="2.0911170">
        <ele>230.8</ele>
        <time>2018-04-10T10:05:07Z</time>
      </trkpt>
      <trkpt lat="41.4529780" lon="2.0909750">
        <ele>230.2</ele>
        <time>2018-04-10T10:05:08Z</time>
      </trkpt>
      <trkpt lat="41.4530620" lon="2.0908340">
        <ele>229.8</ele>
        <time>2018-04-10T10:05:09Z</time>
      </trkpt>
      <trkpt lat="41.4531470" lon="2.0906890">
        <ele>229.4</ele>
        <time>2018-04-10T10:05:10Z</time>
      </trkpt>
      <trkpt lat="41.4532260" lon="2.0905350">
        <ele>228.8</ele>
        <time>2018-04-10T10:05:11Z</time>
      </trkpt>
      <trkpt lat="41.4533000" lon="2.0903730">
        <ele>226.8</ele>
        <time>2018-04-10T10:05:12Z</time>
      </trkpt>
      <trkpt lat="41.4533650" lon="2.0902020">
        <ele>225.6</ele>
        <time>2018-04-10T10:05:13Z</time>
      </trkpt>
      <trkpt lat="41.4534240" lon="2.0900250">
        <ele>224.6</ele>
        <time>2018-04-10T10:05:14Z</time>
      </trkpt>
      <trkpt lat="41.4534840" lon="2.0898530">
        <ele>223.4</ele>
        <time>2018-04-10T10:05:15Z</time>
      </trkpt>
      <trkpt lat="41.4535510" lon="2.0896810">
        <ele>222.4</ele>
        <time>2018-04-10T10:05:16Z</time>
      </trkpt>
      <trkpt lat="41.4536480" lon="2.0895370">
        <ele>221.8</ele>
        <time>2018-04-10T10:05:17Z</time>
      </trkpt>
      <trkpt lat="41.4537550" lon="2.0894180">
        <ele>221.2</ele>
        <time>2018-04-10T10:05:18Z</time>
      </trkpt>
      <trkpt lat="41.4538760" lon="2.0893250">
        <ele>220.6</ele>
        <time>2018-04-10T10:05:19Z</time>
      </trkpt>
      <trkpt lat="41.4539980" lon="2.0892580">
        <ele>219.6</ele>
        <time>2018-04-10T10:05:20Z</time>
      </trkpt>
      <trkpt lat="41.4541160" lon="2.0892220">
        <ele>218.6</ele>
        <time>2018-04-10T10:05:21Z</time>
      </trkpt>
      <trkpt lat="41.4543230" lon="2.0892700">
        <ele>217.2</ele>
        <time>2018-04-10T10:05:23Z</time>
      </trkpt>
      <trkpt lat="41.4544600" lon="2.0894420">
        <ele>215.8</ele>
        <time>2018-04-10T10:05:25Z</time>
      </trkpt>
      <trkpt lat="41.4545050" lon="2.0896920">
        <ele>214.0</ele>
        <time>2018-04-10T10:05:27Z</time>
      </trkpt>
      <trkpt lat="41.4545300" lon="2.0899820">
        <ele>212.2</ele>
        <time>2018-04-10T10:05:29Z</time>
      </trkpt>
      <trkpt lat="41.4546530" lon="2.0902390">
        <ele>210.8</ele>
        <time>2018-04-10T10:05:31Z</time>
      </trkpt>
      <trkpt lat="41.4548530" lon="2.0903940">
        <ele>208.8</ele>
        <time>2018-04-10T10:05:33Z</time>
      </trkpt>
      <trkpt lat="41.4551030" lon="2.0904100">
        <ele>207.0</ele>
        <time>2018-04-10T10:05:35Z</time>
      </trkpt>
      <trkpt lat="41.4553520" lon="2.0903240">
        <ele>205.8</ele>
        <time>2018-04-10T10:05:37Z</time>
      </trkpt>
      <trkpt lat="41.4554720" lon="2.0902660">
        <ele>204.8</ele>
        <time>2018-04-10T10:05:38Z</time>
      </trkpt>
      <trkpt lat="41.4555910" lon="2.0902180">
        <ele>204.0</ele>
        <time>2018-04-10T10:05:39Z</time>
      </trkpt>
      <trkpt lat="41.4557160" lon="2.0901860">
        <ele>203.0</ele>
        <time>2018-04-10T10:05:40Z</time>
      </trkpt>
      <trkpt lat="41.4558380" lon="2.0901870">
        <ele>201.4</ele>
        <time>2018-04-10T10:05:41Z</time>
      </trkpt>
      <trkpt lat="41.4560490" lon="2.0903130">
        <ele>199.8</ele>
        <time>2018-04-10T10:05:43Z</time>
      </trkpt>
      <trkpt lat="41.4561400" lon="2.0904090">
        <ele>199.2</ele>
        <time>2018-04-10T10:05:44Z</time>
      </trkpt>
      <trkpt lat="41.4562280" lon="2.0905100">
        <ele>198.4</ele>
        <time>2018-04-10T10:05:45Z</time>
      </trkpt>
      <trkpt lat="41.4563940" lon="2.0907140">
        <ele>197.2</ele>
        <time>2018-04-10T10:05:47Z</time>
      </trkpt>
      <trkpt lat="41.4565540" lon="2.0909130">
        <ele>196.4</ele>
        <time>2018-04-10T10:05:49Z</time>
      </trkpt>
      <trkpt lat="41.4566400" lon="2.0909990">
        <ele>196.0</ele>
        <time>2018-04-10T10:05:50Z</time>
      </trkpt>
      <trkpt lat="41.4567440" lon="2.0910500">
        <ele>195.6</ele>
        <time>2018-04-10T10:05:51Z</time>
      </trkpt>
      <trkpt lat="41.4569740" lon="2.0910350">
        <ele>195.2</ele>
        <time>2018-04-10T10:05:53Z</time>
      </trkpt>
      <trkpt lat="41.4570790" lon="2.0909680">
        <ele>194.6</ele>
        <time>2018-04-10T10:05:54Z</time>
      </trkpt>
      <trkpt lat="41.4571700" lon="2.0908750">
        <ele>194.2</ele>
        <time>2018-04-10T10:05:55Z</time>
      </trkpt>
      <trkpt lat="41.4573290" lon="2.0906350">
        <ele>193.6</ele>
        <time>2018-04-10T10:05:57Z</time>
      </trkpt>
      <trkpt lat="41.4574020" lon="2.0905050">
        <ele>193.2</ele>
        <time>2018-04-10T10:05:58Z</time>
      </trkpt>
      <trkpt lat="41.4574810" lon="2.0903710">
        <ele>193.0</ele>
        <time>2018-04-10T10:05:59Z</time>
      </trkpt>
      <trkpt lat="41.4576470" lon="2.0901090">
        <ele>192.2</ele>
        <time>2018-04-10T10:06:01Z</time>
      </trkpt>
      <trkpt lat="41.4577340" lon="2.0899850">
        <ele>191.8</ele>
        <time>2018-04-10T10:06:02Z</time>
      </trkpt>
      <trkpt lat="41.4578310" lon="2.0898690">
        <ele>191.4</ele>
        <time>2018-04-10T10:06:03Z</time>
      </trkpt>
      <trkpt lat="41.4579390" lon="2.0897700">
        <ele>191.0</ele>
        <time>2018-04-10T10:06:04Z</time>
      </trkpt>
      <trkpt lat="41.4580550" lon="2.0896840">
        <ele>190.4</ele>
        <time>2018-04-10T10:06:05Z</time>
      </trkpt>
      <trkpt lat="41.4581740" lon="2.0896090">
        <ele>189.8</ele>
        <time>2018-04-10T10:06:06Z</time>
      </trkpt>
      <trkpt lat="41.4582960" lon="2.0895460">
        <ele>189.2</ele>
        <time>2018-04-10T10:06:07Z</time>
      </trkpt>
      <trkpt lat="41.4584160" lon="2.0894860">
        <ele>188.6</ele>
        <time>2018-04-10T10:06:08Z</time>
      </trkpt>
      <trkpt lat="41.4585370" lon="2.0894260">
        <ele>188.0</ele>
        <time>2018-04-10T10:06:09Z</time>
      </trkpt>
      <trkpt lat="41.4586580" lon="2.0893670">
        <ele>186.6</ele>
        <time>2018-04-10T10:06:10Z</time>
      </trkpt>
      <trkpt lat="41.4587790" lon="2.0893060">
        <ele>185.8</ele>
        <time>2018-04-10T10:06:11Z</time>
      </trkpt>
      <trkpt lat="41.4588980" lon="2.0892450">
        <ele>184.8</ele>
        <time>2018-04-10T10:06:12Z</time>
      </trkpt>
      <trkpt lat="41.4590170" lon="2.0891890">
        <ele>183.8</ele>
        <time>2018-04-10T10:06:13Z</time>
      </trkpt>
      <trkpt lat="41.4592520" lon="2.0890800">
        <ele>182.0</ele>
        <time>2018-04-10T10:06:15Z</time>
      </trkpt>
      <trkpt lat="41.4594800" lon="2.0889740">
        <ele>180.6</ele>
        <time>2018-04-10T10:06:17Z</time>
      </trkpt>
      <trkpt lat="41.4597090" lon="2.0888730">
        <ele>179.4</ele>
        <time>2018-04-10T10:06:19Z</time>
      </trkpt>
      <trkpt lat="41.4599420" lon="2.0887670">
        <ele>178.0</ele>
        <time>2018-04-10T10:06:21Z</time>
      </trkpt>
      <trkpt lat="41.4601770" lon="2.0886550">
        <ele>176.8</ele>
        <time>2018-04-10T10:06:23Z</time>
      </trkpt>
      <trkpt lat="41.4604160" lon="2.0885430">
        <ele>175.6</ele>
        <time>2018-04-10T10:06:25Z</time>
      </trkpt>
      <trkpt lat="41.4606550" lon="2.0884350">
        <ele>174.6</ele>
        <time>2018-04-10T10:06:27Z</time>
      </trkpt>
      <trkpt lat="41.4608910" lon="2.0883250">
        <ele>173.2</ele>
        <time>2018-04-10T10:06:29Z</time>
      </trkpt>
      <trkpt lat="41.4611240" lon="2.0882170">
        <ele>171.4</ele>
        <time>2018-04-10T10:06:31Z</time>
      </trkpt>
      <trkpt lat="41.4612420" lon="2.0881620">
        <ele>170.4</ele>
        <time>2018-04-10T10:06:32Z</time>
      </trkpt>
      <trkpt lat="41.4613590" lon="2.0881060">
        <ele>169.4</ele>
        <time>2018-04-10T10:06:33Z</time>
      </trkpt>
      <trkpt lat="41.4614780" lon="2.0880510">
        <ele>168.2</ele>
        <time>2018-04-10T10:06:34Z</time>
      </trkpt>
      <trkpt lat="41.4615980" lon="2.0879980">
        <ele>167.2</ele>
        <time>2018-04-10T10:06:35Z</time>
      </trkpt>
      <trkpt lat="41.4617180" lon="2.0879460">
        <ele>166.0</ele>
        <time>2018-04-10T10:06:36Z</time>
      </trkpt>
      <trkpt lat="41.4618360" lon="2.0878930">
        <ele>165.2</ele>
        <time>2018-04-10T10:06:37Z</time>
      </trkpt>
      <trkpt lat="41.4619540" lon="2.0878380">
        <ele>164.4</ele>
        <time>2018-04-10T10:06:38Z</time>
      </trkpt>
      <trkpt lat="41.4620730" lon="2.0877840">
        <ele>163.6</ele>
        <time>2018-04-10T10:06:39Z</time>
      </trkpt>
      <trkpt lat="41.4621910" lon="2.0877300">
        <ele>162.0</ele>
        <time>2018-04-10T10:06:40Z</time>
      </trkpt>
      <trkpt lat="41.4623090" lon="2.0876790">
        <ele>161.2</ele>
        <time>2018-04-10T10:06:41Z</time>
      </trkpt>
      <trkpt lat="41.4624260" lon="2.0876330">
        <ele>160.4</ele>
        <time>2018-04-10T10:06:42Z</time>
      </trkpt>
      <trkpt lat="41.4625460" lon="2.0875930">
        <ele>159.4</ele>
        <time>2018-04-10T10:06:43Z</time>
      </trkpt>
      <trkpt lat="41.4626640" lon="2.0875650">
        <ele>158.4</ele>
        <time>2018-04-10T10:06:44Z</time>
      </trkpt>
      <trkpt lat="41.4627780" lon="2.0875440">
        <ele>157.4</ele>
        <time>2018-04-10T10:06:45Z</time>
      </trkpt>
      <trkpt lat="41.4630060" lon="2.0875060">
        <ele>155.6</ele>
        <time>2018-04-10T10:06:47Z</time>
      </trkpt>
      <trkpt lat="41.4632210" lon="2.0874730">
        <ele>153.8</ele>
        <time>2018-04-10T10:06:49Z</time>
      </trkpt>
      <trkpt lat="41.4634100" lon="2.0874520">
        <ele>152.4</ele>
        <time>2018-04-10T10:06:51Z</time>
      </trkpt>
      <trkpt lat="41.4635750" lon="2.0874430">
        <ele>150.6</ele>
        <time>2018-04-10T10:06:53Z</time>
      </trkpt>
      <trkpt lat="41.4637290" lon="2.0874320">
        <ele>149.0</ele>
        <time>2018-04-10T10:06:55Z</time>
      </trkpt>
      <trkpt lat="41.4638650" lon="2.0874220">
        <ele>148.6</ele>
        <time>2018-04-10T10:06:57Z</time>
      </trkpt>
      <trkpt lat="41.4639260" lon="2.0874260">
        <ele>148.4</ele>
        <time>2018-04-10T10:06:58Z</time>
      </trkpt>
      <trkpt lat="41.4639820" lon="2.0874410">
        <ele>148.4</ele>
        <time>2018-04-10T10:06:59Z</time>
      </trkpt>
      <trkpt lat="41.4640770" lon="2.0874890">
        <ele>148.4</ele>
        <time>2018-04-10T10:07:01Z</time>
      </trkpt>
      <trkpt lat="41.4641480" lon="2.0875280">
        <ele>148.4</ele>
        <time>2018-04-10T10:07:03Z</time>
      </trkpt>
      <trkpt lat="41.4641760" lon="2.0875000">
        <ele>148.4</ele>
        <time>2018-04-10T10:07:05Z</time>
      </trkpt>
      <trkpt lat="41.4641730" lon="2.0874620">
        <ele>148.6</ele>
        <time>2018-04-10T10:07:07Z</time>
      </trkpt>
      <trkpt lat="41.4641710" lon="2.0874530">
        <ele>149.4</ele>
        <time>2018-04-10T10:07:09Z</time>
      </trkpt>
      <trkpt lat="41.4641690" lon="2.0874510">
        <ele>149.8</ele>
        <time>2018-04-10T10:07:11Z</time>
      </trkpt>
      <trkpt lat="41.4641690" lon="2.0874500">
        <ele>150.2</ele>
        <time>2018-04-10T10:07:13Z</time>
      </trkpt>
      <trkpt lat="41.4641690" lon="2.0874500">
        <ele>150.2</ele>
        <time>2018-04-10T10:07:15Z</time>
      </trkpt>
      <trkpt lat="41.4641690" lon="2.0874490">
        <ele>150.2</ele>
        <time>2018-04-10T10:07:17Z</time>
      </trkpt>
      <trkpt lat="41.4641690" lon="2.0874490">
        <ele>150.2</ele>
        <time>2018-04-10T10:07:19Z</time>
      </trkpt>
      <trkpt lat="41.4641690" lon="2.0874490">
        <ele>150.4</ele>
        <time>2018-04-10T10:07:21Z</time>
      </trkpt>
      <trkpt lat="41.4641690" lon="2.0874490">
        <ele>150.4</ele>
        <time>2018-04-10T10:07:23Z</time>
      </trkpt>
      <trkpt lat="41.4641690" lon="2.0874490">
        <ele>150.4</ele>
        <time>2018-04-10T10:07:25Z</time>
      </trkpt>
      <trkpt lat="41.4641680" lon="2.0874490">
        <ele>150.4</ele>
        <time>2018-04-10T10:07:27Z</time>
      </trkpt>
      <trkpt lat="41.4641680" lon="2.0874490">
        <ele>150.4</ele>
        <time>2018-04-10T10:07:29Z</time>
      </trkpt>
      <trkpt lat="41.4641680" lon="2.0874490">
        <ele>150.4</ele>
        <time>2018-04-10T10:07:31Z</time>
      </trkpt>
      <trkpt lat="41.4641680" lon="2.0874490">
        <ele>150.4</ele>
        <time>2018-04-10T10:07:33Z</time>
      </trkpt>
      <trkpt lat="41.4641680" lon="2.0874480">
        <ele>150.4</ele>
        <time>2018-04-10T10:07:35Z</time>
      </trkpt>
      <trkpt lat="41.4641690" lon="2.0874480">
        <ele>150.4</ele>
        <time>2018-04-10T10:07:37Z</time>
      </trkpt>
      <trkpt lat="41.4641680" lon="2.0874470">
        <ele>150.4</ele>
        <time>2018-04-10T10:07:39Z</time>
      </trkpt>
      <trkpt lat="41.4641640" lon="2.0874420">
        <ele>150.4</ele>
        <time>2018-04-10T10:07:40Z</time>
      </trkpt>
      <trkpt lat="41.4641560" lon="2.0874290">
        <ele>150.4</ele>
        <time>2018-04-10T10:07:41Z</time>
      </trkpt>
      <trkpt lat="41.4641460" lon="2.0873870">
        <ele>150.4</ele>
        <time>2018-04-10T10:07:43Z</time>
      </trkpt>
      <trkpt lat="41.4641450" lon="2.0873260">
        <ele>150.4</ele>
        <time>2018-04-10T10:07:45Z</time>
      </trkpt>
      <trkpt lat="41.4641250" lon="2.0872520">
        <ele>150.4</ele>
        <time>2018-04-10T10:07:47Z</time>
      </trkpt>
      <trkpt lat="41.4640560" lon="2.0871890">
        <ele>150.4</ele>
        <time>2018-04-10T10:07:49Z</time>
      </trkpt>
      <trkpt lat="41.4639660" lon="2.0871900">
        <ele>150.6</ele>
        <time>2018-04-10T10:07:51Z</time>
      </trkpt>
      <trkpt lat="41.4638780" lon="2.0872530">
        <ele>150.6</ele>
        <time>2018-04-10T10:07:53Z</time>
      </trkpt>
      <trkpt lat="41.4638250" lon="2.0872900">
        <ele>150.6</ele>
        <time>2018-04-10T10:07:54Z</time>
      </trkpt>
      <trkpt lat="41.4637620" lon="2.0873170">
        <ele>150.6</ele>
        <time>2018-04-10T10:07:55Z</time>
      </trkpt>
      <trkpt lat="41.4636280" lon="2.0873460">
        <ele>150.4</ele>
        <time>2018-04-10T10:07:57Z</time>
      </trkpt>
      <trkpt lat="41.4634880" lon="2.0873660">
        <ele>150.4</ele>
        <time>2018-04-10T10:07:59Z</time>
      </trkpt>
      <trkpt lat="41.4633480" lon="2.0873820">
        <ele>150.2</ele>
        <time>2018-04-10T10:08:01Z</time>
      </trkpt>
      <trkpt lat="41.4632100" lon="2.0873900">
        <ele>149.4</ele>
        <time>2018-04-10T10:08:03Z</time>
      </trkpt>
      <trkpt lat="41.4630780" lon="2.0874040">
        <ele>148.8</ele>
        <time>2018-04-10T10:08:05Z</time>
      </trkpt>
      <trkpt lat="41.4629530" lon="2.0874180">
        <ele>148.4</ele>
        <time>2018-04-10T10:08:07Z</time>
      </trkpt>
      <trkpt lat="41.4628420" lon="2.0874350">
        <ele>148.4</ele>
        <time>2018-04-10T10:08:09Z</time>
      </trkpt>
      <trkpt lat="41.4627470" lon="2.0874460">
        <ele>148.2</ele>
        <time>2018-04-10T10:08:11Z</time>
      </trkpt>
      <trkpt lat="41.4626520" lon="2.0874660">
        <ele>148.2</ele>
        <time>2018-04-10T10:08:13Z</time>
      </trkpt>
      <trkpt lat="41.4625740" lon="2.0874800">
        <ele>148.2</ele>
        <time>2018-04-10T10:08:15Z</time>
      </trkpt>
      <trkpt lat="41.4625000" lon="2.0874970">
        <ele>148.4</ele>
        <time>2018-04-10T10:08:17Z</time>
      </trkpt>
      <trkpt lat="41.4624290" lon="2.0875180">
        <ele>149.2</ele>
        <time>2018-04-10T10:08:19Z</time>
      </trkpt>
      <trkpt lat="41.4623960" lon="2.0875310">
        <ele>150.4</ele>
        <time>2018-04-10T10:08:20Z</time>
      </trkpt>
      <trkpt lat="41.4623620" lon="2.0875460">
        <ele>151.0</ele>
        <time>2018-04-10T10:08:21Z</time>
      </trkpt>
      <trkpt lat="41.4623270" lon="2.0875600">
        <ele>151.4</ele>
        <time>2018-04-10T10:08:22Z</time>
      </trkpt>
      <trkpt lat="41.4622920" lon="2.0875730">
        <ele>151.6</ele>
        <time>2018-04-10T10:08:23Z</time>
      </trkpt>
      <trkpt lat="41.4622180" lon="2.0875980">
        <ele>152.2</ele>
        <time>2018-04-10T10:08:25Z</time>
      </trkpt>
      <trkpt lat="41.4621490" lon="2.0876220">
        <ele>152.4</ele>
        <time>2018-04-10T10:08:27Z</time>
      </trkpt>
      <trkpt lat="41.4620850" lon="2.0876460">
        <ele>152.8</ele>
        <time>2018-04-10T10:08:29Z</time>
      </trkpt>
      <trkpt lat="41.4620230" lon="2.0876700">
        <ele>153.0</ele>
        <time>2018-04-10T10:08:31Z</time>
      </trkpt>
      <trkpt lat="41.4619700" lon="2.0876830">
        <ele>153.4</ele>
        <time>2018-04-10T10:08:33Z</time>
      </trkpt>
      <trkpt lat="41.4619180" lon="2.0877060">
        <ele>154.0</ele>
        <time>2018-04-10T10:08:35Z</time>
      </trkpt>
      <trkpt lat="41.4618950" lon="2.0877150">
        <ele>154.6</ele>
        <time>2018-04-10T10:08:36Z</time>
      </trkpt>
      <trkpt lat="41.4618700" lon="2.0877260">
        <ele>154.8</ele>
        <time>2018-04-10T10:08:37Z</time>
      </trkpt>
      <trkpt lat="41.4618110" lon="2.0877470">
        <ele>155.2</ele>
        <time>2018-04-10T10:08:39Z</time>
      </trkpt>
      <trkpt lat="41.4617570" lon="2.0877120">
        <ele>155.6</ele>
        <time>2018-04-10T10:08:41Z</time>
      </trkpt>
      <trkpt lat="41.4616980" lon="2.0876590">
        <ele>156.0</ele>
        <time>2018-04-10T10:08:43Z</time>
      </trkpt>
      <trkpt lat="41.4616630" lon="2.0876350">
        <ele>156.2</ele>
        <time>2018-04-10T10:08:44Z</time>
      </trkpt>
      <trkpt lat="41.4616270" lon="2.0876080">
        <ele>156.6</ele>
        <time>2018-04-10T10:08:45Z</time>
      </trkpt>
      <trkpt lat="41.4615940" lon="2.0875780">
        <ele>157.0</ele>
        <time>2018-04-10T10:08:46Z</time>
      </trkpt>
      <trkpt lat="41.4615640" lon="2.0875480">
        <ele>157.0</ele>
        <time>2018-04-10T10:08:47Z</time>
      </trkpt>
      <trkpt lat="41.4615140" lon="2.0874930">
        <ele>157.2</ele>
        <time>2018-04-10T10:08:49Z</time>
      </trkpt>
      <trkpt lat="41.4614980" lon="2.0874740">
        <ele>157.4</ele>
        <time>2018-04-10T10:08:51Z</time>
      </trkpt>
      <trkpt lat="41.4614950" lon="2.0874730">
        <ele>157.4</ele>
        <time>2018-04-10T10:08:52Z</time>
      </trkpt>
      <trkpt lat="41.4614920" lon="2.0874740">
        <ele>157.4</ele>
        <time>2018-04-10T10:08:53Z</time>
      </trkpt>
      <trkpt lat="41.4614830" lon="2.0874690">
        <ele>157.4</ele>
        <time>2018-04-10T10:08:55Z</time>
      </trkpt>
      <trkpt lat="41.4614760" lon="2.0874690">
        <ele>157.6</ele>
        <time>2018-04-10T10:08:57Z</time>
      </trkpt>
      <trkpt lat="41.4614710" lon="2.0874700">
        <ele>157.6</ele>
        <time>2018-04-10T10:08:59Z</time>
      </trkpt>
      <trkpt lat="41.4614710" lon="2.0874700">
        <ele>157.6</ele>
        <time>2018-04-10T10:09:01Z</time>
      </trkpt>
      <trkpt lat="41.4614710" lon="2.0874690">
        <ele>157.6</ele>
        <time>2018-04-10T10:09:03Z</time>
      </trkpt>
      <trkpt lat="41.4614700" lon="2.0874690">
        <ele>157.6</ele>
        <time>2018-04-10T10:09:05Z</time>
      </trkpt>
      <trkpt lat="41.4614700" lon="2.0874690">
        <ele>157.6</ele>
        <time>2018-04-10T10:09:07Z</time>
      </trkpt>
      <trkpt lat="41.4614710" lon="2.0874690">
        <ele>157.6</ele>
        <time>2018-04-10T10:09:09Z</time>
      </trkpt>
      <trkpt lat="41.4614710" lon="2.0874680">
        <ele>157.6</ele>
        <time>2018-04-10T10:09:11Z</time>
      </trkpt>
      <trkpt lat="41.4614710" lon="2.0874680">
        <ele>157.6</ele>
        <time>2018-04-10T10:09:13Z</time>
      </trkpt>
      <trkpt lat="41.4614710" lon="2.0874680">
        <ele>157.6</ele>
        <time>2018-04-10T10:09:15Z</time>
      </trkpt>
      <trkpt lat="41.4614710" lon="2.0874670">
        <ele>157.6</ele>
        <time>2018-04-10T10:09:17Z</time>
      </trkpt>
      <trkpt lat="41.4614710" lon="2.0874670">
        <ele>157.6</ele>
        <time>2018-04-10T10:09:19Z</time>
      </trkpt>
      <trkpt lat="41.4614710" lon="2.0874670">
        <ele>157.6</ele>
        <time>2018-04-10T10:09:21Z</time>
      </trkpt>
      <trkpt lat="41.4614710" lon="2.0874670">
        <ele>157.6</ele>
        <time>2018-04-10T10:09:23Z</time>
      </trkpt>
      <trkpt lat="41.4614710" lon="2.0874670">
        <ele>157.6</ele>
        <time>2018-04-10T10:09:25Z</time>
      </trkpt>
      <trkpt lat="41.4614710" lon="2.0874670">
        <ele>157.6</ele>
        <time>2018-04-10T10:09:27Z</time>
      </trkpt>
      <trkpt lat="41.4614710" lon="2.0874660">
        <ele>157.6</ele>
        <time>2018-04-10T10:09:29Z</time>
      </trkpt>
      <trkpt lat="41.4614710" lon="2.0874660">
        <ele>157.6</ele>
        <time>2018-04-10T10:09:31Z</time>
      </trkpt>
      <trkpt lat="41.4614710" lon="2.0874660">
        <ele>157.6</ele>
        <time>2018-04-10T10:09:33Z</time>
      </trkpt>
      <trkpt lat="41.4614710" lon="2.0874660">
        <ele>157.6</ele>
        <time>2018-04-10T10:09:35Z</time>
      </trkpt>
      <trkpt lat="41.4614710" lon="2.0874660">
        <ele>157.4</ele>
        <time>2018-04-10T10:09:37Z</time>
      </trkpt>
      <trkpt lat="41.4614710" lon="2.0874670">
        <ele>157.4</ele>
        <time>2018-04-10T10:09:39Z</time>
      </trkpt>
      <trkpt lat="41.4614710" lon="2.0874670">
        <ele>157.4</ele>
        <time>2018-04-10T10:09:41Z</time>
      </trkpt>
      <trkpt lat="41.4614710" lon="2.0874670">
        <ele>157.2</ele>
        <time>2018-04-10T10:09:43Z</time>
      </trkpt>
      <trkpt lat="41.4614710" lon="2.0874670">
        <ele>157.2</ele>
        <time>2018-04-10T10:09:45Z</time>
      </trkpt>
      <trkpt lat="41.4614710" lon="2.0874670">
        <ele>157.2</ele>
        <time>2018-04-10T10:09:47Z</time>
      </trkpt>
      <trkpt lat="41.4614710" lon="2.0874660">
        <ele>157.2</ele>
        <time>2018-04-10T10:09:49Z</time>
      </trkpt>
      <trkpt lat="41.4614710" lon="2.0874660">
        <ele>157.2</ele>
        <time>2018-04-10T10:09:51Z</time>
      </trkpt>
      <trkpt lat="41.4614710" lon="2.0874660">
        <ele>157.2</ele>
        <time>2018-04-10T10:09:53Z</time>
      </trkpt>
      <trkpt lat="41.4614710" lon="2.0874650">
        <ele>157.2</ele>
        <time>2018-04-10T10:09:55Z</time>
      </trkpt>
      <trkpt lat="41.4614710" lon="2.0874650">
        <ele>157.4</ele>
        <time>2018-04-10T10:09:57Z</time>
      </trkpt>
      <trkpt lat="41.4614710" lon="2.0874640">
        <ele>157.4</ele>
        <time>2018-04-10T10:09:59Z</time>
      </trkpt>
      <trkpt lat="41.4614710" lon="2.0874640">
        <ele>157.6</ele>
        <time>2018-04-10T10:10:01Z</time>
      </trkpt>
      <trkpt lat="41.4614710" lon="2.0874640">
        <ele>157.6</ele>
        <time>2018-04-10T10:10:03Z</time>
      </trkpt>
      <trkpt lat="41.4614710" lon="2.0874640">
        <ele>157.6</ele>
        <time>2018-04-10T10:10:05Z</time>
      </trkpt>
      <trkpt lat="41.4614710" lon="2.0874640">
        <ele>157.6</ele>
        <time>2018-04-10T10:10:07Z</time>
      </trkpt>
      <trkpt lat="41.4614710" lon="2.0874640">
        <ele>157.6</ele>
        <time>2018-04-10T10:10:09Z</time>
      </trkpt>
      <trkpt lat="41.4614710" lon="2.0874630">
        <ele>157.6</ele>
        <time>2018-04-10T10:10:11Z</time>
      </trkpt>
      <trkpt lat="41.4614710" lon="2.0874630">
        <ele>157.6</ele>
        <time>2018-04-10T10:10:13Z</time>
      </trkpt>
      <trkpt lat="41.4614710" lon="2.0874630">
        <ele>157.6</ele>
        <time>2018-04-10T10:10:15Z</time>
      </trkpt>
      <trkpt lat="41.4614710" lon="2.0874630">
        <ele>157.6</ele>
        <time>2018-04-10T10:10:17Z</time>
      </trkpt>
      <trkpt lat="41.4614710" lon="2.0874630">
        <ele>157.4</ele>
        <time>2018-04-10T10:10:19Z</time>
      </trkpt>
      <trkpt lat="41.4614710" lon="2.0874630">
        <ele>157.4</ele>
        <time>2018-04-10T10:10:21Z</time>
      </trkpt>
      <trkpt lat="41.4614710" lon="2.0874630">
        <ele>157.4</ele>
        <time>2018-04-10T10:10:23Z</time>
      </trkpt>
      <trkpt lat="41.4614710" lon="2.0874630">
        <ele>157.4</ele>
        <time>2018-04-10T10:10:25Z</time>
      </trkpt>
      <trkpt lat="41.4614710" lon="2.0874630">
        <ele>157.4</ele>
        <time>2018-04-10T10:10:27Z</time>
      </trkpt>
      <trkpt lat="41.4614710" lon="2.0874630">
        <ele>157.2</ele>
        <time>2018-04-10T10:10:29Z</time>
      </trkpt>
      <trkpt lat="41.4614710" lon="2.0874630">
        <ele>157.2</ele>
        <time>2018-04-10T10:10:31Z</time>
      </trkpt>
      <trkpt lat="41.4614670" lon="2.0874710">
        <ele>157.2</ele>
        <time>2018-04-10T10:10:32Z</time>
      </trkpt>
      <trkpt lat="41.4614700" lon="2.0874790">
        <ele>157.2</ele>
        <time>2018-04-10T10:10:33Z</time>
      </trkpt>
      <trkpt lat="41.4614720" lon="2.0874770">
        <ele>157.2</ele>
        <time>2018-04-10T10:10:35Z</time>
      </trkpt>
      <trkpt lat="41.4614740" lon="2.0874840">
        <ele>157.2</ele>
        <time>2018-04-10T10:10:37Z</time>
      </trkpt>
      <trkpt lat="41.4614760" lon="2.0874940">
        <ele>157.2</ele>
        <time>2018-04-10T10:10:39Z</time>
      </trkpt>
      <trkpt lat="41.4614820" lon="2.0875130">
        <ele>157.2</ele>
        <time>2018-04-10T10:10:41Z</time>
      </trkpt>
      <trkpt lat="41.4614930" lon="2.0875360">
        <ele>157.2</ele>
        <time>2018-04-10T10:10:43Z</time>
      </trkpt>
      <trkpt lat="41.4615010" lon="2.0875470">
        <ele>157.2</ele>
        <time>2018-04-10T10:10:44Z</time>
      </trkpt>
      <trkpt lat="41.4615120" lon="2.0875590">
        <ele>157.2</ele>
        <time>2018-04-10T10:10:45Z</time>
      </trkpt>
      <trkpt lat="41.4615360" lon="2.0876020">
        <ele>157.2</ele>
        <time>2018-04-10T10:10:47Z</time>
      </trkpt>
      <trkpt lat="41.4615680" lon="2.0876490">
        <ele>157.2</ele>
        <time>2018-04-10T10:10:49Z</time>
      </trkpt>
      <trkpt lat="41.4616130" lon="2.0876880">
        <ele>157.2</ele>
        <time>2018-04-10T10:10:51Z</time>
      </trkpt>
      <trkpt lat="41.4616450" lon="2.0877440">
        <ele>157.4</ele>
        <time>2018-04-10T10:10:53Z</time>
      </trkpt>
      <trkpt lat="41.4616310" lon="2.0878030">
        <ele>157.4</ele>
        <time>2018-04-10T10:10:55Z</time>
      </trkpt>
      <trkpt lat="41.4615920" lon="2.0878400">
        <ele>157.4</ele>
        <time>2018-04-10T10:10:57Z</time>
      </trkpt>
      <trkpt lat="41.4615570" lon="2.0878590">
        <ele>157.4</ele>
        <time>2018-04-10T10:10:59Z</time>
      </trkpt>
      <trkpt lat="41.4615230" lon="2.0878800">
        <ele>157.6</ele>
        <time>2018-04-10T10:11:01Z</time>
      </trkpt>
      <trkpt lat="41.4614760" lon="2.0879030">
        <ele>158.0</ele>
        <time>2018-04-10T10:11:03Z</time>
      </trkpt>
      <trkpt lat="41.4614520" lon="2.0879200">
        <ele>158.0</ele>
        <time>2018-04-10T10:11:04Z</time>
      </trkpt>
      <trkpt lat="41.4614270" lon="2.0879320">
        <ele>158.2</ele>
        <time>2018-04-10T10:11:05Z</time>
      </trkpt>
      <trkpt lat="41.4613710" lon="2.0879540">
        <ele>158.4</ele>
        <time>2018-04-10T10:11:07Z</time>
      </trkpt>
      <trkpt lat="41.4613150" lon="2.0879830">
        <ele>159.0</ele>
        <time>2018-04-10T10:11:09Z</time>
      </trkpt>
      <trkpt lat="41.4612860" lon="2.0879980">
        <ele>159.2</ele>
        <time>2018-04-10T10:11:10Z</time>
      </trkpt>
      <trkpt lat="41.4612580" lon="2.0880140">
        <ele>159.4</ele>
        <time>2018-04-10T10:11:11Z</time>
      </trkpt>
      <trkpt lat="41.4612000" lon="2.0880450">
        <ele>160.0</ele>
        <time>2018-04-10T10:11:13Z</time>
      </trkpt>
      <trkpt lat="41.4611710" lon="2.0880620">
        <ele>160.2</ele>
        <time>2018-04-10T10:11:14Z</time>
      </trkpt>
      <trkpt lat="41.4611420" lon="2.0880800">
        <ele>160.6</ele>
        <time>2018-04-10T10:11:15Z</time>
      </trkpt>
      <trkpt lat="41.4610840" lon="2.0881190">
        <ele>161.2</ele>
        <time>2018-04-10T10:11:17Z</time>
      </trkpt>
      <trkpt lat="41.4610550" lon="2.0881350">
        <ele>161.2</ele>
        <time>2018-04-10T10:11:18Z</time>
      </trkpt>
      <trkpt lat="41.4610220" lon="2.0881530">
        <ele>161.4</ele>
        <time>2018-04-10T10:11:19Z</time>
      </trkpt>
      <trkpt lat="41.4609600" lon="2.0881850">
        <ele>161.8</ele>
        <time>2018-04-10T10:11:21Z</time>
      </trkpt>
      <trkpt lat="41.4608960" lon="2.0882140">
        <ele>162.4</ele>
        <time>2018-04-10T10:11:23Z</time>
      </trkpt>
      <trkpt lat="41.4608360" lon="2.0882440">
        <ele>162.8</ele>
        <time>2018-04-10T10:11:25Z</time>
      </trkpt>
      <trkpt lat="41.4607780" lon="2.0882720">
        <ele>163.2</ele>
        <time>2018-04-10T10:11:27Z</time>
      </trkpt>
      <trkpt lat="41.4607470" lon="2.0882850">
        <ele>163.4</ele>
        <time>2018-04-10T10:11:28Z</time>
      </trkpt>
      <trkpt lat="41.4607150" lon="2.0882990">
        <ele>163.6</ele>
        <time>2018-04-10T10:11:29Z</time>
      </trkpt>
      <trkpt lat="41.4606540" lon="2.0883280">
        <ele>164.4</ele>
        <time>2018-04-10T10:11:31Z</time>
      </trkpt>
      <trkpt lat="41.4606240" lon="2.0883430">
        <ele>164.6</ele>
        <time>2018-04-10T10:11:32Z</time>
      </trkpt>
      <trkpt lat="41.4605940" lon="2.0883570">
        <ele>164.8</ele>
        <time>2018-04-10T10:11:33Z</time>
      </trkpt>
      <trkpt lat="41.4605340" lon="2.0883860">
        <ele>165.4</ele>
        <time>2018-04-10T10:11:35Z</time>
      </trkpt>
      <trkpt lat="41.4604750" lon="2.0884120">
        <ele>165.8</ele>
        <time>2018-04-10T10:11:37Z</time>
      </trkpt>
      <trkpt lat="41.4604170" lon="2.0884390">
        <ele>166.2</ele>
        <time>2018-04-10T10:11:39Z</time>
      </trkpt>
      <trkpt lat="41.4603560" lon="2.0884690">
        <ele>166.6</ele>
        <time>2018-04-10T10:11:41Z</time>
      </trkpt>
      <trkpt lat="41.4602950" lon="2.0885010">
        <ele>167.0</ele>
        <time>2018-04-10T10:11:43Z</time>
      </trkpt>
      <trkpt lat="41.4602340" lon="2.0885320">
        <ele>167.2</ele>
        <time>2018-04-10T10:11:45Z</time>
      </trkpt>
      <trkpt lat="41.4601730" lon="2.0885620">
        <ele>167.6</ele>
        <time>2018-04-10T10:11:47Z</time>
      </trkpt>
      <trkpt lat="41.4601120" lon="2.0885920">
        <ele>167.8</ele>
        <time>2018-04-10T10:11:49Z</time>
      </trkpt>
      <trkpt lat="41.4600810" lon="2.0886060">
        <ele>168.2</ele>
        <time>2018-04-10T10:11:50Z</time>
      </trkpt>
      <trkpt lat="41.4600500" lon="2.0886210">
        <ele>168.4</ele>
        <time>2018-04-10T10:11:51Z</time>
      </trkpt>
      <trkpt lat="41.4599890" lon="2.0886470">
        <ele>168.8</ele>
        <time>2018-04-10T10:11:53Z</time>
      </trkpt>
      <trkpt lat="41.4599280" lon="2.0886780">
        <ele>169.4</ele>
        <time>2018-04-10T10:11:55Z</time>
      </trkpt>
      <trkpt lat="41.4598660" lon="2.0887060">
        <ele>169.8</ele>
        <time>2018-04-10T10:11:57Z</time>
      </trkpt>
      <trkpt lat="41.4598060" lon="2.0887360">
        <ele>170.6</ele>
        <time>2018-04-10T10:11:59Z</time>
      </trkpt>
      <trkpt lat="41.4597460" lon="2.0887710">
        <ele>171.4</ele>
        <time>2018-04-10T10:12:01Z</time>
      </trkpt>
      <trkpt lat="41.4597160" lon="2.0887860">
        <ele>171.6</ele>
        <time>2018-04-10T10:12:02Z</time>
      </trkpt>
      <trkpt lat="41.4596860" lon="2.0888020">
        <ele>171.8</ele>
        <time>2018-04-10T10:12:03Z</time>
      </trkpt>
      <trkpt lat="41.4596240" lon="2.0888260">
        <ele>172.4</ele>
        <time>2018-04-10T10:12:05Z</time>
      </trkpt>
      <trkpt lat="41.4595630" lon="2.0888490">
        <ele>172.8</ele>
        <time>2018-04-10T10:12:07Z</time>
      </trkpt>
      <trkpt lat="41.4595000" lon="2.0888780">
        <ele>173.0</ele>
        <time>2018-04-10T10:12:09Z</time>
      </trkpt>
      <trkpt lat="41.4594380" lon="2.0889060">
        <ele>173.6</ele>
        <time>2018-04-10T10:12:11Z</time>
      </trkpt>
      <trkpt lat="41.4594070" lon="2.0889210">
        <ele>173.8</ele>
        <time>2018-04-10T10:12:12Z</time>
      </trkpt>
      <trkpt lat="41.4593770" lon="2.0889360">
        <ele>173.8</ele>
        <time>2018-04-10T10:12:13Z</time>
      </trkpt>
      <trkpt lat="41.4593150" lon="2.0889690">
        <ele>174.2</ele>
        <time>2018-04-10T10:12:15Z</time>
      </trkpt>
      <trkpt lat="41.4592520" lon="2.0890010">
        <ele>174.6</ele>
        <time>2018-04-10T10:12:17Z</time>
      </trkpt>
      <trkpt lat="41.4592190" lon="2.0890160">
        <ele>174.8</ele>
        <time>2018-04-10T10:12:18Z</time>
      </trkpt>
      <trkpt lat="41.4591860" lon="2.0890330">
        <ele>175.0</ele>
        <time>2018-04-10T10:12:19Z</time>
      </trkpt>
      <trkpt lat="41.4591180" lon="2.0890680">
        <ele>175.4</ele>
        <time>2018-04-10T10:12:21Z</time>
      </trkpt>
      <trkpt lat="41.4590510" lon="2.0890980">
        <ele>175.8</ele>
        <time>2018-04-10T10:12:23Z</time>
      </trkpt>
      <trkpt lat="41.4589850" lon="2.0891270">
        <ele>176.2</ele>
        <time>2018-04-10T10:12:25Z</time>
      </trkpt>
      <trkpt lat="41.4589160" lon="2.0891500">
        <ele>176.8</ele>
        <time>2018-04-10T10:12:27Z</time>
      </trkpt>
      <trkpt lat="41.4588820" lon="2.0891600">
        <ele>177.2</ele>
        <time>2018-04-10T10:12:28Z</time>
      </trkpt>
      <trkpt lat="41.4588470" lon="2.0891690">
        <ele>177.4</ele>
        <time>2018-04-10T10:12:29Z</time>
      </trkpt>
      <trkpt lat="41.4587770" lon="2.0891880">
        <ele>178.0</ele>
        <time>2018-04-10T10:12:31Z</time>
      </trkpt>
      <trkpt lat="41.4587110" lon="2.0892120">
        <ele>178.2</ele>
        <time>2018-04-10T10:12:33Z</time>
      </trkpt>
      <trkpt lat="41.4586450" lon="2.0892410">
        <ele>178.6</ele>
        <time>2018-04-10T10:12:35Z</time>
      </trkpt>
      <trkpt lat="41.4585770" lon="2.0892610">
        <ele>179.0</ele>
        <time>2018-04-10T10:12:37Z</time>
      </trkpt>
      <trkpt lat="41.4585030" lon="2.0892800">
        <ele>179.2</ele>
        <time>2018-04-10T10:12:39Z</time>
      </trkpt>
      <trkpt lat="41.4584680" lon="2.0892870">
        <ele>179.4</ele>
        <time>2018-04-10T10:12:40Z</time>
      </trkpt>
      <trkpt lat="41.4584320" lon="2.0892960">
        <ele>179.6</ele>
        <time>2018-04-10T10:12:41Z</time>
      </trkpt>
      <trkpt lat="41.4583620" lon="2.0893210">
        <ele>180.0</ele>
        <time>2018-04-10T10:12:43Z</time>
      </trkpt>
      <trkpt lat="41.4582890" lon="2.0893420">
        <ele>180.4</ele>
        <time>2018-04-10T10:12:45Z</time>
      </trkpt>
      <trkpt lat="41.4582530" lon="2.0893510">
        <ele>180.6</ele>
        <time>2018-04-10T10:12:46Z</time>
      </trkpt>
      <trkpt lat="41.4582190" lon="2.0893660">
        <ele>180.8</ele>
        <time>2018-04-10T10:12:47Z</time>
      </trkpt>
      <trkpt lat="41.4581540" lon="2.0893980">
        <ele>181.0</ele>
        <time>2018-04-10T10:12:49Z</time>
      </trkpt>
      <trkpt lat="41.4580890" lon="2.0894360">
        <ele>181.4</ele>
        <time>2018-04-10T10:12:51Z</time>
      </trkpt>
      <trkpt lat="41.4580230" lon="2.0894900">
        <ele>181.8</ele>
        <time>2018-04-10T10:12:53Z</time>
      </trkpt>
      <trkpt lat="41.4579580" lon="2.0895450">
        <ele>182.2</ele>
        <time>2018-04-10T10:12:55Z</time>
      </trkpt>
      <trkpt lat="41.4578970" lon="2.0896060">
        <ele>183.4</ele>
        <time>2018-04-10T10:12:57Z</time>
      </trkpt>
      <trkpt lat="41.4578360" lon="2.0896660">
        <ele>184.2</ele>
        <time>2018-04-10T10:12:59Z</time>
      </trkpt>
      <trkpt lat="41.4577790" lon="2.0897290">
        <ele>184.6</ele>
        <time>2018-04-10T10:13:01Z</time>
      </trkpt>
      <trkpt lat="41.4577270" lon="2.0897910">
        <ele>185.0</ele>
        <time>2018-04-10T10:13:03Z</time>
      </trkpt>
      <trkpt lat="41.4576810" lon="2.0898630">
        <ele>185.6</ele>
        <time>2018-04-10T10:13:05Z</time>
      </trkpt>
      <trkpt lat="41.4576590" lon="2.0899030">
        <ele>185.6</ele>
        <time>2018-04-10T10:13:06Z</time>
      </trkpt>
      <trkpt lat="41.4576350" lon="2.0899410">
        <ele>185.8</ele>
        <time>2018-04-10T10:13:07Z</time>
      </trkpt>
      <trkpt lat="41.4575930" lon="2.0900220">
        <ele>186.4</ele>
        <time>2018-04-10T10:13:09Z</time>
      </trkpt>
      <trkpt lat="41.4575510" lon="2.0901040">
        <ele>187.0</ele>
        <time>2018-04-10T10:13:11Z</time>
      </trkpt>
      <trkpt lat="41.4575120" lon="2.0901830">
        <ele>187.4</ele>
        <time>2018-04-10T10:13:13Z</time>
      </trkpt>
      <trkpt lat="41.4574710" lon="2.0902590">
        <ele>187.6</ele>
        <time>2018-04-10T10:13:15Z</time>
      </trkpt>
      <trkpt lat="41.4574300" lon="2.0903340">
        <ele>188.0</ele>
        <time>2018-04-10T10:13:17Z</time>
      </trkpt>
      <trkpt lat="41.4574090" lon="2.0903680">
        <ele>188.0</ele>
        <time>2018-04-10T10:13:18Z</time>
      </trkpt>
      <trkpt lat="41.4573880" lon="2.0904030">
        <ele>188.2</ele>
        <time>2018-04-10T10:13:19Z</time>
      </trkpt>
      <trkpt lat="41.4573440" lon="2.0904790">
        <ele>188.6</ele>
        <time>2018-04-10T10:13:21Z</time>
      </trkpt>
      <trkpt lat="41.4572970" lon="2.0905470">
        <ele>188.6</ele>
        <time>2018-04-10T10:13:23Z</time>
      </trkpt>
      <trkpt lat="41.4572480" lon="2.0906190">
        <ele>189.0</ele>
        <time>2018-04-10T10:13:25Z</time>
      </trkpt>
      <trkpt lat="41.4572200" lon="2.0906520">
        <ele>189.4</ele>
        <time>2018-04-10T10:13:26Z</time>
      </trkpt>
      <trkpt lat="41.4571910" lon="2.0906830">
        <ele>190.0</ele>
        <time>2018-04-10T10:13:27Z</time>
      </trkpt>
      <trkpt lat="41.4571300" lon="2.0907450">
        <ele>190.4</ele>
        <time>2018-04-10T10:13:29Z</time>
      </trkpt>
      <trkpt lat="41.4570690" lon="2.0907980">
        <ele>190.6</ele>
        <time>2018-04-10T10:13:31Z</time>
      </trkpt>
      <trkpt lat="41.4570010" lon="2.0908420">
        <ele>191.0</ele>
        <time>2018-04-10T10:13:33Z</time>
      </trkpt>
      <trkpt lat="41.4569370" lon="2.0908750">
        <ele>191.2</ele>
        <time>2018-04-10T10:13:35Z</time>
      </trkpt>
      <trkpt lat="41.4568670" lon="2.0908910">
        <ele>191.4</ele>
        <time>2018-04-10T10:13:37Z</time>
      </trkpt>
      <trkpt lat="41.4567970" lon="2.0908810">
        <ele>192.2</ele>
        <time>2018-04-10T10:13:39Z</time>
      </trkpt>
      <trkpt lat="41.4567280" lon="2.0908510">
        <ele>192.6</ele>
        <time>2018-04-10T10:13:41Z</time>
      </trkpt>
      <trkpt lat="41.4566560" lon="2.0908030">
        <ele>193.0</ele>
        <time>2018-04-10T10:13:43Z</time>
      </trkpt>
      <trkpt lat="41.4565880" lon="2.0907450">
        <ele>193.2</ele>
        <time>2018-04-10T10:13:45Z</time>
      </trkpt>
      <trkpt lat="41.4565230" lon="2.0906740">
        <ele>193.6</ele>
        <time>2018-04-10T10:13:47Z</time>
      </trkpt>
      <trkpt lat="41.4564930" lon="2.0906340">
        <ele>193.8</ele>
        <time>2018-04-10T10:13:48Z</time>
      </trkpt>
      <trkpt lat="41.4564620" lon="2.0905960">
        <ele>193.8</ele>
        <time>2018-04-10T10:13:49Z</time>
      </trkpt>
      <trkpt lat="41.4563930" lon="2.0905170">
        <ele>194.0</ele>
        <time>2018-04-10T10:13:51Z</time>
      </trkpt>
      <trkpt lat="41.4563280" lon="2.0904380">
        <ele>194.2</ele>
        <time>2018-04-10T10:13:53Z</time>
      </trkpt>
      <trkpt lat="41.4562600" lon="2.0903570">
        <ele>194.6</ele>
        <time>2018-04-10T10:13:55Z</time>
      </trkpt>
      <trkpt lat="41.4561930" lon="2.0902760">
        <ele>194.8</ele>
        <time>2018-04-10T10:13:57Z</time>
      </trkpt>
      <trkpt lat="41.4561570" lon="2.0902390">
        <ele>194.8</ele>
        <time>2018-04-10T10:13:58Z</time>
      </trkpt>
      <trkpt lat="41.4561220" lon="2.0902030">
        <ele>195.0</ele>
        <time>2018-04-10T10:13:59Z</time>
      </trkpt>
      <trkpt lat="41.4560430" lon="2.0901360">
        <ele>195.2</ele>
        <time>2018-04-10T10:14:01Z</time>
      </trkpt>
      <trkpt lat="41.4559990" lon="2.0901080">
        <ele>195.6</ele>
        <time>2018-04-10T10:14:02Z</time>
      </trkpt>
      <trkpt lat="41.4559540" lon="2.0900870">
        <ele>195.8</ele>
        <time>2018-04-10T10:14:03Z</time>
      </trkpt>
      <trkpt lat="41.4559080" lon="2.0900730">
        <ele>196.0</ele>
        <time>2018-04-10T10:14:04Z</time>
      </trkpt>
      <trkpt lat="41.4558600" lon="2.0900630">
        <ele>196.2</ele>
        <time>2018-04-10T10:14:05Z</time>
      </trkpt>
      <trkpt lat="41.4557640" lon="2.0900530">
        <ele>196.6</ele>
        <time>2018-04-10T10:14:07Z</time>
      </trkpt>
      <trkpt lat="41.4556670" lon="2.0900650">
        <ele>196.8</ele>
        <time>2018-04-10T10:14:09Z</time>
      </trkpt>
      <trkpt lat="41.4555730" lon="2.0900940">
        <ele>197.0</ele>
        <time>2018-04-10T10:14:11Z</time>
      </trkpt>
      <trkpt lat="41.4554810" lon="2.0901340">
        <ele>197.4</ele>
        <time>2018-04-10T10:14:13Z</time>
      </trkpt>
      <trkpt lat="41.4553920" lon="2.0901780">
        <ele>197.6</ele>
        <time>2018-04-10T10:14:15Z</time>
      </trkpt>
      <trkpt lat="41.4553040" lon="2.0902190">
        <ele>197.8</ele>
        <time>2018-04-10T10:14:17Z</time>
      </trkpt>
      <trkpt lat="41.4552180" lon="2.0902600">
        <ele>198.2</ele>
        <time>2018-04-10T10:14:19Z</time>
      </trkpt>
      <trkpt lat="41.4551320" lon="2.0902980">
        <ele>198.2</ele>
        <time>2018-04-10T10:14:21Z</time>
      </trkpt>
      <trkpt lat="41.4550490" lon="2.0903210">
        <ele>198.4</ele>
        <time>2018-04-10T10:14:23Z</time>
      </trkpt>
      <trkpt lat="41.4549840" lon="2.0903120">
        <ele>198.6</ele>
        <time>2018-04-10T10:14:25Z</time>
      </trkpt>
      <trkpt lat="41.4549220" lon="2.0902880">
        <ele>198.8</ele>
        <time>2018-04-10T10:14:27Z</time>
      </trkpt>
      <trkpt lat="41.4548910" lon="2.0902660">
        <ele>199.2</ele>
        <time>2018-04-10T10:14:28Z</time>
      </trkpt>
      <trkpt lat="41.4548590" lon="2.0902440">
        <ele>199.4</ele>
        <time>2018-04-10T10:14:29Z</time>
      </trkpt>
      <trkpt lat="41.4547980" lon="2.0901850">
        <ele>200.2</ele>
        <time>2018-04-10T10:14:31Z</time>
      </trkpt>
      <trkpt lat="41.4547710" lon="2.0901530">
        <ele>200.4</ele>
        <time>2018-04-10T10:14:32Z</time>
      </trkpt>
      <trkpt lat="41.4547480" lon="2.0901180">
        <ele>200.8</ele>
        <time>2018-04-10T10:14:33Z</time>
      </trkpt>
      <trkpt lat="41.4547050" lon="2.0900480">
        <ele>201.4</ele>
        <time>2018-04-10T10:14:35Z</time>
      </trkpt>
      <trkpt lat="41.4546900" lon="2.0900180">
        <ele>201.6</ele>
        <time>2018-04-10T10:14:36Z</time>
      </trkpt>
      <trkpt lat="41.4546800" lon="2.0899860">
        <ele>201.8</ele>
        <time>2018-04-10T10:14:37Z</time>
      </trkpt>
      <trkpt lat="41.4546620" lon="2.0899120">
        <ele>202.4</ele>
        <time>2018-04-10T10:14:39Z</time>
      </trkpt>
      <trkpt lat="41.4546580" lon="2.0898720">
        <ele>202.8</ele>
        <time>2018-04-10T10:14:40Z</time>
      </trkpt>
      <trkpt lat="41.4546530" lon="2.0898250">
        <ele>203.2</ele>
        <time>2018-04-10T10:14:41Z</time>
      </trkpt>
      <trkpt lat="41.4546540" lon="2.0897310">
        <ele>203.6</ele>
        <time>2018-04-10T10:14:43Z</time>
      </trkpt>
      <trkpt lat="41.4546540" lon="2.0896380">
        <ele>204.0</ele>
        <time>2018-04-10T10:14:45Z</time>
      </trkpt>
      <trkpt lat="41.4546480" lon="2.0895450">
        <ele>204.6</ele>
        <time>2018-04-10T10:14:47Z</time>
      </trkpt>
      <trkpt lat="41.4546360" lon="2.0894530">
        <ele>205.0</ele>
        <time>2018-04-10T10:14:49Z</time>
      </trkpt>
      <trkpt lat="41.4546220" lon="2.0894100">
        <ele>205.2</ele>
        <time>2018-04-10T10:14:50Z</time>
      </trkpt>
      <trkpt lat="41.4546060" lon="2.0893660">
        <ele>205.6</ele>
        <time>2018-04-10T10:14:51Z</time>
      </trkpt>
      <trkpt lat="41.4545670" lon="2.0892800">
        <ele>206.4</ele>
        <time>2018-04-10T10:14:53Z</time>
      </trkpt>
      <trkpt lat="41.4545100" lon="2.0892160">
        <ele>207.0</ele>
        <time>2018-04-10T10:14:55Z</time>
      </trkpt>
      <trkpt lat="41.4544350" lon="2.0891770">
        <ele>207.6</ele>
        <time>2018-04-10T10:14:57Z</time>
      </trkpt>
      <trkpt lat="41.4543610" lon="2.0891580">
        <ele>208.2</ele>
        <time>2018-04-10T10:14:59Z</time>
      </trkpt>
      <trkpt lat="41.4542860" lon="2.0891530">
        <ele>208.6</ele>
        <time>2018-04-10T10:15:01Z</time>
      </trkpt>
      <trkpt lat="41.4542490" lon="2.0891540">
        <ele>208.8</ele>
        <time>2018-04-10T10:15:02Z</time>
      </trkpt>
      <trkpt lat="41.4542100" lon="2.0891560">
        <ele>209.0</ele>
        <time>2018-04-10T10:15:03Z</time>
      </trkpt>
      <trkpt lat="41.4541380" lon="2.0891640">
        <ele>209.6</ele>
        <time>2018-04-10T10:15:05Z</time>
      </trkpt>
      <trkpt lat="41.4541040" lon="2.0891700">
        <ele>209.8</ele>
        <time>2018-04-10T10:15:06Z</time>
      </trkpt>
      <trkpt lat="41.4540720" lon="2.0891770">
        <ele>210.0</ele>
        <time>2018-04-10T10:15:07Z</time>
      </trkpt>
      <trkpt lat="41.4540100" lon="2.0891990">
        <ele>210.4</ele>
        <time>2018-04-10T10:15:09Z</time>
      </trkpt>
      <trkpt lat="41.4539490" lon="2.0892280">
        <ele>210.8</ele>
        <time>2018-04-10T10:15:11Z</time>
      </trkpt>
      <trkpt lat="41.4538820" lon="2.0892660">
        <ele>211.2</ele>
        <time>2018-04-10T10:15:13Z</time>
      </trkpt>
      <trkpt lat="41.4538160" lon="2.0893070">
        <ele>211.6</ele>
        <time>2018-04-10T10:15:15Z</time>
      </trkpt>
      <trkpt lat="41.4537550" lon="2.0893460">
        <ele>211.8</ele>
        <time>2018-04-10T10:15:17Z</time>
      </trkpt>
      <trkpt lat="41.4537260" lon="2.0893690">
        <ele>212.0</ele>
        <time>2018-04-10T10:15:18Z</time>
      </trkpt>
      <trkpt lat="41.4537010" lon="2.0893970">
        <ele>212.2</ele>
        <time>2018-04-10T10:15:19Z</time>
      </trkpt>
      <trkpt lat="41.4536470" lon="2.0894670">
        <ele>212.6</ele>
        <time>2018-04-10T10:15:21Z</time>
      </trkpt>
      <trkpt lat="41.4536220" lon="2.0895020">
        <ele>213.2</ele>
        <time>2018-04-10T10:15:22Z</time>
      </trkpt>
      <trkpt lat="41.4535990" lon="2.0895390">
        <ele>213.4</ele>
        <time>2018-04-10T10:15:23Z</time>
      </trkpt>
      <trkpt lat="41.4535550" lon="2.0896170">
        <ele>214.0</ele>
        <time>2018-04-10T10:15:25Z</time>
      </trkpt>
      <trkpt lat="41.4535330" lon="2.0896550">
        <ele>214.2</ele>
        <time>2018-04-10T10:15:26Z</time>
      </trkpt>
      <trkpt lat="41.4535130" lon="2.0896920">
        <ele>214.4</ele>
        <time>2018-04-10T10:15:27Z</time>
      </trkpt>
      <trkpt lat="41.4534780" lon="2.0897710">
        <ele>214.8</ele>
        <time>2018-04-10T10:15:29Z</time>
      </trkpt>
      <trkpt lat="41.4534460" lon="2.0898570">
        <ele>215.4</ele>
        <time>2018-04-10T10:15:31Z</time>
      </trkpt>
      <trkpt lat="41.4534120" lon="2.0899440">
        <ele>216.0</ele>
        <time>2018-04-10T10:15:33Z</time>
      </trkpt>
      <trkpt lat="41.4533930" lon="2.0899880">
        <ele>216.4</ele>
        <time>2018-04-10T10:15:34Z</time>
      </trkpt>
      <trkpt lat="41.4533760" lon="2.0900320">
        <ele>216.8</ele>
        <time>2018-04-10T10:15:35Z</time>
      </trkpt>
      <trkpt lat="41.4533410" lon="2.0901180">
        <ele>217.2</ele>
        <time>2018-04-10T10:15:37Z</time>
      </trkpt>
      <trkpt lat="41.4533250" lon="2.0901630">
        <ele>217.4</ele>
        <time>2018-04-10T10:15:38Z</time>
      </trkpt>
      <trkpt lat="41.4533090" lon="2.0902060">
        <ele>217.6</ele>
        <time>2018-04-10T10:15:39Z</time>
      </trkpt>
      <trkpt lat="41.4532750" lon="2.0902930">
        <ele>218.0</ele>
        <time>2018-04-10T10:15:41Z</time>
      </trkpt>
      <trkpt lat="41.4532380" lon="2.0903760">
        <ele>218.4</ele>
        <time>2018-04-10T10:15:43Z</time>
      </trkpt>
      <trkpt lat="41.4532180" lon="2.0904160">
        <ele>218.6</ele>
        <time>2018-04-10T10:15:44Z</time>
      </trkpt>
      <trkpt lat="41.4531990" lon="2.0904570">
        <ele>218.8</ele>
        <time>2018-04-10T10:15:45Z</time>
      </trkpt>
      <trkpt lat="41.4531630" lon="2.0905330">
        <ele>219.2</ele>
        <time>2018-04-10T10:15:47Z</time>
      </trkpt>
      <trkpt lat="41.4531220" lon="2.0906130">
        <ele>219.6</ele>
        <time>2018-04-10T10:15:49Z</time>
      </trkpt>
      <trkpt lat="41.4530990" lon="2.0906500">
        <ele>219.8</ele>
        <time>2018-04-10T10:15:50Z</time>
      </trkpt>
      <trkpt lat="41.4530780" lon="2.0906860">
        <ele>220.2</ele>
        <time>2018-04-10T10:15:51Z</time>
      </trkpt>
      <trkpt lat="41.4530310" lon="2.0907540">
        <ele>220.6</ele>
        <time>2018-04-10T10:15:53Z</time>
      </trkpt>
      <trkpt lat="41.4530090" lon="2.0907890">
        <ele>220.8</ele>
        <time>2018-04-10T10:15:54Z</time>
      </trkpt>
      <trkpt lat="41.4529870" lon="2.0908250">
        <ele>221.2</ele>
        <time>2018-04-10T10:15:55Z</time>
      </trkpt>
      <trkpt lat="41.4529450" lon="2.0908970">
        <ele>221.8</ele>
        <time>2018-04-10T10:15:57Z</time>
      </trkpt>
      <trkpt lat="41.4529040" lon="2.0909730">
        <ele>222.4</ele>
        <time>2018-04-10T10:15:59Z</time>
      </trkpt>
      <trkpt lat="41.4528660" lon="2.0910500">
        <ele>223.0</ele>
        <time>2018-04-10T10:16:01Z</time>
      </trkpt>
      <trkpt lat="41.4528380" lon="2.0911340">
        <ele>223.6</ele>
        <time>2018-04-10T10:16:03Z</time>
      </trkpt>
      <trkpt lat="41.4528100" lon="2.0912230">
        <ele>224.2</ele>
        <time>2018-04-10T10:16:05Z</time>
      </trkpt>
      <trkpt lat="41.4527810" lon="2.0913090">
        <ele>224.8</ele>
        <time>2018-04-10T10:16:07Z</time>
      </trkpt>
      <trkpt lat="41.4527550" lon="2.0913980">
        <ele>225.4</ele>
        <time>2018-04-10T10:16:09Z</time>
      </trkpt>
      <trkpt lat="41.4527240" lon="2.0914940">
        <ele>225.8</ele>
        <time>2018-04-10T10:16:11Z</time>
      </trkpt>
      <trkpt lat="41.4526950" lon="2.0915860">
        <ele>226.2</ele>
        <time>2018-04-10T10:16:13Z</time>
      </trkpt>
      <trkpt lat="41.4526810" lon="2.0916330">
        <ele>226.4</ele>
        <time>2018-04-10T10:16:14Z</time>
      </trkpt>
      <trkpt lat="41.4526650" lon="2.0916790">
        <ele>226.6</ele>
        <time>2018-04-10T10:16:15Z</time>
      </trkpt>
      <trkpt lat="41.4526150" lon="2.0917580">
        <ele>227.0</ele>
        <time>2018-04-10T10:16:17Z</time>
      </trkpt>
      <trkpt lat="41.4525450" lon="2.0917960">
        <ele>227.4</ele>
        <time>2018-04-10T10:16:19Z</time>
      </trkpt>
      <trkpt lat="41.4525080" lon="2.0917960">
        <ele>227.8</ele>
        <time>2018-04-10T10:16:20Z</time>
      </trkpt>
      <trkpt lat="41.4524740" lon="2.0917820">
        <ele>228.0</ele>
        <time>2018-04-10T10:16:21Z</time>
      </trkpt>
      <trkpt lat="41.4524100" lon="2.0917280">
        <ele>228.4</ele>
        <time>2018-04-10T10:16:23Z</time>
      </trkpt>
      <trkpt lat="41.4523540" lon="2.0916650">
        <ele>229.0</ele>
        <time>2018-04-10T10:16:25Z</time>
      </trkpt>
      <trkpt lat="41.4523010" lon="2.0915940">
        <ele>229.4</ele>
        <time>2018-04-10T10:16:27Z</time>
      </trkpt>
      <trkpt lat="41.4522480" lon="2.0915260">
        <ele>229.8</ele>
        <time>2018-04-10T10:16:29Z</time>
      </trkpt>
      <trkpt lat="41.4522210" lon="2.0914920">
        <ele>230.0</ele>
        <time>2018-04-10T10:16:30Z</time>
      </trkpt>
      <trkpt lat="41.4521890" lon="2.0914590">
        <ele>230.2</ele>
        <time>2018-04-10T10:16:31Z</time>
      </trkpt>
      <trkpt lat="41.4521290" lon="2.0913960">
        <ele>230.6</ele>
        <time>2018-04-10T10:16:33Z</time>
      </trkpt>
      <trkpt lat="41.4520640" lon="2.0913520">
        <ele>231.0</ele>
        <time>2018-04-10T10:16:35Z</time>
      </trkpt>
      <trkpt lat="41.4519910" lon="2.0913340">
        <ele>231.6</ele>
        <time>2018-04-10T10:16:37Z</time>
      </trkpt>
      <trkpt lat="41.4519170" lon="2.0913440">
        <ele>232.2</ele>
        <time>2018-04-10T10:16:39Z</time>
      </trkpt>
      <trkpt lat="41.4518490" lon="2.0913840">
        <ele>232.8</ele>
        <time>2018-04-10T10:16:41Z</time>
      </trkpt>
      <trkpt lat="41.4517890" lon="2.0914420">
        <ele>233.4</ele>
        <time>2018-04-10T10:16:43Z</time>
      </trkpt>
      <trkpt lat="41.4517470" lon="2.0915140">
        <ele>233.8</ele>
        <time>2018-04-10T10:16:45Z</time>
      </trkpt>
      <trkpt lat="41.4517020" lon="2.0915860">
        <ele>234.4</ele>
        <time>2018-04-10T10:16:47Z</time>
      </trkpt>
      <trkpt lat="41.4516810" lon="2.0916230">
        <ele>234.6</ele>
        <time>2018-04-10T10:16:48Z</time>
      </trkpt>
      <trkpt lat="41.4516620" lon="2.0916590">
        <ele>235.0</ele>
        <time>2018-04-10T10:16:49Z</time>
      </trkpt>
      <trkpt lat="41.4516270" lon="2.0917350">
        <ele>235.4</ele>
        <time>2018-04-10T10:16:51Z</time>
      </trkpt>
      <trkpt lat="41.4516100" lon="2.0917750">
        <ele>235.6</ele>
        <time>2018-04-10T10:16:52Z</time>
      </trkpt>
      <trkpt lat="41.4515930" lon="2.0918190">
        <ele>235.8</ele>
        <time>2018-04-10T10:16:53Z</time>
      </trkpt>
      <trkpt lat="41.4515590" lon="2.0919000">
        <ele>236.4</ele>
        <time>2018-04-10T10:16:55Z</time>
      </trkpt>
      <trkpt lat="41.4515150" lon="2.0919780">
        <ele>236.8</ele>
        <time>2018-04-10T10:16:57Z</time>
      </trkpt>
      <trkpt lat="41.4514610" lon="2.0920480">
        <ele>237.2</ele>
        <time>2018-04-10T10:16:59Z</time>
      </trkpt>
      <trkpt lat="41.4513950" lon="2.0920940">
        <ele>237.6</ele>
        <time>2018-04-10T10:17:01Z</time>
      </trkpt>
      <trkpt lat="41.4513240" lon="2.0921060">
        <ele>238.0</ele>
        <time>2018-04-10T10:17:03Z</time>
      </trkpt>
      <trkpt lat="41.4512530" lon="2.0920840">
        <ele>238.4</ele>
        <time>2018-04-10T10:17:05Z</time>
      </trkpt>
      <trkpt lat="41.4511970" lon="2.0920340">
        <ele>239.0</ele>
        <time>2018-04-10T10:17:07Z</time>
      </trkpt>
      <trkpt lat="41.4511730" lon="2.0920040">
        <ele>239.4</ele>
        <time>2018-04-10T10:17:08Z</time>
      </trkpt>
      <trkpt lat="41.4511520" lon="2.0919700">
        <ele>239.8</ele>
        <time>2018-04-10T10:17:09Z</time>
      </trkpt>
      <trkpt lat="41.4511020" lon="2.0919010">
        <ele>240.4</ele>
        <time>2018-04-10T10:17:11Z</time>
      </trkpt>
      <trkpt lat="41.4510470" lon="2.0918360">
        <ele>241.0</ele>
        <time>2018-04-10T10:17:13Z</time>
      </trkpt>
      <trkpt lat="41.4509850" lon="2.0917760">
        <ele>241.4</ele>
        <time>2018-04-10T10:17:15Z</time>
      </trkpt>
      <trkpt lat="41.4509540" lon="2.0917490">
        <ele>241.6</ele>
        <time>2018-04-10T10:17:16Z</time>
      </trkpt>
      <trkpt lat="41.4509200" lon="2.0917270">
        <ele>242.0</ele>
        <time>2018-04-10T10:17:17Z</time>
      </trkpt>
      <trkpt lat="41.4508480" lon="2.0916920">
        <ele>242.6</ele>
        <time>2018-04-10T10:17:19Z</time>
      </trkpt>
      <trkpt lat="41.4507760" lon="2.0916680">
        <ele>243.2</ele>
        <time>2018-04-10T10:17:21Z</time>
      </trkpt>
      <trkpt lat="41.4507060" lon="2.0916580">
        <ele>243.6</ele>
        <time>2018-04-10T10:17:23Z</time>
      </trkpt>
      <trkpt lat="41.4506710" lon="2.0916580">
        <ele>243.8</ele>
        <time>2018-04-10T10:17:24Z</time>
      </trkpt>
      <trkpt lat="41.4506380" lon="2.0916580">
        <ele>244.0</ele>
        <time>2018-04-10T10:17:25Z</time>
      </trkpt>
      <trkpt lat="41.4505740" lon="2.0916600">
        <ele>244.4</ele>
        <time>2018-04-10T10:17:27Z</time>
      </trkpt>
      <trkpt lat="41.4505030" lon="2.0916730">
        <ele>245.0</ele>
        <time>2018-04-10T10:17:29Z</time>
      </trkpt>
      <trkpt lat="41.4504270" lon="2.0916780">
        <ele>245.6</ele>
        <time>2018-04-10T10:17:31Z</time>
      </trkpt>
      <trkpt lat="41.4503640" lon="2.0916640">
        <ele>246.0</ele>
        <time>2018-04-10T10:17:33Z</time>
      </trkpt>
      <trkpt lat="41.4503070" lon="2.0916230">
        <ele>246.6</ele>
        <time>2018-04-10T10:17:35Z</time>
      </trkpt>
      <trkpt lat="41.4502490" lon="2.0915620">
        <ele>246.8</ele>
        <time>2018-04-10T10:17:37Z</time>
      </trkpt>
      <trkpt lat="41.4502240" lon="2.0915260">
        <ele>247.0</ele>
        <time>2018-04-10T10:17:38Z</time>
      </trkpt>
      <trkpt lat="41.4502010" lon="2.0914900">
        <ele>247.2</ele>
        <time>2018-04-10T10:17:39Z</time>
      </trkpt>
      <trkpt lat="41.4501510" lon="2.0914130">
        <ele>247.6</ele>
        <time>2018-04-10T10:17:41Z</time>
      </trkpt>
      <trkpt lat="41.4501060" lon="2.0913400">
        <ele>248.2</ele>
        <time>2018-04-10T10:17:43Z</time>
      </trkpt>
      <trkpt lat="41.4500550" lon="2.0912650">
        <ele>248.8</ele>
        <time>2018-04-10T10:17:45Z</time>
      </trkpt>
      <trkpt lat="41.4500290" lon="2.0912280">
        <ele>249.0</ele>
        <time>2018-04-10T10:17:46Z</time>
      </trkpt>
      <trkpt lat="41.4500030" lon="2.0911950">
        <ele>249.4</ele>
        <time>2018-04-10T10:17:47Z</time>
      </trkpt>
      <trkpt lat="41.4499400" lon="2.0911250">
        <ele>250.0</ele>
        <time>2018-04-10T10:17:49Z</time>
      </trkpt>
      <trkpt lat="41.4499060" lon="2.0910980">
        <ele>250.2</ele>
        <time>2018-04-10T10:17:50Z</time>
      </trkpt>
      <trkpt lat="41.4498710" lon="2.0910760">
        <ele>250.4</ele>
        <time>2018-04-10T10:17:51Z</time>
      </trkpt>
      <trkpt lat="41.4498010" lon="2.0910420">
        <ele>251.0</ele>
        <time>2018-04-10T10:17:53Z</time>
      </trkpt>
      <trkpt lat="41.4497650" lon="2.0910310">
        <ele>251.2</ele>
        <time>2018-04-10T10:17:54Z</time>
      </trkpt>
      <trkpt lat="41.4497280" lon="2.0910230">
        <ele>251.4</ele>
        <time>2018-04-10T10:17:55Z</time>
      </trkpt>
      <trkpt lat="41.4496530" lon="2.0910170">
        <ele>252.2</ele>
        <time>2018-04-10T10:17:57Z</time>
      </trkpt>
      <trkpt lat="41.4496160" lon="2.0910190">
        <ele>252.4</ele>
        <time>2018-04-10T10:17:58Z</time>
      </trkpt>
      <trkpt lat="41.4495790" lon="2.0910230">
        <ele>252.4</ele>
        <time>2018-04-10T10:17:59Z</time>
      </trkpt>
      <trkpt lat="41.4495090" lon="2.0910400">
        <ele>252.8</ele>
        <time>2018-04-10T10:18:01Z</time>
      </trkpt>
      <trkpt lat="41.4494410" lon="2.0910650">
        <ele>253.2</ele>
        <time>2018-04-10T10:18:03Z</time>
      </trkpt>
      <trkpt lat="41.4494080" lon="2.0910780">
        <ele>253.6</ele>
        <time>2018-04-10T10:18:04Z</time>
      </trkpt>
      <trkpt lat="41.4493770" lon="2.0910920">
        <ele>254.0</ele>
        <time>2018-04-10T10:18:05Z</time>
      </trkpt>
      <trkpt lat="41.4493160" lon="2.0911180">
        <ele>254.4</ele>
        <time>2018-04-10T10:18:07Z</time>
      </trkpt>
      <trkpt lat="41.4492840" lon="2.0911330">
        <ele>254.8</ele>
        <time>2018-04-10T10:18:08Z</time>
      </trkpt>
      <trkpt lat="41.4492500" lon="2.0911480">
        <ele>255.2</ele>
        <time>2018-04-10T10:18:09Z</time>
      </trkpt>
      <trkpt lat="41.4491820" lon="2.0911800">
        <ele>255.8</ele>
        <time>2018-04-10T10:18:11Z</time>
      </trkpt>
      <trkpt lat="41.4491500" lon="2.0911970">
        <ele>256.0</ele>
        <time>2018-04-10T10:18:12Z</time>
      </trkpt>
      <trkpt lat="41.4491170" lon="2.0912120">
        <ele>256.2</ele>
        <time>2018-04-10T10:18:13Z</time>
      </trkpt>
      <trkpt lat="41.4490480" lon="2.0912420">
        <ele>256.8</ele>
        <time>2018-04-10T10:18:15Z</time>
      </trkpt>
      <trkpt lat="41.4490160" lon="2.0912580">
        <ele>257.0</ele>
        <time>2018-04-10T10:18:16Z</time>
      </trkpt>
      <trkpt lat="41.4489820" lon="2.0912730">
        <ele>257.4</ele>
        <time>2018-04-10T10:18:17Z</time>
      </trkpt>
      <trkpt lat="41.4489170" lon="2.0913020">
        <ele>258.0</ele>
        <time>2018-04-10T10:18:19Z</time>
      </trkpt>
      <trkpt lat="41.4488860" lon="2.0913200">
        <ele>258.4</ele>
        <time>2018-04-10T10:18:20Z</time>
      </trkpt>
      <trkpt lat="41.4488560" lon="2.0913390">
        <ele>258.4</ele>
        <time>2018-04-10T10:18:21Z</time>
      </trkpt>
      <trkpt lat="41.4487980" lon="2.0913860">
        <ele>259.0</ele>
        <time>2018-04-10T10:18:23Z</time>
      </trkpt>
      <trkpt lat="41.4487460" lon="2.0914450">
        <ele>259.2</ele>
        <time>2018-04-10T10:18:25Z</time>
      </trkpt>
      <trkpt lat="41.4487070" lon="2.0915180">
        <ele>259.6</ele>
        <time>2018-04-10T10:18:27Z</time>
      </trkpt>
      <trkpt lat="41.4486720" lon="2.0916040">
        <ele>260.0</ele>
        <time>2018-04-10T10:18:29Z</time>
      </trkpt>
      <trkpt lat="41.4486430" lon="2.0916940">
        <ele>260.2</ele>
        <time>2018-04-10T10:18:31Z</time>
      </trkpt>
      <trkpt lat="41.4486170" lon="2.0917860">
        <ele>260.8</ele>
        <time>2018-04-10T10:18:33Z</time>
      </trkpt>
      <trkpt lat="41.4485920" lon="2.0918780">
        <ele>261.2</ele>
        <time>2018-04-10T10:18:35Z</time>
      </trkpt>
      <trkpt lat="41.4485670" lon="2.0919700">
        <ele>261.8</ele>
        <time>2018-04-10T10:18:37Z</time>
      </trkpt>
      <trkpt lat="41.4485490" lon="2.0920600">
        <ele>262.2</ele>
        <time>2018-04-10T10:18:39Z</time>
      </trkpt>
      <trkpt lat="41.4485320" lon="2.0921440">
        <ele>262.4</ele>
        <time>2018-04-10T10:18:41Z</time>
      </trkpt>
      <trkpt lat="41.4485110" lon="2.0922250">
        <ele>262.8</ele>
        <time>2018-04-10T10:18:43Z</time>
      </trkpt>
      <trkpt lat="41.4485020" lon="2.0922700">
        <ele>262.8</ele>
        <time>2018-04-10T10:18:44Z</time>
      </trkpt>
      <trkpt lat="41.4484910" lon="2.0923150">
        <ele>263.0</ele>
        <time>2018-04-10T10:18:45Z</time>
      </trkpt>
      <trkpt lat="41.4484760" lon="2.0924070">
        <ele>263.4</ele>
        <time>2018-04-10T10:18:47Z</time>
      </trkpt>
      <trkpt lat="41.4484650" lon="2.0924530">
        <ele>263.8</ele>
        <time>2018-04-10T10:18:48Z</time>
      </trkpt>
      <trkpt lat="41.4484530" lon="2.0925010">
        <ele>264.2</ele>
        <time>2018-04-10T10:18:49Z</time>
      </trkpt>
      <trkpt lat="41.4484330" lon="2.0925990">
        <ele>264.8</ele>
        <time>2018-04-10T10:18:51Z</time>
      </trkpt>
      <trkpt lat="41.4484160" lon="2.0927030">
        <ele>265.4</ele>
        <time>2018-04-10T10:18:53Z</time>
      </trkpt>
      <trkpt lat="41.4483990" lon="2.0927960">
        <ele>266.0</ele>
        <time>2018-04-10T10:18:55Z</time>
      </trkpt>
      <trkpt lat="41.4483770" lon="2.0928930">
        <ele>266.4</ele>
        <time>2018-04-10T10:18:57Z</time>
      </trkpt>
      <trkpt lat="41.4483510" lon="2.0929930">
        <ele>267.2</ele>
        <time>2018-04-10T10:18:59Z</time>
      </trkpt>
      <trkpt lat="41.4483240" lon="2.0930910">
        <ele>267.6</ele>
        <time>2018-04-10T10:19:01Z</time>
      </trkpt>
      <trkpt lat="41.4482980" lon="2.0931900">
        <ele>268.2</ele>
        <time>2018-04-10T10:19:03Z</time>
      </trkpt>
      <trkpt lat="41.4482820" lon="2.0932380">
        <ele>268.4</ele>
        <time>2018-04-10T10:19:04Z</time>
      </trkpt>
      <trkpt lat="41.4482650" lon="2.0932850">
        <ele>268.6</ele>
        <time>2018-04-10T10:19:05Z</time>
      </trkpt>
      <trkpt lat="41.4482310" lon="2.0933770">
        <ele>269.0</ele>
        <time>2018-04-10T10:19:07Z</time>
      </trkpt>
      <trkpt lat="41.4481980" lon="2.0934690">
        <ele>269.6</ele>
        <time>2018-04-10T10:19:09Z</time>
      </trkpt>
      <trkpt lat="41.4481630" lon="2.0935590">
        <ele>270.6</ele>
        <time>2018-04-10T10:19:11Z</time>
      </trkpt>
      <trkpt lat="41.4481460" lon="2.0936030">
        <ele>270.8</ele>
        <time>2018-04-10T10:19:12Z</time>
      </trkpt>
      <trkpt lat="41.4481300" lon="2.0936470">
        <ele>271.2</ele>
        <time>2018-04-10T10:19:13Z</time>
      </trkpt>
      <trkpt lat="41.4480930" lon="2.0937340">
        <ele>272.0</ele>
        <time>2018-04-10T10:19:15Z</time>
      </trkpt>
      <trkpt lat="41.4480550" lon="2.0938190">
        <ele>273.0</ele>
        <time>2018-04-10T10:19:17Z</time>
      </trkpt>
      <trkpt lat="41.4480340" lon="2.0938570">
        <ele>273.2</ele>
        <time>2018-04-10T10:19:18Z</time>
      </trkpt>
      <trkpt lat="41.4480110" lon="2.0938900">
        <ele>273.6</ele>
        <time>2018-04-10T10:19:19Z</time>
      </trkpt>
      <trkpt lat="41.4479580" lon="2.0939600">
        <ele>274.0</ele>
        <time>2018-04-10T10:19:21Z</time>
      </trkpt>
      <trkpt lat="41.4479300" lon="2.0939890">
        <ele>274.4</ele>
        <time>2018-04-10T10:19:22Z</time>
      </trkpt>
      <trkpt lat="41.4478980" lon="2.0940150">
        <ele>274.6</ele>
        <time>2018-04-10T10:19:23Z</time>
      </trkpt>
      <trkpt lat="41.4478290" lon="2.0940520">
        <ele>275.4</ele>
        <time>2018-04-10T10:19:25Z</time>
      </trkpt>
      <trkpt lat="41.4477950" lon="2.0940650">
        <ele>275.6</ele>
        <time>2018-04-10T10:19:26Z</time>
      </trkpt>
      <trkpt lat="41.4477600" lon="2.0940750">
        <ele>275.8</ele>
        <time>2018-04-10T10:19:27Z</time>
      </trkpt>
      <trkpt lat="41.4476880" lon="2.0940900">
        <ele>276.4</ele>
        <time>2018-04-10T10:19:29Z</time>
      </trkpt>
      <trkpt lat="41.4476170" lon="2.0940980">
        <ele>276.6</ele>
        <time>2018-04-10T10:19:31Z</time>
      </trkpt>
      <trkpt lat="41.4475460" lon="2.0941050">
        <ele>276.8</ele>
        <time>2018-04-10T10:19:33Z</time>
      </trkpt>
      <trkpt lat="41.4474750" lon="2.0941140">
        <ele>277.6</ele>
        <time>2018-04-10T10:19:35Z</time>
      </trkpt>
      <trkpt lat="41.4474400" lon="2.0941210">
        <ele>278.0</ele>
        <time>2018-04-10T10:19:36Z</time>
      </trkpt>
      <trkpt lat="41.4474060" lon="2.0941320">
        <ele>278.4</ele>
        <time>2018-04-10T10:19:37Z</time>
      </trkpt>
      <trkpt lat="41.4473450" lon="2.0941630">
        <ele>279.2</ele>
        <time>2018-04-10T10:19:39Z</time>
      </trkpt>
      <trkpt lat="41.4472880" lon="2.0942030">
        <ele>279.8</ele>
        <time>2018-04-10T10:19:41Z</time>
      </trkpt>
      <trkpt lat="41.4472320" lon="2.0942530">
        <ele>280.4</ele>
        <time>2018-04-10T10:19:43Z</time>
      </trkpt>
      <trkpt lat="41.4471790" lon="2.0943200">
        <ele>281.6</ele>
        <time>2018-04-10T10:19:45Z</time>
      </trkpt>
      <trkpt lat="41.4471250" lon="2.0943870">
        <ele>282.2</ele>
        <time>2018-04-10T10:19:47Z</time>
      </trkpt>
      <trkpt lat="41.4470710" lon="2.0944540">
        <ele>282.6</ele>
        <time>2018-04-10T10:19:49Z</time>
      </trkpt>
      <trkpt lat="41.4470460" lon="2.0944860">
        <ele>282.6</ele>
        <time>2018-04-10T10:19:50Z</time>
      </trkpt>
      <trkpt lat="41.4470200" lon="2.0945220">
        <ele>282.8</ele>
        <time>2018-04-10T10:19:51Z</time>
      </trkpt>
      <trkpt lat="41.4469700" lon="2.0945920">
        <ele>283.4</ele>
        <time>2018-04-10T10:19:53Z</time>
      </trkpt>
      <trkpt lat="41.4469240" lon="2.0946690">
        <ele>283.8</ele>
        <time>2018-04-10T10:19:55Z</time>
      </trkpt>
      <trkpt lat="41.4468820" lon="2.0947470">
        <ele>284.2</ele>
        <time>2018-04-10T10:19:57Z</time>
      </trkpt>
      <trkpt lat="41.4468470" lon="2.0948340">
        <ele>284.6</ele>
        <time>2018-04-10T10:19:59Z</time>
      </trkpt>
      <trkpt lat="41.4468150" lon="2.0949210">
        <ele>285.0</ele>
        <time>2018-04-10T10:20:01Z</time>
      </trkpt>
      <trkpt lat="41.4467830" lon="2.0950030">
        <ele>285.6</ele>
        <time>2018-04-10T10:20:03Z</time>
      </trkpt>
      <trkpt lat="41.4467580" lon="2.0950760">
        <ele>286.2</ele>
        <time>2018-04-10T10:20:05Z</time>
      </trkpt>
      <trkpt lat="41.4467340" lon="2.0951480">
        <ele>286.8</ele>
        <time>2018-04-10T10:20:07Z</time>
      </trkpt>
      <trkpt lat="41.4467170" lon="2.0951880">
        <ele>287.2</ele>
        <time>2018-04-10T10:20:08Z</time>
      </trkpt>
      <trkpt lat="41.4467020" lon="2.0952250">
        <ele>287.6</ele>
        <time>2018-04-10T10:20:09Z</time>
      </trkpt>
      <trkpt lat="41.4466750" lon="2.0952950">
        <ele>288.0</ele>
        <time>2018-04-10T10:20:11Z</time>
      </trkpt>
      <trkpt lat="41.4466610" lon="2.0953270">
        <ele>288.4</ele>
        <time>2018-04-10T10:20:12Z</time>
      </trkpt>
      <trkpt lat="41.4466460" lon="2.0953600">
        <ele>288.8</ele>
        <time>2018-04-10T10:20:13Z</time>
      </trkpt>
      <trkpt lat="41.4466170" lon="2.0954260">
        <ele>289.8</ele>
        <time>2018-04-10T10:20:15Z</time>
      </trkpt>
      <trkpt lat="41.4465800" lon="2.0954940">
        <ele>290.6</ele>
        <time>2018-04-10T10:20:17Z</time>
      </trkpt>
      <trkpt lat="41.4465610" lon="2.0955270">
        <ele>291.0</ele>
        <time>2018-04-10T10:20:18Z</time>
      </trkpt>
      <trkpt lat="41.4465370" lon="2.0955600">
        <ele>291.4</ele>
        <time>2018-04-10T10:20:19Z</time>
      </trkpt>
      <trkpt lat="41.4465110" lon="2.0955910">
        <ele>291.6</ele>
        <time>2018-04-10T10:20:20Z</time>
      </trkpt>
      <trkpt lat="41.4464880" lon="2.0956170">
        <ele>292.0</ele>
        <time>2018-04-10T10:20:21Z</time>
      </trkpt>
      <trkpt lat="41.4464630" lon="2.0956470">
        <ele>292.2</ele>
        <time>2018-04-10T10:20:22Z</time>
      </trkpt>
      <trkpt lat="41.4464310" lon="2.0956780">
        <ele>292.4</ele>
        <time>2018-04-10T10:20:23Z</time>
      </trkpt>
      <trkpt lat="41.4463650" lon="2.0957330">
        <ele>293.0</ele>
        <time>2018-04-10T10:20:25Z</time>
      </trkpt>
      <trkpt lat="41.4462980" lon="2.0957740">
        <ele>293.4</ele>
        <time>2018-04-10T10:20:27Z</time>
      </trkpt>
      <trkpt lat="41.4462340" lon="2.0958080">
        <ele>294.0</ele>
        <time>2018-04-10T10:20:29Z</time>
      </trkpt>
      <trkpt lat="41.4461700" lon="2.0958360">
        <ele>294.8</ele>
        <time>2018-04-10T10:20:31Z</time>
      </trkpt>
      <trkpt lat="41.4461080" lon="2.0958660">
        <ele>295.2</ele>
        <time>2018-04-10T10:20:33Z</time>
      </trkpt>
      <trkpt lat="41.4460450" lon="2.0959040">
        <ele>295.8</ele>
        <time>2018-04-10T10:20:35Z</time>
      </trkpt>
      <trkpt lat="41.4459810" lon="2.0959580">
        <ele>296.0</ele>
        <time>2018-04-10T10:20:37Z</time>
      </trkpt>
      <trkpt lat="41.4459230" lon="2.0960230">
        <ele>296.8</ele>
        <time>2018-04-10T10:20:39Z</time>
      </trkpt>
      <trkpt lat="41.4458980" lon="2.0960610">
        <ele>297.2</ele>
        <time>2018-04-10T10:20:40Z</time>
      </trkpt>
      <trkpt lat="41.4458740" lon="2.0961050">
        <ele>297.4</ele>
        <time>2018-04-10T10:20:41Z</time>
      </trkpt>
      <trkpt lat="41.4458310" lon="2.0962010">
        <ele>298.2</ele>
        <time>2018-04-10T10:20:43Z</time>
      </trkpt>
      <trkpt lat="41.4458000" lon="2.0963020">
        <ele>299.0</ele>
        <time>2018-04-10T10:20:45Z</time>
      </trkpt>
      <trkpt lat="41.4457800" lon="2.0964000">
        <ele>299.4</ele>
        <time>2018-04-10T10:20:47Z</time>
      </trkpt>
      <trkpt lat="41.4457570" lon="2.0965020">
        <ele>300.0</ele>
        <time>2018-04-10T10:20:49Z</time>
      </trkpt>
      <trkpt lat="41.4457360" lon="2.0966060">
        <ele>300.2</ele>
        <time>2018-04-10T10:20:51Z</time>
      </trkpt>
      <trkpt lat="41.4457240" lon="2.0966590">
        <ele>300.4</ele>
        <time>2018-04-10T10:20:52Z</time>
      </trkpt>
      <trkpt lat="41.4457100" lon="2.0967100">
        <ele>300.6</ele>
        <time>2018-04-10T10:20:53Z</time>
      </trkpt>
      <trkpt lat="41.4456940" lon="2.0967610">
        <ele>300.6</ele>
        <time>2018-04-10T10:20:54Z</time>
      </trkpt>
      <trkpt lat="41.4456730" lon="2.0968110">
        <ele>300.8</ele>
        <time>2018-04-10T10:20:55Z</time>
      </trkpt>
      <trkpt lat="41.4456240" lon="2.0969100">
        <ele>300.8</ele>
        <time>2018-04-10T10:20:57Z</time>
      </trkpt>
      <trkpt lat="41.4455630" lon="2.0969990">
        <ele>301.0</ele>
        <time>2018-04-10T10:20:59Z</time>
      </trkpt>
      <trkpt lat="41.4455280" lon="2.0970360">
        <ele>301.2</ele>
        <time>2018-04-10T10:21:00Z</time>
      </trkpt>
      <trkpt lat="41.4454890" lon="2.0970730">
        <ele>301.2</ele>
        <time>2018-04-10T10:21:01Z</time>
      </trkpt>
      <trkpt lat="41.4454470" lon="2.0971010">
        <ele>301.6</ele>
        <time>2018-04-10T10:21:02Z</time>
      </trkpt>
      <trkpt lat="41.4454020" lon="2.0971260">
        <ele>301.8</ele>
        <time>2018-04-10T10:21:03Z</time>
      </trkpt>
      <trkpt lat="41.4453630" lon="2.0971520">
        <ele>301.8</ele>
        <time>2018-04-10T10:21:04Z</time>
      </trkpt>
      <trkpt lat="41.4453160" lon="2.0971830">
        <ele>302.0</ele>
        <time>2018-04-10T10:21:05Z</time>
      </trkpt>
      <trkpt lat="41.4452210" lon="2.0972410">
        <ele>302.2</ele>
        <time>2018-04-10T10:21:07Z</time>
      </trkpt>
      <trkpt lat="41.4451300" lon="2.0973060">
        <ele>302.4</ele>
        <time>2018-04-10T10:21:09Z</time>
      </trkpt>
      <trkpt lat="41.4450850" lon="2.0973440">
        <ele>302.6</ele>
        <time>2018-04-10T10:21:10Z</time>
      </trkpt>
      <trkpt lat="41.4450410" lon="2.0973880">
        <ele>302.6</ele>
        <time>2018-04-10T10:21:11Z</time>
      </trkpt>
      <trkpt lat="41.4449550" lon="2.0974850">
        <ele>303.2</ele>
        <time>2018-04-10T10:21:13Z</time>
      </trkpt>
      <trkpt lat="41.4448730" lon="2.0975970">
        <ele>303.6</ele>
        <time>2018-04-10T10:21:15Z</time>
      </trkpt>
      <trkpt lat="41.4447940" lon="2.0977190">
        <ele>303.6</ele>
        <time>2018-04-10T10:21:17Z</time>
      </trkpt>
      <trkpt lat="41.4447170" lon="2.0978340">
        <ele>304.0</ele>
        <time>2018-04-10T10:21:19Z</time>
      </trkpt>
      <trkpt lat="41.4446760" lon="2.0978810">
        <ele>304.2</ele>
        <time>2018-04-10T10:21:20Z</time>
      </trkpt>
      <trkpt lat="41.4446310" lon="2.0979180">
        <ele>304.4</ele>
        <time>2018-04-10T10:21:21Z</time>
      </trkpt>
      <trkpt lat="41.4445450" lon="2.0979760">
        <ele>304.4</ele>
        <time>2018-04-10T10:21:23Z</time>
      </trkpt>
      <trkpt lat="41.4445040" lon="2.0979970">
        <ele>304.6</ele>
        <time>2018-04-10T10:21:24Z</time>
      </trkpt>
      <trkpt lat="41.4444650" lon="2.0980190">
        <ele>304.6</ele>
        <time>2018-04-10T10:21:25Z</time>
      </trkpt>
      <trkpt lat="41.4444260" lon="2.0980370">
        <ele>304.8</ele>
        <time>2018-04-10T10:21:26Z</time>
      </trkpt>
      <trkpt lat="41.4443880" lon="2.0980510">
        <ele>305.0</ele>
        <time>2018-04-10T10:21:27Z</time>
      </trkpt>
      <trkpt lat="41.4443500" lon="2.0980610">
        <ele>305.0</ele>
        <time>2018-04-10T10:21:28Z</time>
      </trkpt>
      <trkpt lat="41.4443130" lon="2.0980700">
        <ele>305.2</ele>
        <time>2018-04-10T10:21:29Z</time>
      </trkpt>
      <trkpt lat="41.4442380" lon="2.0980800">
        <ele>305.8</ele>
        <time>2018-04-10T10:21:31Z</time>
      </trkpt>
      <trkpt lat="41.4441610" lon="2.0980830">
        <ele>306.4</ele>
        <time>2018-04-10T10:21:33Z</time>
      </trkpt>
      <trkpt lat="41.4440790" lon="2.0980740">
        <ele>307.0</ele>
        <time>2018-04-10T10:21:35Z</time>
      </trkpt>
      <trkpt lat="41.4439960" lon="2.0980400">
        <ele>307.6</ele>
        <time>2018-04-10T10:21:37Z</time>
      </trkpt>
      <trkpt lat="41.4439260" lon="2.0979980">
        <ele>308.4</ele>
        <time>2018-04-10T10:21:39Z</time>
      </trkpt>
      <trkpt lat="41.4438600" lon="2.0979580">
        <ele>309.4</ele>
        <time>2018-04-10T10:21:41Z</time>
      </trkpt>
      <trkpt lat="41.4438250" lon="2.0979360">
        <ele>310.4</ele>
        <time>2018-04-10T10:21:42Z</time>
      </trkpt>
      <trkpt lat="41.4437920" lon="2.0979160">
        <ele>310.6</ele>
        <time>2018-04-10T10:21:43Z</time>
      </trkpt>
      <trkpt lat="41.4437280" lon="2.0978740">
        <ele>311.0</ele>
        <time>2018-04-10T10:21:45Z</time>
      </trkpt>
      <trkpt lat="41.4436640" lon="2.0978310">
        <ele>311.0</ele>
        <time>2018-04-10T10:21:47Z</time>
      </trkpt>
      <trkpt lat="41.4435980" lon="2.0977890">
        <ele>311.4</ele>
        <time>2018-04-10T10:21:49Z</time>
      </trkpt>
      <trkpt lat="41.4435320" lon="2.0977500">
        <ele>311.8</ele>
        <time>2018-04-10T10:21:51Z</time>
      </trkpt>
      <trkpt lat="41.4434700" lon="2.0977120">
        <ele>312.4</ele>
        <time>2018-04-10T10:21:53Z</time>
      </trkpt>
      <trkpt lat="41.4434050" lon="2.0976760">
        <ele>313.4</ele>
        <time>2018-04-10T10:21:55Z</time>
      </trkpt>
      <trkpt lat="41.4433370" lon="2.0976480">
        <ele>313.8</ele>
        <time>2018-04-10T10:21:57Z</time>
      </trkpt>
      <trkpt lat="41.4432680" lon="2.0976350">
        <ele>314.2</ele>
        <time>2018-04-10T10:21:59Z</time>
      </trkpt>
      <trkpt lat="41.4431970" lon="2.0976380">
        <ele>314.6</ele>
        <time>2018-04-10T10:22:01Z</time>
      </trkpt>
      <trkpt lat="41.4431280" lon="2.0976560">
        <ele>315.0</ele>
        <time>2018-04-10T10:22:03Z</time>
      </trkpt>
      <trkpt lat="41.4430640" lon="2.0976810">
        <ele>315.6</ele>
        <time>2018-04-10T10:22:05Z</time>
      </trkpt>
      <trkpt lat="41.4430090" lon="2.0977140">
        <ele>316.2</ele>
        <time>2018-04-10T10:22:07Z</time>
      </trkpt>
      <trkpt lat="41.4429740" lon="2.0977340">
        <ele>316.6</ele>
        <time>2018-04-10T10:22:08Z</time>
      </trkpt>
      <trkpt lat="41.4429400" lon="2.0977560">
        <ele>316.8</ele>
        <time>2018-04-10T10:22:09Z</time>
      </trkpt>
      <trkpt lat="41.4428760" lon="2.0978030">
        <ele>317.4</ele>
        <time>2018-04-10T10:22:11Z</time>
      </trkpt>
      <trkpt lat="41.4428120" lon="2.0978480">
        <ele>317.8</ele>
        <time>2018-04-10T10:22:13Z</time>
      </trkpt>
      <trkpt lat="41.4427460" lon="2.0978930">
        <ele>318.4</ele>
        <time>2018-04-10T10:22:15Z</time>
      </trkpt>
      <trkpt lat="41.4426870" lon="2.0979320">
        <ele>319.2</ele>
        <time>2018-04-10T10:22:17Z</time>
      </trkpt>
      <trkpt lat="41.4426260" lon="2.0979680">
        <ele>319.6</ele>
        <time>2018-04-10T10:22:19Z</time>
      </trkpt>
      <trkpt lat="41.4425640" lon="2.0980110">
        <ele>320.2</ele>
        <time>2018-04-10T10:22:21Z</time>
      </trkpt>
      <trkpt lat="41.4425000" lon="2.0980630">
        <ele>320.8</ele>
        <time>2018-04-10T10:22:23Z</time>
      </trkpt>
      <trkpt lat="41.4424410" lon="2.0981180">
        <ele>321.4</ele>
        <time>2018-04-10T10:22:25Z</time>
      </trkpt>
      <trkpt lat="41.4423900" lon="2.0981760">
        <ele>321.8</ele>
        <time>2018-04-10T10:22:27Z</time>
      </trkpt>
      <trkpt lat="41.4423410" lon="2.0982400">
        <ele>322.2</ele>
        <time>2018-04-10T10:22:29Z</time>
      </trkpt>
      <trkpt lat="41.4423150" lon="2.0982740">
        <ele>322.4</ele>
        <time>2018-04-10T10:22:30Z</time>
      </trkpt>
      <trkpt lat="41.4422890" lon="2.0983070">
        <ele>322.6</ele>
        <time>2018-04-10T10:22:31Z</time>
      </trkpt>
      <trkpt lat="41.4422380" lon="2.0983780">
        <ele>322.8</ele>
        <time>2018-04-10T10:22:33Z</time>
      </trkpt>
      <trkpt lat="41.4421830" lon="2.0984490">
        <ele>323.4</ele>
        <time>2018-04-10T10:22:35Z</time>
      </trkpt>
      <trkpt lat="41.4421560" lon="2.0984850">
        <ele>323.6</ele>
        <time>2018-04-10T10:22:36Z</time>
      </trkpt>
      <trkpt lat="41.4421290" lon="2.0985190">
        <ele>323.8</ele>
        <time>2018-04-10T10:22:37Z</time>
      </trkpt>
      <trkpt lat="41.4420750" lon="2.0985950">
        <ele>324.4</ele>
        <time>2018-04-10T10:22:39Z</time>
      </trkpt>
      <trkpt lat="41.4420490" lon="2.0986320">
        <ele>324.8</ele>
        <time>2018-04-10T10:22:40Z</time>
      </trkpt>
      <trkpt lat="41.4420230" lon="2.0986680">
        <ele>325.2</ele>
        <time>2018-04-10T10:22:41Z</time>
      </trkpt>
      <trkpt lat="41.4419740" lon="2.0987410">
        <ele>326.0</ele>
        <time>2018-04-10T10:22:43Z</time>
      </trkpt>
      <trkpt lat="41.4419220" lon="2.0988100">
        <ele>326.6</ele>
        <time>2018-04-10T10:22:45Z</time>
      </trkpt>
      <trkpt lat="41.4418680" lon="2.0988750">
        <ele>327.0</ele>
        <time>2018-04-10T10:22:47Z</time>
      </trkpt>
      <trkpt lat="41.4418110" lon="2.0989420">
        <ele>327.4</ele>
        <time>2018-04-10T10:22:49Z</time>
      </trkpt>
      <trkpt lat="41.4417420" lon="2.0990060">
        <ele>327.8</ele>
        <time>2018-04-10T10:22:51Z</time>
      </trkpt>
      <trkpt lat="41.4417030" lon="2.0990400">
        <ele>328.2</ele>
        <time>2018-04-10T10:22:52Z</time>
      </trkpt>
      <trkpt lat="41.4416630" lon="2.0990690">
        <ele>328.4</ele>
        <time>2018-04-10T10:22:53Z</time>
      </trkpt>
      <trkpt lat="41.4415810" lon="2.0991280">
        <ele>328.8</ele>
        <time>2018-04-10T10:22:55Z</time>
      </trkpt>
      <trkpt lat="41.4415010" lon="2.0991710">
        <ele>329.2</ele>
        <time>2018-04-10T10:22:57Z</time>
      </trkpt>
      <trkpt lat="41.4414220" lon="2.0992070">
        <ele>329.8</ele>
        <time>2018-04-10T10:22:59Z</time>
      </trkpt>
      <trkpt lat="41.4413800" lon="2.0992220">
        <ele>330.0</ele>
        <time>2018-04-10T10:23:00Z</time>
      </trkpt>
      <trkpt lat="41.4413370" lon="2.0992400">
        <ele>330.2</ele>
        <time>2018-04-10T10:23:01Z</time>
      </trkpt>
      <trkpt lat="41.4412960" lon="2.0992590">
        <ele>330.4</ele>
        <time>2018-04-10T10:23:02Z</time>
      </trkpt>
      <trkpt lat="41.4412570" lon="2.0992780">
        <ele>330.6</ele>
        <time>2018-04-10T10:23:03Z</time>
      </trkpt>
      <trkpt lat="41.4411800" lon="2.0993220">
        <ele>330.8</ele>
        <time>2018-04-10T10:23:05Z</time>
      </trkpt>
      <trkpt lat="41.4411370" lon="2.0993390">
        <ele>330.8</ele>
        <time>2018-04-10T10:23:06Z</time>
      </trkpt>
      <trkpt lat="41.4410950" lon="2.0993540">
        <ele>331.0</ele>
        <time>2018-04-10T10:23:07Z</time>
      </trkpt>
      <trkpt lat="41.4410080" lon="2.0993850">
        <ele>331.4</ele>
        <time>2018-04-10T10:23:09Z</time>
      </trkpt>
      <trkpt lat="41.4409210" lon="2.0994160">
        <ele>332.2</ele>
        <time>2018-04-10T10:23:11Z</time>
      </trkpt>
      <trkpt lat="41.4408370" lon="2.0994610">
        <ele>332.6</ele>
        <time>2018-04-10T10:23:13Z</time>
      </trkpt>
      <trkpt lat="41.4407550" lon="2.0995060">
        <ele>333.2</ele>
        <time>2018-04-10T10:23:15Z</time>
      </trkpt>
      <trkpt lat="41.4406740" lon="2.0995550">
        <ele>333.8</ele>
        <time>2018-04-10T10:23:17Z</time>
      </trkpt>
      <trkpt lat="41.4405930" lon="2.0995910">
        <ele>334.2</ele>
        <time>2018-04-10T10:23:19Z</time>
      </trkpt>
      <trkpt lat="41.4405200" lon="2.0996350">
        <ele>334.8</ele>
        <time>2018-04-10T10:23:21Z</time>
      </trkpt>
      <trkpt lat="41.4404410" lon="2.0996700">
        <ele>335.4</ele>
        <time>2018-04-10T10:23:23Z</time>
      </trkpt>
      <trkpt lat="41.4404070" lon="2.0996910">
        <ele>335.6</ele>
        <time>2018-04-10T10:23:24Z</time>
      </trkpt>
      <trkpt lat="41.4403740" lon="2.0997130">
        <ele>336.0</ele>
        <time>2018-04-10T10:23:25Z</time>
      </trkpt>
      <trkpt lat="41.4403120" lon="2.0997650">
        <ele>336.6</ele>
        <time>2018-04-10T10:23:27Z</time>
      </trkpt>
      <trkpt lat="41.4402390" lon="2.0998100">
        <ele>337.0</ele>
        <time>2018-04-10T10:23:29Z</time>
      </trkpt>
      <trkpt lat="41.4401540" lon="2.0998590">
        <ele>337.4</ele>
        <time>2018-04-10T10:23:31Z</time>
      </trkpt>
      <trkpt lat="41.4400700" lon="2.0999120">
        <ele>337.8</ele>
        <time>2018-04-10T10:23:33Z</time>
      </trkpt>
      <trkpt lat="41.4400300" lon="2.0999430">
        <ele>338.2</ele>
        <time>2018-04-10T10:23:34Z</time>
      </trkpt>
      <trkpt lat="41.4399920" lon="2.0999720">
        <ele>338.4</ele>
        <time>2018-04-10T10:23:35Z</time>
      </trkpt>
      <trkpt lat="41.4399170" lon="2.1000360">
        <ele>338.8</ele>
        <time>2018-04-10T10:23:37Z</time>
      </trkpt>
      <trkpt lat="41.4398840" lon="2.1000700">
        <ele>339.2</ele>
        <time>2018-04-10T10:23:38Z</time>
      </trkpt>
      <trkpt lat="41.4398510" lon="2.1001020">
        <ele>339.4</ele>
        <time>2018-04-10T10:23:39Z</time>
      </trkpt>
      <trkpt lat="41.4397800" lon="2.1001720">
        <ele>339.8</ele>
        <time>2018-04-10T10:23:41Z</time>
      </trkpt>
      <trkpt lat="41.4397140" lon="2.1002460">
        <ele>340.0</ele>
        <time>2018-04-10T10:23:43Z</time>
      </trkpt>
      <trkpt lat="41.4396550" lon="2.1003480">
        <ele>340.4</ele>
        <time>2018-04-10T10:23:45Z</time>
      </trkpt>
      <trkpt lat="41.4395990" lon="2.1004450">
        <ele>340.6</ele>
        <time>2018-04-10T10:23:47Z</time>
      </trkpt>
      <trkpt lat="41.4395430" lon="2.1005410">
        <ele>340.8</ele>
        <time>2018-04-10T10:23:49Z</time>
      </trkpt>
      <trkpt lat="41.4395160" lon="2.1005950">
        <ele>341.2</ele>
        <time>2018-04-10T10:23:50Z</time>
      </trkpt>
      <trkpt lat="41.4394920" lon="2.1006460">
        <ele>341.4</ele>
        <time>2018-04-10T10:23:51Z</time>
      </trkpt>
      <trkpt lat="41.4394640" lon="2.1007030">
        <ele>341.6</ele>
        <time>2018-04-10T10:23:52Z</time>
      </trkpt>
      <trkpt lat="41.4394390" lon="2.1007540">
        <ele>341.6</ele>
        <time>2018-04-10T10:23:53Z</time>
      </trkpt>
      <trkpt lat="41.4393960" lon="2.1008610">
        <ele>342.2</ele>
        <time>2018-04-10T10:23:55Z</time>
      </trkpt>
      <trkpt lat="41.4393540" lon="2.1009670">
        <ele>342.6</ele>
        <time>2018-04-10T10:23:57Z</time>
      </trkpt>
      <trkpt lat="41.4393160" lon="2.1010710">
        <ele>343.4</ele>
        <time>2018-04-10T10:23:59Z</time>
      </trkpt>
      <trkpt lat="41.4392800" lon="2.1011690">
        <ele>343.8</ele>
        <time>2018-04-10T10:24:01Z</time>
      </trkpt>
      <trkpt lat="41.4392480" lon="2.1012640">
        <ele>344.2</ele>
        <time>2018-04-10T10:24:03Z</time>
      </trkpt>
      <trkpt lat="41.4392140" lon="2.1013640">
        <ele>344.8</ele>
        <time>2018-04-10T10:24:05Z</time>
      </trkpt>
      <trkpt lat="41.4391980" lon="2.1014150">
        <ele>345.4</ele>
        <time>2018-04-10T10:24:06Z</time>
      </trkpt>
      <trkpt lat="41.4391830" lon="2.1014700">
        <ele>345.6</ele>
        <time>2018-04-10T10:24:07Z</time>
      </trkpt>
      <trkpt lat="41.4391560" lon="2.1015730">
        <ele>346.0</ele>
        <time>2018-04-10T10:24:09Z</time>
      </trkpt>
      <trkpt lat="41.4391330" lon="2.1016790">
        <ele>346.4</ele>
        <time>2018-04-10T10:24:11Z</time>
      </trkpt>
      <trkpt lat="41.4391160" lon="2.1017880">
        <ele>347.0</ele>
        <time>2018-04-10T10:24:13Z</time>
      </trkpt>
      <trkpt lat="41.4391030" lon="2.1018940">
        <ele>347.4</ele>
        <time>2018-04-10T10:24:15Z</time>
      </trkpt>
      <trkpt lat="41.4390970" lon="2.1019490">
        <ele>347.6</ele>
        <time>2018-04-10T10:24:16Z</time>
      </trkpt>
      <trkpt lat="41.4390930" lon="2.1020060">
        <ele>347.8</ele>
        <time>2018-04-10T10:24:17Z</time>
      </trkpt>
      <trkpt lat="41.4390850" lon="2.1021190">
        <ele>348.2</ele>
        <time>2018-04-10T10:24:19Z</time>
      </trkpt>
      <trkpt lat="41.4390800" lon="2.1022320">
        <ele>348.6</ele>
        <time>2018-04-10T10:24:21Z</time>
      </trkpt>
      <trkpt lat="41.4390780" lon="2.1022900">
        <ele>348.8</ele>
        <time>2018-04-10T10:24:22Z</time>
      </trkpt>
      <trkpt lat="41.4390770" lon="2.1023520">
        <ele>348.8</ele>
        <time>2018-04-10T10:24:23Z</time>
      </trkpt>
      <trkpt lat="41.4390760" lon="2.1024630">
        <ele>349.4</ele>
        <time>2018-04-10T10:24:25Z</time>
      </trkpt>
      <trkpt lat="41.4390720" lon="2.1025720">
        <ele>349.8</ele>
        <time>2018-04-10T10:24:27Z</time>
      </trkpt>
      <trkpt lat="41.4390700" lon="2.1026300">
        <ele>350.0</ele>
        <time>2018-04-10T10:24:28Z</time>
      </trkpt>
      <trkpt lat="41.4390650" lon="2.1026900">
        <ele>350.2</ele>
        <time>2018-04-10T10:24:29Z</time>
      </trkpt>
      <trkpt lat="41.4390600" lon="2.1028090">
        <ele>350.4</ele>
        <time>2018-04-10T10:24:31Z</time>
      </trkpt>
      <trkpt lat="41.4390580" lon="2.1029300">
        <ele>350.6</ele>
        <time>2018-04-10T10:24:33Z</time>
      </trkpt>
      <trkpt lat="41.4390560" lon="2.1030440">
        <ele>350.8</ele>
        <time>2018-04-10T10:24:35Z</time>
      </trkpt>
      <trkpt lat="41.4390520" lon="2.1031610">
        <ele>351.0</ele>
        <time>2018-04-10T10:24:37Z</time>
      </trkpt>
      <trkpt lat="41.4390520" lon="2.1032190">
        <ele>351.2</ele>
        <time>2018-04-10T10:24:38Z</time>
      </trkpt>
      <trkpt lat="41.4390480" lon="2.1032820">
        <ele>351.4</ele>
        <time>2018-04-10T10:24:39Z</time>
      </trkpt>
      <trkpt lat="41.4390340" lon="2.1034090">
        <ele>351.6</ele>
        <time>2018-04-10T10:24:41Z</time>
      </trkpt>
      <trkpt lat="41.4390060" lon="2.1035350">
        <ele>352.0</ele>
        <time>2018-04-10T10:24:43Z</time>
      </trkpt>
      <trkpt lat="41.4389520" lon="2.1036520">
        <ele>352.2</ele>
        <time>2018-04-10T10:24:45Z</time>
      </trkpt>
      <trkpt lat="41.4388810" lon="2.1037440">
        <ele>352.6</ele>
        <time>2018-04-10T10:24:47Z</time>
      </trkpt>
      <trkpt lat="41.4387970" lon="2.1038120">
        <ele>352.8</ele>
        <time>2018-04-10T10:24:49Z</time>
      </trkpt>
      <trkpt lat="41.4387140" lon="2.1038750">
        <ele>353.2</ele>
        <time>2018-04-10T10:24:51Z</time>
      </trkpt>
      <trkpt lat="41.4386730" lon="2.1039050">
        <ele>353.4</ele>
        <time>2018-04-10T10:24:52Z</time>
      </trkpt>
      <trkpt lat="41.4386310" lon="2.1039400">
        <ele>353.6</ele>
        <time>2018-04-10T10:24:53Z</time>
      </trkpt>
      <trkpt lat="41.4385510" lon="2.1040130">
        <ele>354.0</ele>
        <time>2018-04-10T10:24:55Z</time>
      </trkpt>
      <trkpt lat="41.4384780" lon="2.1040960">
        <ele>354.4</ele>
        <time>2018-04-10T10:24:57Z</time>
      </trkpt>
      <trkpt lat="41.4384180" lon="2.1041880">
        <ele>355.2</ele>
        <time>2018-04-10T10:24:59Z</time>
      </trkpt>
      <trkpt lat="41.4383930" lon="2.1042330">
        <ele>355.6</ele>
        <time>2018-04-10T10:25:00Z</time>
      </trkpt>
      <trkpt lat="41.4383720" lon="2.1042840">
        <ele>356.0</ele>
        <time>2018-04-10T10:25:01Z</time>
      </trkpt>
      <trkpt lat="41.4383520" lon="2.1043370">
        <ele>356.6</ele>
        <time>2018-04-10T10:25:02Z</time>
      </trkpt>
      <trkpt lat="41.4383290" lon="2.1043930">
        <ele>357.0</ele>
        <time>2018-04-10T10:25:03Z</time>
      </trkpt>
      <trkpt lat="41.4382800" lon="2.1045030">
        <ele>357.8</ele>
        <time>2018-04-10T10:25:05Z</time>
      </trkpt>
      <trkpt lat="41.4382290" lon="2.1046080">
        <ele>358.2</ele>
        <time>2018-04-10T10:25:07Z</time>
      </trkpt>
      <trkpt lat="41.4381800" lon="2.1047180">
        <ele>358.8</ele>
        <time>2018-04-10T10:25:09Z</time>
      </trkpt>
      <trkpt lat="41.4381310" lon="2.1048320">
        <ele>359.6</ele>
        <time>2018-04-10T10:25:11Z</time>
      </trkpt>
      <trkpt lat="41.4381020" lon="2.1048850">
        <ele>359.8</ele>
        <time>2018-04-10T10:25:12Z</time>
      </trkpt>
      <trkpt lat="41.4380730" lon="2.1049340">
        <ele>360.0</ele>
        <time>2018-04-10T10:25:13Z</time>
      </trkpt>
      <trkpt lat="41.4380110" lon="2.1050280">
        <ele>360.4</ele>
        <time>2018-04-10T10:25:15Z</time>
      </trkpt>
      <trkpt lat="41.4379310" lon="2.1051280">
        <ele>360.6</ele>
        <time>2018-04-10T10:25:17Z</time>
      </trkpt>
      <trkpt lat="41.4378510" lon="2.1052130">
        <ele>361.0</ele>
        <time>2018-04-10T10:25:19Z</time>
      </trkpt>
      <trkpt lat="41.4378070" lon="2.1052540">
        <ele>361.0</ele>
        <time>2018-04-10T10:25:20Z</time>
      </trkpt>
      <trkpt lat="41.4377570" lon="2.1052880">
        <ele>361.2</ele>
        <time>2018-04-10T10:25:21Z</time>
      </trkpt>
      <trkpt lat="41.4376520" lon="2.1053360">
        <ele>362.0</ele>
        <time>2018-04-10T10:25:23Z</time>
      </trkpt>
      <trkpt lat="41.4375970" lon="2.1053500">
        <ele>362.2</ele>
        <time>2018-04-10T10:25:24Z</time>
      </trkpt>
      <trkpt lat="41.4375400" lon="2.1053580">
        <ele>362.2</ele>
        <time>2018-04-10T10:25:25Z</time>
      </trkpt>
      <trkpt lat="41.4374810" lon="2.1053610">
        <ele>362.4</ele>
        <time>2018-04-10T10:25:26Z</time>
      </trkpt>
      <trkpt lat="41.4374240" lon="2.1053560">
        <ele>362.4</ele>
        <time>2018-04-10T10:25:27Z</time>
      </trkpt>
      <trkpt lat="41.4373100" lon="2.1053380">
        <ele>362.4</ele>
        <time>2018-04-10T10:25:29Z</time>
      </trkpt>
      <trkpt lat="41.4371950" lon="2.1053100">
        <ele>362.4</ele>
        <time>2018-04-10T10:25:31Z</time>
      </trkpt>
      <trkpt lat="41.4370780" lon="2.1052860">
        <ele>362.4</ele>
        <time>2018-04-10T10:25:33Z</time>
      </trkpt>
      <trkpt lat="41.4369580" lon="2.1052710">
        <ele>362.4</ele>
        <time>2018-04-10T10:25:35Z</time>
      </trkpt>
      <trkpt lat="41.4368360" lon="2.1052700">
        <ele>362.6</ele>
        <time>2018-04-10T10:25:37Z</time>
      </trkpt>
      <trkpt lat="41.4367760" lon="2.1052800">
        <ele>362.6</ele>
        <time>2018-04-10T10:25:38Z</time>
      </trkpt>
      <trkpt lat="41.4367170" lon="2.1052980">
        <ele>362.6</ele>
        <time>2018-04-10T10:25:39Z</time>
      </trkpt>
      <trkpt lat="41.4366010" lon="2.1053630">
        <ele>362.6</ele>
        <time>2018-04-10T10:25:41Z</time>
      </trkpt>
      <trkpt lat="41.4365010" lon="2.1054560">
        <ele>362.6</ele>
        <time>2018-04-10T10:25:43Z</time>
      </trkpt>
      <trkpt lat="41.4364540" lon="2.1055100">
        <ele>362.6</ele>
        <time>2018-04-10T10:25:44Z</time>
      </trkpt>
      <trkpt lat="41.4364040" lon="2.1055610">
        <ele>362.6</ele>
        <time>2018-04-10T10:25:45Z</time>
      </trkpt>
      <trkpt lat="41.4363010" lon="2.1056530">
        <ele>362.8</ele>
        <time>2018-04-10T10:25:47Z</time>
      </trkpt>
      <trkpt lat="41.4361950" lon="2.1057450">
        <ele>362.8</ele>
        <time>2018-04-10T10:25:49Z</time>
      </trkpt>
      <trkpt lat="41.4360900" lon="2.1058410">
        <ele>363.0</ele>
        <time>2018-04-10T10:25:51Z</time>
      </trkpt>
      <trkpt lat="41.4359850" lon="2.1059360">
        <ele>363.0</ele>
        <time>2018-04-10T10:25:53Z</time>
      </trkpt>
      <trkpt lat="41.4358800" lon="2.1060290">
        <ele>363.0</ele>
        <time>2018-04-10T10:25:55Z</time>
      </trkpt>
      <trkpt lat="41.4357810" lon="2.1061160">
        <ele>363.2</ele>
        <time>2018-04-10T10:25:57Z</time>
      </trkpt>
      <trkpt lat="41.4356940" lon="2.1062050">
        <ele>363.2</ele>
        <time>2018-04-10T10:25:59Z</time>
      </trkpt>
      <trkpt lat="41.4356050" lon="2.1062980">
        <ele>363.2</ele>
        <time>2018-04-10T10:26:01Z</time>
      </trkpt>
      <trkpt lat="41.4355620" lon="2.1063410">
        <ele>363.2</ele>
        <time>2018-04-10T10:26:02Z</time>
      </trkpt>
      <trkpt lat="41.4355190" lon="2.1063870">
        <ele>363.4</ele>
        <time>2018-04-10T10:26:03Z</time>
      </trkpt>
      <trkpt lat="41.4354450" lon="2.1064770">
        <ele>363.6</ele>
        <time>2018-04-10T10:26:05Z</time>
      </trkpt>
      <trkpt lat="41.4353810" lon="2.1065590">
        <ele>364.2</ele>
        <time>2018-04-10T10:26:07Z</time>
      </trkpt>
      <trkpt lat="41.4353510" lon="2.1066000">
        <ele>364.8</ele>
        <time>2018-04-10T10:26:08Z</time>
      </trkpt>
      <trkpt lat="41.4353230" lon="2.1066450">
        <ele>365.4</ele>
        <time>2018-04-10T10:26:09Z</time>
      </trkpt>
      <trkpt lat="41.4352950" lon="2.1066920">
        <ele>366.0</ele>
        <time>2018-04-10T10:26:10Z</time>
      </trkpt>
      <trkpt lat="41.4352680" lon="2.1067420">
        <ele>366.6</ele>
        <time>2018-04-10T10:26:11Z</time>
      </trkpt>
      <trkpt lat="41.4352430" lon="2.1067900">
        <ele>367.0</ele>
        <time>2018-04-10T10:26:12Z</time>
      </trkpt>
      <trkpt lat="41.4352180" lon="2.1068400">
        <ele>367.2</ele>
        <time>2018-04-10T10:26:13Z</time>
      </trkpt>
      <trkpt lat="41.4351660" lon="2.1069380">
        <ele>367.8</ele>
        <time>2018-04-10T10:26:15Z</time>
      </trkpt>
      <trkpt lat="41.4351400" lon="2.1069890">
        <ele>368.0</ele>
        <time>2018-04-10T10:26:16Z</time>
      </trkpt>
      <trkpt lat="41.4351140" lon="2.1070410">
        <ele>368.2</ele>
        <time>2018-04-10T10:26:17Z</time>
      </trkpt>
      <trkpt lat="41.4350680" lon="2.1071360">
        <ele>368.8</ele>
        <time>2018-04-10T10:26:19Z</time>
      </trkpt>
      <trkpt lat="41.4350420" lon="2.1071840">
        <ele>369.2</ele>
        <time>2018-04-10T10:26:20Z</time>
      </trkpt>
      <trkpt lat="41.4350160" lon="2.1072320">
        <ele>369.6</ele>
        <time>2018-04-10T10:26:21Z</time>
      </trkpt>
      <trkpt lat="41.4349630" lon="2.1073290">
        <ele>369.8</ele>
        <time>2018-04-10T10:26:23Z</time>
      </trkpt>
      <trkpt lat="41.4349150" lon="2.1074260">
        <ele>370.0</ele>
        <time>2018-04-10T10:26:25Z</time>
      </trkpt>
      <trkpt lat="41.4348900" lon="2.1074720">
        <ele>370.4</ele>
        <time>2018-04-10T10:26:26Z</time>
      </trkpt>
      <trkpt lat="41.4348630" lon="2.1075130">
        <ele>370.8</ele>
        <time>2018-04-10T10:26:27Z</time>
      </trkpt>
      <trkpt lat="41.4348110" lon="2.1075940">
        <ele>371.2</ele>
        <time>2018-04-10T10:26:29Z</time>
      </trkpt>
      <trkpt lat="41.4347850" lon="2.1076290">
        <ele>371.4</ele>
        <time>2018-04-10T10:26:30Z</time>
      </trkpt>
      <trkpt lat="41.4347570" lon="2.1076600">
        <ele>371.6</ele>
        <time>2018-04-10T10:26:31Z</time>
      </trkpt>
      <trkpt lat="41.4346910" lon="2.1077070">
        <ele>372.2</ele>
        <time>2018-04-10T10:26:33Z</time>
      </trkpt>
      <trkpt lat="41.4346250" lon="2.1077450">
        <ele>372.4</ele>
        <time>2018-04-10T10:26:35Z</time>
      </trkpt>
      <trkpt lat="41.4345950" lon="2.1077610">
        <ele>372.6</ele>
        <time>2018-04-10T10:26:36Z</time>
      </trkpt>
      <trkpt lat="41.4345610" lon="2.1077720">
        <ele>372.6</ele>
        <time>2018-04-10T10:26:37Z</time>
      </trkpt>
      <trkpt lat="41.4344870" lon="2.1077840">
        <ele>373.0</ele>
        <time>2018-04-10T10:26:39Z</time>
      </trkpt>
      <trkpt lat="41.4344080" lon="2.1077930">
        <ele>373.6</ele>
        <time>2018-04-10T10:26:41Z</time>
      </trkpt>
      <trkpt lat="41.4343660" lon="2.1077970">
        <ele>373.8</ele>
        <time>2018-04-10T10:26:42Z</time>
      </trkpt>
      <trkpt lat="41.4343240" lon="2.1078010">
        <ele>374.0</ele>
        <time>2018-04-10T10:26:43Z</time>
      </trkpt>
      <trkpt lat="41.4342420" lon="2.1078050">
        <ele>374.4</ele>
        <time>2018-04-10T10:26:45Z</time>
      </trkpt>
      <trkpt lat="41.4342070" lon="2.1078090">
        <ele>374.8</ele>
        <time>2018-04-10T10:26:46Z</time>
      </trkpt>
      <trkpt lat="41.4341720" lon="2.1078160">
        <ele>375.4</ele>
        <time>2018-04-10T10:26:47Z</time>
      </trkpt>
      <trkpt lat="41.4341040" lon="2.1078250">
        <ele>376.4</ele>
        <time>2018-04-10T10:26:49Z</time>
      </trkpt>
      <trkpt lat="41.4340390" lon="2.1078320">
        <ele>377.2</ele>
        <time>2018-04-10T10:26:51Z</time>
      </trkpt>
      <trkpt lat="41.4340090" lon="2.1078350">
        <ele>377.6</ele>
        <time>2018-04-10T10:26:52Z</time>
      </trkpt>
      <trkpt lat="41.4339780" lon="2.1078390">
        <ele>378.0</ele>
        <time>2018-04-10T10:26:53Z</time>
      </trkpt>
      <trkpt lat="41.4339140" lon="2.1078430">
        <ele>378.6</ele>
        <time>2018-04-10T10:26:55Z</time>
      </trkpt>
      <trkpt lat="41.4338820" lon="2.1078520">
        <ele>378.8</ele>
        <time>2018-04-10T10:26:56Z</time>
      </trkpt>
      <trkpt lat="41.4338490" lon="2.1078530">
        <ele>379.0</ele>
        <time>2018-04-10T10:26:57Z</time>
      </trkpt>
      <trkpt lat="41.4337840" lon="2.1078520">
        <ele>379.4</ele>
        <time>2018-04-10T10:26:59Z</time>
      </trkpt>
      <trkpt lat="41.4337230" lon="2.1078520">
        <ele>380.0</ele>
        <time>2018-04-10T10:27:01Z</time>
      </trkpt>
      <trkpt lat="41.4336650" lon="2.1078530">
        <ele>380.6</ele>
        <time>2018-04-10T10:27:03Z</time>
      </trkpt>
      <trkpt lat="41.4336350" lon="2.1078560">
        <ele>381.2</ele>
        <time>2018-04-10T10:27:04Z</time>
      </trkpt>
      <trkpt lat="41.4336060" lon="2.1078600">
        <ele>381.8</ele>
        <time>2018-04-10T10:27:05Z</time>
      </trkpt>
      <trkpt lat="41.4335770" lon="2.1078670">
        <ele>382.6</ele>
        <time>2018-04-10T10:27:06Z</time>
      </trkpt>
      <trkpt lat="41.4335470" lon="2.1078790">
        <ele>382.8</ele>
        <time>2018-04-10T10:27:07Z</time>
      </trkpt>
      <trkpt lat="41.4334920" lon="2.1079070">
        <ele>383.4</ele>
        <time>2018-04-10T10:27:09Z</time>
      </trkpt>
      <trkpt lat="41.4334250" lon="2.1079370">
        <ele>383.6</ele>
        <time>2018-04-10T10:27:11Z</time>
      </trkpt>
      <trkpt lat="41.4333570" lon="2.1079760">
        <ele>384.0</ele>
        <time>2018-04-10T10:27:13Z</time>
      </trkpt>
      <trkpt lat="41.4332880" lon="2.1080280">
        <ele>384.4</ele>
        <time>2018-04-10T10:27:15Z</time>
      </trkpt>
      <trkpt lat="41.4332160" lon="2.1080790">
        <ele>384.8</ele>
        <time>2018-04-10T10:27:17Z</time>
      </trkpt>
      <trkpt lat="41.4331450" lon="2.1081340">
        <ele>385.4</ele>
        <time>2018-04-10T10:27:19Z</time>
      </trkpt>
      <trkpt lat="41.4330780" lon="2.1082010">
        <ele>385.8</ele>
        <time>2018-04-10T10:27:21Z</time>
      </trkpt>
      <trkpt lat="41.4330110" lon="2.1082520">
        <ele>386.0</ele>
        <time>2018-04-10T10:27:23Z</time>
      </trkpt>
      <trkpt lat="41.4329430" lon="2.1082990">
        <ele>386.4</ele>
        <time>2018-04-10T10:27:25Z</time>
      </trkpt>
      <trkpt lat="41.4328780" lon="2.1083460">
        <ele>386.8</ele>
        <time>2018-04-10T10:27:27Z</time>
      </trkpt>
      <trkpt lat="41.4328150" lon="2.1083970">
        <ele>387.4</ele>
        <time>2018-04-10T10:27:29Z</time>
      </trkpt>
      <trkpt lat="41.4327860" lon="2.1084260">
        <ele>388.0</ele>
        <time>2018-04-10T10:27:30Z</time>
      </trkpt>
      <trkpt lat="41.4327550" lon="2.1084490">
        <ele>388.4</ele>
        <time>2018-04-10T10:27:31Z</time>
      </trkpt>
      <trkpt lat="41.4326930" lon="2.1084920">
        <ele>389.0</ele>
        <time>2018-04-10T10:27:33Z</time>
      </trkpt>
      <trkpt lat="41.4326610" lon="2.1085150">
        <ele>389.2</ele>
        <time>2018-04-10T10:27:34Z</time>
      </trkpt>
      <trkpt lat="41.4326290" lon="2.1085370">
        <ele>389.2</ele>
        <time>2018-04-10T10:27:35Z</time>
      </trkpt>
      <trkpt lat="41.4325710" lon="2.1085890">
        <ele>389.6</ele>
        <time>2018-04-10T10:27:37Z</time>
      </trkpt>
      <trkpt lat="41.4325150" lon="2.1086320">
        <ele>390.6</ele>
        <time>2018-04-10T10:27:39Z</time>
      </trkpt>
      <trkpt lat="41.4324560" lon="2.1086740">
        <ele>391.4</ele>
        <time>2018-04-10T10:27:41Z</time>
      </trkpt>
      <trkpt lat="41.4324250" lon="2.1086910">
        <ele>391.8</ele>
        <time>2018-04-10T10:27:42Z</time>
      </trkpt>
      <trkpt lat="41.4323960" lon="2.1087090">
        <ele>392.2</ele>
        <time>2018-04-10T10:27:43Z</time>
      </trkpt>
      <trkpt lat="41.4323390" lon="2.1087560">
        <ele>392.6</ele>
        <time>2018-04-10T10:27:45Z</time>
      </trkpt>
      <trkpt lat="41.4323120" lon="2.1087840">
        <ele>392.8</ele>
        <time>2018-04-10T10:27:46Z</time>
      </trkpt>
      <trkpt lat="41.4322850" lon="2.1088130">
        <ele>393.2</ele>
        <time>2018-04-10T10:27:47Z</time>
      </trkpt>
      <trkpt lat="41.4322330" lon="2.1088760">
        <ele>393.4</ele>
        <time>2018-04-10T10:27:49Z</time>
      </trkpt>
      <trkpt lat="41.4321780" lon="2.1089420">
        <ele>394.0</ele>
        <time>2018-04-10T10:27:51Z</time>
      </trkpt>
      <trkpt lat="41.4321230" lon="2.1089900">
        <ele>394.0</ele>
        <time>2018-04-10T10:27:53Z</time>
      </trkpt>
      <trkpt lat="41.4320710" lon="2.1090280">
        <ele>394.6</ele>
        <time>2018-04-10T10:27:55Z</time>
      </trkpt>
      <trkpt lat="41.4320120" lon="2.1090700">
        <ele>395.2</ele>
        <time>2018-04-10T10:27:57Z</time>
      </trkpt>
      <trkpt lat="41.4319540" lon="2.1091000">
        <ele>395.8</ele>
        <time>2018-04-10T10:27:59Z</time>
      </trkpt>
      <trkpt lat="41.4319240" lon="2.1091140">
        <ele>396.4</ele>
        <time>2018-04-10T10:28:00Z</time>
      </trkpt>
      <trkpt lat="41.4318920" lon="2.1091230">
        <ele>396.6</ele>
        <time>2018-04-10T10:28:01Z</time>
      </trkpt>
      <trkpt lat="41.4318320" lon="2.1091540">
        <ele>397.2</ele>
        <time>2018-04-10T10:28:03Z</time>
      </trkpt>
      <trkpt lat="41.4318050" lon="2.1091700">
        <ele>397.4</ele>
        <time>2018-04-10T10:28:04Z</time>
      </trkpt>
      <trkpt lat="41.4317740" lon="2.1091850">
        <ele>397.8</ele>
        <time>2018-04-10T10:28:05Z</time>
      </trkpt>
      <trkpt lat="41.4317040" lon="2.1092230">
        <ele>398.2</ele>
        <time>2018-04-10T10:28:07Z</time>
      </trkpt>
      <trkpt lat="41.4316690" lon="2.1092430">
        <ele>398.6</ele>
        <time>2018-04-10T10:28:08Z</time>
      </trkpt>
      <trkpt lat="41.4316360" lon="2.1092690">
        <ele>398.8</ele>
        <time>2018-04-10T10:28:09Z</time>
      </trkpt>
      <trkpt lat="41.4315720" lon="2.1093180">
        <ele>399.2</ele>
        <time>2018-04-10T10:28:11Z</time>
      </trkpt>
      <trkpt lat="41.4315070" lon="2.1093660">
        <ele>399.8</ele>
        <time>2018-04-10T10:28:13Z</time>
      </trkpt>
      <trkpt lat="41.4314420" lon="2.1094030">
        <ele>400.4</ele>
        <time>2018-04-10T10:28:15Z</time>
      </trkpt>
      <trkpt lat="41.4313740" lon="2.1094370">
        <ele>401.0</ele>
        <time>2018-04-10T10:28:17Z</time>
      </trkpt>
      <trkpt lat="41.4313070" lon="2.1094840">
        <ele>401.8</ele>
        <time>2018-04-10T10:28:19Z</time>
      </trkpt>
      <trkpt lat="41.4312770" lon="2.1095110">
        <ele>402.4</ele>
        <time>2018-04-10T10:28:20Z</time>
      </trkpt>
      <trkpt lat="41.4312450" lon="2.1095330">
        <ele>402.8</ele>
        <time>2018-04-10T10:28:21Z</time>
      </trkpt>
      <trkpt lat="41.4311830" lon="2.1095850">
        <ele>403.6</ele>
        <time>2018-04-10T10:28:23Z</time>
      </trkpt>
      <trkpt lat="41.4311210" lon="2.1096420">
        <ele>404.0</ele>
        <time>2018-04-10T10:28:25Z</time>
      </trkpt>
      <trkpt lat="41.4310560" lon="2.1097020">
        <ele>404.6</ele>
        <time>2018-04-10T10:28:27Z</time>
      </trkpt>
      <trkpt lat="41.4309920" lon="2.1097680">
        <ele>405.4</ele>
        <time>2018-04-10T10:28:29Z</time>
      </trkpt>
      <trkpt lat="41.4309600" lon="2.1097970">
        <ele>405.8</ele>
        <time>2018-04-10T10:28:30Z</time>
      </trkpt>
      <trkpt lat="41.4309290" lon="2.1098260">
        <ele>406.0</ele>
        <time>2018-04-10T10:28:31Z</time>
      </trkpt>
      <trkpt lat="41.4308670" lon="2.1098830">
        <ele>406.4</ele>
        <time>2018-04-10T10:28:33Z</time>
      </trkpt>
      <trkpt lat="41.4308040" lon="2.1099400">
        <ele>406.8</ele>
        <time>2018-04-10T10:28:35Z</time>
      </trkpt>
      <trkpt lat="41.4307440" lon="2.1099880">
        <ele>407.0</ele>
        <time>2018-04-10T10:28:37Z</time>
      </trkpt>
      <trkpt lat="41.4306820" lon="2.1100320">
        <ele>407.4</ele>
        <time>2018-04-10T10:28:39Z</time>
      </trkpt>
      <trkpt lat="41.4306160" lon="2.1100850">
        <ele>407.8</ele>
        <time>2018-04-10T10:28:41Z</time>
      </trkpt>
      <trkpt lat="41.4305500" lon="2.1101370">
        <ele>408.2</ele>
        <time>2018-04-10T10:28:43Z</time>
      </trkpt>
      <trkpt lat="41.4304850" lon="2.1101900">
        <ele>408.6</ele>
        <time>2018-04-10T10:28:45Z</time>
      </trkpt>
      <trkpt lat="41.4304540" lon="2.1102180">
        <ele>408.8</ele>
        <time>2018-04-10T10:28:46Z</time>
      </trkpt>
      <trkpt lat="41.4304230" lon="2.1102460">
        <ele>409.0</ele>
        <time>2018-04-10T10:28:47Z</time>
      </trkpt>
      <trkpt lat="41.4303640" lon="2.1102960">
        <ele>409.6</ele>
        <time>2018-04-10T10:28:49Z</time>
      </trkpt>
      <trkpt lat="41.4303320" lon="2.1103180">
        <ele>409.8</ele>
        <time>2018-04-10T10:28:50Z</time>
      </trkpt>
      <trkpt lat="41.4303000" lon="2.1103410">
        <ele>410.2</ele>
        <time>2018-04-10T10:28:51Z</time>
      </trkpt>
      <trkpt lat="41.4302410" lon="2.1104030">
        <ele>410.6</ele>
        <time>2018-04-10T10:28:53Z</time>
      </trkpt>
      <trkpt lat="41.4302120" lon="2.1104320">
        <ele>411.0</ele>
        <time>2018-04-10T10:28:54Z</time>
      </trkpt>
      <trkpt lat="41.4301840" lon="2.1104640">
        <ele>411.2</ele>
        <time>2018-04-10T10:28:55Z</time>
      </trkpt>
      <trkpt lat="41.4301360" lon="2.1105380">
        <ele>411.8</ele>
        <time>2018-04-10T10:28:57Z</time>
      </trkpt>
      <trkpt lat="41.4301160" lon="2.1105850">
        <ele>412.0</ele>
        <time>2018-04-10T10:28:58Z</time>
      </trkpt>
      <trkpt lat="41.4300950" lon="2.1106410">
        <ele>412.6</ele>
        <time>2018-04-10T10:28:59Z</time>
      </trkpt>
      <trkpt lat="41.4300580" lon="2.1107410">
        <ele>413.0</ele>
        <time>2018-04-10T10:29:01Z</time>
      </trkpt>
      <trkpt lat="41.4300440" lon="2.1107930">
        <ele>413.2</ele>
        <time>2018-04-10T10:29:02Z</time>
      </trkpt>
      <trkpt lat="41.4300310" lon="2.1108430">
        <ele>413.6</ele>
        <time>2018-04-10T10:29:03Z</time>
      </trkpt>
      <trkpt lat="41.4300090" lon="2.1109400">
        <ele>414.2</ele>
        <time>2018-04-10T10:29:05Z</time>
      </trkpt>
      <trkpt lat="41.4299990" lon="2.1109910">
        <ele>414.2</ele>
        <time>2018-04-10T10:29:06Z</time>
      </trkpt>
      <trkpt lat="41.4299960" lon="2.1110450">
        <ele>414.4</ele>
        <time>2018-04-10T10:29:07Z</time>
      </trkpt>
      <trkpt lat="41.4299950" lon="2.1111500">
        <ele>414.6</ele>
        <time>2018-04-10T10:29:09Z</time>
      </trkpt>
      <trkpt lat="41.4299960" lon="2.1112550">
        <ele>415.2</ele>
        <time>2018-04-10T10:29:11Z</time>
      </trkpt>
      <trkpt lat="41.4299980" lon="2.1113070">
        <ele>415.4</ele>
        <time>2018-04-10T10:29:12Z</time>
      </trkpt>
      <trkpt lat="41.4299990" lon="2.1113600">
        <ele>415.4</ele>
        <time>2018-04-10T10:29:13Z</time>
      </trkpt>
      <trkpt lat="41.4300030" lon="2.1114660">
        <ele>415.8</ele>
        <time>2018-04-10T10:29:15Z</time>
      </trkpt>
      <trkpt lat="41.4300090" lon="2.1115730">
        <ele>416.4</ele>
        <time>2018-04-10T10:29:17Z</time>
      </trkpt>
      <trkpt lat="41.4300120" lon="2.1116270">
        <ele>416.6</ele>
        <time>2018-04-10T10:29:18Z</time>
      </trkpt>
      <trkpt lat="41.4300130" lon="2.1116810">
        <ele>416.8</ele>
        <time>2018-04-10T10:29:19Z</time>
      </trkpt>
      <trkpt lat="41.4300170" lon="2.1117880">
        <ele>417.6</ele>
        <time>2018-04-10T10:29:21Z</time>
      </trkpt>
      <trkpt lat="41.4300210" lon="2.1118980">
        <ele>418.2</ele>
        <time>2018-04-10T10:29:23Z</time>
      </trkpt>
      <trkpt lat="41.4300230" lon="2.1120100">
        <ele>418.6</ele>
        <time>2018-04-10T10:29:25Z</time>
      </trkpt>
      <trkpt lat="41.4300310" lon="2.1121260">
        <ele>419.0</ele>
        <time>2018-04-10T10:29:27Z</time>
      </trkpt>
      <trkpt lat="41.4300450" lon="2.1122400">
        <ele>419.4</ele>
        <time>2018-04-10T10:29:29Z</time>
      </trkpt>
      <trkpt lat="41.4300680" lon="2.1123520">
        <ele>419.8</ele>
        <time>2018-04-10T10:29:31Z</time>
      </trkpt>
      <trkpt lat="41.4300840" lon="2.1124050">
        <ele>420.0</ele>
        <time>2018-04-10T10:29:32Z</time>
      </trkpt>
      <trkpt lat="41.4301020" lon="2.1124570">
        <ele>420.2</ele>
        <time>2018-04-10T10:29:33Z</time>
      </trkpt>
      <trkpt lat="41.4301390" lon="2.1125590">
        <ele>420.6</ele>
        <time>2018-04-10T10:29:35Z</time>
      </trkpt>
      <trkpt lat="41.4301590" lon="2.1126080">
        <ele>421.0</ele>
        <time>2018-04-10T10:29:36Z</time>
      </trkpt>
      <trkpt lat="41.4301790" lon="2.1126560">
        <ele>421.0</ele>
        <time>2018-04-10T10:29:37Z</time>
      </trkpt>
      <trkpt lat="41.4302240" lon="2.1127520">
        <ele>421.4</ele>
        <time>2018-04-10T10:29:39Z</time>
      </trkpt>
      <trkpt lat="41.4302630" lon="2.1128470">
        <ele>421.8</ele>
        <time>2018-04-10T10:29:41Z</time>
      </trkpt>
      <trkpt lat="41.4302840" lon="2.1128950">
        <ele>422.0</ele>
        <time>2018-04-10T10:29:42Z</time>
      </trkpt>
      <trkpt lat="41.4303050" lon="2.1129430">
        <ele>422.0</ele>
        <time>2018-04-10T10:29:43Z</time>
      </trkpt>
      <trkpt lat="41.4303480" lon="2.1130430">
        <ele>422.4</ele>
        <time>2018-04-10T10:29:45Z</time>
      </trkpt>
      <trkpt lat="41.4303930" lon="2.1131380">
        <ele>422.6</ele>
        <time>2018-04-10T10:29:47Z</time>
      </trkpt>
      <trkpt lat="41.4304370" lon="2.1132340">
        <ele>422.8</ele>
        <time>2018-04-10T10:29:49Z</time>
      </trkpt>
      <trkpt lat="41.4304550" lon="2.1132820">
        <ele>423.0</ele>
        <time>2018-04-10T10:29:50Z</time>
      </trkpt>
      <trkpt lat="41.4304730" lon="2.1133270">
        <ele>423.0</ele>
        <time>2018-04-10T10:29:51Z</time>
      </trkpt>
      <trkpt lat="41.4304910" lon="2.1133740">
        <ele>423.2</ele>
        <time>2018-04-10T10:29:52Z</time>
      </trkpt>
      <trkpt lat="41.4305100" lon="2.1134230">
        <ele>423.4</ele>
        <time>2018-04-10T10:29:53Z</time>
      </trkpt>
      <trkpt lat="41.4305260" lon="2.1134760">
        <ele>423.4</ele>
        <time>2018-04-10T10:29:54Z</time>
      </trkpt>
      <trkpt lat="41.4305360" lon="2.1135310">
        <ele>423.6</ele>
        <time>2018-04-10T10:29:55Z</time>
      </trkpt>
      <trkpt lat="41.4305420" lon="2.1136460">
        <ele>424.0</ele>
        <time>2018-04-10T10:29:57Z</time>
      </trkpt>
      <trkpt lat="41.4305310" lon="2.1137700">
        <ele>424.4</ele>
        <time>2018-04-10T10:29:59Z</time>
      </trkpt>
      <trkpt lat="41.4304990" lon="2.1138900">
        <ele>424.8</ele>
        <time>2018-04-10T10:30:01Z</time>
      </trkpt>
      <trkpt lat="41.4304420" lon="2.1139960">
        <ele>425.0</ele>
        <time>2018-04-10T10:30:03Z</time>
      </trkpt>
      <trkpt lat="41.4303670" lon="2.1140840">
        <ele>425.0</ele>
        <time>2018-04-10T10:30:05Z</time>
      </trkpt>
      <trkpt lat="41.4302770" lon="2.1141430">
        <ele>425.0</ele>
        <time>2018-04-10T10:30:07Z</time>
      </trkpt>
      <trkpt lat="41.4301730" lon="2.1141690">
        <ele>425.2</ele>
        <time>2018-04-10T10:30:09Z</time>
      </trkpt>
      <trkpt lat="41.4300670" lon="2.1141770">
        <ele>425.4</ele>
        <time>2018-04-10T10:30:11Z</time>
      </trkpt>
      <trkpt lat="41.4299630" lon="2.1141850">
        <ele>425.6</ele>
        <time>2018-04-10T10:30:13Z</time>
      </trkpt>
      <trkpt lat="41.4298580" lon="2.1141940">
        <ele>426.0</ele>
        <time>2018-04-10T10:30:15Z</time>
      </trkpt>
      <trkpt lat="41.4298070" lon="2.1141990">
        <ele>426.2</ele>
        <time>2018-04-10T10:30:16Z</time>
      </trkpt>
      <trkpt lat="41.4297560" lon="2.1142100">
        <ele>426.4</ele>
        <time>2018-04-10T10:30:17Z</time>
      </trkpt>
      <trkpt lat="41.4297050" lon="2.1142250">
        <ele>426.6</ele>
        <time>2018-04-10T10:30:18Z</time>
      </trkpt>
      <trkpt lat="41.4296570" lon="2.1142480">
        <ele>426.6</ele>
        <time>2018-04-10T10:30:19Z</time>
      </trkpt>
      <trkpt lat="41.4295650" lon="2.1143120">
        <ele>426.8</ele>
        <time>2018-04-10T10:30:21Z</time>
      </trkpt>
      <trkpt lat="41.4294800" lon="2.1143910">
        <ele>427.4</ele>
        <time>2018-04-10T10:30:23Z</time>
      </trkpt>
      <trkpt lat="41.4294130" lon="2.1144910">
        <ele>427.8</ele>
        <time>2018-04-10T10:30:25Z</time>
      </trkpt>
      <trkpt lat="41.4293670" lon="2.1146080">
        <ele>428.6</ele>
        <time>2018-04-10T10:30:27Z</time>
      </trkpt>
      <trkpt lat="41.4293350" lon="2.1147450">
        <ele>429.2</ele>
        <time>2018-04-10T10:30:29Z</time>
      </trkpt>
      <trkpt lat="41.4293110" lon="2.1148870">
        <ele>429.4</ele>
        <time>2018-04-10T10:30:31Z</time>
      </trkpt>
      <trkpt lat="41.4293000" lon="2.1149560">
        <ele>429.6</ele>
        <time>2018-04-10T10:30:32Z</time>
      </trkpt>
      <trkpt lat="41.4292900" lon="2.1150250">
        <ele>429.6</ele>
        <time>2018-04-10T10:30:33Z</time>
      </trkpt>
      <trkpt lat="41.4292710" lon="2.1151630">
        <ele>429.8</ele>
        <time>2018-04-10T10:30:35Z</time>
      </trkpt>
      <trkpt lat="41.4292550" lon="2.1153040">
        <ele>429.8</ele>
        <time>2018-04-10T10:30:37Z</time>
      </trkpt>
      <trkpt lat="41.4292360" lon="2.1154470">
        <ele>430.0</ele>
        <time>2018-04-10T10:30:39Z</time>
      </trkpt>
      <trkpt lat="41.4292170" lon="2.1155860">
        <ele>430.2</ele>
        <time>2018-04-10T10:30:41Z</time>
      </trkpt>
      <trkpt lat="41.4292000" lon="2.1157260">
        <ele>430.4</ele>
        <time>2018-04-10T10:30:43Z</time>
      </trkpt>
      <trkpt lat="41.4291850" lon="2.1158680">
        <ele>430.6</ele>
        <time>2018-04-10T10:30:45Z</time>
      </trkpt>
      <trkpt lat="41.4291730" lon="2.1159380">
        <ele>430.6</ele>
        <time>2018-04-10T10:30:46Z</time>
      </trkpt>
      <trkpt lat="41.4291590" lon="2.1160050">
        <ele>430.8</ele>
        <time>2018-04-10T10:30:47Z</time>
      </trkpt>
      <trkpt lat="41.4291210" lon="2.1161410">
        <ele>431.0</ele>
        <time>2018-04-10T10:30:49Z</time>
      </trkpt>
      <trkpt lat="41.4290630" lon="2.1162650">
        <ele>431.4</ele>
        <time>2018-04-10T10:30:51Z</time>
      </trkpt>
      <trkpt lat="41.4290300" lon="2.1163220">
        <ele>431.6</ele>
        <time>2018-04-10T10:30:52Z</time>
      </trkpt>
      <trkpt lat="41.4289920" lon="2.1163770">
        <ele>432.0</ele>
        <time>2018-04-10T10:30:53Z</time>
      </trkpt>
      <trkpt lat="41.4289050" lon="2.1164700">
        <ele>432.8</ele>
        <time>2018-04-10T10:30:55Z</time>
      </trkpt>
      <trkpt lat="41.4288020" lon="2.1165380">
        <ele>432.8</ele>
        <time>2018-04-10T10:30:57Z</time>
      </trkpt>
      <trkpt lat="41.4286890" lon="2.1165860">
        <ele>433.0</ele>
        <time>2018-04-10T10:30:59Z</time>
      </trkpt>
      <trkpt lat="41.4285710" lon="2.1166300">
        <ele>433.2</ele>
        <time>2018-04-10T10:31:01Z</time>
      </trkpt>
      <trkpt lat="41.4284520" lon="2.1166780">
        <ele>433.2</ele>
        <time>2018-04-10T10:31:03Z</time>
      </trkpt>
      <trkpt lat="41.4283320" lon="2.1167160">
        <ele>433.2</ele>
        <time>2018-04-10T10:31:05Z</time>
      </trkpt>
      <trkpt lat="41.4282120" lon="2.1167600">
        <ele>433.2</ele>
        <time>2018-04-10T10:31:07Z</time>
      </trkpt>
      <trkpt lat="41.4280960" lon="2.1168200">
        <ele>433.2</ele>
        <time>2018-04-10T10:31:09Z</time>
      </trkpt>
      <trkpt lat="41.4279840" lon="2.1169070">
        <ele>433.2</ele>
        <time>2018-04-10T10:31:11Z</time>
      </trkpt>
      <trkpt lat="41.4278820" lon="2.1170150">
        <ele>433.0</ele>
        <time>2018-04-10T10:31:13Z</time>
      </trkpt>
      <trkpt lat="41.4277940" lon="2.1171450">
        <ele>433.0</ele>
        <time>2018-04-10T10:31:15Z</time>
      </trkpt>
      <trkpt lat="41.4277230" lon="2.1172910">
        <ele>433.0</ele>
        <time>2018-04-10T10:31:17Z</time>
      </trkpt>
      <trkpt lat="41.4276680" lon="2.1174570">
        <ele>433.0</ele>
        <time>2018-04-10T10:31:19Z</time>
      </trkpt>
      <trkpt lat="41.4276460" lon="2.1175440">
        <ele>432.8</ele>
        <time>2018-04-10T10:31:20Z</time>
      </trkpt>
      <trkpt lat="41.4276250" lon="2.1176330">
        <ele>432.8</ele>
        <time>2018-04-10T10:31:21Z</time>
      </trkpt>
      <trkpt lat="41.4275850" lon="2.1178150">
        <ele>432.8</ele>
        <time>2018-04-10T10:31:23Z</time>
      </trkpt>
      <trkpt lat="41.4275430" lon="2.1179970">
        <ele>432.8</ele>
        <time>2018-04-10T10:31:25Z</time>
      </trkpt>
      <trkpt lat="41.4275030" lon="2.1181790">
        <ele>432.6</ele>
        <time>2018-04-10T10:31:27Z</time>
      </trkpt>
      <trkpt lat="41.4274620" lon="2.1183630">
        <ele>432.4</ele>
        <time>2018-04-10T10:31:29Z</time>
      </trkpt>
      <trkpt lat="41.4274230" lon="2.1185450">
        <ele>432.2</ele>
        <time>2018-04-10T10:31:31Z</time>
      </trkpt>
      <trkpt lat="41.4273850" lon="2.1187280">
        <ele>432.0</ele>
        <time>2018-04-10T10:31:33Z</time>
      </trkpt>
      <trkpt lat="41.4273450" lon="2.1189090">
        <ele>432.0</ele>
        <time>2018-04-10T10:31:35Z</time>
      </trkpt>
      <trkpt lat="41.4273050" lon="2.1190890">
        <ele>432.0</ele>
        <time>2018-04-10T10:31:37Z</time>
      </trkpt>
      <trkpt lat="41.4272680" lon="2.1192660">
        <ele>432.0</ele>
        <time>2018-04-10T10:31:39Z</time>
      </trkpt>
      <trkpt lat="41.4272330" lon="2.1194400">
        <ele>432.0</ele>
        <time>2018-04-10T10:31:41Z</time>
      </trkpt>
      <trkpt lat="41.4272000" lon="2.1196130">
        <ele>432.0</ele>
        <time>2018-04-10T10:31:43Z</time>
      </trkpt>
      <trkpt lat="41.4271750" lon="2.1197840">
        <ele>432.2</ele>
        <time>2018-04-10T10:31:45Z</time>
      </trkpt>
      <trkpt lat="41.4271650" lon="2.1199580">
        <ele>432.2</ele>
        <time>2018-04-10T10:31:47Z</time>
      </trkpt>
      <trkpt lat="41.4271740" lon="2.1201320">
        <ele>432.2</ele>
        <time>2018-04-10T10:31:49Z</time>
      </trkpt>
      <trkpt lat="41.4271970" lon="2.1203040">
        <ele>432.4</ele>
        <time>2018-04-10T10:31:51Z</time>
      </trkpt>
      <trkpt lat="41.4272350" lon="2.1204700">
        <ele>432.6</ele>
        <time>2018-04-10T10:31:53Z</time>
      </trkpt>
      <trkpt lat="41.4272880" lon="2.1206280">
        <ele>432.6</ele>
        <time>2018-04-10T10:31:55Z</time>
      </trkpt>
      <trkpt lat="41.4273520" lon="2.1207760">
        <ele>432.8</ele>
        <time>2018-04-10T10:31:57Z</time>
      </trkpt>
      <trkpt lat="41.4274250" lon="2.1209090">
        <ele>432.8</ele>
        <time>2018-04-10T10:31:59Z</time>
      </trkpt>
      <trkpt lat="41.4275040" lon="2.1210310">
        <ele>432.8</ele>
        <time>2018-04-10T10:32:01Z</time>
      </trkpt>
      <trkpt lat="41.4275930" lon="2.1211410">
        <ele>432.8</ele>
        <time>2018-04-10T10:32:03Z</time>
      </trkpt>
      <trkpt lat="41.4276750" lon="2.1212310">
        <ele>433.0</ele>
        <time>2018-04-10T10:32:05Z</time>
      </trkpt>
      <trkpt lat="41.4277670" lon="2.1213200">
        <ele>433.2</ele>
        <time>2018-04-10T10:32:07Z</time>
      </trkpt>
      <trkpt lat="41.4278570" lon="2.1214130">
        <ele>433.6</ele>
        <time>2018-04-10T10:32:09Z</time>
      </trkpt>
      <trkpt lat="41.4278990" lon="2.1214640">
        <ele>433.6</ele>
        <time>2018-04-10T10:32:10Z</time>
      </trkpt>
      <trkpt lat="41.4279400" lon="2.1215180">
        <ele>433.8</ele>
        <time>2018-04-10T10:32:11Z</time>
      </trkpt>
      <trkpt lat="41.4280200" lon="2.1216300">
        <ele>433.8</ele>
        <time>2018-04-10T10:32:13Z</time>
      </trkpt>
      <trkpt lat="41.4280920" lon="2.1217490">
        <ele>434.0</ele>
        <time>2018-04-10T10:32:15Z</time>
      </trkpt>
      <trkpt lat="41.4281630" lon="2.1218710">
        <ele>434.0</ele>
        <time>2018-04-10T10:32:17Z</time>
      </trkpt>
      <trkpt lat="41.4282340" lon="2.1219940">
        <ele>434.2</ele>
        <time>2018-04-10T10:32:19Z</time>
      </trkpt>
      <trkpt lat="41.4283050" lon="2.1221190">
        <ele>434.2</ele>
        <time>2018-04-10T10:32:21Z</time>
      </trkpt>
      <trkpt lat="41.4283780" lon="2.1222480">
        <ele>434.6</ele>
        <time>2018-04-10T10:32:23Z</time>
      </trkpt>
      <trkpt lat="41.4284560" lon="2.1223800">
        <ele>434.6</ele>
        <time>2018-04-10T10:32:25Z</time>
      </trkpt>
      <trkpt lat="41.4284950" lon="2.1224470">
        <ele>434.6</ele>
        <time>2018-04-10T10:32:26Z</time>
      </trkpt>
      <trkpt lat="41.4285330" lon="2.1225160">
        <ele>434.8</ele>
        <time>2018-04-10T10:32:27Z</time>
      </trkpt>
      <trkpt lat="41.4286070" lon="2.1226560">
        <ele>434.8</ele>
        <time>2018-04-10T10:32:29Z</time>
      </trkpt>
      <trkpt lat="41.4286700" lon="2.1228060">
        <ele>434.8</ele>
        <time>2018-04-10T10:32:31Z</time>
      </trkpt>
      <trkpt lat="41.4286940" lon="2.1228840">
        <ele>434.8</ele>
        <time>2018-04-10T10:32:32Z</time>
      </trkpt>
      <trkpt lat="41.4287100" lon="2.1229650">
        <ele>434.8</ele>
        <time>2018-04-10T10:32:33Z</time>
      </trkpt>
      <trkpt lat="41.4287040" lon="2.1231280">
        <ele>434.6</ele>
        <time>2018-04-10T10:32:35Z</time>
      </trkpt>
      <trkpt lat="41.4286480" lon="2.1232520">
        <ele>434.6</ele>
        <time>2018-04-10T10:32:37Z</time>
      </trkpt>
      <trkpt lat="41.4285700" lon="2.1233090">
        <ele>434.8</ele>
        <time>2018-04-10T10:32:39Z</time>
      </trkpt>
      <trkpt lat="41.4284770" lon="2.1233120">
        <ele>434.8</ele>
        <time>2018-04-10T10:32:41Z</time>
      </trkpt>
      <trkpt lat="41.4284310" lon="2.1233050">
        <ele>434.8</ele>
        <time>2018-04-10T10:32:42Z</time>
      </trkpt>
      <trkpt lat="41.4283910" lon="2.1232980">
        <ele>434.8</ele>
        <time>2018-04-10T10:32:43Z</time>
      </trkpt>
      <trkpt lat="41.4283070" lon="2.1232820">
        <ele>435.0</ele>
        <time>2018-04-10T10:32:45Z</time>
      </trkpt>
      <trkpt lat="41.4282300" lon="2.1232690">
        <ele>435.6</ele>
        <time>2018-04-10T10:32:47Z</time>
      </trkpt>
      <trkpt lat="41.4281930" lon="2.1232620">
        <ele>436.0</ele>
        <time>2018-04-10T10:32:48Z</time>
      </trkpt>
      <trkpt lat="41.4281570" lon="2.1232580">
        <ele>436.4</ele>
        <time>2018-04-10T10:32:49Z</time>
      </trkpt>
      <trkpt lat="41.4280820" lon="2.1232500">
        <ele>437.0</ele>
        <time>2018-04-10T10:32:51Z</time>
      </trkpt>
      <trkpt lat="41.4280050" lon="2.1232420">
        <ele>437.6</ele>
        <time>2018-04-10T10:32:53Z</time>
      </trkpt>
      <trkpt lat="41.4279270" lon="2.1232340">
        <ele>438.0</ele>
        <time>2018-04-10T10:32:55Z</time>
      </trkpt>
      <trkpt lat="41.4278880" lon="2.1232300">
        <ele>438.0</ele>
        <time>2018-04-10T10:32:56Z</time>
      </trkpt>
      <trkpt lat="41.4278500" lon="2.1232270">
        <ele>438.4</ele>
        <time>2018-04-10T10:32:57Z</time>
      </trkpt>
      <trkpt lat="41.4277740" lon="2.1232200">
        <ele>439.0</ele>
        <time>2018-04-10T10:32:59Z</time>
      </trkpt>
      <trkpt lat="41.4277370" lon="2.1232170">
        <ele>439.2</ele>
        <time>2018-04-10T10:33:00Z</time>
      </trkpt>
      <trkpt lat="41.4276990" lon="2.1232160">
        <ele>439.6</ele>
        <time>2018-04-10T10:33:01Z</time>
      </trkpt>
      <trkpt lat="41.4276220" lon="2.1232080">
        <ele>440.2</ele>
        <time>2018-04-10T10:33:03Z</time>
      </trkpt>
      <trkpt lat="41.4275840" lon="2.1232020">
        <ele>440.6</ele>
        <time>2018-04-10T10:33:04Z</time>
      </trkpt>
      <trkpt lat="41.4275460" lon="2.1232000">
        <ele>440.8</ele>
        <time>2018-04-10T10:33:05Z</time>
      </trkpt>
      <trkpt lat="41.4274700" lon="2.1231930">
        <ele>441.2</ele>
        <time>2018-04-10T10:33:07Z</time>
      </trkpt>
      <trkpt lat="41.4273940" lon="2.1231860">
        <ele>441.8</ele>
        <time>2018-04-10T10:33:09Z</time>
      </trkpt>
      <trkpt lat="41.4273180" lon="2.1231800">
        <ele>442.6</ele>
        <time>2018-04-10T10:33:11Z</time>
      </trkpt>
      <trkpt lat="41.4272420" lon="2.1231780">
        <ele>443.2</ele>
        <time>2018-04-10T10:33:13Z</time>
      </trkpt>
      <trkpt lat="41.4271650" lon="2.1231730">
        <ele>443.6</ele>
        <time>2018-04-10T10:33:15Z</time>
      </trkpt>
      <trkpt lat="41.4270880" lon="2.1231640">
        <ele>444.2</ele>
        <time>2018-04-10T10:33:17Z</time>
      </trkpt>
      <trkpt lat="41.4270500" lon="2.1231620">
        <ele>444.2</ele>
        <time>2018-04-10T10:33:18Z</time>
      </trkpt>
      <trkpt lat="41.4270120" lon="2.1231580">
        <ele>444.4</ele>
        <time>2018-04-10T10:33:19Z</time>
      </trkpt>
      <trkpt lat="41.4269360" lon="2.1231480">
        <ele>445.6</ele>
        <time>2018-04-10T10:33:21Z</time>
      </trkpt>
      <trkpt lat="41.4268590" lon="2.1231410">
        <ele>446.0</ele>
        <time>2018-04-10T10:33:23Z</time>
      </trkpt>
      <trkpt lat="41.4267820" lon="2.1231320">
        <ele>446.6</ele>
        <time>2018-04-10T10:33:25Z</time>
      </trkpt>
      <trkpt lat="41.4267060" lon="2.1231200">
        <ele>447.2</ele>
        <time>2018-04-10T10:33:27Z</time>
      </trkpt>
      <trkpt lat="41.4266290" lon="2.1231040">
        <ele>447.8</ele>
        <time>2018-04-10T10:33:29Z</time>
      </trkpt>
      <trkpt lat="41.4265550" lon="2.1230820">
        <ele>448.6</ele>
        <time>2018-04-10T10:33:31Z</time>
      </trkpt>
      <trkpt lat="41.4265170" lon="2.1230680">
        <ele>449.0</ele>
        <time>2018-04-10T10:33:32Z</time>
      </trkpt>
      <trkpt lat="41.4264810" lon="2.1230540">
        <ele>449.4</ele>
        <time>2018-04-10T10:33:33Z</time>
      </trkpt>
      <trkpt lat="41.4264090" lon="2.1230240">
        <ele>450.2</ele>
        <time>2018-04-10T10:33:35Z</time>
      </trkpt>
      <trkpt lat="41.4263390" lon="2.1229910">
        <ele>450.8</ele>
        <time>2018-04-10T10:33:37Z</time>
      </trkpt>
      <trkpt lat="41.4262710" lon="2.1229550">
        <ele>451.4</ele>
        <time>2018-04-10T10:33:39Z</time>
      </trkpt>
      <trkpt lat="41.4262020" lon="2.1229190">
        <ele>451.8</ele>
        <time>2018-04-10T10:33:41Z</time>
      </trkpt>
      <trkpt lat="41.4261360" lon="2.1228810">
        <ele>452.0</ele>
        <time>2018-04-10T10:33:43Z</time>
      </trkpt>
      <trkpt lat="41.4260700" lon="2.1228430">
        <ele>452.2</ele>
        <time>2018-04-10T10:33:45Z</time>
      </trkpt>
      <trkpt lat="41.4260360" lon="2.1228230">
        <ele>452.4</ele>
        <time>2018-04-10T10:33:46Z</time>
      </trkpt>
      <trkpt lat="41.4260040" lon="2.1228020">
        <ele>452.8</ele>
        <time>2018-04-10T10:33:47Z</time>
      </trkpt>
      <trkpt lat="41.4259340" lon="2.1227690">
        <ele>453.4</ele>
        <time>2018-04-10T10:33:49Z</time>
      </trkpt>
      <trkpt lat="41.4258660" lon="2.1227300">
        <ele>454.4</ele>
        <time>2018-04-10T10:33:51Z</time>
      </trkpt>
      <trkpt lat="41.4258320" lon="2.1227070">
        <ele>454.6</ele>
        <time>2018-04-10T10:33:52Z</time>
      </trkpt>
      <trkpt lat="41.4257950" lon="2.1226840">
        <ele>454.8</ele>
        <time>2018-04-10T10:33:53Z</time>
      </trkpt>
      <trkpt lat="41.4257230" lon="2.1226400">
        <ele>455.4</ele>
        <time>2018-04-10T10:33:55Z</time>
      </trkpt>
      <trkpt lat="41.4256520" lon="2.1225980">
        <ele>456.0</ele>
        <time>2018-04-10T10:33:57Z</time>
      </trkpt>
      <trkpt lat="41.4255790" lon="2.1225590">
        <ele>456.8</ele>
        <time>2018-04-10T10:33:59Z</time>
      </trkpt>
      <trkpt lat="41.4255430" lon="2.1225370">
        <ele>457.2</ele>
        <time>2018-04-10T10:34:00Z</time>
      </trkpt>
      <trkpt lat="41.4255070" lon="2.1225160">
        <ele>457.4</ele>
        <time>2018-04-10T10:34:01Z</time>
      </trkpt>
      <trkpt lat="41.4254350" lon="2.1224730">
        <ele>457.8</ele>
        <time>2018-04-10T10:34:03Z</time>
      </trkpt>
      <trkpt lat="41.4253630" lon="2.1224310">
        <ele>458.2</ele>
        <time>2018-04-10T10:34:05Z</time>
      </trkpt>
      <trkpt lat="41.4252890" lon="2.1223890">
        <ele>458.8</ele>
        <time>2018-04-10T10:34:07Z</time>
      </trkpt>
      <trkpt lat="41.4252170" lon="2.1223440">
        <ele>459.4</ele>
        <time>2018-04-10T10:34:09Z</time>
      </trkpt>
      <trkpt lat="41.4251440" lon="2.1223000">
        <ele>460.0</ele>
        <time>2018-04-10T10:34:11Z</time>
      </trkpt>
      <trkpt lat="41.4250710" lon="2.1222540">
        <ele>460.4</ele>
        <time>2018-04-10T10:34:13Z</time>
      </trkpt>
      <trkpt lat="41.4250000" lon="2.1222000">
        <ele>461.0</ele>
        <time>2018-04-10T10:34:15Z</time>
      </trkpt>
      <trkpt lat="41.4249340" lon="2.1221390">
        <ele>461.6</ele>
        <time>2018-04-10T10:34:17Z</time>
      </trkpt>
      <trkpt lat="41.4248720" lon="2.1220710">
        <ele>462.6</ele>
        <time>2018-04-10T10:34:19Z</time>
      </trkpt>
      <trkpt lat="41.4248140" lon="2.1219940">
        <ele>463.0</ele>
        <time>2018-04-10T10:34:21Z</time>
      </trkpt>
      <trkpt lat="41.4247630" lon="2.1219070">
        <ele>463.4</ele>
        <time>2018-04-10T10:34:23Z</time>
      </trkpt>
      <trkpt lat="41.4247160" lon="2.1218170">
        <ele>463.6</ele>
        <time>2018-04-10T10:34:25Z</time>
      </trkpt>
      <trkpt lat="41.4246670" lon="2.1217290">
        <ele>464.0</ele>
        <time>2018-04-10T10:34:27Z</time>
      </trkpt>
      <trkpt lat="41.4246170" lon="2.1216420">
        <ele>465.0</ele>
        <time>2018-04-10T10:34:29Z</time>
      </trkpt>
      <trkpt lat="41.4245680" lon="2.1215570">
        <ele>465.8</ele>
        <time>2018-04-10T10:34:31Z</time>
      </trkpt>
      <trkpt lat="41.4245440" lon="2.1215140">
        <ele>466.2</ele>
        <time>2018-04-10T10:34:32Z</time>
      </trkpt>
      <trkpt lat="41.4245170" lon="2.1214730">
        <ele>466.6</ele>
        <time>2018-04-10T10:34:33Z</time>
      </trkpt>
      <trkpt lat="41.4244650" lon="2.1213910">
        <ele>467.2</ele>
        <time>2018-04-10T10:34:35Z</time>
      </trkpt>
      <trkpt lat="41.4244370" lon="2.1213500">
        <ele>467.4</ele>
        <time>2018-04-10T10:34:36Z</time>
      </trkpt>
      <trkpt lat="41.4244090" lon="2.1213110">
        <ele>467.8</ele>
        <time>2018-04-10T10:34:37Z</time>
      </trkpt>
      <trkpt lat="41.4243500" lon="2.1212370">
        <ele>468.2</ele>
        <time>2018-04-10T10:34:39Z</time>
      </trkpt>
      <trkpt lat="41.4242890" lon="2.1211670">
        <ele>468.6</ele>
        <time>2018-04-10T10:34:41Z</time>
      </trkpt>
      <trkpt lat="41.4242230" lon="2.1210990">
        <ele>469.0</ele>
        <time>2018-04-10T10:34:43Z</time>
      </trkpt>
      <trkpt lat="41.4241580" lon="2.1210360">
        <ele>469.4</ele>
        <time>2018-04-10T10:34:45Z</time>
      </trkpt>
      <trkpt lat="41.4240870" lon="2.1209820">
        <ele>469.6</ele>
        <time>2018-04-10T10:34:47Z</time>
      </trkpt>
      <trkpt lat="41.4240120" lon="2.1209300">
        <ele>471.0</ele>
        <time>2018-04-10T10:34:49Z</time>
      </trkpt>
      <trkpt lat="41.4239350" lon="2.1208810">
        <ele>471.6</ele>
        <time>2018-04-10T10:34:51Z</time>
      </trkpt>
      <trkpt lat="41.4238530" lon="2.1208430">
        <ele>472.0</ele>
        <time>2018-04-10T10:34:53Z</time>
      </trkpt>
      <trkpt lat="41.4238090" lon="2.1208260">
        <ele>472.2</ele>
        <time>2018-04-10T10:34:54Z</time>
      </trkpt>
      <trkpt lat="41.4237650" lon="2.1208100">
        <ele>472.2</ele>
        <time>2018-04-10T10:34:55Z</time>
      </trkpt>
      <trkpt lat="41.4236760" lon="2.1207800">
        <ele>472.8</ele>
        <time>2018-04-10T10:34:57Z</time>
      </trkpt>
      <trkpt lat="41.4235830" lon="2.1207540">
        <ele>473.2</ele>
        <time>2018-04-10T10:34:59Z</time>
      </trkpt>
      <trkpt lat="41.4234920" lon="2.1207280">
        <ele>473.6</ele>
        <time>2018-04-10T10:35:01Z</time>
      </trkpt>
      <trkpt lat="41.4233990" lon="2.1207060">
        <ele>474.0</ele>
        <time>2018-04-10T10:35:03Z</time>
      </trkpt>
      <trkpt lat="41.4233080" lon="2.1206880">
        <ele>474.2</ele>
        <time>2018-04-10T10:35:05Z</time>
      </trkpt>
      <trkpt lat="41.4232620" lon="2.1206860">
        <ele>474.4</ele>
        <time>2018-04-10T10:35:06Z</time>
      </trkpt>
      <trkpt lat="41.4232150" lon="2.1206880">
        <ele>474.6</ele>
        <time>2018-04-10T10:35:07Z</time>
      </trkpt>
      <trkpt lat="41.4231220" lon="2.1207020">
        <ele>475.0</ele>
        <time>2018-04-10T10:35:09Z</time>
      </trkpt>
      <trkpt lat="41.4230300" lon="2.1207320">
        <ele>475.4</ele>
        <time>2018-04-10T10:35:11Z</time>
      </trkpt>
      <trkpt lat="41.4229880" lon="2.1207490">
        <ele>475.6</ele>
        <time>2018-04-10T10:35:12Z</time>
      </trkpt>
      <trkpt lat="41.4229440" lon="2.1207630">
        <ele>476.0</ele>
        <time>2018-04-10T10:35:13Z</time>
      </trkpt>
      <trkpt lat="41.4228540" lon="2.1207820">
        <ele>476.6</ele>
        <time>2018-04-10T10:35:15Z</time>
      </trkpt>
      <trkpt lat="41.4228080" lon="2.1207900">
        <ele>476.8</ele>
        <time>2018-04-10T10:35:16Z</time>
      </trkpt>
      <trkpt lat="41.4227620" lon="2.1207880">
        <ele>477.2</ele>
        <time>2018-04-10T10:35:17Z</time>
      </trkpt>
      <trkpt lat="41.4226850" lon="2.1207300">
        <ele>477.8</ele>
        <time>2018-04-10T10:35:19Z</time>
      </trkpt>
      <trkpt lat="41.4226640" lon="2.1206130">
        <ele>478.2</ele>
        <time>2018-04-10T10:35:21Z</time>
      </trkpt>
      <trkpt lat="41.4227150" lon="2.1205210">
        <ele>479.0</ele>
        <time>2018-04-10T10:35:23Z</time>
      </trkpt>
      <trkpt lat="41.4227990" lon="2.1204820">
        <ele>479.4</ele>
        <time>2018-04-10T10:35:25Z</time>
      </trkpt>
      <trkpt lat="41.4228870" lon="2.1205030">
        <ele>479.8</ele>
        <time>2018-04-10T10:35:27Z</time>
      </trkpt>
      <trkpt lat="41.4229310" lon="2.1205220">
        <ele>480.0</ele>
        <time>2018-04-10T10:35:28Z</time>
      </trkpt>
      <trkpt lat="41.4229730" lon="2.1205410">
        <ele>480.2</ele>
        <time>2018-04-10T10:35:29Z</time>
      </trkpt>
      <trkpt lat="41.4230170" lon="2.1205550">
        <ele>480.4</ele>
        <time>2018-04-10T10:35:30Z</time>
      </trkpt>
      <trkpt lat="41.4230610" lon="2.1205670">
        <ele>480.8</ele>
        <time>2018-04-10T10:35:31Z</time>
      </trkpt>
      <trkpt lat="41.4231450" lon="2.1205870">
        <ele>481.4</ele>
        <time>2018-04-10T10:35:33Z</time>
      </trkpt>
      <trkpt lat="41.4232340" lon="2.1205810">
        <ele>481.8</ele>
        <time>2018-04-10T10:35:35Z</time>
      </trkpt>
      <trkpt lat="41.4233240" lon="2.1205640">
        <ele>482.2</ele>
        <time>2018-04-10T10:35:37Z</time>
      </trkpt>
      <trkpt lat="41.4234130" lon="2.1205460">
        <ele>482.6</ele>
        <time>2018-04-10T10:35:39Z</time>
      </trkpt>
      <trkpt lat="41.4235040" lon="2.1205330">
        <ele>483.0</ele>
        <time>2018-04-10T10:35:41Z</time>
      </trkpt>
      <trkpt lat="41.4235930" lon="2.1205220">
        <ele>483.4</ele>
        <time>2018-04-10T10:35:43Z</time>
      </trkpt>
      <trkpt lat="41.4236780" lon="2.1205080">
        <ele>483.6</ele>
        <time>2018-04-10T10:35:45Z</time>
      </trkpt>
      <trkpt lat="41.4237660" lon="2.1204990">
        <ele>484.4</ele>
        <time>2018-04-10T10:35:47Z</time>
      </trkpt>
      <trkpt lat="41.4238110" lon="2.1205000">
        <ele>484.6</ele>
        <time>2018-04-10T10:35:48Z</time>
      </trkpt>
      <trkpt lat="41.4238550" lon="2.1205020">
        <ele>485.0</ele>
        <time>2018-04-10T10:35:49Z</time>
      </trkpt>
      <trkpt lat="41.4239000" lon="2.1205090">
        <ele>485.2</ele>
        <time>2018-04-10T10:35:50Z</time>
      </trkpt>
      <trkpt lat="41.4239430" lon="2.1205200">
        <ele>485.4</ele>
        <time>2018-04-10T10:35:51Z</time>
      </trkpt>
      <trkpt lat="41.4239870" lon="2.1205340">
        <ele>485.8</ele>
        <time>2018-04-10T10:35:52Z</time>
      </trkpt>
      <trkpt lat="41.4240320" lon="2.1205500">
        <ele>485.8</ele>
        <time>2018-04-10T10:35:53Z</time>
      </trkpt>
      <trkpt lat="41.4241180" lon="2.1205870">
        <ele>486.2</ele>
        <time>2018-04-10T10:35:55Z</time>
      </trkpt>
      <trkpt lat="41.4242020" lon="2.1206320">
        <ele>486.8</ele>
        <time>2018-04-10T10:35:57Z</time>
      </trkpt>
      <trkpt lat="41.4242420" lon="2.1206550">
        <ele>487.0</ele>
        <time>2018-04-10T10:35:58Z</time>
      </trkpt>
      <trkpt lat="41.4242830" lon="2.1206800">
        <ele>487.2</ele>
        <time>2018-04-10T10:35:59Z</time>
      </trkpt>
      <trkpt lat="41.4243660" lon="2.1207280">
        <ele>487.4</ele>
        <time>2018-04-10T10:36:01Z</time>
      </trkpt>
      <trkpt lat="41.4244400" lon="2.1207780">
        <ele>488.0</ele>
        <time>2018-04-10T10:36:03Z</time>
      </trkpt>
      <trkpt lat="41.4244770" lon="2.1208010">
        <ele>488.2</ele>
        <time>2018-04-10T10:36:04Z</time>
      </trkpt>
      <trkpt lat="41.4245140" lon="2.1208240">
        <ele>488.4</ele>
        <time>2018-04-10T10:36:05Z</time>
      </trkpt>
      <trkpt lat="41.4245890" lon="2.1208730">
        <ele>489.0</ele>
        <time>2018-04-10T10:36:07Z</time>
      </trkpt>
      <trkpt lat="41.4246270" lon="2.1208980">
        <ele>489.2</ele>
        <time>2018-04-10T10:36:08Z</time>
      </trkpt>
      <trkpt lat="41.4246660" lon="2.1209220">
        <ele>489.4</ele>
        <time>2018-04-10T10:36:09Z</time>
      </trkpt>
      <trkpt lat="41.4247040" lon="2.1209460">
        <ele>489.6</ele>
        <time>2018-04-10T10:36:10Z</time>
      </trkpt>
      <trkpt lat="41.4247410" lon="2.1209710">
        <ele>490.4</ele>
        <time>2018-04-10T10:36:11Z</time>
      </trkpt>
      <trkpt lat="41.4248180" lon="2.1210190">
        <ele>491.0</ele>
        <time>2018-04-10T10:36:13Z</time>
      </trkpt>
      <trkpt lat="41.4249000" lon="2.1210640">
        <ele>491.4</ele>
        <time>2018-04-10T10:36:15Z</time>
      </trkpt>
      <trkpt lat="41.4249400" lon="2.1210870">
        <ele>491.8</ele>
        <time>2018-04-10T10:36:16Z</time>
      </trkpt>
      <trkpt lat="41.4249800" lon="2.1211140">
        <ele>492.0</ele>
        <time>2018-04-10T10:36:17Z</time>
      </trkpt>
      <trkpt lat="41.4250620" lon="2.1211670">
        <ele>492.4</ele>
        <time>2018-04-10T10:36:19Z</time>
      </trkpt>
      <trkpt lat="41.4251480" lon="2.1212150">
        <ele>492.6</ele>
        <time>2018-04-10T10:36:21Z</time>
      </trkpt>
      <trkpt lat="41.4251910" lon="2.1212400">
        <ele>492.8</ele>
        <time>2018-04-10T10:36:22Z</time>
      </trkpt>
      <trkpt lat="41.4252320" lon="2.1212680">
        <ele>493.2</ele>
        <time>2018-04-10T10:36:23Z</time>
      </trkpt>
      <trkpt lat="41.4253120" lon="2.1213230">
        <ele>493.6</ele>
        <time>2018-04-10T10:36:25Z</time>
      </trkpt>
      <trkpt lat="41.4253970" lon="2.1213730">
        <ele>494.0</ele>
        <time>2018-04-10T10:36:27Z</time>
      </trkpt>
      <trkpt lat="41.4254830" lon="2.1214000">
        <ele>494.4</ele>
        <time>2018-04-10T10:36:29Z</time>
      </trkpt>
      <trkpt lat="41.4255740" lon="2.1214060">
        <ele>494.8</ele>
        <time>2018-04-10T10:36:31Z</time>
      </trkpt>
      <trkpt lat="41.4256190" lon="2.1213990">
        <ele>495.0</ele>
        <time>2018-04-10T10:36:32Z</time>
      </trkpt>
      <trkpt lat="41.4256620" lon="2.1213820">
        <ele>495.2</ele>
        <time>2018-04-10T10:36:33Z</time>
      </trkpt>
      <trkpt lat="41.4257040" lon="2.1213590">
        <ele>495.6</ele>
        <time>2018-04-10T10:36:34Z</time>
      </trkpt>
      <trkpt lat="41.4257450" lon="2.1213310">
        <ele>496.0</ele>
        <time>2018-04-10T10:36:35Z</time>
      </trkpt>
      <trkpt lat="41.4257810" lon="2.1212940">
        <ele>496.4</ele>
        <time>2018-04-10T10:36:36Z</time>
      </trkpt>
      <trkpt lat="41.4258110" lon="2.1212480">
        <ele>496.6</ele>
        <time>2018-04-10T10:36:37Z</time>
      </trkpt>
      <trkpt lat="41.4258550" lon="2.1211420">
        <ele>497.2</ele>
        <time>2018-04-10T10:36:39Z</time>
      </trkpt>
      <trkpt lat="41.4258690" lon="2.1210840">
        <ele>497.4</ele>
        <time>2018-04-10T10:36:40Z</time>
      </trkpt>
      <trkpt lat="41.4258790" lon="2.1210220">
        <ele>497.8</ele>
        <time>2018-04-10T10:36:41Z</time>
      </trkpt>
      <trkpt lat="41.4258850" lon="2.1208950">
        <ele>498.6</ele>
        <time>2018-04-10T10:36:43Z</time>
      </trkpt>
      <trkpt lat="41.4258830" lon="2.1208310">
        <ele>499.0</ele>
        <time>2018-04-10T10:36:44Z</time>
      </trkpt>
      <trkpt lat="41.4258770" lon="2.1207690">
        <ele>499.6</ele>
        <time>2018-04-10T10:36:45Z</time>
      </trkpt>
      <trkpt lat="41.4258660" lon="2.1207080">
        <ele>500.0</ele>
        <time>2018-04-10T10:36:46Z</time>
      </trkpt>
      <trkpt lat="41.4258540" lon="2.1206480">
        <ele>500.2</ele>
        <time>2018-04-10T10:36:47Z</time>
      </trkpt>
      <trkpt lat="41.4258290" lon="2.1205280">
        <ele>500.6</ele>
        <time>2018-04-10T10:36:49Z</time>
      </trkpt>
      <trkpt lat="41.4258130" lon="2.1204080">
        <ele>501.0</ele>
        <time>2018-04-10T10:36:51Z</time>
      </trkpt>
      <trkpt lat="41.4258070" lon="2.1203500">
        <ele>501.0</ele>
        <time>2018-04-10T10:36:52Z</time>
      </trkpt>
      <trkpt lat="41.4258000" lon="2.1202900">
        <ele>501.2</ele>
        <time>2018-04-10T10:36:53Z</time>
      </trkpt>
      <trkpt lat="41.4257820" lon="2.1201740">
        <ele>501.6</ele>
        <time>2018-04-10T10:36:55Z</time>
      </trkpt>
      <trkpt lat="41.4257570" lon="2.1200600">
        <ele>502.0</ele>
        <time>2018-04-10T10:36:57Z</time>
      </trkpt>
      <trkpt lat="41.4257460" lon="2.1200020">
        <ele>502.6</ele>
        <time>2018-04-10T10:36:58Z</time>
      </trkpt>
      <trkpt lat="41.4257360" lon="2.1199490">
        <ele>503.2</ele>
        <time>2018-04-10T10:36:59Z</time>
      </trkpt>
      <trkpt lat="41.4257150" lon="2.1198530">
        <ele>503.8</ele>
        <time>2018-04-10T10:37:01Z</time>
      </trkpt>
      <trkpt lat="41.4256950" lon="2.1197630">
        <ele>504.0</ele>
        <time>2018-04-10T10:37:03Z</time>
      </trkpt>
      <trkpt lat="41.4256520" lon="2.1196960">
        <ele>504.2</ele>
        <time>2018-04-10T10:37:05Z</time>
      </trkpt>
      <trkpt lat="41.4255850" lon="2.1196700">
        <ele>504.4</ele>
        <time>2018-04-10T10:37:07Z</time>
      </trkpt>
      <trkpt lat="41.4255110" lon="2.1196460">
        <ele>505.0</ele>
        <time>2018-04-10T10:37:09Z</time>
      </trkpt>
      <trkpt lat="41.4254420" lon="2.1196140">
        <ele>505.4</ele>
        <time>2018-04-10T10:37:11Z</time>
      </trkpt>
      <trkpt lat="41.4253660" lon="2.1195900">
        <ele>505.6</ele>
        <time>2018-04-10T10:37:13Z</time>
      </trkpt>
      <trkpt lat="41.4252910" lon="2.1195660">
        <ele>506.4</ele>
        <time>2018-04-10T10:37:15Z</time>
      </trkpt>
      <trkpt lat="41.4252150" lon="2.1195440">
        <ele>507.2</ele>
        <time>2018-04-10T10:37:17Z</time>
      </trkpt>
      <trkpt lat="41.4251400" lon="2.1195240">
        <ele>507.6</ele>
        <time>2018-04-10T10:37:19Z</time>
      </trkpt>
      <trkpt lat="41.4250660" lon="2.1195050">
        <ele>508.0</ele>
        <time>2018-04-10T10:37:21Z</time>
      </trkpt>
      <trkpt lat="41.4249920" lon="2.1194840">
        <ele>508.4</ele>
        <time>2018-04-10T10:37:23Z</time>
      </trkpt>
      <trkpt lat="41.4249560" lon="2.1194740">
        <ele>508.8</ele>
        <time>2018-04-10T10:37:24Z</time>
      </trkpt>
      <trkpt lat="41.4249200" lon="2.1194660">
        <ele>509.0</ele>
        <time>2018-04-10T10:37:25Z</time>
      </trkpt>
      <trkpt lat="41.4248490" lon="2.1194490">
        <ele>509.4</ele>
        <time>2018-04-10T10:37:27Z</time>
      </trkpt>
      <trkpt lat="41.4247800" lon="2.1194330">
        <ele>509.8</ele>
        <time>2018-04-10T10:37:29Z</time>
      </trkpt>
      <trkpt lat="41.4247150" lon="2.1194250">
        <ele>510.4</ele>
        <time>2018-04-10T10:37:31Z</time>
      </trkpt>
      <trkpt lat="41.4246460" lon="2.1194230">
        <ele>510.8</ele>
        <time>2018-04-10T10:37:33Z</time>
      </trkpt>
      <trkpt lat="41.4246160" lon="2.1194170">
        <ele>511.2</ele>
        <time>2018-04-10T10:37:34Z</time>
      </trkpt>
      <trkpt lat="41.4245910" lon="2.1194140">
        <ele>511.4</ele>
        <time>2018-04-10T10:37:35Z</time>
      </trkpt>
      <trkpt lat="41.4245280" lon="2.1194010">
        <ele>511.8</ele>
        <time>2018-04-10T10:37:37Z</time>
      </trkpt>
      <trkpt lat="41.4244630" lon="2.1193950">
        <ele>512.2</ele>
        <time>2018-04-10T10:37:39Z</time>
      </trkpt>
      <trkpt lat="41.4243960" lon="2.1193840">
        <ele>512.6</ele>
        <time>2018-04-10T10:37:41Z</time>
      </trkpt>
      <trkpt lat="41.4243210" lon="2.1193630">
        <ele>513.4</ele>
        <time>2018-04-10T10:37:43Z</time>
      </trkpt>
      <trkpt lat="41.4242420" lon="2.1193390">
        <ele>514.0</ele>
        <time>2018-04-10T10:37:45Z</time>
      </trkpt>
      <trkpt lat="41.4242030" lon="2.1193230">
        <ele>514.4</ele>
        <time>2018-04-10T10:37:46Z</time>
      </trkpt>
      <trkpt lat="41.4241630" lon="2.1193120">
        <ele>514.6</ele>
        <time>2018-04-10T10:37:47Z</time>
      </trkpt>
      <trkpt lat="41.4240850" lon="2.1192880">
        <ele>515.0</ele>
        <time>2018-04-10T10:37:49Z</time>
      </trkpt>
      <trkpt lat="41.4240040" lon="2.1192680">
        <ele>515.6</ele>
        <time>2018-04-10T10:37:51Z</time>
      </trkpt>
      <trkpt lat="41.4239230" lon="2.1192580">
        <ele>516.0</ele>
        <time>2018-04-10T10:37:53Z</time>
      </trkpt>
      <trkpt lat="41.4238420" lon="2.1192480">
        <ele>516.4</ele>
        <time>2018-04-10T10:37:55Z</time>
      </trkpt>
      <trkpt lat="41.4237980" lon="2.1192390">
        <ele>516.8</ele>
        <time>2018-04-10T10:37:56Z</time>
      </trkpt>
      <trkpt lat="41.4237550" lon="2.1192320">
        <ele>517.0</ele>
        <time>2018-04-10T10:37:57Z</time>
      </trkpt>
      <trkpt lat="41.4236710" lon="2.1192150">
        <ele>517.6</ele>
        <time>2018-04-10T10:37:59Z</time>
      </trkpt>
      <trkpt lat="41.4235900" lon="2.1191960">
        <ele>517.8</ele>
        <time>2018-04-10T10:38:01Z</time>
      </trkpt>
      <trkpt lat="41.4235100" lon="2.1191760">
        <ele>518.4</ele>
        <time>2018-04-10T10:38:03Z</time>
      </trkpt>
      <trkpt lat="41.4234340" lon="2.1191530">
        <ele>518.8</ele>
        <time>2018-04-10T10:38:05Z</time>
      </trkpt>
      <trkpt lat="41.4233980" lon="2.1191390">
        <ele>519.0</ele>
        <time>2018-04-10T10:38:06Z</time>
      </trkpt>
      <trkpt lat="41.4233640" lon="2.1191210">
        <ele>519.2</ele>
        <time>2018-04-10T10:38:07Z</time>
      </trkpt>
      <trkpt lat="41.4232940" lon="2.1190900">
        <ele>519.6</ele>
        <time>2018-04-10T10:38:09Z</time>
      </trkpt>
      <trkpt lat="41.4232190" lon="2.1190500">
        <ele>520.0</ele>
        <time>2018-04-10T10:38:11Z</time>
      </trkpt>
      <trkpt lat="41.4231420" lon="2.1190110">
        <ele>520.6</ele>
        <time>2018-04-10T10:38:13Z</time>
      </trkpt>
      <trkpt lat="41.4230670" lon="2.1189760">
        <ele>521.0</ele>
        <time>2018-04-10T10:38:15Z</time>
      </trkpt>
      <trkpt lat="41.4230290" lon="2.1189540">
        <ele>521.0</ele>
        <time>2018-04-10T10:38:16Z</time>
      </trkpt>
      <trkpt lat="41.4229890" lon="2.1189280">
        <ele>521.2</ele>
        <time>2018-04-10T10:38:17Z</time>
      </trkpt>
      <trkpt lat="41.4229080" lon="2.1188750">
        <ele>521.4</ele>
        <time>2018-04-10T10:38:19Z</time>
      </trkpt>
      <trkpt lat="41.4228670" lon="2.1188540">
        <ele>521.6</ele>
        <time>2018-04-10T10:38:20Z</time>
      </trkpt>
      <trkpt lat="41.4228250" lon="2.1188320">
        <ele>522.0</ele>
        <time>2018-04-10T10:38:21Z</time>
      </trkpt>
      <trkpt lat="41.4227830" lon="2.1187990">
        <ele>522.2</ele>
        <time>2018-04-10T10:38:22Z</time>
      </trkpt>
      <trkpt lat="41.4227420" lon="2.1187620">
        <ele>522.2</ele>
        <time>2018-04-10T10:38:23Z</time>
      </trkpt>
      <trkpt lat="41.4226570" lon="2.1186950">
        <ele>522.6</ele>
        <time>2018-04-10T10:38:25Z</time>
      </trkpt>
      <trkpt lat="41.4226130" lon="2.1186540">
        <ele>522.6</ele>
        <time>2018-04-10T10:38:26Z</time>
      </trkpt>
      <trkpt lat="41.4225720" lon="2.1186110">
        <ele>522.8</ele>
        <time>2018-04-10T10:38:27Z</time>
      </trkpt>
      <trkpt lat="41.4224890" lon="2.1185160">
        <ele>522.8</ele>
        <time>2018-04-10T10:38:29Z</time>
      </trkpt>
      <trkpt lat="41.4223960" lon="2.1184320">
        <ele>522.8</ele>
        <time>2018-04-10T10:38:31Z</time>
      </trkpt>
      <trkpt lat="41.4222840" lon="2.1183800">
        <ele>522.8</ele>
        <time>2018-04-10T10:38:33Z</time>
      </trkpt>
      <trkpt lat="41.4221590" lon="2.1183790">
        <ele>522.6</ele>
        <time>2018-04-10T10:38:35Z</time>
      </trkpt>
      <trkpt lat="41.4220350" lon="2.1184300">
        <ele>522.4</ele>
        <time>2018-04-10T10:38:37Z</time>
      </trkpt>
      <trkpt lat="41.4219190" lon="2.1185290">
        <ele>521.8</ele>
        <time>2018-04-10T10:38:39Z</time>
      </trkpt>
      <trkpt lat="41.4218220" lon="2.1186770">
        <ele>521.2</ele>
        <time>2018-04-10T10:38:41Z</time>
      </trkpt>
      <trkpt lat="41.4217140" lon="2.1188260">
        <ele>520.0</ele>
        <time>2018-04-10T10:38:43Z</time>
      </trkpt>
      <trkpt lat="41.4216110" lon="2.1189690">
        <ele>519.2</ele>
        <time>2018-04-10T10:38:45Z</time>
      </trkpt>
      <trkpt lat="41.4215760" lon="2.1190130">
        <ele>518.8</ele>
        <time>2018-04-10T10:38:46Z</time>
      </trkpt>
      <trkpt lat="41.4215560" lon="2.1190400">
        <ele>518.2</ele>
        <time>2018-04-10T10:38:47Z</time>
      </trkpt>
      <trkpt lat="41.4215270" lon="2.1190830">
        <ele>517.6</ele>
        <time>2018-04-10T10:38:49Z</time>
      </trkpt>
      <trkpt lat="41.4214810" lon="2.1191150">
        <ele>517.2</ele>
        <time>2018-04-10T10:38:51Z</time>
      </trkpt>
      <trkpt lat="41.4214300" lon="2.1191350">
        <ele>516.8</ele>
        <time>2018-04-10T10:38:53Z</time>
      </trkpt>
      <trkpt lat="41.4214010" lon="2.1191420">
        <ele>516.6</ele>
        <time>2018-04-10T10:38:54Z</time>
      </trkpt>
      <trkpt lat="41.4213720" lon="2.1191590">
        <ele>516.6</ele>
        <time>2018-04-10T10:38:55Z</time>
      </trkpt>
      <trkpt lat="41.4213330" lon="2.1192250">
        <ele>516.4</ele>
        <time>2018-04-10T10:38:57Z</time>
      </trkpt>
      <trkpt lat="41.4212940" lon="2.1193130">
        <ele>516.4</ele>
        <time>2018-04-10T10:38:59Z</time>
      </trkpt>
      <trkpt lat="41.4212450" lon="2.1193780">
        <ele>516.4</ele>
        <time>2018-04-10T10:39:01Z</time>
      </trkpt>
      <trkpt lat="41.4212200" lon="2.1194510">
        <ele>516.4</ele>
        <time>2018-04-10T10:39:03Z</time>
      </trkpt>
      <trkpt lat="41.4212110" lon="2.1194990">
        <ele>516.4</ele>
        <time>2018-04-10T10:39:05Z</time>
      </trkpt>
      <trkpt lat="41.4212250" lon="2.1195070">
        <ele>516.4</ele>
        <time>2018-04-10T10:39:07Z</time>
      </trkpt>
      <trkpt lat="41.4212320" lon="2.1195060">
        <ele>516.4</ele>
        <time>2018-04-10T10:39:09Z</time>
      </trkpt>
      <trkpt lat="41.4212340" lon="2.1195160">
        <ele>516.8</ele>
        <time>2018-04-10T10:39:11Z</time>
      </trkpt>
      <trkpt lat="41.4212350" lon="2.1195190">
        <ele>516.8</ele>
        <time>2018-04-10T10:39:13Z</time>
      </trkpt>
      <trkpt lat="41.4212320" lon="2.1195220">
        <ele>517.0</ele>
        <time>2018-04-10T10:39:15Z</time>
      </trkpt>
      <trkpt lat="41.4212310" lon="2.1195220">
        <ele>517.0</ele>
        <time>2018-04-10T10:39:17Z</time>
      </trkpt>
      <trkpt lat="41.4212310" lon="2.1195220">
        <ele>517.0</ele>
        <time>2018-04-10T10:39:19Z</time>
      </trkpt>
      <trkpt lat="41.4212310" lon="2.1195210">
        <ele>517.2</ele>
        <time>2018-04-10T10:39:21Z</time>
      </trkpt>
      <trkpt lat="41.4212310" lon="2.1195210">
        <ele>517.2</ele>
        <time>2018-04-10T10:39:23Z</time>
      </trkpt>
      <trkpt lat="41.4212310" lon="2.1195210">
        <ele>517.2</ele>
        <time>2018-04-10T10:39:25Z</time>
      </trkpt>
      <trkpt lat="41.4212310" lon="2.1195210">
        <ele>517.2</ele>
        <time>2018-04-10T10:39:27Z</time>
      </trkpt>
      <trkpt lat="41.4212310" lon="2.1195210">
        <ele>517.2</ele>
        <time>2018-04-10T10:39:29Z</time>
      </trkpt>
      <trkpt lat="41.4212310" lon="2.1195210">
        <ele>517.2</ele>
        <time>2018-04-10T10:39:31Z</time>
      </trkpt>
      <trkpt lat="41.4212310" lon="2.1195210">
        <ele>517.4</ele>
        <time>2018-04-10T10:39:33Z</time>
      </trkpt>
      <trkpt lat="41.4212310" lon="2.1195210">
        <ele>517.4</ele>
        <time>2018-04-10T10:39:35Z</time>
      </trkpt>
      <trkpt lat="41.4212320" lon="2.1195210">
        <ele>517.2</ele>
        <time>2018-04-10T10:39:37Z</time>
      </trkpt>
      <trkpt lat="41.4212320" lon="2.1195210">
        <ele>517.2</ele>
        <time>2018-04-10T10:39:39Z</time>
      </trkpt>
      <trkpt lat="41.4212320" lon="2.1195210">
        <ele>517.2</ele>
        <time>2018-04-10T10:39:41Z</time>
      </trkpt>
      <trkpt lat="41.4212320" lon="2.1195210">
        <ele>517.4</ele>
        <time>2018-04-10T10:39:43Z</time>
      </trkpt>
      <trkpt lat="41.4212320" lon="2.1195210">
        <ele>517.2</ele>
        <time>2018-04-10T10:39:45Z</time>
      </trkpt>
      <trkpt lat="41.4212320" lon="2.1195220">
        <ele>517.2</ele>
        <time>2018-04-10T10:39:47Z</time>
      </trkpt>
      <trkpt lat="41.4212320" lon="2.1195220">
        <ele>517.2</ele>
        <time>2018-04-10T10:39:49Z</time>
      </trkpt>
      <trkpt lat="41.4212320" lon="2.1195220">
        <ele>517.0</ele>
        <time>2018-04-10T10:39:51Z</time>
      </trkpt>
      <trkpt lat="41.4212320" lon="2.1195220">
        <ele>516.8</ele>
        <time>2018-04-10T10:39:53Z</time>
      </trkpt>
      <trkpt lat="41.4212320" lon="2.1195220">
        <ele>516.8</ele>
        <time>2018-04-10T10:39:55Z</time>
      </trkpt>
      <trkpt lat="41.4212320" lon="2.1195220">
        <ele>516.8</ele>
        <time>2018-04-10T10:39:57Z</time>
      </trkpt>
      <trkpt lat="41.4212320" lon="2.1195220">
        <ele>516.6</ele>
        <time>2018-04-10T10:39:59Z</time>
      </trkpt>
      <trkpt lat="41.4212320" lon="2.1195220">
        <ele>516.8</ele>
        <time>2018-04-10T10:40:01Z</time>
      </trkpt>
      <trkpt lat="41.4212320" lon="2.1195210">
        <ele>516.8</ele>
        <time>2018-04-10T10:40:03Z</time>
      </trkpt>
      <trkpt lat="41.4212310" lon="2.1195200">
        <ele>516.8</ele>
        <time>2018-04-10T10:40:05Z</time>
      </trkpt>
      <trkpt lat="41.4212390" lon="2.1195060">
        <ele>516.8</ele>
        <time>2018-04-10T10:40:07Z</time>
      </trkpt>
      <trkpt lat="41.4212550" lon="2.1194800">
        <ele>516.8</ele>
        <time>2018-04-10T10:40:09Z</time>
      </trkpt>
      <trkpt lat="41.4212790" lon="2.1194450">
        <ele>516.8</ele>
        <time>2018-04-10T10:40:11Z</time>
      </trkpt>
      <trkpt lat="41.4212960" lon="2.1193800">
        <ele>516.8</ele>
        <time>2018-04-10T10:40:13Z</time>
      </trkpt>
      <trkpt lat="41.4213170" lon="2.1193090">
        <ele>516.8</ele>
        <time>2018-04-10T10:40:15Z</time>
      </trkpt>
      <trkpt lat="41.4213680" lon="2.1192460">
        <ele>516.6</ele>
        <time>2018-04-10T10:40:17Z</time>
      </trkpt>
      <trkpt lat="41.4214370" lon="2.1192080">
        <ele>516.6</ele>
        <time>2018-04-10T10:40:19Z</time>
      </trkpt>
      <trkpt lat="41.4214950" lon="2.1191490">
        <ele>516.6</ele>
        <time>2018-04-10T10:40:21Z</time>
      </trkpt>
      <trkpt lat="41.4215270" lon="2.1191100">
        <ele>516.4</ele>
        <time>2018-04-10T10:40:22Z</time>
      </trkpt>
      <trkpt lat="41.4215540" lon="2.1190670">
        <ele>516.4</ele>
        <time>2018-04-10T10:40:23Z</time>
      </trkpt>
      <trkpt lat="41.4215990" lon="2.1189770">
        <ele>516.4</ele>
        <time>2018-04-10T10:40:25Z</time>
      </trkpt>
      <trkpt lat="41.4216210" lon="2.1188830">
        <ele>516.4</ele>
        <time>2018-04-10T10:40:27Z</time>
      </trkpt>
      <trkpt lat="41.4216530" lon="2.1188190">
        <ele>516.4</ele>
        <time>2018-04-10T10:40:29Z</time>
      </trkpt>
      <trkpt lat="41.4216670" lon="2.1187930">
        <ele>516.4</ele>
        <time>2018-04-10T10:40:30Z</time>
      </trkpt>
      <trkpt lat="41.4216840" lon="2.1187660">
        <ele>516.4</ele>
        <time>2018-04-10T10:40:31Z</time>
      </trkpt>
      <trkpt lat="41.4217240" lon="2.1186970">
        <ele>516.4</ele>
        <time>2018-04-10T10:40:33Z</time>
      </trkpt>
      <trkpt lat="41.4217700" lon="2.1186140">
        <ele>516.4</ele>
        <time>2018-04-10T10:40:35Z</time>
      </trkpt>
      <trkpt lat="41.4218220" lon="2.1185300">
        <ele>516.6</ele>
        <time>2018-04-10T10:40:37Z</time>
      </trkpt>
      <trkpt lat="41.4218760" lon="2.1184540">
        <ele>516.6</ele>
        <time>2018-04-10T10:40:39Z</time>
      </trkpt>
      <trkpt lat="41.4219390" lon="2.1183900">
        <ele>516.6</ele>
        <time>2018-04-10T10:40:41Z</time>
      </trkpt>
      <trkpt lat="41.4220070" lon="2.1183400">
        <ele>516.6</ele>
        <time>2018-04-10T10:40:43Z</time>
      </trkpt>
      <trkpt lat="41.4220760" lon="2.1183080">
        <ele>517.0</ele>
        <time>2018-04-10T10:40:45Z</time>
      </trkpt>
      <trkpt lat="41.4221490" lon="2.1182940">
        <ele>517.4</ele>
        <time>2018-04-10T10:40:47Z</time>
      </trkpt>
      <trkpt lat="41.4222230" lon="2.1183000">
        <ele>517.8</ele>
        <time>2018-04-10T10:40:49Z</time>
      </trkpt>
      <trkpt lat="41.4222930" lon="2.1183160">
        <ele>518.0</ele>
        <time>2018-04-10T10:40:51Z</time>
      </trkpt>
      <trkpt lat="41.4223650" lon="2.1183520">
        <ele>518.2</ele>
        <time>2018-04-10T10:40:53Z</time>
      </trkpt>
      <trkpt lat="41.4224240" lon="2.1184070">
        <ele>518.6</ele>
        <time>2018-04-10T10:40:55Z</time>
      </trkpt>
      <trkpt lat="41.4224750" lon="2.1184800">
        <ele>519.8</ele>
        <time>2018-04-10T10:40:57Z</time>
      </trkpt>
      <trkpt lat="41.4225310" lon="2.1185530">
        <ele>520.4</ele>
        <time>2018-04-10T10:40:59Z</time>
      </trkpt>
      <trkpt lat="41.4225880" lon="2.1186230">
        <ele>520.8</ele>
        <time>2018-04-10T10:41:01Z</time>
      </trkpt>
      <trkpt lat="41.4226180" lon="2.1186560">
        <ele>521.0</ele>
        <time>2018-04-10T10:41:02Z</time>
      </trkpt>
      <trkpt lat="41.4226510" lon="2.1186870">
        <ele>521.2</ele>
        <time>2018-04-10T10:41:03Z</time>
      </trkpt>
      <trkpt lat="41.4227190" lon="2.1187470">
        <ele>521.6</ele>
        <time>2018-04-10T10:41:05Z</time>
      </trkpt>
      <trkpt lat="41.4227850" lon="2.1188090">
        <ele>522.2</ele>
        <time>2018-04-10T10:41:07Z</time>
      </trkpt>
      <trkpt lat="41.4228200" lon="2.1188370">
        <ele>522.4</ele>
        <time>2018-04-10T10:41:08Z</time>
      </trkpt>
      <trkpt lat="41.4228620" lon="2.1188640">
        <ele>522.4</ele>
        <time>2018-04-10T10:41:09Z</time>
      </trkpt>
      <trkpt lat="41.4229460" lon="2.1189170">
        <ele>522.8</ele>
        <time>2018-04-10T10:41:11Z</time>
      </trkpt>
      <trkpt lat="41.4230310" lon="2.1189680">
        <ele>522.8</ele>
        <time>2018-04-10T10:41:13Z</time>
      </trkpt>
      <trkpt lat="41.4230790" lon="2.1189940">
        <ele>522.8</ele>
        <time>2018-04-10T10:41:14Z</time>
      </trkpt>
      <trkpt lat="41.4231310" lon="2.1190190">
        <ele>522.8</ele>
        <time>2018-04-10T10:41:15Z</time>
      </trkpt>
      <trkpt lat="41.4231860" lon="2.1190380">
        <ele>522.8</ele>
        <time>2018-04-10T10:41:16Z</time>
      </trkpt>
      <trkpt lat="41.4232430" lon="2.1190580">
        <ele>522.8</ele>
        <time>2018-04-10T10:41:17Z</time>
      </trkpt>
      <trkpt lat="41.4233630" lon="2.1191030">
        <ele>522.8</ele>
        <time>2018-04-10T10:41:19Z</time>
      </trkpt>
      <trkpt lat="41.4234950" lon="2.1191380">
        <ele>522.8</ele>
        <time>2018-04-10T10:41:21Z</time>
      </trkpt>
      <trkpt lat="41.4236390" lon="2.1191670">
        <ele>522.2</ele>
        <time>2018-04-10T10:41:23Z</time>
      </trkpt>
      <trkpt lat="41.4237900" lon="2.1191920">
        <ele>521.8</ele>
        <time>2018-04-10T10:41:25Z</time>
      </trkpt>
      <trkpt lat="41.4239440" lon="2.1192210">
        <ele>521.6</ele>
        <time>2018-04-10T10:41:27Z</time>
      </trkpt>
      <trkpt lat="41.4241100" lon="2.1192540">
        <ele>521.0</ele>
        <time>2018-04-10T10:41:29Z</time>
      </trkpt>
      <trkpt lat="41.4242580" lon="2.1192750">
        <ele>520.6</ele>
        <time>2018-04-10T10:41:31Z</time>
      </trkpt>
      <trkpt lat="41.4243860" lon="2.1193040">
        <ele>520.0</ele>
        <time>2018-04-10T10:41:33Z</time>
      </trkpt>
      <trkpt lat="41.4244950" lon="2.1193270">
        <ele>519.2</ele>
        <time>2018-04-10T10:41:35Z</time>
      </trkpt>
      <trkpt lat="41.4245460" lon="2.1193310">
        <ele>518.4</ele>
        <time>2018-04-10T10:41:36Z</time>
      </trkpt>
      <trkpt lat="41.4245970" lon="2.1193400">
        <ele>517.8</ele>
        <time>2018-04-10T10:41:37Z</time>
      </trkpt>
      <trkpt lat="41.4246470" lon="2.1193510">
        <ele>517.4</ele>
        <time>2018-04-10T10:41:38Z</time>
      </trkpt>
      <trkpt lat="41.4246920" lon="2.1193630">
        <ele>517.0</ele>
        <time>2018-04-10T10:41:39Z</time>
      </trkpt>
      <trkpt lat="41.4247750" lon="2.1193900">
        <ele>516.2</ele>
        <time>2018-04-10T10:41:41Z</time>
      </trkpt>
      <trkpt lat="41.4248230" lon="2.1194020">
        <ele>515.8</ele>
        <time>2018-04-10T10:41:42Z</time>
      </trkpt>
      <trkpt lat="41.4248750" lon="2.1194110">
        <ele>515.4</ele>
        <time>2018-04-10T10:41:43Z</time>
      </trkpt>
      <trkpt lat="41.4249840" lon="2.1194350">
        <ele>514.8</ele>
        <time>2018-04-10T10:41:45Z</time>
      </trkpt>
      <trkpt lat="41.4250910" lon="2.1194640">
        <ele>514.2</ele>
        <time>2018-04-10T10:41:47Z</time>
      </trkpt>
      <trkpt lat="41.4252020" lon="2.1194960">
        <ele>513.8</ele>
        <time>2018-04-10T10:41:49Z</time>
      </trkpt>
      <trkpt lat="41.4253080" lon="2.1195240">
        <ele>513.2</ele>
        <time>2018-04-10T10:41:51Z</time>
      </trkpt>
      <trkpt lat="41.4253940" lon="2.1195500">
        <ele>512.6</ele>
        <time>2018-04-10T10:41:53Z</time>
      </trkpt>
      <trkpt lat="41.4254680" lon="2.1195760">
        <ele>511.8</ele>
        <time>2018-04-10T10:41:55Z</time>
      </trkpt>
      <trkpt lat="41.4255110" lon="2.1195930">
        <ele>511.4</ele>
        <time>2018-04-10T10:41:56Z</time>
      </trkpt>
      <trkpt lat="41.4255530" lon="2.1196220">
        <ele>511.0</ele>
        <time>2018-04-10T10:41:57Z</time>
      </trkpt>
      <trkpt lat="41.4256180" lon="2.1197350">
        <ele>510.4</ele>
        <time>2018-04-10T10:41:59Z</time>
      </trkpt>
      <trkpt lat="41.4256470" lon="2.1198120">
        <ele>510.2</ele>
        <time>2018-04-10T10:42:00Z</time>
      </trkpt>
      <trkpt lat="41.4256740" lon="2.1199000">
        <ele>509.8</ele>
        <time>2018-04-10T10:42:01Z</time>
      </trkpt>
      <trkpt lat="41.4256990" lon="2.1199980">
        <ele>509.6</ele>
        <time>2018-04-10T10:42:02Z</time>
      </trkpt>
      <trkpt lat="41.4257220" lon="2.1201010">
        <ele>509.4</ele>
        <time>2018-04-10T10:42:03Z</time>
      </trkpt>
      <trkpt lat="41.4257600" lon="2.1203230">
        <ele>509.0</ele>
        <time>2018-04-10T10:42:05Z</time>
      </trkpt>
      <trkpt lat="41.4257930" lon="2.1205630">
        <ele>508.2</ele>
        <time>2018-04-10T10:42:07Z</time>
      </trkpt>
      <trkpt lat="41.4258130" lon="2.1206880">
        <ele>507.6</ele>
        <time>2018-04-10T10:42:08Z</time>
      </trkpt>
      <trkpt lat="41.4258360" lon="2.1208140">
        <ele>507.2</ele>
        <time>2018-04-10T10:42:09Z</time>
      </trkpt>
      <trkpt lat="41.4258470" lon="2.1209440">
        <ele>506.8</ele>
        <time>2018-04-10T10:42:10Z</time>
      </trkpt>
      <trkpt lat="41.4258340" lon="2.1210730">
        <ele>506.2</ele>
        <time>2018-04-10T10:42:11Z</time>
      </trkpt>
      <trkpt lat="41.4257390" lon="2.1212920">
        <ele>505.2</ele>
        <time>2018-04-10T10:42:13Z</time>
      </trkpt>
      <trkpt lat="41.4256700" lon="2.1213620">
        <ele>504.4</ele>
        <time>2018-04-10T10:42:14Z</time>
      </trkpt>
      <trkpt lat="41.4255940" lon="2.1213930">
        <ele>503.8</ele>
        <time>2018-04-10T10:42:15Z</time>
      </trkpt>
      <trkpt lat="41.4255170" lon="2.1213900">
        <ele>503.4</ele>
        <time>2018-04-10T10:42:16Z</time>
      </trkpt>
      <trkpt lat="41.4254350" lon="2.1213580">
        <ele>503.0</ele>
        <time>2018-04-10T10:42:17Z</time>
      </trkpt>
      <trkpt lat="41.4253470" lon="2.1213130">
        <ele>502.2</ele>
        <time>2018-04-10T10:42:18Z</time>
      </trkpt>
      <trkpt lat="41.4252590" lon="2.1212600">
        <ele>501.6</ele>
        <time>2018-04-10T10:42:19Z</time>
      </trkpt>
      <trkpt lat="41.4251690" lon="2.1212030">
        <ele>501.0</ele>
        <time>2018-04-10T10:42:20Z</time>
      </trkpt>
      <trkpt lat="41.4250750" lon="2.1211430">
        <ele>500.6</ele>
        <time>2018-04-10T10:42:21Z</time>
      </trkpt>
      <trkpt lat="41.4248860" lon="2.1210230">
        <ele>499.6</ele>
        <time>2018-04-10T10:42:23Z</time>
      </trkpt>
      <trkpt lat="41.4246980" lon="2.1209090">
        <ele>498.8</ele>
        <time>2018-04-10T10:42:25Z</time>
      </trkpt>
      <trkpt lat="41.4246080" lon="2.1208520">
        <ele>498.2</ele>
        <time>2018-04-10T10:42:26Z</time>
      </trkpt>
      <trkpt lat="41.4245160" lon="2.1207950">
        <ele>497.4</ele>
        <time>2018-04-10T10:42:27Z</time>
      </trkpt>
      <trkpt lat="41.4244250" lon="2.1207380">
        <ele>496.4</ele>
        <time>2018-04-10T10:42:28Z</time>
      </trkpt>
      <trkpt lat="41.4243320" lon="2.1206790">
        <ele>495.8</ele>
        <time>2018-04-10T10:42:29Z</time>
      </trkpt>
      <trkpt lat="41.4242390" lon="2.1206210">
        <ele>495.2</ele>
        <time>2018-04-10T10:42:30Z</time>
      </trkpt>
      <trkpt lat="41.4241430" lon="2.1205650">
        <ele>494.8</ele>
        <time>2018-04-10T10:42:31Z</time>
      </trkpt>
      <trkpt lat="41.4240460" lon="2.1205190">
        <ele>494.4</ele>
        <time>2018-04-10T10:42:32Z</time>
      </trkpt>
      <trkpt lat="41.4239470" lon="2.1204890">
        <ele>493.4</ele>
        <time>2018-04-10T10:42:33Z</time>
      </trkpt>
      <trkpt lat="41.4238490" lon="2.1204720">
        <ele>491.8</ele>
        <time>2018-04-10T10:42:34Z</time>
      </trkpt>
      <trkpt lat="41.4237530" lon="2.1204680">
        <ele>491.2</ele>
        <time>2018-04-10T10:42:35Z</time>
      </trkpt>
      <trkpt lat="41.4235610" lon="2.1204870">
        <ele>490.2</ele>
        <time>2018-04-10T10:42:37Z</time>
      </trkpt>
      <trkpt lat="41.4233770" lon="2.1205180">
        <ele>489.6</ele>
        <time>2018-04-10T10:42:39Z</time>
      </trkpt>
      <trkpt lat="41.4232880" lon="2.1205340">
        <ele>489.2</ele>
        <time>2018-04-10T10:42:40Z</time>
      </trkpt>
      <trkpt lat="41.4232000" lon="2.1205470">
        <ele>488.6</ele>
        <time>2018-04-10T10:42:41Z</time>
      </trkpt>
      <trkpt lat="41.4231170" lon="2.1205500">
        <ele>488.0</ele>
        <time>2018-04-10T10:42:42Z</time>
      </trkpt>
      <trkpt lat="41.4230370" lon="2.1205350">
        <ele>487.4</ele>
        <time>2018-04-10T10:42:43Z</time>
      </trkpt>
      <trkpt lat="41.4229600" lon="2.1205060">
        <ele>486.8</ele>
        <time>2018-04-10T10:42:44Z</time>
      </trkpt>
      <trkpt lat="41.4228890" lon="2.1204690">
        <ele>486.2</ele>
        <time>2018-04-10T10:42:45Z</time>
      </trkpt>
      <trkpt lat="41.4228180" lon="2.1204430">
        <ele>485.6</ele>
        <time>2018-04-10T10:42:46Z</time>
      </trkpt>
      <trkpt lat="41.4227490" lon="2.1204370">
        <ele>484.8</ele>
        <time>2018-04-10T10:42:47Z</time>
      </trkpt>
      <trkpt lat="41.4226890" lon="2.1204550">
        <ele>484.2</ele>
        <time>2018-04-10T10:42:48Z</time>
      </trkpt>
      <trkpt lat="41.4226400" lon="2.1204910">
        <ele>483.6</ele>
        <time>2018-04-10T10:42:49Z</time>
      </trkpt>
      <trkpt lat="41.4226060" lon="2.1205410">
        <ele>483.2</ele>
        <time>2018-04-10T10:42:50Z</time>
      </trkpt>
      <trkpt lat="41.4225830" lon="2.1206010">
        <ele>482.8</ele>
        <time>2018-04-10T10:42:51Z</time>
      </trkpt>
      <trkpt lat="41.4225780" lon="2.1207120">
        <ele>482.0</ele>
        <time>2018-04-10T10:42:53Z</time>
      </trkpt>
      <trkpt lat="41.4226210" lon="2.1207960">
        <ele>481.6</ele>
        <time>2018-04-10T10:42:55Z</time>
      </trkpt>
      <trkpt lat="41.4227020" lon="2.1208250">
        <ele>481.2</ele>
        <time>2018-04-10T10:42:57Z</time>
      </trkpt>
      <trkpt lat="41.4227500" lon="2.1208300">
        <ele>481.0</ele>
        <time>2018-04-10T10:42:58Z</time>
      </trkpt>
      <trkpt lat="41.4228050" lon="2.1208310">
        <ele>480.8</ele>
        <time>2018-04-10T10:42:59Z</time>
      </trkpt>
      <trkpt lat="41.4228650" lon="2.1208270">
        <ele>480.6</ele>
        <time>2018-04-10T10:43:00Z</time>
      </trkpt>
      <trkpt lat="41.4229300" lon="2.1208150">
        <ele>480.2</ele>
        <time>2018-04-10T10:43:01Z</time>
      </trkpt>
      <trkpt lat="41.4230690" lon="2.1207780">
        <ele>479.6</ele>
        <time>2018-04-10T10:43:03Z</time>
      </trkpt>
      <trkpt lat="41.4231460" lon="2.1207630">
        <ele>479.4</ele>
        <time>2018-04-10T10:43:04Z</time>
      </trkpt>
      <trkpt lat="41.4232280" lon="2.1207590">
        <ele>479.2</ele>
        <time>2018-04-10T10:43:05Z</time>
      </trkpt>
      <trkpt lat="41.4233950" lon="2.1207850">
        <ele>478.8</ele>
        <time>2018-04-10T10:43:07Z</time>
      </trkpt>
      <trkpt lat="41.4234800" lon="2.1208050">
        <ele>478.6</ele>
        <time>2018-04-10T10:43:08Z</time>
      </trkpt>
      <trkpt lat="41.4235690" lon="2.1208300">
        <ele>478.4</ele>
        <time>2018-04-10T10:43:09Z</time>
      </trkpt>
      <trkpt lat="41.4237490" lon="2.1208860">
        <ele>477.8</ele>
        <time>2018-04-10T10:43:11Z</time>
      </trkpt>
      <trkpt lat="41.4238390" lon="2.1209200">
        <ele>477.6</ele>
        <time>2018-04-10T10:43:12Z</time>
      </trkpt>
      <trkpt lat="41.4239250" lon="2.1209610">
        <ele>477.2</ele>
        <time>2018-04-10T10:43:13Z</time>
      </trkpt>
      <trkpt lat="41.4240940" lon="2.1210720">
        <ele>476.4</ele>
        <time>2018-04-10T10:43:15Z</time>
      </trkpt>
      <trkpt lat="41.4241750" lon="2.1211380">
        <ele>476.0</ele>
        <time>2018-04-10T10:43:16Z</time>
      </trkpt>
      <trkpt lat="41.4242540" lon="2.1212140">
        <ele>475.4</ele>
        <time>2018-04-10T10:43:17Z</time>
      </trkpt>
      <trkpt lat="41.4243300" lon="2.1212980">
        <ele>474.8</ele>
        <time>2018-04-10T10:43:18Z</time>
      </trkpt>
      <trkpt lat="41.4244010" lon="2.1213880">
        <ele>474.2</ele>
        <time>2018-04-10T10:43:19Z</time>
      </trkpt>
      <trkpt lat="41.4244680" lon="2.1214860">
        <ele>473.8</ele>
        <time>2018-04-10T10:43:20Z</time>
      </trkpt>
      <trkpt lat="41.4245320" lon="2.1215880">
        <ele>473.2</ele>
        <time>2018-04-10T10:43:21Z</time>
      </trkpt>
      <trkpt lat="41.4245970" lon="2.1216930">
        <ele>472.6</ele>
        <time>2018-04-10T10:43:22Z</time>
      </trkpt>
      <trkpt lat="41.4246600" lon="2.1218020">
        <ele>472.2</ele>
        <time>2018-04-10T10:43:23Z</time>
      </trkpt>
      <trkpt lat="41.4247900" lon="2.1220260">
        <ele>471.2</ele>
        <time>2018-04-10T10:43:25Z</time>
      </trkpt>
      <trkpt lat="41.4248630" lon="2.1221360">
        <ele>470.6</ele>
        <time>2018-04-10T10:43:26Z</time>
      </trkpt>
      <trkpt lat="41.4249460" lon="2.1222350">
        <ele>470.2</ele>
        <time>2018-04-10T10:43:27Z</time>
      </trkpt>
      <trkpt lat="41.4251400" lon="2.1223960">
        <ele>469.0</ele>
        <time>2018-04-10T10:43:29Z</time>
      </trkpt>
      <trkpt lat="41.4253640" lon="2.1225240">
        <ele>468.2</ele>
        <time>2018-04-10T10:43:31Z</time>
      </trkpt>
      <trkpt lat="41.4254800" lon="2.1225930">
        <ele>467.2</ele>
        <time>2018-04-10T10:43:32Z</time>
      </trkpt>
      <trkpt lat="41.4255960" lon="2.1226610">
        <ele>466.6</ele>
        <time>2018-04-10T10:43:33Z</time>
      </trkpt>
      <trkpt lat="41.4257140" lon="2.1227300">
        <ele>466.0</ele>
        <time>2018-04-10T10:43:34Z</time>
      </trkpt>
      <trkpt lat="41.4258340" lon="2.1227990">
        <ele>465.2</ele>
        <time>2018-04-10T10:43:35Z</time>
      </trkpt>
      <trkpt lat="41.4259550" lon="2.1228680">
        <ele>464.4</ele>
        <time>2018-04-10T10:43:36Z</time>
      </trkpt>
      <trkpt lat="41.4260780" lon="2.1229400">
        <ele>463.8</ele>
        <time>2018-04-10T10:43:37Z</time>
      </trkpt>
      <trkpt lat="41.4262020" lon="2.1230150">
        <ele>463.2</ele>
        <time>2018-04-10T10:43:38Z</time>
      </trkpt>
      <trkpt lat="41.4263250" lon="2.1230840">
        <ele>462.2</ele>
        <time>2018-04-10T10:43:39Z</time>
      </trkpt>
      <trkpt lat="41.4264540" lon="2.1231410">
        <ele>461.6</ele>
        <time>2018-04-10T10:43:40Z</time>
      </trkpt>
      <trkpt lat="41.4265880" lon="2.1231860">
        <ele>460.8</ele>
        <time>2018-04-10T10:43:41Z</time>
      </trkpt>
      <trkpt lat="41.4267270" lon="2.1232210">
        <ele>459.8</ele>
        <time>2018-04-10T10:43:42Z</time>
      </trkpt>
      <trkpt lat="41.4268700" lon="2.1232440">
        <ele>458.8</ele>
        <time>2018-04-10T10:43:43Z</time>
      </trkpt>
      <trkpt lat="41.4270150" lon="2.1232580">
        <ele>457.8</ele>
        <time>2018-04-10T10:43:44Z</time>
      </trkpt>
      <trkpt lat="41.4271610" lon="2.1232700">
        <ele>457.0</ele>
        <time>2018-04-10T10:43:45Z</time>
      </trkpt>
      <trkpt lat="41.4273070" lon="2.1232860">
        <ele>456.0</ele>
        <time>2018-04-10T10:43:46Z</time>
      </trkpt>
      <trkpt lat="41.4274520" lon="2.1232970">
        <ele>455.2</ele>
        <time>2018-04-10T10:43:47Z</time>
      </trkpt>
      <trkpt lat="41.4275970" lon="2.1233040">
        <ele>454.2</ele>
        <time>2018-04-10T10:43:48Z</time>
      </trkpt>
      <trkpt lat="41.4277440" lon="2.1233120">
        <ele>453.2</ele>
        <time>2018-04-10T10:43:49Z</time>
      </trkpt>
      <trkpt lat="41.4278910" lon="2.1233240">
        <ele>452.2</ele>
        <time>2018-04-10T10:43:50Z</time>
      </trkpt>
      <trkpt lat="41.4280390" lon="2.1233360">
        <ele>451.0</ele>
        <time>2018-04-10T10:43:51Z</time>
      </trkpt>
      <trkpt lat="41.4281820" lon="2.1233470">
        <ele>450.0</ele>
        <time>2018-04-10T10:43:52Z</time>
      </trkpt>
      <trkpt lat="41.4283150" lon="2.1233600">
        <ele>449.0</ele>
        <time>2018-04-10T10:43:53Z</time>
      </trkpt>
      <trkpt lat="41.4284360" lon="2.1233790">
        <ele>447.8</ele>
        <time>2018-04-10T10:43:54Z</time>
      </trkpt>
      <trkpt lat="41.4285460" lon="2.1233990">
        <ele>446.8</ele>
        <time>2018-04-10T10:43:55Z</time>
      </trkpt>
      <trkpt lat="41.4286430" lon="2.1234190">
        <ele>445.6</ele>
        <time>2018-04-10T10:43:56Z</time>
      </trkpt>
      <trkpt lat="41.4287260" lon="2.1234300">
        <ele>444.6</ele>
        <time>2018-04-10T10:43:57Z</time>
      </trkpt>
      <trkpt lat="41.4288480" lon="2.1234150">
        <ele>442.6</ele>
        <time>2018-04-10T10:43:59Z</time>
      </trkpt>
      <trkpt lat="41.4288850" lon="2.1233850">
        <ele>441.4</ele>
        <time>2018-04-10T10:44:00Z</time>
      </trkpt>
      <trkpt lat="41.4289090" lon="2.1233390">
        <ele>440.6</ele>
        <time>2018-04-10T10:44:01Z</time>
      </trkpt>
      <trkpt lat="41.4289280" lon="2.1232810">
        <ele>438.8</ele>
        <time>2018-04-10T10:44:02Z</time>
      </trkpt>
      <trkpt lat="41.4289350" lon="2.1232120">
        <ele>438.0</ele>
        <time>2018-04-10T10:44:03Z</time>
      </trkpt>
      <trkpt lat="41.4289280" lon="2.1231380">
        <ele>437.4</ele>
        <time>2018-04-10T10:44:04Z</time>
      </trkpt>
      <trkpt lat="41.4289100" lon="2.1230630">
        <ele>436.8</ele>
        <time>2018-04-10T10:44:05Z</time>
      </trkpt>
      <trkpt lat="41.4288820" lon="2.1229860">
        <ele>436.2</ele>
        <time>2018-04-10T10:44:06Z</time>
      </trkpt>
      <trkpt lat="41.4288450" lon="2.1229110">
        <ele>435.6</ele>
        <time>2018-04-10T10:44:07Z</time>
      </trkpt>
      <trkpt lat="41.4288020" lon="2.1228400">
        <ele>435.0</ele>
        <time>2018-04-10T10:44:08Z</time>
      </trkpt>
      <trkpt lat="41.4287560" lon="2.1227660">
        <ele>434.8</ele>
        <time>2018-04-10T10:44:09Z</time>
      </trkpt>
      <trkpt lat="41.4286610" lon="2.1226180">
        <ele>434.4</ele>
        <time>2018-04-10T10:44:11Z</time>
      </trkpt>
      <trkpt lat="41.4285740" lon="2.1224590">
        <ele>434.4</ele>
        <time>2018-04-10T10:44:13Z</time>
      </trkpt>
      <trkpt lat="41.4284860" lon="2.1223010">
        <ele>434.2</ele>
        <time>2018-04-10T10:44:15Z</time>
      </trkpt>
      <trkpt lat="41.4284000" lon="2.1221350">
        <ele>434.2</ele>
        <time>2018-04-10T10:44:17Z</time>
      </trkpt>
      <trkpt lat="41.4283140" lon="2.1219720">
        <ele>434.0</ele>
        <time>2018-04-10T10:44:19Z</time>
      </trkpt>
      <trkpt lat="41.4282270" lon="2.1218140">
        <ele>434.0</ele>
        <time>2018-04-10T10:44:21Z</time>
      </trkpt>
      <trkpt lat="41.4281360" lon="2.1216560">
        <ele>434.2</ele>
        <time>2018-04-10T10:44:23Z</time>
      </trkpt>
      <trkpt lat="41.4280320" lon="2.1215040">
        <ele>434.2</ele>
        <time>2018-04-10T10:44:25Z</time>
      </trkpt>
      <trkpt lat="41.4279170" lon="2.1213590">
        <ele>434.2</ele>
        <time>2018-04-10T10:44:27Z</time>
      </trkpt>
      <trkpt lat="41.4277950" lon="2.1212290">
        <ele>434.2</ele>
        <time>2018-04-10T10:44:29Z</time>
      </trkpt>
      <trkpt lat="41.4276720" lon="2.1211080">
        <ele>434.0</ele>
        <time>2018-04-10T10:44:31Z</time>
      </trkpt>
      <trkpt lat="41.4275490" lon="2.1209790">
        <ele>434.0</ele>
        <time>2018-04-10T10:44:33Z</time>
      </trkpt>
      <trkpt lat="41.4274920" lon="2.1209060">
        <ele>433.8</ele>
        <time>2018-04-10T10:44:34Z</time>
      </trkpt>
      <trkpt lat="41.4274400" lon="2.1208250">
        <ele>433.8</ele>
        <time>2018-04-10T10:44:35Z</time>
      </trkpt>
      <trkpt lat="41.4273480" lon="2.1206420">
        <ele>433.6</ele>
        <time>2018-04-10T10:44:37Z</time>
      </trkpt>
      <trkpt lat="41.4272780" lon="2.1204410">
        <ele>433.4</ele>
        <time>2018-04-10T10:44:39Z</time>
      </trkpt>
      <trkpt lat="41.4272520" lon="2.1203360">
        <ele>433.4</ele>
        <time>2018-04-10T10:44:40Z</time>
      </trkpt>
      <trkpt lat="41.4272320" lon="2.1202300">
        <ele>433.4</ele>
        <time>2018-04-10T10:44:41Z</time>
      </trkpt>
      <trkpt lat="41.4272110" lon="2.1200110">
        <ele>433.4</ele>
        <time>2018-04-10T10:44:43Z</time>
      </trkpt>
      <trkpt lat="41.4272130" lon="2.1197830">
        <ele>433.2</ele>
        <time>2018-04-10T10:44:45Z</time>
      </trkpt>
      <trkpt lat="41.4272480" lon="2.1195490">
        <ele>433.0</ele>
        <time>2018-04-10T10:44:47Z</time>
      </trkpt>
      <trkpt lat="41.4272750" lon="2.1194340">
        <ele>433.0</ele>
        <time>2018-04-10T10:44:48Z</time>
      </trkpt>
      <trkpt lat="41.4273010" lon="2.1193180">
        <ele>433.0</ele>
        <time>2018-04-10T10:44:49Z</time>
      </trkpt>
      <trkpt lat="41.4273530" lon="2.1190850">
        <ele>432.8</ele>
        <time>2018-04-10T10:44:51Z</time>
      </trkpt>
      <trkpt lat="41.4274030" lon="2.1188490">
        <ele>432.8</ele>
        <time>2018-04-10T10:44:53Z</time>
      </trkpt>
      <trkpt lat="41.4274520" lon="2.1186150">
        <ele>432.6</ele>
        <time>2018-04-10T10:44:55Z</time>
      </trkpt>
      <trkpt lat="41.4275050" lon="2.1183810">
        <ele>432.6</ele>
        <time>2018-04-10T10:44:57Z</time>
      </trkpt>
      <trkpt lat="41.4275320" lon="2.1182640">
        <ele>432.6</ele>
        <time>2018-04-10T10:44:58Z</time>
      </trkpt>
      <trkpt lat="41.4275580" lon="2.1181500">
        <ele>432.6</ele>
        <time>2018-04-10T10:44:59Z</time>
      </trkpt>
      <trkpt lat="41.4276070" lon="2.1179260">
        <ele>432.4</ele>
        <time>2018-04-10T10:45:01Z</time>
      </trkpt>
      <trkpt lat="41.4276550" lon="2.1177040">
        <ele>432.4</ele>
        <time>2018-04-10T10:45:03Z</time>
      </trkpt>
      <trkpt lat="41.4277110" lon="2.1174850">
        <ele>432.4</ele>
        <time>2018-04-10T10:45:05Z</time>
      </trkpt>
      <trkpt lat="41.4277870" lon="2.1172810">
        <ele>432.4</ele>
        <time>2018-04-10T10:45:07Z</time>
      </trkpt>
      <trkpt lat="41.4278990" lon="2.1171100">
        <ele>432.2</ele>
        <time>2018-04-10T10:45:09Z</time>
      </trkpt>
      <trkpt lat="41.4280360" lon="2.1169740">
        <ele>432.2</ele>
        <time>2018-04-10T10:45:11Z</time>
      </trkpt>
      <trkpt lat="41.4281110" lon="2.1169200">
        <ele>432.2</ele>
        <time>2018-04-10T10:45:12Z</time>
      </trkpt>
      <trkpt lat="41.4281890" lon="2.1168750">
        <ele>432.2</ele>
        <time>2018-04-10T10:45:13Z</time>
      </trkpt>
      <trkpt lat="41.4283500" lon="2.1168140">
        <ele>432.6</ele>
        <time>2018-04-10T10:45:15Z</time>
      </trkpt>
      <trkpt lat="41.4284320" lon="2.1167960">
        <ele>432.8</ele>
        <time>2018-04-10T10:45:16Z</time>
      </trkpt>
      <trkpt lat="41.4285120" lon="2.1167750">
        <ele>432.8</ele>
        <time>2018-04-10T10:45:17Z</time>
      </trkpt>
      <trkpt lat="41.4286690" lon="2.1167320">
        <ele>433.0</ele>
        <time>2018-04-10T10:45:19Z</time>
      </trkpt>
      <trkpt lat="41.4288210" lon="2.1166690">
        <ele>433.2</ele>
        <time>2018-04-10T10:45:21Z</time>
      </trkpt>
      <trkpt lat="41.4289590" lon="2.1165620">
        <ele>433.4</ele>
        <time>2018-04-10T10:45:23Z</time>
      </trkpt>
      <trkpt lat="41.4290770" lon="2.1164130">
        <ele>433.6</ele>
        <time>2018-04-10T10:45:25Z</time>
      </trkpt>
      <trkpt lat="41.4291630" lon="2.1162230">
        <ele>433.6</ele>
        <time>2018-04-10T10:45:27Z</time>
      </trkpt>
      <trkpt lat="41.4292140" lon="2.1160070">
        <ele>433.6</ele>
        <time>2018-04-10T10:45:29Z</time>
      </trkpt>
      <trkpt lat="41.4292290" lon="2.1158900">
        <ele>433.6</ele>
        <time>2018-04-10T10:45:30Z</time>
      </trkpt>
      <trkpt lat="41.4292440" lon="2.1157710">
        <ele>433.6</ele>
        <time>2018-04-10T10:45:31Z</time>
      </trkpt>
      <trkpt lat="41.4292690" lon="2.1155300">
        <ele>433.6</ele>
        <time>2018-04-10T10:45:33Z</time>
      </trkpt>
      <trkpt lat="41.4292970" lon="2.1152920">
        <ele>433.6</ele>
        <time>2018-04-10T10:45:35Z</time>
      </trkpt>
      <trkpt lat="41.4293210" lon="2.1150530">
        <ele>433.0</ele>
        <time>2018-04-10T10:45:37Z</time>
      </trkpt>
      <trkpt lat="41.4293480" lon="2.1148180">
        <ele>432.6</ele>
        <time>2018-04-10T10:45:39Z</time>
      </trkpt>
      <trkpt lat="41.4293700" lon="2.1147050">
        <ele>432.4</ele>
        <time>2018-04-10T10:45:40Z</time>
      </trkpt>
      <trkpt lat="41.4294020" lon="2.1145990">
        <ele>432.4</ele>
        <time>2018-04-10T10:45:41Z</time>
      </trkpt>
      <trkpt lat="41.4295000" lon="2.1144160">
        <ele>432.2</ele>
        <time>2018-04-10T10:45:43Z</time>
      </trkpt>
      <trkpt lat="41.4296470" lon="2.1142970">
        <ele>431.6</ele>
        <time>2018-04-10T10:45:45Z</time>
      </trkpt>
      <trkpt lat="41.4298190" lon="2.1142460">
        <ele>430.8</ele>
        <time>2018-04-10T10:45:47Z</time>
      </trkpt>
      <trkpt lat="41.4299080" lon="2.1142390">
        <ele>430.4</ele>
        <time>2018-04-10T10:45:48Z</time>
      </trkpt>
      <trkpt lat="41.4299960" lon="2.1142340">
        <ele>430.2</ele>
        <time>2018-04-10T10:45:49Z</time>
      </trkpt>
      <trkpt lat="41.4301710" lon="2.1142110">
        <ele>429.4</ele>
        <time>2018-04-10T10:45:51Z</time>
      </trkpt>
      <trkpt lat="41.4302520" lon="2.1141790">
        <ele>429.2</ele>
        <time>2018-04-10T10:45:52Z</time>
      </trkpt>
      <trkpt lat="41.4303270" lon="2.1141290">
        <ele>429.0</ele>
        <time>2018-04-10T10:45:53Z</time>
      </trkpt>
      <trkpt lat="41.4304580" lon="2.1139740">
        <ele>428.4</ele>
        <time>2018-04-10T10:45:55Z</time>
      </trkpt>
      <trkpt lat="41.4305310" lon="2.1137510">
        <ele>428.0</ele>
        <time>2018-04-10T10:45:57Z</time>
      </trkpt>
      <trkpt lat="41.4305420" lon="2.1135090">
        <ele>427.2</ele>
        <time>2018-04-10T10:45:59Z</time>
      </trkpt>
      <trkpt lat="41.4304900" lon="2.1132750">
        <ele>426.6</ele>
        <time>2018-04-10T10:46:01Z</time>
      </trkpt>
      <trkpt lat="41.4303950" lon="2.1130610">
        <ele>426.4</ele>
        <time>2018-04-10T10:46:03Z</time>
      </trkpt>
      <trkpt lat="41.4302880" lon="2.1128470">
        <ele>426.4</ele>
        <time>2018-04-10T10:46:05Z</time>
      </trkpt>
      <trkpt lat="41.4301790" lon="2.1126230">
        <ele>426.2</ele>
        <time>2018-04-10T10:46:07Z</time>
      </trkpt>
      <trkpt lat="41.4300700" lon="2.1123870">
        <ele>426.0</ele>
        <time>2018-04-10T10:46:09Z</time>
      </trkpt>
      <trkpt lat="41.4300240" lon="2.1122610">
        <ele>425.8</ele>
        <time>2018-04-10T10:46:10Z</time>
      </trkpt>
      <trkpt lat="41.4299910" lon="2.1121260">
        <ele>425.6</ele>
        <time>2018-04-10T10:46:11Z</time>
      </trkpt>
      <trkpt lat="41.4299660" lon="2.1118420">
        <ele>424.8</ele>
        <time>2018-04-10T10:46:13Z</time>
      </trkpt>
      <trkpt lat="41.4299640" lon="2.1116960">
        <ele>424.4</ele>
        <time>2018-04-10T10:46:14Z</time>
      </trkpt>
      <trkpt lat="41.4299620" lon="2.1115470">
        <ele>423.8</ele>
        <time>2018-04-10T10:46:15Z</time>
      </trkpt>
      <trkpt lat="41.4299550" lon="2.1112490">
        <ele>423.2</ele>
        <time>2018-04-10T10:46:17Z</time>
      </trkpt>
      <trkpt lat="41.4299520" lon="2.1109440">
        <ele>422.2</ele>
        <time>2018-04-10T10:46:19Z</time>
      </trkpt>
      <trkpt lat="41.4299660" lon="2.1107920">
        <ele>421.8</ele>
        <time>2018-04-10T10:46:20Z</time>
      </trkpt>
      <trkpt lat="41.4300100" lon="2.1106510">
        <ele>421.6</ele>
        <time>2018-04-10T10:46:21Z</time>
      </trkpt>
      <trkpt lat="41.4301720" lon="2.1104230">
        <ele>420.6</ele>
        <time>2018-04-10T10:46:23Z</time>
      </trkpt>
      <trkpt lat="41.4303840" lon="2.1102670">
        <ele>419.8</ele>
        <time>2018-04-10T10:46:25Z</time>
      </trkpt>
      <trkpt lat="41.4304970" lon="2.1102000">
        <ele>419.4</ele>
        <time>2018-04-10T10:46:26Z</time>
      </trkpt>
      <trkpt lat="41.4306090" lon="2.1101290">
        <ele>418.2</ele>
        <time>2018-04-10T10:46:27Z</time>
      </trkpt>
      <trkpt lat="41.4308260" lon="2.1099590">
        <ele>416.4</ele>
        <time>2018-04-10T10:46:29Z</time>
      </trkpt>
      <trkpt lat="41.4310300" lon="2.1097580">
        <ele>414.4</ele>
        <time>2018-04-10T10:46:31Z</time>
      </trkpt>
      <trkpt lat="41.4311340" lon="2.1096570">
        <ele>413.2</ele>
        <time>2018-04-10T10:46:32Z</time>
      </trkpt>
      <trkpt lat="41.4312410" lon="2.1095610">
        <ele>412.4</ele>
        <time>2018-04-10T10:46:33Z</time>
      </trkpt>
      <trkpt lat="41.4313510" lon="2.1094720">
        <ele>411.6</ele>
        <time>2018-04-10T10:46:34Z</time>
      </trkpt>
      <trkpt lat="41.4314650" lon="2.1093890">
        <ele>410.8</ele>
        <time>2018-04-10T10:46:35Z</time>
      </trkpt>
      <trkpt lat="41.4315870" lon="2.1093200">
        <ele>410.0</ele>
        <time>2018-04-10T10:46:36Z</time>
      </trkpt>
      <trkpt lat="41.4317120" lon="2.1092650">
        <ele>409.2</ele>
        <time>2018-04-10T10:46:37Z</time>
      </trkpt>
      <trkpt lat="41.4318380" lon="2.1092090">
        <ele>408.2</ele>
        <time>2018-04-10T10:46:38Z</time>
      </trkpt>
      <trkpt lat="41.4319610" lon="2.1091360">
        <ele>407.2</ele>
        <time>2018-04-10T10:46:39Z</time>
      </trkpt>
      <trkpt lat="41.4321890" lon="2.1089330">
        <ele>406.0</ele>
        <time>2018-04-10T10:46:41Z</time>
      </trkpt>
      <trkpt lat="41.4323050" lon="2.1088180">
        <ele>404.6</ele>
        <time>2018-04-10T10:46:42Z</time>
      </trkpt>
      <trkpt lat="41.4324310" lon="2.1087180">
        <ele>403.4</ele>
        <time>2018-04-10T10:46:43Z</time>
      </trkpt>
      <trkpt lat="41.4325640" lon="2.1086250">
        <ele>402.4</ele>
        <time>2018-04-10T10:46:44Z</time>
      </trkpt>
      <trkpt lat="41.4326980" lon="2.1085340">
        <ele>401.6</ele>
        <time>2018-04-10T10:46:45Z</time>
      </trkpt>
      <trkpt lat="41.4329720" lon="2.1083520">
        <ele>400.0</ele>
        <time>2018-04-10T10:46:47Z</time>
      </trkpt>
      <trkpt lat="41.4332520" lon="2.1081790">
        <ele>398.2</ele>
        <time>2018-04-10T10:46:49Z</time>
      </trkpt>
      <trkpt lat="41.4335370" lon="2.1080330">
        <ele>396.2</ele>
        <time>2018-04-10T10:46:51Z</time>
      </trkpt>
      <trkpt lat="41.4338370" lon="2.1079530">
        <ele>394.2</ele>
        <time>2018-04-10T10:46:53Z</time>
      </trkpt>
      <trkpt lat="41.4339870" lon="2.1079340">
        <ele>393.2</ele>
        <time>2018-04-10T10:46:54Z</time>
      </trkpt>
      <trkpt lat="41.4341390" lon="2.1079230">
        <ele>392.0</ele>
        <time>2018-04-10T10:46:55Z</time>
      </trkpt>
      <trkpt lat="41.4342900" lon="2.1079130">
        <ele>389.6</ele>
        <time>2018-04-10T10:46:56Z</time>
      </trkpt>
      <trkpt lat="41.4344330" lon="2.1078970">
        <ele>388.4</ele>
        <time>2018-04-10T10:46:57Z</time>
      </trkpt>
      <trkpt lat="41.4345720" lon="2.1078720">
        <ele>387.4</ele>
        <time>2018-04-10T10:46:58Z</time>
      </trkpt>
      <trkpt lat="41.4347070" lon="2.1078160">
        <ele>386.2</ele>
        <time>2018-04-10T10:46:59Z</time>
      </trkpt>
      <trkpt lat="41.4348280" lon="2.1077270">
        <ele>385.0</ele>
        <time>2018-04-10T10:47:00Z</time>
      </trkpt>
      <trkpt lat="41.4349260" lon="2.1075960">
        <ele>383.6</ele>
        <time>2018-04-10T10:47:01Z</time>
      </trkpt>
      <trkpt lat="41.4350150" lon="2.1074480">
        <ele>382.4</ele>
        <time>2018-04-10T10:47:02Z</time>
      </trkpt>
      <trkpt lat="41.4351040" lon="2.1072930">
        <ele>381.2</ele>
        <time>2018-04-10T10:47:03Z</time>
      </trkpt>
      <trkpt lat="41.4351880" lon="2.1071280">
        <ele>380.0</ele>
        <time>2018-04-10T10:47:04Z</time>
      </trkpt>
      <trkpt lat="41.4352730" lon="2.1069560">
        <ele>379.0</ele>
        <time>2018-04-10T10:47:05Z</time>
      </trkpt>
      <trkpt lat="41.4353650" lon="2.1067890">
        <ele>377.8</ele>
        <time>2018-04-10T10:47:06Z</time>
      </trkpt>
      <trkpt lat="41.4354720" lon="2.1066330">
        <ele>376.8</ele>
        <time>2018-04-10T10:47:07Z</time>
      </trkpt>
      <trkpt lat="41.4355910" lon="2.1064850">
        <ele>375.6</ele>
        <time>2018-04-10T10:47:08Z</time>
      </trkpt>
      <trkpt lat="41.4357180" lon="2.1063470">
        <ele>374.4</ele>
        <time>2018-04-10T10:47:09Z</time>
      </trkpt>
      <trkpt lat="41.4358490" lon="2.1062140">
        <ele>373.4</ele>
        <time>2018-04-10T10:47:10Z</time>
      </trkpt>
      <trkpt lat="41.4359780" lon="2.1060820">
        <ele>372.6</ele>
        <time>2018-04-10T10:47:11Z</time>
      </trkpt>
      <trkpt lat="41.4361040" lon="2.1059480">
        <ele>371.6</ele>
        <time>2018-04-10T10:47:12Z</time>
      </trkpt>
      <trkpt lat="41.4362280" lon="2.1058190">
        <ele>370.8</ele>
        <time>2018-04-10T10:47:13Z</time>
      </trkpt>
      <trkpt lat="41.4363520" lon="2.1056910">
        <ele>369.8</ele>
        <time>2018-04-10T10:47:14Z</time>
      </trkpt>
      <trkpt lat="41.4364770" lon="2.1055730">
        <ele>368.6</ele>
        <time>2018-04-10T10:47:15Z</time>
      </trkpt>
      <trkpt lat="41.4366100" lon="2.1054720">
        <ele>367.4</ele>
        <time>2018-04-10T10:47:16Z</time>
      </trkpt>
      <trkpt lat="41.4367520" lon="2.1054000">
        <ele>366.6</ele>
        <time>2018-04-10T10:47:17Z</time>
      </trkpt>
      <trkpt lat="41.4369010" lon="2.1053740">
        <ele>365.6</ele>
        <time>2018-04-10T10:47:18Z</time>
      </trkpt>
      <trkpt lat="41.4370470" lon="2.1053850">
        <ele>364.6</ele>
        <time>2018-04-10T10:47:19Z</time>
      </trkpt>
      <trkpt lat="41.4371880" lon="2.1054160">
        <ele>363.8</ele>
        <time>2018-04-10T10:47:20Z</time>
      </trkpt>
      <trkpt lat="41.4373270" lon="2.1054470">
        <ele>363.6</ele>
        <time>2018-04-10T10:47:21Z</time>
      </trkpt>
      <trkpt lat="41.4375940" lon="2.1054650">
        <ele>363.2</ele>
        <time>2018-04-10T10:47:23Z</time>
      </trkpt>
      <trkpt lat="41.4378320" lon="2.1053700">
        <ele>363.2</ele>
        <time>2018-04-10T10:47:25Z</time>
      </trkpt>
      <trkpt lat="41.4380240" lon="2.1051700">
        <ele>363.2</ele>
        <time>2018-04-10T10:47:27Z</time>
      </trkpt>
      <trkpt lat="41.4381860" lon="2.1048970">
        <ele>363.0</ele>
        <time>2018-04-10T10:47:29Z</time>
      </trkpt>
      <trkpt lat="41.4383150" lon="2.1045830">
        <ele>363.0</ele>
        <time>2018-04-10T10:47:31Z</time>
      </trkpt>
      <trkpt lat="41.4384570" lon="2.1042810">
        <ele>363.0</ele>
        <time>2018-04-10T10:47:33Z</time>
      </trkpt>
      <trkpt lat="41.4386490" lon="2.1040480">
        <ele>362.8</ele>
        <time>2018-04-10T10:47:35Z</time>
      </trkpt>
      <trkpt lat="41.4388680" lon="2.1038680">
        <ele>362.6</ele>
        <time>2018-04-10T10:47:37Z</time>
      </trkpt>
      <trkpt lat="41.4389560" lon="2.1037520">
        <ele>362.2</ele>
        <time>2018-04-10T10:47:38Z</time>
      </trkpt>
      <trkpt lat="41.4390180" lon="2.1035940">
        <ele>361.8</ele>
        <time>2018-04-10T10:47:39Z</time>
      </trkpt>
      <trkpt lat="41.4390650" lon="2.1032500">
        <ele>360.2</ele>
        <time>2018-04-10T10:47:41Z</time>
      </trkpt>
      <trkpt lat="41.4390670" lon="2.1030680">
        <ele>359.2</ele>
        <time>2018-04-10T10:47:42Z</time>
      </trkpt>
      <trkpt lat="41.4390670" lon="2.1028830">
        <ele>358.4</ele>
        <time>2018-04-10T10:47:43Z</time>
      </trkpt>
      <trkpt lat="41.4390710" lon="2.1026940">
        <ele>357.4</ele>
        <time>2018-04-10T10:47:44Z</time>
      </trkpt>
      <trkpt lat="41.4390770" lon="2.1025040">
        <ele>356.6</ele>
        <time>2018-04-10T10:47:45Z</time>
      </trkpt>
      <trkpt lat="41.4390870" lon="2.1021200">
        <ele>355.6</ele>
        <time>2018-04-10T10:47:47Z</time>
      </trkpt>
      <trkpt lat="41.4391280" lon="2.1017410">
        <ele>354.4</ele>
        <time>2018-04-10T10:47:49Z</time>
      </trkpt>
      <trkpt lat="41.4392250" lon="2.1013750">
        <ele>353.6</ele>
        <time>2018-04-10T10:47:51Z</time>
      </trkpt>
      <trkpt lat="41.4392820" lon="2.1011900">
        <ele>353.2</ele>
        <time>2018-04-10T10:47:52Z</time>
      </trkpt>
      <trkpt lat="41.4393490" lon="2.1010080">
        <ele>352.8</ele>
        <time>2018-04-10T10:47:53Z</time>
      </trkpt>
      <trkpt lat="41.4394280" lon="2.1008350">
        <ele>351.8</ele>
        <time>2018-04-10T10:47:54Z</time>
      </trkpt>
      <trkpt lat="41.4395200" lon="2.1006700">
        <ele>351.2</ele>
        <time>2018-04-10T10:47:55Z</time>
      </trkpt>
      <trkpt lat="41.4396240" lon="2.1005110">
        <ele>350.6</ele>
        <time>2018-04-10T10:47:56Z</time>
      </trkpt>
      <trkpt lat="41.4397370" lon="2.1003680">
        <ele>350.2</ele>
        <time>2018-04-10T10:47:57Z</time>
      </trkpt>
      <trkpt lat="41.4399950" lon="2.1001390">
        <ele>349.2</ele>
        <time>2018-04-10T10:47:59Z</time>
      </trkpt>
      <trkpt lat="41.4402780" lon="2.0999670">
        <ele>347.4</ele>
        <time>2018-04-10T10:48:01Z</time>
      </trkpt>
      <trkpt lat="41.4405600" lon="2.0998150">
        <ele>345.6</ele>
        <time>2018-04-10T10:48:03Z</time>
      </trkpt>
      <trkpt lat="41.4408310" lon="2.0996660">
        <ele>343.8</ele>
        <time>2018-04-10T10:48:05Z</time>
      </trkpt>
      <trkpt lat="41.4411020" lon="2.0995260">
        <ele>342.0</ele>
        <time>2018-04-10T10:48:07Z</time>
      </trkpt>
      <trkpt lat="41.4413740" lon="2.0993840">
        <ele>340.6</ele>
        <time>2018-04-10T10:48:09Z</time>
      </trkpt>
      <trkpt lat="41.4416380" lon="2.0992240">
        <ele>338.8</ele>
        <time>2018-04-10T10:48:11Z</time>
      </trkpt>
      <trkpt lat="41.4418600" lon="2.0989920">
        <ele>337.2</ele>
        <time>2018-04-10T10:48:13Z</time>
      </trkpt>
      <trkpt lat="41.4420500" lon="2.0987210">
        <ele>335.6</ele>
        <time>2018-04-10T10:48:15Z</time>
      </trkpt>
      <trkpt lat="41.4422430" lon="2.0984510">
        <ele>334.0</ele>
        <time>2018-04-10T10:48:17Z</time>
      </trkpt>
      <trkpt lat="41.4424520" lon="2.0982010">
        <ele>332.6</ele>
        <time>2018-04-10T10:48:19Z</time>
      </trkpt>
      <trkpt lat="41.4426950" lon="2.0980020">
        <ele>331.4</ele>
        <time>2018-04-10T10:48:21Z</time>
      </trkpt>
      <trkpt lat="41.4429370" lon="2.0978720">
        <ele>329.8</ele>
        <time>2018-04-10T10:48:23Z</time>
      </trkpt>
      <trkpt lat="41.4430480" lon="2.0978130">
        <ele>327.8</ele>
        <time>2018-04-10T10:48:24Z</time>
      </trkpt>
      <trkpt lat="41.4431730" lon="2.0977860">
        <ele>327.0</ele>
        <time>2018-04-10T10:48:25Z</time>
      </trkpt>
      <trkpt lat="41.4432960" lon="2.0977920">
        <ele>326.0</ele>
        <time>2018-04-10T10:48:26Z</time>
      </trkpt>
      <trkpt lat="41.4434220" lon="2.0978520">
        <ele>325.2</ele>
        <time>2018-04-10T10:48:27Z</time>
      </trkpt>
      <trkpt lat="41.4435430" lon="2.0979440">
        <ele>324.6</ele>
        <time>2018-04-10T10:48:28Z</time>
      </trkpt>
      <trkpt lat="41.4436550" lon="2.0980300">
        <ele>323.6</ele>
        <time>2018-04-10T10:48:29Z</time>
      </trkpt>
      <trkpt lat="41.4437640" lon="2.0981190">
        <ele>322.4</ele>
        <time>2018-04-10T10:48:30Z</time>
      </trkpt>
      <trkpt lat="41.4438690" lon="2.0981920">
        <ele>321.4</ele>
        <time>2018-04-10T10:48:31Z</time>
      </trkpt>
      <trkpt lat="41.4439770" lon="2.0982480">
        <ele>320.6</ele>
        <time>2018-04-10T10:48:32Z</time>
      </trkpt>
      <trkpt lat="41.4440910" lon="2.0982800">
        <ele>319.8</ele>
        <time>2018-04-10T10:48:33Z</time>
      </trkpt>
      <trkpt lat="41.4442060" lon="2.0982850">
        <ele>319.0</ele>
        <time>2018-04-10T10:48:34Z</time>
      </trkpt>
      <trkpt lat="41.4443190" lon="2.0982660">
        <ele>318.2</ele>
        <time>2018-04-10T10:48:35Z</time>
      </trkpt>
      <trkpt lat="41.4444290" lon="2.0982210">
        <ele>317.4</ele>
        <time>2018-04-10T10:48:36Z</time>
      </trkpt>
      <trkpt lat="41.4445340" lon="2.0981510">
        <ele>316.6</ele>
        <time>2018-04-10T10:48:37Z</time>
      </trkpt>
      <trkpt lat="41.4446350" lon="2.0980630">
        <ele>316.0</ele>
        <time>2018-04-10T10:48:38Z</time>
      </trkpt>
      <trkpt lat="41.4447250" lon="2.0979540">
        <ele>315.4</ele>
        <time>2018-04-10T10:48:39Z</time>
      </trkpt>
      <trkpt lat="41.4448020" lon="2.0978350">
        <ele>314.8</ele>
        <time>2018-04-10T10:48:40Z</time>
      </trkpt>
      <trkpt lat="41.4448810" lon="2.0977210">
        <ele>313.8</ele>
        <time>2018-04-10T10:48:41Z</time>
      </trkpt>
      <trkpt lat="41.4449640" lon="2.0976220">
        <ele>313.2</ele>
        <time>2018-04-10T10:48:42Z</time>
      </trkpt>
      <trkpt lat="41.4450510" lon="2.0975280">
        <ele>312.6</ele>
        <time>2018-04-10T10:48:43Z</time>
      </trkpt>
      <trkpt lat="41.4451450" lon="2.0974480">
        <ele>311.8</ele>
        <time>2018-04-10T10:48:44Z</time>
      </trkpt>
      <trkpt lat="41.4452430" lon="2.0973780">
        <ele>311.0</ele>
        <time>2018-04-10T10:48:45Z</time>
      </trkpt>
      <trkpt lat="41.4453420" lon="2.0973190">
        <ele>309.8</ele>
        <time>2018-04-10T10:48:46Z</time>
      </trkpt>
      <trkpt lat="41.4454400" lon="2.0972630">
        <ele>308.8</ele>
        <time>2018-04-10T10:48:47Z</time>
      </trkpt>
      <trkpt lat="41.4455310" lon="2.0971980">
        <ele>308.2</ele>
        <time>2018-04-10T10:48:48Z</time>
      </trkpt>
      <trkpt lat="41.4456110" lon="2.0971130">
        <ele>307.6</ele>
        <time>2018-04-10T10:48:49Z</time>
      </trkpt>
      <trkpt lat="41.4457200" lon="2.0968820">
        <ele>306.8</ele>
        <time>2018-04-10T10:48:51Z</time>
      </trkpt>
      <trkpt lat="41.4457540" lon="2.0967480">
        <ele>306.2</ele>
        <time>2018-04-10T10:48:52Z</time>
      </trkpt>
      <trkpt lat="41.4457810" lon="2.0966130">
        <ele>305.0</ele>
        <time>2018-04-10T10:48:53Z</time>
      </trkpt>
      <trkpt lat="41.4458300" lon="2.0963410">
        <ele>304.6</ele>
        <time>2018-04-10T10:48:55Z</time>
      </trkpt>
      <trkpt lat="41.4459590" lon="2.0961270">
        <ele>304.2</ele>
        <time>2018-04-10T10:48:57Z</time>
      </trkpt>
      <trkpt lat="41.4460490" lon="2.0960450">
        <ele>304.0</ele>
        <time>2018-04-10T10:48:58Z</time>
      </trkpt>
      <trkpt lat="41.4461500" lon="2.0959870">
        <ele>304.0</ele>
        <time>2018-04-10T10:48:59Z</time>
      </trkpt>
      <trkpt lat="41.4463610" lon="2.0958890">
        <ele>303.4</ele>
        <time>2018-04-10T10:49:01Z</time>
      </trkpt>
      <trkpt lat="41.4464610" lon="2.0958160">
        <ele>303.0</ele>
        <time>2018-04-10T10:49:02Z</time>
      </trkpt>
      <trkpt lat="41.4465490" lon="2.0957120">
        <ele>302.6</ele>
        <time>2018-04-10T10:49:03Z</time>
      </trkpt>
      <trkpt lat="41.4466790" lon="2.0954270">
        <ele>302.0</ele>
        <time>2018-04-10T10:49:05Z</time>
      </trkpt>
      <trkpt lat="41.4467360" lon="2.0952680">
        <ele>301.6</ele>
        <time>2018-04-10T10:49:06Z</time>
      </trkpt>
      <trkpt lat="41.4467960" lon="2.0951020">
        <ele>301.2</ele>
        <time>2018-04-10T10:49:07Z</time>
      </trkpt>
      <trkpt lat="41.4468610" lon="2.0949380">
        <ele>300.6</ele>
        <time>2018-04-10T10:49:08Z</time>
      </trkpt>
      <trkpt lat="41.4469360" lon="2.0947850">
        <ele>300.0</ele>
        <time>2018-04-10T10:49:09Z</time>
      </trkpt>
      <trkpt lat="41.4471170" lon="2.0945220">
        <ele>299.0</ele>
        <time>2018-04-10T10:49:11Z</time>
      </trkpt>
      <trkpt lat="41.4472180" lon="2.0944160">
        <ele>297.8</ele>
        <time>2018-04-10T10:49:12Z</time>
      </trkpt>
      <trkpt lat="41.4473270" lon="2.0943300">
        <ele>296.6</ele>
        <time>2018-04-10T10:49:13Z</time>
      </trkpt>
      <trkpt lat="41.4474470" lon="2.0942740">
        <ele>295.4</ele>
        <time>2018-04-10T10:49:14Z</time>
      </trkpt>
      <trkpt lat="41.4475710" lon="2.0942440">
        <ele>294.0</ele>
        <time>2018-04-10T10:49:15Z</time>
      </trkpt>
      <trkpt lat="41.4476920" lon="2.0942340">
        <ele>292.6</ele>
        <time>2018-04-10T10:49:16Z</time>
      </trkpt>
      <trkpt lat="41.4478030" lon="2.0942180">
        <ele>291.4</ele>
        <time>2018-04-10T10:49:17Z</time>
      </trkpt>
      <trkpt lat="41.4479050" lon="2.0941710">
        <ele>290.2</ele>
        <time>2018-04-10T10:49:18Z</time>
      </trkpt>
      <trkpt lat="41.4479950" lon="2.0940800">
        <ele>289.2</ele>
        <time>2018-04-10T10:49:19Z</time>
      </trkpt>
      <trkpt lat="41.4480710" lon="2.0939540">
        <ele>288.2</ele>
        <time>2018-04-10T10:49:20Z</time>
      </trkpt>
      <trkpt lat="41.4481350" lon="2.0938070">
        <ele>287.2</ele>
        <time>2018-04-10T10:49:21Z</time>
      </trkpt>
      <trkpt lat="41.4481920" lon="2.0936510">
        <ele>285.2</ele>
        <time>2018-04-10T10:49:22Z</time>
      </trkpt>
      <trkpt lat="41.4482470" lon="2.0934900">
        <ele>284.4</ele>
        <time>2018-04-10T10:49:23Z</time>
      </trkpt>
      <trkpt lat="41.4483020" lon="2.0933210">
        <ele>283.4</ele>
        <time>2018-04-10T10:49:24Z</time>
      </trkpt>
      <trkpt lat="41.4483500" lon="2.0931420">
        <ele>282.4</ele>
        <time>2018-04-10T10:49:25Z</time>
      </trkpt>
      <trkpt lat="41.4483870" lon="2.0929540">
        <ele>281.6</ele>
        <time>2018-04-10T10:49:26Z</time>
      </trkpt>
      <trkpt lat="41.4484170" lon="2.0927660">
        <ele>281.0</ele>
        <time>2018-04-10T10:49:27Z</time>
      </trkpt>
      <trkpt lat="41.4484470" lon="2.0925780">
        <ele>280.4</ele>
        <time>2018-04-10T10:49:28Z</time>
      </trkpt>
      <trkpt lat="41.4484820" lon="2.0923940">
        <ele>279.4</ele>
        <time>2018-04-10T10:49:29Z</time>
      </trkpt>
      <trkpt lat="41.4485230" lon="2.0922130">
        <ele>278.2</ele>
        <time>2018-04-10T10:49:30Z</time>
      </trkpt>
      <trkpt lat="41.4485670" lon="2.0920340">
        <ele>277.0</ele>
        <time>2018-04-10T10:49:31Z</time>
      </trkpt>
      <trkpt lat="41.4486120" lon="2.0918630">
        <ele>276.0</ele>
        <time>2018-04-10T10:49:32Z</time>
      </trkpt>
      <trkpt lat="41.4486620" lon="2.0917100">
        <ele>275.0</ele>
        <time>2018-04-10T10:49:33Z</time>
      </trkpt>
      <trkpt lat="41.4487230" lon="2.0915760">
        <ele>273.8</ele>
        <time>2018-04-10T10:49:34Z</time>
      </trkpt>
      <trkpt lat="41.4487970" lon="2.0914620">
        <ele>272.6</ele>
        <time>2018-04-10T10:49:35Z</time>
      </trkpt>
      <trkpt lat="41.4488910" lon="2.0913720">
        <ele>271.2</ele>
        <time>2018-04-10T10:49:36Z</time>
      </trkpt>
      <trkpt lat="41.4489980" lon="2.0913010">
        <ele>270.0</ele>
        <time>2018-04-10T10:49:37Z</time>
      </trkpt>
      <trkpt lat="41.4491140" lon="2.0912460">
        <ele>268.8</ele>
        <time>2018-04-10T10:49:38Z</time>
      </trkpt>
      <trkpt lat="41.4492320" lon="2.0911940">
        <ele>267.8</ele>
        <time>2018-04-10T10:49:39Z</time>
      </trkpt>
      <trkpt lat="41.4493460" lon="2.0911320">
        <ele>266.8</ele>
        <time>2018-04-10T10:49:40Z</time>
      </trkpt>
      <trkpt lat="41.4494540" lon="2.0910830">
        <ele>265.8</ele>
        <time>2018-04-10T10:49:41Z</time>
      </trkpt>
      <trkpt lat="41.4496830" lon="2.0910820">
        <ele>263.8</ele>
        <time>2018-04-10T10:49:43Z</time>
      </trkpt>
      <trkpt lat="41.4499050" lon="2.0912130">
        <ele>262.4</ele>
        <time>2018-04-10T10:49:45Z</time>
      </trkpt>
      <trkpt lat="41.4500830" lon="2.0914430">
        <ele>261.0</ele>
        <time>2018-04-10T10:49:47Z</time>
      </trkpt>
      <trkpt lat="41.4501550" lon="2.0915600">
        <ele>260.4</ele>
        <time>2018-04-10T10:49:48Z</time>
      </trkpt>
      <trkpt lat="41.4502330" lon="2.0916600">
        <ele>259.6</ele>
        <time>2018-04-10T10:49:49Z</time>
      </trkpt>
      <trkpt lat="41.4503230" lon="2.0917280">
        <ele>258.2</ele>
        <time>2018-04-10T10:49:50Z</time>
      </trkpt>
      <trkpt lat="41.4504280" lon="2.0917670">
        <ele>257.2</ele>
        <time>2018-04-10T10:49:51Z</time>
      </trkpt>
      <trkpt lat="41.4505430" lon="2.0917730">
        <ele>256.2</ele>
        <time>2018-04-10T10:49:52Z</time>
      </trkpt>
      <trkpt lat="41.4506590" lon="2.0917770">
        <ele>255.2</ele>
        <time>2018-04-10T10:49:53Z</time>
      </trkpt>
      <trkpt lat="41.4507750" lon="2.0918030">
        <ele>254.4</ele>
        <time>2018-04-10T10:49:54Z</time>
      </trkpt>
      <trkpt lat="41.4508880" lon="2.0918560">
        <ele>253.8</ele>
        <time>2018-04-10T10:49:55Z</time>
      </trkpt>
      <trkpt lat="41.4509880" lon="2.0919280">
        <ele>253.0</ele>
        <time>2018-04-10T10:49:56Z</time>
      </trkpt>
      <trkpt lat="41.4510650" lon="2.0920160">
        <ele>252.4</ele>
        <time>2018-04-10T10:49:57Z</time>
      </trkpt>
      <trkpt lat="41.4511320" lon="2.0921100">
        <ele>251.6</ele>
        <time>2018-04-10T10:49:58Z</time>
      </trkpt>
      <trkpt lat="41.4512030" lon="2.0921880">
        <ele>251.0</ele>
        <time>2018-04-10T10:49:59Z</time>
      </trkpt>
      <trkpt lat="41.4512840" lon="2.0922320">
        <ele>250.0</ele>
        <time>2018-04-10T10:50:00Z</time>
      </trkpt>
      <trkpt lat="41.4513810" lon="2.0922270">
        <ele>249.6</ele>
        <time>2018-04-10T10:50:01Z</time>
      </trkpt>
      <trkpt lat="41.4514650" lon="2.0921650">
        <ele>248.8</ele>
        <time>2018-04-10T10:50:02Z</time>
      </trkpt>
      <trkpt lat="41.4515280" lon="2.0920590">
        <ele>247.8</ele>
        <time>2018-04-10T10:50:03Z</time>
      </trkpt>
      <trkpt lat="41.4515790" lon="2.0919370">
        <ele>247.2</ele>
        <time>2018-04-10T10:50:04Z</time>
      </trkpt>
      <trkpt lat="41.4516240" lon="2.0918110">
        <ele>246.8</ele>
        <time>2018-04-10T10:50:05Z</time>
      </trkpt>
      <trkpt lat="41.4516710" lon="2.0916970">
        <ele>246.0</ele>
        <time>2018-04-10T10:50:06Z</time>
      </trkpt>
      <trkpt lat="41.4517250" lon="2.0916010">
        <ele>245.0</ele>
        <time>2018-04-10T10:50:07Z</time>
      </trkpt>
      <trkpt lat="41.4517910" lon="2.0915210">
        <ele>244.6</ele>
        <time>2018-04-10T10:50:08Z</time>
      </trkpt>
      <trkpt lat="41.4518740" lon="2.0914750">
        <ele>244.0</ele>
        <time>2018-04-10T10:50:09Z</time>
      </trkpt>
      <trkpt lat="41.4520530" lon="2.0914970">
        <ele>243.2</ele>
        <time>2018-04-10T10:50:11Z</time>
      </trkpt>
      <trkpt lat="41.4522120" lon="2.0916560">
        <ele>242.0</ele>
        <time>2018-04-10T10:50:13Z</time>
      </trkpt>
      <trkpt lat="41.4522870" lon="2.0917470">
        <ele>241.2</ele>
        <time>2018-04-10T10:50:14Z</time>
      </trkpt>
      <trkpt lat="41.4523610" lon="2.0918340">
        <ele>240.6</ele>
        <time>2018-04-10T10:50:15Z</time>
      </trkpt>
      <trkpt lat="41.4524290" lon="2.0919050">
        <ele>239.8</ele>
        <time>2018-04-10T10:50:16Z</time>
      </trkpt>
      <trkpt lat="41.4524990" lon="2.0919370">
        <ele>239.2</ele>
        <time>2018-04-10T10:50:17Z</time>
      </trkpt>
      <trkpt lat="41.4526440" lon="2.0918380">
        <ele>236.6</ele>
        <time>2018-04-10T10:50:19Z</time>
      </trkpt>
      <trkpt lat="41.4526880" lon="2.0917220">
        <ele>235.6</ele>
        <time>2018-04-10T10:50:20Z</time>
      </trkpt>
      <trkpt lat="41.4527190" lon="2.0915830">
        <ele>234.6</ele>
        <time>2018-04-10T10:50:21Z</time>
      </trkpt>
      <trkpt lat="41.4527540" lon="2.0914350">
        <ele>234.2</ele>
        <time>2018-04-10T10:50:22Z</time>
      </trkpt>
      <trkpt lat="41.4527980" lon="2.0912880">
        <ele>233.6</ele>
        <time>2018-04-10T10:50:23Z</time>
      </trkpt>
      <trkpt lat="41.4529210" lon="2.0910090">
        <ele>233.0</ele>
        <time>2018-04-10T10:50:25Z</time>
      </trkpt>
      <trkpt lat="41.4530820" lon="2.0907410">
        <ele>232.4</ele>
        <time>2018-04-10T10:50:27Z</time>
      </trkpt>
      <trkpt lat="41.4531640" lon="2.0905920">
        <ele>232.0</ele>
        <time>2018-04-10T10:50:28Z</time>
      </trkpt>
      <trkpt lat="41.4532380" lon="2.0904290">
        <ele>231.2</ele>
        <time>2018-04-10T10:50:29Z</time>
      </trkpt>
      <trkpt lat="41.4533640" lon="2.0900800">
        <ele>229.6</ele>
        <time>2018-04-10T10:50:31Z</time>
      </trkpt>
      <trkpt lat="41.4534200" lon="2.0899150">
        <ele>228.2</ele>
        <time>2018-04-10T10:50:32Z</time>
      </trkpt>
      <trkpt lat="41.4534780" lon="2.0897600">
        <ele>227.2</ele>
        <time>2018-04-10T10:50:33Z</time>
      </trkpt>
      <trkpt lat="41.4535470" lon="2.0896180">
        <ele>226.4</ele>
        <time>2018-04-10T10:50:34Z</time>
      </trkpt>
      <trkpt lat="41.4536270" lon="2.0894930">
        <ele>225.8</ele>
        <time>2018-04-10T10:50:35Z</time>
      </trkpt>
      <trkpt lat="41.4537220" lon="2.0893860">
        <ele>225.0</ele>
        <time>2018-04-10T10:50:36Z</time>
      </trkpt>
      <trkpt lat="41.4538300" lon="2.0893010">
        <ele>224.2</ele>
        <time>2018-04-10T10:50:37Z</time>
      </trkpt>
      <trkpt lat="41.4539470" lon="2.0892320">
        <ele>223.2</ele>
        <time>2018-04-10T10:50:38Z</time>
      </trkpt>
      <trkpt lat="41.4540690" lon="2.0891820">
        <ele>222.4</ele>
        <time>2018-04-10T10:50:39Z</time>
      </trkpt>
      <trkpt lat="41.4541890" lon="2.0891620">
        <ele>221.6</ele>
        <time>2018-04-10T10:50:40Z</time>
      </trkpt>
      <trkpt lat="41.4542980" lon="2.0891760">
        <ele>220.8</ele>
        <time>2018-04-10T10:50:41Z</time>
      </trkpt>
      <trkpt lat="41.4543980" lon="2.0892330">
        <ele>220.0</ele>
        <time>2018-04-10T10:50:42Z</time>
      </trkpt>
      <trkpt lat="41.4544860" lon="2.0893270">
        <ele>219.2</ele>
        <time>2018-04-10T10:50:43Z</time>
      </trkpt>
      <trkpt lat="41.4545520" lon="2.0894470">
        <ele>218.4</ele>
        <time>2018-04-10T10:50:44Z</time>
      </trkpt>
      <trkpt lat="41.4545830" lon="2.0895840">
        <ele>217.6</ele>
        <time>2018-04-10T10:50:45Z</time>
      </trkpt>
      <trkpt lat="41.4545870" lon="2.0897350">
        <ele>216.8</ele>
        <time>2018-04-10T10:50:46Z</time>
      </trkpt>
      <trkpt lat="41.4545850" lon="2.0898840">
        <ele>216.0</ele>
        <time>2018-04-10T10:50:47Z</time>
      </trkpt>
      <trkpt lat="41.4546010" lon="2.0900270">
        <ele>214.2</ele>
        <time>2018-04-10T10:50:48Z</time>
      </trkpt>
      <trkpt lat="41.4546410" lon="2.0901600">
        <ele>213.4</ele>
        <time>2018-04-10T10:50:49Z</time>
      </trkpt>
      <trkpt lat="41.4547050" lon="2.0902760">
        <ele>212.6</ele>
        <time>2018-04-10T10:50:50Z</time>
      </trkpt>
      <trkpt lat="41.4547870" lon="2.0903670">
        <ele>211.8</ele>
        <time>2018-04-10T10:50:51Z</time>
      </trkpt>
      <trkpt lat="41.4548760" lon="2.0904270">
        <ele>211.2</ele>
        <time>2018-04-10T10:50:52Z</time>
      </trkpt>
      <trkpt lat="41.4549840" lon="2.0904370">
        <ele>210.6</ele>
        <time>2018-04-10T10:50:53Z</time>
      </trkpt>
      <trkpt lat="41.4550990" lon="2.0904140">
        <ele>210.0</ele>
        <time>2018-04-10T10:50:54Z</time>
      </trkpt>
      <trkpt lat="41.4552110" lon="2.0903750">
        <ele>209.2</ele>
        <time>2018-04-10T10:50:55Z</time>
      </trkpt>
      <trkpt lat="41.4553300" lon="2.0903240">
        <ele>208.6</ele>
        <time>2018-04-10T10:50:56Z</time>
      </trkpt>
      <trkpt lat="41.4554510" lon="2.0902690">
        <ele>207.6</ele>
        <time>2018-04-10T10:50:57Z</time>
      </trkpt>
      <trkpt lat="41.4555720" lon="2.0902130">
        <ele>206.8</ele>
        <time>2018-04-10T10:50:58Z</time>
      </trkpt>
      <trkpt lat="41.4556890" lon="2.0901660">
        <ele>206.0</ele>
        <time>2018-04-10T10:50:59Z</time>
      </trkpt>
      <trkpt lat="41.4558050" lon="2.0901500">
        <ele>205.4</ele>
        <time>2018-04-10T10:51:00Z</time>
      </trkpt>
      <trkpt lat="41.4559210" lon="2.0901840">
        <ele>204.8</ele>
        <time>2018-04-10T10:51:01Z</time>
      </trkpt>
      <trkpt lat="41.4560300" lon="2.0902570">
        <ele>204.2</ele>
        <time>2018-04-10T10:51:02Z</time>
      </trkpt>
      <trkpt lat="41.4561320" lon="2.0903570">
        <ele>203.4</ele>
        <time>2018-04-10T10:51:03Z</time>
      </trkpt>
      <trkpt lat="41.4562260" lon="2.0904700">
        <ele>202.6</ele>
        <time>2018-04-10T10:51:04Z</time>
      </trkpt>
      <trkpt lat="41.4563170" lon="2.0905870">
        <ele>202.0</ele>
        <time>2018-04-10T10:51:05Z</time>
      </trkpt>
      <trkpt lat="41.4564950" lon="2.0908160">
        <ele>201.0</ele>
        <time>2018-04-10T10:51:07Z</time>
      </trkpt>
      <trkpt lat="41.4566720" lon="2.0910040">
        <ele>200.0</ele>
        <time>2018-04-10T10:51:09Z</time>
      </trkpt>
      <trkpt lat="41.4568760" lon="2.0910830">
        <ele>199.0</ele>
        <time>2018-04-10T10:51:11Z</time>
      </trkpt>
      <trkpt lat="41.4569820" lon="2.0910640">
        <ele>198.6</ele>
        <time>2018-04-10T10:51:12Z</time>
      </trkpt>
      <trkpt lat="41.4570790" lon="2.0910080">
        <ele>198.2</ele>
        <time>2018-04-10T10:51:13Z</time>
      </trkpt>
      <trkpt lat="41.4572600" lon="2.0907870">
        <ele>197.8</ele>
        <time>2018-04-10T10:51:15Z</time>
      </trkpt>
      <trkpt lat="41.4574220" lon="2.0905030">
        <ele>197.6</ele>
        <time>2018-04-10T10:51:17Z</time>
      </trkpt>
      <trkpt lat="41.4575010" lon="2.0903550">
        <ele>197.2</ele>
        <time>2018-04-10T10:51:18Z</time>
      </trkpt>
      <trkpt lat="41.4575840" lon="2.0902080">
        <ele>196.8</ele>
        <time>2018-04-10T10:51:19Z</time>
      </trkpt>
      <trkpt lat="41.4576730" lon="2.0900640">
        <ele>196.2</ele>
        <time>2018-04-10T10:51:20Z</time>
      </trkpt>
      <trkpt lat="41.4577730" lon="2.0899290">
        <ele>195.6</ele>
        <time>2018-04-10T10:51:21Z</time>
      </trkpt>
      <trkpt lat="41.4580100" lon="2.0896940">
        <ele>194.8</ele>
        <time>2018-04-10T10:51:23Z</time>
      </trkpt>
      <trkpt lat="41.4582860" lon="2.0895260">
        <ele>193.4</ele>
        <time>2018-04-10T10:51:25Z</time>
      </trkpt>
      <trkpt lat="41.4585810" lon="2.0893860">
        <ele>191.8</ele>
        <time>2018-04-10T10:51:27Z</time>
      </trkpt>
      <trkpt lat="41.4588800" lon="2.0892540">
        <ele>190.6</ele>
        <time>2018-04-10T10:51:29Z</time>
      </trkpt>
      <trkpt lat="41.4591790" lon="2.0891130">
        <ele>189.0</ele>
        <time>2018-04-10T10:51:31Z</time>
      </trkpt>
      <trkpt lat="41.4594820" lon="2.0889730">
        <ele>187.4</ele>
        <time>2018-04-10T10:51:33Z</time>
      </trkpt>
      <trkpt lat="41.4597850" lon="2.0888330">
        <ele>185.6</ele>
        <time>2018-04-10T10:51:35Z</time>
      </trkpt>
      <trkpt lat="41.4600940" lon="2.0886870">
        <ele>183.8</ele>
        <time>2018-04-10T10:51:37Z</time>
      </trkpt>
      <trkpt lat="41.4604130" lon="2.0885380">
        <ele>181.8</ele>
        <time>2018-04-10T10:51:39Z</time>
      </trkpt>
      <trkpt lat="41.4607380" lon="2.0883910">
        <ele>180.0</ele>
        <time>2018-04-10T10:51:41Z</time>
      </trkpt>
      <trkpt lat="41.4610630" lon="2.0882420">
        <ele>178.2</ele>
        <time>2018-04-10T10:51:43Z</time>
      </trkpt>
      <trkpt lat="41.4612250" lon="2.0881640">
        <ele>177.2</ele>
        <time>2018-04-10T10:51:44Z</time>
      </trkpt>
      <trkpt lat="41.4613830" lon="2.0880880">
        <ele>176.4</ele>
        <time>2018-04-10T10:51:45Z</time>
      </trkpt>
      <trkpt lat="41.4615390" lon="2.0880150">
        <ele>174.2</ele>
        <time>2018-04-10T10:51:46Z</time>
      </trkpt>
      <trkpt lat="41.4616920" lon="2.0879440">
        <ele>172.8</ele>
        <time>2018-04-10T10:51:47Z</time>
      </trkpt>
      <trkpt lat="41.4618430" lon="2.0878760">
        <ele>171.4</ele>
        <time>2018-04-10T10:51:48Z</time>
      </trkpt>
      <trkpt lat="41.4619880" lon="2.0878070">
        <ele>170.2</ele>
        <time>2018-04-10T10:51:49Z</time>
      </trkpt>
      <trkpt lat="41.4621290" lon="2.0877400">
        <ele>168.8</ele>
        <time>2018-04-10T10:51:50Z</time>
      </trkpt>
      <trkpt lat="41.4622700" lon="2.0876720">
        <ele>167.6</ele>
        <time>2018-04-10T10:51:51Z</time>
      </trkpt>
      <trkpt lat="41.4624080" lon="2.0876100">
        <ele>166.6</ele>
        <time>2018-04-10T10:51:52Z</time>
      </trkpt>
      <trkpt lat="41.4625480" lon="2.0875640">
        <ele>165.2</ele>
        <time>2018-04-10T10:51:53Z</time>
      </trkpt>
      <trkpt lat="41.4626900" lon="2.0875350">
        <ele>164.0</ele>
        <time>2018-04-10T10:51:54Z</time>
      </trkpt>
      <trkpt lat="41.4628330" lon="2.0875150">
        <ele>162.6</ele>
        <time>2018-04-10T10:51:55Z</time>
      </trkpt>
      <trkpt lat="41.4629740" lon="2.0874970">
        <ele>161.0</ele>
        <time>2018-04-10T10:51:56Z</time>
      </trkpt>
      <trkpt lat="41.4631110" lon="2.0874800">
        <ele>159.8</ele>
        <time>2018-04-10T10:51:57Z</time>
      </trkpt>
      <trkpt lat="41.4633610" lon="2.0874500">
        <ele>157.8</ele>
        <time>2018-04-10T10:51:59Z</time>
      </trkpt>
      <trkpt lat="41.4634730" lon="2.0874410">
        <ele>156.8</ele>
        <time>2018-04-10T10:52:00Z</time>
      </trkpt>
      <trkpt lat="41.4635830" lon="2.0874370">
        <ele>155.8</ele>
        <time>2018-04-10T10:52:01Z</time>
      </trkpt>
      <trkpt lat="41.4637880" lon="2.0874260">
        <ele>153.8</ele>
        <time>2018-04-10T10:52:03Z</time>
      </trkpt>
      <trkpt lat="41.4639800" lon="2.0874320">
        <ele>152.2</ele>
        <time>2018-04-10T10:52:05Z</time>
      </trkpt>
      <trkpt lat="41.4641380" lon="2.0875380">
        <ele>151.6</ele>
        <time>2018-04-10T10:52:07Z</time>
      </trkpt>
      <trkpt lat="41.4642370" lon="2.0877200">
        <ele>151.6</ele>
        <time>2018-04-10T10:52:09Z</time>
      </trkpt>
      <trkpt lat="41.4642760" lon="2.0878190">
        <ele>151.6</ele>
        <time>2018-04-10T10:52:10Z</time>
      </trkpt>
      <trkpt lat="41.4643140" lon="2.0879200">
        <ele>151.6</ele>
        <time>2018-04-10T10:52:11Z</time>
      </trkpt>
      <trkpt lat="41.4643890" lon="2.0881240">
        <ele>151.6</ele>
        <time>2018-04-10T10:52:13Z</time>
      </trkpt>
      <trkpt lat="41.4644690" lon="2.0883150">
        <ele>152.2</ele>
        <time>2018-04-10T10:52:15Z</time>
      </trkpt>
      <trkpt lat="41.4645510" lon="2.0885070">
        <ele>152.6</ele>
        <time>2018-04-10T10:52:17Z</time>
      </trkpt>
      <trkpt lat="41.4645890" lon="2.0886050">
        <ele>152.8</ele>
        <time>2018-04-10T10:52:18Z</time>
      </trkpt>
      <trkpt lat="41.4646220" lon="2.0887100">
        <ele>152.8</ele>
        <time>2018-04-10T10:52:19Z</time>
      </trkpt>
      <trkpt lat="41.4646930" lon="2.0889150">
        <ele>152.8</ele>
        <time>2018-04-10T10:52:21Z</time>
      </trkpt>
      <trkpt lat="41.4647730" lon="2.0891110">
        <ele>152.8</ele>
        <time>2018-04-10T10:52:23Z</time>
      </trkpt>
      <trkpt lat="41.4648390" lon="2.0893230">
        <ele>152.8</ele>
        <time>2018-04-10T10:52:25Z</time>
      </trkpt>
      <trkpt lat="41.4649150" lon="2.0895330">
        <ele>152.8</ele>
        <time>2018-04-10T10:52:27Z</time>
      </trkpt>
      <trkpt lat="41.4650070" lon="2.0897430">
        <ele>152.4</ele>
        <time>2018-04-10T10:52:29Z</time>
      </trkpt>
      <trkpt lat="41.4650940" lon="2.0899710">
        <ele>152.0</ele>
        <time>2018-04-10T10:52:31Z</time>
      </trkpt>
      <trkpt lat="41.4651760" lon="2.0901980">
        <ele>151.6</ele>
        <time>2018-04-10T10:52:33Z</time>
      </trkpt>
      <trkpt lat="41.4652710" lon="2.0904240">
        <ele>151.2</ele>
        <time>2018-04-10T10:52:35Z</time>
      </trkpt>
      <trkpt lat="41.4653600" lon="2.0906560">
        <ele>150.6</ele>
        <time>2018-04-10T10:52:37Z</time>
      </trkpt>
      <trkpt lat="41.4654500" lon="2.0908770">
        <ele>150.2</ele>
        <time>2018-04-10T10:52:39Z</time>
      </trkpt>
      <trkpt lat="41.4655410" lon="2.0910460">
        <ele>149.6</ele>
        <time>2018-04-10T10:52:41Z</time>
      </trkpt>
      <trkpt lat="41.4656550" lon="2.0910880">
        <ele>149.2</ele>
        <time>2018-04-10T10:52:43Z</time>
      </trkpt>
      <trkpt lat="41.4657700" lon="2.0910030">
        <ele>148.0</ele>
        <time>2018-04-10T10:52:45Z</time>
      </trkpt>
      <trkpt lat="41.4658350" lon="2.0909610">
        <ele>147.8</ele>
        <time>2018-04-10T10:52:46Z</time>
      </trkpt>
      <trkpt lat="41.4659120" lon="2.0909320">
        <ele>147.8</ele>
        <time>2018-04-10T10:52:47Z</time>
      </trkpt>
      <trkpt lat="41.4660710" lon="2.0909080">
        <ele>147.4</ele>
        <time>2018-04-10T10:52:49Z</time>
      </trkpt>
      <trkpt lat="41.4662420" lon="2.0908920">
        <ele>147.2</ele>
        <time>2018-04-10T10:52:51Z</time>
      </trkpt>
      <trkpt lat="41.4664140" lon="2.0908680">
        <ele>147.2</ele>
        <time>2018-04-10T10:52:53Z</time>
      </trkpt>
      <trkpt lat="41.4665920" lon="2.0908420">
        <ele>147.0</ele>
        <time>2018-04-10T10:52:55Z</time>
      </trkpt>
      <trkpt lat="41.4667750" lon="2.0908210">
        <ele>146.6</ele>
        <time>2018-04-10T10:52:57Z</time>
      </trkpt>
      <trkpt lat="41.4669610" lon="2.0908100">
        <ele>146.4</ele>
        <time>2018-04-10T10:52:59Z</time>
      </trkpt>
      <trkpt lat="41.4670590" lon="2.0908040">
        <ele>146.0</ele>
        <time>2018-04-10T10:53:00Z</time>
      </trkpt>
      <trkpt lat="41.4671580" lon="2.0907970">
        <ele>146.0</ele>
        <time>2018-04-10T10:53:01Z</time>
      </trkpt>
      <trkpt lat="41.4673680" lon="2.0907710">
        <ele>145.6</ele>
        <time>2018-04-10T10:53:03Z</time>
      </trkpt>
      <trkpt lat="41.4675820" lon="2.0907540">
        <ele>145.0</ele>
        <time>2018-04-10T10:53:05Z</time>
      </trkpt>
      <trkpt lat="41.4677990" lon="2.0907460">
        <ele>144.2</ele>
        <time>2018-04-10T10:53:07Z</time>
      </trkpt>
      <trkpt lat="41.4679110" lon="2.0907420">
        <ele>143.8</ele>
        <time>2018-04-10T10:53:08Z</time>
      </trkpt>
      <trkpt lat="41.4680230" lon="2.0907360">
        <ele>143.2</ele>
        <time>2018-04-10T10:53:09Z</time>
      </trkpt>
      <trkpt lat="41.4681350" lon="2.0907240">
        <ele>142.6</ele>
        <time>2018-04-10T10:53:10Z</time>
      </trkpt>
      <trkpt lat="41.4682470" lon="2.0907070">
        <ele>142.0</ele>
        <time>2018-04-10T10:53:11Z</time>
      </trkpt>
      <trkpt lat="41.4683590" lon="2.0906900">
        <ele>141.4</ele>
        <time>2018-04-10T10:53:12Z</time>
      </trkpt>
      <trkpt lat="41.4684700" lon="2.0906770">
        <ele>141.0</ele>
        <time>2018-04-10T10:53:13Z</time>
      </trkpt>
      <trkpt lat="41.4685810" lon="2.0906620">
        <ele>139.8</ele>
        <time>2018-04-10T10:53:14Z</time>
      </trkpt>
      <trkpt lat="41.4686910" lon="2.0906460">
        <ele>139.2</ele>
        <time>2018-04-10T10:53:15Z</time>
      </trkpt>
      <trkpt lat="41.4688000" lon="2.0906300">
        <ele>138.6</ele>
        <time>2018-04-10T10:53:16Z</time>
      </trkpt>
      <trkpt lat="41.4689070" lon="2.0906130">
        <ele>138.0</ele>
        <time>2018-04-10T10:53:17Z</time>
      </trkpt>
      <trkpt lat="41.4690130" lon="2.0905980">
        <ele>137.6</ele>
        <time>2018-04-10T10:53:18Z</time>
      </trkpt>
      <trkpt lat="41.4691190" lon="2.0905820">
        <ele>137.2</ele>
        <time>2018-04-10T10:53:19Z</time>
      </trkpt>
      <trkpt lat="41.4692240" lon="2.0905650">
        <ele>136.8</ele>
        <time>2018-04-10T10:53:20Z</time>
      </trkpt>
      <trkpt lat="41.4693260" lon="2.0905530">
        <ele>136.2</ele>
        <time>2018-04-10T10:53:21Z</time>
      </trkpt>
      <trkpt lat="41.4695110" lon="2.0905350">
        <ele>135.2</ele>
        <time>2018-04-10T10:53:23Z</time>
      </trkpt>
      <trkpt lat="41.4695930" lon="2.0905210">
        <ele>134.6</ele>
        <time>2018-04-10T10:53:24Z</time>
      </trkpt>
      <trkpt lat="41.4696680" lon="2.0905130">
        <ele>134.2</ele>
        <time>2018-04-10T10:53:25Z</time>
      </trkpt>
      <trkpt lat="41.4697840" lon="2.0905540">
        <ele>133.6</ele>
        <time>2018-04-10T10:53:27Z</time>
      </trkpt>
      <trkpt lat="41.4698720" lon="2.0906550">
        <ele>132.8</ele>
        <time>2018-04-10T10:53:29Z</time>
      </trkpt>
      <trkpt lat="41.4699260" lon="2.0906960">
        <ele>132.6</ele>
        <time>2018-04-10T10:53:30Z</time>
      </trkpt>
      <trkpt lat="41.4699830" lon="2.0907420">
        <ele>132.4</ele>
        <time>2018-04-10T10:53:31Z</time>
      </trkpt>
      <trkpt lat="41.4700550" lon="2.0908910">
        <ele>132.2</ele>
        <time>2018-04-10T10:53:33Z</time>
      </trkpt>
      <trkpt lat="41.4700810" lon="2.0910800">
        <ele>131.8</ele>
        <time>2018-04-10T10:53:35Z</time>
      </trkpt>
      <trkpt lat="41.4700890" lon="2.0911800">
        <ele>131.6</ele>
        <time>2018-04-10T10:53:36Z</time>
      </trkpt>
      <trkpt lat="41.4700940" lon="2.0912810">
        <ele>131.4</ele>
        <time>2018-04-10T10:53:37Z</time>
      </trkpt>
      <trkpt lat="41.4701090" lon="2.0914900">
        <ele>130.6</ele>
        <time>2018-04-10T10:53:39Z</time>
      </trkpt>
      <trkpt lat="41.4701140" lon="2.0915960">
        <ele>130.4</ele>
        <time>2018-04-10T10:53:40Z</time>
      </trkpt>
      <trkpt lat="41.4701170" lon="2.0917050">
        <ele>130.0</ele>
        <time>2018-04-10T10:53:41Z</time>
      </trkpt>
      <trkpt lat="41.4701220" lon="2.0919220">
        <ele>129.4</ele>
        <time>2018-04-10T10:53:43Z</time>
      </trkpt>
      <trkpt lat="41.4701340" lon="2.0921420">
        <ele>129.4</ele>
        <time>2018-04-10T10:53:45Z</time>
      </trkpt>
      <trkpt lat="41.4701380" lon="2.0923620">
        <ele>129.2</ele>
        <time>2018-04-10T10:53:47Z</time>
      </trkpt>
      <trkpt lat="41.4701380" lon="2.0925830">
        <ele>129.2</ele>
        <time>2018-04-10T10:53:49Z</time>
      </trkpt>
      <trkpt lat="41.4701280" lon="2.0927980">
        <ele>129.0</ele>
        <time>2018-04-10T10:53:51Z</time>
      </trkpt>
      <trkpt lat="41.4701110" lon="2.0930100">
        <ele>129.0</ele>
        <time>2018-04-10T10:53:53Z</time>
      </trkpt>
      <trkpt lat="41.4700870" lon="2.0932230">
        <ele>128.6</ele>
        <time>2018-04-10T10:53:55Z</time>
      </trkpt>
      <trkpt lat="41.4700630" lon="2.0934440">
        <ele>128.4</ele>
        <time>2018-04-10T10:53:57Z</time>
      </trkpt>
      <trkpt lat="41.4700500" lon="2.0935590">
        <ele>128.4</ele>
        <time>2018-04-10T10:53:58Z</time>
      </trkpt>
      <trkpt lat="41.4700330" lon="2.0936700">
        <ele>128.2</ele>
        <time>2018-04-10T10:53:59Z</time>
      </trkpt>
      <trkpt lat="41.4699980" lon="2.0938850">
        <ele>127.8</ele>
        <time>2018-04-10T10:54:01Z</time>
      </trkpt>
      <trkpt lat="41.4699530" lon="2.0940410">
        <ele>127.4</ele>
        <time>2018-04-10T10:54:03Z</time>
      </trkpt>
      <trkpt lat="41.4699200" lon="2.0941980">
        <ele>127.4</ele>
        <time>2018-04-10T10:54:05Z</time>
      </trkpt>
      <trkpt lat="41.4699000" lon="2.0942810">
        <ele>127.2</ele>
        <time>2018-04-10T10:54:06Z</time>
      </trkpt>
      <trkpt lat="41.4698790" lon="2.0943710">
        <ele>127.2</ele>
        <time>2018-04-10T10:54:07Z</time>
      </trkpt>
      <trkpt lat="41.4698300" lon="2.0945430">
        <ele>127.2</ele>
        <time>2018-04-10T10:54:09Z</time>
      </trkpt>
      <trkpt lat="41.4697800" lon="2.0947230">
        <ele>127.2</ele>
        <time>2018-04-10T10:54:11Z</time>
      </trkpt>
      <trkpt lat="41.4697240" lon="2.0949010">
        <ele>127.0</ele>
        <time>2018-04-10T10:54:13Z</time>
      </trkpt>
      <trkpt lat="41.4696580" lon="2.0950700">
        <ele>126.8</ele>
        <time>2018-04-10T10:54:15Z</time>
      </trkpt>
      <trkpt lat="41.4695560" lon="2.0951860">
        <ele>126.8</ele>
        <time>2018-04-10T10:54:17Z</time>
      </trkpt>
      <trkpt lat="41.4694400" lon="2.0952720">
        <ele>126.4</ele>
        <time>2018-04-10T10:54:19Z</time>
      </trkpt>
      <trkpt lat="41.4693710" lon="2.0954240">
        <ele>126.2</ele>
        <time>2018-04-10T10:54:21Z</time>
      </trkpt>
      <trkpt lat="41.4693850" lon="2.0956030">
        <ele>125.8</ele>
        <time>2018-04-10T10:54:23Z</time>
      </trkpt>
      <trkpt lat="41.4694650" lon="2.0957250">
        <ele>125.6</ele>
        <time>2018-04-10T10:54:25Z</time>
      </trkpt>
      <trkpt lat="41.4695940" lon="2.0957290">
        <ele>125.4</ele>
        <time>2018-04-10T10:54:27Z</time>
      </trkpt>
      <trkpt lat="41.4697460" lon="2.0957330">
        <ele>125.0</ele>
        <time>2018-04-10T10:54:29Z</time>
      </trkpt>
      <trkpt lat="41.4698970" lon="2.0958080">
        <ele>124.8</ele>
        <time>2018-04-10T10:54:31Z</time>
      </trkpt>
      <trkpt lat="41.4700490" lon="2.0959040">
        <ele>124.6</ele>
        <time>2018-04-10T10:54:33Z</time>
      </trkpt>
      <trkpt lat="41.4702120" lon="2.0960110">
        <ele>124.6</ele>
        <time>2018-04-10T10:54:35Z</time>
      </trkpt>
      <trkpt lat="41.4703750" lon="2.0961180">
        <ele>124.6</ele>
        <time>2018-04-10T10:54:37Z</time>
      </trkpt>
      <trkpt lat="41.4705350" lon="2.0962260">
        <ele>124.4</ele>
        <time>2018-04-10T10:54:39Z</time>
      </trkpt>
      <trkpt lat="41.4706130" lon="2.0962760">
        <ele>124.2</ele>
        <time>2018-04-10T10:54:40Z</time>
      </trkpt>
      <trkpt lat="41.4706910" lon="2.0963250">
        <ele>124.0</ele>
        <time>2018-04-10T10:54:41Z</time>
      </trkpt>
      <trkpt lat="41.4708460" lon="2.0964300">
        <ele>123.8</ele>
        <time>2018-04-10T10:54:43Z</time>
      </trkpt>
      <trkpt lat="41.4709980" lon="2.0965330">
        <ele>123.2</ele>
        <time>2018-04-10T10:54:45Z</time>
      </trkpt>
      <trkpt lat="41.4710750" lon="2.0965850">
        <ele>123.2</ele>
        <time>2018-04-10T10:54:46Z</time>
      </trkpt>
      <trkpt lat="41.4711510" lon="2.0966360">
        <ele>123.0</ele>
        <time>2018-04-10T10:54:47Z</time>
      </trkpt>
      <trkpt lat="41.4713010" lon="2.0967330">
        <ele>122.4</ele>
        <time>2018-04-10T10:54:49Z</time>
      </trkpt>
      <trkpt lat="41.4714540" lon="2.0968260">
        <ele>122.0</ele>
        <time>2018-04-10T10:54:51Z</time>
      </trkpt>
      <trkpt lat="41.4716040" lon="2.0969190">
        <ele>121.6</ele>
        <time>2018-04-10T10:54:53Z</time>
      </trkpt>
      <trkpt lat="41.4717540" lon="2.0970110">
        <ele>121.4</ele>
        <time>2018-04-10T10:54:55Z</time>
      </trkpt>
      <trkpt lat="41.4719090" lon="2.0971060">
        <ele>121.2</ele>
        <time>2018-04-10T10:54:57Z</time>
      </trkpt>
      <trkpt lat="41.4720620" lon="2.0972070">
        <ele>121.0</ele>
        <time>2018-04-10T10:54:59Z</time>
      </trkpt>
      <trkpt lat="41.4721350" lon="2.0972600">
        <ele>121.0</ele>
        <time>2018-04-10T10:55:00Z</time>
      </trkpt>
      <trkpt lat="41.4722130" lon="2.0973110">
        <ele>121.0</ele>
        <time>2018-04-10T10:55:01Z</time>
      </trkpt>
      <trkpt lat="41.4723670" lon="2.0974140">
        <ele>120.8</ele>
        <time>2018-04-10T10:55:03Z</time>
      </trkpt>
      <trkpt lat="41.4725230" lon="2.0975180">
        <ele>120.6</ele>
        <time>2018-04-10T10:55:05Z</time>
      </trkpt>
      <trkpt lat="41.4726810" lon="2.0975920">
        <ele>120.4</ele>
        <time>2018-04-10T10:55:07Z</time>
      </trkpt>
      <trkpt lat="41.4728460" lon="2.0976380">
        <ele>120.4</ele>
        <time>2018-04-10T10:55:09Z</time>
      </trkpt>
      <trkpt lat="41.4730150" lon="2.0976500">
        <ele>120.2</ele>
        <time>2018-04-10T10:55:11Z</time>
      </trkpt>
      <trkpt lat="41.4731870" lon="2.0976350">
        <ele>120.0</ele>
        <time>2018-04-10T10:55:13Z</time>
      </trkpt>
      <trkpt lat="41.4732720" lon="2.0976140">
        <ele>120.0</ele>
        <time>2018-04-10T10:55:14Z</time>
      </trkpt>
      <trkpt lat="41.4733540" lon="2.0975870">
        <ele>120.0</ele>
        <time>2018-04-10T10:55:15Z</time>
      </trkpt>
      <trkpt lat="41.4735180" lon="2.0975200">
        <ele>119.8</ele>
        <time>2018-04-10T10:55:17Z</time>
      </trkpt>
      <trkpt lat="41.4736850" lon="2.0974760">
        <ele>119.6</ele>
        <time>2018-04-10T10:55:19Z</time>
      </trkpt>
      <trkpt lat="41.4737710" lon="2.0974660">
        <ele>119.6</ele>
        <time>2018-04-10T10:55:20Z</time>
      </trkpt>
      <trkpt lat="41.4738580" lon="2.0974720">
        <ele>119.6</ele>
        <time>2018-04-10T10:55:21Z</time>
      </trkpt>
      <trkpt lat="41.4740290" lon="2.0974980">
        <ele>119.6</ele>
        <time>2018-04-10T10:55:23Z</time>
      </trkpt>
      <trkpt lat="41.4741920" lon="2.0975350">
        <ele>119.6</ele>
        <time>2018-04-10T10:55:25Z</time>
      </trkpt>
      <trkpt lat="41.4743480" lon="2.0975840">
        <ele>119.6</ele>
        <time>2018-04-10T10:55:27Z</time>
      </trkpt>
      <trkpt lat="41.4744940" lon="2.0976160">
        <ele>119.6</ele>
        <time>2018-04-10T10:55:29Z</time>
      </trkpt>
      <trkpt lat="41.4746450" lon="2.0976430">
        <ele>120.0</ele>
        <time>2018-04-10T10:55:31Z</time>
      </trkpt>
      <trkpt lat="41.4747190" lon="2.0976580">
        <ele>120.2</ele>
        <time>2018-04-10T10:55:32Z</time>
      </trkpt>
      <trkpt lat="41.4747930" lon="2.0976710">
        <ele>120.4</ele>
        <time>2018-04-10T10:55:33Z</time>
      </trkpt>
      <trkpt lat="41.4749410" lon="2.0977010">
        <ele>120.6</ele>
        <time>2018-04-10T10:55:35Z</time>
      </trkpt>
      <trkpt lat="41.4750890" lon="2.0977480">
        <ele>120.6</ele>
        <time>2018-04-10T10:55:37Z</time>
      </trkpt>
      <trkpt lat="41.4752390" lon="2.0977820">
        <ele>120.8</ele>
        <time>2018-04-10T10:55:39Z</time>
      </trkpt>
      <trkpt lat="41.4753830" lon="2.0978180">
        <ele>121.0</ele>
        <time>2018-04-10T10:55:41Z</time>
      </trkpt>
      <trkpt lat="41.4755180" lon="2.0978640">
        <ele>121.0</ele>
        <time>2018-04-10T10:55:43Z</time>
      </trkpt>
      <trkpt lat="41.4755780" lon="2.0979110">
        <ele>121.0</ele>
        <time>2018-04-10T10:55:44Z</time>
      </trkpt>
      <trkpt lat="41.4756230" lon="2.0979760">
        <ele>121.2</ele>
        <time>2018-04-10T10:55:45Z</time>
      </trkpt>
      <trkpt lat="41.4757070" lon="2.0981170">
        <ele>121.4</ele>
        <time>2018-04-10T10:55:47Z</time>
      </trkpt>
      <trkpt lat="41.4758050" lon="2.0981650">
        <ele>121.4</ele>
        <time>2018-04-10T10:55:49Z</time>
      </trkpt>
      <trkpt lat="41.4759140" lon="2.0980930">
        <ele>121.4</ele>
        <time>2018-04-10T10:55:51Z</time>
      </trkpt>
      <trkpt lat="41.4760200" lon="2.0979670">
        <ele>121.2</ele>
        <time>2018-04-10T10:55:53Z</time>
      </trkpt>
      <trkpt lat="41.4760800" lon="2.0978980">
        <ele>121.4</ele>
        <time>2018-04-10T10:55:54Z</time>
      </trkpt>
      <trkpt lat="41.4761390" lon="2.0978280">
        <ele>121.4</ele>
        <time>2018-04-10T10:55:55Z</time>
      </trkpt>
      <trkpt lat="41.4762570" lon="2.0976920">
        <ele>121.6</ele>
        <time>2018-04-10T10:55:57Z</time>
      </trkpt>
      <trkpt lat="41.4763710" lon="2.0975550">
        <ele>121.6</ele>
        <time>2018-04-10T10:55:59Z</time>
      </trkpt>
      <trkpt lat="41.4764790" lon="2.0974270">
        <ele>121.6</ele>
        <time>2018-04-10T10:56:01Z</time>
      </trkpt>
      <trkpt lat="41.4765320" lon="2.0973670">
        <ele>121.6</ele>
        <time>2018-04-10T10:56:02Z</time>
      </trkpt>
      <trkpt lat="41.4765850" lon="2.0973100">
        <ele>121.6</ele>
        <time>2018-04-10T10:56:03Z</time>
      </trkpt>
      <trkpt lat="41.4766800" lon="2.0971950">
        <ele>121.8</ele>
        <time>2018-04-10T10:56:05Z</time>
      </trkpt>
      <trkpt lat="41.4767660" lon="2.0970870">
        <ele>122.0</ele>
        <time>2018-04-10T10:56:07Z</time>
      </trkpt>
      <trkpt lat="41.4768060" lon="2.0970370">
        <ele>122.2</ele>
        <time>2018-04-10T10:56:08Z</time>
      </trkpt>
      <trkpt lat="41.4768440" lon="2.0969910">
        <ele>122.8</ele>
        <time>2018-04-10T10:56:09Z</time>
      </trkpt>
      <trkpt lat="41.4769280" lon="2.0969030">
        <ele>123.8</ele>
        <time>2018-04-10T10:56:11Z</time>
      </trkpt>
      <trkpt lat="41.4770300" lon="2.0968660">
        <ele>124.8</ele>
        <time>2018-04-10T10:56:13Z</time>
      </trkpt>
      <trkpt lat="41.4771420" lon="2.0968660">
        <ele>126.0</ele>
        <time>2018-04-10T10:56:15Z</time>
      </trkpt>
      <trkpt lat="41.4772570" lon="2.0968360">
        <ele>126.8</ele>
        <time>2018-04-10T10:56:17Z</time>
      </trkpt>
      <trkpt lat="41.4773190" lon="2.0968140">
        <ele>127.2</ele>
        <time>2018-04-10T10:56:18Z</time>
      </trkpt>
      <trkpt lat="41.4773830" lon="2.0968190">
        <ele>127.4</ele>
        <time>2018-04-10T10:56:19Z</time>
      </trkpt>
      <trkpt lat="41.4774900" lon="2.0969100">
        <ele>127.6</ele>
        <time>2018-04-10T10:56:21Z</time>
      </trkpt>
      <trkpt lat="41.4775390" lon="2.0969770">
        <ele>127.8</ele>
        <time>2018-04-10T10:56:22Z</time>
      </trkpt>
      <trkpt lat="41.4775890" lon="2.0970450">
        <ele>127.8</ele>
        <time>2018-04-10T10:56:23Z</time>
      </trkpt>
      <trkpt lat="41.4776870" lon="2.0971860">
        <ele>128.0</ele>
        <time>2018-04-10T10:56:25Z</time>
      </trkpt>
      <trkpt lat="41.4777830" lon="2.0973380">
        <ele>128.0</ele>
        <time>2018-04-10T10:56:27Z</time>
      </trkpt>
      <trkpt lat="41.4778770" lon="2.0975010">
        <ele>128.0</ele>
        <time>2018-04-10T10:56:29Z</time>
      </trkpt>
      <trkpt lat="41.4779630" lon="2.0976750">
        <ele>128.0</ele>
        <time>2018-04-10T10:56:31Z</time>
      </trkpt>
      <trkpt lat="41.4780440" lon="2.0978590">
        <ele>128.0</ele>
        <time>2018-04-10T10:56:33Z</time>
      </trkpt>
      <trkpt lat="41.4781250" lon="2.0980430">
        <ele>128.0</ele>
        <time>2018-04-10T10:56:35Z</time>
      </trkpt>
      <trkpt lat="41.4782060" lon="2.0982290">
        <ele>127.8</ele>
        <time>2018-04-10T10:56:37Z</time>
      </trkpt>
      <trkpt lat="41.4782880" lon="2.0984140">
        <ele>127.8</ele>
        <time>2018-04-10T10:56:39Z</time>
      </trkpt>
      <trkpt lat="41.4783750" lon="2.0986040">
        <ele>127.6</ele>
        <time>2018-04-10T10:56:41Z</time>
      </trkpt>
      <trkpt lat="41.4784630" lon="2.0988020">
        <ele>127.4</ele>
        <time>2018-04-10T10:56:43Z</time>
      </trkpt>
      <trkpt lat="41.4785580" lon="2.0990040">
        <ele>127.2</ele>
        <time>2018-04-10T10:56:45Z</time>
      </trkpt>
      <trkpt lat="41.4786510" lon="2.0992090">
        <ele>127.0</ele>
        <time>2018-04-10T10:56:47Z</time>
      </trkpt>
      <trkpt lat="41.4787430" lon="2.0994160">
        <ele>126.8</ele>
        <time>2018-04-10T10:56:49Z</time>
      </trkpt>
      <trkpt lat="41.4788320" lon="2.0996210">
        <ele>126.6</ele>
        <time>2018-04-10T10:56:51Z</time>
      </trkpt>
      <trkpt lat="41.4789230" lon="2.0998200">
        <ele>126.2</ele>
        <time>2018-04-10T10:56:53Z</time>
      </trkpt>
      <trkpt lat="41.4789690" lon="2.0999180">
        <ele>125.6</ele>
        <time>2018-04-10T10:56:54Z</time>
      </trkpt>
      <trkpt lat="41.4790150" lon="2.1000150">
        <ele>125.2</ele>
        <time>2018-04-10T10:56:55Z</time>
      </trkpt>
      <trkpt lat="41.4791070" lon="2.1002060">
        <ele>124.4</ele>
        <time>2018-04-10T10:56:57Z</time>
      </trkpt>
      <trkpt lat="41.4792040" lon="2.1003920">
        <ele>124.2</ele>
        <time>2018-04-10T10:56:59Z</time>
      </trkpt>
      <trkpt lat="41.4793000" lon="2.1005770">
        <ele>124.0</ele>
        <time>2018-04-10T10:57:01Z</time>
      </trkpt>
      <trkpt lat="41.4793990" lon="2.1007540">
        <ele>123.8</ele>
        <time>2018-04-10T10:57:03Z</time>
      </trkpt>
      <trkpt lat="41.4794990" lon="2.1009270">
        <ele>123.6</ele>
        <time>2018-04-10T10:57:05Z</time>
      </trkpt>
      <trkpt lat="41.4796080" lon="2.1010890">
        <ele>123.4</ele>
        <time>2018-04-10T10:57:07Z</time>
      </trkpt>
      <trkpt lat="41.4797210" lon="2.1012470">
        <ele>123.2</ele>
        <time>2018-04-10T10:57:09Z</time>
      </trkpt>
      <trkpt lat="41.4798400" lon="2.1014000">
        <ele>123.2</ele>
        <time>2018-04-10T10:57:11Z</time>
      </trkpt>
      <trkpt lat="41.4799620" lon="2.1015490">
        <ele>122.8</ele>
        <time>2018-04-10T10:57:13Z</time>
      </trkpt>
      <trkpt lat="41.4800910" lon="2.1016910">
        <ele>122.6</ele>
        <time>2018-04-10T10:57:15Z</time>
      </trkpt>
      <trkpt lat="41.4802240" lon="2.1018220">
        <ele>122.4</ele>
        <time>2018-04-10T10:57:17Z</time>
      </trkpt>
      <trkpt lat="41.4803570" lon="2.1019620">
        <ele>122.4</ele>
        <time>2018-04-10T10:57:19Z</time>
      </trkpt>
      <trkpt lat="41.4804160" lon="2.1020440">
        <ele>122.4</ele>
        <time>2018-04-10T10:57:20Z</time>
      </trkpt>
      <trkpt lat="41.4804610" lon="2.1021410">
        <ele>122.4</ele>
        <time>2018-04-10T10:57:21Z</time>
      </trkpt>
      <trkpt lat="41.4805020" lon="2.1023630">
        <ele>122.4</ele>
        <time>2018-04-10T10:57:23Z</time>
      </trkpt>
      <trkpt lat="41.4805240" lon="2.1024740">
        <ele>122.4</ele>
        <time>2018-04-10T10:57:24Z</time>
      </trkpt>
      <trkpt lat="41.4805650" lon="2.1025750">
        <ele>122.4</ele>
        <time>2018-04-10T10:57:25Z</time>
      </trkpt>
      <trkpt lat="41.4806930" lon="2.1027160">
        <ele>122.2</ele>
        <time>2018-04-10T10:57:27Z</time>
      </trkpt>
      <trkpt lat="41.4808520" lon="2.1027540">
        <ele>122.0</ele>
        <time>2018-04-10T10:57:29Z</time>
      </trkpt>
      <trkpt lat="41.4810160" lon="2.1027620">
        <ele>121.2</ele>
        <time>2018-04-10T10:57:31Z</time>
      </trkpt>
      <trkpt lat="41.4811640" lon="2.1028400">
        <ele>121.2</ele>
        <time>2018-04-10T10:57:33Z</time>
      </trkpt>
      <trkpt lat="41.4812930" lon="2.1029740">
        <ele>120.8</ele>
        <time>2018-04-10T10:57:35Z</time>
      </trkpt>
      <trkpt lat="41.4814240" lon="2.1031160">
        <ele>121.0</ele>
        <time>2018-04-10T10:57:37Z</time>
      </trkpt>
      <trkpt lat="41.4815520" lon="2.1032610">
        <ele>120.8</ele>
        <time>2018-04-10T10:57:39Z</time>
      </trkpt>
      <trkpt lat="41.4816790" lon="2.1034100">
        <ele>120.8</ele>
        <time>2018-04-10T10:57:41Z</time>
      </trkpt>
      <trkpt lat="41.4818010" lon="2.1035690">
        <ele>120.6</ele>
        <time>2018-04-10T10:57:43Z</time>
      </trkpt>
      <trkpt lat="41.4819040" lon="2.1037390">
        <ele>120.6</ele>
        <time>2018-04-10T10:57:45Z</time>
      </trkpt>
      <trkpt lat="41.4819940" lon="2.1039110">
        <ele>120.6</ele>
        <time>2018-04-10T10:57:47Z</time>
      </trkpt>
      <trkpt lat="41.4820710" lon="2.1040770">
        <ele>120.6</ele>
        <time>2018-04-10T10:57:49Z</time>
      </trkpt>
      <trkpt lat="41.4821350" lon="2.1042410">
        <ele>120.6</ele>
        <time>2018-04-10T10:57:51Z</time>
      </trkpt>
      <trkpt lat="41.4821850" lon="2.1043980">
        <ele>120.6</ele>
        <time>2018-04-10T10:57:53Z</time>
      </trkpt>
      <trkpt lat="41.4822040" lon="2.1044760">
        <ele>120.6</ele>
        <time>2018-04-10T10:57:54Z</time>
      </trkpt>
      <trkpt lat="41.4822210" lon="2.1045540">
        <ele>120.6</ele>
        <time>2018-04-10T10:57:55Z</time>
      </trkpt>
      <trkpt lat="41.4822530" lon="2.1047070">
        <ele>120.8</ele>
        <time>2018-04-10T10:57:57Z</time>
      </trkpt>
      <trkpt lat="41.4822830" lon="2.1048600">
        <ele>121.4</ele>
        <time>2018-04-10T10:57:59Z</time>
      </trkpt>
      <trkpt lat="41.4822950" lon="2.1049390">
        <ele>121.8</ele>
        <time>2018-04-10T10:58:00Z</time>
      </trkpt>
      <trkpt lat="41.4823080" lon="2.1050180">
        <ele>122.2</ele>
        <time>2018-04-10T10:58:01Z</time>
      </trkpt>
      <trkpt lat="41.4823400" lon="2.1051790">
        <ele>122.6</ele>
        <time>2018-04-10T10:58:03Z</time>
      </trkpt>
      <trkpt lat="41.4823730" lon="2.1053410">
        <ele>123.4</ele>
        <time>2018-04-10T10:58:05Z</time>
      </trkpt>
      <trkpt lat="41.4824070" lon="2.1055080">
        <ele>123.8</ele>
        <time>2018-04-10T10:58:07Z</time>
      </trkpt>
      <trkpt lat="41.4824410" lon="2.1056850">
        <ele>124.0</ele>
        <time>2018-04-10T10:58:09Z</time>
      </trkpt>
      <trkpt lat="41.4824790" lon="2.1058680">
        <ele>124.4</ele>
        <time>2018-04-10T10:58:11Z</time>
      </trkpt>
      <trkpt lat="41.4825180" lon="2.1060590">
        <ele>124.6</ele>
        <time>2018-04-10T10:58:13Z</time>
      </trkpt>
      <trkpt lat="41.4825590" lon="2.1062600">
        <ele>124.6</ele>
        <time>2018-04-10T10:58:15Z</time>
      </trkpt>
      <trkpt lat="41.4826050" lon="2.1064690">
        <ele>124.6</ele>
        <time>2018-04-10T10:58:17Z</time>
      </trkpt>
      <trkpt lat="41.4826550" lon="2.1066880">
        <ele>124.6</ele>
        <time>2018-04-10T10:58:19Z</time>
      </trkpt>
      <trkpt lat="41.4827050" lon="2.1069140">
        <ele>124.4</ele>
        <time>2018-04-10T10:58:21Z</time>
      </trkpt>
      <trkpt lat="41.4827620" lon="2.1071470">
        <ele>123.8</ele>
        <time>2018-04-10T10:58:23Z</time>
      </trkpt>
      <trkpt lat="41.4828240" lon="2.1073830">
        <ele>123.2</ele>
        <time>2018-04-10T10:58:25Z</time>
      </trkpt>
      <trkpt lat="41.4828890" lon="2.1076230">
        <ele>122.4</ele>
        <time>2018-04-10T10:58:27Z</time>
      </trkpt>
      <trkpt lat="41.4829570" lon="2.1078620">
        <ele>121.6</ele>
        <time>2018-04-10T10:58:29Z</time>
      </trkpt>
      <trkpt lat="41.4829890" lon="2.1079800">
        <ele>121.2</ele>
        <time>2018-04-10T10:58:30Z</time>
      </trkpt>
      <trkpt lat="41.4830230" lon="2.1080980">
        <ele>120.8</ele>
        <time>2018-04-10T10:58:31Z</time>
      </trkpt>
      <trkpt lat="41.4830940" lon="2.1083300">
        <ele>120.2</ele>
        <time>2018-04-10T10:58:33Z</time>
      </trkpt>
      <trkpt lat="41.4831300" lon="2.1084430">
        <ele>119.6</ele>
        <time>2018-04-10T10:58:34Z</time>
      </trkpt>
      <trkpt lat="41.4831660" lon="2.1085550">
        <ele>119.4</ele>
        <time>2018-04-10T10:58:35Z</time>
      </trkpt>
      <trkpt lat="41.4832390" lon="2.1087740">
        <ele>118.8</ele>
        <time>2018-04-10T10:58:37Z</time>
      </trkpt>
      <trkpt lat="41.4833160" lon="2.1089880">
        <ele>118.4</ele>
        <time>2018-04-10T10:58:39Z</time>
      </trkpt>
      <trkpt lat="41.4833900" lon="2.1091990">
        <ele>118.0</ele>
        <time>2018-04-10T10:58:41Z</time>
      </trkpt>
      <trkpt lat="41.4834660" lon="2.1094060">
        <ele>118.0</ele>
        <time>2018-04-10T10:58:43Z</time>
      </trkpt>
      <trkpt lat="41.4835440" lon="2.1096100">
        <ele>117.8</ele>
        <time>2018-04-10T10:58:45Z</time>
      </trkpt>
      <trkpt lat="41.4836230" lon="2.1098140">
        <ele>117.8</ele>
        <time>2018-04-10T10:58:47Z</time>
      </trkpt>
      <trkpt lat="41.4837020" lon="2.1100180">
        <ele>117.6</ele>
        <time>2018-04-10T10:58:49Z</time>
      </trkpt>
      <trkpt lat="41.4837860" lon="2.1102220">
        <ele>117.6</ele>
        <time>2018-04-10T10:58:51Z</time>
      </trkpt>
      <trkpt lat="41.4838660" lon="2.1104240">
        <ele>117.4</ele>
        <time>2018-04-10T10:58:53Z</time>
      </trkpt>
      <trkpt lat="41.4839460" lon="2.1106260">
        <ele>117.2</ele>
        <time>2018-04-10T10:58:55Z</time>
      </trkpt>
      <trkpt lat="41.4840260" lon="2.1108350">
        <ele>117.0</ele>
        <time>2018-04-10T10:58:57Z</time>
      </trkpt>
      <trkpt lat="41.4841130" lon="2.1110460">
        <ele>116.8</ele>
        <time>2018-04-10T10:58:59Z</time>
      </trkpt>
      <trkpt lat="41.4842010" lon="2.1112620">
        <ele>116.6</ele>
        <time>2018-04-10T10:59:01Z</time>
      </trkpt>
      <trkpt lat="41.4842870" lon="2.1114850">
        <ele>116.4</ele>
        <time>2018-04-10T10:59:03Z</time>
      </trkpt>
      <trkpt lat="41.4843310" lon="2.1115970">
        <ele>116.2</ele>
        <time>2018-04-10T10:59:04Z</time>
      </trkpt>
      <trkpt lat="41.4843740" lon="2.1117090">
        <ele>116.0</ele>
        <time>2018-04-10T10:59:05Z</time>
      </trkpt>
      <trkpt lat="41.4844620" lon="2.1119350">
        <ele>115.4</ele>
        <time>2018-04-10T10:59:07Z</time>
      </trkpt>
      <trkpt lat="41.4845060" lon="2.1120500">
        <ele>115.2</ele>
        <time>2018-04-10T10:59:08Z</time>
      </trkpt>
      <trkpt lat="41.4845500" lon="2.1121660">
        <ele>114.8</ele>
        <time>2018-04-10T10:59:09Z</time>
      </trkpt>
      <trkpt lat="41.4846390" lon="2.1123950">
        <ele>114.4</ele>
        <time>2018-04-10T10:59:11Z</time>
      </trkpt>
      <trkpt lat="41.4847260" lon="2.1126210">
        <ele>114.0</ele>
        <time>2018-04-10T10:59:13Z</time>
      </trkpt>
      <trkpt lat="41.4848130" lon="2.1128450">
        <ele>113.6</ele>
        <time>2018-04-10T10:59:15Z</time>
      </trkpt>
      <trkpt lat="41.4848990" lon="2.1130670">
        <ele>113.0</ele>
        <time>2018-04-10T10:59:17Z</time>
      </trkpt>
      <trkpt lat="41.4849410" lon="2.1131770">
        <ele>112.8</ele>
        <time>2018-04-10T10:59:18Z</time>
      </trkpt>
      <trkpt lat="41.4849830" lon="2.1132870">
        <ele>112.6</ele>
        <time>2018-04-10T10:59:19Z</time>
      </trkpt>
      <trkpt lat="41.4850630" lon="2.1135070">
        <ele>112.4</ele>
        <time>2018-04-10T10:59:21Z</time>
      </trkpt>
      <trkpt lat="41.4851340" lon="2.1137240">
        <ele>112.2</ele>
        <time>2018-04-10T10:59:23Z</time>
      </trkpt>
      <trkpt lat="41.4851920" lon="2.1139430">
        <ele>112.0</ele>
        <time>2018-04-10T10:59:25Z</time>
      </trkpt>
      <trkpt lat="41.4852130" lon="2.1140530">
        <ele>112.0</ele>
        <time>2018-04-10T10:59:26Z</time>
      </trkpt>
      <trkpt lat="41.4852230" lon="2.1141670">
        <ele>112.0</ele>
        <time>2018-04-10T10:59:27Z</time>
      </trkpt>
      <trkpt lat="41.4851880" lon="2.1143850">
        <ele>111.8</ele>
        <time>2018-04-10T10:59:29Z</time>
      </trkpt>
      <trkpt lat="41.4851030" lon="2.1145760">
        <ele>111.8</ele>
        <time>2018-04-10T10:59:31Z</time>
      </trkpt>
      <trkpt lat="41.4850730" lon="2.1147840">
        <ele>111.8</ele>
        <time>2018-04-10T10:59:33Z</time>
      </trkpt>
      <trkpt lat="41.4851140" lon="2.1149780">
        <ele>111.8</ele>
        <time>2018-04-10T10:59:35Z</time>
      </trkpt>
      <trkpt lat="41.4851900" lon="2.1151390">
        <ele>111.8</ele>
        <time>2018-04-10T10:59:37Z</time>
      </trkpt>
      <trkpt lat="41.4852360" lon="2.1153110">
        <ele>112.0</ele>
        <time>2018-04-10T10:59:39Z</time>
      </trkpt>
      <trkpt lat="41.4852450" lon="2.1154850">
        <ele>112.2</ele>
        <time>2018-04-10T10:59:41Z</time>
      </trkpt>
      <trkpt lat="41.4852540" lon="2.1156460">
        <ele>112.4</ele>
        <time>2018-04-10T10:59:43Z</time>
      </trkpt>
      <trkpt lat="41.4852700" lon="2.1158020">
        <ele>112.8</ele>
        <time>2018-04-10T10:59:45Z</time>
      </trkpt>
      <trkpt lat="41.4852830" lon="2.1158790">
        <ele>113.0</ele>
        <time>2018-04-10T10:59:46Z</time>
      </trkpt>
      <trkpt lat="41.4852970" lon="2.1159550">
        <ele>113.2</ele>
        <time>2018-04-10T10:59:47Z</time>
      </trkpt>
      <trkpt lat="41.4853230" lon="2.1161060">
        <ele>113.6</ele>
        <time>2018-04-10T10:59:49Z</time>
      </trkpt>
      <trkpt lat="41.4853400" lon="2.1161790">
        <ele>114.0</ele>
        <time>2018-04-10T10:59:50Z</time>
      </trkpt>
      <trkpt lat="41.4853570" lon="2.1162520">
        <ele>114.6</ele>
        <time>2018-04-10T10:59:51Z</time>
      </trkpt>
      <trkpt lat="41.4853900" lon="2.1163990">
        <ele>115.2</ele>
        <time>2018-04-10T10:59:53Z</time>
      </trkpt>
      <trkpt lat="41.4854230" lon="2.1165460">
        <ele>116.0</ele>
        <time>2018-04-10T10:59:55Z</time>
      </trkpt>
      <trkpt lat="41.4854380" lon="2.1166180">
        <ele>116.4</ele>
        <time>2018-04-10T10:59:56Z</time>
      </trkpt>
      <trkpt lat="41.4854560" lon="2.1166900">
        <ele>116.6</ele>
        <time>2018-04-10T10:59:57Z</time>
      </trkpt>
      <trkpt lat="41.4854940" lon="2.1168360">
        <ele>117.0</ele>
        <time>2018-04-10T10:59:59Z</time>
      </trkpt>
      <trkpt lat="41.4855140" lon="2.1169100">
        <ele>117.4</ele>
        <time>2018-04-10T11:00:00Z</time>
      </trkpt>
      <trkpt lat="41.4855340" lon="2.1169830">
        <ele>117.6</ele>
        <time>2018-04-10T11:00:01Z</time>
      </trkpt>
      <trkpt lat="41.4855700" lon="2.1171320">
        <ele>118.2</ele>
        <time>2018-04-10T11:00:03Z</time>
      </trkpt>
      <trkpt lat="41.4855910" lon="2.1172060">
        <ele>118.6</ele>
        <time>2018-04-10T11:00:04Z</time>
      </trkpt>
      <trkpt lat="41.4856100" lon="2.1172820">
        <ele>119.0</ele>
        <time>2018-04-10T11:00:05Z</time>
      </trkpt>
      <trkpt lat="41.4856480" lon="2.1174310">
        <ele>119.4</ele>
        <time>2018-04-10T11:00:07Z</time>
      </trkpt>
      <trkpt lat="41.4856660" lon="2.1175070">
        <ele>119.8</ele>
        <time>2018-04-10T11:00:08Z</time>
      </trkpt>
      <trkpt lat="41.4856840" lon="2.1175840">
        <ele>119.8</ele>
        <time>2018-04-10T11:00:09Z</time>
      </trkpt>
      <trkpt lat="41.4857250" lon="2.1177390">
        <ele>120.2</ele>
        <time>2018-04-10T11:00:11Z</time>
      </trkpt>
      <trkpt lat="41.4857660" lon="2.1178960">
        <ele>120.6</ele>
        <time>2018-04-10T11:00:13Z</time>
      </trkpt>
      <trkpt lat="41.4858060" lon="2.1180590">
        <ele>120.6</ele>
        <time>2018-04-10T11:00:15Z</time>
      </trkpt>
      <trkpt lat="41.4858450" lon="2.1182270">
        <ele>120.8</ele>
        <time>2018-04-10T11:00:17Z</time>
      </trkpt>
      <trkpt lat="41.4858890" lon="2.1184000">
        <ele>120.8</ele>
        <time>2018-04-10T11:00:19Z</time>
      </trkpt>
      <trkpt lat="41.4859350" lon="2.1185810">
        <ele>121.0</ele>
        <time>2018-04-10T11:00:21Z</time>
      </trkpt>
      <trkpt lat="41.4859810" lon="2.1187720">
        <ele>121.0</ele>
        <time>2018-04-10T11:00:23Z</time>
      </trkpt>
      <trkpt lat="41.4860240" lon="2.1189730">
        <ele>121.0</ele>
        <time>2018-04-10T11:00:25Z</time>
      </trkpt>
      <trkpt lat="41.4860660" lon="2.1191800">
        <ele>121.0</ele>
        <time>2018-04-10T11:00:27Z</time>
      </trkpt>
      <trkpt lat="41.4860990" lon="2.1194010">
        <ele>120.8</ele>
        <time>2018-04-10T11:00:29Z</time>
      </trkpt>
      <trkpt lat="41.4861270" lon="2.1196370">
        <ele>120.2</ele>
        <time>2018-04-10T11:00:31Z</time>
      </trkpt>
      <trkpt lat="41.4861370" lon="2.1197600">
        <ele>119.8</ele>
        <time>2018-04-10T11:00:32Z</time>
      </trkpt>
      <trkpt lat="41.4861450" lon="2.1198860">
        <ele>119.2</ele>
        <time>2018-04-10T11:00:33Z</time>
      </trkpt>
      <trkpt lat="41.4861610" lon="2.1201510">
        <ele>118.6</ele>
        <time>2018-04-10T11:00:35Z</time>
      </trkpt>
      <trkpt lat="41.4861680" lon="2.1204270">
        <ele>118.0</ele>
        <time>2018-04-10T11:00:37Z</time>
      </trkpt>
      <trkpt lat="41.4861650" lon="2.1205670">
        <ele>117.6</ele>
        <time>2018-04-10T11:00:38Z</time>
      </trkpt>
      <trkpt lat="41.4861610" lon="2.1207070">
        <ele>117.2</ele>
        <time>2018-04-10T11:00:39Z</time>
      </trkpt>
      <trkpt lat="41.4861530" lon="2.1208440">
        <ele>116.4</ele>
        <time>2018-04-10T11:00:40Z</time>
      </trkpt>
      <trkpt lat="41.4861430" lon="2.1209760">
        <ele>115.6</ele>
        <time>2018-04-10T11:00:41Z</time>
      </trkpt>
      <trkpt lat="41.4861360" lon="2.1210980">
        <ele>115.2</ele>
        <time>2018-04-10T11:00:42Z</time>
      </trkpt>
      <trkpt lat="41.4861310" lon="2.1212080">
        <ele>114.8</ele>
        <time>2018-04-10T11:00:43Z</time>
      </trkpt>
      <trkpt lat="41.4861240" lon="2.1213080">
        <ele>114.2</ele>
        <time>2018-04-10T11:00:44Z</time>
      </trkpt>
      <trkpt lat="41.4861020" lon="2.1214010">
        <ele>113.6</ele>
        <time>2018-04-10T11:00:45Z</time>
      </trkpt>
      <trkpt lat="41.4860620" lon="2.1214840">
        <ele>112.8</ele>
        <time>2018-04-10T11:00:46Z</time>
      </trkpt>
      <trkpt lat="41.4860060" lon="2.1215570">
        <ele>112.2</ele>
        <time>2018-04-10T11:00:47Z</time>
      </trkpt>
      <trkpt lat="41.4859410" lon="2.1216190">
        <ele>111.8</ele>
        <time>2018-04-10T11:00:48Z</time>
      </trkpt>
      <trkpt lat="41.4858760" lon="2.1216810">
        <ele>111.8</ele>
        <time>2018-04-10T11:00:49Z</time>
      </trkpt>
      <trkpt lat="41.4857820" lon="2.1218410">
        <ele>111.2</ele>
        <time>2018-04-10T11:00:51Z</time>
      </trkpt>
      <trkpt lat="41.4857580" lon="2.1220370">
        <ele>111.0</ele>
        <time>2018-04-10T11:00:53Z</time>
      </trkpt>
      <trkpt lat="41.4857960" lon="2.1222270">
        <ele>110.6</ele>
        <time>2018-04-10T11:00:55Z</time>
      </trkpt>
      <trkpt lat="41.4858390" lon="2.1224030">
        <ele>110.2</ele>
        <time>2018-04-10T11:00:57Z</time>
      </trkpt>
      <trkpt lat="41.4858370" lon="2.1225780">
        <ele>110.2</ele>
        <time>2018-04-10T11:00:59Z</time>
      </trkpt>
      <trkpt lat="41.4857970" lon="2.1227430">
        <ele>110.2</ele>
        <time>2018-04-10T11:01:01Z</time>
      </trkpt>
      <trkpt lat="41.4857540" lon="2.1229130">
        <ele>110.2</ele>
        <time>2018-04-10T11:01:03Z</time>
      </trkpt>
      <trkpt lat="41.4857070" lon="2.1230770">
        <ele>110.4</ele>
        <time>2018-04-10T11:01:05Z</time>
      </trkpt>
      <trkpt lat="41.4856630" lon="2.1232420">
        <ele>110.6</ele>
        <time>2018-04-10T11:01:07Z</time>
      </trkpt>
      <trkpt lat="41.4856200" lon="2.1234110">
        <ele>110.8</ele>
        <time>2018-04-10T11:01:09Z</time>
      </trkpt>
      <trkpt lat="41.4855800" lon="2.1235880">
        <ele>111.0</ele>
        <time>2018-04-10T11:01:11Z</time>
      </trkpt>
      <trkpt lat="41.4855400" lon="2.1237710">
        <ele>111.0</ele>
        <time>2018-04-10T11:01:13Z</time>
      </trkpt>
      <trkpt lat="41.4854920" lon="2.1239620">
        <ele>111.0</ele>
        <time>2018-04-10T11:01:15Z</time>
      </trkpt>
      <trkpt lat="41.4854400" lon="2.1241590">
        <ele>111.0</ele>
        <time>2018-04-10T11:01:17Z</time>
      </trkpt>
      <trkpt lat="41.4853900" lon="2.1243620">
        <ele>110.8</ele>
        <time>2018-04-10T11:01:19Z</time>
      </trkpt>
      <trkpt lat="41.4853420" lon="2.1245720">
        <ele>110.6</ele>
        <time>2018-04-10T11:01:21Z</time>
      </trkpt>
      <trkpt lat="41.4852990" lon="2.1247860">
        <ele>110.4</ele>
        <time>2018-04-10T11:01:23Z</time>
      </trkpt>
      <trkpt lat="41.4852630" lon="2.1250060">
        <ele>110.2</ele>
        <time>2018-04-10T11:01:25Z</time>
      </trkpt>
      <trkpt lat="41.4852440" lon="2.1251190">
        <ele>109.8</ele>
        <time>2018-04-10T11:01:26Z</time>
      </trkpt>
      <trkpt lat="41.4852290" lon="2.1252330">
        <ele>109.6</ele>
        <time>2018-04-10T11:01:27Z</time>
      </trkpt>
      <trkpt lat="41.4852090" lon="2.1254660">
        <ele>108.6</ele>
        <time>2018-04-10T11:01:29Z</time>
      </trkpt>
      <trkpt lat="41.4851910" lon="2.1256950">
        <ele>107.8</ele>
        <time>2018-04-10T11:01:31Z</time>
      </trkpt>
      <trkpt lat="41.4851830" lon="2.1258080">
        <ele>107.6</ele>
        <time>2018-04-10T11:01:32Z</time>
      </trkpt>
      <trkpt lat="41.4851780" lon="2.1259210">
        <ele>107.2</ele>
        <time>2018-04-10T11:01:33Z</time>
      </trkpt>
      <trkpt lat="41.4851750" lon="2.1261460">
        <ele>106.8</ele>
        <time>2018-04-10T11:01:35Z</time>
      </trkpt>
      <trkpt lat="41.4851800" lon="2.1263710">
        <ele>106.4</ele>
        <time>2018-04-10T11:01:37Z</time>
      </trkpt>
      <trkpt lat="41.4851910" lon="2.1266000">
        <ele>106.0</ele>
        <time>2018-04-10T11:01:39Z</time>
      </trkpt>
      <trkpt lat="41.4852070" lon="2.1268310">
        <ele>105.8</ele>
        <time>2018-04-10T11:01:41Z</time>
      </trkpt>
      <trkpt lat="41.4852280" lon="2.1270650">
        <ele>105.6</ele>
        <time>2018-04-10T11:01:43Z</time>
      </trkpt>
      <trkpt lat="41.4852550" lon="2.1272990">
        <ele>105.4</ele>
        <time>2018-04-10T11:01:45Z</time>
      </trkpt>
      <trkpt lat="41.4852800" lon="2.1275260">
        <ele>105.2</ele>
        <time>2018-04-10T11:01:47Z</time>
      </trkpt>
      <trkpt lat="41.4852220" lon="2.1277330">
        <ele>105.2</ele>
        <time>2018-04-10T11:01:49Z</time>
      </trkpt>
      <trkpt lat="41.4850980" lon="2.1278730">
        <ele>104.8</ele>
        <time>2018-04-10T11:01:51Z</time>
      </trkpt>
      <trkpt lat="41.4850100" lon="2.1280570">
        <ele>104.4</ele>
        <time>2018-04-10T11:01:53Z</time>
      </trkpt>
      <trkpt lat="41.4849980" lon="2.1281660">
        <ele>104.2</ele>
        <time>2018-04-10T11:01:54Z</time>
      </trkpt>
      <trkpt lat="41.4850110" lon="2.1282820">
        <ele>103.8</ele>
        <time>2018-04-10T11:01:55Z</time>
      </trkpt>
      <trkpt lat="41.4851060" lon="2.1284840">
        <ele>103.2</ele>
        <time>2018-04-10T11:01:57Z</time>
      </trkpt>
      <trkpt lat="41.4851790" lon="2.1285530">
        <ele>102.8</ele>
        <time>2018-04-10T11:01:58Z</time>
      </trkpt>
      <trkpt lat="41.4852630" lon="2.1285990">
        <ele>102.4</ele>
        <time>2018-04-10T11:01:59Z</time>
      </trkpt>
      <trkpt lat="41.4854050" lon="2.1287170">
        <ele>102.2</ele>
        <time>2018-04-10T11:02:01Z</time>
      </trkpt>
      <trkpt lat="41.4854540" lon="2.1289360">
        <ele>102.0</ele>
        <time>2018-04-10T11:02:03Z</time>
      </trkpt>
      <trkpt lat="41.4854630" lon="2.1290560">
        <ele>101.8</ele>
        <time>2018-04-10T11:02:04Z</time>
      </trkpt>
      <trkpt lat="41.4854690" lon="2.1291770">
        <ele>101.6</ele>
        <time>2018-04-10T11:02:05Z</time>
      </trkpt>
      <trkpt lat="41.4854840" lon="2.1294230">
        <ele>101.4</ele>
        <time>2018-04-10T11:02:07Z</time>
      </trkpt>
      <trkpt lat="41.4855010" lon="2.1296670">
        <ele>101.4</ele>
        <time>2018-04-10T11:02:09Z</time>
      </trkpt>
      <trkpt lat="41.4855150" lon="2.1299130">
        <ele>101.2</ele>
        <time>2018-04-10T11:02:11Z</time>
      </trkpt>
      <trkpt lat="41.4855160" lon="2.1301600">
        <ele>101.2</ele>
        <time>2018-04-10T11:02:13Z</time>
      </trkpt>
      <trkpt lat="41.4855010" lon="2.1304070">
        <ele>101.2</ele>
        <time>2018-04-10T11:02:15Z</time>
      </trkpt>
      <trkpt lat="41.4854770" lon="2.1306480">
        <ele>101.0</ele>
        <time>2018-04-10T11:02:17Z</time>
      </trkpt>
      <trkpt lat="41.4854670" lon="2.1307670">
        <ele>101.0</ele>
        <time>2018-04-10T11:02:18Z</time>
      </trkpt>
      <trkpt lat="41.4854600" lon="2.1308840">
        <ele>100.8</ele>
        <time>2018-04-10T11:02:19Z</time>
      </trkpt>
      <trkpt lat="41.4854570" lon="2.1311080">
        <ele>100.8</ele>
        <time>2018-04-10T11:02:21Z</time>
      </trkpt>
      <trkpt lat="41.4854710" lon="2.1313180">
        <ele>100.8</ele>
        <time>2018-04-10T11:02:23Z</time>
      </trkpt>
      <trkpt lat="41.4854980" lon="2.1315180">
        <ele>100.8</ele>
        <time>2018-04-10T11:02:25Z</time>
      </trkpt>
      <trkpt lat="41.4855180" lon="2.1317070">
        <ele>100.8</ele>
        <time>2018-04-10T11:02:27Z</time>
      </trkpt>
      <trkpt lat="41.4855300" lon="2.1318910">
        <ele>101.0</ele>
        <time>2018-04-10T11:02:29Z</time>
      </trkpt>
      <trkpt lat="41.4855410" lon="2.1320700">
        <ele>101.4</ele>
        <time>2018-04-10T11:02:31Z</time>
      </trkpt>
      <trkpt lat="41.4855540" lon="2.1322440">
        <ele>101.6</ele>
        <time>2018-04-10T11:02:33Z</time>
      </trkpt>
      <trkpt lat="41.4855110" lon="2.1323920">
        <ele>101.6</ele>
        <time>2018-04-10T11:02:35Z</time>
      </trkpt>
      <trkpt lat="41.4853990" lon="2.1324460">
        <ele>101.6</ele>
        <time>2018-04-10T11:02:37Z</time>
      </trkpt>
      <trkpt lat="41.4853360" lon="2.1324470">
        <ele>101.6</ele>
        <time>2018-04-10T11:02:38Z</time>
      </trkpt>
      <trkpt lat="41.4852710" lon="2.1324460">
        <ele>101.6</ele>
        <time>2018-04-10T11:02:39Z</time>
      </trkpt>
      <trkpt lat="41.4851540" lon="2.1324530">
        <ele>101.6</ele>
        <time>2018-04-10T11:02:41Z</time>
      </trkpt>
      <trkpt lat="41.4850460" lon="2.1324540">
        <ele>101.6</ele>
        <time>2018-04-10T11:02:43Z</time>
      </trkpt>
      <trkpt lat="41.4849310" lon="2.1324640">
        <ele>101.4</ele>
        <time>2018-04-10T11:02:45Z</time>
      </trkpt>
      <trkpt lat="41.4848090" lon="2.1324830">
        <ele>101.2</ele>
        <time>2018-04-10T11:02:47Z</time>
      </trkpt>
      <trkpt lat="41.4846980" lon="2.1325030">
        <ele>101.0</ele>
        <time>2018-04-10T11:02:49Z</time>
      </trkpt>
      <trkpt lat="41.4845860" lon="2.1325280">
        <ele>100.6</ele>
        <time>2018-04-10T11:02:51Z</time>
      </trkpt>
      <trkpt lat="41.4844710" lon="2.1325410">
        <ele>100.6</ele>
        <time>2018-04-10T11:02:53Z</time>
      </trkpt>
      <trkpt lat="41.4843420" lon="2.1325460">
        <ele>100.4</ele>
        <time>2018-04-10T11:02:55Z</time>
      </trkpt>
      <trkpt lat="41.4842030" lon="2.1325540">
        <ele>100.2</ele>
        <time>2018-04-10T11:02:57Z</time>
      </trkpt>
      <trkpt lat="41.4840520" lon="2.1325650">
        <ele>99.8</ele>
        <time>2018-04-10T11:02:59Z</time>
      </trkpt>
      <trkpt lat="41.4838960" lon="2.1325820">
        <ele>99.6</ele>
        <time>2018-04-10T11:03:01Z</time>
      </trkpt>
      <trkpt lat="41.4837310" lon="2.1325970">
        <ele>99.0</ele>
        <time>2018-04-10T11:03:03Z</time>
      </trkpt>
      <trkpt lat="41.4836430" lon="2.1326060">
        <ele>98.8</ele>
        <time>2018-04-10T11:03:04Z</time>
      </trkpt>
      <trkpt lat="41.4835550" lon="2.1326150">
        <ele>98.4</ele>
        <time>2018-04-10T11:03:05Z</time>
      </trkpt>
      <trkpt lat="41.4833640" lon="2.1326370">
        <ele>97.6</ele>
        <time>2018-04-10T11:03:07Z</time>
      </trkpt>
      <trkpt lat="41.4831760" lon="2.1326590">
        <ele>96.8</ele>
        <time>2018-04-10T11:03:09Z</time>
      </trkpt>
      <trkpt lat="41.4830830" lon="2.1326680">
        <ele>96.4</ele>
        <time>2018-04-10T11:03:10Z</time>
      </trkpt>
      <trkpt lat="41.4829920" lon="2.1326770">
        <ele>96.0</ele>
        <time>2018-04-10T11:03:11Z</time>
      </trkpt>
      <trkpt lat="41.4828160" lon="2.1326950">
        <ele>95.2</ele>
        <time>2018-04-10T11:03:13Z</time>
      </trkpt>
      <trkpt lat="41.4826500" lon="2.1327110">
        <ele>94.0</ele>
        <time>2018-04-10T11:03:15Z</time>
      </trkpt>
      <trkpt lat="41.4824870" lon="2.1327230">
        <ele>93.2</ele>
        <time>2018-04-10T11:03:17Z</time>
      </trkpt>
      <trkpt lat="41.4824070" lon="2.1327310">
        <ele>93.0</ele>
        <time>2018-04-10T11:03:18Z</time>
      </trkpt>
      <trkpt lat="41.4823260" lon="2.1327370">
        <ele>92.8</ele>
        <time>2018-04-10T11:03:19Z</time>
      </trkpt>
      <trkpt lat="41.4822480" lon="2.1327300">
        <ele>92.8</ele>
        <time>2018-04-10T11:03:20Z</time>
      </trkpt>
      <trkpt lat="41.4821730" lon="2.1327070">
        <ele>92.6</ele>
        <time>2018-04-10T11:03:21Z</time>
      </trkpt>
      <trkpt lat="41.4820430" lon="2.1326260">
        <ele>92.6</ele>
        <time>2018-04-10T11:03:23Z</time>
      </trkpt>
      <trkpt lat="41.4819420" lon="2.1325320">
        <ele>92.6</ele>
        <time>2018-04-10T11:03:25Z</time>
      </trkpt>
      <trkpt lat="41.4818540" lon="2.1324500">
        <ele>92.6</ele>
        <time>2018-04-10T11:03:27Z</time>
      </trkpt>
      <trkpt lat="41.4817770" lon="2.1323800">
        <ele>92.8</ele>
        <time>2018-04-10T11:03:29Z</time>
      </trkpt>
      <trkpt lat="41.4817060" lon="2.1323230">
        <ele>93.0</ele>
        <time>2018-04-10T11:03:31Z</time>
      </trkpt>
      <trkpt lat="41.4816470" lon="2.1322660">
        <ele>93.6</ele>
        <time>2018-04-10T11:03:33Z</time>
      </trkpt>
      <trkpt lat="41.4816150" lon="2.1322370">
        <ele>94.0</ele>
        <time>2018-04-10T11:03:34Z</time>
      </trkpt>
      <trkpt lat="41.4815840" lon="2.1322110">
        <ele>94.4</ele>
        <time>2018-04-10T11:03:35Z</time>
      </trkpt>
      <trkpt lat="41.4815210" lon="2.1321640">
        <ele>95.2</ele>
        <time>2018-04-10T11:03:37Z</time>
      </trkpt>
      <trkpt lat="41.4814630" lon="2.1321190">
        <ele>96.0</ele>
        <time>2018-04-10T11:03:39Z</time>
      </trkpt>
      <trkpt lat="41.4814340" lon="2.1320960">
        <ele>96.2</ele>
        <time>2018-04-10T11:03:40Z</time>
      </trkpt>
      <trkpt lat="41.4814010" lon="2.1320730">
        <ele>96.4</ele>
        <time>2018-04-10T11:03:41Z</time>
      </trkpt>
      <trkpt lat="41.4813280" lon="2.1320340">
        <ele>97.0</ele>
        <time>2018-04-10T11:03:43Z</time>
      </trkpt>
      <trkpt lat="41.4812900" lon="2.1320140">
        <ele>97.2</ele>
        <time>2018-04-10T11:03:44Z</time>
      </trkpt>
      <trkpt lat="41.4812510" lon="2.1319960">
        <ele>97.6</ele>
        <time>2018-04-10T11:03:45Z</time>
      </trkpt>
      <trkpt lat="41.4811710" lon="2.1319640">
        <ele>98.0</ele>
        <time>2018-04-10T11:03:47Z</time>
      </trkpt>
      <trkpt lat="41.4811360" lon="2.1319460">
        <ele>98.2</ele>
        <time>2018-04-10T11:03:48Z</time>
      </trkpt>
      <trkpt lat="41.4811030" lon="2.1319270">
        <ele>98.6</ele>
        <time>2018-04-10T11:03:49Z</time>
      </trkpt>
      <trkpt lat="41.4810350" lon="2.1318930">
        <ele>98.8</ele>
        <time>2018-04-10T11:03:51Z</time>
      </trkpt>
      <trkpt lat="41.4809680" lon="2.1318560">
        <ele>99.4</ele>
        <time>2018-04-10T11:03:53Z</time>
      </trkpt>
      <trkpt lat="41.4809110" lon="2.1318200">
        <ele>99.8</ele>
        <time>2018-04-10T11:03:55Z</time>
      </trkpt>
      <trkpt lat="41.4808510" lon="2.1317850">
        <ele>100.4</ele>
        <time>2018-04-10T11:03:57Z</time>
      </trkpt>
      <trkpt lat="41.4808170" lon="2.1317680">
        <ele>100.6</ele>
        <time>2018-04-10T11:03:58Z</time>
      </trkpt>
      <trkpt lat="41.4807830" lon="2.1317500">
        <ele>101.0</ele>
        <time>2018-04-10T11:03:59Z</time>
      </trkpt>
      <trkpt lat="41.4807120" lon="2.1317130">
        <ele>101.4</ele>
        <time>2018-04-10T11:04:01Z</time>
      </trkpt>
      <trkpt lat="41.4806410" lon="2.1316780">
        <ele>101.8</ele>
        <time>2018-04-10T11:04:03Z</time>
      </trkpt>
      <trkpt lat="41.4805660" lon="2.1316390">
        <ele>102.2</ele>
        <time>2018-04-10T11:04:05Z</time>
      </trkpt>
      <trkpt lat="41.4804900" lon="2.1316040">
        <ele>102.4</ele>
        <time>2018-04-10T11:04:07Z</time>
      </trkpt>
      <trkpt lat="41.4804120" lon="2.1315820">
        <ele>102.8</ele>
        <time>2018-04-10T11:04:09Z</time>
      </trkpt>
      <trkpt lat="41.4803740" lon="2.1315760">
        <ele>102.8</ele>
        <time>2018-04-10T11:04:10Z</time>
      </trkpt>
      <trkpt lat="41.4803360" lon="2.1315750">
        <ele>103.4</ele>
        <time>2018-04-10T11:04:11Z</time>
      </trkpt>
      <trkpt lat="41.4802620" lon="2.1315900">
        <ele>104.0</ele>
        <time>2018-04-10T11:04:13Z</time>
      </trkpt>
      <trkpt lat="41.4801920" lon="2.1316210">
        <ele>104.2</ele>
        <time>2018-04-10T11:04:15Z</time>
      </trkpt>
      <trkpt lat="41.4801230" lon="2.1316610">
        <ele>104.2</ele>
        <time>2018-04-10T11:04:17Z</time>
      </trkpt>
      <trkpt lat="41.4800550" lon="2.1317140">
        <ele>104.4</ele>
        <time>2018-04-10T11:04:19Z</time>
      </trkpt>
      <trkpt lat="41.4799900" lon="2.1317710">
        <ele>104.4</ele>
        <time>2018-04-10T11:04:21Z</time>
      </trkpt>
      <trkpt lat="41.4799270" lon="2.1318300">
        <ele>104.6</ele>
        <time>2018-04-10T11:04:23Z</time>
      </trkpt>
      <trkpt lat="41.4798630" lon="2.1318880">
        <ele>104.8</ele>
        <time>2018-04-10T11:04:25Z</time>
      </trkpt>
      <trkpt lat="41.4798290" lon="2.1319120">
        <ele>105.0</ele>
        <time>2018-04-10T11:04:26Z</time>
      </trkpt>
      <trkpt lat="41.4797930" lon="2.1319300">
        <ele>105.2</ele>
        <time>2018-04-10T11:04:27Z</time>
      </trkpt>
      <trkpt lat="41.4797280" lon="2.1319420">
        <ele>105.6</ele>
        <time>2018-04-10T11:04:29Z</time>
      </trkpt>
      <trkpt lat="41.4796640" lon="2.1319320">
        <ele>105.8</ele>
        <time>2018-04-10T11:04:31Z</time>
      </trkpt>
      <trkpt lat="41.4796100" lon="2.1319050">
        <ele>106.2</ele>
        <time>2018-04-10T11:04:33Z</time>
      </trkpt>
      <trkpt lat="41.4795570" lon="2.1318670">
        <ele>106.4</ele>
        <time>2018-04-10T11:04:35Z</time>
      </trkpt>
      <trkpt lat="41.4794900" lon="2.1318180">
        <ele>106.6</ele>
        <time>2018-04-10T11:04:37Z</time>
      </trkpt>
      <trkpt lat="41.4794140" lon="2.1317580">
        <ele>107.2</ele>
        <time>2018-04-10T11:04:39Z</time>
      </trkpt>
      <trkpt lat="41.4793820" lon="2.1317220">
        <ele>107.4</ele>
        <time>2018-04-10T11:04:40Z</time>
      </trkpt>
      <trkpt lat="41.4793540" lon="2.1316860">
        <ele>107.4</ele>
        <time>2018-04-10T11:04:41Z</time>
      </trkpt>
      <trkpt lat="41.4792880" lon="2.1316110">
        <ele>107.8</ele>
        <time>2018-04-10T11:04:43Z</time>
      </trkpt>
      <trkpt lat="41.4792270" lon="2.1315360">
        <ele>108.2</ele>
        <time>2018-04-10T11:04:45Z</time>
      </trkpt>
      <trkpt lat="41.4791700" lon="2.1314520">
        <ele>108.4</ele>
        <time>2018-04-10T11:04:47Z</time>
      </trkpt>
      <trkpt lat="41.4791110" lon="2.1313650">
        <ele>108.6</ele>
        <time>2018-04-10T11:04:49Z</time>
      </trkpt>
      <trkpt lat="41.4790510" lon="2.1312780">
        <ele>109.0</ele>
        <time>2018-04-10T11:04:51Z</time>
      </trkpt>
      <trkpt lat="41.4790200" lon="2.1312350">
        <ele>109.4</ele>
        <time>2018-04-10T11:04:52Z</time>
      </trkpt>
      <trkpt lat="41.4789890" lon="2.1311920">
        <ele>109.6</ele>
        <time>2018-04-10T11:04:53Z</time>
      </trkpt>
      <trkpt lat="41.4789260" lon="2.1311060">
        <ele>109.8</ele>
        <time>2018-04-10T11:04:55Z</time>
      </trkpt>
      <trkpt lat="41.4788640" lon="2.1310160">
        <ele>110.0</ele>
        <time>2018-04-10T11:04:57Z</time>
      </trkpt>
      <trkpt lat="41.4788040" lon="2.1309260">
        <ele>110.2</ele>
        <time>2018-04-10T11:04:59Z</time>
      </trkpt>
      <trkpt lat="41.4787420" lon="2.1308370">
        <ele>110.4</ele>
        <time>2018-04-10T11:05:01Z</time>
      </trkpt>
      <trkpt lat="41.4786780" lon="2.1307490">
        <ele>110.8</ele>
        <time>2018-04-10T11:05:03Z</time>
      </trkpt>
      <trkpt lat="41.4786180" lon="2.1306620">
        <ele>111.0</ele>
        <time>2018-04-10T11:05:05Z</time>
      </trkpt>
      <trkpt lat="41.4785570" lon="2.1305750">
        <ele>111.4</ele>
        <time>2018-04-10T11:05:07Z</time>
      </trkpt>
      <trkpt lat="41.4784980" lon="2.1304890">
        <ele>111.6</ele>
        <time>2018-04-10T11:05:09Z</time>
      </trkpt>
      <trkpt lat="41.4784410" lon="2.1304040">
        <ele>111.8</ele>
        <time>2018-04-10T11:05:11Z</time>
      </trkpt>
      <trkpt lat="41.4783830" lon="2.1303230">
        <ele>111.8</ele>
        <time>2018-04-10T11:05:13Z</time>
      </trkpt>
      <trkpt lat="41.4783260" lon="2.1302430">
        <ele>112.2</ele>
        <time>2018-04-10T11:05:15Z</time>
      </trkpt>
      <trkpt lat="41.4782980" lon="2.1302030">
        <ele>112.8</ele>
        <time>2018-04-10T11:05:16Z</time>
      </trkpt>
      <trkpt lat="41.4782710" lon="2.1301600">
        <ele>113.2</ele>
        <time>2018-04-10T11:05:17Z</time>
      </trkpt>
      <trkpt lat="41.4782180" lon="2.1300780">
        <ele>113.8</ele>
        <time>2018-04-10T11:05:19Z</time>
      </trkpt>
      <trkpt lat="41.4781900" lon="2.1300400">
        <ele>113.8</ele>
        <time>2018-04-10T11:05:20Z</time>
      </trkpt>
      <trkpt lat="41.4781610" lon="2.1300040">
        <ele>114.2</ele>
        <time>2018-04-10T11:05:21Z</time>
      </trkpt>
      <trkpt lat="41.4781030" lon="2.1299330">
        <ele>114.6</ele>
        <time>2018-04-10T11:05:23Z</time>
      </trkpt>
      <trkpt lat="41.4780730" lon="2.1299010">
        <ele>114.8</ele>
        <time>2018-04-10T11:05:24Z</time>
      </trkpt>
      <trkpt lat="41.4780420" lon="2.1298730">
        <ele>115.2</ele>
        <time>2018-04-10T11:05:25Z</time>
      </trkpt>
      <trkpt lat="41.4779760" lon="2.1298250">
        <ele>115.6</ele>
        <time>2018-04-10T11:05:27Z</time>
      </trkpt>
      <trkpt lat="41.4779110" lon="2.1297840">
        <ele>115.8</ele>
        <time>2018-04-10T11:05:29Z</time>
      </trkpt>
      <trkpt lat="41.4778720" lon="2.1297740">
        <ele>115.8</ele>
        <time>2018-04-10T11:05:30Z</time>
      </trkpt>
      <trkpt lat="41.4778320" lon="2.1297700">
        <ele>116.2</ele>
        <time>2018-04-10T11:05:31Z</time>
      </trkpt>
      <trkpt lat="41.4777500" lon="2.1297650">
        <ele>116.6</ele>
        <time>2018-04-10T11:05:33Z</time>
      </trkpt>
      <trkpt lat="41.4776670" lon="2.1297510">
        <ele>117.2</ele>
        <time>2018-04-10T11:05:35Z</time>
      </trkpt>
      <trkpt lat="41.4775890" lon="2.1297200">
        <ele>117.8</ele>
        <time>2018-04-10T11:05:37Z</time>
      </trkpt>
      <trkpt lat="41.4775230" lon="2.1296840">
        <ele>118.2</ele>
        <time>2018-04-10T11:05:39Z</time>
      </trkpt>
      <trkpt lat="41.4774680" lon="2.1296460">
        <ele>118.4</ele>
        <time>2018-04-10T11:05:41Z</time>
      </trkpt>
      <trkpt lat="41.4774110" lon="2.1296020">
        <ele>118.8</ele>
        <time>2018-04-10T11:05:43Z</time>
      </trkpt>
      <trkpt lat="41.4773420" lon="2.1295550">
        <ele>119.2</ele>
        <time>2018-04-10T11:05:45Z</time>
      </trkpt>
      <trkpt lat="41.4772730" lon="2.1295060">
        <ele>119.8</ele>
        <time>2018-04-10T11:05:47Z</time>
      </trkpt>
      <trkpt lat="41.4772060" lon="2.1294610">
        <ele>120.6</ele>
        <time>2018-04-10T11:05:49Z</time>
      </trkpt>
      <trkpt lat="41.4771420" lon="2.1294290">
        <ele>121.2</ele>
        <time>2018-04-10T11:05:51Z</time>
      </trkpt>
      <trkpt lat="41.4770640" lon="2.1294240">
        <ele>121.6</ele>
        <time>2018-04-10T11:05:53Z</time>
      </trkpt>
      <trkpt lat="41.4770260" lon="2.1294330">
        <ele>121.6</ele>
        <time>2018-04-10T11:05:54Z</time>
      </trkpt>
      <trkpt lat="41.4769900" lon="2.1294450">
        <ele>121.8</ele>
        <time>2018-04-10T11:05:55Z</time>
      </trkpt>
      <trkpt lat="41.4769280" lon="2.1294790">
        <ele>122.0</ele>
        <time>2018-04-10T11:05:57Z</time>
      </trkpt>
      <trkpt lat="41.4768620" lon="2.1295310">
        <ele>122.4</ele>
        <time>2018-04-10T11:05:59Z</time>
      </trkpt>
      <trkpt lat="41.4768300" lon="2.1295580">
        <ele>122.8</ele>
        <time>2018-04-10T11:06:00Z</time>
      </trkpt>
      <trkpt lat="41.4767950" lon="2.1295830">
        <ele>123.0</ele>
        <time>2018-04-10T11:06:01Z</time>
      </trkpt>
      <trkpt lat="41.4767230" lon="2.1295960">
        <ele>123.4</ele>
        <time>2018-04-10T11:06:03Z</time>
      </trkpt>
      <trkpt lat="41.4766970" lon="2.1295830">
        <ele>123.4</ele>
        <time>2018-04-10T11:06:04Z</time>
      </trkpt>
      <trkpt lat="41.4766730" lon="2.1295600">
        <ele>123.6</ele>
        <time>2018-04-10T11:06:05Z</time>
      </trkpt>
      <trkpt lat="41.4766300" lon="2.1295000">
        <ele>123.6</ele>
        <time>2018-04-10T11:06:07Z</time>
      </trkpt>
      <trkpt lat="41.4765920" lon="2.1294350">
        <ele>123.8</ele>
        <time>2018-04-10T11:06:09Z</time>
      </trkpt>
      <trkpt lat="41.4765470" lon="2.1293640">
        <ele>124.0</ele>
        <time>2018-04-10T11:06:11Z</time>
      </trkpt>
      <trkpt lat="41.4765030" lon="2.1292920">
        <ele>124.0</ele>
        <time>2018-04-10T11:06:13Z</time>
      </trkpt>
      <trkpt lat="41.4764490" lon="2.1292260">
        <ele>124.4</ele>
        <time>2018-04-10T11:06:15Z</time>
      </trkpt>
      <trkpt lat="41.4763880" lon="2.1291780">
        <ele>124.6</ele>
        <time>2018-04-10T11:06:17Z</time>
      </trkpt>
      <trkpt lat="41.4763590" lon="2.1291640">
        <ele>124.8</ele>
        <time>2018-04-10T11:06:18Z</time>
      </trkpt>
      <trkpt lat="41.4763270" lon="2.1291510">
        <ele>125.0</ele>
        <time>2018-04-10T11:06:19Z</time>
      </trkpt>
      <trkpt lat="41.4762620" lon="2.1291330">
        <ele>125.2</ele>
        <time>2018-04-10T11:06:21Z</time>
      </trkpt>
      <trkpt lat="41.4761740" lon="2.1291140">
        <ele>125.4</ele>
        <time>2018-04-10T11:06:23Z</time>
      </trkpt>
      <trkpt lat="41.4760870" lon="2.1291150">
        <ele>125.6</ele>
        <time>2018-04-10T11:06:25Z</time>
      </trkpt>
      <trkpt lat="41.4760000" lon="2.1291330">
        <ele>126.0</ele>
        <time>2018-04-10T11:06:27Z</time>
      </trkpt>
      <trkpt lat="41.4759130" lon="2.1291640">
        <ele>126.2</ele>
        <time>2018-04-10T11:06:29Z</time>
      </trkpt>
      <trkpt lat="41.4758710" lon="2.1291880">
        <ele>126.4</ele>
        <time>2018-04-10T11:06:30Z</time>
      </trkpt>
      <trkpt lat="41.4758300" lon="2.1292150">
        <ele>126.8</ele>
        <time>2018-04-10T11:06:31Z</time>
      </trkpt>
      <trkpt lat="41.4757550" lon="2.1292740">
        <ele>127.2</ele>
        <time>2018-04-10T11:06:33Z</time>
      </trkpt>
      <trkpt lat="41.4757200" lon="2.1293140">
        <ele>127.2</ele>
        <time>2018-04-10T11:06:34Z</time>
      </trkpt>
      <trkpt lat="41.4756870" lon="2.1293570">
        <ele>127.4</ele>
        <time>2018-04-10T11:06:35Z</time>
      </trkpt>
      <trkpt lat="41.4756160" lon="2.1294440">
        <ele>127.6</ele>
        <time>2018-04-10T11:06:37Z</time>
      </trkpt>
      <trkpt lat="41.4755390" lon="2.1295170">
        <ele>127.8</ele>
        <time>2018-04-10T11:06:39Z</time>
      </trkpt>
      <trkpt lat="41.4754490" lon="2.1295540">
        <ele>128.2</ele>
        <time>2018-04-10T11:06:41Z</time>
      </trkpt>
      <trkpt lat="41.4754070" lon="2.1295580">
        <ele>128.2</ele>
        <time>2018-04-10T11:06:42Z</time>
      </trkpt>
      <trkpt lat="41.4753720" lon="2.1295560">
        <ele>128.4</ele>
        <time>2018-04-10T11:06:43Z</time>
      </trkpt>
      <trkpt lat="41.4753150" lon="2.1295260">
        <ele>128.6</ele>
        <time>2018-04-10T11:06:45Z</time>
      </trkpt>
      <trkpt lat="41.4752820" lon="2.1294660">
        <ele>129.0</ele>
        <time>2018-04-10T11:06:47Z</time>
      </trkpt>
      <trkpt lat="41.4752450" lon="2.1293870">
        <ele>129.4</ele>
        <time>2018-04-10T11:06:49Z</time>
      </trkpt>
      <trkpt lat="41.4752170" lon="2.1293200">
        <ele>130.0</ele>
        <time>2018-04-10T11:06:51Z</time>
      </trkpt>
      <trkpt lat="41.4752130" lon="2.1292440">
        <ele>130.4</ele>
        <time>2018-04-10T11:06:53Z</time>
      </trkpt>
      <trkpt lat="41.4752080" lon="2.1291710">
        <ele>131.2</ele>
        <time>2018-04-10T11:06:55Z</time>
      </trkpt>
      <trkpt lat="41.4752010" lon="2.1291200">
        <ele>131.6</ele>
        <time>2018-04-10T11:06:57Z</time>
      </trkpt>
      <trkpt lat="41.4751750" lon="2.1290580">
        <ele>132.2</ele>
        <time>2018-04-10T11:06:59Z</time>
      </trkpt>
      <trkpt lat="41.4751410" lon="2.1289820">
        <ele>132.8</ele>
        <time>2018-04-10T11:07:01Z</time>
      </trkpt>
      <trkpt lat="41.4751040" lon="2.1289100">
        <ele>133.2</ele>
        <time>2018-04-10T11:07:03Z</time>
      </trkpt>
      <trkpt lat="41.4750580" lon="2.1288420">
        <ele>133.4</ele>
        <time>2018-04-10T11:07:05Z</time>
      </trkpt>
      <trkpt lat="41.4750310" lon="2.1288050">
        <ele>133.8</ele>
        <time>2018-04-10T11:07:06Z</time>
      </trkpt>
      <trkpt lat="41.4750030" lon="2.1287790">
        <ele>133.8</ele>
        <time>2018-04-10T11:07:07Z</time>
      </trkpt>
      <trkpt lat="41.4749540" lon="2.1287310">
        <ele>134.2</ele>
        <time>2018-04-10T11:07:09Z</time>
      </trkpt>
      <trkpt lat="41.4749040" lon="2.1286880">
        <ele>134.4</ele>
        <time>2018-04-10T11:07:11Z</time>
      </trkpt>
      <trkpt lat="41.4748750" lon="2.1286750">
        <ele>134.8</ele>
        <time>2018-04-10T11:07:12Z</time>
      </trkpt>
      <trkpt lat="41.4748430" lon="2.1286600">
        <ele>135.0</ele>
        <time>2018-04-10T11:07:13Z</time>
      </trkpt>
      <trkpt lat="41.4747700" lon="2.1286290">
        <ele>135.6</ele>
        <time>2018-04-10T11:07:15Z</time>
      </trkpt>
      <trkpt lat="41.4747380" lon="2.1286160">
        <ele>136.2</ele>
        <time>2018-04-10T11:07:16Z</time>
      </trkpt>
      <trkpt lat="41.4747080" lon="2.1286020">
        <ele>136.2</ele>
        <time>2018-04-10T11:07:17Z</time>
      </trkpt>
      <trkpt lat="41.4746350" lon="2.1285750">
        <ele>136.4</ele>
        <time>2018-04-10T11:07:19Z</time>
      </trkpt>
      <trkpt lat="41.4745670" lon="2.1285500">
        <ele>136.8</ele>
        <time>2018-04-10T11:07:21Z</time>
      </trkpt>
      <trkpt lat="41.4744870" lon="2.1285290">
        <ele>137.0</ele>
        <time>2018-04-10T11:07:23Z</time>
      </trkpt>
      <trkpt lat="41.4744110" lon="2.1285050">
        <ele>137.2</ele>
        <time>2018-04-10T11:07:25Z</time>
      </trkpt>
      <trkpt lat="41.4743270" lon="2.1284780">
        <ele>137.6</ele>
        <time>2018-04-10T11:07:27Z</time>
      </trkpt>
      <trkpt lat="41.4742460" lon="2.1284420">
        <ele>138.2</ele>
        <time>2018-04-10T11:07:29Z</time>
      </trkpt>
      <trkpt lat="41.4742060" lon="2.1284200">
        <ele>138.4</ele>
        <time>2018-04-10T11:07:30Z</time>
      </trkpt>
      <trkpt lat="41.4741660" lon="2.1283980">
        <ele>138.6</ele>
        <time>2018-04-10T11:07:31Z</time>
      </trkpt>
      <trkpt lat="41.4740750" lon="2.1283480">
        <ele>138.8</ele>
        <time>2018-04-10T11:07:33Z</time>
      </trkpt>
      <trkpt lat="41.4739820" lon="2.1282970">
        <ele>139.2</ele>
        <time>2018-04-10T11:07:35Z</time>
      </trkpt>
      <trkpt lat="41.4738950" lon="2.1282290">
        <ele>139.4</ele>
        <time>2018-04-10T11:07:37Z</time>
      </trkpt>
      <trkpt lat="41.4738050" lon="2.1281460">
        <ele>139.4</ele>
        <time>2018-04-10T11:07:39Z</time>
      </trkpt>
      <trkpt lat="41.4737610" lon="2.1281040">
        <ele>139.4</ele>
        <time>2018-04-10T11:07:40Z</time>
      </trkpt>
      <trkpt lat="41.4737160" lon="2.1280570">
        <ele>139.4</ele>
        <time>2018-04-10T11:07:41Z</time>
      </trkpt>
      <trkpt lat="41.4736270" lon="2.1279600">
        <ele>139.4</ele>
        <time>2018-04-10T11:07:43Z</time>
      </trkpt>
      <trkpt lat="41.4735250" lon="2.1278690">
        <ele>139.2</ele>
        <time>2018-04-10T11:07:45Z</time>
      </trkpt>
      <trkpt lat="41.4734070" lon="2.1277860">
        <ele>139.0</ele>
        <time>2018-04-10T11:07:47Z</time>
      </trkpt>
      <trkpt lat="41.4732790" lon="2.1277030">
        <ele>138.6</ele>
        <time>2018-04-10T11:07:49Z</time>
      </trkpt>
      <trkpt lat="41.4731430" lon="2.1276200">
        <ele>138.2</ele>
        <time>2018-04-10T11:07:51Z</time>
      </trkpt>
      <trkpt lat="41.4730070" lon="2.1275380">
        <ele>137.8</ele>
        <time>2018-04-10T11:07:53Z</time>
      </trkpt>
      <trkpt lat="41.4728680" lon="2.1274490">
        <ele>137.4</ele>
        <time>2018-04-10T11:07:55Z</time>
      </trkpt>
      <trkpt lat="41.4727240" lon="2.1273520">
        <ele>136.8</ele>
        <time>2018-04-10T11:07:57Z</time>
      </trkpt>
      <trkpt lat="41.4725870" lon="2.1272570">
        <ele>136.0</ele>
        <time>2018-04-10T11:07:59Z</time>
      </trkpt>
      <trkpt lat="41.4725140" lon="2.1272100">
        <ele>135.6</ele>
        <time>2018-04-10T11:08:00Z</time>
      </trkpt>
      <trkpt lat="41.4724380" lon="2.1271650">
        <ele>135.2</ele>
        <time>2018-04-10T11:08:01Z</time>
      </trkpt>
      <trkpt lat="41.4722900" lon="2.1270760">
        <ele>135.0</ele>
        <time>2018-04-10T11:08:03Z</time>
      </trkpt>
      <trkpt lat="41.4721410" lon="2.1269880">
        <ele>134.4</ele>
        <time>2018-04-10T11:08:05Z</time>
      </trkpt>
      <trkpt lat="41.4720640" lon="2.1269510">
        <ele>133.8</ele>
        <time>2018-04-10T11:08:06Z</time>
      </trkpt>
      <trkpt lat="41.4719810" lon="2.1269240">
        <ele>133.4</ele>
        <time>2018-04-10T11:08:07Z</time>
      </trkpt>
      <trkpt lat="41.4718950" lon="2.1269010">
        <ele>133.0</ele>
        <time>2018-04-10T11:08:08Z</time>
      </trkpt>
      <trkpt lat="41.4718080" lon="2.1268850">
        <ele>132.6</ele>
        <time>2018-04-10T11:08:09Z</time>
      </trkpt>
      <trkpt lat="41.4716250" lon="2.1268720">
        <ele>131.8</ele>
        <time>2018-04-10T11:08:11Z</time>
      </trkpt>
      <trkpt lat="41.4714330" lon="2.1268800">
        <ele>131.6</ele>
        <time>2018-04-10T11:08:13Z</time>
      </trkpt>
      <trkpt lat="41.4712480" lon="2.1269110">
        <ele>130.8</ele>
        <time>2018-04-10T11:08:15Z</time>
      </trkpt>
      <trkpt lat="41.4710650" lon="2.1269210">
        <ele>130.0</ele>
        <time>2018-04-10T11:08:17Z</time>
      </trkpt>
      <trkpt lat="41.4709780" lon="2.1268980">
        <ele>129.6</ele>
        <time>2018-04-10T11:08:18Z</time>
      </trkpt>
      <trkpt lat="41.4709010" lon="2.1268490">
        <ele>129.2</ele>
        <time>2018-04-10T11:08:19Z</time>
      </trkpt>
      <trkpt lat="41.4707820" lon="2.1267050">
        <ele>128.8</ele>
        <time>2018-04-10T11:08:21Z</time>
      </trkpt>
      <trkpt lat="41.4706970" lon="2.1265440">
        <ele>128.8</ele>
        <time>2018-04-10T11:08:23Z</time>
      </trkpt>
      <trkpt lat="41.4706100" lon="2.1264090">
        <ele>128.8</ele>
        <time>2018-04-10T11:08:25Z</time>
      </trkpt>
      <trkpt lat="41.4705190" lon="2.1263110">
        <ele>128.8</ele>
        <time>2018-04-10T11:08:27Z</time>
      </trkpt>
      <trkpt lat="41.4704380" lon="2.1262310">
        <ele>128.8</ele>
        <time>2018-04-10T11:08:29Z</time>
      </trkpt>
      <trkpt lat="41.4703930" lon="2.1262020">
        <ele>128.8</ele>
        <time>2018-04-10T11:08:30Z</time>
      </trkpt>
      <trkpt lat="41.4703450" lon="2.1261790">
        <ele>129.0</ele>
        <time>2018-04-10T11:08:31Z</time>
      </trkpt>
      <trkpt lat="41.4702540" lon="2.1261420">
        <ele>129.6</ele>
        <time>2018-04-10T11:08:33Z</time>
      </trkpt>
      <trkpt lat="41.4702090" lon="2.1261220">
        <ele>130.0</ele>
        <time>2018-04-10T11:08:34Z</time>
      </trkpt>
      <trkpt lat="41.4701610" lon="2.1261010">
        <ele>130.2</ele>
        <time>2018-04-10T11:08:35Z</time>
      </trkpt>
      <trkpt lat="41.4700610" lon="2.1260610">
        <ele>130.8</ele>
        <time>2018-04-10T11:08:37Z</time>
      </trkpt>
      <trkpt lat="41.4699710" lon="2.1260320">
        <ele>131.0</ele>
        <time>2018-04-10T11:08:39Z</time>
      </trkpt>
      <trkpt lat="41.4698920" lon="2.1260040">
        <ele>131.4</ele>
        <time>2018-04-10T11:08:41Z</time>
      </trkpt>
      <trkpt lat="41.4698240" lon="2.1259740">
        <ele>131.6</ele>
        <time>2018-04-10T11:08:43Z</time>
      </trkpt>
      <trkpt lat="41.4697590" lon="2.1259430">
        <ele>132.2</ele>
        <time>2018-04-10T11:08:45Z</time>
      </trkpt>
      <trkpt lat="41.4696980" lon="2.1259130">
        <ele>132.6</ele>
        <time>2018-04-10T11:08:47Z</time>
      </trkpt>
      <trkpt lat="41.4696620" lon="2.1258960">
        <ele>132.8</ele>
        <time>2018-04-10T11:08:48Z</time>
      </trkpt>
      <trkpt lat="41.4696250" lon="2.1258770">
        <ele>132.8</ele>
        <time>2018-04-10T11:08:49Z</time>
      </trkpt>
      <trkpt lat="41.4695560" lon="2.1258410">
        <ele>133.2</ele>
        <time>2018-04-10T11:08:51Z</time>
      </trkpt>
      <trkpt lat="41.4694890" lon="2.1258030">
        <ele>133.6</ele>
        <time>2018-04-10T11:08:53Z</time>
      </trkpt>
      <trkpt lat="41.4694530" lon="2.1257820">
        <ele>133.8</ele>
        <time>2018-04-10T11:08:54Z</time>
      </trkpt>
      <trkpt lat="41.4694150" lon="2.1257600">
        <ele>134.0</ele>
        <time>2018-04-10T11:08:55Z</time>
      </trkpt>
      <trkpt lat="41.4693390" lon="2.1257170">
        <ele>134.6</ele>
        <time>2018-04-10T11:08:57Z</time>
      </trkpt>
      <trkpt lat="41.4693010" lon="2.1256950">
        <ele>134.8</ele>
        <time>2018-04-10T11:08:58Z</time>
      </trkpt>
      <trkpt lat="41.4692640" lon="2.1256750">
        <ele>135.0</ele>
        <time>2018-04-10T11:08:59Z</time>
      </trkpt>
      <trkpt lat="41.4691840" lon="2.1256350">
        <ele>135.2</ele>
        <time>2018-04-10T11:09:01Z</time>
      </trkpt>
      <trkpt lat="41.4691080" lon="2.1256000">
        <ele>135.8</ele>
        <time>2018-04-10T11:09:03Z</time>
      </trkpt>
      <trkpt lat="41.4690260" lon="2.1255650">
        <ele>136.4</ele>
        <time>2018-04-10T11:09:05Z</time>
      </trkpt>
      <trkpt lat="41.4689480" lon="2.1255340">
        <ele>136.8</ele>
        <time>2018-04-10T11:09:07Z</time>
      </trkpt>
      <trkpt lat="41.4688780" lon="2.1254980">
        <ele>137.2</ele>
        <time>2018-04-10T11:09:09Z</time>
      </trkpt>
      <trkpt lat="41.4688140" lon="2.1254480">
        <ele>137.8</ele>
        <time>2018-04-10T11:09:11Z</time>
      </trkpt>
      <trkpt lat="41.4687540" lon="2.1253790">
        <ele>138.6</ele>
        <time>2018-04-10T11:09:13Z</time>
      </trkpt>
      <trkpt lat="41.4687200" lon="2.1253370">
        <ele>139.2</ele>
        <time>2018-04-10T11:09:14Z</time>
      </trkpt>
      <trkpt lat="41.4686910" lon="2.1252950">
        <ele>139.4</ele>
        <time>2018-04-10T11:09:15Z</time>
      </trkpt>
      <trkpt lat="41.4686440" lon="2.1252060">
        <ele>139.8</ele>
        <time>2018-04-10T11:09:17Z</time>
      </trkpt>
      <trkpt lat="41.4686050" lon="2.1251160">
        <ele>140.0</ele>
        <time>2018-04-10T11:09:19Z</time>
      </trkpt>
      <trkpt lat="41.4685820" lon="2.1250720">
        <ele>140.4</ele>
        <time>2018-04-10T11:09:20Z</time>
      </trkpt>
      <trkpt lat="41.4685620" lon="2.1250290">
        <ele>140.6</ele>
        <time>2018-04-10T11:09:21Z</time>
      </trkpt>
      <trkpt lat="41.4685270" lon="2.1249450">
        <ele>141.2</ele>
        <time>2018-04-10T11:09:23Z</time>
      </trkpt>
      <trkpt lat="41.4685130" lon="2.1249060">
        <ele>141.4</ele>
        <time>2018-04-10T11:09:24Z</time>
      </trkpt>
      <trkpt lat="41.4685000" lon="2.1248670">
        <ele>141.6</ele>
        <time>2018-04-10T11:09:25Z</time>
      </trkpt>
      <trkpt lat="41.4684740" lon="2.1247930">
        <ele>142.8</ele>
        <time>2018-04-10T11:09:27Z</time>
      </trkpt>
      <trkpt lat="41.4684440" lon="2.1247230">
        <ele>143.6</ele>
        <time>2018-04-10T11:09:29Z</time>
      </trkpt>
      <trkpt lat="41.4684280" lon="2.1246880">
        <ele>143.8</ele>
        <time>2018-04-10T11:09:30Z</time>
      </trkpt>
      <trkpt lat="41.4684100" lon="2.1246550">
        <ele>144.0</ele>
        <time>2018-04-10T11:09:31Z</time>
      </trkpt>
      <trkpt lat="41.4683710" lon="2.1245920">
        <ele>144.0</ele>
        <time>2018-04-10T11:09:33Z</time>
      </trkpt>
      <trkpt lat="41.4683240" lon="2.1245270">
        <ele>144.4</ele>
        <time>2018-04-10T11:09:35Z</time>
      </trkpt>
      <trkpt lat="41.4682760" lon="2.1244630">
        <ele>144.8</ele>
        <time>2018-04-10T11:09:37Z</time>
      </trkpt>
      <trkpt lat="41.4682050" lon="2.1243960">
        <ele>145.2</ele>
        <time>2018-04-10T11:09:39Z</time>
      </trkpt>
      <trkpt lat="41.4681330" lon="2.1243330">
        <ele>145.6</ele>
        <time>2018-04-10T11:09:41Z</time>
      </trkpt>
      <trkpt lat="41.4681000" lon="2.1243010">
        <ele>145.8</ele>
        <time>2018-04-10T11:09:42Z</time>
      </trkpt>
      <trkpt lat="41.4680730" lon="2.1242660">
        <ele>146.4</ele>
        <time>2018-04-10T11:09:43Z</time>
      </trkpt>
      <trkpt lat="41.4680120" lon="2.1242040">
        <ele>147.0</ele>
        <time>2018-04-10T11:09:45Z</time>
      </trkpt>
      <trkpt lat="41.4679400" lon="2.1241470">
        <ele>147.2</ele>
        <time>2018-04-10T11:09:47Z</time>
      </trkpt>
      <trkpt lat="41.4678780" lon="2.1240850">
        <ele>147.8</ele>
        <time>2018-04-10T11:09:49Z</time>
      </trkpt>
      <trkpt lat="41.4678510" lon="2.1240510">
        <ele>148.2</ele>
        <time>2018-04-10T11:09:50Z</time>
      </trkpt>
      <trkpt lat="41.4678220" lon="2.1240180">
        <ele>148.6</ele>
        <time>2018-04-10T11:09:51Z</time>
      </trkpt>
      <trkpt lat="41.4677650" lon="2.1239560">
        <ele>149.0</ele>
        <time>2018-04-10T11:09:53Z</time>
      </trkpt>
      <trkpt lat="41.4677090" lon="2.1239030">
        <ele>149.2</ele>
        <time>2018-04-10T11:09:55Z</time>
      </trkpt>
      <trkpt lat="41.4676650" lon="2.1238540">
        <ele>149.8</ele>
        <time>2018-04-10T11:09:57Z</time>
      </trkpt>
      <trkpt lat="41.4676260" lon="2.1238050">
        <ele>150.0</ele>
        <time>2018-04-10T11:09:59Z</time>
      </trkpt>
      <trkpt lat="41.4676090" lon="2.1237790">
        <ele>150.4</ele>
        <time>2018-04-10T11:10:00Z</time>
      </trkpt>
      <trkpt lat="41.4675830" lon="2.1237510">
        <ele>150.6</ele>
        <time>2018-04-10T11:10:01Z</time>
      </trkpt>
      <trkpt lat="41.4675320" lon="2.1236970">
        <ele>151.2</ele>
        <time>2018-04-10T11:10:03Z</time>
      </trkpt>
      <trkpt lat="41.4675070" lon="2.1236670">
        <ele>151.6</ele>
        <time>2018-04-10T11:10:04Z</time>
      </trkpt>
      <trkpt lat="41.4674850" lon="2.1236360">
        <ele>151.8</ele>
        <time>2018-04-10T11:10:05Z</time>
      </trkpt>
      <trkpt lat="41.4674460" lon="2.1235720">
        <ele>152.2</ele>
        <time>2018-04-10T11:10:07Z</time>
      </trkpt>
      <trkpt lat="41.4674010" lon="2.1235060">
        <ele>152.8</ele>
        <time>2018-04-10T11:10:09Z</time>
      </trkpt>
      <trkpt lat="41.4673550" lon="2.1234400">
        <ele>153.2</ele>
        <time>2018-04-10T11:10:11Z</time>
      </trkpt>
      <trkpt lat="41.4673100" lon="2.1233680">
        <ele>154.0</ele>
        <time>2018-04-10T11:10:13Z</time>
      </trkpt>
      <trkpt lat="41.4672730" lon="2.1232920">
        <ele>154.4</ele>
        <time>2018-04-10T11:10:15Z</time>
      </trkpt>
      <trkpt lat="41.4672340" lon="2.1232160">
        <ele>154.8</ele>
        <time>2018-04-10T11:10:17Z</time>
      </trkpt>
      <trkpt lat="41.4672120" lon="2.1231800">
        <ele>155.2</ele>
        <time>2018-04-10T11:10:18Z</time>
      </trkpt>
      <trkpt lat="41.4671890" lon="2.1231450">
        <ele>155.6</ele>
        <time>2018-04-10T11:10:19Z</time>
      </trkpt>
      <trkpt lat="41.4671650" lon="2.1231120">
        <ele>156.2</ele>
        <time>2018-04-10T11:10:20Z</time>
      </trkpt>
      <trkpt lat="41.4671400" lon="2.1230810">
        <ele>156.6</ele>
        <time>2018-04-10T11:10:21Z</time>
      </trkpt>
      <trkpt lat="41.4670740" lon="2.1230290">
        <ele>157.2</ele>
        <time>2018-04-10T11:10:23Z</time>
      </trkpt>
      <trkpt lat="41.4670020" lon="2.1229960">
        <ele>157.6</ele>
        <time>2018-04-10T11:10:25Z</time>
      </trkpt>
      <trkpt lat="41.4669220" lon="2.1229850">
        <ele>157.8</ele>
        <time>2018-04-10T11:10:27Z</time>
      </trkpt>
      <trkpt lat="41.4668460" lon="2.1229950">
        <ele>158.2</ele>
        <time>2018-04-10T11:10:29Z</time>
      </trkpt>
      <trkpt lat="41.4668090" lon="2.1230060">
        <ele>158.4</ele>
        <time>2018-04-10T11:10:30Z</time>
      </trkpt>
      <trkpt lat="41.4667670" lon="2.1230130">
        <ele>158.6</ele>
        <time>2018-04-10T11:10:31Z</time>
      </trkpt>
      <trkpt lat="41.4666900" lon="2.1230480">
        <ele>159.0</ele>
        <time>2018-04-10T11:10:33Z</time>
      </trkpt>
      <trkpt lat="41.4666150" lon="2.1230940">
        <ele>159.2</ele>
        <time>2018-04-10T11:10:35Z</time>
      </trkpt>
      <trkpt lat="41.4665380" lon="2.1231370">
        <ele>159.4</ele>
        <time>2018-04-10T11:10:37Z</time>
      </trkpt>
      <trkpt lat="41.4665000" lon="2.1231570">
        <ele>159.6</ele>
        <time>2018-04-10T11:10:38Z</time>
      </trkpt>
      <trkpt lat="41.4664560" lon="2.1231730">
        <ele>159.6</ele>
        <time>2018-04-10T11:10:39Z</time>
      </trkpt>
      <trkpt lat="41.4663710" lon="2.1231940">
        <ele>159.6</ele>
        <time>2018-04-10T11:10:41Z</time>
      </trkpt>
      <trkpt lat="41.4662820" lon="2.1232030">
        <ele>159.8</ele>
        <time>2018-04-10T11:10:43Z</time>
      </trkpt>
      <trkpt lat="41.4661900" lon="2.1231920">
        <ele>159.8</ele>
        <time>2018-04-10T11:10:45Z</time>
      </trkpt>
      <trkpt lat="41.4660930" lon="2.1231650">
        <ele>159.8</ele>
        <time>2018-04-10T11:10:47Z</time>
      </trkpt>
      <trkpt lat="41.4659900" lon="2.1231290">
        <ele>160.0</ele>
        <time>2018-04-10T11:10:49Z</time>
      </trkpt>
      <trkpt lat="41.4658860" lon="2.1231070">
        <ele>160.0</ele>
        <time>2018-04-10T11:10:51Z</time>
      </trkpt>
      <trkpt lat="41.4657850" lon="2.1230840">
        <ele>160.0</ele>
        <time>2018-04-10T11:10:53Z</time>
      </trkpt>
      <trkpt lat="41.4656730" lon="2.1230590">
        <ele>160.0</ele>
        <time>2018-04-10T11:10:55Z</time>
      </trkpt>
      <trkpt lat="41.4655590" lon="2.1230360">
        <ele>159.8</ele>
        <time>2018-04-10T11:10:57Z</time>
      </trkpt>
      <trkpt lat="41.4654420" lon="2.1230010">
        <ele>159.8</ele>
        <time>2018-04-10T11:10:59Z</time>
      </trkpt>
      <trkpt lat="41.4653290" lon="2.1229730">
        <ele>159.8</ele>
        <time>2018-04-10T11:11:01Z</time>
      </trkpt>
      <trkpt lat="41.4652140" lon="2.1229420">
        <ele>159.8</ele>
        <time>2018-04-10T11:11:03Z</time>
      </trkpt>
      <trkpt lat="41.4650980" lon="2.1229110">
        <ele>159.6</ele>
        <time>2018-04-10T11:11:05Z</time>
      </trkpt>
      <trkpt lat="41.4649810" lon="2.1228820">
        <ele>159.4</ele>
        <time>2018-04-10T11:11:07Z</time>
      </trkpt>
      <trkpt lat="41.4648610" lon="2.1228720">
        <ele>159.0</ele>
        <time>2018-04-10T11:11:09Z</time>
      </trkpt>
      <trkpt lat="41.4647390" lon="2.1229010">
        <ele>158.6</ele>
        <time>2018-04-10T11:11:11Z</time>
      </trkpt>
      <trkpt lat="41.4646230" lon="2.1229760">
        <ele>158.4</ele>
        <time>2018-04-10T11:11:13Z</time>
      </trkpt>
      <trkpt lat="41.4645410" lon="2.1230930">
        <ele>158.2</ele>
        <time>2018-04-10T11:11:15Z</time>
      </trkpt>
      <trkpt lat="41.4645050" lon="2.1232390">
        <ele>158.2</ele>
        <time>2018-04-10T11:11:17Z</time>
      </trkpt>
      <trkpt lat="41.4645050" lon="2.1233880">
        <ele>158.2</ele>
        <time>2018-04-10T11:11:19Z</time>
      </trkpt>
      <trkpt lat="41.4645330" lon="2.1235180">
        <ele>158.2</ele>
        <time>2018-04-10T11:11:21Z</time>
      </trkpt>
      <trkpt lat="41.4645770" lon="2.1236150">
        <ele>158.2</ele>
        <time>2018-04-10T11:11:23Z</time>
      </trkpt>
      <trkpt lat="41.4646310" lon="2.1236860">
        <ele>158.2</ele>
        <time>2018-04-10T11:11:25Z</time>
      </trkpt>
      <trkpt lat="41.4646900" lon="2.1237470">
        <ele>158.6</ele>
        <time>2018-04-10T11:11:27Z</time>
      </trkpt>
      <trkpt lat="41.4647580" lon="2.1237980">
        <ele>159.2</ele>
        <time>2018-04-10T11:11:29Z</time>
      </trkpt>
      <trkpt lat="41.4647920" lon="2.1238230">
        <ele>159.6</ele>
        <time>2018-04-10T11:11:30Z</time>
      </trkpt>
      <trkpt lat="41.4648250" lon="2.1238510">
        <ele>160.0</ele>
        <time>2018-04-10T11:11:31Z</time>
      </trkpt>
      <trkpt lat="41.4648840" lon="2.1239060">
        <ele>160.6</ele>
        <time>2018-04-10T11:11:33Z</time>
      </trkpt>
      <trkpt lat="41.4649480" lon="2.1239640">
        <ele>161.2</ele>
        <time>2018-04-10T11:11:35Z</time>
      </trkpt>
      <trkpt lat="41.4650190" lon="2.1240140">
        <ele>161.6</ele>
        <time>2018-04-10T11:11:37Z</time>
      </trkpt>
      <trkpt lat="41.4650510" lon="2.1240420">
        <ele>161.8</ele>
        <time>2018-04-10T11:11:38Z</time>
      </trkpt>
      <trkpt lat="41.4650820" lon="2.1240720">
        <ele>162.0</ele>
        <time>2018-04-10T11:11:39Z</time>
      </trkpt>
      <trkpt lat="41.4651350" lon="2.1241310">
        <ele>162.6</ele>
        <time>2018-04-10T11:11:41Z</time>
      </trkpt>
      <trkpt lat="41.4651650" lon="2.1241620">
        <ele>162.8</ele>
        <time>2018-04-10T11:11:42Z</time>
      </trkpt>
      <trkpt lat="41.4651840" lon="2.1241990">
        <ele>163.0</ele>
        <time>2018-04-10T11:11:43Z</time>
      </trkpt>
      <trkpt lat="41.4652210" lon="2.1242810">
        <ele>163.2</ele>
        <time>2018-04-10T11:11:45Z</time>
      </trkpt>
      <trkpt lat="41.4652620" lon="2.1243670">
        <ele>163.8</ele>
        <time>2018-04-10T11:11:47Z</time>
      </trkpt>
      <trkpt lat="41.4653030" lon="2.1244500">
        <ele>164.2</ele>
        <time>2018-04-10T11:11:49Z</time>
      </trkpt>
      <trkpt lat="41.4653360" lon="2.1245280">
        <ele>164.8</ele>
        <time>2018-04-10T11:11:51Z</time>
      </trkpt>
      <trkpt lat="41.4653480" lon="2.1245680">
        <ele>164.8</ele>
        <time>2018-04-10T11:11:52Z</time>
      </trkpt>
      <trkpt lat="41.4653590" lon="2.1246100">
        <ele>165.0</ele>
        <time>2018-04-10T11:11:53Z</time>
      </trkpt>
      <trkpt lat="41.4653790" lon="2.1246970">
        <ele>165.4</ele>
        <time>2018-04-10T11:11:55Z</time>
      </trkpt>
      <trkpt lat="41.4653890" lon="2.1247870">
        <ele>166.0</ele>
        <time>2018-04-10T11:11:57Z</time>
      </trkpt>
      <trkpt lat="41.4653870" lon="2.1248760">
        <ele>166.6</ele>
        <time>2018-04-10T11:11:59Z</time>
      </trkpt>
      <trkpt lat="41.4653690" lon="2.1249530">
        <ele>167.2</ele>
        <time>2018-04-10T11:12:01Z</time>
      </trkpt>
      <trkpt lat="41.4653390" lon="2.1250210">
        <ele>167.8</ele>
        <time>2018-04-10T11:12:03Z</time>
      </trkpt>
      <trkpt lat="41.4652960" lon="2.1250770">
        <ele>168.4</ele>
        <time>2018-04-10T11:12:05Z</time>
      </trkpt>
      <trkpt lat="41.4652490" lon="2.1251220">
        <ele>169.0</ele>
        <time>2018-04-10T11:12:07Z</time>
      </trkpt>
      <trkpt lat="41.4651980" lon="2.1251570">
        <ele>169.4</ele>
        <time>2018-04-10T11:12:09Z</time>
      </trkpt>
      <trkpt lat="41.4651440" lon="2.1251890">
        <ele>170.4</ele>
        <time>2018-04-10T11:12:11Z</time>
      </trkpt>
      <trkpt lat="41.4651160" lon="2.1252050">
        <ele>170.6</ele>
        <time>2018-04-10T11:12:12Z</time>
      </trkpt>
      <trkpt lat="41.4650890" lon="2.1252200">
        <ele>170.8</ele>
        <time>2018-04-10T11:12:13Z</time>
      </trkpt>
      <trkpt lat="41.4650320" lon="2.1252530">
        <ele>171.0</ele>
        <time>2018-04-10T11:12:15Z</time>
      </trkpt>
      <trkpt lat="41.4649810" lon="2.1252870">
        <ele>171.6</ele>
        <time>2018-04-10T11:12:17Z</time>
      </trkpt>
      <trkpt lat="41.4649300" lon="2.1253180">
        <ele>172.0</ele>
        <time>2018-04-10T11:12:19Z</time>
      </trkpt>
      <trkpt lat="41.4648780" lon="2.1253420">
        <ele>172.4</ele>
        <time>2018-04-10T11:12:21Z</time>
      </trkpt>
      <trkpt lat="41.4648510" lon="2.1253540">
        <ele>172.8</ele>
        <time>2018-04-10T11:12:22Z</time>
      </trkpt>
      <trkpt lat="41.4648240" lon="2.1253650">
        <ele>173.0</ele>
        <time>2018-04-10T11:12:23Z</time>
      </trkpt>
      <trkpt lat="41.4647680" lon="2.1253770">
        <ele>173.6</ele>
        <time>2018-04-10T11:12:25Z</time>
      </trkpt>
      <trkpt lat="41.4647390" lon="2.1253750">
        <ele>173.8</ele>
        <time>2018-04-10T11:12:26Z</time>
      </trkpt>
      <trkpt lat="41.4647100" lon="2.1253730">
        <ele>174.0</ele>
        <time>2018-04-10T11:12:27Z</time>
      </trkpt>
      <trkpt lat="41.4646520" lon="2.1253560">
        <ele>174.2</ele>
        <time>2018-04-10T11:12:29Z</time>
      </trkpt>
      <trkpt lat="41.4645960" lon="2.1253260">
        <ele>174.8</ele>
        <time>2018-04-10T11:12:31Z</time>
      </trkpt>
      <trkpt lat="41.4645690" lon="2.1253070">
        <ele>175.0</ele>
        <time>2018-04-10T11:12:32Z</time>
      </trkpt>
      <trkpt lat="41.4645400" lon="2.1252900">
        <ele>175.2</ele>
        <time>2018-04-10T11:12:33Z</time>
      </trkpt>
      <trkpt lat="41.4644830" lon="2.1252500">
        <ele>175.4</ele>
        <time>2018-04-10T11:12:35Z</time>
      </trkpt>
      <trkpt lat="41.4644260" lon="2.1252100">
        <ele>175.8</ele>
        <time>2018-04-10T11:12:37Z</time>
      </trkpt>
      <trkpt lat="41.4643990" lon="2.1251870">
        <ele>176.0</ele>
        <time>2018-04-10T11:12:38Z</time>
      </trkpt>
      <trkpt lat="41.4643730" lon="2.1251620">
        <ele>176.4</ele>
        <time>2018-04-10T11:12:39Z</time>
      </trkpt>
      <trkpt lat="41.4643180" lon="2.1251170">
        <ele>176.6</ele>
        <time>2018-04-10T11:12:41Z</time>
      </trkpt>
      <trkpt lat="41.4642590" lon="2.1250780">
        <ele>177.0</ele>
        <time>2018-04-10T11:12:43Z</time>
      </trkpt>
      <trkpt lat="41.4642320" lon="2.1250600">
        <ele>177.2</ele>
        <time>2018-04-10T11:12:44Z</time>
      </trkpt>
      <trkpt lat="41.4642050" lon="2.1250430">
        <ele>177.4</ele>
        <time>2018-04-10T11:12:45Z</time>
      </trkpt>
      <trkpt lat="41.4641540" lon="2.1250050">
        <ele>178.0</ele>
        <time>2018-04-10T11:12:47Z</time>
      </trkpt>
      <trkpt lat="41.4641020" lon="2.1249740">
        <ele>178.4</ele>
        <time>2018-04-10T11:12:49Z</time>
      </trkpt>
      <trkpt lat="41.4640450" lon="2.1249480">
        <ele>178.6</ele>
        <time>2018-04-10T11:12:51Z</time>
      </trkpt>
      <trkpt lat="41.4639840" lon="2.1249170">
        <ele>179.0</ele>
        <time>2018-04-10T11:12:53Z</time>
      </trkpt>
      <trkpt lat="41.4639230" lon="2.1248920">
        <ele>179.6</ele>
        <time>2018-04-10T11:12:55Z</time>
      </trkpt>
      <trkpt lat="41.4638670" lon="2.1248690">
        <ele>180.2</ele>
        <time>2018-04-10T11:12:57Z</time>
      </trkpt>
      <trkpt lat="41.4638120" lon="2.1248500">
        <ele>180.4</ele>
        <time>2018-04-10T11:12:59Z</time>
      </trkpt>
      <trkpt lat="41.4637590" lon="2.1248340">
        <ele>180.6</ele>
        <time>2018-04-10T11:13:01Z</time>
      </trkpt>
      <trkpt lat="41.4637320" lon="2.1248230">
        <ele>180.8</ele>
        <time>2018-04-10T11:13:02Z</time>
      </trkpt>
      <trkpt lat="41.4637050" lon="2.1248140">
        <ele>181.2</ele>
        <time>2018-04-10T11:13:03Z</time>
      </trkpt>
      <trkpt lat="41.4636500" lon="2.1247970">
        <ele>181.8</ele>
        <time>2018-04-10T11:13:05Z</time>
      </trkpt>
      <trkpt lat="41.4635870" lon="2.1247750">
        <ele>182.2</ele>
        <time>2018-04-10T11:13:07Z</time>
      </trkpt>
      <trkpt lat="41.4635240" lon="2.1247440">
        <ele>182.4</ele>
        <time>2018-04-10T11:13:09Z</time>
      </trkpt>
      <trkpt lat="41.4634670" lon="2.1247060">
        <ele>182.8</ele>
        <time>2018-04-10T11:13:11Z</time>
      </trkpt>
      <trkpt lat="41.4634400" lon="2.1246840">
        <ele>183.0</ele>
        <time>2018-04-10T11:13:12Z</time>
      </trkpt>
      <trkpt lat="41.4634150" lon="2.1246600">
        <ele>183.2</ele>
        <time>2018-04-10T11:13:13Z</time>
      </trkpt>
      <trkpt lat="41.4633720" lon="2.1246050">
        <ele>183.8</ele>
        <time>2018-04-10T11:13:15Z</time>
      </trkpt>
      <trkpt lat="41.4633180" lon="2.1245460">
        <ele>184.2</ele>
        <time>2018-04-10T11:13:17Z</time>
      </trkpt>
      <trkpt lat="41.4632700" lon="2.1244840">
        <ele>184.6</ele>
        <time>2018-04-10T11:13:19Z</time>
      </trkpt>
      <trkpt lat="41.4632240" lon="2.1244220">
        <ele>185.2</ele>
        <time>2018-04-10T11:13:21Z</time>
      </trkpt>
      <trkpt lat="41.4631770" lon="2.1243640">
        <ele>185.6</ele>
        <time>2018-04-10T11:13:23Z</time>
      </trkpt>
      <trkpt lat="41.4631280" lon="2.1243010">
        <ele>186.0</ele>
        <time>2018-04-10T11:13:25Z</time>
      </trkpt>
      <trkpt lat="41.4630790" lon="2.1242390">
        <ele>186.2</ele>
        <time>2018-04-10T11:13:27Z</time>
      </trkpt>
      <trkpt lat="41.4630340" lon="2.1241780">
        <ele>186.2</ele>
        <time>2018-04-10T11:13:29Z</time>
      </trkpt>
      <trkpt lat="41.4629840" lon="2.1241250">
        <ele>186.2</ele>
        <time>2018-04-10T11:13:31Z</time>
      </trkpt>
      <trkpt lat="41.4629290" lon="2.1240760">
        <ele>186.6</ele>
        <time>2018-04-10T11:13:33Z</time>
      </trkpt>
      <trkpt lat="41.4628740" lon="2.1240250">
        <ele>187.4</ele>
        <time>2018-04-10T11:13:35Z</time>
      </trkpt>
      <trkpt lat="41.4628220" lon="2.1239790">
        <ele>187.8</ele>
        <time>2018-04-10T11:13:37Z</time>
      </trkpt>
      <trkpt lat="41.4627690" lon="2.1239330">
        <ele>188.4</ele>
        <time>2018-04-10T11:13:39Z</time>
      </trkpt>
      <trkpt lat="41.4627120" lon="2.1238910">
        <ele>188.8</ele>
        <time>2018-04-10T11:13:41Z</time>
      </trkpt>
      <trkpt lat="41.4626520" lon="2.1238520">
        <ele>189.4</ele>
        <time>2018-04-10T11:13:43Z</time>
      </trkpt>
      <trkpt lat="41.4626190" lon="2.1238390">
        <ele>189.6</ele>
        <time>2018-04-10T11:13:44Z</time>
      </trkpt>
      <trkpt lat="41.4625830" lon="2.1238270">
        <ele>189.8</ele>
        <time>2018-04-10T11:13:45Z</time>
      </trkpt>
      <trkpt lat="41.4625150" lon="2.1237950">
        <ele>190.2</ele>
        <time>2018-04-10T11:13:47Z</time>
      </trkpt>
      <trkpt lat="41.4624440" lon="2.1237600">
        <ele>190.4</ele>
        <time>2018-04-10T11:13:49Z</time>
      </trkpt>
      <trkpt lat="41.4623770" lon="2.1237200">
        <ele>190.8</ele>
        <time>2018-04-10T11:13:51Z</time>
      </trkpt>
      <trkpt lat="41.4623070" lon="2.1236780">
        <ele>191.4</ele>
        <time>2018-04-10T11:13:53Z</time>
      </trkpt>
      <trkpt lat="41.4622480" lon="2.1236320">
        <ele>192.0</ele>
        <time>2018-04-10T11:13:55Z</time>
      </trkpt>
      <trkpt lat="41.4622000" lon="2.1235800">
        <ele>192.4</ele>
        <time>2018-04-10T11:13:57Z</time>
      </trkpt>
      <trkpt lat="41.4621500" lon="2.1235240">
        <ele>192.6</ele>
        <time>2018-04-10T11:13:59Z</time>
      </trkpt>
      <trkpt lat="41.4621010" lon="2.1234660">
        <ele>193.0</ele>
        <time>2018-04-10T11:14:01Z</time>
      </trkpt>
      <trkpt lat="41.4620590" lon="2.1234020">
        <ele>193.6</ele>
        <time>2018-04-10T11:14:03Z</time>
      </trkpt>
      <trkpt lat="41.4620150" lon="2.1233420">
        <ele>194.0</ele>
        <time>2018-04-10T11:14:05Z</time>
      </trkpt>
      <trkpt lat="41.4619920" lon="2.1233150">
        <ele>194.2</ele>
        <time>2018-04-10T11:14:06Z</time>
      </trkpt>
      <trkpt lat="41.4619670" lon="2.1232880">
        <ele>194.6</ele>
        <time>2018-04-10T11:14:07Z</time>
      </trkpt>
      <trkpt lat="41.4619080" lon="2.1232450">
        <ele>195.2</ele>
        <time>2018-04-10T11:14:09Z</time>
      </trkpt>
      <trkpt lat="41.4618390" lon="2.1232200">
        <ele>196.0</ele>
        <time>2018-04-10T11:14:11Z</time>
      </trkpt>
      <trkpt lat="41.4618030" lon="2.1232140">
        <ele>196.2</ele>
        <time>2018-04-10T11:14:12Z</time>
      </trkpt>
      <trkpt lat="41.4617660" lon="2.1232150">
        <ele>196.4</ele>
        <time>2018-04-10T11:14:13Z</time>
      </trkpt>
      <trkpt lat="41.4616920" lon="2.1232270">
        <ele>197.0</ele>
        <time>2018-04-10T11:14:15Z</time>
      </trkpt>
      <trkpt lat="41.4616230" lon="2.1232520">
        <ele>197.4</ele>
        <time>2018-04-10T11:14:17Z</time>
      </trkpt>
      <trkpt lat="41.4615520" lon="2.1232880">
        <ele>197.6</ele>
        <time>2018-04-10T11:14:19Z</time>
      </trkpt>
      <trkpt lat="41.4614840" lon="2.1233160">
        <ele>197.8</ele>
        <time>2018-04-10T11:14:21Z</time>
      </trkpt>
      <trkpt lat="41.4614180" lon="2.1233420">
        <ele>197.8</ele>
        <time>2018-04-10T11:14:23Z</time>
      </trkpt>
      <trkpt lat="41.4613540" lon="2.1233680">
        <ele>198.2</ele>
        <time>2018-04-10T11:14:25Z</time>
      </trkpt>
      <trkpt lat="41.4613220" lon="2.1233830">
        <ele>198.4</ele>
        <time>2018-04-10T11:14:26Z</time>
      </trkpt>
      <trkpt lat="41.4612900" lon="2.1233980">
        <ele>198.6</ele>
        <time>2018-04-10T11:14:27Z</time>
      </trkpt>
      <trkpt lat="41.4612270" lon="2.1234270">
        <ele>198.8</ele>
        <time>2018-04-10T11:14:29Z</time>
      </trkpt>
      <trkpt lat="41.4611670" lon="2.1234550">
        <ele>199.2</ele>
        <time>2018-04-10T11:14:31Z</time>
      </trkpt>
      <trkpt lat="41.4611370" lon="2.1234660">
        <ele>199.4</ele>
        <time>2018-04-10T11:14:32Z</time>
      </trkpt>
      <trkpt lat="41.4611060" lon="2.1234790">
        <ele>199.6</ele>
        <time>2018-04-10T11:14:33Z</time>
      </trkpt>
      <trkpt lat="41.4610440" lon="2.1235110">
        <ele>200.0</ele>
        <time>2018-04-10T11:14:35Z</time>
      </trkpt>
      <trkpt lat="41.4610130" lon="2.1235260">
        <ele>200.4</ele>
        <time>2018-04-10T11:14:36Z</time>
      </trkpt>
      <trkpt lat="41.4609810" lon="2.1235400">
        <ele>200.6</ele>
        <time>2018-04-10T11:14:37Z</time>
      </trkpt>
      <trkpt lat="41.4609150" lon="2.1235550">
        <ele>201.0</ele>
        <time>2018-04-10T11:14:39Z</time>
      </trkpt>
      <trkpt lat="41.4608520" lon="2.1235510">
        <ele>201.2</ele>
        <time>2018-04-10T11:14:41Z</time>
      </trkpt>
      <trkpt lat="41.4608210" lon="2.1235430">
        <ele>201.6</ele>
        <time>2018-04-10T11:14:42Z</time>
      </trkpt>
      <trkpt lat="41.4607900" lon="2.1235300">
        <ele>201.6</ele>
        <time>2018-04-10T11:14:43Z</time>
      </trkpt>
      <trkpt lat="41.4607400" lon="2.1234940">
        <ele>202.0</ele>
        <time>2018-04-10T11:14:45Z</time>
      </trkpt>
      <trkpt lat="41.4607000" lon="2.1234430">
        <ele>202.4</ele>
        <time>2018-04-10T11:14:47Z</time>
      </trkpt>
      <trkpt lat="41.4606880" lon="2.1234130">
        <ele>202.6</ele>
        <time>2018-04-10T11:14:48Z</time>
      </trkpt>
      <trkpt lat="41.4606790" lon="2.1233830">
        <ele>203.0</ele>
        <time>2018-04-10T11:14:49Z</time>
      </trkpt>
      <trkpt lat="41.4606590" lon="2.1233150">
        <ele>203.4</ele>
        <time>2018-04-10T11:14:51Z</time>
      </trkpt>
      <trkpt lat="41.4606470" lon="2.1232470">
        <ele>204.2</ele>
        <time>2018-04-10T11:14:53Z</time>
      </trkpt>
      <trkpt lat="41.4606440" lon="2.1231760">
        <ele>204.8</ele>
        <time>2018-04-10T11:14:55Z</time>
      </trkpt>
      <trkpt lat="41.4606510" lon="2.1231040">
        <ele>205.2</ele>
        <time>2018-04-10T11:14:57Z</time>
      </trkpt>
      <trkpt lat="41.4606630" lon="2.1230330">
        <ele>205.4</ele>
        <time>2018-04-10T11:14:59Z</time>
      </trkpt>
      <trkpt lat="41.4606730" lon="2.1229650">
        <ele>205.4</ele>
        <time>2018-04-10T11:15:01Z</time>
      </trkpt>
      <trkpt lat="41.4606760" lon="2.1228970">
        <ele>205.8</ele>
        <time>2018-04-10T11:15:03Z</time>
      </trkpt>
      <trkpt lat="41.4606660" lon="2.1228300">
        <ele>206.2</ele>
        <time>2018-04-10T11:15:05Z</time>
      </trkpt>
      <trkpt lat="41.4606480" lon="2.1227980">
        <ele>206.4</ele>
        <time>2018-04-10T11:15:06Z</time>
      </trkpt>
      <trkpt lat="41.4606290" lon="2.1227640">
        <ele>206.8</ele>
        <time>2018-04-10T11:15:07Z</time>
      </trkpt>
      <trkpt lat="41.4605810" lon="2.1226990">
        <ele>207.6</ele>
        <time>2018-04-10T11:15:09Z</time>
      </trkpt>
      <trkpt lat="41.4605250" lon="2.1226400">
        <ele>208.4</ele>
        <time>2018-04-10T11:15:11Z</time>
      </trkpt>
      <trkpt lat="41.4604580" lon="2.1225840">
        <ele>208.8</ele>
        <time>2018-04-10T11:15:13Z</time>
      </trkpt>
      <trkpt lat="41.4603800" lon="2.1225390">
        <ele>209.0</ele>
        <time>2018-04-10T11:15:15Z</time>
      </trkpt>
      <trkpt lat="41.4602920" lon="2.1225200">
        <ele>209.2</ele>
        <time>2018-04-10T11:15:17Z</time>
      </trkpt>
      <trkpt lat="41.4602030" lon="2.1225100">
        <ele>209.6</ele>
        <time>2018-04-10T11:15:19Z</time>
      </trkpt>
      <trkpt lat="41.4601580" lon="2.1225080">
        <ele>210.0</ele>
        <time>2018-04-10T11:15:20Z</time>
      </trkpt>
      <trkpt lat="41.4601130" lon="2.1225030">
        <ele>210.2</ele>
        <time>2018-04-10T11:15:21Z</time>
      </trkpt>
      <trkpt lat="41.4600230" lon="2.1225040">
        <ele>210.8</ele>
        <time>2018-04-10T11:15:23Z</time>
      </trkpt>
      <trkpt lat="41.4599790" lon="2.1225020">
        <ele>211.0</ele>
        <time>2018-04-10T11:15:24Z</time>
      </trkpt>
      <trkpt lat="41.4599360" lon="2.1224930">
        <ele>211.2</ele>
        <time>2018-04-10T11:15:25Z</time>
      </trkpt>
      <trkpt lat="41.4598460" lon="2.1224760">
        <ele>211.4</ele>
        <time>2018-04-10T11:15:27Z</time>
      </trkpt>
      <trkpt lat="41.4597530" lon="2.1224590">
        <ele>211.4</ele>
        <time>2018-04-10T11:15:29Z</time>
      </trkpt>
      <trkpt lat="41.4596620" lon="2.1224440">
        <ele>211.6</ele>
        <time>2018-04-10T11:15:31Z</time>
      </trkpt>
      <trkpt lat="41.4596170" lon="2.1224390">
        <ele>211.6</ele>
        <time>2018-04-10T11:15:32Z</time>
      </trkpt>
      <trkpt lat="41.4595720" lon="2.1224400">
        <ele>211.6</ele>
        <time>2018-04-10T11:15:33Z</time>
      </trkpt>
      <trkpt lat="41.4594800" lon="2.1224520">
        <ele>211.6</ele>
        <time>2018-04-10T11:15:35Z</time>
      </trkpt>
      <trkpt lat="41.4593920" lon="2.1224810">
        <ele>211.8</ele>
        <time>2018-04-10T11:15:37Z</time>
      </trkpt>
      <trkpt lat="41.4593050" lon="2.1225180">
        <ele>211.8</ele>
        <time>2018-04-10T11:15:39Z</time>
      </trkpt>
      <trkpt lat="41.4592120" lon="2.1225570">
        <ele>212.2</ele>
        <time>2018-04-10T11:15:41Z</time>
      </trkpt>
      <trkpt lat="41.4591650" lon="2.1225780">
        <ele>212.2</ele>
        <time>2018-04-10T11:15:42Z</time>
      </trkpt>
      <trkpt lat="41.4591180" lon="2.1225980">
        <ele>212.2</ele>
        <time>2018-04-10T11:15:43Z</time>
      </trkpt>
      <trkpt lat="41.4590260" lon="2.1226220">
        <ele>212.4</ele>
        <time>2018-04-10T11:15:45Z</time>
      </trkpt>
      <trkpt lat="41.4589820" lon="2.1226260">
        <ele>212.4</ele>
        <time>2018-04-10T11:15:46Z</time>
      </trkpt>
      <trkpt lat="41.4589370" lon="2.1226260">
        <ele>212.4</ele>
        <time>2018-04-10T11:15:47Z</time>
      </trkpt>
      <trkpt lat="41.4588480" lon="2.1226110">
        <ele>212.8</ele>
        <time>2018-04-10T11:15:49Z</time>
      </trkpt>
      <trkpt lat="41.4588030" lon="2.1226010">
        <ele>212.8</ele>
        <time>2018-04-10T11:15:50Z</time>
      </trkpt>
      <trkpt lat="41.4587580" lon="2.1225860">
        <ele>212.8</ele>
        <time>2018-04-10T11:15:51Z</time>
      </trkpt>
      <trkpt lat="41.4587150" lon="2.1225640">
        <ele>212.8</ele>
        <time>2018-04-10T11:15:52Z</time>
      </trkpt>
      <trkpt lat="41.4586740" lon="2.1225380">
        <ele>213.0</ele>
        <time>2018-04-10T11:15:53Z</time>
      </trkpt>
      <trkpt lat="41.4586040" lon="2.1224670">
        <ele>213.2</ele>
        <time>2018-04-10T11:15:55Z</time>
      </trkpt>
      <trkpt lat="41.4585510" lon="2.1223720">
        <ele>213.4</ele>
        <time>2018-04-10T11:15:57Z</time>
      </trkpt>
      <trkpt lat="41.4585070" lon="2.1222740">
        <ele>213.8</ele>
        <time>2018-04-10T11:15:59Z</time>
      </trkpt>
      <trkpt lat="41.4584880" lon="2.1222250">
        <ele>214.0</ele>
        <time>2018-04-10T11:16:00Z</time>
      </trkpt>
      <trkpt lat="41.4584690" lon="2.1221760">
        <ele>214.2</ele>
        <time>2018-04-10T11:16:01Z</time>
      </trkpt>
      <trkpt lat="41.4584340" lon="2.1220780">
        <ele>214.6</ele>
        <time>2018-04-10T11:16:03Z</time>
      </trkpt>
      <trkpt lat="41.4584030" lon="2.1219870">
        <ele>215.0</ele>
        <time>2018-04-10T11:16:05Z</time>
      </trkpt>
      <trkpt lat="41.4583830" lon="2.1219450">
        <ele>215.0</ele>
        <time>2018-04-10T11:16:06Z</time>
      </trkpt>
      <trkpt lat="41.4583590" lon="2.1219060">
        <ele>215.2</ele>
        <time>2018-04-10T11:16:07Z</time>
      </trkpt>
      <trkpt lat="41.4583060" lon="2.1218320">
        <ele>215.6</ele>
        <time>2018-04-10T11:16:09Z</time>
      </trkpt>
      <trkpt lat="41.4582530" lon="2.1217710">
        <ele>215.8</ele>
        <time>2018-04-10T11:16:11Z</time>
      </trkpt>
      <trkpt lat="41.4582240" lon="2.1217460">
        <ele>216.4</ele>
        <time>2018-04-10T11:16:12Z</time>
      </trkpt>
      <trkpt lat="41.4581910" lon="2.1217260">
        <ele>216.2</ele>
        <time>2018-04-10T11:16:13Z</time>
      </trkpt>
      <trkpt lat="41.4581160" lon="2.1217050">
        <ele>216.4</ele>
        <time>2018-04-10T11:16:15Z</time>
      </trkpt>
      <trkpt lat="41.4580380" lon="2.1216940">
        <ele>216.6</ele>
        <time>2018-04-10T11:16:17Z</time>
      </trkpt>
      <trkpt lat="41.4579480" lon="2.1216890">
        <ele>216.6</ele>
        <time>2018-04-10T11:16:19Z</time>
      </trkpt>
      <trkpt lat="41.4578600" lon="2.1216870">
        <ele>216.8</ele>
        <time>2018-04-10T11:16:21Z</time>
      </trkpt>
      <trkpt lat="41.4577710" lon="2.1216840">
        <ele>216.8</ele>
        <time>2018-04-10T11:16:23Z</time>
      </trkpt>
      <trkpt lat="41.4576850" lon="2.1216880">
        <ele>217.0</ele>
        <time>2018-04-10T11:16:25Z</time>
      </trkpt>
      <trkpt lat="41.4576410" lon="2.1216850">
        <ele>217.2</ele>
        <time>2018-04-10T11:16:26Z</time>
      </trkpt>
      <trkpt lat="41.4575980" lon="2.1216830">
        <ele>217.4</ele>
        <time>2018-04-10T11:16:27Z</time>
      </trkpt>
      <trkpt lat="41.4575100" lon="2.1216800">
        <ele>217.8</ele>
        <time>2018-04-10T11:16:29Z</time>
      </trkpt>
      <trkpt lat="41.4574260" lon="2.1216830">
        <ele>218.0</ele>
        <time>2018-04-10T11:16:31Z</time>
      </trkpt>
      <trkpt lat="41.4573410" lon="2.1216840">
        <ele>218.2</ele>
        <time>2018-04-10T11:16:33Z</time>
      </trkpt>
      <trkpt lat="41.4572590" lon="2.1216820">
        <ele>218.8</ele>
        <time>2018-04-10T11:16:35Z</time>
      </trkpt>
      <trkpt lat="41.4571790" lon="2.1216860">
        <ele>219.2</ele>
        <time>2018-04-10T11:16:37Z</time>
      </trkpt>
      <trkpt lat="41.4571030" lon="2.1216860">
        <ele>219.4</ele>
        <time>2018-04-10T11:16:39Z</time>
      </trkpt>
      <trkpt lat="41.4570250" lon="2.1216760">
        <ele>219.6</ele>
        <time>2018-04-10T11:16:41Z</time>
      </trkpt>
      <trkpt lat="41.4569490" lon="2.1216500">
        <ele>220.0</ele>
        <time>2018-04-10T11:16:43Z</time>
      </trkpt>
      <trkpt lat="41.4568830" lon="2.1216150">
        <ele>220.4</ele>
        <time>2018-04-10T11:16:45Z</time>
      </trkpt>
      <trkpt lat="41.4568220" lon="2.1215660">
        <ele>220.6</ele>
        <time>2018-04-10T11:16:47Z</time>
      </trkpt>
      <trkpt lat="41.4567630" lon="2.1215160">
        <ele>220.8</ele>
        <time>2018-04-10T11:16:49Z</time>
      </trkpt>
      <trkpt lat="41.4567040" lon="2.1214660">
        <ele>221.0</ele>
        <time>2018-04-10T11:16:51Z</time>
      </trkpt>
      <trkpt lat="41.4566460" lon="2.1214110">
        <ele>221.6</ele>
        <time>2018-04-10T11:16:53Z</time>
      </trkpt>
      <trkpt lat="41.4565860" lon="2.1213610">
        <ele>222.0</ele>
        <time>2018-04-10T11:16:55Z</time>
      </trkpt>
      <trkpt lat="41.4565160" lon="2.1213260">
        <ele>222.2</ele>
        <time>2018-04-10T11:16:57Z</time>
      </trkpt>
      <trkpt lat="41.4564790" lon="2.1213140">
        <ele>222.6</ele>
        <time>2018-04-10T11:16:58Z</time>
      </trkpt>
      <trkpt lat="41.4564420" lon="2.1212990">
        <ele>222.8</ele>
        <time>2018-04-10T11:16:59Z</time>
      </trkpt>
      <trkpt lat="41.4563700" lon="2.1212720">
        <ele>223.0</ele>
        <time>2018-04-10T11:17:01Z</time>
      </trkpt>
      <trkpt lat="41.4562950" lon="2.1212480">
        <ele>223.6</ele>
        <time>2018-04-10T11:17:03Z</time>
      </trkpt>
      <trkpt lat="41.4562180" lon="2.1212410">
        <ele>224.2</ele>
        <time>2018-04-10T11:17:05Z</time>
      </trkpt>
      <trkpt lat="41.4561380" lon="2.1212300">
        <ele>224.6</ele>
        <time>2018-04-10T11:17:07Z</time>
      </trkpt>
      <trkpt lat="41.4560980" lon="2.1212220">
        <ele>224.8</ele>
        <time>2018-04-10T11:17:08Z</time>
      </trkpt>
      <trkpt lat="41.4560570" lon="2.1212130">
        <ele>225.0</ele>
        <time>2018-04-10T11:17:09Z</time>
      </trkpt>
      <trkpt lat="41.4559780" lon="2.1211970">
        <ele>225.2</ele>
        <time>2018-04-10T11:17:11Z</time>
      </trkpt>
      <trkpt lat="41.4558980" lon="2.1211860">
        <ele>225.4</ele>
        <time>2018-04-10T11:17:13Z</time>
      </trkpt>
      <trkpt lat="41.4558190" lon="2.1211780">
        <ele>225.6</ele>
        <time>2018-04-10T11:17:15Z</time>
      </trkpt>
      <trkpt lat="41.4557410" lon="2.1211710">
        <ele>225.8</ele>
        <time>2018-04-10T11:17:17Z</time>
      </trkpt>
      <trkpt lat="41.4556630" lon="2.1211660">
        <ele>226.4</ele>
        <time>2018-04-10T11:17:19Z</time>
      </trkpt>
      <trkpt lat="41.4555860" lon="2.1211610">
        <ele>226.8</ele>
        <time>2018-04-10T11:17:21Z</time>
      </trkpt>
      <trkpt lat="41.4555480" lon="2.1211540">
        <ele>227.0</ele>
        <time>2018-04-10T11:17:22Z</time>
      </trkpt>
      <trkpt lat="41.4555110" lon="2.1211440">
        <ele>227.2</ele>
        <time>2018-04-10T11:17:23Z</time>
      </trkpt>
      <trkpt lat="41.4554370" lon="2.1211280">
        <ele>227.4</ele>
        <time>2018-04-10T11:17:25Z</time>
      </trkpt>
      <trkpt lat="41.4553630" lon="2.1211120">
        <ele>227.8</ele>
        <time>2018-04-10T11:17:27Z</time>
      </trkpt>
      <trkpt lat="41.4552920" lon="2.1210900">
        <ele>228.0</ele>
        <time>2018-04-10T11:17:29Z</time>
      </trkpt>
      <trkpt lat="41.4552580" lon="2.1210760">
        <ele>228.0</ele>
        <time>2018-04-10T11:17:30Z</time>
      </trkpt>
      <trkpt lat="41.4552220" lon="2.1210640">
        <ele>228.2</ele>
        <time>2018-04-10T11:17:31Z</time>
      </trkpt>
      <trkpt lat="41.4551510" lon="2.1210350">
        <ele>228.4</ele>
        <time>2018-04-10T11:17:33Z</time>
      </trkpt>
      <trkpt lat="41.4550820" lon="2.1210010">
        <ele>228.6</ele>
        <time>2018-04-10T11:17:35Z</time>
      </trkpt>
      <trkpt lat="41.4550180" lon="2.1209570">
        <ele>229.0</ele>
        <time>2018-04-10T11:17:37Z</time>
      </trkpt>
      <trkpt lat="41.4549870" lon="2.1209330">
        <ele>229.0</ele>
        <time>2018-04-10T11:17:38Z</time>
      </trkpt>
      <trkpt lat="41.4549560" lon="2.1209110">
        <ele>229.4</ele>
        <time>2018-04-10T11:17:39Z</time>
      </trkpt>
      <trkpt lat="41.4548910" lon="2.1208680">
        <ele>229.6</ele>
        <time>2018-04-10T11:17:41Z</time>
      </trkpt>
      <trkpt lat="41.4548290" lon="2.1208210">
        <ele>230.0</ele>
        <time>2018-04-10T11:17:43Z</time>
      </trkpt>
      <trkpt lat="41.4547990" lon="2.1207970">
        <ele>230.2</ele>
        <time>2018-04-10T11:17:44Z</time>
      </trkpt>
      <trkpt lat="41.4547710" lon="2.1207740">
        <ele>230.4</ele>
        <time>2018-04-10T11:17:45Z</time>
      </trkpt>
      <trkpt lat="41.4547100" lon="2.1207330">
        <ele>231.2</ele>
        <time>2018-04-10T11:17:47Z</time>
      </trkpt>
      <trkpt lat="41.4546760" lon="2.1207140">
        <ele>231.4</ele>
        <time>2018-04-10T11:17:48Z</time>
      </trkpt>
      <trkpt lat="41.4546430" lon="2.1206990">
        <ele>231.6</ele>
        <time>2018-04-10T11:17:49Z</time>
      </trkpt>
      <trkpt lat="41.4545760" lon="2.1206760">
        <ele>232.2</ele>
        <time>2018-04-10T11:17:51Z</time>
      </trkpt>
      <trkpt lat="41.4545410" lon="2.1206660">
        <ele>232.6</ele>
        <time>2018-04-10T11:17:52Z</time>
      </trkpt>
      <trkpt lat="41.4545080" lon="2.1206540">
        <ele>232.8</ele>
        <time>2018-04-10T11:17:53Z</time>
      </trkpt>
      <trkpt lat="41.4544380" lon="2.1206310">
        <ele>233.2</ele>
        <time>2018-04-10T11:17:55Z</time>
      </trkpt>
      <trkpt lat="41.4543670" lon="2.1206300">
        <ele>233.8</ele>
        <time>2018-04-10T11:17:57Z</time>
      </trkpt>
      <trkpt lat="41.4543000" lon="2.1206190">
        <ele>234.4</ele>
        <time>2018-04-10T11:17:59Z</time>
      </trkpt>
      <trkpt lat="41.4542400" lon="2.1206010">
        <ele>234.8</ele>
        <time>2018-04-10T11:18:01Z</time>
      </trkpt>
      <trkpt lat="41.4541790" lon="2.1205890">
        <ele>235.0</ele>
        <time>2018-04-10T11:18:03Z</time>
      </trkpt>
      <trkpt lat="41.4541150" lon="2.1205710">
        <ele>235.2</ele>
        <time>2018-04-10T11:18:05Z</time>
      </trkpt>
      <trkpt lat="41.4540540" lon="2.1205460">
        <ele>235.6</ele>
        <time>2018-04-10T11:18:07Z</time>
      </trkpt>
      <trkpt lat="41.4540250" lon="2.1205300">
        <ele>235.8</ele>
        <time>2018-04-10T11:18:08Z</time>
      </trkpt>
      <trkpt lat="41.4539960" lon="2.1205120">
        <ele>236.2</ele>
        <time>2018-04-10T11:18:09Z</time>
      </trkpt>
      <trkpt lat="41.4539440" lon="2.1204810">
        <ele>236.4</ele>
        <time>2018-04-10T11:18:11Z</time>
      </trkpt>
      <trkpt lat="41.4538860" lon="2.1204530">
        <ele>237.0</ele>
        <time>2018-04-10T11:18:13Z</time>
      </trkpt>
      <trkpt lat="41.4538310" lon="2.1204230">
        <ele>237.4</ele>
        <time>2018-04-10T11:18:15Z</time>
      </trkpt>
      <trkpt lat="41.4537760" lon="2.1203860">
        <ele>237.6</ele>
        <time>2018-04-10T11:18:17Z</time>
      </trkpt>
      <trkpt lat="41.4537200" lon="2.1203530">
        <ele>238.2</ele>
        <time>2018-04-10T11:18:19Z</time>
      </trkpt>
      <trkpt lat="41.4536640" lon="2.1203180">
        <ele>238.6</ele>
        <time>2018-04-10T11:18:21Z</time>
      </trkpt>
      <trkpt lat="41.4536030" lon="2.1202890">
        <ele>239.0</ele>
        <time>2018-04-10T11:18:23Z</time>
      </trkpt>
      <trkpt lat="41.4535400" lon="2.1202740">
        <ele>239.4</ele>
        <time>2018-04-10T11:18:25Z</time>
      </trkpt>
      <trkpt lat="41.4534750" lon="2.1202670">
        <ele>240.0</ele>
        <time>2018-04-10T11:18:27Z</time>
      </trkpt>
      <trkpt lat="41.4534070" lon="2.1202540">
        <ele>240.8</ele>
        <time>2018-04-10T11:18:29Z</time>
      </trkpt>
      <trkpt lat="41.4533720" lon="2.1202450">
        <ele>241.6</ele>
        <time>2018-04-10T11:18:30Z</time>
      </trkpt>
      <trkpt lat="41.4533370" lon="2.1202360">
        <ele>241.8</ele>
        <time>2018-04-10T11:18:31Z</time>
      </trkpt>
      <trkpt lat="41.4532700" lon="2.1202190">
        <ele>242.2</ele>
        <time>2018-04-10T11:18:33Z</time>
      </trkpt>
      <trkpt lat="41.4532040" lon="2.1202170">
        <ele>242.6</ele>
        <time>2018-04-10T11:18:35Z</time>
      </trkpt>
      <trkpt lat="41.4531710" lon="2.1202200">
        <ele>242.8</ele>
        <time>2018-04-10T11:18:36Z</time>
      </trkpt>
      <trkpt lat="41.4531360" lon="2.1202190">
        <ele>243.0</ele>
        <time>2018-04-10T11:18:37Z</time>
      </trkpt>
      <trkpt lat="41.4530650" lon="2.1202180">
        <ele>243.4</ele>
        <time>2018-04-10T11:18:39Z</time>
      </trkpt>
      <trkpt lat="41.4529940" lon="2.1202130">
        <ele>243.8</ele>
        <time>2018-04-10T11:18:41Z</time>
      </trkpt>
      <trkpt lat="41.4529570" lon="2.1202070">
        <ele>244.0</ele>
        <time>2018-04-10T11:18:42Z</time>
      </trkpt>
      <trkpt lat="41.4529220" lon="2.1202030">
        <ele>244.2</ele>
        <time>2018-04-10T11:18:43Z</time>
      </trkpt>
      <trkpt lat="41.4528500" lon="2.1202000">
        <ele>244.6</ele>
        <time>2018-04-10T11:18:45Z</time>
      </trkpt>
      <trkpt lat="41.4527770" lon="2.1202040">
        <ele>245.0</ele>
        <time>2018-04-10T11:18:47Z</time>
      </trkpt>
      <trkpt lat="41.4527400" lon="2.1202070">
        <ele>245.2</ele>
        <time>2018-04-10T11:18:48Z</time>
      </trkpt>
      <trkpt lat="41.4527030" lon="2.1202170">
        <ele>245.4</ele>
        <time>2018-04-10T11:18:49Z</time>
      </trkpt>
      <trkpt lat="41.4526280" lon="2.1202310">
        <ele>245.8</ele>
        <time>2018-04-10T11:18:51Z</time>
      </trkpt>
      <trkpt lat="41.4525510" lon="2.1202460">
        <ele>246.2</ele>
        <time>2018-04-10T11:18:53Z</time>
      </trkpt>
      <trkpt lat="41.4524770" lon="2.1202630">
        <ele>246.6</ele>
        <time>2018-04-10T11:18:55Z</time>
      </trkpt>
      <trkpt lat="41.4524040" lon="2.1202800">
        <ele>247.0</ele>
        <time>2018-04-10T11:18:57Z</time>
      </trkpt>
      <trkpt lat="41.4523300" lon="2.1202940">
        <ele>247.2</ele>
        <time>2018-04-10T11:18:59Z</time>
      </trkpt>
      <trkpt lat="41.4522900" lon="2.1203080">
        <ele>247.6</ele>
        <time>2018-04-10T11:19:00Z</time>
      </trkpt>
      <trkpt lat="41.4522540" lon="2.1203170">
        <ele>247.8</ele>
        <time>2018-04-10T11:19:01Z</time>
      </trkpt>
      <trkpt lat="41.4521820" lon="2.1203400">
        <ele>248.0</ele>
        <time>2018-04-10T11:19:03Z</time>
      </trkpt>
      <trkpt lat="41.4521110" lon="2.1203630">
        <ele>248.2</ele>
        <time>2018-04-10T11:19:05Z</time>
      </trkpt>
      <trkpt lat="41.4520400" lon="2.1203830">
        <ele>248.8</ele>
        <time>2018-04-10T11:19:07Z</time>
      </trkpt>
      <trkpt lat="41.4519710" lon="2.1204030">
        <ele>248.8</ele>
        <time>2018-04-10T11:19:09Z</time>
      </trkpt>
      <trkpt lat="41.4519000" lon="2.1204260">
        <ele>249.4</ele>
        <time>2018-04-10T11:19:11Z</time>
      </trkpt>
      <trkpt lat="41.4518650" lon="2.1204360">
        <ele>249.6</ele>
        <time>2018-04-10T11:19:12Z</time>
      </trkpt>
      <trkpt lat="41.4518290" lon="2.1204470">
        <ele>249.8</ele>
        <time>2018-04-10T11:19:13Z</time>
      </trkpt>
      <trkpt lat="41.4517560" lon="2.1204720">
        <ele>250.4</ele>
        <time>2018-04-10T11:19:15Z</time>
      </trkpt>
      <trkpt lat="41.4516790" lon="2.1204920">
        <ele>250.6</ele>
        <time>2018-04-10T11:19:17Z</time>
      </trkpt>
      <trkpt lat="41.4516020" lon="2.1205040">
        <ele>251.2</ele>
        <time>2018-04-10T11:19:19Z</time>
      </trkpt>
      <trkpt lat="41.4515250" lon="2.1205150">
        <ele>251.4</ele>
        <time>2018-04-10T11:19:21Z</time>
      </trkpt>
      <trkpt lat="41.4514480" lon="2.1205270">
        <ele>251.6</ele>
        <time>2018-04-10T11:19:23Z</time>
      </trkpt>
      <trkpt lat="41.4513700" lon="2.1205400">
        <ele>252.0</ele>
        <time>2018-04-10T11:19:25Z</time>
      </trkpt>
      <trkpt lat="41.4512930" lon="2.1205550">
        <ele>252.2</ele>
        <time>2018-04-10T11:19:27Z</time>
      </trkpt>
      <trkpt lat="41.4512190" lon="2.1205920">
        <ele>252.6</ele>
        <time>2018-04-10T11:19:29Z</time>
      </trkpt>
      <trkpt lat="41.4511850" lon="2.1206250">
        <ele>252.8</ele>
        <time>2018-04-10T11:19:30Z</time>
      </trkpt>
      <trkpt lat="41.4511580" lon="2.1206640">
        <ele>252.8</ele>
        <time>2018-04-10T11:19:31Z</time>
      </trkpt>
      <trkpt lat="41.4511220" lon="2.1207760">
        <ele>253.0</ele>
        <time>2018-04-10T11:19:33Z</time>
      </trkpt>
      <trkpt lat="41.4511150" lon="2.1209020">
        <ele>253.2</ele>
        <time>2018-04-10T11:19:35Z</time>
      </trkpt>
      <trkpt lat="41.4511440" lon="2.1210190">
        <ele>253.4</ele>
        <time>2018-04-10T11:19:37Z</time>
      </trkpt>
      <trkpt lat="41.4511990" lon="2.1211150">
        <ele>253.6</ele>
        <time>2018-04-10T11:19:39Z</time>
      </trkpt>
      <trkpt lat="41.4512660" lon="2.1212020">
        <ele>253.6</ele>
        <time>2018-04-10T11:19:41Z</time>
      </trkpt>
      <trkpt lat="41.4513020" lon="2.1212490">
        <ele>253.4</ele>
        <time>2018-04-10T11:19:42Z</time>
      </trkpt>
      <trkpt lat="41.4513380" lon="2.1212920">
        <ele>253.4</ele>
        <time>2018-04-10T11:19:43Z</time>
      </trkpt>
      <trkpt lat="41.4514110" lon="2.1213740">
        <ele>253.4</ele>
        <time>2018-04-10T11:19:45Z</time>
      </trkpt>
      <trkpt lat="41.4514860" lon="2.1214500">
        <ele>253.4</ele>
        <time>2018-04-10T11:19:47Z</time>
      </trkpt>
      <trkpt lat="41.4515610" lon="2.1215280">
        <ele>253.4</ele>
        <time>2018-04-10T11:19:49Z</time>
      </trkpt>
      <trkpt lat="41.4516400" lon="2.1215900">
        <ele>253.6</ele>
        <time>2018-04-10T11:19:51Z</time>
      </trkpt>
      <trkpt lat="41.4516800" lon="2.1216170">
        <ele>253.6</ele>
        <time>2018-04-10T11:19:52Z</time>
      </trkpt>
      <trkpt lat="41.4517220" lon="2.1216410">
        <ele>253.6</ele>
        <time>2018-04-10T11:19:53Z</time>
      </trkpt>
      <trkpt lat="41.4518070" lon="2.1216840">
        <ele>253.8</ele>
        <time>2018-04-10T11:19:55Z</time>
      </trkpt>
      <trkpt lat="41.4518900" lon="2.1217170">
        <ele>253.8</ele>
        <time>2018-04-10T11:19:57Z</time>
      </trkpt>
      <trkpt lat="41.4519740" lon="2.1217530">
        <ele>254.2</ele>
        <time>2018-04-10T11:19:59Z</time>
      </trkpt>
      <trkpt lat="41.4520580" lon="2.1217880">
        <ele>254.2</ele>
        <time>2018-04-10T11:20:01Z</time>
      </trkpt>
      <trkpt lat="41.4521420" lon="2.1218220">
        <ele>254.6</ele>
        <time>2018-04-10T11:20:03Z</time>
      </trkpt>
      <trkpt lat="41.4521820" lon="2.1218420">
        <ele>254.8</ele>
        <time>2018-04-10T11:20:04Z</time>
      </trkpt>
      <trkpt lat="41.4522200" lon="2.1218650">
        <ele>255.0</ele>
        <time>2018-04-10T11:20:05Z</time>
      </trkpt>
      <trkpt lat="41.4522960" lon="2.1219090">
        <ele>255.4</ele>
        <time>2018-04-10T11:20:07Z</time>
      </trkpt>
      <trkpt lat="41.4523720" lon="2.1219500">
        <ele>255.6</ele>
        <time>2018-04-10T11:20:09Z</time>
      </trkpt>
      <trkpt lat="41.4524100" lon="2.1219700">
        <ele>255.8</ele>
        <time>2018-04-10T11:20:10Z</time>
      </trkpt>
      <trkpt lat="41.4524490" lon="2.1219880">
        <ele>255.8</ele>
        <time>2018-04-10T11:20:11Z</time>
      </trkpt>
      <trkpt lat="41.4525240" lon="2.1220280">
        <ele>256.0</ele>
        <time>2018-04-10T11:20:13Z</time>
      </trkpt>
      <trkpt lat="41.4526000" lon="2.1220670">
        <ele>256.0</ele>
        <time>2018-04-10T11:20:15Z</time>
      </trkpt>
      <trkpt lat="41.4526770" lon="2.1221060">
        <ele>256.4</ele>
        <time>2018-04-10T11:20:17Z</time>
      </trkpt>
      <trkpt lat="41.4527550" lon="2.1221490">
        <ele>256.8</ele>
        <time>2018-04-10T11:20:19Z</time>
      </trkpt>
      <trkpt lat="41.4527890" lon="2.1221790">
        <ele>257.0</ele>
        <time>2018-04-10T11:20:20Z</time>
      </trkpt>
      <trkpt lat="41.4528180" lon="2.1222160">
        <ele>257.2</ele>
        <time>2018-04-10T11:20:21Z</time>
      </trkpt>
      <trkpt lat="41.4528610" lon="2.1222960">
        <ele>257.2</ele>
        <time>2018-04-10T11:20:23Z</time>
      </trkpt>
      <trkpt lat="41.4528820" lon="2.1223810">
        <ele>257.4</ele>
        <time>2018-04-10T11:20:25Z</time>
      </trkpt>
      <trkpt lat="41.4528730" lon="2.1224700">
        <ele>258.0</ele>
        <time>2018-04-10T11:20:27Z</time>
      </trkpt>
      <trkpt lat="41.4528570" lon="2.1225160">
        <ele>258.2</ele>
        <time>2018-04-10T11:20:28Z</time>
      </trkpt>
      <trkpt lat="41.4528390" lon="2.1225560">
        <ele>258.4</ele>
        <time>2018-04-10T11:20:29Z</time>
      </trkpt>
      <trkpt lat="41.4527990" lon="2.1226150">
        <ele>259.2</ele>
        <time>2018-04-10T11:20:31Z</time>
      </trkpt>
      <trkpt lat="41.4527450" lon="2.1226620">
        <ele>259.8</ele>
        <time>2018-04-10T11:20:33Z</time>
      </trkpt>
      <trkpt lat="41.4526870" lon="2.1226930">
        <ele>260.6</ele>
        <time>2018-04-10T11:20:35Z</time>
      </trkpt>
      <trkpt lat="41.4526280" lon="2.1227090">
        <ele>261.0</ele>
        <time>2018-04-10T11:20:37Z</time>
      </trkpt>
      <trkpt lat="41.4525690" lon="2.1227280">
        <ele>261.6</ele>
        <time>2018-04-10T11:20:39Z</time>
      </trkpt>
      <trkpt lat="41.4525100" lon="2.1227520">
        <ele>262.0</ele>
        <time>2018-04-10T11:20:41Z</time>
      </trkpt>
      <trkpt lat="41.4524480" lon="2.1227810">
        <ele>262.2</ele>
        <time>2018-04-10T11:20:43Z</time>
      </trkpt>
      <trkpt lat="41.4523890" lon="2.1228120">
        <ele>262.4</ele>
        <time>2018-04-10T11:20:45Z</time>
      </trkpt>
      <trkpt lat="41.4523610" lon="2.1228410">
        <ele>262.8</ele>
        <time>2018-04-10T11:20:46Z</time>
      </trkpt>
      <trkpt lat="41.4523370" lon="2.1228660">
        <ele>263.2</ele>
        <time>2018-04-10T11:20:47Z</time>
      </trkpt>
      <trkpt lat="41.4522780" lon="2.1229300">
        <ele>264.0</ele>
        <time>2018-04-10T11:20:49Z</time>
      </trkpt>
      <trkpt lat="41.4522220" lon="2.1229810">
        <ele>264.6</ele>
        <time>2018-04-10T11:20:51Z</time>
      </trkpt>
      <trkpt lat="41.4521700" lon="2.1230370">
        <ele>265.0</ele>
        <time>2018-04-10T11:20:53Z</time>
      </trkpt>
      <trkpt lat="41.4521430" lon="2.1230640">
        <ele>265.2</ele>
        <time>2018-04-10T11:20:54Z</time>
      </trkpt>
      <trkpt lat="41.4521150" lon="2.1230890">
        <ele>265.6</ele>
        <time>2018-04-10T11:20:55Z</time>
      </trkpt>
      <trkpt lat="41.4520560" lon="2.1231300">
        <ele>266.2</ele>
        <time>2018-04-10T11:20:57Z</time>
      </trkpt>
      <trkpt lat="41.4520240" lon="2.1231460">
        <ele>266.4</ele>
        <time>2018-04-10T11:20:58Z</time>
      </trkpt>
      <trkpt lat="41.4519920" lon="2.1231590">
        <ele>266.6</ele>
        <time>2018-04-10T11:20:59Z</time>
      </trkpt>
      <trkpt lat="41.4519250" lon="2.1231790">
        <ele>267.2</ele>
        <time>2018-04-10T11:21:01Z</time>
      </trkpt>
      <trkpt lat="41.4518540" lon="2.1231770">
        <ele>267.8</ele>
        <time>2018-04-10T11:21:03Z</time>
      </trkpt>
      <trkpt lat="41.4517860" lon="2.1231550">
        <ele>268.2</ele>
        <time>2018-04-10T11:21:05Z</time>
      </trkpt>
      <trkpt lat="41.4517150" lon="2.1231270">
        <ele>268.6</ele>
        <time>2018-04-10T11:21:07Z</time>
      </trkpt>
      <trkpt lat="41.4516450" lon="2.1230940">
        <ele>269.0</ele>
        <time>2018-04-10T11:21:09Z</time>
      </trkpt>
      <trkpt lat="41.4515780" lon="2.1230700">
        <ele>269.4</ele>
        <time>2018-04-10T11:21:11Z</time>
      </trkpt>
      <trkpt lat="41.4515180" lon="2.1230530">
        <ele>270.0</ele>
        <time>2018-04-10T11:21:13Z</time>
      </trkpt>
      <trkpt lat="41.4514590" lon="2.1230420">
        <ele>270.6</ele>
        <time>2018-04-10T11:21:15Z</time>
      </trkpt>
      <trkpt lat="41.4513930" lon="2.1230210">
        <ele>271.2</ele>
        <time>2018-04-10T11:21:17Z</time>
      </trkpt>
      <trkpt lat="41.4513220" lon="2.1230060">
        <ele>272.0</ele>
        <time>2018-04-10T11:21:19Z</time>
      </trkpt>
      <trkpt lat="41.4512840" lon="2.1230020">
        <ele>272.2</ele>
        <time>2018-04-10T11:21:20Z</time>
      </trkpt>
      <trkpt lat="41.4512470" lon="2.1229970">
        <ele>272.6</ele>
        <time>2018-04-10T11:21:21Z</time>
      </trkpt>
      <trkpt lat="41.4511760" lon="2.1229910">
        <ele>273.2</ele>
        <time>2018-04-10T11:21:23Z</time>
      </trkpt>
      <trkpt lat="41.4511060" lon="2.1229900">
        <ele>273.8</ele>
        <time>2018-04-10T11:21:25Z</time>
      </trkpt>
      <trkpt lat="41.4510390" lon="2.1230010">
        <ele>274.2</ele>
        <time>2018-04-10T11:21:27Z</time>
      </trkpt>
      <trkpt lat="41.4509730" lon="2.1230160">
        <ele>274.6</ele>
        <time>2018-04-10T11:21:29Z</time>
      </trkpt>
      <trkpt lat="41.4509420" lon="2.1230260">
        <ele>274.6</ele>
        <time>2018-04-10T11:21:30Z</time>
      </trkpt>
      <trkpt lat="41.4509100" lon="2.1230340">
        <ele>275.0</ele>
        <time>2018-04-10T11:21:31Z</time>
      </trkpt>
      <trkpt lat="41.4508480" lon="2.1230670">
        <ele>275.4</ele>
        <time>2018-04-10T11:21:33Z</time>
      </trkpt>
      <trkpt lat="41.4507830" lon="2.1231160">
        <ele>275.6</ele>
        <time>2018-04-10T11:21:35Z</time>
      </trkpt>
      <trkpt lat="41.4507460" lon="2.1231440">
        <ele>275.6</ele>
        <time>2018-04-10T11:21:36Z</time>
      </trkpt>
      <trkpt lat="41.4507130" lon="2.1231670">
        <ele>275.8</ele>
        <time>2018-04-10T11:21:37Z</time>
      </trkpt>
      <trkpt lat="41.4506460" lon="2.1232120">
        <ele>276.2</ele>
        <time>2018-04-10T11:21:39Z</time>
      </trkpt>
      <trkpt lat="41.4505770" lon="2.1232510">
        <ele>276.8</ele>
        <time>2018-04-10T11:21:41Z</time>
      </trkpt>
      <trkpt lat="41.4505070" lon="2.1232750">
        <ele>277.2</ele>
        <time>2018-04-10T11:21:43Z</time>
      </trkpt>
      <trkpt lat="41.4504350" lon="2.1232800">
        <ele>277.8</ele>
        <time>2018-04-10T11:21:45Z</time>
      </trkpt>
      <trkpt lat="41.4503650" lon="2.1232660">
        <ele>278.4</ele>
        <time>2018-04-10T11:21:47Z</time>
      </trkpt>
      <trkpt lat="41.4503300" lon="2.1232540">
        <ele>278.8</ele>
        <time>2018-04-10T11:21:48Z</time>
      </trkpt>
      <trkpt lat="41.4502950" lon="2.1232400">
        <ele>279.2</ele>
        <time>2018-04-10T11:21:49Z</time>
      </trkpt>
      <trkpt lat="41.4502330" lon="2.1232130">
        <ele>279.8</ele>
        <time>2018-04-10T11:21:51Z</time>
      </trkpt>
      <trkpt lat="41.4502040" lon="2.1231990">
        <ele>280.0</ele>
        <time>2018-04-10T11:21:52Z</time>
      </trkpt>
      <trkpt lat="41.4501710" lon="2.1231870">
        <ele>280.4</ele>
        <time>2018-04-10T11:21:53Z</time>
      </trkpt>
      <trkpt lat="41.4501060" lon="2.1231600">
        <ele>281.0</ele>
        <time>2018-04-10T11:21:55Z</time>
      </trkpt>
      <trkpt lat="41.4500730" lon="2.1231480">
        <ele>281.4</ele>
        <time>2018-04-10T11:21:56Z</time>
      </trkpt>
      <trkpt lat="41.4500400" lon="2.1231370">
        <ele>281.6</ele>
        <time>2018-04-10T11:21:57Z</time>
      </trkpt>
      <trkpt lat="41.4499790" lon="2.1231220">
        <ele>282.2</ele>
        <time>2018-04-10T11:21:59Z</time>
      </trkpt>
      <trkpt lat="41.4499480" lon="2.1231150">
        <ele>282.4</ele>
        <time>2018-04-10T11:22:00Z</time>
      </trkpt>
      <trkpt lat="41.4499160" lon="2.1231050">
        <ele>282.8</ele>
        <time>2018-04-10T11:22:01Z</time>
      </trkpt>
      <trkpt lat="41.4498470" lon="2.1230810">
        <ele>283.0</ele>
        <time>2018-04-10T11:22:03Z</time>
      </trkpt>
      <trkpt lat="41.4497730" lon="2.1230690">
        <ele>283.6</ele>
        <time>2018-04-10T11:22:05Z</time>
      </trkpt>
      <trkpt lat="41.4496960" lon="2.1230620">
        <ele>284.0</ele>
        <time>2018-04-10T11:22:07Z</time>
      </trkpt>
      <trkpt lat="41.4496210" lon="2.1230580">
        <ele>284.2</ele>
        <time>2018-04-10T11:22:09Z</time>
      </trkpt>
      <trkpt lat="41.4495460" lon="2.1230590">
        <ele>284.6</ele>
        <time>2018-04-10T11:22:11Z</time>
      </trkpt>
      <trkpt lat="41.4495080" lon="2.1230590">
        <ele>284.6</ele>
        <time>2018-04-10T11:22:12Z</time>
      </trkpt>
      <trkpt lat="41.4494700" lon="2.1230620">
        <ele>284.8</ele>
        <time>2018-04-10T11:22:13Z</time>
      </trkpt>
      <trkpt lat="41.4493940" lon="2.1230730">
        <ele>285.2</ele>
        <time>2018-04-10T11:22:15Z</time>
      </trkpt>
      <trkpt lat="41.4493200" lon="2.1230920">
        <ele>285.6</ele>
        <time>2018-04-10T11:22:17Z</time>
      </trkpt>
      <trkpt lat="41.4492830" lon="2.1231020">
        <ele>285.8</ele>
        <time>2018-04-10T11:22:18Z</time>
      </trkpt>
      <trkpt lat="41.4492460" lon="2.1231140">
        <ele>286.0</ele>
        <time>2018-04-10T11:22:19Z</time>
      </trkpt>
      <trkpt lat="41.4491740" lon="2.1231380">
        <ele>286.4</ele>
        <time>2018-04-10T11:22:21Z</time>
      </trkpt>
      <trkpt lat="41.4491400" lon="2.1231470">
        <ele>286.8</ele>
        <time>2018-04-10T11:22:22Z</time>
      </trkpt>
      <trkpt lat="41.4491060" lon="2.1231550">
        <ele>287.0</ele>
        <time>2018-04-10T11:22:23Z</time>
      </trkpt>
      <trkpt lat="41.4490450" lon="2.1231910">
        <ele>287.6</ele>
        <time>2018-04-10T11:22:25Z</time>
      </trkpt>
      <trkpt lat="41.4490160" lon="2.1232220">
        <ele>288.0</ele>
        <time>2018-04-10T11:22:26Z</time>
      </trkpt>
      <trkpt lat="41.4489910" lon="2.1232550">
        <ele>288.2</ele>
        <time>2018-04-10T11:22:27Z</time>
      </trkpt>
      <trkpt lat="41.4489370" lon="2.1233200">
        <ele>288.6</ele>
        <time>2018-04-10T11:22:29Z</time>
      </trkpt>
      <trkpt lat="41.4489060" lon="2.1233550">
        <ele>289.0</ele>
        <time>2018-04-10T11:22:30Z</time>
      </trkpt>
      <trkpt lat="41.4488760" lon="2.1233920">
        <ele>289.2</ele>
        <time>2018-04-10T11:22:31Z</time>
      </trkpt>
      <trkpt lat="41.4488230" lon="2.1234720">
        <ele>289.6</ele>
        <time>2018-04-10T11:22:33Z</time>
      </trkpt>
      <trkpt lat="41.4487780" lon="2.1235600">
        <ele>290.0</ele>
        <time>2018-04-10T11:22:35Z</time>
      </trkpt>
      <trkpt lat="41.4487380" lon="2.1236460">
        <ele>290.6</ele>
        <time>2018-04-10T11:22:37Z</time>
      </trkpt>
      <trkpt lat="41.4487010" lon="2.1237370">
        <ele>291.0</ele>
        <time>2018-04-10T11:22:39Z</time>
      </trkpt>
      <trkpt lat="41.4486890" lon="2.1237850">
        <ele>291.4</ele>
        <time>2018-04-10T11:22:40Z</time>
      </trkpt>
      <trkpt lat="41.4486780" lon="2.1238380">
        <ele>291.6</ele>
        <time>2018-04-10T11:22:41Z</time>
      </trkpt>
      <trkpt lat="41.4486660" lon="2.1239480">
        <ele>292.4</ele>
        <time>2018-04-10T11:22:43Z</time>
      </trkpt>
      <trkpt lat="41.4486670" lon="2.1240040">
        <ele>292.6</ele>
        <time>2018-04-10T11:22:44Z</time>
      </trkpt>
      <trkpt lat="41.4486730" lon="2.1240610">
        <ele>292.8</ele>
        <time>2018-04-10T11:22:45Z</time>
      </trkpt>
      <trkpt lat="41.4486970" lon="2.1241700">
        <ele>293.2</ele>
        <time>2018-04-10T11:22:47Z</time>
      </trkpt>
      <trkpt lat="41.4487220" lon="2.1242730">
        <ele>293.6</ele>
        <time>2018-04-10T11:22:49Z</time>
      </trkpt>
      <trkpt lat="41.4487510" lon="2.1243730">
        <ele>294.2</ele>
        <time>2018-04-10T11:22:51Z</time>
      </trkpt>
      <trkpt lat="41.4487910" lon="2.1244590">
        <ele>295.0</ele>
        <time>2018-04-10T11:22:53Z</time>
      </trkpt>
      <trkpt lat="41.4488300" lon="2.1245500">
        <ele>295.4</ele>
        <time>2018-04-10T11:22:55Z</time>
      </trkpt>
      <trkpt lat="41.4488530" lon="2.1246460">
        <ele>295.8</ele>
        <time>2018-04-10T11:22:57Z</time>
      </trkpt>
      <trkpt lat="41.4488640" lon="2.1247460">
        <ele>296.2</ele>
        <time>2018-04-10T11:22:59Z</time>
      </trkpt>
      <trkpt lat="41.4488620" lon="2.1248480">
        <ele>296.8</ele>
        <time>2018-04-10T11:23:01Z</time>
      </trkpt>
      <trkpt lat="41.4488470" lon="2.1249470">
        <ele>297.0</ele>
        <time>2018-04-10T11:23:03Z</time>
      </trkpt>
      <trkpt lat="41.4488390" lon="2.1249930">
        <ele>297.4</ele>
        <time>2018-04-10T11:23:04Z</time>
      </trkpt>
      <trkpt lat="41.4488240" lon="2.1250400">
        <ele>297.8</ele>
        <time>2018-04-10T11:23:05Z</time>
      </trkpt>
      <trkpt lat="41.4487890" lon="2.1251270">
        <ele>298.2</ele>
        <time>2018-04-10T11:23:07Z</time>
      </trkpt>
      <trkpt lat="41.4487690" lon="2.1251690">
        <ele>298.4</ele>
        <time>2018-04-10T11:23:08Z</time>
      </trkpt>
      <trkpt lat="41.4487480" lon="2.1252050">
        <ele>298.8</ele>
        <time>2018-04-10T11:23:09Z</time>
      </trkpt>
      <trkpt lat="41.4486990" lon="2.1252710">
        <ele>299.2</ele>
        <time>2018-04-10T11:23:11Z</time>
      </trkpt>
      <trkpt lat="41.4486430" lon="2.1253280">
        <ele>299.6</ele>
        <time>2018-04-10T11:23:13Z</time>
      </trkpt>
      <trkpt lat="41.4485880" lon="2.1253630">
        <ele>300.0</ele>
        <time>2018-04-10T11:23:15Z</time>
      </trkpt>
      <trkpt lat="41.4485270" lon="2.1253750">
        <ele>300.2</ele>
        <time>2018-04-10T11:23:17Z</time>
      </trkpt>
      <trkpt lat="41.4484650" lon="2.1253750">
        <ele>300.6</ele>
        <time>2018-04-10T11:23:19Z</time>
      </trkpt>
      <trkpt lat="41.4484060" lon="2.1253720">
        <ele>300.6</ele>
        <time>2018-04-10T11:23:21Z</time>
      </trkpt>
      <trkpt lat="41.4483460" lon="2.1253710">
        <ele>301.2</ele>
        <time>2018-04-10T11:23:23Z</time>
      </trkpt>
      <trkpt lat="41.4482850" lon="2.1253580">
        <ele>301.6</ele>
        <time>2018-04-10T11:23:25Z</time>
      </trkpt>
      <trkpt lat="41.4482540" lon="2.1253510">
        <ele>301.8</ele>
        <time>2018-04-10T11:23:26Z</time>
      </trkpt>
      <trkpt lat="41.4482210" lon="2.1253440">
        <ele>302.0</ele>
        <time>2018-04-10T11:23:27Z</time>
      </trkpt>
      <trkpt lat="41.4481600" lon="2.1253340">
        <ele>302.4</ele>
        <time>2018-04-10T11:23:29Z</time>
      </trkpt>
      <trkpt lat="41.4481000" lon="2.1253400">
        <ele>302.8</ele>
        <time>2018-04-10T11:23:31Z</time>
      </trkpt>
      <trkpt lat="41.4480710" lon="2.1253430">
        <ele>303.0</ele>
        <time>2018-04-10T11:23:32Z</time>
      </trkpt>
      <trkpt lat="41.4480410" lon="2.1253490">
        <ele>303.2</ele>
        <time>2018-04-10T11:23:33Z</time>
      </trkpt>
      <trkpt lat="41.4479790" lon="2.1253690">
        <ele>303.8</ele>
        <time>2018-04-10T11:23:35Z</time>
      </trkpt>
      <trkpt lat="41.4479470" lon="2.1253860">
        <ele>304.2</ele>
        <time>2018-04-10T11:23:36Z</time>
      </trkpt>
      <trkpt lat="41.4479150" lon="2.1254020">
        <ele>304.6</ele>
        <time>2018-04-10T11:23:37Z</time>
      </trkpt>
      <trkpt lat="41.4478560" lon="2.1254490">
        <ele>305.2</ele>
        <time>2018-04-10T11:23:39Z</time>
      </trkpt>
      <trkpt lat="41.4478030" lon="2.1255090">
        <ele>305.8</ele>
        <time>2018-04-10T11:23:41Z</time>
      </trkpt>
      <trkpt lat="41.4477520" lon="2.1255740">
        <ele>306.2</ele>
        <time>2018-04-10T11:23:43Z</time>
      </trkpt>
      <trkpt lat="41.4477260" lon="2.1256100">
        <ele>306.6</ele>
        <time>2018-04-10T11:23:44Z</time>
      </trkpt>
      <trkpt lat="41.4477010" lon="2.1256470">
        <ele>306.8</ele>
        <time>2018-04-10T11:23:45Z</time>
      </trkpt>
      <trkpt lat="41.4476550" lon="2.1257220">
        <ele>307.4</ele>
        <time>2018-04-10T11:23:47Z</time>
      </trkpt>
      <trkpt lat="41.4476300" lon="2.1257600">
        <ele>307.6</ele>
        <time>2018-04-10T11:23:48Z</time>
      </trkpt>
      <trkpt lat="41.4476060" lon="2.1257970">
        <ele>308.0</ele>
        <time>2018-04-10T11:23:49Z</time>
      </trkpt>
      <trkpt lat="41.4475620" lon="2.1258700">
        <ele>308.6</ele>
        <time>2018-04-10T11:23:51Z</time>
      </trkpt>
      <trkpt lat="41.4475380" lon="2.1259060">
        <ele>308.8</ele>
        <time>2018-04-10T11:23:52Z</time>
      </trkpt>
      <trkpt lat="41.4475110" lon="2.1259420">
        <ele>309.0</ele>
        <time>2018-04-10T11:23:53Z</time>
      </trkpt>
      <trkpt lat="41.4474580" lon="2.1260110">
        <ele>309.4</ele>
        <time>2018-04-10T11:23:55Z</time>
      </trkpt>
      <trkpt lat="41.4474100" lon="2.1260770">
        <ele>310.0</ele>
        <time>2018-04-10T11:23:57Z</time>
      </trkpt>
      <trkpt lat="41.4473630" lon="2.1261380">
        <ele>310.4</ele>
        <time>2018-04-10T11:23:59Z</time>
      </trkpt>
      <trkpt lat="41.4473120" lon="2.1261930">
        <ele>310.6</ele>
        <time>2018-04-10T11:24:01Z</time>
      </trkpt>
      <trkpt lat="41.4472620" lon="2.1262500">
        <ele>311.0</ele>
        <time>2018-04-10T11:24:03Z</time>
      </trkpt>
      <trkpt lat="41.4472090" lon="2.1263040">
        <ele>311.2</ele>
        <time>2018-04-10T11:24:05Z</time>
      </trkpt>
      <trkpt lat="41.4471590" lon="2.1263540">
        <ele>311.6</ele>
        <time>2018-04-10T11:24:07Z</time>
      </trkpt>
      <trkpt lat="41.4471000" lon="2.1264020">
        <ele>311.8</ele>
        <time>2018-04-10T11:24:09Z</time>
      </trkpt>
      <trkpt lat="41.4470430" lon="2.1264440">
        <ele>312.4</ele>
        <time>2018-04-10T11:24:11Z</time>
      </trkpt>
      <trkpt lat="41.4469900" lon="2.1264950">
        <ele>312.8</ele>
        <time>2018-04-10T11:24:13Z</time>
      </trkpt>
      <trkpt lat="41.4469630" lon="2.1265220">
        <ele>313.2</ele>
        <time>2018-04-10T11:24:14Z</time>
      </trkpt>
      <trkpt lat="41.4469370" lon="2.1265460">
        <ele>313.4</ele>
        <time>2018-04-10T11:24:15Z</time>
      </trkpt>
      <trkpt lat="41.4468830" lon="2.1265990">
        <ele>313.8</ele>
        <time>2018-04-10T11:24:17Z</time>
      </trkpt>
      <trkpt lat="41.4468250" lon="2.1266420">
        <ele>314.2</ele>
        <time>2018-04-10T11:24:19Z</time>
      </trkpt>
      <trkpt lat="41.4467700" lon="2.1266870">
        <ele>314.8</ele>
        <time>2018-04-10T11:24:21Z</time>
      </trkpt>
      <trkpt lat="41.4467140" lon="2.1267240">
        <ele>315.2</ele>
        <time>2018-04-10T11:24:23Z</time>
      </trkpt>
      <trkpt lat="41.4466580" lon="2.1267700">
        <ele>315.8</ele>
        <time>2018-04-10T11:24:25Z</time>
      </trkpt>
      <trkpt lat="41.4466020" lon="2.1268070">
        <ele>316.2</ele>
        <time>2018-04-10T11:24:27Z</time>
      </trkpt>
      <trkpt lat="41.4465740" lon="2.1268260">
        <ele>316.4</ele>
        <time>2018-04-10T11:24:28Z</time>
      </trkpt>
      <trkpt lat="41.4465460" lon="2.1268430">
        <ele>316.8</ele>
        <time>2018-04-10T11:24:29Z</time>
      </trkpt>
      <trkpt lat="41.4464920" lon="2.1268770">
        <ele>317.2</ele>
        <time>2018-04-10T11:24:31Z</time>
      </trkpt>
      <trkpt lat="41.4464650" lon="2.1268950">
        <ele>317.6</ele>
        <time>2018-04-10T11:24:32Z</time>
      </trkpt>
      <trkpt lat="41.4464390" lon="2.1269160">
        <ele>317.8</ele>
        <time>2018-04-10T11:24:33Z</time>
      </trkpt>
      <trkpt lat="41.4463930" lon="2.1269730">
        <ele>318.6</ele>
        <time>2018-04-10T11:24:35Z</time>
      </trkpt>
      <trkpt lat="41.4463550" lon="2.1270460">
        <ele>319.2</ele>
        <time>2018-04-10T11:24:37Z</time>
      </trkpt>
      <trkpt lat="41.4463370" lon="2.1271340">
        <ele>319.6</ele>
        <time>2018-04-10T11:24:39Z</time>
      </trkpt>
      <trkpt lat="41.4463410" lon="2.1272260">
        <ele>320.0</ele>
        <time>2018-04-10T11:24:41Z</time>
      </trkpt>
      <trkpt lat="41.4463700" lon="2.1273180">
        <ele>320.2</ele>
        <time>2018-04-10T11:24:43Z</time>
      </trkpt>
      <trkpt lat="41.4464100" lon="2.1274030">
        <ele>320.6</ele>
        <time>2018-04-10T11:24:45Z</time>
      </trkpt>
      <trkpt lat="41.4464330" lon="2.1274400">
        <ele>320.8</ele>
        <time>2018-04-10T11:24:46Z</time>
      </trkpt>
      <trkpt lat="41.4464630" lon="2.1274730">
        <ele>320.8</ele>
        <time>2018-04-10T11:24:47Z</time>
      </trkpt>
      <trkpt lat="41.4465220" lon="2.1275400">
        <ele>321.4</ele>
        <time>2018-04-10T11:24:49Z</time>
      </trkpt>
      <trkpt lat="41.4465920" lon="2.1276000">
        <ele>321.6</ele>
        <time>2018-04-10T11:24:51Z</time>
      </trkpt>
      <trkpt lat="41.4466630" lon="2.1276600">
        <ele>321.6</ele>
        <time>2018-04-10T11:24:53Z</time>
      </trkpt>
      <trkpt lat="41.4467310" lon="2.1277240">
        <ele>321.6</ele>
        <time>2018-04-10T11:24:55Z</time>
      </trkpt>
      <trkpt lat="41.4468030" lon="2.1277970">
        <ele>321.8</ele>
        <time>2018-04-10T11:24:57Z</time>
      </trkpt>
      <trkpt lat="41.4468370" lon="2.1278400">
        <ele>321.8</ele>
        <time>2018-04-10T11:24:58Z</time>
      </trkpt>
      <trkpt lat="41.4468640" lon="2.1278880">
        <ele>321.8</ele>
        <time>2018-04-10T11:24:59Z</time>
      </trkpt>
      <trkpt lat="41.4469000" lon="2.1279980">
        <ele>321.8</ele>
        <time>2018-04-10T11:25:01Z</time>
      </trkpt>
      <trkpt lat="41.4468960" lon="2.1281100">
        <ele>322.0</ele>
        <time>2018-04-10T11:25:03Z</time>
      </trkpt>
      <trkpt lat="41.4468780" lon="2.1282120">
        <ele>322.0</ele>
        <time>2018-04-10T11:25:05Z</time>
      </trkpt>
      <trkpt lat="41.4468270" lon="2.1283100">
        <ele>322.0</ele>
        <time>2018-04-10T11:25:07Z</time>
      </trkpt>
      <trkpt lat="41.4467970" lon="2.1283490">
        <ele>322.0</ele>
        <time>2018-04-10T11:25:08Z</time>
      </trkpt>
      <trkpt lat="41.4467640" lon="2.1283860">
        <ele>322.2</ele>
        <time>2018-04-10T11:25:09Z</time>
      </trkpt>
      <trkpt lat="41.4466920" lon="2.1284470">
        <ele>322.2</ele>
        <time>2018-04-10T11:25:11Z</time>
      </trkpt>
      <trkpt lat="41.4466160" lon="2.1284890">
        <ele>322.4</ele>
        <time>2018-04-10T11:25:13Z</time>
      </trkpt>
      <trkpt lat="41.4465790" lon="2.1285020">
        <ele>322.6</ele>
        <time>2018-04-10T11:25:14Z</time>
      </trkpt>
      <trkpt lat="41.4465450" lon="2.1285150">
        <ele>322.8</ele>
        <time>2018-04-10T11:25:15Z</time>
      </trkpt>
      <trkpt lat="41.4465110" lon="2.1285320">
        <ele>323.0</ele>
        <time>2018-04-10T11:25:16Z</time>
      </trkpt>
      <trkpt lat="41.4464790" lon="2.1285440">
        <ele>323.2</ele>
        <time>2018-04-10T11:25:17Z</time>
      </trkpt>
      <trkpt lat="41.4464210" lon="2.1285510">
        <ele>323.8</ele>
        <time>2018-04-10T11:25:19Z</time>
      </trkpt>
      <trkpt lat="41.4463910" lon="2.1285550">
        <ele>324.2</ele>
        <time>2018-04-10T11:25:20Z</time>
      </trkpt>
      <trkpt lat="41.4463610" lon="2.1285650">
        <ele>324.4</ele>
        <time>2018-04-10T11:25:21Z</time>
      </trkpt>
      <trkpt lat="41.4463020" lon="2.1285940">
        <ele>324.8</ele>
        <time>2018-04-10T11:25:23Z</time>
      </trkpt>
      <trkpt lat="41.4462460" lon="2.1286120">
        <ele>325.4</ele>
        <time>2018-04-10T11:25:25Z</time>
      </trkpt>
      <trkpt lat="41.4461870" lon="2.1286280">
        <ele>325.8</ele>
        <time>2018-04-10T11:25:27Z</time>
      </trkpt>
      <trkpt lat="41.4461260" lon="2.1286370">
        <ele>326.2</ele>
        <time>2018-04-10T11:25:29Z</time>
      </trkpt>
      <trkpt lat="41.4460970" lon="2.1286400">
        <ele>326.4</ele>
        <time>2018-04-10T11:25:30Z</time>
      </trkpt>
      <trkpt lat="41.4460650" lon="2.1286510">
        <ele>326.8</ele>
        <time>2018-04-10T11:25:31Z</time>
      </trkpt>
      <trkpt lat="41.4460100" lon="2.1286730">
        <ele>327.2</ele>
        <time>2018-04-10T11:25:33Z</time>
      </trkpt>
      <trkpt lat="41.4459580" lon="2.1286910">
        <ele>327.6</ele>
        <time>2018-04-10T11:25:35Z</time>
      </trkpt>
      <trkpt lat="41.4458910" lon="2.1287250">
        <ele>328.2</ele>
        <time>2018-04-10T11:25:37Z</time>
      </trkpt>
      <trkpt lat="41.4458610" lon="2.1287380">
        <ele>328.4</ele>
        <time>2018-04-10T11:25:38Z</time>
      </trkpt>
      <trkpt lat="41.4458310" lon="2.1287500">
        <ele>328.8</ele>
        <time>2018-04-10T11:25:39Z</time>
      </trkpt>
      <trkpt lat="41.4457720" lon="2.1287700">
        <ele>329.6</ele>
        <time>2018-04-10T11:25:41Z</time>
      </trkpt>
      <trkpt lat="41.4457150" lon="2.1287900">
        <ele>330.4</ele>
        <time>2018-04-10T11:25:43Z</time>
      </trkpt>
      <trkpt lat="41.4456870" lon="2.1287990">
        <ele>330.8</ele>
        <time>2018-04-10T11:25:44Z</time>
      </trkpt>
      <trkpt lat="41.4456590" lon="2.1288070">
        <ele>331.0</ele>
        <time>2018-04-10T11:25:45Z</time>
      </trkpt>
      <trkpt lat="41.4456040" lon="2.1288300">
        <ele>331.6</ele>
        <time>2018-04-10T11:25:47Z</time>
      </trkpt>
      <trkpt lat="41.4455750" lon="2.1288450">
        <ele>332.0</ele>
        <time>2018-04-10T11:25:48Z</time>
      </trkpt>
      <trkpt lat="41.4455480" lon="2.1288630">
        <ele>332.0</ele>
        <time>2018-04-10T11:25:49Z</time>
      </trkpt>
      <trkpt lat="41.4454990" lon="2.1289150">
        <ele>332.6</ele>
        <time>2018-04-10T11:25:51Z</time>
      </trkpt>
      <trkpt lat="41.4454670" lon="2.1289870">
        <ele>333.2</ele>
        <time>2018-04-10T11:25:53Z</time>
      </trkpt>
      <trkpt lat="41.4454490" lon="2.1290690">
        <ele>333.4</ele>
        <time>2018-04-10T11:25:55Z</time>
      </trkpt>
      <trkpt lat="41.4454410" lon="2.1291500">
        <ele>333.8</ele>
        <time>2018-04-10T11:25:57Z</time>
      </trkpt>
      <trkpt lat="41.4454420" lon="2.1292300">
        <ele>334.0</ele>
        <time>2018-04-10T11:25:59Z</time>
      </trkpt>
      <trkpt lat="41.4454560" lon="2.1293210">
        <ele>334.2</ele>
        <time>2018-04-10T11:26:01Z</time>
      </trkpt>
      <trkpt lat="41.4454770" lon="2.1294070">
        <ele>334.6</ele>
        <time>2018-04-10T11:26:03Z</time>
      </trkpt>
      <trkpt lat="41.4455110" lon="2.1294790">
        <ele>335.0</ele>
        <time>2018-04-10T11:26:05Z</time>
      </trkpt>
      <trkpt lat="41.4455300" lon="2.1295150">
        <ele>335.4</ele>
        <time>2018-04-10T11:26:06Z</time>
      </trkpt>
      <trkpt lat="41.4455480" lon="2.1295500">
        <ele>335.6</ele>
        <time>2018-04-10T11:26:07Z</time>
      </trkpt>
      <trkpt lat="41.4455830" lon="2.1296210">
        <ele>336.4</ele>
        <time>2018-04-10T11:26:09Z</time>
      </trkpt>
      <trkpt lat="41.4456160" lon="2.1296910">
        <ele>336.6</ele>
        <time>2018-04-10T11:26:11Z</time>
      </trkpt>
      <trkpt lat="41.4456570" lon="2.1297570">
        <ele>337.0</ele>
        <time>2018-04-10T11:26:13Z</time>
      </trkpt>
      <trkpt lat="41.4456980" lon="2.1298230">
        <ele>337.2</ele>
        <time>2018-04-10T11:26:15Z</time>
      </trkpt>
      <trkpt lat="41.4457250" lon="2.1299020">
        <ele>337.4</ele>
        <time>2018-04-10T11:26:17Z</time>
      </trkpt>
      <trkpt lat="41.4457370" lon="2.1299860">
        <ele>337.8</ele>
        <time>2018-04-10T11:26:19Z</time>
      </trkpt>
      <trkpt lat="41.4457410" lon="2.1300740">
        <ele>338.8</ele>
        <time>2018-04-10T11:26:21Z</time>
      </trkpt>
      <trkpt lat="41.4457410" lon="2.1301640">
        <ele>339.4</ele>
        <time>2018-04-10T11:26:23Z</time>
      </trkpt>
      <trkpt lat="41.4457350" lon="2.1302520">
        <ele>339.8</ele>
        <time>2018-04-10T11:26:25Z</time>
      </trkpt>
      <trkpt lat="41.4457340" lon="2.1303440">
        <ele>340.2</ele>
        <time>2018-04-10T11:26:27Z</time>
      </trkpt>
      <trkpt lat="41.4457340" lon="2.1304380">
        <ele>340.4</ele>
        <time>2018-04-10T11:26:29Z</time>
      </trkpt>
      <trkpt lat="41.4457520" lon="2.1305410">
        <ele>340.6</ele>
        <time>2018-04-10T11:26:31Z</time>
      </trkpt>
      <trkpt lat="41.4457980" lon="2.1306340">
        <ele>340.8</ele>
        <time>2018-04-10T11:26:33Z</time>
      </trkpt>
      <trkpt lat="41.4458630" lon="2.1307070">
        <ele>341.2</ele>
        <time>2018-04-10T11:26:35Z</time>
      </trkpt>
      <trkpt lat="41.4459470" lon="2.1307490">
        <ele>341.4</ele>
        <time>2018-04-10T11:26:37Z</time>
      </trkpt>
      <trkpt lat="41.4460300" lon="2.1307460">
        <ele>341.4</ele>
        <time>2018-04-10T11:26:39Z</time>
      </trkpt>
      <trkpt lat="41.4461090" lon="2.1307090">
        <ele>341.6</ele>
        <time>2018-04-10T11:26:41Z</time>
      </trkpt>
      <trkpt lat="41.4461840" lon="2.1306450">
        <ele>341.6</ele>
        <time>2018-04-10T11:26:43Z</time>
      </trkpt>
      <trkpt lat="41.4462190" lon="2.1306070">
        <ele>341.6</ele>
        <time>2018-04-10T11:26:44Z</time>
      </trkpt>
      <trkpt lat="41.4462540" lon="2.1305650">
        <ele>341.6</ele>
        <time>2018-04-10T11:26:45Z</time>
      </trkpt>
      <trkpt lat="41.4463180" lon="2.1304760">
        <ele>341.6</ele>
        <time>2018-04-10T11:26:47Z</time>
      </trkpt>
      <trkpt lat="41.4463840" lon="2.1303940">
        <ele>341.6</ele>
        <time>2018-04-10T11:26:49Z</time>
      </trkpt>
      <trkpt lat="41.4464200" lon="2.1303590">
        <ele>341.8</ele>
        <time>2018-04-10T11:26:50Z</time>
      </trkpt>
      <trkpt lat="41.4464570" lon="2.1303340">
        <ele>341.8</ele>
        <time>2018-04-10T11:26:51Z</time>
      </trkpt>
      <trkpt lat="41.4465370" lon="2.1303120">
        <ele>341.8</ele>
        <time>2018-04-10T11:26:53Z</time>
      </trkpt>
      <trkpt lat="41.4466110" lon="2.1303330">
        <ele>341.8</ele>
        <time>2018-04-10T11:26:55Z</time>
      </trkpt>
      <trkpt lat="41.4466830" lon="2.1303760">
        <ele>341.8</ele>
        <time>2018-04-10T11:26:57Z</time>
      </trkpt>
      <trkpt lat="41.4467490" lon="2.1304290">
        <ele>342.0</ele>
        <time>2018-04-10T11:26:59Z</time>
      </trkpt>
      <trkpt lat="41.4468090" lon="2.1304850">
        <ele>342.2</ele>
        <time>2018-04-10T11:27:01Z</time>
      </trkpt>
      <trkpt lat="41.4468690" lon="2.1305490">
        <ele>342.6</ele>
        <time>2018-04-10T11:27:03Z</time>
      </trkpt>
      <trkpt lat="41.4469260" lon="2.1306160">
        <ele>343.0</ele>
        <time>2018-04-10T11:27:05Z</time>
      </trkpt>
      <trkpt lat="41.4469600" lon="2.1306490">
        <ele>343.2</ele>
        <time>2018-04-10T11:27:06Z</time>
      </trkpt>
      <trkpt lat="41.4469930" lon="2.1306830">
        <ele>343.4</ele>
        <time>2018-04-10T11:27:07Z</time>
      </trkpt>
      <trkpt lat="41.4470550" lon="2.1307530">
        <ele>343.6</ele>
        <time>2018-04-10T11:27:09Z</time>
      </trkpt>
      <trkpt lat="41.4471160" lon="2.1308210">
        <ele>344.0</ele>
        <time>2018-04-10T11:27:11Z</time>
      </trkpt>
      <trkpt lat="41.4471450" lon="2.1308530">
        <ele>344.2</ele>
        <time>2018-04-10T11:27:12Z</time>
      </trkpt>
      <trkpt lat="41.4471740" lon="2.1308860">
        <ele>344.6</ele>
        <time>2018-04-10T11:27:13Z</time>
      </trkpt>
      <trkpt lat="41.4472370" lon="2.1309460">
        <ele>345.4</ele>
        <time>2018-04-10T11:27:15Z</time>
      </trkpt>
      <trkpt lat="41.4472990" lon="2.1310020">
        <ele>346.0</ele>
        <time>2018-04-10T11:27:17Z</time>
      </trkpt>
      <trkpt lat="41.4473600" lon="2.1310600">
        <ele>346.2</ele>
        <time>2018-04-10T11:27:19Z</time>
      </trkpt>
      <trkpt lat="41.4473880" lon="2.1310900">
        <ele>346.4</ele>
        <time>2018-04-10T11:27:20Z</time>
      </trkpt>
      <trkpt lat="41.4474130" lon="2.1311200">
        <ele>346.6</ele>
        <time>2018-04-10T11:27:21Z</time>
      </trkpt>
      <trkpt lat="41.4474620" lon="2.1311830">
        <ele>346.8</ele>
        <time>2018-04-10T11:27:23Z</time>
      </trkpt>
      <trkpt lat="41.4475090" lon="2.1312630">
        <ele>347.2</ele>
        <time>2018-04-10T11:27:25Z</time>
      </trkpt>
      <trkpt lat="41.4475400" lon="2.1313520">
        <ele>347.6</ele>
        <time>2018-04-10T11:27:27Z</time>
      </trkpt>
      <trkpt lat="41.4475500" lon="2.1314450">
        <ele>347.8</ele>
        <time>2018-04-10T11:27:29Z</time>
      </trkpt>
      <trkpt lat="41.4475470" lon="2.1315350">
        <ele>348.4</ele>
        <time>2018-04-10T11:27:31Z</time>
      </trkpt>
      <trkpt lat="41.4475430" lon="2.1315810">
        <ele>348.6</ele>
        <time>2018-04-10T11:27:32Z</time>
      </trkpt>
      <trkpt lat="41.4475340" lon="2.1316260">
        <ele>348.8</ele>
        <time>2018-04-10T11:27:33Z</time>
      </trkpt>
      <trkpt lat="41.4475120" lon="2.1317170">
        <ele>349.2</ele>
        <time>2018-04-10T11:27:35Z</time>
      </trkpt>
      <trkpt lat="41.4474820" lon="2.1318070">
        <ele>349.6</ele>
        <time>2018-04-10T11:27:37Z</time>
      </trkpt>
      <trkpt lat="41.4474440" lon="2.1318930">
        <ele>350.0</ele>
        <time>2018-04-10T11:27:39Z</time>
      </trkpt>
      <trkpt lat="41.4474020" lon="2.1319670">
        <ele>350.6</ele>
        <time>2018-04-10T11:27:41Z</time>
      </trkpt>
      <trkpt lat="41.4473560" lon="2.1320330">
        <ele>351.2</ele>
        <time>2018-04-10T11:27:43Z</time>
      </trkpt>
      <trkpt lat="41.4473050" lon="2.1320940">
        <ele>351.8</ele>
        <time>2018-04-10T11:27:45Z</time>
      </trkpt>
      <trkpt lat="41.4472500" lon="2.1321520">
        <ele>352.2</ele>
        <time>2018-04-10T11:27:47Z</time>
      </trkpt>
      <trkpt lat="41.4471900" lon="2.1322020">
        <ele>352.6</ele>
        <time>2018-04-10T11:27:49Z</time>
      </trkpt>
      <trkpt lat="41.4471340" lon="2.1322660">
        <ele>352.8</ele>
        <time>2018-04-10T11:27:51Z</time>
      </trkpt>
      <trkpt lat="41.4470790" lon="2.1323260">
        <ele>353.2</ele>
        <time>2018-04-10T11:27:53Z</time>
      </trkpt>
      <trkpt lat="41.4470200" lon="2.1323820">
        <ele>353.4</ele>
        <time>2018-04-10T11:27:55Z</time>
      </trkpt>
      <trkpt lat="41.4469620" lon="2.1324430">
        <ele>353.8</ele>
        <time>2018-04-10T11:27:57Z</time>
      </trkpt>
      <trkpt lat="41.4469350" lon="2.1324750">
        <ele>354.0</ele>
        <time>2018-04-10T11:27:58Z</time>
      </trkpt>
      <trkpt lat="41.4469080" lon="2.1325060">
        <ele>354.0</ele>
        <time>2018-04-10T11:27:59Z</time>
      </trkpt>
      <trkpt lat="41.4468510" lon="2.1325660">
        <ele>354.4</ele>
        <time>2018-04-10T11:28:01Z</time>
      </trkpt>
      <trkpt lat="41.4467950" lon="2.1326290">
        <ele>354.6</ele>
        <time>2018-04-10T11:28:03Z</time>
      </trkpt>
      <trkpt lat="41.4467370" lon="2.1326900">
        <ele>355.0</ele>
        <time>2018-04-10T11:28:05Z</time>
      </trkpt>
      <trkpt lat="41.4466780" lon="2.1327520">
        <ele>355.8</ele>
        <time>2018-04-10T11:28:07Z</time>
      </trkpt>
      <trkpt lat="41.4466490" lon="2.1327860">
        <ele>356.2</ele>
        <time>2018-04-10T11:28:08Z</time>
      </trkpt>
      <trkpt lat="41.4466230" lon="2.1328220">
        <ele>356.4</ele>
        <time>2018-04-10T11:28:09Z</time>
      </trkpt>
      <trkpt lat="41.4465810" lon="2.1329080">
        <ele>357.0</ele>
        <time>2018-04-10T11:28:11Z</time>
      </trkpt>
      <trkpt lat="41.4465650" lon="2.1329530">
        <ele>357.2</ele>
        <time>2018-04-10T11:28:12Z</time>
      </trkpt>
      <trkpt lat="41.4465540" lon="2.1330010">
        <ele>357.4</ele>
        <time>2018-04-10T11:28:13Z</time>
      </trkpt>
      <trkpt lat="41.4465470" lon="2.1331060">
        <ele>358.0</ele>
        <time>2018-04-10T11:28:15Z</time>
      </trkpt>
      <trkpt lat="41.4465660" lon="2.1332090">
        <ele>358.2</ele>
        <time>2018-04-10T11:28:17Z</time>
      </trkpt>
      <trkpt lat="41.4466030" lon="2.1332990">
        <ele>358.4</ele>
        <time>2018-04-10T11:28:19Z</time>
      </trkpt>
      <trkpt lat="41.4466530" lon="2.1333780">
        <ele>358.6</ele>
        <time>2018-04-10T11:28:21Z</time>
      </trkpt>
      <trkpt lat="41.4467160" lon="2.1334520">
        <ele>358.8</ele>
        <time>2018-04-10T11:28:23Z</time>
      </trkpt>
      <trkpt lat="41.4467730" lon="2.1335260">
        <ele>358.8</ele>
        <time>2018-04-10T11:28:25Z</time>
      </trkpt>
      <trkpt lat="41.4468220" lon="2.1336030">
        <ele>359.2</ele>
        <time>2018-04-10T11:28:27Z</time>
      </trkpt>
      <trkpt lat="41.4468490" lon="2.1336380">
        <ele>359.4</ele>
        <time>2018-04-10T11:28:28Z</time>
      </trkpt>
      <trkpt lat="41.4468770" lon="2.1336730">
        <ele>359.4</ele>
        <time>2018-04-10T11:28:29Z</time>
      </trkpt>
      <trkpt lat="41.4469380" lon="2.1337410">
        <ele>359.6</ele>
        <time>2018-04-10T11:28:31Z</time>
      </trkpt>
      <trkpt lat="41.4469940" lon="2.1338060">
        <ele>359.8</ele>
        <time>2018-04-10T11:28:33Z</time>
      </trkpt>
      <trkpt lat="41.4470560" lon="2.1338680">
        <ele>360.0</ele>
        <time>2018-04-10T11:28:35Z</time>
      </trkpt>
      <trkpt lat="41.4471190" lon="2.1339290">
        <ele>360.4</ele>
        <time>2018-04-10T11:28:37Z</time>
      </trkpt>
      <trkpt lat="41.4471880" lon="2.1339880">
        <ele>360.6</ele>
        <time>2018-04-10T11:28:39Z</time>
      </trkpt>
      <trkpt lat="41.4472630" lon="2.1340470">
        <ele>360.8</ele>
        <time>2018-04-10T11:28:41Z</time>
      </trkpt>
      <trkpt lat="41.4473380" lon="2.1341110">
        <ele>361.0</ele>
        <time>2018-04-10T11:28:43Z</time>
      </trkpt>
      <trkpt lat="41.4474110" lon="2.1341730">
        <ele>361.2</ele>
        <time>2018-04-10T11:28:45Z</time>
      </trkpt>
      <trkpt lat="41.4474840" lon="2.1342280">
        <ele>361.4</ele>
        <time>2018-04-10T11:28:47Z</time>
      </trkpt>
      <trkpt lat="41.4475520" lon="2.1342860">
        <ele>361.4</ele>
        <time>2018-04-10T11:28:49Z</time>
      </trkpt>
      <trkpt lat="41.4476260" lon="2.1343370">
        <ele>361.6</ele>
        <time>2018-04-10T11:28:51Z</time>
      </trkpt>
      <trkpt lat="41.4476990" lon="2.1343890">
        <ele>361.6</ele>
        <time>2018-04-10T11:28:53Z</time>
      </trkpt>
      <trkpt lat="41.4477740" lon="2.1344430">
        <ele>362.0</ele>
        <time>2018-04-10T11:28:55Z</time>
      </trkpt>
      <trkpt lat="41.4478090" lon="2.1344760">
        <ele>362.0</ele>
        <time>2018-04-10T11:28:56Z</time>
      </trkpt>
      <trkpt lat="41.4478390" lon="2.1345170">
        <ele>362.2</ele>
        <time>2018-04-10T11:28:57Z</time>
      </trkpt>
      <trkpt lat="41.4478830" lon="2.1346170">
        <ele>362.6</ele>
        <time>2018-04-10T11:28:59Z</time>
      </trkpt>
      <trkpt lat="41.4478900" lon="2.1347330">
        <ele>363.0</ele>
        <time>2018-04-10T11:29:01Z</time>
      </trkpt>
      <trkpt lat="41.4478690" lon="2.1348470">
        <ele>363.2</ele>
        <time>2018-04-10T11:29:03Z</time>
      </trkpt>
      <trkpt lat="41.4478540" lon="2.1349030">
        <ele>363.2</ele>
        <time>2018-04-10T11:29:04Z</time>
      </trkpt>
      <trkpt lat="41.4478380" lon="2.1349590">
        <ele>363.4</ele>
        <time>2018-04-10T11:29:05Z</time>
      </trkpt>
      <trkpt lat="41.4477990" lon="2.1350720">
        <ele>363.6</ele>
        <time>2018-04-10T11:29:07Z</time>
      </trkpt>
      <trkpt lat="41.4477790" lon="2.1351290">
        <ele>363.6</ele>
        <time>2018-04-10T11:29:08Z</time>
      </trkpt>
      <trkpt lat="41.4477570" lon="2.1351860">
        <ele>363.8</ele>
        <time>2018-04-10T11:29:09Z</time>
      </trkpt>
      <trkpt lat="41.4477100" lon="2.1352940">
        <ele>363.8</ele>
        <time>2018-04-10T11:29:11Z</time>
      </trkpt>
      <trkpt lat="41.4476620" lon="2.1353980">
        <ele>363.8</ele>
        <time>2018-04-10T11:29:13Z</time>
      </trkpt>
      <trkpt lat="41.4476350" lon="2.1354430">
        <ele>363.8</ele>
        <time>2018-04-10T11:29:14Z</time>
      </trkpt>
      <trkpt lat="41.4476050" lon="2.1354810">
        <ele>363.8</ele>
        <time>2018-04-10T11:29:15Z</time>
      </trkpt>
      <trkpt lat="41.4475370" lon="2.1355390">
        <ele>363.8</ele>
        <time>2018-04-10T11:29:17Z</time>
      </trkpt>
      <trkpt lat="41.4475040" lon="2.1355620">
        <ele>363.8</ele>
        <time>2018-04-10T11:29:18Z</time>
      </trkpt>
      <trkpt lat="41.4474740" lon="2.1355800">
        <ele>363.8</ele>
        <time>2018-04-10T11:29:19Z</time>
      </trkpt>
      <trkpt lat="41.4474270" lon="2.1356010">
        <ele>364.0</ele>
        <time>2018-04-10T11:29:21Z</time>
      </trkpt>
      <trkpt lat="41.4474290" lon="2.1356220">
        <ele>364.0</ele>
        <time>2018-04-10T11:29:23Z</time>
      </trkpt>
      <trkpt lat="41.4474630" lon="2.1356190">
        <ele>364.2</ele>
        <time>2018-04-10T11:29:25Z</time>
      </trkpt>
      <trkpt lat="41.4474830" lon="2.1356100">
        <ele>364.2</ele>
        <time>2018-04-10T11:29:26Z</time>
      </trkpt>
      <trkpt lat="41.4475050" lon="2.1356000">
        <ele>364.2</ele>
        <time>2018-04-10T11:29:27Z</time>
      </trkpt>
      <trkpt lat="41.4475530" lon="2.1355850">
        <ele>364.0</ele>
        <time>2018-04-10T11:29:29Z</time>
      </trkpt>
      <trkpt lat="41.4475820" lon="2.1355640">
        <ele>364.0</ele>
        <time>2018-04-10T11:29:31Z</time>
      </trkpt>
      <trkpt lat="41.4475860" lon="2.1355610">
        <ele>364.0</ele>
        <time>2018-04-10T11:29:33Z</time>
      </trkpt>
      <trkpt lat="41.4475860" lon="2.1355610">
        <ele>363.6</ele>
        <time>2018-04-10T11:29:35Z</time>
      </trkpt>
      <trkpt lat="41.4475870" lon="2.1355610">
        <ele>363.8</ele>
        <time>2018-04-10T11:29:37Z</time>
      </trkpt>
      <trkpt lat="41.4475870" lon="2.1355610">
        <ele>363.8</ele>
        <time>2018-04-10T11:29:39Z</time>
      </trkpt>
      <trkpt lat="41.4475870" lon="2.1355610">
        <ele>363.6</ele>
        <time>2018-04-10T11:29:41Z</time>
      </trkpt>
      <trkpt lat="41.4475870" lon="2.1355610">
        <ele>363.6</ele>
        <time>2018-04-10T11:29:43Z</time>
      </trkpt>
      <trkpt lat="41.4475870" lon="2.1355610">
        <ele>363.4</ele>
        <time>2018-04-10T11:29:45Z</time>
      </trkpt>
      <trkpt lat="41.4475870" lon="2.1355610">
        <ele>363.6</ele>
        <time>2018-04-10T11:29:47Z</time>
      </trkpt>
      <trkpt lat="41.4475880" lon="2.1355600">
        <ele>363.6</ele>
        <time>2018-04-10T11:29:49Z</time>
      </trkpt>
      <trkpt lat="41.4475880" lon="2.1355600">
        <ele>363.8</ele>
        <time>2018-04-10T11:29:51Z</time>
      </trkpt>
      <trkpt lat="41.4475880" lon="2.1355600">
        <ele>363.8</ele>
        <time>2018-04-10T11:29:53Z</time>
      </trkpt>
      <trkpt lat="41.4475870" lon="2.1355590">
        <ele>364.0</ele>
        <time>2018-04-10T11:29:55Z</time>
      </trkpt>
      <trkpt lat="41.4475870" lon="2.1355590">
        <ele>364.2</ele>
        <time>2018-04-10T11:29:57Z</time>
      </trkpt>
      <trkpt lat="41.4475870" lon="2.1355590">
        <ele>364.2</ele>
        <time>2018-04-10T11:29:59Z</time>
      </trkpt>
      <trkpt lat="41.4475870" lon="2.1355590">
        <ele>364.4</ele>
        <time>2018-04-10T11:30:01Z</time>
      </trkpt>
      <trkpt lat="41.4475880" lon="2.1355590">
        <ele>364.4</ele>
        <time>2018-04-10T11:30:03Z</time>
      </trkpt>
      <trkpt lat="41.4475880" lon="2.1355580">
        <ele>364.4</ele>
        <time>2018-04-10T11:30:05Z</time>
      </trkpt>
      <trkpt lat="41.4475870" lon="2.1355580">
        <ele>364.4</ele>
        <time>2018-04-10T11:30:07Z</time>
      </trkpt>
      <trkpt lat="41.4475870" lon="2.1355590">
        <ele>364.4</ele>
        <time>2018-04-10T11:30:09Z</time>
      </trkpt>
      <trkpt lat="41.4475880" lon="2.1355580">
        <ele>364.4</ele>
        <time>2018-04-10T11:30:11Z</time>
      </trkpt>
      <trkpt lat="41.4475960" lon="2.1355460">
        <ele>364.4</ele>
        <time>2018-04-10T11:30:13Z</time>
      </trkpt>
      <trkpt lat="41.4476180" lon="2.1355180">
        <ele>364.4</ele>
        <time>2018-04-10T11:30:15Z</time>
      </trkpt>
      <trkpt lat="41.4476450" lon="2.1354700">
        <ele>364.4</ele>
        <time>2018-04-10T11:30:17Z</time>
      </trkpt>
      <trkpt lat="41.4476780" lon="2.1353940">
        <ele>364.4</ele>
        <time>2018-04-10T11:30:19Z</time>
      </trkpt>
      <trkpt lat="41.4477130" lon="2.1352960">
        <ele>364.4</ele>
        <time>2018-04-10T11:30:21Z</time>
      </trkpt>
      <trkpt lat="41.4477490" lon="2.1351890">
        <ele>364.4</ele>
        <time>2018-04-10T11:30:23Z</time>
      </trkpt>
      <trkpt lat="41.4477910" lon="2.1350780">
        <ele>364.4</ele>
        <time>2018-04-10T11:30:25Z</time>
      </trkpt>
      <trkpt lat="41.4478350" lon="2.1349570">
        <ele>364.4</ele>
        <time>2018-04-10T11:30:27Z</time>
      </trkpt>
      <trkpt lat="41.4478750" lon="2.1348360">
        <ele>364.4</ele>
        <time>2018-04-10T11:30:29Z</time>
      </trkpt>
      <trkpt lat="41.4478870" lon="2.1347740">
        <ele>364.4</ele>
        <time>2018-04-10T11:30:30Z</time>
      </trkpt>
      <trkpt lat="41.4478950" lon="2.1347070">
        <ele>364.6</ele>
        <time>2018-04-10T11:30:31Z</time>
      </trkpt>
      <trkpt lat="41.4478830" lon="2.1345650">
        <ele>364.6</ele>
        <time>2018-04-10T11:30:33Z</time>
      </trkpt>
      <trkpt lat="41.4478150" lon="2.1344390">
        <ele>364.8</ele>
        <time>2018-04-10T11:30:35Z</time>
      </trkpt>
      <trkpt lat="41.4477100" lon="2.1343430">
        <ele>364.8</ele>
        <time>2018-04-10T11:30:37Z</time>
      </trkpt>
      <trkpt lat="41.4476520" lon="2.1342990">
        <ele>364.8</ele>
        <time>2018-04-10T11:30:38Z</time>
      </trkpt>
      <trkpt lat="41.4475920" lon="2.1342560">
        <ele>364.6</ele>
        <time>2018-04-10T11:30:39Z</time>
      </trkpt>
      <trkpt lat="41.4474680" lon="2.1341700">
        <ele>364.6</ele>
        <time>2018-04-10T11:30:41Z</time>
      </trkpt>
      <trkpt lat="41.4473420" lon="2.1340790">
        <ele>364.2</ele>
        <time>2018-04-10T11:30:43Z</time>
      </trkpt>
      <trkpt lat="41.4472200" lon="2.1339790">
        <ele>363.4</ele>
        <time>2018-04-10T11:30:45Z</time>
      </trkpt>
      <trkpt lat="41.4471660" lon="2.1339220">
        <ele>363.0</ele>
        <time>2018-04-10T11:30:46Z</time>
      </trkpt>
      <trkpt lat="41.4471100" lon="2.1338620">
        <ele>362.6</ele>
        <time>2018-04-10T11:30:47Z</time>
      </trkpt>
      <trkpt lat="41.4470010" lon="2.1337390">
        <ele>362.2</ele>
        <time>2018-04-10T11:30:49Z</time>
      </trkpt>
      <trkpt lat="41.4468890" lon="2.1336160">
        <ele>361.8</ele>
        <time>2018-04-10T11:30:51Z</time>
      </trkpt>
      <trkpt lat="41.4467730" lon="2.1334880">
        <ele>361.4</ele>
        <time>2018-04-10T11:30:53Z</time>
      </trkpt>
      <trkpt lat="41.4466680" lon="2.1333490">
        <ele>361.2</ele>
        <time>2018-04-10T11:30:55Z</time>
      </trkpt>
      <trkpt lat="41.4465930" lon="2.1331790">
        <ele>361.0</ele>
        <time>2018-04-10T11:30:57Z</time>
      </trkpt>
      <trkpt lat="41.4466030" lon="2.1329770">
        <ele>360.6</ele>
        <time>2018-04-10T11:30:59Z</time>
      </trkpt>
      <trkpt lat="41.4466940" lon="2.1328090">
        <ele>360.4</ele>
        <time>2018-04-10T11:31:01Z</time>
      </trkpt>
      <trkpt lat="41.4468320" lon="2.1326670">
        <ele>359.8</ele>
        <time>2018-04-10T11:31:03Z</time>
      </trkpt>
      <trkpt lat="41.4469080" lon="2.1325950">
        <ele>359.4</ele>
        <time>2018-04-10T11:31:04Z</time>
      </trkpt>
      <trkpt lat="41.4469840" lon="2.1325200">
        <ele>359.2</ele>
        <time>2018-04-10T11:31:05Z</time>
      </trkpt>
      <trkpt lat="41.4471460" lon="2.1323710">
        <ele>358.4</ele>
        <time>2018-04-10T11:31:07Z</time>
      </trkpt>
      <trkpt lat="41.4472300" lon="2.1322950">
        <ele>358.2</ele>
        <time>2018-04-10T11:31:08Z</time>
      </trkpt>
      <trkpt lat="41.4473120" lon="2.1322120">
        <ele>357.6</ele>
        <time>2018-04-10T11:31:09Z</time>
      </trkpt>
      <trkpt lat="41.4474590" lon="2.1320130">
        <ele>357.0</ele>
        <time>2018-04-10T11:31:11Z</time>
      </trkpt>
      <trkpt lat="41.4475650" lon="2.1317830">
        <ele>356.0</ele>
        <time>2018-04-10T11:31:13Z</time>
      </trkpt>
      <trkpt lat="41.4475990" lon="2.1316590">
        <ele>355.6</ele>
        <time>2018-04-10T11:31:14Z</time>
      </trkpt>
      <trkpt lat="41.4476110" lon="2.1315310">
        <ele>355.0</ele>
        <time>2018-04-10T11:31:15Z</time>
      </trkpt>
      <trkpt lat="41.4476030" lon="2.1314020">
        <ele>354.4</ele>
        <time>2018-04-10T11:31:16Z</time>
      </trkpt>
      <trkpt lat="41.4475690" lon="2.1312750">
        <ele>354.0</ele>
        <time>2018-04-10T11:31:17Z</time>
      </trkpt>
      <trkpt lat="41.4475160" lon="2.1311570">
        <ele>353.4</ele>
        <time>2018-04-10T11:31:18Z</time>
      </trkpt>
      <trkpt lat="41.4474470" lon="2.1310550">
        <ele>352.8</ele>
        <time>2018-04-10T11:31:19Z</time>
      </trkpt>
      <trkpt lat="41.4473670" lon="2.1309650">
        <ele>352.2</ele>
        <time>2018-04-10T11:31:20Z</time>
      </trkpt>
      <trkpt lat="41.4472810" lon="2.1308790">
        <ele>351.8</ele>
        <time>2018-04-10T11:31:21Z</time>
      </trkpt>
      <trkpt lat="41.4471080" lon="2.1307030">
        <ele>351.0</ele>
        <time>2018-04-10T11:31:23Z</time>
      </trkpt>
      <trkpt lat="41.4469440" lon="2.1305220">
        <ele>350.4</ele>
        <time>2018-04-10T11:31:25Z</time>
      </trkpt>
      <trkpt lat="41.4468650" lon="2.1304340">
        <ele>349.8</ele>
        <time>2018-04-10T11:31:26Z</time>
      </trkpt>
      <trkpt lat="41.4467870" lon="2.1303560">
        <ele>349.2</ele>
        <time>2018-04-10T11:31:27Z</time>
      </trkpt>
      <trkpt lat="41.4467050" lon="2.1303000">
        <ele>348.2</ele>
        <time>2018-04-10T11:31:28Z</time>
      </trkpt>
      <trkpt lat="41.4466170" lon="2.1302730">
        <ele>347.4</ele>
        <time>2018-04-10T11:31:29Z</time>
      </trkpt>
      <trkpt lat="41.4465350" lon="2.1302840">
        <ele>346.6</ele>
        <time>2018-04-10T11:31:30Z</time>
      </trkpt>
      <trkpt lat="41.4464620" lon="2.1303280">
        <ele>346.0</ele>
        <time>2018-04-10T11:31:31Z</time>
      </trkpt>
      <trkpt lat="41.4463950" lon="2.1303920">
        <ele>345.4</ele>
        <time>2018-04-10T11:31:32Z</time>
      </trkpt>
      <trkpt lat="41.4463340" lon="2.1304710">
        <ele>344.8</ele>
        <time>2018-04-10T11:31:33Z</time>
      </trkpt>
      <trkpt lat="41.4462700" lon="2.1305520">
        <ele>344.4</ele>
        <time>2018-04-10T11:31:34Z</time>
      </trkpt>
      <trkpt lat="41.4462010" lon="2.1306260">
        <ele>344.0</ele>
        <time>2018-04-10T11:31:35Z</time>
      </trkpt>
      <trkpt lat="41.4460270" lon="2.1306950">
        <ele>342.8</ele>
        <time>2018-04-10T11:31:37Z</time>
      </trkpt>
      <trkpt lat="41.4458610" lon="2.1305980">
        <ele>341.6</ele>
        <time>2018-04-10T11:31:39Z</time>
      </trkpt>
      <trkpt lat="41.4457940" lon="2.1303810">
        <ele>341.0</ele>
        <time>2018-04-10T11:31:41Z</time>
      </trkpt>
      <trkpt lat="41.4457940" lon="2.1301560">
        <ele>340.6</ele>
        <time>2018-04-10T11:31:43Z</time>
      </trkpt>
      <trkpt lat="41.4457920" lon="2.1300400">
        <ele>340.6</ele>
        <time>2018-04-10T11:31:44Z</time>
      </trkpt>
      <trkpt lat="41.4457790" lon="2.1299240">
        <ele>340.6</ele>
        <time>2018-04-10T11:31:45Z</time>
      </trkpt>
      <trkpt lat="41.4456970" lon="2.1297140">
        <ele>340.6</ele>
        <time>2018-04-10T11:31:47Z</time>
      </trkpt>
      <trkpt lat="41.4455590" lon="2.1295300">
        <ele>340.4</ele>
        <time>2018-04-10T11:31:49Z</time>
      </trkpt>
      <trkpt lat="41.4454960" lon="2.1294330">
        <ele>340.4</ele>
        <time>2018-04-10T11:31:50Z</time>
      </trkpt>
      <trkpt lat="41.4454530" lon="2.1293270">
        <ele>340.4</ele>
        <time>2018-04-10T11:31:51Z</time>
      </trkpt>
      <trkpt lat="41.4454420" lon="2.1290700">
        <ele>340.0</ele>
        <time>2018-04-10T11:31:53Z</time>
      </trkpt>
      <trkpt lat="41.4455750" lon="2.1288800">
        <ele>339.4</ele>
        <time>2018-04-10T11:31:55Z</time>
      </trkpt>
      <trkpt lat="41.4457800" lon="2.1288000">
        <ele>338.2</ele>
        <time>2018-04-10T11:31:57Z</time>
      </trkpt>
      <trkpt lat="41.4460060" lon="2.1287420">
        <ele>337.0</ele>
        <time>2018-04-10T11:31:59Z</time>
      </trkpt>
      <trkpt lat="41.4462460" lon="2.1286830">
        <ele>336.0</ele>
        <time>2018-04-10T11:32:01Z</time>
      </trkpt>
      <trkpt lat="41.4464920" lon="2.1286140">
        <ele>334.6</ele>
        <time>2018-04-10T11:32:03Z</time>
      </trkpt>
      <trkpt lat="41.4466160" lon="2.1285630">
        <ele>333.8</ele>
        <time>2018-04-10T11:32:04Z</time>
      </trkpt>
      <trkpt lat="41.4467370" lon="2.1284890">
        <ele>333.0</ele>
        <time>2018-04-10T11:32:05Z</time>
      </trkpt>
      <trkpt lat="41.4469190" lon="2.1282800">
        <ele>330.6</ele>
        <time>2018-04-10T11:32:07Z</time>
      </trkpt>
      <trkpt lat="41.4469620" lon="2.1280240">
        <ele>329.0</ele>
        <time>2018-04-10T11:32:09Z</time>
      </trkpt>
      <trkpt lat="41.4468480" lon="2.1277940">
        <ele>327.2</ele>
        <time>2018-04-10T11:32:11Z</time>
      </trkpt>
      <trkpt lat="41.4467740" lon="2.1277040">
        <ele>326.0</ele>
        <time>2018-04-10T11:32:12Z</time>
      </trkpt>
      <trkpt lat="41.4466880" lon="2.1276270">
        <ele>325.0</ele>
        <time>2018-04-10T11:32:13Z</time>
      </trkpt>
      <trkpt lat="41.4465030" lon="2.1274790">
        <ele>323.4</ele>
        <time>2018-04-10T11:32:15Z</time>
      </trkpt>
      <trkpt lat="41.4463910" lon="2.1272730">
        <ele>322.6</ele>
        <time>2018-04-10T11:32:17Z</time>
      </trkpt>
      <trkpt lat="41.4464170" lon="2.1270390">
        <ele>322.4</ele>
        <time>2018-04-10T11:32:19Z</time>
      </trkpt>
      <trkpt lat="41.4465570" lon="2.1268910">
        <ele>322.2</ele>
        <time>2018-04-10T11:32:21Z</time>
      </trkpt>
      <trkpt lat="41.4467340" lon="2.1267560">
        <ele>322.0</ele>
        <time>2018-04-10T11:32:23Z</time>
      </trkpt>
      <trkpt lat="41.4469200" lon="2.1266040">
        <ele>321.6</ele>
        <time>2018-04-10T11:32:25Z</time>
      </trkpt>
      <trkpt lat="41.4471150" lon="2.1264230">
        <ele>321.0</ele>
        <time>2018-04-10T11:32:27Z</time>
      </trkpt>
      <trkpt lat="41.4473010" lon="2.1262320">
        <ele>320.0</ele>
        <time>2018-04-10T11:32:29Z</time>
      </trkpt>
      <trkpt lat="41.4474770" lon="2.1260050">
        <ele>318.4</ele>
        <time>2018-04-10T11:32:31Z</time>
      </trkpt>
      <trkpt lat="41.4476360" lon="2.1257590">
        <ele>317.0</ele>
        <time>2018-04-10T11:32:33Z</time>
      </trkpt>
      <trkpt lat="41.4477880" lon="2.1255210">
        <ele>315.6</ele>
        <time>2018-04-10T11:32:35Z</time>
      </trkpt>
      <trkpt lat="41.4478760" lon="2.1254350">
        <ele>314.4</ele>
        <time>2018-04-10T11:32:36Z</time>
      </trkpt>
      <trkpt lat="41.4479850" lon="2.1253870">
        <ele>313.6</ele>
        <time>2018-04-10T11:32:37Z</time>
      </trkpt>
      <trkpt lat="41.4481140" lon="2.1253790">
        <ele>312.8</ele>
        <time>2018-04-10T11:32:38Z</time>
      </trkpt>
      <trkpt lat="41.4482450" lon="2.1253960">
        <ele>312.2</ele>
        <time>2018-04-10T11:32:39Z</time>
      </trkpt>
      <trkpt lat="41.4483710" lon="2.1254150">
        <ele>311.2</ele>
        <time>2018-04-10T11:32:40Z</time>
      </trkpt>
      <trkpt lat="41.4484890" lon="2.1254150">
        <ele>310.4</ele>
        <time>2018-04-10T11:32:41Z</time>
      </trkpt>
      <trkpt lat="41.4485990" lon="2.1253760">
        <ele>309.6</ele>
        <time>2018-04-10T11:32:42Z</time>
      </trkpt>
      <trkpt lat="41.4486960" lon="2.1252970">
        <ele>308.8</ele>
        <time>2018-04-10T11:32:43Z</time>
      </trkpt>
      <trkpt lat="41.4487770" lon="2.1251860">
        <ele>308.0</ele>
        <time>2018-04-10T11:32:44Z</time>
      </trkpt>
      <trkpt lat="41.4488380" lon="2.1250610">
        <ele>306.8</ele>
        <time>2018-04-10T11:32:45Z</time>
      </trkpt>
      <trkpt lat="41.4488750" lon="2.1249250">
        <ele>305.8</ele>
        <time>2018-04-10T11:32:46Z</time>
      </trkpt>
      <trkpt lat="41.4488880" lon="2.1247720">
        <ele>304.8</ele>
        <time>2018-04-10T11:32:47Z</time>
      </trkpt>
      <trkpt lat="41.4488760" lon="2.1246200">
        <ele>304.0</ele>
        <time>2018-04-10T11:32:48Z</time>
      </trkpt>
      <trkpt lat="41.4488400" lon="2.1244820">
        <ele>303.4</ele>
        <time>2018-04-10T11:32:49Z</time>
      </trkpt>
      <trkpt lat="41.4487840" lon="2.1243530">
        <ele>302.6</ele>
        <time>2018-04-10T11:32:50Z</time>
      </trkpt>
      <trkpt lat="41.4487320" lon="2.1242180">
        <ele>301.8</ele>
        <time>2018-04-10T11:32:51Z</time>
      </trkpt>
      <trkpt lat="41.4486970" lon="2.1240750">
        <ele>300.8</ele>
        <time>2018-04-10T11:32:52Z</time>
      </trkpt>
      <trkpt lat="41.4486930" lon="2.1239230">
        <ele>299.8</ele>
        <time>2018-04-10T11:32:53Z</time>
      </trkpt>
      <trkpt lat="41.4487910" lon="2.1236320">
        <ele>298.2</ele>
        <time>2018-04-10T11:32:55Z</time>
      </trkpt>
      <trkpt lat="41.4489380" lon="2.1233960">
        <ele>297.0</ele>
        <time>2018-04-10T11:32:57Z</time>
      </trkpt>
      <trkpt lat="41.4491430" lon="2.1232680">
        <ele>296.2</ele>
        <time>2018-04-10T11:32:59Z</time>
      </trkpt>
      <trkpt lat="41.4492660" lon="2.1232410">
        <ele>295.6</ele>
        <time>2018-04-10T11:33:00Z</time>
      </trkpt>
      <trkpt lat="41.4493930" lon="2.1232300">
        <ele>294.8</ele>
        <time>2018-04-10T11:33:01Z</time>
      </trkpt>
      <trkpt lat="41.4495190" lon="2.1232330">
        <ele>294.2</ele>
        <time>2018-04-10T11:33:02Z</time>
      </trkpt>
      <trkpt lat="41.4496450" lon="2.1232470">
        <ele>293.6</ele>
        <time>2018-04-10T11:33:03Z</time>
      </trkpt>
      <trkpt lat="41.4497750" lon="2.1232620">
        <ele>293.0</ele>
        <time>2018-04-10T11:33:04Z</time>
      </trkpt>
      <trkpt lat="41.4498930" lon="2.1233010">
        <ele>291.8</ele>
        <time>2018-04-10T11:33:05Z</time>
      </trkpt>
      <trkpt lat="41.4501100" lon="2.1234080">
        <ele>290.2</ele>
        <time>2018-04-10T11:33:07Z</time>
      </trkpt>
      <trkpt lat="41.4503080" lon="2.1235120">
        <ele>288.4</ele>
        <time>2018-04-10T11:33:09Z</time>
      </trkpt>
      <trkpt lat="41.4505070" lon="2.1234900">
        <ele>286.8</ele>
        <time>2018-04-10T11:33:11Z</time>
      </trkpt>
      <trkpt lat="41.4507150" lon="2.1233500">
        <ele>284.8</ele>
        <time>2018-04-10T11:33:13Z</time>
      </trkpt>
      <trkpt lat="41.4509250" lon="2.1232140">
        <ele>283.4</ele>
        <time>2018-04-10T11:33:15Z</time>
      </trkpt>
      <trkpt lat="41.4511500" lon="2.1231690">
        <ele>281.8</ele>
        <time>2018-04-10T11:33:17Z</time>
      </trkpt>
      <trkpt lat="41.4513880" lon="2.1232070">
        <ele>280.4</ele>
        <time>2018-04-10T11:33:19Z</time>
      </trkpt>
      <trkpt lat="41.4516250" lon="2.1232930">
        <ele>278.8</ele>
        <time>2018-04-10T11:33:21Z</time>
      </trkpt>
      <trkpt lat="41.4518640" lon="2.1233460">
        <ele>277.6</ele>
        <time>2018-04-10T11:33:23Z</time>
      </trkpt>
      <trkpt lat="41.4521100" lon="2.1232530">
        <ele>275.8</ele>
        <time>2018-04-10T11:33:25Z</time>
      </trkpt>
      <trkpt lat="41.4523220" lon="2.1230500">
        <ele>274.2</ele>
        <time>2018-04-10T11:33:27Z</time>
      </trkpt>
      <trkpt lat="41.4524250" lon="2.1229500">
        <ele>273.4</ele>
        <time>2018-04-10T11:33:28Z</time>
      </trkpt>
      <trkpt lat="41.4525350" lon="2.1228770">
        <ele>272.6</ele>
        <time>2018-04-10T11:33:29Z</time>
      </trkpt>
      <trkpt lat="41.4527620" lon="2.1227570">
        <ele>270.8</ele>
        <time>2018-04-10T11:33:31Z</time>
      </trkpt>
      <trkpt lat="41.4528560" lon="2.1226760">
        <ele>270.0</ele>
        <time>2018-04-10T11:33:32Z</time>
      </trkpt>
      <trkpt lat="41.4529200" lon="2.1225830">
        <ele>269.2</ele>
        <time>2018-04-10T11:33:33Z</time>
      </trkpt>
      <trkpt lat="41.4529490" lon="2.1224770">
        <ele>267.8</ele>
        <time>2018-04-10T11:33:34Z</time>
      </trkpt>
      <trkpt lat="41.4529390" lon="2.1223520">
        <ele>267.0</ele>
        <time>2018-04-10T11:33:35Z</time>
      </trkpt>
      <trkpt lat="41.4528900" lon="2.1222370">
        <ele>266.2</ele>
        <time>2018-04-10T11:33:36Z</time>
      </trkpt>
      <trkpt lat="41.4528140" lon="2.1221450">
        <ele>265.2</ele>
        <time>2018-04-10T11:33:37Z</time>
      </trkpt>
      <trkpt lat="41.4527210" lon="2.1220730">
        <ele>264.2</ele>
        <time>2018-04-10T11:33:38Z</time>
      </trkpt>
      <trkpt lat="41.4526210" lon="2.1220170">
        <ele>263.2</ele>
        <time>2018-04-10T11:33:39Z</time>
      </trkpt>
      <trkpt lat="41.4525190" lon="2.1219700">
        <ele>262.4</ele>
        <time>2018-04-10T11:33:40Z</time>
      </trkpt>
      <trkpt lat="41.4524160" lon="2.1219220">
        <ele>262.0</ele>
        <time>2018-04-10T11:33:41Z</time>
      </trkpt>
      <trkpt lat="41.4522150" lon="2.1218160">
        <ele>260.6</ele>
        <time>2018-04-10T11:33:43Z</time>
      </trkpt>
      <trkpt lat="41.4520150" lon="2.1217120">
        <ele>259.0</ele>
        <time>2018-04-10T11:33:45Z</time>
      </trkpt>
      <trkpt lat="41.4518140" lon="2.1216130">
        <ele>257.8</ele>
        <time>2018-04-10T11:33:47Z</time>
      </trkpt>
      <trkpt lat="41.4516130" lon="2.1214960">
        <ele>256.6</ele>
        <time>2018-04-10T11:33:49Z</time>
      </trkpt>
      <trkpt lat="41.4514280" lon="2.1213360">
        <ele>256.0</ele>
        <time>2018-04-10T11:33:51Z</time>
      </trkpt>
      <trkpt lat="41.4513390" lon="2.1212530">
        <ele>255.6</ele>
        <time>2018-04-10T11:33:52Z</time>
      </trkpt>
      <trkpt lat="41.4512570" lon="2.1211680">
        <ele>255.4</ele>
        <time>2018-04-10T11:33:53Z</time>
      </trkpt>
      <trkpt lat="41.4511460" lon="2.1209550">
        <ele>254.6</ele>
        <time>2018-04-10T11:33:55Z</time>
      </trkpt>
      <trkpt lat="41.4511380" lon="2.1208320">
        <ele>254.2</ele>
        <time>2018-04-10T11:33:56Z</time>
      </trkpt>
      <trkpt lat="41.4511620" lon="2.1207260">
        <ele>253.8</ele>
        <time>2018-04-10T11:33:57Z</time>
      </trkpt>
      <trkpt lat="41.4512720" lon="2.1205890">
        <ele>253.2</ele>
        <time>2018-04-10T11:33:59Z</time>
      </trkpt>
      <trkpt lat="41.4513440" lon="2.1205770">
        <ele>253.0</ele>
        <time>2018-04-10T11:34:00Z</time>
      </trkpt>
      <trkpt lat="41.4514340" lon="2.1205720">
        <ele>253.0</ele>
        <time>2018-04-10T11:34:01Z</time>
      </trkpt>
      <trkpt lat="41.4516260" lon="2.1205530">
        <ele>252.8</ele>
        <time>2018-04-10T11:34:03Z</time>
      </trkpt>
      <trkpt lat="41.4518280" lon="2.1205220">
        <ele>252.6</ele>
        <time>2018-04-10T11:34:05Z</time>
      </trkpt>
      <trkpt lat="41.4520400" lon="2.1204780">
        <ele>252.6</ele>
        <time>2018-04-10T11:34:07Z</time>
      </trkpt>
      <trkpt lat="41.4522480" lon="2.1204340">
        <ele>252.4</ele>
        <time>2018-04-10T11:34:09Z</time>
      </trkpt>
      <trkpt lat="41.4523550" lon="2.1204110">
        <ele>252.0</ele>
        <time>2018-04-10T11:34:10Z</time>
      </trkpt>
      <trkpt lat="41.4524620" lon="2.1203860">
        <ele>251.6</ele>
        <time>2018-04-10T11:34:11Z</time>
      </trkpt>
      <trkpt lat="41.4526810" lon="2.1203420">
        <ele>251.2</ele>
        <time>2018-04-10T11:34:13Z</time>
      </trkpt>
      <trkpt lat="41.4527930" lon="2.1203270">
        <ele>250.6</ele>
        <time>2018-04-10T11:34:14Z</time>
      </trkpt>
      <trkpt lat="41.4529050" lon="2.1203210">
        <ele>250.4</ele>
        <time>2018-04-10T11:34:15Z</time>
      </trkpt>
      <trkpt lat="41.4531340" lon="2.1203290">
        <ele>249.6</ele>
        <time>2018-04-10T11:34:17Z</time>
      </trkpt>
      <trkpt lat="41.4533590" lon="2.1203700">
        <ele>248.6</ele>
        <time>2018-04-10T11:34:19Z</time>
      </trkpt>
      <trkpt lat="41.4534740" lon="2.1204050">
        <ele>248.0</ele>
        <time>2018-04-10T11:34:20Z</time>
      </trkpt>
      <trkpt lat="41.4535840" lon="2.1204610">
        <ele>247.4</ele>
        <time>2018-04-10T11:34:21Z</time>
      </trkpt>
      <trkpt lat="41.4538080" lon="2.1205990">
        <ele>246.4</ele>
        <time>2018-04-10T11:34:23Z</time>
      </trkpt>
      <trkpt lat="41.4540440" lon="2.1207190">
        <ele>245.2</ele>
        <time>2018-04-10T11:34:25Z</time>
      </trkpt>
      <trkpt lat="41.4542930" lon="2.1207720">
        <ele>243.8</ele>
        <time>2018-04-10T11:34:27Z</time>
      </trkpt>
      <trkpt lat="41.4545450" lon="2.1208000">
        <ele>242.8</ele>
        <time>2018-04-10T11:34:29Z</time>
      </trkpt>
      <trkpt lat="41.4547760" lon="2.1209200">
        <ele>241.0</ele>
        <time>2018-04-10T11:34:31Z</time>
      </trkpt>
      <trkpt lat="41.4548800" lon="2.1210060">
        <ele>239.0</ele>
        <time>2018-04-10T11:34:32Z</time>
      </trkpt>
      <trkpt lat="41.4549850" lon="2.1210940">
        <ele>238.2</ele>
        <time>2018-04-10T11:34:33Z</time>
      </trkpt>
      <trkpt lat="41.4550940" lon="2.1211650">
        <ele>237.2</ele>
        <time>2018-04-10T11:34:34Z</time>
      </trkpt>
      <trkpt lat="41.4552100" lon="2.1212150">
        <ele>236.4</ele>
        <time>2018-04-10T11:34:35Z</time>
      </trkpt>
      <trkpt lat="41.4553240" lon="2.1212580">
        <ele>235.4</ele>
        <time>2018-04-10T11:34:36Z</time>
      </trkpt>
      <trkpt lat="41.4554480" lon="2.1212770">
        <ele>234.6</ele>
        <time>2018-04-10T11:34:37Z</time>
      </trkpt>
      <trkpt lat="41.4555700" lon="2.1212940">
        <ele>234.0</ele>
        <time>2018-04-10T11:34:38Z</time>
      </trkpt>
      <trkpt lat="41.4556930" lon="2.1213050">
        <ele>233.2</ele>
        <time>2018-04-10T11:34:39Z</time>
      </trkpt>
      <trkpt lat="41.4558150" lon="2.1213150">
        <ele>232.6</ele>
        <time>2018-04-10T11:34:40Z</time>
      </trkpt>
      <trkpt lat="41.4559350" lon="2.1213240">
        <ele>232.0</ele>
        <time>2018-04-10T11:34:41Z</time>
      </trkpt>
      <trkpt lat="41.4561730" lon="2.1213480">
        <ele>231.2</ele>
        <time>2018-04-10T11:34:43Z</time>
      </trkpt>
      <trkpt lat="41.4562850" lon="2.1213750">
        <ele>230.6</ele>
        <time>2018-04-10T11:34:44Z</time>
      </trkpt>
      <trkpt lat="41.4563930" lon="2.1214200">
        <ele>230.0</ele>
        <time>2018-04-10T11:34:45Z</time>
      </trkpt>
      <trkpt lat="41.4566030" lon="2.1215580">
        <ele>228.6</ele>
        <time>2018-04-10T11:34:47Z</time>
      </trkpt>
      <trkpt lat="41.4566990" lon="2.1216460">
        <ele>228.0</ele>
        <time>2018-04-10T11:34:48Z</time>
      </trkpt>
      <trkpt lat="41.4567970" lon="2.1217300">
        <ele>227.4</ele>
        <time>2018-04-10T11:34:49Z</time>
      </trkpt>
      <trkpt lat="41.4569030" lon="2.1217900">
        <ele>226.8</ele>
        <time>2018-04-10T11:34:50Z</time>
      </trkpt>
      <trkpt lat="41.4570170" lon="2.1218230">
        <ele>226.2</ele>
        <time>2018-04-10T11:34:51Z</time>
      </trkpt>
      <trkpt lat="41.4572500" lon="2.1218210">
        <ele>225.6</ele>
        <time>2018-04-10T11:34:53Z</time>
      </trkpt>
      <trkpt lat="41.4573640" lon="2.1218110">
        <ele>225.2</ele>
        <time>2018-04-10T11:34:54Z</time>
      </trkpt>
      <trkpt lat="41.4574800" lon="2.1218040">
        <ele>224.4</ele>
        <time>2018-04-10T11:34:55Z</time>
      </trkpt>
      <trkpt lat="41.4575930" lon="2.1218020">
        <ele>223.8</ele>
        <time>2018-04-10T11:34:56Z</time>
      </trkpt>
      <trkpt lat="41.4577060" lon="2.1217990">
        <ele>223.2</ele>
        <time>2018-04-10T11:34:57Z</time>
      </trkpt>
      <trkpt lat="41.4578180" lon="2.1217920">
        <ele>222.6</ele>
        <time>2018-04-10T11:34:58Z</time>
      </trkpt>
      <trkpt lat="41.4579300" lon="2.1217770">
        <ele>222.0</ele>
        <time>2018-04-10T11:34:59Z</time>
      </trkpt>
      <trkpt lat="41.4580370" lon="2.1217660">
        <ele>221.6</ele>
        <time>2018-04-10T11:35:00Z</time>
      </trkpt>
      <trkpt lat="41.4581390" lon="2.1217810">
        <ele>220.6</ele>
        <time>2018-04-10T11:35:01Z</time>
      </trkpt>
      <trkpt lat="41.4582320" lon="2.1218370">
        <ele>220.0</ele>
        <time>2018-04-10T11:35:02Z</time>
      </trkpt>
      <trkpt lat="41.4583060" lon="2.1219320">
        <ele>219.6</ele>
        <time>2018-04-10T11:35:03Z</time>
      </trkpt>
      <trkpt lat="41.4584160" lon="2.1221660">
        <ele>219.0</ele>
        <time>2018-04-10T11:35:05Z</time>
      </trkpt>
      <trkpt lat="41.4584590" lon="2.1222910">
        <ele>218.6</ele>
        <time>2018-04-10T11:35:06Z</time>
      </trkpt>
      <trkpt lat="41.4585090" lon="2.1224100">
        <ele>218.4</ele>
        <time>2018-04-10T11:35:07Z</time>
      </trkpt>
      <trkpt lat="41.4586500" lon="2.1226050">
        <ele>217.8</ele>
        <time>2018-04-10T11:35:09Z</time>
      </trkpt>
      <trkpt lat="41.4588370" lon="2.1227180">
        <ele>216.8</ele>
        <time>2018-04-10T11:35:11Z</time>
      </trkpt>
      <trkpt lat="41.4590500" lon="2.1227230">
        <ele>216.0</ele>
        <time>2018-04-10T11:35:13Z</time>
      </trkpt>
      <trkpt lat="41.4591510" lon="2.1227000">
        <ele>215.6</ele>
        <time>2018-04-10T11:35:14Z</time>
      </trkpt>
      <trkpt lat="41.4592490" lon="2.1226610">
        <ele>215.0</ele>
        <time>2018-04-10T11:35:15Z</time>
      </trkpt>
      <trkpt lat="41.4593450" lon="2.1226150">
        <ele>214.6</ele>
        <time>2018-04-10T11:35:16Z</time>
      </trkpt>
      <trkpt lat="41.4594430" lon="2.1225760">
        <ele>214.4</ele>
        <time>2018-04-10T11:35:17Z</time>
      </trkpt>
      <trkpt lat="41.4596400" lon="2.1225530">
        <ele>214.0</ele>
        <time>2018-04-10T11:35:19Z</time>
      </trkpt>
      <trkpt lat="41.4598380" lon="2.1225800">
        <ele>213.6</ele>
        <time>2018-04-10T11:35:21Z</time>
      </trkpt>
      <trkpt lat="41.4599370" lon="2.1225860">
        <ele>213.4</ele>
        <time>2018-04-10T11:35:22Z</time>
      </trkpt>
      <trkpt lat="41.4600340" lon="2.1225830">
        <ele>213.0</ele>
        <time>2018-04-10T11:35:23Z</time>
      </trkpt>
      <trkpt lat="41.4602250" lon="2.1225840">
        <ele>212.4</ele>
        <time>2018-04-10T11:35:25Z</time>
      </trkpt>
      <trkpt lat="41.4603170" lon="2.1226210">
        <ele>212.2</ele>
        <time>2018-04-10T11:35:26Z</time>
      </trkpt>
      <trkpt lat="41.4604010" lon="2.1226860">
        <ele>212.2</ele>
        <time>2018-04-10T11:35:27Z</time>
      </trkpt>
      <trkpt lat="41.4605310" lon="2.1228900">
        <ele>211.8</ele>
        <time>2018-04-10T11:35:29Z</time>
      </trkpt>
      <trkpt lat="41.4605880" lon="2.1231780">
        <ele>211.4</ele>
        <time>2018-04-10T11:35:31Z</time>
      </trkpt>
      <trkpt lat="41.4606330" lon="2.1234760">
        <ele>211.2</ele>
        <time>2018-04-10T11:35:33Z</time>
      </trkpt>
      <trkpt lat="41.4607780" lon="2.1236850">
        <ele>210.6</ele>
        <time>2018-04-10T11:35:35Z</time>
      </trkpt>
      <trkpt lat="41.4608710" lon="2.1237410">
        <ele>210.2</ele>
        <time>2018-04-10T11:35:36Z</time>
      </trkpt>
      <trkpt lat="41.4609790" lon="2.1237410">
        <ele>209.4</ele>
        <time>2018-04-10T11:35:37Z</time>
      </trkpt>
      <trkpt lat="41.4610920" lon="2.1236980">
        <ele>208.6</ele>
        <time>2018-04-10T11:35:38Z</time>
      </trkpt>
      <trkpt lat="41.4612090" lon="2.1236380">
        <ele>207.8</ele>
        <time>2018-04-10T11:35:39Z</time>
      </trkpt>
      <trkpt lat="41.4613220" lon="2.1235840">
        <ele>207.0</ele>
        <time>2018-04-10T11:35:40Z</time>
      </trkpt>
      <trkpt lat="41.4614370" lon="2.1235230">
        <ele>206.2</ele>
        <time>2018-04-10T11:35:41Z</time>
      </trkpt>
      <trkpt lat="41.4615530" lon="2.1234630">
        <ele>205.6</ele>
        <time>2018-04-10T11:35:42Z</time>
      </trkpt>
      <trkpt lat="41.4616720" lon="2.1234250">
        <ele>205.0</ele>
        <time>2018-04-10T11:35:43Z</time>
      </trkpt>
      <trkpt lat="41.4617930" lon="2.1234380">
        <ele>204.2</ele>
        <time>2018-04-10T11:35:44Z</time>
      </trkpt>
      <trkpt lat="41.4619080" lon="2.1234970">
        <ele>203.4</ele>
        <time>2018-04-10T11:35:45Z</time>
      </trkpt>
      <trkpt lat="41.4620110" lon="2.1235880">
        <ele>202.6</ele>
        <time>2018-04-10T11:35:46Z</time>
      </trkpt>
      <trkpt lat="41.4621040" lon="2.1236950">
        <ele>201.8</ele>
        <time>2018-04-10T11:35:47Z</time>
      </trkpt>
      <trkpt lat="41.4621980" lon="2.1237940">
        <ele>201.0</ele>
        <time>2018-04-10T11:35:48Z</time>
      </trkpt>
      <trkpt lat="41.4623010" lon="2.1238790">
        <ele>200.2</ele>
        <time>2018-04-10T11:35:49Z</time>
      </trkpt>
      <trkpt lat="41.4624150" lon="2.1239430">
        <ele>199.4</ele>
        <time>2018-04-10T11:35:50Z</time>
      </trkpt>
      <trkpt lat="41.4625300" lon="2.1239980">
        <ele>198.8</ele>
        <time>2018-04-10T11:35:51Z</time>
      </trkpt>
      <trkpt lat="41.4626450" lon="2.1240540">
        <ele>198.2</ele>
        <time>2018-04-10T11:35:52Z</time>
      </trkpt>
      <trkpt lat="41.4627650" lon="2.1241150">
        <ele>197.4</ele>
        <time>2018-04-10T11:35:53Z</time>
      </trkpt>
      <trkpt lat="41.4628800" lon="2.1241920">
        <ele>196.4</ele>
        <time>2018-04-10T11:35:54Z</time>
      </trkpt>
      <trkpt lat="41.4629830" lon="2.1242930">
        <ele>195.6</ele>
        <time>2018-04-10T11:35:55Z</time>
      </trkpt>
      <trkpt lat="41.4630760" lon="2.1244140">
        <ele>194.6</ele>
        <time>2018-04-10T11:35:56Z</time>
      </trkpt>
      <trkpt lat="41.4631650" lon="2.1245400">
        <ele>194.0</ele>
        <time>2018-04-10T11:35:57Z</time>
      </trkpt>
      <trkpt lat="41.4632570" lon="2.1246630">
        <ele>193.4</ele>
        <time>2018-04-10T11:35:58Z</time>
      </trkpt>
      <trkpt lat="41.4633560" lon="2.1247750">
        <ele>192.8</ele>
        <time>2018-04-10T11:35:59Z</time>
      </trkpt>
      <trkpt lat="41.4634670" lon="2.1248680">
        <ele>191.6</ele>
        <time>2018-04-10T11:36:00Z</time>
      </trkpt>
      <trkpt lat="41.4635910" lon="2.1249320">
        <ele>191.0</ele>
        <time>2018-04-10T11:36:01Z</time>
      </trkpt>
      <trkpt lat="41.4637240" lon="2.1249710">
        <ele>190.2</ele>
        <time>2018-04-10T11:36:02Z</time>
      </trkpt>
      <trkpt lat="41.4638550" lon="2.1250060">
        <ele>189.4</ele>
        <time>2018-04-10T11:36:03Z</time>
      </trkpt>
      <trkpt lat="41.4639910" lon="2.1250460">
        <ele>188.6</ele>
        <time>2018-04-10T11:36:04Z</time>
      </trkpt>
      <trkpt lat="41.4641180" lon="2.1251120">
        <ele>187.8</ele>
        <time>2018-04-10T11:36:05Z</time>
      </trkpt>
      <trkpt lat="41.4642390" lon="2.1251960">
        <ele>187.2</ele>
        <time>2018-04-10T11:36:06Z</time>
      </trkpt>
      <trkpt lat="41.4643590" lon="2.1252890">
        <ele>186.4</ele>
        <time>2018-04-10T11:36:07Z</time>
      </trkpt>
      <trkpt lat="41.4644750" lon="2.1253860">
        <ele>185.6</ele>
        <time>2018-04-10T11:36:08Z</time>
      </trkpt>
      <trkpt lat="41.4645930" lon="2.1254650">
        <ele>185.0</ele>
        <time>2018-04-10T11:36:09Z</time>
      </trkpt>
      <trkpt lat="41.4647180" lon="2.1255140">
        <ele>184.0</ele>
        <time>2018-04-10T11:36:10Z</time>
      </trkpt>
      <trkpt lat="41.4648420" lon="2.1255260">
        <ele>183.2</ele>
        <time>2018-04-10T11:36:11Z</time>
      </trkpt>
      <trkpt lat="41.4649700" lon="2.1254940">
        <ele>182.2</ele>
        <time>2018-04-10T11:36:12Z</time>
      </trkpt>
      <trkpt lat="41.4650930" lon="2.1254390">
        <ele>181.0</ele>
        <time>2018-04-10T11:36:13Z</time>
      </trkpt>
      <trkpt lat="41.4652120" lon="2.1253750">
        <ele>180.2</ele>
        <time>2018-04-10T11:36:14Z</time>
      </trkpt>
      <trkpt lat="41.4653210" lon="2.1253030">
        <ele>179.2</ele>
        <time>2018-04-10T11:36:15Z</time>
      </trkpt>
      <trkpt lat="41.4654830" lon="2.1250900">
        <ele>177.8</ele>
        <time>2018-04-10T11:36:17Z</time>
      </trkpt>
      <trkpt lat="41.4655220" lon="2.1248130">
        <ele>176.2</ele>
        <time>2018-04-10T11:36:19Z</time>
      </trkpt>
      <trkpt lat="41.4654740" lon="2.1245140">
        <ele>174.8</ele>
        <time>2018-04-10T11:36:21Z</time>
      </trkpt>
      <trkpt lat="41.4653490" lon="2.1242380">
        <ele>172.8</ele>
        <time>2018-04-10T11:36:23Z</time>
      </trkpt>
      <trkpt lat="41.4651580" lon="2.1240440">
        <ele>171.2</ele>
        <time>2018-04-10T11:36:25Z</time>
      </trkpt>
      <trkpt lat="41.4650490" lon="2.1239710">
        <ele>170.4</ele>
        <time>2018-04-10T11:36:26Z</time>
      </trkpt>
      <trkpt lat="41.4649380" lon="2.1239020">
        <ele>169.6</ele>
        <time>2018-04-10T11:36:27Z</time>
      </trkpt>
      <trkpt lat="41.4647200" lon="2.1237750">
        <ele>167.8</ele>
        <time>2018-04-10T11:36:29Z</time>
      </trkpt>
      <trkpt lat="41.4646230" lon="2.1236950">
        <ele>166.2</ele>
        <time>2018-04-10T11:36:30Z</time>
      </trkpt>
      <trkpt lat="41.4645450" lon="2.1235940">
        <ele>165.4</ele>
        <time>2018-04-10T11:36:31Z</time>
      </trkpt>
      <trkpt lat="41.4645020" lon="2.1234660">
        <ele>164.6</ele>
        <time>2018-04-10T11:36:32Z</time>
      </trkpt>
      <trkpt lat="41.4644950" lon="2.1233240">
        <ele>163.8</ele>
        <time>2018-04-10T11:36:33Z</time>
      </trkpt>
      <trkpt lat="41.4645240" lon="2.1231840">
        <ele>162.8</ele>
        <time>2018-04-10T11:36:34Z</time>
      </trkpt>
      <trkpt lat="41.4645780" lon="2.1230670">
        <ele>162.0</ele>
        <time>2018-04-10T11:36:35Z</time>
      </trkpt>
      <trkpt lat="41.4646540" lon="2.1229930">
        <ele>161.4</ele>
        <time>2018-04-10T11:36:36Z</time>
      </trkpt>
      <trkpt lat="41.4647410" lon="2.1229690">
        <ele>160.6</ele>
        <time>2018-04-10T11:36:37Z</time>
      </trkpt>
      <trkpt lat="41.4648340" lon="2.1229730">
        <ele>160.2</ele>
        <time>2018-04-10T11:36:38Z</time>
      </trkpt>
      <trkpt lat="41.4649280" lon="2.1229940">
        <ele>159.6</ele>
        <time>2018-04-10T11:36:39Z</time>
      </trkpt>
      <trkpt lat="41.4650220" lon="2.1230230">
        <ele>159.0</ele>
        <time>2018-04-10T11:36:40Z</time>
      </trkpt>
      <trkpt lat="41.4651150" lon="2.1230480">
        <ele>158.4</ele>
        <time>2018-04-10T11:36:41Z</time>
      </trkpt>
      <trkpt lat="41.4652940" lon="2.1230980">
        <ele>158.0</ele>
        <time>2018-04-10T11:36:43Z</time>
      </trkpt>
      <trkpt lat="41.4653840" lon="2.1231270">
        <ele>158.0</ele>
        <time>2018-04-10T11:36:44Z</time>
      </trkpt>
      <trkpt lat="41.4654720" lon="2.1231530">
        <ele>157.8</ele>
        <time>2018-04-10T11:36:45Z</time>
      </trkpt>
      <trkpt lat="41.4656470" lon="2.1232050">
        <ele>157.8</ele>
        <time>2018-04-10T11:36:47Z</time>
      </trkpt>
      <trkpt lat="41.4658130" lon="2.1232630">
        <ele>157.6</ele>
        <time>2018-04-10T11:36:49Z</time>
      </trkpt>
      <trkpt lat="41.4659590" lon="2.1233240">
        <ele>157.6</ele>
        <time>2018-04-10T11:36:51Z</time>
      </trkpt>
      <trkpt lat="41.4660360" lon="2.1233430">
        <ele>157.8</ele>
        <time>2018-04-10T11:36:52Z</time>
      </trkpt>
      <trkpt lat="41.4661150" lon="2.1233530">
        <ele>158.0</ele>
        <time>2018-04-10T11:36:53Z</time>
      </trkpt>
      <trkpt lat="41.4662740" lon="2.1233490">
        <ele>158.4</ele>
        <time>2018-04-10T11:36:55Z</time>
      </trkpt>
      <trkpt lat="41.4664310" lon="2.1232890">
        <ele>158.8</ele>
        <time>2018-04-10T11:36:57Z</time>
      </trkpt>
      <trkpt lat="41.4665080" lon="2.1232430">
        <ele>159.0</ele>
        <time>2018-04-10T11:36:58Z</time>
      </trkpt>
      <trkpt lat="41.4665860" lon="2.1231940">
        <ele>159.2</ele>
        <time>2018-04-10T11:36:59Z</time>
      </trkpt>
      <trkpt lat="41.4667490" lon="2.1231100">
        <ele>159.2</ele>
        <time>2018-04-10T11:37:01Z</time>
      </trkpt>
      <trkpt lat="41.4669070" lon="2.1231270">
        <ele>159.2</ele>
        <time>2018-04-10T11:37:03Z</time>
      </trkpt>
      <trkpt lat="41.4670540" lon="2.1232470">
        <ele>159.2</ele>
        <time>2018-04-10T11:37:05Z</time>
      </trkpt>
      <trkpt lat="41.4671810" lon="2.1234290">
        <ele>159.2</ele>
        <time>2018-04-10T11:37:07Z</time>
      </trkpt>
      <trkpt lat="41.4672410" lon="2.1235310">
        <ele>159.2</ele>
        <time>2018-04-10T11:37:08Z</time>
      </trkpt>
      <trkpt lat="41.4673070" lon="2.1236330">
        <ele>159.2</ele>
        <time>2018-04-10T11:37:09Z</time>
      </trkpt>
      <trkpt lat="41.4674530" lon="2.1238310">
        <ele>158.8</ele>
        <time>2018-04-10T11:37:11Z</time>
      </trkpt>
      <trkpt lat="41.4676300" lon="2.1240130">
        <ele>158.2</ele>
        <time>2018-04-10T11:37:13Z</time>
      </trkpt>
      <trkpt lat="41.4678120" lon="2.1242130">
        <ele>157.4</ele>
        <time>2018-04-10T11:37:15Z</time>
      </trkpt>
      <trkpt lat="41.4680040" lon="2.1244310">
        <ele>155.8</ele>
        <time>2018-04-10T11:37:17Z</time>
      </trkpt>
      <trkpt lat="41.4681950" lon="2.1246680">
        <ele>154.2</ele>
        <time>2018-04-10T11:37:19Z</time>
      </trkpt>
      <trkpt lat="41.4683640" lon="2.1249470">
        <ele>152.8</ele>
        <time>2018-04-10T11:37:21Z</time>
      </trkpt>
      <trkpt lat="41.4685070" lon="2.1252600">
        <ele>151.2</ele>
        <time>2018-04-10T11:37:23Z</time>
      </trkpt>
      <trkpt lat="41.4685900" lon="2.1254010">
        <ele>150.2</ele>
        <time>2018-04-10T11:37:24Z</time>
      </trkpt>
      <trkpt lat="41.4686860" lon="2.1255210">
        <ele>149.4</ele>
        <time>2018-04-10T11:37:25Z</time>
      </trkpt>
      <trkpt lat="41.4687950" lon="2.1256170">
        <ele>148.8</ele>
        <time>2018-04-10T11:37:26Z</time>
      </trkpt>
      <trkpt lat="41.4689130" lon="2.1256900">
        <ele>147.2</ele>
        <time>2018-04-10T11:37:27Z</time>
      </trkpt>
      <trkpt lat="41.4691660" lon="2.1258070">
        <ele>145.6</ele>
        <time>2018-04-10T11:37:29Z</time>
      </trkpt>
      <trkpt lat="41.4694240" lon="2.1259390">
        <ele>144.0</ele>
        <time>2018-04-10T11:37:31Z</time>
      </trkpt>
      <trkpt lat="41.4696870" lon="2.1260710">
        <ele>142.4</ele>
        <time>2018-04-10T11:37:33Z</time>
      </trkpt>
      <trkpt lat="41.4699450" lon="2.1261850">
        <ele>140.6</ele>
        <time>2018-04-10T11:37:35Z</time>
      </trkpt>
      <trkpt lat="41.4702030" lon="2.1262830">
        <ele>139.2</ele>
        <time>2018-04-10T11:37:37Z</time>
      </trkpt>
      <trkpt lat="41.4704550" lon="2.1263890">
        <ele>137.4</ele>
        <time>2018-04-10T11:37:39Z</time>
      </trkpt>
      <trkpt lat="41.4706460" lon="2.1265840">
        <ele>135.4</ele>
        <time>2018-04-10T11:37:41Z</time>
      </trkpt>
      <trkpt lat="41.4707940" lon="2.1268460">
        <ele>133.8</ele>
        <time>2018-04-10T11:37:43Z</time>
      </trkpt>
      <trkpt lat="41.4709700" lon="2.1270290">
        <ele>132.2</ele>
        <time>2018-04-10T11:37:45Z</time>
      </trkpt>
      <trkpt lat="41.4711760" lon="2.1270590">
        <ele>131.2</ele>
        <time>2018-04-10T11:37:47Z</time>
      </trkpt>
      <trkpt lat="41.4712800" lon="2.1270370">
        <ele>131.0</ele>
        <time>2018-04-10T11:37:48Z</time>
      </trkpt>
      <trkpt lat="41.4713840" lon="2.1270160">
        <ele>130.6</ele>
        <time>2018-04-10T11:37:49Z</time>
      </trkpt>
      <trkpt lat="41.4715780" lon="2.1270010">
        <ele>129.6</ele>
        <time>2018-04-10T11:37:51Z</time>
      </trkpt>
      <trkpt lat="41.4717560" lon="2.1270190">
        <ele>129.0</ele>
        <time>2018-04-10T11:37:53Z</time>
      </trkpt>
      <trkpt lat="41.4719120" lon="2.1270510">
        <ele>128.8</ele>
        <time>2018-04-10T11:37:55Z</time>
      </trkpt>
      <trkpt lat="41.4720490" lon="2.1271080">
        <ele>128.8</ele>
        <time>2018-04-10T11:37:57Z</time>
      </trkpt>
      <trkpt lat="41.4721710" lon="2.1271740">
        <ele>128.8</ele>
        <time>2018-04-10T11:37:59Z</time>
      </trkpt>
      <trkpt lat="41.4722850" lon="2.1272410">
        <ele>129.0</ele>
        <time>2018-04-10T11:38:01Z</time>
      </trkpt>
      <trkpt lat="41.4723980" lon="2.1273040">
        <ele>129.6</ele>
        <time>2018-04-10T11:38:03Z</time>
      </trkpt>
      <trkpt lat="41.4725110" lon="2.1273700">
        <ele>130.4</ele>
        <time>2018-04-10T11:38:05Z</time>
      </trkpt>
      <trkpt lat="41.4725670" lon="2.1274020">
        <ele>130.8</ele>
        <time>2018-04-10T11:38:06Z</time>
      </trkpt>
      <trkpt lat="41.4726230" lon="2.1274330">
        <ele>131.4</ele>
        <time>2018-04-10T11:38:07Z</time>
      </trkpt>
      <trkpt lat="41.4727290" lon="2.1275050">
        <ele>132.2</ele>
        <time>2018-04-10T11:38:09Z</time>
      </trkpt>
      <trkpt lat="41.4728350" lon="2.1275710">
        <ele>132.8</ele>
        <time>2018-04-10T11:38:11Z</time>
      </trkpt>
      <trkpt lat="41.4729410" lon="2.1276320">
        <ele>133.2</ele>
        <time>2018-04-10T11:38:13Z</time>
      </trkpt>
      <trkpt lat="41.4730360" lon="2.1276960">
        <ele>133.6</ele>
        <time>2018-04-10T11:38:15Z</time>
      </trkpt>
      <trkpt lat="41.4730870" lon="2.1277280">
        <ele>134.0</ele>
        <time>2018-04-10T11:38:16Z</time>
      </trkpt>
      <trkpt lat="41.4731360" lon="2.1277590">
        <ele>134.4</ele>
        <time>2018-04-10T11:38:17Z</time>
      </trkpt>
      <trkpt lat="41.4732260" lon="2.1278250">
        <ele>134.8</ele>
        <time>2018-04-10T11:38:19Z</time>
      </trkpt>
      <trkpt lat="41.4733260" lon="2.1278900">
        <ele>135.2</ele>
        <time>2018-04-10T11:38:21Z</time>
      </trkpt>
      <trkpt lat="41.4733740" lon="2.1279260">
        <ele>135.6</ele>
        <time>2018-04-10T11:38:22Z</time>
      </trkpt>
      <trkpt lat="41.4734180" lon="2.1279630">
        <ele>135.8</ele>
        <time>2018-04-10T11:38:23Z</time>
      </trkpt>
      <trkpt lat="41.4734990" lon="2.1280520">
        <ele>136.4</ele>
        <time>2018-04-10T11:38:25Z</time>
      </trkpt>
      <trkpt lat="41.4735390" lon="2.1280990">
        <ele>136.8</ele>
        <time>2018-04-10T11:38:26Z</time>
      </trkpt>
      <trkpt lat="41.4735810" lon="2.1281460">
        <ele>137.2</ele>
        <time>2018-04-10T11:38:27Z</time>
      </trkpt>
      <trkpt lat="41.4736680" lon="2.1282360">
        <ele>137.6</ele>
        <time>2018-04-10T11:38:29Z</time>
      </trkpt>
      <trkpt lat="41.4737140" lon="2.1282800">
        <ele>138.0</ele>
        <time>2018-04-10T11:38:30Z</time>
      </trkpt>
      <trkpt lat="41.4737600" lon="2.1283200">
        <ele>138.2</ele>
        <time>2018-04-10T11:38:31Z</time>
      </trkpt>
      <trkpt lat="41.4738080" lon="2.1283560">
        <ele>138.4</ele>
        <time>2018-04-10T11:38:32Z</time>
      </trkpt>
      <trkpt lat="41.4738580" lon="2.1283900">
        <ele>138.8</ele>
        <time>2018-04-10T11:38:33Z</time>
      </trkpt>
      <trkpt lat="41.4739130" lon="2.1284220">
        <ele>139.0</ele>
        <time>2018-04-10T11:38:34Z</time>
      </trkpt>
      <trkpt lat="41.4739680" lon="2.1284490">
        <ele>139.2</ele>
        <time>2018-04-10T11:38:35Z</time>
      </trkpt>
      <trkpt lat="41.4740910" lon="2.1284910">
        <ele>139.8</ele>
        <time>2018-04-10T11:38:37Z</time>
      </trkpt>
      <trkpt lat="41.4742150" lon="2.1285260">
        <ele>140.2</ele>
        <time>2018-04-10T11:38:39Z</time>
      </trkpt>
      <trkpt lat="41.4743500" lon="2.1285640">
        <ele>140.6</ele>
        <time>2018-04-10T11:38:41Z</time>
      </trkpt>
      <trkpt lat="41.4744890" lon="2.1286150">
        <ele>140.6</ele>
        <time>2018-04-10T11:38:43Z</time>
      </trkpt>
      <trkpt lat="41.4746440" lon="2.1286670">
        <ele>140.6</ele>
        <time>2018-04-10T11:38:45Z</time>
      </trkpt>
      <trkpt lat="41.4748120" lon="2.1287360">
        <ele>140.6</ele>
        <time>2018-04-10T11:38:47Z</time>
      </trkpt>
      <trkpt lat="41.4749550" lon="2.1288770">
        <ele>140.6</ele>
        <time>2018-04-10T11:38:49Z</time>
      </trkpt>
      <trkpt lat="41.4750170" lon="2.1291070">
        <ele>140.2</ele>
        <time>2018-04-10T11:38:51Z</time>
      </trkpt>
      <trkpt lat="41.4750220" lon="2.1293580">
        <ele>139.6</ele>
        <time>2018-04-10T11:38:53Z</time>
      </trkpt>
      <trkpt lat="41.4750430" lon="2.1294740">
        <ele>138.6</ele>
        <time>2018-04-10T11:38:54Z</time>
      </trkpt>
      <trkpt lat="41.4750850" lon="2.1295790">
        <ele>138.0</ele>
        <time>2018-04-10T11:38:55Z</time>
      </trkpt>
      <trkpt lat="41.4751410" lon="2.1296690">
        <ele>137.4</ele>
        <time>2018-04-10T11:38:56Z</time>
      </trkpt>
      <trkpt lat="41.4752140" lon="2.1297150">
        <ele>137.0</ele>
        <time>2018-04-10T11:38:57Z</time>
      </trkpt>
      <trkpt lat="41.4752750" lon="2.1297380">
        <ele>136.4</ele>
        <time>2018-04-10T11:38:58Z</time>
      </trkpt>
      <trkpt lat="41.4753440" lon="2.1297190">
        <ele>135.8</ele>
        <time>2018-04-10T11:38:59Z</time>
      </trkpt>
      <trkpt lat="41.4754220" lon="2.1296510">
        <ele>135.2</ele>
        <time>2018-04-10T11:39:00Z</time>
      </trkpt>
      <trkpt lat="41.4754930" lon="2.1295640">
        <ele>134.6</ele>
        <time>2018-04-10T11:39:01Z</time>
      </trkpt>
      <trkpt lat="41.4755600" lon="2.1294730">
        <ele>134.0</ele>
        <time>2018-04-10T11:39:02Z</time>
      </trkpt>
      <trkpt lat="41.4756290" lon="2.1293940">
        <ele>133.4</ele>
        <time>2018-04-10T11:39:03Z</time>
      </trkpt>
      <trkpt lat="41.4757060" lon="2.1293340">
        <ele>132.8</ele>
        <time>2018-04-10T11:39:04Z</time>
      </trkpt>
      <trkpt lat="41.4757900" lon="2.1292960">
        <ele>131.8</ele>
        <time>2018-04-10T11:39:05Z</time>
      </trkpt>
      <trkpt lat="41.4758750" lon="2.1292810">
        <ele>131.0</ele>
        <time>2018-04-10T11:39:06Z</time>
      </trkpt>
      <trkpt lat="41.4759670" lon="2.1292860">
        <ele>130.4</ele>
        <time>2018-04-10T11:39:07Z</time>
      </trkpt>
      <trkpt lat="41.4760610" lon="2.1293030">
        <ele>129.8</ele>
        <time>2018-04-10T11:39:08Z</time>
      </trkpt>
      <trkpt lat="41.4761440" lon="2.1293510">
        <ele>129.4</ele>
        <time>2018-04-10T11:39:09Z</time>
      </trkpt>
      <trkpt lat="41.4763000" lon="2.1294920">
        <ele>128.8</ele>
        <time>2018-04-10T11:39:11Z</time>
      </trkpt>
      <trkpt lat="41.4764330" lon="2.1296670">
        <ele>128.4</ele>
        <time>2018-04-10T11:39:13Z</time>
      </trkpt>
      <trkpt lat="41.4765050" lon="2.1297510">
        <ele>128.2</ele>
        <time>2018-04-10T11:39:14Z</time>
      </trkpt>
      <trkpt lat="41.4765840" lon="2.1297980">
        <ele>128.0</ele>
        <time>2018-04-10T11:39:15Z</time>
      </trkpt>
      <trkpt lat="41.4766740" lon="2.1297920">
        <ele>127.8</ele>
        <time>2018-04-10T11:39:16Z</time>
      </trkpt>
      <trkpt lat="41.4767570" lon="2.1297490">
        <ele>127.4</ele>
        <time>2018-04-10T11:39:17Z</time>
      </trkpt>
      <trkpt lat="41.4768370" lon="2.1296880">
        <ele>127.0</ele>
        <time>2018-04-10T11:39:18Z</time>
      </trkpt>
      <trkpt lat="41.4769180" lon="2.1296310">
        <ele>126.6</ele>
        <time>2018-04-10T11:39:19Z</time>
      </trkpt>
      <trkpt lat="41.4771070" lon="2.1296040">
        <ele>126.0</ele>
        <time>2018-04-10T11:39:21Z</time>
      </trkpt>
      <trkpt lat="41.4771950" lon="2.1296360">
        <ele>125.6</ele>
        <time>2018-04-10T11:39:22Z</time>
      </trkpt>
      <trkpt lat="41.4772790" lon="2.1296910">
        <ele>125.2</ele>
        <time>2018-04-10T11:39:23Z</time>
      </trkpt>
      <trkpt lat="41.4773650" lon="2.1297530">
        <ele>124.8</ele>
        <time>2018-04-10T11:39:24Z</time>
      </trkpt>
      <trkpt lat="41.4774580" lon="2.1298120">
        <ele>124.6</ele>
        <time>2018-04-10T11:39:25Z</time>
      </trkpt>
      <trkpt lat="41.4775560" lon="2.1298610">
        <ele>124.4</ele>
        <time>2018-04-10T11:39:26Z</time>
      </trkpt>
      <trkpt lat="41.4776580" lon="2.1298970">
        <ele>124.2</ele>
        <time>2018-04-10T11:39:27Z</time>
      </trkpt>
      <trkpt lat="41.4778790" lon="2.1299250">
        <ele>124.0</ele>
        <time>2018-04-10T11:39:29Z</time>
      </trkpt>
      <trkpt lat="41.4780650" lon="2.1300620">
        <ele>123.4</ele>
        <time>2018-04-10T11:39:31Z</time>
      </trkpt>
      <trkpt lat="41.4782220" lon="2.1302870">
        <ele>122.2</ele>
        <time>2018-04-10T11:39:33Z</time>
      </trkpt>
      <trkpt lat="41.4783780" lon="2.1305200">
        <ele>120.8</ele>
        <time>2018-04-10T11:39:35Z</time>
      </trkpt>
      <trkpt lat="41.4785290" lon="2.1307400">
        <ele>119.6</ele>
        <time>2018-04-10T11:39:37Z</time>
      </trkpt>
      <trkpt lat="41.4786690" lon="2.1309480">
        <ele>118.6</ele>
        <time>2018-04-10T11:39:39Z</time>
      </trkpt>
      <trkpt lat="41.4788100" lon="2.1311550">
        <ele>116.8</ele>
        <time>2018-04-10T11:39:41Z</time>
      </trkpt>
      <trkpt lat="41.4789520" lon="2.1313610">
        <ele>115.4</ele>
        <time>2018-04-10T11:39:43Z</time>
      </trkpt>
      <trkpt lat="41.4790920" lon="2.1315700">
        <ele>114.0</ele>
        <time>2018-04-10T11:39:45Z</time>
      </trkpt>
      <trkpt lat="41.4792430" lon="2.1317710">
        <ele>113.2</ele>
        <time>2018-04-10T11:39:47Z</time>
      </trkpt>
      <trkpt lat="41.4793260" lon="2.1318620">
        <ele>112.6</ele>
        <time>2018-04-10T11:39:48Z</time>
      </trkpt>
      <trkpt lat="41.4794150" lon="2.1319380">
        <ele>112.0</ele>
        <time>2018-04-10T11:39:49Z</time>
      </trkpt>
      <trkpt lat="41.4795110" lon="2.1319990">
        <ele>111.6</ele>
        <time>2018-04-10T11:39:50Z</time>
      </trkpt>
      <trkpt lat="41.4796090" lon="2.1320420">
        <ele>111.4</ele>
        <time>2018-04-10T11:39:51Z</time>
      </trkpt>
      <trkpt lat="41.4797970" lon="2.1320370">
        <ele>110.6</ele>
        <time>2018-04-10T11:39:53Z</time>
      </trkpt>
      <trkpt lat="41.4799680" lon="2.1319220">
        <ele>109.8</ele>
        <time>2018-04-10T11:39:55Z</time>
      </trkpt>
      <trkpt lat="41.4800470" lon="2.1318480">
        <ele>109.2</ele>
        <time>2018-04-10T11:39:56Z</time>
      </trkpt>
      <trkpt lat="41.4801290" lon="2.1317810">
        <ele>108.8</ele>
        <time>2018-04-10T11:39:57Z</time>
      </trkpt>
      <trkpt lat="41.4803090" lon="2.1316910">
        <ele>108.0</ele>
        <time>2018-04-10T11:39:59Z</time>
      </trkpt>
      <trkpt lat="41.4805070" lon="2.1317170">
        <ele>106.8</ele>
        <time>2018-04-10T11:40:01Z</time>
      </trkpt>
      <trkpt lat="41.4806040" lon="2.1317580">
        <ele>106.4</ele>
        <time>2018-04-10T11:40:02Z</time>
      </trkpt>
      <trkpt lat="41.4807000" lon="2.1318050">
        <ele>106.2</ele>
        <time>2018-04-10T11:40:03Z</time>
      </trkpt>
      <trkpt lat="41.4808900" lon="2.1319110">
        <ele>105.8</ele>
        <time>2018-04-10T11:40:05Z</time>
      </trkpt>
      <trkpt lat="41.4810900" lon="2.1320160">
        <ele>105.2</ele>
        <time>2018-04-10T11:40:07Z</time>
      </trkpt>
      <trkpt lat="41.4813030" lon="2.1321270">
        <ele>105.0</ele>
        <time>2018-04-10T11:40:09Z</time>
      </trkpt>
      <trkpt lat="41.4814110" lon="2.1321910">
        <ele>104.4</ele>
        <time>2018-04-10T11:40:10Z</time>
      </trkpt>
      <trkpt lat="41.4815170" lon="2.1322650">
        <ele>104.2</ele>
        <time>2018-04-10T11:40:11Z</time>
      </trkpt>
      <trkpt lat="41.4817140" lon="2.1324360">
        <ele>104.0</ele>
        <time>2018-04-10T11:40:13Z</time>
      </trkpt>
      <trkpt lat="41.4819080" lon="2.1326140">
        <ele>103.2</ele>
        <time>2018-04-10T11:40:15Z</time>
      </trkpt>
      <trkpt lat="41.4821220" lon="2.1327680">
        <ele>102.0</ele>
        <time>2018-04-10T11:40:17Z</time>
      </trkpt>
      <trkpt lat="41.4823660" lon="2.1328350">
        <ele>100.4</ele>
        <time>2018-04-10T11:40:19Z</time>
      </trkpt>
      <trkpt lat="41.4826120" lon="2.1328130">
        <ele>99.0</ele>
        <time>2018-04-10T11:40:21Z</time>
      </trkpt>
      <trkpt lat="41.4827220" lon="2.1327900">
        <ele>97.4</ele>
        <time>2018-04-10T11:40:22Z</time>
      </trkpt>
      <trkpt lat="41.4828220" lon="2.1327710">
        <ele>96.8</ele>
        <time>2018-04-10T11:40:23Z</time>
      </trkpt>
      <trkpt lat="41.4829190" lon="2.1327590">
        <ele>96.0</ele>
        <time>2018-04-10T11:40:24Z</time>
      </trkpt>
      <trkpt lat="41.4830150" lon="2.1327480">
        <ele>95.4</ele>
        <time>2018-04-10T11:40:25Z</time>
      </trkpt>
      <trkpt lat="41.4831130" lon="2.1327360">
        <ele>94.6</ele>
        <time>2018-04-10T11:40:26Z</time>
      </trkpt>
      <trkpt lat="41.4832130" lon="2.1327270">
        <ele>94.0</ele>
        <time>2018-04-10T11:40:27Z</time>
      </trkpt>
      <trkpt lat="41.4834110" lon="2.1327150">
        <ele>93.6</ele>
        <time>2018-04-10T11:40:29Z</time>
      </trkpt>
      <trkpt lat="41.4835030" lon="2.1327080">
        <ele>93.4</ele>
        <time>2018-04-10T11:40:30Z</time>
      </trkpt>
      <trkpt lat="41.4835890" lon="2.1326990">
        <ele>93.4</ele>
        <time>2018-04-10T11:40:31Z</time>
      </trkpt>
      <trkpt lat="41.4837520" lon="2.1326770">
        <ele>93.4</ele>
        <time>2018-04-10T11:40:33Z</time>
      </trkpt>
      <trkpt lat="41.4838270" lon="2.1326660">
        <ele>93.4</ele>
        <time>2018-04-10T11:40:34Z</time>
      </trkpt>
      <trkpt lat="41.4839010" lon="2.1326580">
        <ele>93.4</ele>
        <time>2018-04-10T11:40:35Z</time>
      </trkpt>
      <trkpt lat="41.4840490" lon="2.1326490">
        <ele>93.4</ele>
        <time>2018-04-10T11:40:37Z</time>
      </trkpt>
      <trkpt lat="41.4841870" lon="2.1326300">
        <ele>93.4</ele>
        <time>2018-04-10T11:40:39Z</time>
      </trkpt>
      <trkpt lat="41.4843140" lon="2.1326190">
        <ele>94.0</ele>
        <time>2018-04-10T11:40:41Z</time>
      </trkpt>
      <trkpt lat="41.4843800" lon="2.1326170">
        <ele>94.6</ele>
        <time>2018-04-10T11:40:42Z</time>
      </trkpt>
      <trkpt lat="41.4844420" lon="2.1326120">
        <ele>95.2</ele>
        <time>2018-04-10T11:40:43Z</time>
      </trkpt>
      <trkpt lat="41.4844970" lon="2.1326090">
        <ele>95.8</ele>
        <time>2018-04-10T11:40:44Z</time>
      </trkpt>
      <trkpt lat="41.4845540" lon="2.1326050">
        <ele>96.4</ele>
        <time>2018-04-10T11:40:45Z</time>
      </trkpt>
      <trkpt lat="41.4846100" lon="2.1326040">
        <ele>97.0</ele>
        <time>2018-04-10T11:40:46Z</time>
      </trkpt>
      <trkpt lat="41.4846630" lon="2.1325990">
        <ele>97.4</ele>
        <time>2018-04-10T11:40:47Z</time>
      </trkpt>
      <trkpt lat="41.4847740" lon="2.1325880">
        <ele>98.4</ele>
        <time>2018-04-10T11:40:49Z</time>
      </trkpt>
      <trkpt lat="41.4848870" lon="2.1325650">
        <ele>99.8</ele>
        <time>2018-04-10T11:40:51Z</time>
      </trkpt>
      <trkpt lat="41.4850020" lon="2.1325470">
        <ele>100.2</ele>
        <time>2018-04-10T11:40:53Z</time>
      </trkpt>
      <trkpt lat="41.4851120" lon="2.1325300">
        <ele>100.4</ele>
        <time>2018-04-10T11:40:55Z</time>
      </trkpt>
      <trkpt lat="41.4852130" lon="2.1325200">
        <ele>100.6</ele>
        <time>2018-04-10T11:40:57Z</time>
      </trkpt>
      <trkpt lat="41.4853110" lon="2.1325120">
        <ele>100.8</ele>
        <time>2018-04-10T11:40:59Z</time>
      </trkpt>
      <trkpt lat="41.4853550" lon="2.1325150">
        <ele>100.8</ele>
        <time>2018-04-10T11:41:00Z</time>
      </trkpt>
      <trkpt lat="41.4853990" lon="2.1325290">
        <ele>101.0</ele>
        <time>2018-04-10T11:41:01Z</time>
      </trkpt>
      <trkpt lat="41.4854790" lon="2.1325970">
        <ele>101.0</ele>
        <time>2018-04-10T11:41:03Z</time>
      </trkpt>
      <trkpt lat="41.4855300" lon="2.1327110">
        <ele>101.4</ele>
        <time>2018-04-10T11:41:05Z</time>
      </trkpt>
      <trkpt lat="41.4855570" lon="2.1328460">
        <ele>101.8</ele>
        <time>2018-04-10T11:41:07Z</time>
      </trkpt>
      <trkpt lat="41.4855700" lon="2.1329180">
        <ele>102.0</ele>
        <time>2018-04-10T11:41:08Z</time>
      </trkpt>
      <trkpt lat="41.4855760" lon="2.1329900">
        <ele>102.0</ele>
        <time>2018-04-10T11:41:09Z</time>
      </trkpt>
      <trkpt lat="41.4855780" lon="2.1331320">
        <ele>102.0</ele>
        <time>2018-04-10T11:41:11Z</time>
      </trkpt>
      <trkpt lat="41.4855750" lon="2.1332780">
        <ele>102.2</ele>
        <time>2018-04-10T11:41:13Z</time>
      </trkpt>
      <trkpt lat="41.4855970" lon="2.1334350">
        <ele>102.2</ele>
        <time>2018-04-10T11:41:15Z</time>
      </trkpt>
      <trkpt lat="41.4856220" lon="2.1335850">
        <ele>102.4</ele>
        <time>2018-04-10T11:41:17Z</time>
      </trkpt>
      <trkpt lat="41.4856450" lon="2.1337340">
        <ele>102.4</ele>
        <time>2018-04-10T11:41:19Z</time>
      </trkpt>
      <trkpt lat="41.4856790" lon="2.1338760">
        <ele>102.6</ele>
        <time>2018-04-10T11:41:21Z</time>
      </trkpt>
      <trkpt lat="41.4857180" lon="2.1340120">
        <ele>103.0</ele>
        <time>2018-04-10T11:41:23Z</time>
      </trkpt>
      <trkpt lat="41.4857350" lon="2.1340820">
        <ele>102.8</ele>
        <time>2018-04-10T11:41:24Z</time>
      </trkpt>
      <trkpt lat="41.4857500" lon="2.1341530">
        <ele>103.2</ele>
        <time>2018-04-10T11:41:25Z</time>
      </trkpt>
      <trkpt lat="41.4857790" lon="2.1342890">
        <ele>103.4</ele>
        <time>2018-04-10T11:41:27Z</time>
      </trkpt>
      <trkpt lat="41.4858090" lon="2.1344190">
        <ele>103.8</ele>
        <time>2018-04-10T11:41:29Z</time>
      </trkpt>
      <trkpt lat="41.4858350" lon="2.1345470">
        <ele>104.4</ele>
        <time>2018-04-10T11:41:31Z</time>
      </trkpt>
      <trkpt lat="41.4858640" lon="2.1346740">
        <ele>104.8</ele>
        <time>2018-04-10T11:41:33Z</time>
      </trkpt>
      <trkpt lat="41.4858890" lon="2.1348060">
        <ele>105.0</ele>
        <time>2018-04-10T11:41:35Z</time>
      </trkpt>
      <trkpt lat="41.4859140" lon="2.1349410">
        <ele>105.4</ele>
        <time>2018-04-10T11:41:37Z</time>
      </trkpt>
      <trkpt lat="41.4859260" lon="2.1350100">
        <ele>105.4</ele>
        <time>2018-04-10T11:41:38Z</time>
      </trkpt>
      <trkpt lat="41.4859350" lon="2.1350800">
        <ele>105.6</ele>
        <time>2018-04-10T11:41:39Z</time>
      </trkpt>
      <trkpt lat="41.4859470" lon="2.1352240">
        <ele>106.0</ele>
        <time>2018-04-10T11:41:41Z</time>
      </trkpt>
      <trkpt lat="41.4859550" lon="2.1353660">
        <ele>106.0</ele>
        <time>2018-04-10T11:41:43Z</time>
      </trkpt>
      <trkpt lat="41.4859650" lon="2.1355050">
        <ele>106.4</ele>
        <time>2018-04-10T11:41:45Z</time>
      </trkpt>
      <trkpt lat="41.4859690" lon="2.1355730">
        <ele>106.8</ele>
        <time>2018-04-10T11:41:46Z</time>
      </trkpt>
      <trkpt lat="41.4859740" lon="2.1356420">
        <ele>107.0</ele>
        <time>2018-04-10T11:41:47Z</time>
      </trkpt>
      <trkpt lat="41.4859780" lon="2.1357760">
        <ele>107.6</ele>
        <time>2018-04-10T11:41:49Z</time>
      </trkpt>
      <trkpt lat="41.4859790" lon="2.1359060">
        <ele>108.0</ele>
        <time>2018-04-10T11:41:51Z</time>
      </trkpt>
      <trkpt lat="41.4859880" lon="2.1360220">
        <ele>108.6</ele>
        <time>2018-04-10T11:41:53Z</time>
      </trkpt>
      <trkpt lat="41.4859950" lon="2.1361100">
        <ele>109.2</ele>
        <time>2018-04-10T11:41:55Z</time>
      </trkpt>
      <trkpt lat="41.4860100" lon="2.1361910">
        <ele>109.8</ele>
        <time>2018-04-10T11:41:57Z</time>
      </trkpt>
      <trkpt lat="41.4859870" lon="2.1362640">
        <ele>110.0</ele>
        <time>2018-04-10T11:41:59Z</time>
      </trkpt>
      <trkpt lat="41.4859200" lon="2.1363190">
        <ele>110.2</ele>
        <time>2018-04-10T11:42:01Z</time>
      </trkpt>
      <trkpt lat="41.4858820" lon="2.1363570">
        <ele>110.4</ele>
        <time>2018-04-10T11:42:02Z</time>
      </trkpt>
      <trkpt lat="41.4858450" lon="2.1364050">
        <ele>110.4</ele>
        <time>2018-04-10T11:42:03Z</time>
      </trkpt>
      <trkpt lat="41.4857940" lon="2.1365140">
        <ele>110.8</ele>
        <time>2018-04-10T11:42:05Z</time>
      </trkpt>
      <trkpt lat="41.4857770" lon="2.1366420">
        <ele>111.2</ele>
        <time>2018-04-10T11:42:07Z</time>
      </trkpt>
      <trkpt lat="41.4857650" lon="2.1367060">
        <ele>111.2</ele>
        <time>2018-04-10T11:42:08Z</time>
      </trkpt>
      <trkpt lat="41.4857440" lon="2.1367660">
        <ele>111.4</ele>
        <time>2018-04-10T11:42:09Z</time>
      </trkpt>
      <trkpt lat="41.4856800" lon="2.1368770">
        <ele>111.8</ele>
        <time>2018-04-10T11:42:11Z</time>
      </trkpt>
      <trkpt lat="41.4856430" lon="2.1369310">
        <ele>111.8</ele>
        <time>2018-04-10T11:42:12Z</time>
      </trkpt>
      <trkpt lat="41.4856040" lon="2.1369900">
        <ele>112.0</ele>
        <time>2018-04-10T11:42:13Z</time>
      </trkpt>
      <trkpt lat="41.4855250" lon="2.1371160">
        <ele>112.0</ele>
        <time>2018-04-10T11:42:15Z</time>
      </trkpt>
      <trkpt lat="41.4854420" lon="2.1372510">
        <ele>112.0</ele>
        <time>2018-04-10T11:42:17Z</time>
      </trkpt>
      <trkpt lat="41.4853560" lon="2.1374020">
        <ele>112.0</ele>
        <time>2018-04-10T11:42:19Z</time>
      </trkpt>
      <trkpt lat="41.4852600" lon="2.1375660">
        <ele>111.4</ele>
        <time>2018-04-10T11:42:21Z</time>
      </trkpt>
      <trkpt lat="41.4851520" lon="2.1377320">
        <ele>111.0</ele>
        <time>2018-04-10T11:42:23Z</time>
      </trkpt>
      <trkpt lat="41.4850400" lon="2.1379010">
        <ele>110.6</ele>
        <time>2018-04-10T11:42:25Z</time>
      </trkpt>
      <trkpt lat="41.4849300" lon="2.1380620">
        <ele>110.0</ele>
        <time>2018-04-10T11:42:27Z</time>
      </trkpt>
      <trkpt lat="41.4848770" lon="2.1381430">
        <ele>109.6</ele>
        <time>2018-04-10T11:42:28Z</time>
      </trkpt>
      <trkpt lat="41.4848250" lon="2.1382210">
        <ele>109.0</ele>
        <time>2018-04-10T11:42:29Z</time>
      </trkpt>
      <trkpt lat="41.4847300" lon="2.1383760">
        <ele>108.0</ele>
        <time>2018-04-10T11:42:31Z</time>
      </trkpt>
      <trkpt lat="41.4846310" lon="2.1385350">
        <ele>106.8</ele>
        <time>2018-04-10T11:42:33Z</time>
      </trkpt>
      <trkpt lat="41.4845380" lon="2.1386970">
        <ele>106.2</ele>
        <time>2018-04-10T11:42:35Z</time>
      </trkpt>
      <trkpt lat="41.4844360" lon="2.1388570">
        <ele>105.6</ele>
        <time>2018-04-10T11:42:37Z</time>
      </trkpt>
      <trkpt lat="41.4843330" lon="2.1390350">
        <ele>105.0</ele>
        <time>2018-04-10T11:42:39Z</time>
      </trkpt>
      <trkpt lat="41.4842180" lon="2.1392250">
        <ele>104.8</ele>
        <time>2018-04-10T11:42:41Z</time>
      </trkpt>
      <trkpt lat="41.4840970" lon="2.1394310">
        <ele>104.4</ele>
        <time>2018-04-10T11:42:43Z</time>
      </trkpt>
      <trkpt lat="41.4839800" lon="2.1396290">
        <ele>103.8</ele>
        <time>2018-04-10T11:42:45Z</time>
      </trkpt>
      <trkpt lat="41.4839280" lon="2.1397180">
        <ele>103.4</ele>
        <time>2018-04-10T11:42:46Z</time>
      </trkpt>
      <trkpt lat="41.4838800" lon="2.1398010">
        <ele>102.4</ele>
        <time>2018-04-10T11:42:47Z</time>
      </trkpt>
      <trkpt lat="41.4838350" lon="2.1398760">
        <ele>102.2</ele>
        <time>2018-04-10T11:42:48Z</time>
      </trkpt>
      <trkpt lat="41.4837910" lon="2.1399470">
        <ele>101.8</ele>
        <time>2018-04-10T11:42:49Z</time>
      </trkpt>
      <trkpt lat="41.4837220" lon="2.1400820">
        <ele>100.6</ele>
        <time>2018-04-10T11:42:51Z</time>
      </trkpt>
      <trkpt lat="41.4836930" lon="2.1401410">
        <ele>99.6</ele>
        <time>2018-04-10T11:42:52Z</time>
      </trkpt>
      <trkpt lat="41.4836670" lon="2.1401910">
        <ele>98.8</ele>
        <time>2018-04-10T11:42:53Z</time>
      </trkpt>
      <trkpt lat="41.4836440" lon="2.1402300">
        <ele>97.8</ele>
        <time>2018-04-10T11:42:54Z</time>
      </trkpt>
      <trkpt lat="41.4836250" lon="2.1402600">
        <ele>97.0</ele>
        <time>2018-04-10T11:42:55Z</time>
      </trkpt>
      <trkpt lat="41.4836130" lon="2.1402840">
        <ele>96.4</ele>
        <time>2018-04-10T11:42:56Z</time>
      </trkpt>
      <trkpt lat="41.4836060" lon="2.1402990">
        <ele>95.8</ele>
        <time>2018-04-10T11:42:57Z</time>
      </trkpt>
      <trkpt lat="41.4835970" lon="2.1403170">
        <ele>95.0</ele>
        <time>2018-04-10T11:42:59Z</time>
      </trkpt>
      <trkpt lat="41.4835980" lon="2.1403270">
        <ele>94.4</ele>
        <time>2018-04-10T11:43:01Z</time>
      </trkpt>
      <trkpt lat="41.4835990" lon="2.1403300">
        <ele>94.0</ele>
        <time>2018-04-10T11:43:02Z</time>
      </trkpt>
      <trkpt lat="41.4835990" lon="2.1403350">
        <ele>93.6</ele>
        <time>2018-04-10T11:43:03Z</time>
      </trkpt>
      <trkpt lat="41.4835990" lon="2.1403460">
        <ele>93.2</ele>
        <time>2018-04-10T11:43:05Z</time>
      </trkpt>
      <trkpt lat="41.4835990" lon="2.1403520">
        <ele>93.0</ele>
        <time>2018-04-10T11:43:06Z</time>
      </trkpt>
      <trkpt lat="41.4835990" lon="2.1403570">
        <ele>92.8</ele>
        <time>2018-04-10T11:43:07Z</time>
      </trkpt>
      <trkpt lat="41.4835980" lon="2.1403680">
        <ele>92.8</ele>
        <time>2018-04-10T11:43:09Z</time>
      </trkpt>
      <trkpt lat="41.4835970" lon="2.1403770">
        <ele>92.8</ele>
        <time>2018-04-10T11:43:11Z</time>
      </trkpt>
      <trkpt lat="41.4835970" lon="2.1403790">
        <ele>92.6</ele>
        <time>2018-04-10T11:43:13Z</time>
      </trkpt>
      <trkpt lat="41.4835970" lon="2.1403790">
        <ele>92.6</ele>
        <time>2018-04-10T11:43:15Z</time>
      </trkpt>
      <trkpt lat="41.4835970" lon="2.1403800">
        <ele>92.6</ele>
        <time>2018-04-10T11:43:17Z</time>
      </trkpt>
      <trkpt lat="41.4835970" lon="2.1403800">
        <ele>93.0</ele>
        <time>2018-04-10T11:43:19Z</time>
      </trkpt>
      <trkpt lat="41.4835970" lon="2.1403810">
        <ele>93.0</ele>
        <time>2018-04-10T11:43:21Z</time>
      </trkpt>
      <trkpt lat="41.4835970" lon="2.1403810">
        <ele>93.0</ele>
        <time>2018-04-10T11:43:23Z</time>
      </trkpt>
      <trkpt lat="41.4835970" lon="2.1403810">
        <ele>93.2</ele>
        <time>2018-04-10T11:43:25Z</time>
      </trkpt>
      <trkpt lat="41.4835970" lon="2.1403820">
        <ele>93.2</ele>
        <time>2018-04-10T11:43:27Z</time>
      </trkpt>
      <trkpt lat="41.4835970" lon="2.1403820">
        <ele>93.2</ele>
        <time>2018-04-10T11:43:29Z</time>
      </trkpt>
      <trkpt lat="41.4835970" lon="2.1403820">
        <ele>93.2</ele>
        <time>2018-04-10T11:43:31Z</time>
      </trkpt>
      <trkpt lat="41.4835950" lon="2.1403950">
        <ele>93.2</ele>
        <time>2018-04-10T11:43:32Z</time>
      </trkpt>
      <trkpt lat="41.4835870" lon="2.1404220">
        <ele>93.2</ele>
        <time>2018-04-10T11:43:33Z</time>
      </trkpt>
      <trkpt lat="41.4835610" lon="2.1404930">
        <ele>93.2</ele>
        <time>2018-04-10T11:43:35Z</time>
      </trkpt>
      <trkpt lat="41.4835170" lon="2.1405950">
        <ele>93.2</ele>
        <time>2018-04-10T11:43:37Z</time>
      </trkpt>
      <trkpt lat="41.4834690" lon="2.1407320">
        <ele>93.0</ele>
        <time>2018-04-10T11:43:39Z</time>
      </trkpt>
      <trkpt lat="41.4834150" lon="2.1408840">
        <ele>92.8</ele>
        <time>2018-04-10T11:43:41Z</time>
      </trkpt>
      <trkpt lat="41.4833650" lon="2.1410430">
        <ele>92.6</ele>
        <time>2018-04-10T11:43:43Z</time>
      </trkpt>
      <trkpt lat="41.4833240" lon="2.1412130">
        <ele>92.2</ele>
        <time>2018-04-10T11:43:45Z</time>
      </trkpt>
      <trkpt lat="41.4832780" lon="2.1413860">
        <ele>91.4</ele>
        <time>2018-04-10T11:43:47Z</time>
      </trkpt>
      <trkpt lat="41.4832250" lon="2.1415630">
        <ele>91.2</ele>
        <time>2018-04-10T11:43:49Z</time>
      </trkpt>
      <trkpt lat="41.4831990" lon="2.1416550">
        <ele>91.2</ele>
        <time>2018-04-10T11:43:50Z</time>
      </trkpt>
      <trkpt lat="41.4831710" lon="2.1417450">
        <ele>91.0</ele>
        <time>2018-04-10T11:43:51Z</time>
      </trkpt>
      <trkpt lat="41.4831550" lon="2.1418300">
        <ele>91.0</ele>
        <time>2018-04-10T11:43:52Z</time>
      </trkpt>
      <trkpt lat="41.4831410" lon="2.1419200">
        <ele>90.8</ele>
        <time>2018-04-10T11:43:53Z</time>
      </trkpt>
      <trkpt lat="41.4831110" lon="2.1420830">
        <ele>90.8</ele>
        <time>2018-04-10T11:43:55Z</time>
      </trkpt>
      <trkpt lat="41.4830780" lon="2.1422360">
        <ele>90.6</ele>
        <time>2018-04-10T11:43:57Z</time>
      </trkpt>
      <trkpt lat="41.4830480" lon="2.1423930">
        <ele>90.6</ele>
        <time>2018-04-10T11:43:59Z</time>
      </trkpt>
      <trkpt lat="41.4830260" lon="2.1425560">
        <ele>90.4</ele>
        <time>2018-04-10T11:44:01Z</time>
      </trkpt>
      <trkpt lat="41.4830070" lon="2.1427240">
        <ele>90.4</ele>
        <time>2018-04-10T11:44:03Z</time>
      </trkpt>
      <trkpt lat="41.4829900" lon="2.1428010">
        <ele>90.4</ele>
        <time>2018-04-10T11:44:04Z</time>
      </trkpt>
      <trkpt lat="41.4829620" lon="2.1428770">
        <ele>90.2</ele>
        <time>2018-04-10T11:44:05Z</time>
      </trkpt>
      <trkpt lat="41.4829210" lon="2.1429390">
        <ele>90.0</ele>
        <time>2018-04-10T11:44:06Z</time>
      </trkpt>
      <trkpt lat="41.4828700" lon="2.1429940">
        <ele>89.6</ele>
        <time>2018-04-10T11:44:07Z</time>
      </trkpt>
      <trkpt lat="41.4827730" lon="2.1431170">
        <ele>88.8</ele>
        <time>2018-04-10T11:44:09Z</time>
      </trkpt>
      <trkpt lat="41.4827600" lon="2.1433100">
        <ele>88.2</ele>
        <time>2018-04-10T11:44:11Z</time>
      </trkpt>
      <trkpt lat="41.4828130" lon="2.1435000">
        <ele>88.0</ele>
        <time>2018-04-10T11:44:13Z</time>
      </trkpt>
      <trkpt lat="41.4828350" lon="2.1435950">
        <ele>87.6</ele>
        <time>2018-04-10T11:44:14Z</time>
      </trkpt>
      <trkpt lat="41.4828430" lon="2.1436940">
        <ele>87.4</ele>
        <time>2018-04-10T11:44:15Z</time>
      </trkpt>
      <trkpt lat="41.4828240" lon="2.1439070">
        <ele>86.6</ele>
        <time>2018-04-10T11:44:17Z</time>
      </trkpt>
      <trkpt lat="41.4827980" lon="2.1441310">
        <ele>86.2</ele>
        <time>2018-04-10T11:44:19Z</time>
      </trkpt>
      <trkpt lat="41.4827670" lon="2.1443620">
        <ele>86.0</ele>
        <time>2018-04-10T11:44:21Z</time>
      </trkpt>
      <trkpt lat="41.4827360" lon="2.1445960">
        <ele>85.4</ele>
        <time>2018-04-10T11:44:23Z</time>
      </trkpt>
      <trkpt lat="41.4827110" lon="2.1448190">
        <ele>84.6</ele>
        <time>2018-04-10T11:44:25Z</time>
      </trkpt>
      <trkpt lat="41.4827030" lon="2.1449240">
        <ele>84.4</ele>
        <time>2018-04-10T11:44:26Z</time>
      </trkpt>
      <trkpt lat="41.4826920" lon="2.1450260">
        <ele>84.0</ele>
        <time>2018-04-10T11:44:27Z</time>
      </trkpt>
      <trkpt lat="41.4826560" lon="2.1452190">
        <ele>83.4</ele>
        <time>2018-04-10T11:44:29Z</time>
      </trkpt>
      <trkpt lat="41.4826390" lon="2.1453160">
        <ele>83.2</ele>
        <time>2018-04-10T11:44:30Z</time>
      </trkpt>
      <trkpt lat="41.4826240" lon="2.1454200">
        <ele>82.8</ele>
        <time>2018-04-10T11:44:31Z</time>
      </trkpt>
      <trkpt lat="41.4826040" lon="2.1456160">
        <ele>82.4</ele>
        <time>2018-04-10T11:44:33Z</time>
      </trkpt>
      <trkpt lat="41.4825840" lon="2.1458050">
        <ele>82.4</ele>
        <time>2018-04-10T11:44:35Z</time>
      </trkpt>
      <trkpt lat="41.4825870" lon="2.1459960">
        <ele>82.4</ele>
        <time>2018-04-10T11:44:37Z</time>
      </trkpt>
      <trkpt lat="41.4826160" lon="2.1461750">
        <ele>82.4</ele>
        <time>2018-04-10T11:44:39Z</time>
      </trkpt>
      <trkpt lat="41.4826540" lon="2.1463430">
        <ele>82.4</ele>
        <time>2018-04-10T11:44:41Z</time>
      </trkpt>
      <trkpt lat="41.4827040" lon="2.1465060">
        <ele>82.4</ele>
        <time>2018-04-10T11:44:43Z</time>
      </trkpt>
      <trkpt lat="41.4827580" lon="2.1466620">
        <ele>82.4</ele>
        <time>2018-04-10T11:44:45Z</time>
      </trkpt>
      <trkpt lat="41.4828180" lon="2.1468040">
        <ele>82.6</ele>
        <time>2018-04-10T11:44:47Z</time>
      </trkpt>
      <trkpt lat="41.4828770" lon="2.1469310">
        <ele>83.0</ele>
        <time>2018-04-10T11:44:49Z</time>
      </trkpt>
      <trkpt lat="41.4829330" lon="2.1470520">
        <ele>83.2</ele>
        <time>2018-04-10T11:44:51Z</time>
      </trkpt>
      <trkpt lat="41.4829770" lon="2.1471670">
        <ele>83.6</ele>
        <time>2018-04-10T11:44:53Z</time>
      </trkpt>
      <trkpt lat="41.4830170" lon="2.1472830">
        <ele>84.0</ele>
        <time>2018-04-10T11:44:55Z</time>
      </trkpt>
      <trkpt lat="41.4830400" lon="2.1473370">
        <ele>84.2</ele>
        <time>2018-04-10T11:44:56Z</time>
      </trkpt>
      <trkpt lat="41.4830590" lon="2.1473890">
        <ele>84.2</ele>
        <time>2018-04-10T11:44:57Z</time>
      </trkpt>
      <trkpt lat="41.4830920" lon="2.1474920">
        <ele>84.8</ele>
        <time>2018-04-10T11:44:59Z</time>
      </trkpt>
      <trkpt lat="41.4831080" lon="2.1475460">
        <ele>85.2</ele>
        <time>2018-04-10T11:45:00Z</time>
      </trkpt>
      <trkpt lat="41.4831240" lon="2.1475950">
        <ele>85.4</ele>
        <time>2018-04-10T11:45:01Z</time>
      </trkpt>
      <trkpt lat="41.4831520" lon="2.1476790">
        <ele>85.6</ele>
        <time>2018-04-10T11:45:03Z</time>
      </trkpt>
      <trkpt lat="41.4831920" lon="2.1477730">
        <ele>86.0</ele>
        <time>2018-04-10T11:45:05Z</time>
      </trkpt>
      <trkpt lat="41.4832210" lon="2.1478510">
        <ele>86.2</ele>
        <time>2018-04-10T11:45:07Z</time>
      </trkpt>
      <trkpt lat="41.4832480" lon="2.1479070">
        <ele>86.8</ele>
        <time>2018-04-10T11:45:09Z</time>
      </trkpt>
      <trkpt lat="41.4832750" lon="2.1479500">
        <ele>87.4</ele>
        <time>2018-04-10T11:45:11Z</time>
      </trkpt>
      <trkpt lat="41.4833190" lon="2.1479950">
        <ele>88.2</ele>
        <time>2018-04-10T11:45:13Z</time>
      </trkpt>
      <trkpt lat="41.4833450" lon="2.1480260">
        <ele>88.4</ele>
        <time>2018-04-10T11:45:14Z</time>
      </trkpt>
      <trkpt lat="41.4833720" lon="2.1480590">
        <ele>88.6</ele>
        <time>2018-04-10T11:45:15Z</time>
      </trkpt>
      <trkpt lat="41.4834290" lon="2.1481240">
        <ele>88.8</ele>
        <time>2018-04-10T11:45:17Z</time>
      </trkpt>
      <trkpt lat="41.4834750" lon="2.1481910">
        <ele>89.0</ele>
        <time>2018-04-10T11:45:19Z</time>
      </trkpt>
      <trkpt lat="41.4835100" lon="2.1482640">
        <ele>89.2</ele>
        <time>2018-04-10T11:45:21Z</time>
      </trkpt>
      <trkpt lat="41.4835290" lon="2.1483470">
        <ele>89.6</ele>
        <time>2018-04-10T11:45:23Z</time>
      </trkpt>
      <trkpt lat="41.4835560" lon="2.1484300">
        <ele>89.8</ele>
        <time>2018-04-10T11:45:25Z</time>
      </trkpt>
      <trkpt lat="41.4835880" lon="2.1485080">
        <ele>90.2</ele>
        <time>2018-04-10T11:45:27Z</time>
      </trkpt>
      <trkpt lat="41.4836170" lon="2.1485870">
        <ele>90.8</ele>
        <time>2018-04-10T11:45:29Z</time>
      </trkpt>
      <trkpt lat="41.4836270" lon="2.1486270">
        <ele>91.2</ele>
        <time>2018-04-10T11:45:30Z</time>
      </trkpt>
    </trkseg>
  </trk>
</gpx>
